<?xml version="1.0" encoding="UTF-8" standalone="no" ?>
<gpx xmlns="http://www.topografix.com/GPX/1/1" xmlns:xsi="http://www.w3.org/2001/XMLSchema-instance" xsi:schemaLocation="http://www.topografix.com/GPX/1/1 http://www.topografix.com/GPX/1/1/gpx.xsd" version="1.1" creator="VisuGPX - https://www.visugpx.com">
  <metadata>
    <name>rando 50 km Créon 8 mai 2011</name>
    <desc><![CDATA[Créon Rando 50 km]]></desc>
  </metadata>
  <trk>
    <name><![CDATA[2011-05-08 08:31]]></name>
    <desc><![CDATA[]]></desc>
    <trkseg>
      <trkpt lat="44.7762" lon="-0.3511">
        <ele>163.30000305176</ele>
        <time>2011-05-08T06:32:50Z</time>
      </trkpt>
      <trkpt lat="44.77615" lon="-0.35121">
        <ele>148.39999389648</ele>
        <time>2011-05-08T06:32:52Z</time>
      </trkpt>
      <trkpt lat="44.7761" lon="-0.35121">
        <ele>142.60000610352</ele>
        <time>2011-05-08T06:32:54Z</time>
      </trkpt>
      <trkpt lat="44.77605" lon="-0.35119">
        <ele>145.30000305176</ele>
        <time>2011-05-08T06:32:57Z</time>
      </trkpt>
      <trkpt lat="44.77601" lon="-0.35112">
        <ele>146</ele>
        <time>2011-05-08T06:33:01Z</time>
      </trkpt>
      <trkpt lat="44.77597" lon="-0.35106">
        <ele>147.39999389648</ele>
        <time>2011-05-08T06:33:03Z</time>
      </trkpt>
      <trkpt lat="44.77593" lon="-0.35097">
        <ele>147.30000305176</ele>
        <time>2011-05-08T06:33:06Z</time>
      </trkpt>
      <trkpt lat="44.77589" lon="-0.35092">
        <ele>146</ele>
        <time>2011-05-08T06:33:08Z</time>
      </trkpt>
      <trkpt lat="44.77585" lon="-0.35086">
        <ele>146.5</ele>
        <time>2011-05-08T06:33:12Z</time>
      </trkpt>
      <trkpt lat="44.77581" lon="-0.35077">
        <ele>145.80000305176</ele>
        <time>2011-05-08T06:33:14Z</time>
      </trkpt>
      <trkpt lat="44.77577" lon="-0.35064">
        <ele>146.69999694824</ele>
        <time>2011-05-08T06:33:15Z</time>
      </trkpt>
      <trkpt lat="44.77572" lon="-0.35062">
        <ele>144.89999389648</ele>
        <time>2011-05-08T06:33:16Z</time>
      </trkpt>
      <trkpt lat="44.77572" lon="-0.35053">
        <ele>144.30000305176</ele>
        <time>2011-05-08T06:33:17Z</time>
      </trkpt>
      <trkpt lat="44.77575" lon="-0.35039">
        <ele>144.60000610352</ele>
        <time>2011-05-08T06:33:19Z</time>
      </trkpt>
      <trkpt lat="44.77579" lon="-0.35031">
        <ele>143.19999694824</ele>
        <time>2011-05-08T06:33:20Z</time>
      </trkpt>
      <trkpt lat="44.77583" lon="-0.35024">
        <ele>141.60000610352</ele>
        <time>2011-05-08T06:33:21Z</time>
      </trkpt>
      <trkpt lat="44.77586" lon="-0.3502">
        <ele>141.19999694824</ele>
        <time>2011-05-08T06:33:22Z</time>
      </trkpt>
      <trkpt lat="44.77591" lon="-0.35012">
        <ele>142.30000305176</ele>
        <time>2011-05-08T06:33:23Z</time>
      </trkpt>
      <trkpt lat="44.77593" lon="-0.35005">
        <ele>143</ele>
        <time>2011-05-08T06:33:24Z</time>
      </trkpt>
      <trkpt lat="44.77596" lon="-0.34995">
        <ele>144.30000305176</ele>
        <time>2011-05-08T06:33:25Z</time>
      </trkpt>
      <trkpt lat="44.77599" lon="-0.34989">
        <ele>145.10000610352</ele>
        <time>2011-05-08T06:33:26Z</time>
      </trkpt>
      <trkpt lat="44.77601" lon="-0.34981">
        <ele>146.10000610352</ele>
        <time>2011-05-08T06:33:28Z</time>
      </trkpt>
      <trkpt lat="44.77606" lon="-0.34975">
        <ele>146.69999694824</ele>
        <time>2011-05-08T06:33:30Z</time>
      </trkpt>
      <trkpt lat="44.77611" lon="-0.34965">
        <ele>147.10000610352</ele>
        <time>2011-05-08T06:33:32Z</time>
      </trkpt>
      <trkpt lat="44.77614" lon="-0.34959">
        <ele>147.39999389648</ele>
        <time>2011-05-08T06:33:33Z</time>
      </trkpt>
      <trkpt lat="44.77617" lon="-0.34949">
        <ele>147.60000610352</ele>
        <time>2011-05-08T06:33:35Z</time>
      </trkpt>
      <trkpt lat="44.77619" lon="-0.34941">
        <ele>148</ele>
        <time>2011-05-08T06:33:36Z</time>
      </trkpt>
      <trkpt lat="44.77619" lon="-0.34926">
        <ele>148</ele>
        <time>2011-05-08T06:33:38Z</time>
      </trkpt>
      <trkpt lat="44.77619" lon="-0.34919">
        <ele>147.89999389648</ele>
        <time>2011-05-08T06:33:39Z</time>
      </trkpt>
      <trkpt lat="44.77623" lon="-0.34906">
        <ele>148.10000610352</ele>
        <time>2011-05-08T06:33:41Z</time>
      </trkpt>
      <trkpt lat="44.77626" lon="-0.34901">
        <ele>148.30000305176</ele>
        <time>2011-05-08T06:33:42Z</time>
      </trkpt>
      <trkpt lat="44.77624" lon="-0.34891">
        <ele>147.19999694824</ele>
        <time>2011-05-08T06:33:43Z</time>
      </trkpt>
      <trkpt lat="44.77622" lon="-0.34882">
        <ele>147.89999389648</ele>
        <time>2011-05-08T06:33:44Z</time>
      </trkpt>
      <trkpt lat="44.77622" lon="-0.34873">
        <ele>148.89999389648</ele>
        <time>2011-05-08T06:33:45Z</time>
      </trkpt>
      <trkpt lat="44.77623" lon="-0.34864">
        <ele>149.80000305176</ele>
        <time>2011-05-08T06:33:46Z</time>
      </trkpt>
      <trkpt lat="44.77623" lon="-0.34856">
        <ele>150.69999694824</ele>
        <time>2011-05-08T06:33:47Z</time>
      </trkpt>
      <trkpt lat="44.77622" lon="-0.34849">
        <ele>151</ele>
        <time>2011-05-08T06:33:48Z</time>
      </trkpt>
      <trkpt lat="44.77624" lon="-0.34841">
        <ele>151.80000305176</ele>
        <time>2011-05-08T06:33:49Z</time>
      </trkpt>
      <trkpt lat="44.77624" lon="-0.34829">
        <ele>151.39999389648</ele>
        <time>2011-05-08T06:33:51Z</time>
      </trkpt>
      <trkpt lat="44.77626" lon="-0.34822">
        <ele>151.19999694824</ele>
        <time>2011-05-08T06:33:52Z</time>
      </trkpt>
      <trkpt lat="44.77624" lon="-0.34814">
        <ele>151.80000305176</ele>
        <time>2011-05-08T06:33:53Z</time>
      </trkpt>
      <trkpt lat="44.77624" lon="-0.34806">
        <ele>152.19999694824</ele>
        <time>2011-05-08T06:33:54Z</time>
      </trkpt>
      <trkpt lat="44.77625" lon="-0.34794">
        <ele>151.89999389648</ele>
        <time>2011-05-08T06:33:56Z</time>
      </trkpt>
      <trkpt lat="44.77623" lon="-0.34782">
        <ele>151.80000305176</ele>
        <time>2011-05-08T06:33:58Z</time>
      </trkpt>
      <trkpt lat="44.77622" lon="-0.34774">
        <ele>152.10000610352</ele>
        <time>2011-05-08T06:33:59Z</time>
      </trkpt>
      <trkpt lat="44.77621" lon="-0.34766">
        <ele>152.39999389648</ele>
        <time>2011-05-08T06:34:00Z</time>
      </trkpt>
      <trkpt lat="44.77621" lon="-0.3476">
        <ele>152.30000305176</ele>
        <time>2011-05-08T06:34:01Z</time>
      </trkpt>
      <trkpt lat="44.77621" lon="-0.34753">
        <ele>151.80000305176</ele>
        <time>2011-05-08T06:34:02Z</time>
      </trkpt>
      <trkpt lat="44.7762" lon="-0.34745">
        <ele>152.19999694824</ele>
        <time>2011-05-08T06:34:03Z</time>
      </trkpt>
      <trkpt lat="44.77619" lon="-0.34738">
        <ele>152.5</ele>
        <time>2011-05-08T06:34:04Z</time>
      </trkpt>
      <trkpt lat="44.77617" lon="-0.34731">
        <ele>152.69999694824</ele>
        <time>2011-05-08T06:34:05Z</time>
      </trkpt>
      <trkpt lat="44.77616" lon="-0.34719">
        <ele>151.30000305176</ele>
        <time>2011-05-08T06:34:07Z</time>
      </trkpt>
      <trkpt lat="44.77614" lon="-0.34709">
        <ele>151.30000305176</ele>
        <time>2011-05-08T06:34:09Z</time>
      </trkpt>
      <trkpt lat="44.77613" lon="-0.34697">
        <ele>150.5</ele>
        <time>2011-05-08T06:34:11Z</time>
      </trkpt>
      <trkpt lat="44.77609" lon="-0.34693">
        <ele>149.39999389648</ele>
        <time>2011-05-08T06:34:12Z</time>
      </trkpt>
      <trkpt lat="44.77606" lon="-0.34687">
        <ele>149.89999389648</ele>
        <time>2011-05-08T06:34:13Z</time>
      </trkpt>
      <trkpt lat="44.776" lon="-0.34679">
        <ele>149.39999389648</ele>
        <time>2011-05-08T06:34:15Z</time>
      </trkpt>
      <trkpt lat="44.77596" lon="-0.34675">
        <ele>149.5</ele>
        <time>2011-05-08T06:34:16Z</time>
      </trkpt>
      <trkpt lat="44.7759" lon="-0.34667">
        <ele>149.39999389648</ele>
        <time>2011-05-08T06:34:18Z</time>
      </trkpt>
      <trkpt lat="44.77583" lon="-0.34663">
        <ele>149.19999694824</ele>
        <time>2011-05-08T06:34:20Z</time>
      </trkpt>
      <trkpt lat="44.77578" lon="-0.34657">
        <ele>151</ele>
        <time>2011-05-08T06:34:22Z</time>
      </trkpt>
      <trkpt lat="44.77573" lon="-0.34648">
        <ele>150.69999694824</ele>
        <time>2011-05-08T06:34:24Z</time>
      </trkpt>
      <trkpt lat="44.77566" lon="-0.34642">
        <ele>150.39999389648</ele>
        <time>2011-05-08T06:34:26Z</time>
      </trkpt>
      <trkpt lat="44.77562" lon="-0.34639">
        <ele>150.39999389648</ele>
        <time>2011-05-08T06:34:27Z</time>
      </trkpt>
      <trkpt lat="44.7755" lon="-0.34635">
        <ele>150.5</ele>
        <time>2011-05-08T06:34:29Z</time>
      </trkpt>
      <trkpt lat="44.77545" lon="-0.34633">
        <ele>149.89999389648</ele>
        <time>2011-05-08T06:34:30Z</time>
      </trkpt>
      <trkpt lat="44.7754" lon="-0.34629">
        <ele>149.60000610352</ele>
        <time>2011-05-08T06:34:31Z</time>
      </trkpt>
      <trkpt lat="44.77536" lon="-0.34627">
        <ele>149.69999694824</ele>
        <time>2011-05-08T06:34:32Z</time>
      </trkpt>
      <trkpt lat="44.77527" lon="-0.34623">
        <ele>150.69999694824</ele>
        <time>2011-05-08T06:34:34Z</time>
      </trkpt>
      <trkpt lat="44.77522" lon="-0.34622">
        <ele>150.89999389648</ele>
        <time>2011-05-08T06:34:35Z</time>
      </trkpt>
      <trkpt lat="44.77514" lon="-0.34616">
        <ele>150.60000610352</ele>
        <time>2011-05-08T06:34:37Z</time>
      </trkpt>
      <trkpt lat="44.77505" lon="-0.34612">
        <ele>151.30000305176</ele>
        <time>2011-05-08T06:34:39Z</time>
      </trkpt>
      <trkpt lat="44.77497" lon="-0.34608">
        <ele>150.69999694824</ele>
        <time>2011-05-08T06:34:41Z</time>
      </trkpt>
      <trkpt lat="44.77492" lon="-0.34605">
        <ele>150.80000305176</ele>
        <time>2011-05-08T06:34:42Z</time>
      </trkpt>
      <trkpt lat="44.77486" lon="-0.34604">
        <ele>151</ele>
        <time>2011-05-08T06:34:43Z</time>
      </trkpt>
      <trkpt lat="44.77481" lon="-0.34602">
        <ele>150.5</ele>
        <time>2011-05-08T06:34:44Z</time>
      </trkpt>
      <trkpt lat="44.77476" lon="-0.346">
        <ele>150.30000305176</ele>
        <time>2011-05-08T06:34:45Z</time>
      </trkpt>
      <trkpt lat="44.7747" lon="-0.34597">
        <ele>150.39999389648</ele>
        <time>2011-05-08T06:34:46Z</time>
      </trkpt>
      <trkpt lat="44.77465" lon="-0.34595">
        <ele>150.69999694824</ele>
        <time>2011-05-08T06:34:47Z</time>
      </trkpt>
      <trkpt lat="44.7746" lon="-0.34592">
        <ele>151.39999389648</ele>
        <time>2011-05-08T06:34:48Z</time>
      </trkpt>
      <trkpt lat="44.77453" lon="-0.3459">
        <ele>151.30000305176</ele>
        <time>2011-05-08T06:34:49Z</time>
      </trkpt>
      <trkpt lat="44.77447" lon="-0.34588">
        <ele>151.39999389648</ele>
        <time>2011-05-08T06:34:50Z</time>
      </trkpt>
      <trkpt lat="44.77443" lon="-0.34585">
        <ele>151.5</ele>
        <time>2011-05-08T06:34:52Z</time>
      </trkpt>
      <trkpt lat="44.77437" lon="-0.34584">
        <ele>152</ele>
        <time>2011-05-08T06:34:53Z</time>
      </trkpt>
      <trkpt lat="44.77431" lon="-0.34583">
        <ele>151.69999694824</ele>
        <time>2011-05-08T06:34:54Z</time>
      </trkpt>
      <trkpt lat="44.77425" lon="-0.34584">
        <ele>152.10000610352</ele>
        <time>2011-05-08T06:34:55Z</time>
      </trkpt>
      <trkpt lat="44.77419" lon="-0.34586">
        <ele>151.5</ele>
        <time>2011-05-08T06:34:56Z</time>
      </trkpt>
      <trkpt lat="44.77409" lon="-0.34591">
        <ele>152</ele>
        <time>2011-05-08T06:34:58Z</time>
      </trkpt>
      <trkpt lat="44.77405" lon="-0.34595">
        <ele>153.19999694824</ele>
        <time>2011-05-08T06:34:59Z</time>
      </trkpt>
      <trkpt lat="44.77399" lon="-0.346">
        <ele>152.89999389648</ele>
        <time>2011-05-08T06:35:00Z</time>
      </trkpt>
      <trkpt lat="44.77394" lon="-0.34605">
        <ele>153</ele>
        <time>2011-05-08T06:35:01Z</time>
      </trkpt>
      <trkpt lat="44.77389" lon="-0.34608">
        <ele>152.10000610352</ele>
        <time>2011-05-08T06:35:02Z</time>
      </trkpt>
      <trkpt lat="44.77385" lon="-0.34613">
        <ele>152.5</ele>
        <time>2011-05-08T06:35:03Z</time>
      </trkpt>
      <trkpt lat="44.77378" lon="-0.34616">
        <ele>151.69999694824</ele>
        <time>2011-05-08T06:35:04Z</time>
      </trkpt>
      <trkpt lat="44.77374" lon="-0.34621">
        <ele>151.19999694824</ele>
        <time>2011-05-08T06:35:05Z</time>
      </trkpt>
      <trkpt lat="44.7737" lon="-0.34626">
        <ele>151</ele>
        <time>2011-05-08T06:35:06Z</time>
      </trkpt>
      <trkpt lat="44.77366" lon="-0.34631">
        <ele>151.10000610352</ele>
        <time>2011-05-08T06:35:07Z</time>
      </trkpt>
      <trkpt lat="44.7736" lon="-0.34642">
        <ele>150.89999389648</ele>
        <time>2011-05-08T06:35:09Z</time>
      </trkpt>
      <trkpt lat="44.77357" lon="-0.34648">
        <ele>150.39999389648</ele>
        <time>2011-05-08T06:35:10Z</time>
      </trkpt>
      <trkpt lat="44.77355" lon="-0.34655">
        <ele>151.19999694824</ele>
        <time>2011-05-08T06:35:11Z</time>
      </trkpt>
      <trkpt lat="44.77352" lon="-0.34662">
        <ele>150.60000610352</ele>
        <time>2011-05-08T06:35:12Z</time>
      </trkpt>
      <trkpt lat="44.77343" lon="-0.34665">
        <ele>150.19999694824</ele>
        <time>2011-05-08T06:35:14Z</time>
      </trkpt>
      <trkpt lat="44.77338" lon="-0.34662">
        <ele>150.19999694824</ele>
        <time>2011-05-08T06:35:15Z</time>
      </trkpt>
      <trkpt lat="44.77335" lon="-0.34657">
        <ele>149.69999694824</ele>
        <time>2011-05-08T06:35:16Z</time>
      </trkpt>
      <trkpt lat="44.77332" lon="-0.34651">
        <ele>149.80000305176</ele>
        <time>2011-05-08T06:35:17Z</time>
      </trkpt>
      <trkpt lat="44.77327" lon="-0.34646">
        <ele>149.89999389648</ele>
        <time>2011-05-08T06:35:18Z</time>
      </trkpt>
      <trkpt lat="44.77323" lon="-0.34641">
        <ele>150.10000610352</ele>
        <time>2011-05-08T06:35:19Z</time>
      </trkpt>
      <trkpt lat="44.77319" lon="-0.34636">
        <ele>150</ele>
        <time>2011-05-08T06:35:20Z</time>
      </trkpt>
      <trkpt lat="44.77315" lon="-0.34631">
        <ele>150.19999694824</ele>
        <time>2011-05-08T06:35:21Z</time>
      </trkpt>
      <trkpt lat="44.77312" lon="-0.34625">
        <ele>150.5</ele>
        <time>2011-05-08T06:35:22Z</time>
      </trkpt>
      <trkpt lat="44.77308" lon="-0.3462">
        <ele>151</ele>
        <time>2011-05-08T06:35:23Z</time>
      </trkpt>
      <trkpt lat="44.77305" lon="-0.34616">
        <ele>151</ele>
        <time>2011-05-08T06:35:24Z</time>
      </trkpt>
      <trkpt lat="44.77301" lon="-0.34609">
        <ele>151.10000610352</ele>
        <time>2011-05-08T06:35:25Z</time>
      </trkpt>
      <trkpt lat="44.77297" lon="-0.34604">
        <ele>150.69999694824</ele>
        <time>2011-05-08T06:35:26Z</time>
      </trkpt>
      <trkpt lat="44.77293" lon="-0.346">
        <ele>150.89999389648</ele>
        <time>2011-05-08T06:35:27Z</time>
      </trkpt>
      <trkpt lat="44.77288" lon="-0.34596">
        <ele>150.19999694824</ele>
        <time>2011-05-08T06:35:28Z</time>
      </trkpt>
      <trkpt lat="44.77284" lon="-0.34593">
        <ele>149.5</ele>
        <time>2011-05-08T06:35:29Z</time>
      </trkpt>
      <trkpt lat="44.77275" lon="-0.3459">
        <ele>150.39999389648</ele>
        <time>2011-05-08T06:35:31Z</time>
      </trkpt>
      <trkpt lat="44.7727" lon="-0.34588">
        <ele>150.30000305176</ele>
        <time>2011-05-08T06:35:32Z</time>
      </trkpt>
      <trkpt lat="44.77265" lon="-0.34584">
        <ele>151.30000305176</ele>
        <time>2011-05-08T06:35:33Z</time>
      </trkpt>
      <trkpt lat="44.7726" lon="-0.34581">
        <ele>151</ele>
        <time>2011-05-08T06:35:34Z</time>
      </trkpt>
      <trkpt lat="44.7725" lon="-0.34576">
        <ele>151.19999694824</ele>
        <time>2011-05-08T06:35:36Z</time>
      </trkpt>
      <trkpt lat="44.77244" lon="-0.34573">
        <ele>151.39999389648</ele>
        <time>2011-05-08T06:35:37Z</time>
      </trkpt>
      <trkpt lat="44.77237" lon="-0.34567">
        <ele>151.80000305176</ele>
        <time>2011-05-08T06:35:39Z</time>
      </trkpt>
      <trkpt lat="44.77231" lon="-0.34564">
        <ele>152.30000305176</ele>
        <time>2011-05-08T06:35:40Z</time>
      </trkpt>
      <trkpt lat="44.77226" lon="-0.3456">
        <ele>152.30000305176</ele>
        <time>2011-05-08T06:35:41Z</time>
      </trkpt>
      <trkpt lat="44.77222" lon="-0.34558">
        <ele>151.80000305176</ele>
        <time>2011-05-08T06:35:42Z</time>
      </trkpt>
      <trkpt lat="44.77217" lon="-0.34555">
        <ele>152.10000610352</ele>
        <time>2011-05-08T06:35:43Z</time>
      </trkpt>
      <trkpt lat="44.77211" lon="-0.34552">
        <ele>152.39999389648</ele>
        <time>2011-05-08T06:35:44Z</time>
      </trkpt>
      <trkpt lat="44.77207" lon="-0.34548">
        <ele>152.60000610352</ele>
        <time>2011-05-08T06:35:45Z</time>
      </trkpt>
      <trkpt lat="44.77202" lon="-0.34545">
        <ele>152.10000610352</ele>
        <time>2011-05-08T06:35:46Z</time>
      </trkpt>
      <trkpt lat="44.77196" lon="-0.34541">
        <ele>152</ele>
        <time>2011-05-08T06:35:47Z</time>
      </trkpt>
      <trkpt lat="44.77192" lon="-0.34538">
        <ele>152</ele>
        <time>2011-05-08T06:35:48Z</time>
      </trkpt>
      <trkpt lat="44.77188" lon="-0.34535">
        <ele>151.80000305176</ele>
        <time>2011-05-08T06:35:49Z</time>
      </trkpt>
      <trkpt lat="44.77182" lon="-0.34531">
        <ele>151.39999389648</ele>
        <time>2011-05-08T06:35:50Z</time>
      </trkpt>
      <trkpt lat="44.77176" lon="-0.34528">
        <ele>152</ele>
        <time>2011-05-08T06:35:51Z</time>
      </trkpt>
      <trkpt lat="44.77171" lon="-0.34526">
        <ele>151.5</ele>
        <time>2011-05-08T06:35:52Z</time>
      </trkpt>
      <trkpt lat="44.77162" lon="-0.3452">
        <ele>151</ele>
        <time>2011-05-08T06:35:54Z</time>
      </trkpt>
      <trkpt lat="44.77158" lon="-0.34517">
        <ele>151.30000305176</ele>
        <time>2011-05-08T06:35:55Z</time>
      </trkpt>
      <trkpt lat="44.77151" lon="-0.34514">
        <ele>151.5</ele>
        <time>2011-05-08T06:35:56Z</time>
      </trkpt>
      <trkpt lat="44.77146" lon="-0.3451">
        <ele>152</ele>
        <time>2011-05-08T06:35:57Z</time>
      </trkpt>
      <trkpt lat="44.77136" lon="-0.34505">
        <ele>151.60000610352</ele>
        <time>2011-05-08T06:35:59Z</time>
      </trkpt>
      <trkpt lat="44.7713" lon="-0.34502">
        <ele>151</ele>
        <time>2011-05-08T06:36:00Z</time>
      </trkpt>
      <trkpt lat="44.77121" lon="-0.34497">
        <ele>150.89999389648</ele>
        <time>2011-05-08T06:36:02Z</time>
      </trkpt>
      <trkpt lat="44.77116" lon="-0.34495">
        <ele>150.69999694824</ele>
        <time>2011-05-08T06:36:03Z</time>
      </trkpt>
      <trkpt lat="44.7711" lon="-0.34492">
        <ele>150.19999694824</ele>
        <time>2011-05-08T06:36:04Z</time>
      </trkpt>
      <trkpt lat="44.77106" lon="-0.34488">
        <ele>149.5</ele>
        <time>2011-05-08T06:36:05Z</time>
      </trkpt>
      <trkpt lat="44.77101" lon="-0.34484">
        <ele>149.69999694824</ele>
        <time>2011-05-08T06:36:06Z</time>
      </trkpt>
      <trkpt lat="44.77095" lon="-0.34481">
        <ele>149.19999694824</ele>
        <time>2011-05-08T06:36:07Z</time>
      </trkpt>
      <trkpt lat="44.7709" lon="-0.34478">
        <ele>148.80000305176</ele>
        <time>2011-05-08T06:36:08Z</time>
      </trkpt>
      <trkpt lat="44.77085" lon="-0.34474">
        <ele>148.80000305176</ele>
        <time>2011-05-08T06:36:09Z</time>
      </trkpt>
      <trkpt lat="44.7708" lon="-0.34472">
        <ele>148.80000305176</ele>
        <time>2011-05-08T06:36:10Z</time>
      </trkpt>
      <trkpt lat="44.77071" lon="-0.34467">
        <ele>149.19999694824</ele>
        <time>2011-05-08T06:36:12Z</time>
      </trkpt>
      <trkpt lat="44.77066" lon="-0.34463">
        <ele>149.39999389648</ele>
        <time>2011-05-08T06:36:13Z</time>
      </trkpt>
      <trkpt lat="44.77058" lon="-0.34458">
        <ele>150.19999694824</ele>
        <time>2011-05-08T06:36:15Z</time>
      </trkpt>
      <trkpt lat="44.77051" lon="-0.34456">
        <ele>151</ele>
        <time>2011-05-08T06:36:16Z</time>
      </trkpt>
      <trkpt lat="44.77046" lon="-0.34452">
        <ele>151</ele>
        <time>2011-05-08T06:36:17Z</time>
      </trkpt>
      <trkpt lat="44.7704" lon="-0.34448">
        <ele>150.69999694824</ele>
        <time>2011-05-08T06:36:18Z</time>
      </trkpt>
      <trkpt lat="44.77034" lon="-0.34446">
        <ele>151</ele>
        <time>2011-05-08T06:36:19Z</time>
      </trkpt>
      <trkpt lat="44.77029" lon="-0.34445">
        <ele>150.5</ele>
        <time>2011-05-08T06:36:20Z</time>
      </trkpt>
      <trkpt lat="44.77024" lon="-0.34443">
        <ele>149.60000610352</ele>
        <time>2011-05-08T06:36:21Z</time>
      </trkpt>
      <trkpt lat="44.77017" lon="-0.3444">
        <ele>149.39999389648</ele>
        <time>2011-05-08T06:36:22Z</time>
      </trkpt>
      <trkpt lat="44.77011" lon="-0.34439">
        <ele>149.80000305176</ele>
        <time>2011-05-08T06:36:23Z</time>
      </trkpt>
      <trkpt lat="44.77004" lon="-0.34436">
        <ele>149.30000305176</ele>
        <time>2011-05-08T06:36:24Z</time>
      </trkpt>
      <trkpt lat="44.76999" lon="-0.34434">
        <ele>148.19999694824</ele>
        <time>2011-05-08T06:36:25Z</time>
      </trkpt>
      <trkpt lat="44.76992" lon="-0.34432">
        <ele>148.30000305176</ele>
        <time>2011-05-08T06:36:26Z</time>
      </trkpt>
      <trkpt lat="44.76987" lon="-0.3443">
        <ele>148.19999694824</ele>
        <time>2011-05-08T06:36:27Z</time>
      </trkpt>
      <trkpt lat="44.76982" lon="-0.34428">
        <ele>148.30000305176</ele>
        <time>2011-05-08T06:36:28Z</time>
      </trkpt>
      <trkpt lat="44.76975" lon="-0.34426">
        <ele>149.39999389648</ele>
        <time>2011-05-08T06:36:29Z</time>
      </trkpt>
      <trkpt lat="44.76969" lon="-0.34424">
        <ele>149.5</ele>
        <time>2011-05-08T06:36:30Z</time>
      </trkpt>
      <trkpt lat="44.76964" lon="-0.34421">
        <ele>149.5</ele>
        <time>2011-05-08T06:36:31Z</time>
      </trkpt>
      <trkpt lat="44.76958" lon="-0.34419">
        <ele>149.69999694824</ele>
        <time>2011-05-08T06:36:32Z</time>
      </trkpt>
      <trkpt lat="44.76954" lon="-0.34416">
        <ele>149.5</ele>
        <time>2011-05-08T06:36:33Z</time>
      </trkpt>
      <trkpt lat="44.76948" lon="-0.34412">
        <ele>149.39999389648</ele>
        <time>2011-05-08T06:36:34Z</time>
      </trkpt>
      <trkpt lat="44.76944" lon="-0.34409">
        <ele>149.80000305176</ele>
        <time>2011-05-08T06:36:35Z</time>
      </trkpt>
      <trkpt lat="44.76937" lon="-0.34405">
        <ele>149.5</ele>
        <time>2011-05-08T06:36:36Z</time>
      </trkpt>
      <trkpt lat="44.76925" lon="-0.34396">
        <ele>149.19999694824</ele>
        <time>2011-05-08T06:36:38Z</time>
      </trkpt>
      <trkpt lat="44.76919" lon="-0.34393">
        <ele>149.5</ele>
        <time>2011-05-08T06:36:39Z</time>
      </trkpt>
      <trkpt lat="44.76913" lon="-0.34388">
        <ele>149.69999694824</ele>
        <time>2011-05-08T06:36:40Z</time>
      </trkpt>
      <trkpt lat="44.76906" lon="-0.34385">
        <ele>149.39999389648</ele>
        <time>2011-05-08T06:36:41Z</time>
      </trkpt>
      <trkpt lat="44.769" lon="-0.34382">
        <ele>149.10000610352</ele>
        <time>2011-05-08T06:36:42Z</time>
      </trkpt>
      <trkpt lat="44.76893" lon="-0.3438">
        <ele>148.69999694824</ele>
        <time>2011-05-08T06:36:43Z</time>
      </trkpt>
      <trkpt lat="44.76887" lon="-0.34375">
        <ele>148.69999694824</ele>
        <time>2011-05-08T06:36:44Z</time>
      </trkpt>
      <trkpt lat="44.76882" lon="-0.34371">
        <ele>149.30000305176</ele>
        <time>2011-05-08T06:36:45Z</time>
      </trkpt>
      <trkpt lat="44.76875" lon="-0.34366">
        <ele>148.89999389648</ele>
        <time>2011-05-08T06:36:46Z</time>
      </trkpt>
      <trkpt lat="44.76868" lon="-0.34362">
        <ele>148.5</ele>
        <time>2011-05-08T06:36:47Z</time>
      </trkpt>
      <trkpt lat="44.76861" lon="-0.34358">
        <ele>148.30000305176</ele>
        <time>2011-05-08T06:36:48Z</time>
      </trkpt>
      <trkpt lat="44.76856" lon="-0.34355">
        <ele>148.39999389648</ele>
        <time>2011-05-08T06:36:49Z</time>
      </trkpt>
      <trkpt lat="44.7685" lon="-0.3435">
        <ele>148.89999389648</ele>
        <time>2011-05-08T06:36:50Z</time>
      </trkpt>
      <trkpt lat="44.76844" lon="-0.34347">
        <ele>149.19999694824</ele>
        <time>2011-05-08T06:36:51Z</time>
      </trkpt>
      <trkpt lat="44.76837" lon="-0.34344">
        <ele>149</ele>
        <time>2011-05-08T06:36:52Z</time>
      </trkpt>
      <trkpt lat="44.7683" lon="-0.3434">
        <ele>149.30000305176</ele>
        <time>2011-05-08T06:36:53Z</time>
      </trkpt>
      <trkpt lat="44.76823" lon="-0.34335">
        <ele>149.19999694824</ele>
        <time>2011-05-08T06:36:54Z</time>
      </trkpt>
      <trkpt lat="44.76817" lon="-0.3433">
        <ele>149.60000610352</ele>
        <time>2011-05-08T06:36:55Z</time>
      </trkpt>
      <trkpt lat="44.76812" lon="-0.34327">
        <ele>149.89999389648</ele>
        <time>2011-05-08T06:36:56Z</time>
      </trkpt>
      <trkpt lat="44.76805" lon="-0.34322">
        <ele>149.69999694824</ele>
        <time>2011-05-08T06:36:57Z</time>
      </trkpt>
      <trkpt lat="44.76798" lon="-0.34318">
        <ele>149.60000610352</ele>
        <time>2011-05-08T06:36:58Z</time>
      </trkpt>
      <trkpt lat="44.76792" lon="-0.34313">
        <ele>150.30000305176</ele>
        <time>2011-05-08T06:36:59Z</time>
      </trkpt>
      <trkpt lat="44.76786" lon="-0.34308">
        <ele>149.80000305176</ele>
        <time>2011-05-08T06:37:00Z</time>
      </trkpt>
      <trkpt lat="44.76781" lon="-0.34304">
        <ele>149.5</ele>
        <time>2011-05-08T06:37:01Z</time>
      </trkpt>
      <trkpt lat="44.76775" lon="-0.343">
        <ele>149.60000610352</ele>
        <time>2011-05-08T06:37:02Z</time>
      </trkpt>
      <trkpt lat="44.76769" lon="-0.34296">
        <ele>149.39999389648</ele>
        <time>2011-05-08T06:37:03Z</time>
      </trkpt>
      <trkpt lat="44.76764" lon="-0.34292">
        <ele>149.19999694824</ele>
        <time>2011-05-08T06:37:04Z</time>
      </trkpt>
      <trkpt lat="44.76757" lon="-0.3429">
        <ele>149.5</ele>
        <time>2011-05-08T06:37:05Z</time>
      </trkpt>
      <trkpt lat="44.76752" lon="-0.34286">
        <ele>149.30000305176</ele>
        <time>2011-05-08T06:37:06Z</time>
      </trkpt>
      <trkpt lat="44.76747" lon="-0.3428">
        <ele>149.10000610352</ele>
        <time>2011-05-08T06:37:07Z</time>
      </trkpt>
      <trkpt lat="44.76739" lon="-0.34275">
        <ele>148.69999694824</ele>
        <time>2011-05-08T06:37:09Z</time>
      </trkpt>
      <trkpt lat="44.76736" lon="-0.34272">
        <ele>149.10000610352</ele>
        <time>2011-05-08T06:37:10Z</time>
      </trkpt>
      <trkpt lat="44.7673" lon="-0.34269">
        <ele>148.89999389648</ele>
        <time>2011-05-08T06:37:11Z</time>
      </trkpt>
      <trkpt lat="44.76724" lon="-0.34265">
        <ele>149.19999694824</ele>
        <time>2011-05-08T06:37:13Z</time>
      </trkpt>
      <trkpt lat="44.76719" lon="-0.34263">
        <ele>149.10000610352</ele>
        <time>2011-05-08T06:37:14Z</time>
      </trkpt>
      <trkpt lat="44.76714" lon="-0.34259">
        <ele>148.89999389648</ele>
        <time>2011-05-08T06:37:15Z</time>
      </trkpt>
      <trkpt lat="44.76709" lon="-0.34255">
        <ele>149.60000610352</ele>
        <time>2011-05-08T06:37:17Z</time>
      </trkpt>
      <trkpt lat="44.76705" lon="-0.34253">
        <ele>149.39999389648</ele>
        <time>2011-05-08T06:37:18Z</time>
      </trkpt>
      <trkpt lat="44.76699" lon="-0.34246">
        <ele>149.69999694824</ele>
        <time>2011-05-08T06:37:20Z</time>
      </trkpt>
      <trkpt lat="44.76701" lon="-0.34235">
        <ele>150.10000610352</ele>
        <time>2011-05-08T06:37:38Z</time>
      </trkpt>
      <trkpt lat="44.76705" lon="-0.34227">
        <ele>150.39999389648</ele>
        <time>2011-05-08T06:37:40Z</time>
      </trkpt>
      <trkpt lat="44.76708" lon="-0.34217">
        <ele>150.69999694824</ele>
        <time>2011-05-08T06:37:42Z</time>
      </trkpt>
      <trkpt lat="44.76712" lon="-0.34208">
        <ele>150.89999389648</ele>
        <time>2011-05-08T06:37:43Z</time>
      </trkpt>
      <trkpt lat="44.76715" lon="-0.34201">
        <ele>151.69999694824</ele>
        <time>2011-05-08T06:37:44Z</time>
      </trkpt>
      <trkpt lat="44.76716" lon="-0.34193">
        <ele>151.89999389648</ele>
        <time>2011-05-08T06:37:45Z</time>
      </trkpt>
      <trkpt lat="44.76719" lon="-0.34187">
        <ele>151.80000305176</ele>
        <time>2011-05-08T06:37:46Z</time>
      </trkpt>
      <trkpt lat="44.76721" lon="-0.3418">
        <ele>151.69999694824</ele>
        <time>2011-05-08T06:37:47Z</time>
      </trkpt>
      <trkpt lat="44.76723" lon="-0.34173">
        <ele>151.89999389648</ele>
        <time>2011-05-08T06:37:48Z</time>
      </trkpt>
      <trkpt lat="44.76724" lon="-0.34166">
        <ele>152</ele>
        <time>2011-05-08T06:37:49Z</time>
      </trkpt>
      <trkpt lat="44.76725" lon="-0.34158">
        <ele>151.39999389648</ele>
        <time>2011-05-08T06:37:50Z</time>
      </trkpt>
      <trkpt lat="44.76726" lon="-0.34152">
        <ele>151.39999389648</ele>
        <time>2011-05-08T06:37:51Z</time>
      </trkpt>
      <trkpt lat="44.76728" lon="-0.34146">
        <ele>151.5</ele>
        <time>2011-05-08T06:37:52Z</time>
      </trkpt>
      <trkpt lat="44.76731" lon="-0.34137">
        <ele>151.30000305176</ele>
        <time>2011-05-08T06:37:53Z</time>
      </trkpt>
      <trkpt lat="44.76734" lon="-0.3413">
        <ele>151.60000610352</ele>
        <time>2011-05-08T06:37:54Z</time>
      </trkpt>
      <trkpt lat="44.76737" lon="-0.34123">
        <ele>151.60000610352</ele>
        <time>2011-05-08T06:37:55Z</time>
      </trkpt>
      <trkpt lat="44.76739" lon="-0.34114">
        <ele>151.89999389648</ele>
        <time>2011-05-08T06:37:56Z</time>
      </trkpt>
      <trkpt lat="44.76739" lon="-0.34105">
        <ele>151.69999694824</ele>
        <time>2011-05-08T06:37:57Z</time>
      </trkpt>
      <trkpt lat="44.76741" lon="-0.34095">
        <ele>151.89999389648</ele>
        <time>2011-05-08T06:37:58Z</time>
      </trkpt>
      <trkpt lat="44.76742" lon="-0.34086">
        <ele>151.89999389648</ele>
        <time>2011-05-08T06:37:59Z</time>
      </trkpt>
      <trkpt lat="44.76745" lon="-0.34075">
        <ele>152.10000610352</ele>
        <time>2011-05-08T06:38:00Z</time>
      </trkpt>
      <trkpt lat="44.76747" lon="-0.34062">
        <ele>152.60000610352</ele>
        <time>2011-05-08T06:38:01Z</time>
      </trkpt>
      <trkpt lat="44.76748" lon="-0.34051">
        <ele>152.19999694824</ele>
        <time>2011-05-08T06:38:02Z</time>
      </trkpt>
      <trkpt lat="44.7675" lon="-0.34039">
        <ele>152.69999694824</ele>
        <time>2011-05-08T06:38:03Z</time>
      </trkpt>
      <trkpt lat="44.76752" lon="-0.34027">
        <ele>152.69999694824</ele>
        <time>2011-05-08T06:38:04Z</time>
      </trkpt>
      <trkpt lat="44.76754" lon="-0.34014">
        <ele>152.30000305176</ele>
        <time>2011-05-08T06:38:05Z</time>
      </trkpt>
      <trkpt lat="44.76752" lon="-0.34001">
        <ele>152.10000610352</ele>
        <time>2011-05-08T06:38:06Z</time>
      </trkpt>
      <trkpt lat="44.76755" lon="-0.33991">
        <ele>151.10000610352</ele>
        <time>2011-05-08T06:38:07Z</time>
      </trkpt>
      <trkpt lat="44.76756" lon="-0.3398">
        <ele>150.89999389648</ele>
        <time>2011-05-08T06:38:08Z</time>
      </trkpt>
      <trkpt lat="44.76754" lon="-0.33972">
        <ele>150.69999694824</ele>
        <time>2011-05-08T06:38:09Z</time>
      </trkpt>
      <trkpt lat="44.76749" lon="-0.3397">
        <ele>150.60000610352</ele>
        <time>2011-05-08T06:38:10Z</time>
      </trkpt>
      <trkpt lat="44.76744" lon="-0.33968">
        <ele>150.19999694824</ele>
        <time>2011-05-08T06:38:11Z</time>
      </trkpt>
      <trkpt lat="44.76738" lon="-0.33968">
        <ele>150.30000305176</ele>
        <time>2011-05-08T06:38:12Z</time>
      </trkpt>
      <trkpt lat="44.76733" lon="-0.33968">
        <ele>148.19999694824</ele>
        <time>2011-05-08T06:38:13Z</time>
      </trkpt>
      <trkpt lat="44.76728" lon="-0.33966">
        <ele>146.60000610352</ele>
        <time>2011-05-08T06:38:14Z</time>
      </trkpt>
      <trkpt lat="44.76721" lon="-0.33965">
        <ele>146.69999694824</ele>
        <time>2011-05-08T06:38:15Z</time>
      </trkpt>
      <trkpt lat="44.76716" lon="-0.33964">
        <ele>145.69999694824</ele>
        <time>2011-05-08T06:38:16Z</time>
      </trkpt>
      <trkpt lat="44.76711" lon="-0.33963">
        <ele>145.60000610352</ele>
        <time>2011-05-08T06:38:17Z</time>
      </trkpt>
      <trkpt lat="44.76706" lon="-0.33961">
        <ele>145.30000305176</ele>
        <time>2011-05-08T06:38:18Z</time>
      </trkpt>
      <trkpt lat="44.767" lon="-0.33959">
        <ele>143.60000610352</ele>
        <time>2011-05-08T06:38:19Z</time>
      </trkpt>
      <trkpt lat="44.76694" lon="-0.33957">
        <ele>143.30000305176</ele>
        <time>2011-05-08T06:38:20Z</time>
      </trkpt>
      <trkpt lat="44.76689" lon="-0.33955">
        <ele>142.80000305176</ele>
        <time>2011-05-08T06:38:21Z</time>
      </trkpt>
      <trkpt lat="44.76684" lon="-0.33953">
        <ele>142.39999389648</ele>
        <time>2011-05-08T06:38:22Z</time>
      </trkpt>
      <trkpt lat="44.76678" lon="-0.33952">
        <ele>142.39999389648</ele>
        <time>2011-05-08T06:38:23Z</time>
      </trkpt>
      <trkpt lat="44.76673" lon="-0.3395">
        <ele>142</ele>
        <time>2011-05-08T06:38:24Z</time>
      </trkpt>
      <trkpt lat="44.76667" lon="-0.33949">
        <ele>141.69999694824</ele>
        <time>2011-05-08T06:38:25Z</time>
      </trkpt>
      <trkpt lat="44.7666" lon="-0.33948">
        <ele>141.5</ele>
        <time>2011-05-08T06:38:26Z</time>
      </trkpt>
      <trkpt lat="44.76655" lon="-0.33948">
        <ele>140.60000610352</ele>
        <time>2011-05-08T06:38:27Z</time>
      </trkpt>
      <trkpt lat="44.76649" lon="-0.33947">
        <ele>140.10000610352</ele>
        <time>2011-05-08T06:38:28Z</time>
      </trkpt>
      <trkpt lat="44.76644" lon="-0.33947">
        <ele>139.19999694824</ele>
        <time>2011-05-08T06:38:29Z</time>
      </trkpt>
      <trkpt lat="44.76636" lon="-0.33945">
        <ele>139.39999389648</ele>
        <time>2011-05-08T06:38:31Z</time>
      </trkpt>
      <trkpt lat="44.7663" lon="-0.33942">
        <ele>138.80000305176</ele>
        <time>2011-05-08T06:38:32Z</time>
      </trkpt>
      <trkpt lat="44.76625" lon="-0.33939">
        <ele>137.69999694824</ele>
        <time>2011-05-08T06:38:33Z</time>
      </trkpt>
      <trkpt lat="44.7662" lon="-0.33935">
        <ele>137.19999694824</ele>
        <time>2011-05-08T06:38:34Z</time>
      </trkpt>
      <trkpt lat="44.76615" lon="-0.33932">
        <ele>136.19999694824</ele>
        <time>2011-05-08T06:38:35Z</time>
      </trkpt>
      <trkpt lat="44.7661" lon="-0.3393">
        <ele>136</ele>
        <time>2011-05-08T06:38:36Z</time>
      </trkpt>
      <trkpt lat="44.766" lon="-0.33925">
        <ele>135.30000305176</ele>
        <time>2011-05-08T06:38:38Z</time>
      </trkpt>
      <trkpt lat="44.76595" lon="-0.33922">
        <ele>135.60000610352</ele>
        <time>2011-05-08T06:38:39Z</time>
      </trkpt>
      <trkpt lat="44.7659" lon="-0.33919">
        <ele>135.19999694824</ele>
        <time>2011-05-08T06:38:40Z</time>
      </trkpt>
      <trkpt lat="44.76584" lon="-0.33916">
        <ele>134.80000305176</ele>
        <time>2011-05-08T06:38:41Z</time>
      </trkpt>
      <trkpt lat="44.76577" lon="-0.33912">
        <ele>134.10000610352</ele>
        <time>2011-05-08T06:38:42Z</time>
      </trkpt>
      <trkpt lat="44.76572" lon="-0.33908">
        <ele>133.60000610352</ele>
        <time>2011-05-08T06:38:43Z</time>
      </trkpt>
      <trkpt lat="44.76566" lon="-0.33904">
        <ele>133.10000610352</ele>
        <time>2011-05-08T06:38:44Z</time>
      </trkpt>
      <trkpt lat="44.7656" lon="-0.33901">
        <ele>133.39999389648</ele>
        <time>2011-05-08T06:38:45Z</time>
      </trkpt>
      <trkpt lat="44.76555" lon="-0.33897">
        <ele>133.30000305176</ele>
        <time>2011-05-08T06:38:46Z</time>
      </trkpt>
      <trkpt lat="44.76548" lon="-0.33893">
        <ele>132.5</ele>
        <time>2011-05-08T06:38:47Z</time>
      </trkpt>
      <trkpt lat="44.76541" lon="-0.3389">
        <ele>132.10000610352</ele>
        <time>2011-05-08T06:38:48Z</time>
      </trkpt>
      <trkpt lat="44.76535" lon="-0.33886">
        <ele>131.30000305176</ele>
        <time>2011-05-08T06:38:49Z</time>
      </trkpt>
      <trkpt lat="44.76531" lon="-0.33883">
        <ele>130.80000305176</ele>
        <time>2011-05-08T06:38:50Z</time>
      </trkpt>
      <trkpt lat="44.76527" lon="-0.33873">
        <ele>130.80000305176</ele>
        <time>2011-05-08T06:38:52Z</time>
      </trkpt>
      <trkpt lat="44.76529" lon="-0.33865">
        <ele>130.89999389648</ele>
        <time>2011-05-08T06:38:54Z</time>
      </trkpt>
      <trkpt lat="44.76535" lon="-0.33856">
        <ele>130.89999389648</ele>
        <time>2011-05-08T06:38:56Z</time>
      </trkpt>
      <trkpt lat="44.76536" lon="-0.3385">
        <ele>130.89999389648</ele>
        <time>2011-05-08T06:38:57Z</time>
      </trkpt>
      <trkpt lat="44.76538" lon="-0.33843">
        <ele>130.60000610352</ele>
        <time>2011-05-08T06:38:58Z</time>
      </trkpt>
      <trkpt lat="44.76537" lon="-0.33832">
        <ele>130.69999694824</ele>
        <time>2011-05-08T06:39:00Z</time>
      </trkpt>
      <trkpt lat="44.76529" lon="-0.33827">
        <ele>130</ele>
        <time>2011-05-08T06:39:02Z</time>
      </trkpt>
      <trkpt lat="44.76524" lon="-0.33825">
        <ele>130</ele>
        <time>2011-05-08T06:39:03Z</time>
      </trkpt>
      <trkpt lat="44.76518" lon="-0.33825">
        <ele>130.19999694824</ele>
        <time>2011-05-08T06:39:05Z</time>
      </trkpt>
      <trkpt lat="44.76509" lon="-0.33827">
        <ele>130.69999694824</ele>
        <time>2011-05-08T06:39:07Z</time>
      </trkpt>
      <trkpt lat="44.76501" lon="-0.33824">
        <ele>131.30000305176</ele>
        <time>2011-05-08T06:39:09Z</time>
      </trkpt>
      <trkpt lat="44.76495" lon="-0.33821">
        <ele>131.19999694824</ele>
        <time>2011-05-08T06:39:10Z</time>
      </trkpt>
      <trkpt lat="44.76489" lon="-0.33817">
        <ele>130.80000305176</ele>
        <time>2011-05-08T06:39:11Z</time>
      </trkpt>
      <trkpt lat="44.76485" lon="-0.33816">
        <ele>130.89999389648</ele>
        <time>2011-05-08T06:39:12Z</time>
      </trkpt>
      <trkpt lat="44.76479" lon="-0.33814">
        <ele>130.5</ele>
        <time>2011-05-08T06:39:13Z</time>
      </trkpt>
      <trkpt lat="44.7647" lon="-0.33816">
        <ele>130.19999694824</ele>
        <time>2011-05-08T06:39:15Z</time>
      </trkpt>
      <trkpt lat="44.76465" lon="-0.33818">
        <ele>129.89999389648</ele>
        <time>2011-05-08T06:39:16Z</time>
      </trkpt>
      <trkpt lat="44.7646" lon="-0.33819">
        <ele>129.5</ele>
        <time>2011-05-08T06:39:17Z</time>
      </trkpt>
      <trkpt lat="44.76453" lon="-0.33822">
        <ele>129.69999694824</ele>
        <time>2011-05-08T06:39:19Z</time>
      </trkpt>
      <trkpt lat="44.76447" lon="-0.33826">
        <ele>130.60000610352</ele>
        <time>2011-05-08T06:39:21Z</time>
      </trkpt>
      <trkpt lat="44.76438" lon="-0.33832">
        <ele>130.39999389648</ele>
        <time>2011-05-08T06:39:23Z</time>
      </trkpt>
      <trkpt lat="44.76432" lon="-0.33834">
        <ele>130.10000610352</ele>
        <time>2011-05-08T06:39:24Z</time>
      </trkpt>
      <trkpt lat="44.76428" lon="-0.33836">
        <ele>129.80000305176</ele>
        <time>2011-05-08T06:39:25Z</time>
      </trkpt>
      <trkpt lat="44.76427" lon="-0.33843">
        <ele>129.5</ele>
        <time>2011-05-08T06:39:26Z</time>
      </trkpt>
      <trkpt lat="44.7642" lon="-0.33844">
        <ele>130.39999389648</ele>
        <time>2011-05-08T06:39:27Z</time>
      </trkpt>
      <trkpt lat="44.76411" lon="-0.33846">
        <ele>130.39999389648</ele>
        <time>2011-05-08T06:39:28Z</time>
      </trkpt>
      <trkpt lat="44.76403" lon="-0.3385">
        <ele>130.30000305176</ele>
        <time>2011-05-08T06:39:29Z</time>
      </trkpt>
      <trkpt lat="44.76396" lon="-0.33856">
        <ele>129.69999694824</ele>
        <time>2011-05-08T06:39:30Z</time>
      </trkpt>
      <trkpt lat="44.76392" lon="-0.33861">
        <ele>129.19999694824</ele>
        <time>2011-05-08T06:39:31Z</time>
      </trkpt>
      <trkpt lat="44.76386" lon="-0.33866">
        <ele>129.30000305176</ele>
        <time>2011-05-08T06:39:32Z</time>
      </trkpt>
      <trkpt lat="44.76377" lon="-0.33871">
        <ele>128.80000305176</ele>
        <time>2011-05-08T06:39:33Z</time>
      </trkpt>
      <trkpt lat="44.76372" lon="-0.33876">
        <ele>128.69999694824</ele>
        <time>2011-05-08T06:39:34Z</time>
      </trkpt>
      <trkpt lat="44.76366" lon="-0.33881">
        <ele>128.39999389648</ele>
        <time>2011-05-08T06:39:35Z</time>
      </trkpt>
      <trkpt lat="44.76359" lon="-0.33886">
        <ele>127.40000152588</ele>
        <time>2011-05-08T06:39:36Z</time>
      </trkpt>
      <trkpt lat="44.76346" lon="-0.33895">
        <ele>126.40000152588</ele>
        <time>2011-05-08T06:39:38Z</time>
      </trkpt>
      <trkpt lat="44.7634" lon="-0.33898">
        <ele>126.80000305176</ele>
        <time>2011-05-08T06:39:39Z</time>
      </trkpt>
      <trkpt lat="44.76334" lon="-0.33903">
        <ele>125.59999847412</ele>
        <time>2011-05-08T06:39:40Z</time>
      </trkpt>
      <trkpt lat="44.76328" lon="-0.3391">
        <ele>125.40000152588</ele>
        <time>2011-05-08T06:39:41Z</time>
      </trkpt>
      <trkpt lat="44.76323" lon="-0.33914">
        <ele>125.40000152588</ele>
        <time>2011-05-08T06:39:42Z</time>
      </trkpt>
      <trkpt lat="44.76318" lon="-0.33918">
        <ele>125.69999694824</ele>
        <time>2011-05-08T06:39:43Z</time>
      </trkpt>
      <trkpt lat="44.76312" lon="-0.33922">
        <ele>125.90000152588</ele>
        <time>2011-05-08T06:39:44Z</time>
      </trkpt>
      <trkpt lat="44.76306" lon="-0.33927">
        <ele>125.5</ele>
        <time>2011-05-08T06:39:45Z</time>
      </trkpt>
      <trkpt lat="44.763" lon="-0.33932">
        <ele>125.30000305176</ele>
        <time>2011-05-08T06:39:46Z</time>
      </trkpt>
      <trkpt lat="44.76295" lon="-0.33938">
        <ele>125</ele>
        <time>2011-05-08T06:39:47Z</time>
      </trkpt>
      <trkpt lat="44.76289" lon="-0.33944">
        <ele>124.40000152588</ele>
        <time>2011-05-08T06:39:48Z</time>
      </trkpt>
      <trkpt lat="44.76284" lon="-0.33949">
        <ele>124.19999694824</ele>
        <time>2011-05-08T06:39:49Z</time>
      </trkpt>
      <trkpt lat="44.76279" lon="-0.33954">
        <ele>123.5</ele>
        <time>2011-05-08T06:39:50Z</time>
      </trkpt>
      <trkpt lat="44.76273" lon="-0.33959">
        <ele>123.59999847412</ele>
        <time>2011-05-08T06:39:51Z</time>
      </trkpt>
      <trkpt lat="44.76268" lon="-0.33965">
        <ele>123.09999847412</ele>
        <time>2011-05-08T06:39:52Z</time>
      </trkpt>
      <trkpt lat="44.76264" lon="-0.3397">
        <ele>123.59999847412</ele>
        <time>2011-05-08T06:39:53Z</time>
      </trkpt>
      <trkpt lat="44.76259" lon="-0.33971">
        <ele>123.40000152588</ele>
        <time>2011-05-08T06:39:54Z</time>
      </trkpt>
      <trkpt lat="44.7625" lon="-0.33969">
        <ele>123.30000305176</ele>
        <time>2011-05-08T06:39:56Z</time>
      </trkpt>
      <trkpt lat="44.76244" lon="-0.33961">
        <ele>122.69999694824</ele>
        <time>2011-05-08T06:39:58Z</time>
      </trkpt>
      <trkpt lat="44.76239" lon="-0.33957">
        <ele>123.09999847412</ele>
        <time>2011-05-08T06:39:59Z</time>
      </trkpt>
      <trkpt lat="44.76235" lon="-0.33947">
        <ele>123.19999694824</ele>
        <time>2011-05-08T06:40:01Z</time>
      </trkpt>
      <trkpt lat="44.76229" lon="-0.33939">
        <ele>122.80000305176</ele>
        <time>2011-05-08T06:40:03Z</time>
      </trkpt>
      <trkpt lat="44.76225" lon="-0.33933">
        <ele>121.40000152588</ele>
        <time>2011-05-08T06:40:04Z</time>
      </trkpt>
      <trkpt lat="44.76221" lon="-0.33924">
        <ele>120.59999847412</ele>
        <time>2011-05-08T06:40:06Z</time>
      </trkpt>
      <trkpt lat="44.76216" lon="-0.33913">
        <ele>120.80000305176</ele>
        <time>2011-05-08T06:40:08Z</time>
      </trkpt>
      <trkpt lat="44.76212" lon="-0.33909">
        <ele>121.80000305176</ele>
        <time>2011-05-08T06:40:09Z</time>
      </trkpt>
      <trkpt lat="44.76206" lon="-0.33902">
        <ele>122.5</ele>
        <time>2011-05-08T06:40:11Z</time>
      </trkpt>
      <trkpt lat="44.76204" lon="-0.33893">
        <ele>123.5</ele>
        <time>2011-05-08T06:40:13Z</time>
      </trkpt>
      <trkpt lat="44.76201" lon="-0.33886">
        <ele>122.90000152588</ele>
        <time>2011-05-08T06:40:15Z</time>
      </trkpt>
      <trkpt lat="44.76197" lon="-0.33876">
        <ele>123</ele>
        <time>2011-05-08T06:40:17Z</time>
      </trkpt>
      <trkpt lat="44.76192" lon="-0.33868">
        <ele>123</ele>
        <time>2011-05-08T06:40:19Z</time>
      </trkpt>
      <trkpt lat="44.7619" lon="-0.33857">
        <ele>122.80000305176</ele>
        <time>2011-05-08T06:40:21Z</time>
      </trkpt>
      <trkpt lat="44.76188" lon="-0.33848">
        <ele>123.90000152588</ele>
        <time>2011-05-08T06:40:23Z</time>
      </trkpt>
      <trkpt lat="44.76185" lon="-0.33839">
        <ele>124</ele>
        <time>2011-05-08T06:40:25Z</time>
      </trkpt>
      <trkpt lat="44.76183" lon="-0.33831">
        <ele>124.19999694824</ele>
        <time>2011-05-08T06:40:27Z</time>
      </trkpt>
      <trkpt lat="44.76179" lon="-0.33822">
        <ele>125.09999847412</ele>
        <time>2011-05-08T06:40:29Z</time>
      </trkpt>
      <trkpt lat="44.76177" lon="-0.33814">
        <ele>125.59999847412</ele>
        <time>2011-05-08T06:40:31Z</time>
      </trkpt>
      <trkpt lat="44.76175" lon="-0.33806">
        <ele>126.59999847412</ele>
        <time>2011-05-08T06:40:33Z</time>
      </trkpt>
      <trkpt lat="44.76173" lon="-0.33798">
        <ele>126.90000152588</ele>
        <time>2011-05-08T06:40:35Z</time>
      </trkpt>
      <trkpt lat="44.76169" lon="-0.33786">
        <ele>128</ele>
        <time>2011-05-08T06:40:38Z</time>
      </trkpt>
      <trkpt lat="44.76165" lon="-0.33781">
        <ele>129.10000610352</ele>
        <time>2011-05-08T06:40:40Z</time>
      </trkpt>
      <trkpt lat="44.76159" lon="-0.33774">
        <ele>129.69999694824</ele>
        <time>2011-05-08T06:40:42Z</time>
      </trkpt>
      <trkpt lat="44.76154" lon="-0.33773">
        <ele>130</ele>
        <time>2011-05-08T06:40:44Z</time>
      </trkpt>
      <trkpt lat="44.76149" lon="-0.33769">
        <ele>129.89999389648</ele>
        <time>2011-05-08T06:40:47Z</time>
      </trkpt>
      <trkpt lat="44.76144" lon="-0.33766">
        <ele>131.5</ele>
        <time>2011-05-08T06:40:53Z</time>
      </trkpt>
      <trkpt lat="44.76139" lon="-0.33763">
        <ele>132.5</ele>
        <time>2011-05-08T06:40:57Z</time>
      </trkpt>
      <trkpt lat="44.76132" lon="-0.33763">
        <ele>132.39999389648</ele>
        <time>2011-05-08T06:41:00Z</time>
      </trkpt>
      <trkpt lat="44.76128" lon="-0.33763">
        <ele>132.80000305176</ele>
        <time>2011-05-08T06:41:02Z</time>
      </trkpt>
      <trkpt lat="44.76123" lon="-0.33764">
        <ele>134.10000610352</ele>
        <time>2011-05-08T06:41:05Z</time>
      </trkpt>
      <trkpt lat="44.76118" lon="-0.33763">
        <ele>135.39999389648</ele>
        <time>2011-05-08T06:41:09Z</time>
      </trkpt>
      <trkpt lat="44.76113" lon="-0.3376">
        <ele>135.60000610352</ele>
        <time>2011-05-08T06:41:11Z</time>
      </trkpt>
      <trkpt lat="44.76108" lon="-0.33759">
        <ele>135.89999389648</ele>
        <time>2011-05-08T06:41:13Z</time>
      </trkpt>
      <trkpt lat="44.76101" lon="-0.33757">
        <ele>135.30000305176</ele>
        <time>2011-05-08T06:41:16Z</time>
      </trkpt>
      <trkpt lat="44.76095" lon="-0.33759">
        <ele>135.5</ele>
        <time>2011-05-08T06:41:18Z</time>
      </trkpt>
      <trkpt lat="44.7609" lon="-0.3376">
        <ele>134.89999389648</ele>
        <time>2011-05-08T06:41:22Z</time>
      </trkpt>
      <trkpt lat="44.76084" lon="-0.33759">
        <ele>136</ele>
        <time>2011-05-08T06:41:49Z</time>
      </trkpt>
      <trkpt lat="44.76079" lon="-0.33761">
        <ele>136.80000305176</ele>
        <time>2011-05-08T06:41:51Z</time>
      </trkpt>
      <trkpt lat="44.76073" lon="-0.33762">
        <ele>137.39999389648</ele>
        <time>2011-05-08T06:41:53Z</time>
      </trkpt>
      <trkpt lat="44.76067" lon="-0.33764">
        <ele>137.10000610352</ele>
        <time>2011-05-08T06:41:55Z</time>
      </trkpt>
      <trkpt lat="44.76062" lon="-0.33766">
        <ele>137.89999389648</ele>
        <time>2011-05-08T06:41:56Z</time>
      </trkpt>
      <trkpt lat="44.76056" lon="-0.33767">
        <ele>138.89999389648</ele>
        <time>2011-05-08T06:41:58Z</time>
      </trkpt>
      <trkpt lat="44.76049" lon="-0.3377">
        <ele>138.89999389648</ele>
        <time>2011-05-08T06:42:00Z</time>
      </trkpt>
      <trkpt lat="44.7604" lon="-0.33771">
        <ele>137.5</ele>
        <time>2011-05-08T06:42:02Z</time>
      </trkpt>
      <trkpt lat="44.76034" lon="-0.3377">
        <ele>136.30000305176</ele>
        <time>2011-05-08T06:42:04Z</time>
      </trkpt>
      <trkpt lat="44.76028" lon="-0.33771">
        <ele>136.89999389648</ele>
        <time>2011-05-08T06:42:06Z</time>
      </trkpt>
      <trkpt lat="44.76022" lon="-0.33771">
        <ele>137.19999694824</ele>
        <time>2011-05-08T06:42:08Z</time>
      </trkpt>
      <trkpt lat="44.76016" lon="-0.3377">
        <ele>137.89999389648</ele>
        <time>2011-05-08T06:42:10Z</time>
      </trkpt>
      <trkpt lat="44.76012" lon="-0.3377">
        <ele>138.69999694824</ele>
        <time>2011-05-08T06:42:12Z</time>
      </trkpt>
      <trkpt lat="44.76006" lon="-0.33769">
        <ele>138.89999389648</ele>
        <time>2011-05-08T06:42:14Z</time>
      </trkpt>
      <trkpt lat="44.76001" lon="-0.33768">
        <ele>140.69999694824</ele>
        <time>2011-05-08T06:42:17Z</time>
      </trkpt>
      <trkpt lat="44.75996" lon="-0.33766">
        <ele>141.39999389648</ele>
        <time>2011-05-08T06:42:19Z</time>
      </trkpt>
      <trkpt lat="44.7599" lon="-0.33768">
        <ele>143.10000610352</ele>
        <time>2011-05-08T06:42:21Z</time>
      </trkpt>
      <trkpt lat="44.75984" lon="-0.33773">
        <ele>143.69999694824</ele>
        <time>2011-05-08T06:42:24Z</time>
      </trkpt>
      <trkpt lat="44.75979" lon="-0.33776">
        <ele>144.89999389648</ele>
        <time>2011-05-08T06:42:27Z</time>
      </trkpt>
      <trkpt lat="44.75974" lon="-0.33775">
        <ele>144.39999389648</ele>
        <time>2011-05-08T06:42:29Z</time>
      </trkpt>
      <trkpt lat="44.75968" lon="-0.33777">
        <ele>145.69999694824</ele>
        <time>2011-05-08T06:42:32Z</time>
      </trkpt>
      <trkpt lat="44.75962" lon="-0.33778">
        <ele>146</ele>
        <time>2011-05-08T06:42:35Z</time>
      </trkpt>
      <trkpt lat="44.75953" lon="-0.33777">
        <ele>146.60000610352</ele>
        <time>2011-05-08T06:42:38Z</time>
      </trkpt>
      <trkpt lat="44.75948" lon="-0.33775">
        <ele>148</ele>
        <time>2011-05-08T06:42:41Z</time>
      </trkpt>
      <trkpt lat="44.75942" lon="-0.33775">
        <ele>148.89999389648</ele>
        <time>2011-05-08T06:42:43Z</time>
      </trkpt>
      <trkpt lat="44.75937" lon="-0.33773">
        <ele>147.89999389648</ele>
        <time>2011-05-08T06:42:45Z</time>
      </trkpt>
      <trkpt lat="44.75933" lon="-0.33769">
        <ele>146.10000610352</ele>
        <time>2011-05-08T06:42:54Z</time>
      </trkpt>
      <trkpt lat="44.75926" lon="-0.33773">
        <ele>145.39999389648</ele>
        <time>2011-05-08T06:43:51Z</time>
      </trkpt>
      <trkpt lat="44.75921" lon="-0.3377">
        <ele>145.5</ele>
        <time>2011-05-08T06:43:54Z</time>
      </trkpt>
      <trkpt lat="44.75916" lon="-0.33768">
        <ele>146.69999694824</ele>
        <time>2011-05-08T06:43:57Z</time>
      </trkpt>
      <trkpt lat="44.75908" lon="-0.33769">
        <ele>148.80000305176</ele>
        <time>2011-05-08T06:44:01Z</time>
      </trkpt>
      <trkpt lat="44.759" lon="-0.33768">
        <ele>148.89999389648</ele>
        <time>2011-05-08T06:44:03Z</time>
      </trkpt>
      <trkpt lat="44.75893" lon="-0.3377">
        <ele>149</ele>
        <time>2011-05-08T06:44:04Z</time>
      </trkpt>
      <trkpt lat="44.75886" lon="-0.33771">
        <ele>149</ele>
        <time>2011-05-08T06:44:05Z</time>
      </trkpt>
      <trkpt lat="44.75877" lon="-0.33774">
        <ele>148.89999389648</ele>
        <time>2011-05-08T06:44:06Z</time>
      </trkpt>
      <trkpt lat="44.75868" lon="-0.33776">
        <ele>149</ele>
        <time>2011-05-08T06:44:07Z</time>
      </trkpt>
      <trkpt lat="44.7586" lon="-0.33781">
        <ele>148.39999389648</ele>
        <time>2011-05-08T06:44:08Z</time>
      </trkpt>
      <trkpt lat="44.75849" lon="-0.33784">
        <ele>149.10000610352</ele>
        <time>2011-05-08T06:44:09Z</time>
      </trkpt>
      <trkpt lat="44.75841" lon="-0.33789">
        <ele>148.39999389648</ele>
        <time>2011-05-08T06:44:10Z</time>
      </trkpt>
      <trkpt lat="44.75833" lon="-0.33791">
        <ele>147.5</ele>
        <time>2011-05-08T06:44:11Z</time>
      </trkpt>
      <trkpt lat="44.75826" lon="-0.33792">
        <ele>145.89999389648</ele>
        <time>2011-05-08T06:44:12Z</time>
      </trkpt>
      <trkpt lat="44.75821" lon="-0.33795">
        <ele>145.69999694824</ele>
        <time>2011-05-08T06:44:13Z</time>
      </trkpt>
      <trkpt lat="44.75814" lon="-0.33798">
        <ele>145.60000610352</ele>
        <time>2011-05-08T06:44:15Z</time>
      </trkpt>
      <trkpt lat="44.75809" lon="-0.33801">
        <ele>143.80000305176</ele>
        <time>2011-05-08T06:44:17Z</time>
      </trkpt>
      <trkpt lat="44.75805" lon="-0.3381">
        <ele>142.69999694824</ele>
        <time>2011-05-08T06:44:19Z</time>
      </trkpt>
      <trkpt lat="44.75803" lon="-0.33817">
        <ele>143.30000305176</ele>
        <time>2011-05-08T06:44:20Z</time>
      </trkpt>
      <trkpt lat="44.758" lon="-0.3383">
        <ele>144</ele>
        <time>2011-05-08T06:44:22Z</time>
      </trkpt>
      <trkpt lat="44.75799" lon="-0.33837">
        <ele>144</ele>
        <time>2011-05-08T06:44:23Z</time>
      </trkpt>
      <trkpt lat="44.75797" lon="-0.33844">
        <ele>144</ele>
        <time>2011-05-08T06:44:24Z</time>
      </trkpt>
      <trkpt lat="44.75797" lon="-0.33851">
        <ele>143.69999694824</ele>
        <time>2011-05-08T06:44:25Z</time>
      </trkpt>
      <trkpt lat="44.75795" lon="-0.3386">
        <ele>143.39999389648</ele>
        <time>2011-05-08T06:44:26Z</time>
      </trkpt>
      <trkpt lat="44.75794" lon="-0.33866">
        <ele>143.80000305176</ele>
        <time>2011-05-08T06:44:27Z</time>
      </trkpt>
      <trkpt lat="44.75792" lon="-0.33876">
        <ele>144.69999694824</ele>
        <time>2011-05-08T06:44:29Z</time>
      </trkpt>
      <trkpt lat="44.7579" lon="-0.33885">
        <ele>144</ele>
        <time>2011-05-08T06:44:30Z</time>
      </trkpt>
      <trkpt lat="44.75788" lon="-0.33895">
        <ele>144.39999389648</ele>
        <time>2011-05-08T06:44:32Z</time>
      </trkpt>
      <trkpt lat="44.75785" lon="-0.33901">
        <ele>144.69999694824</ele>
        <time>2011-05-08T06:44:33Z</time>
      </trkpt>
      <trkpt lat="44.75781" lon="-0.3391">
        <ele>144</ele>
        <time>2011-05-08T06:44:35Z</time>
      </trkpt>
      <trkpt lat="44.75776" lon="-0.33922">
        <ele>145.39999389648</ele>
        <time>2011-05-08T06:44:38Z</time>
      </trkpt>
      <trkpt lat="44.75776" lon="-0.3393">
        <ele>145.60000610352</ele>
        <time>2011-05-08T06:44:39Z</time>
      </trkpt>
      <trkpt lat="44.75774" lon="-0.33937">
        <ele>145.89999389648</ele>
        <time>2011-05-08T06:44:40Z</time>
      </trkpt>
      <trkpt lat="44.75772" lon="-0.33943">
        <ele>146</ele>
        <time>2011-05-08T06:44:41Z</time>
      </trkpt>
      <trkpt lat="44.75772" lon="-0.33951">
        <ele>145.69999694824</ele>
        <time>2011-05-08T06:44:42Z</time>
      </trkpt>
      <trkpt lat="44.7577" lon="-0.33959">
        <ele>146.69999694824</ele>
        <time>2011-05-08T06:44:43Z</time>
      </trkpt>
      <trkpt lat="44.7577" lon="-0.33971">
        <ele>146.39999389648</ele>
        <time>2011-05-08T06:44:45Z</time>
      </trkpt>
      <trkpt lat="44.7577" lon="-0.3398">
        <ele>145.30000305176</ele>
        <time>2011-05-08T06:44:47Z</time>
      </trkpt>
      <trkpt lat="44.75771" lon="-0.33995">
        <ele>144.89999389648</ele>
        <time>2011-05-08T06:44:49Z</time>
      </trkpt>
      <trkpt lat="44.75771" lon="-0.34005">
        <ele>145.19999694824</ele>
        <time>2011-05-08T06:44:50Z</time>
      </trkpt>
      <trkpt lat="44.75772" lon="-0.34013">
        <ele>143.60000610352</ele>
        <time>2011-05-08T06:44:51Z</time>
      </trkpt>
      <trkpt lat="44.75772" lon="-0.3402">
        <ele>143.10000610352</ele>
        <time>2011-05-08T06:44:52Z</time>
      </trkpt>
      <trkpt lat="44.75771" lon="-0.34032">
        <ele>142.19999694824</ele>
        <time>2011-05-08T06:44:54Z</time>
      </trkpt>
      <trkpt lat="44.7577" lon="-0.34039">
        <ele>141.10000610352</ele>
        <time>2011-05-08T06:44:55Z</time>
      </trkpt>
      <trkpt lat="44.75771" lon="-0.34049">
        <ele>141.30000305176</ele>
        <time>2011-05-08T06:44:57Z</time>
      </trkpt>
      <trkpt lat="44.75772" lon="-0.34056">
        <ele>141</ele>
        <time>2011-05-08T06:44:58Z</time>
      </trkpt>
      <trkpt lat="44.75774" lon="-0.34068">
        <ele>139.60000610352</ele>
        <time>2011-05-08T06:45:00Z</time>
      </trkpt>
      <trkpt lat="44.75774" lon="-0.34075">
        <ele>138.5</ele>
        <time>2011-05-08T06:45:02Z</time>
      </trkpt>
      <trkpt lat="44.75774" lon="-0.34082">
        <ele>137.30000305176</ele>
        <time>2011-05-08T06:45:04Z</time>
      </trkpt>
      <trkpt lat="44.75777" lon="-0.3409">
        <ele>138.60000610352</ele>
        <time>2011-05-08T06:45:06Z</time>
      </trkpt>
      <trkpt lat="44.75779" lon="-0.34098">
        <ele>139.30000305176</ele>
        <time>2011-05-08T06:45:08Z</time>
      </trkpt>
      <trkpt lat="44.7578" lon="-0.34109">
        <ele>139.69999694824</ele>
        <time>2011-05-08T06:45:10Z</time>
      </trkpt>
      <trkpt lat="44.75781" lon="-0.34118">
        <ele>139.80000305176</ele>
        <time>2011-05-08T06:45:12Z</time>
      </trkpt>
      <trkpt lat="44.75783" lon="-0.34129">
        <ele>139.30000305176</ele>
        <time>2011-05-08T06:45:14Z</time>
      </trkpt>
      <trkpt lat="44.75783" lon="-0.34138">
        <ele>138.69999694824</ele>
        <time>2011-05-08T06:45:15Z</time>
      </trkpt>
      <trkpt lat="44.75782" lon="-0.34146">
        <ele>138.60000610352</ele>
        <time>2011-05-08T06:45:17Z</time>
      </trkpt>
      <trkpt lat="44.75783" lon="-0.34157">
        <ele>137.80000305176</ele>
        <time>2011-05-08T06:45:19Z</time>
      </trkpt>
      <trkpt lat="44.75783" lon="-0.34168">
        <ele>138.30000305176</ele>
        <time>2011-05-08T06:45:21Z</time>
      </trkpt>
      <trkpt lat="44.75782" lon="-0.34177">
        <ele>138.69999694824</ele>
        <time>2011-05-08T06:45:23Z</time>
      </trkpt>
      <trkpt lat="44.75783" lon="-0.34186">
        <ele>138.80000305176</ele>
        <time>2011-05-08T06:45:24Z</time>
      </trkpt>
      <trkpt lat="44.75781" lon="-0.34195">
        <ele>139</ele>
        <time>2011-05-08T06:45:26Z</time>
      </trkpt>
      <trkpt lat="44.75784" lon="-0.34202">
        <ele>139.60000610352</ele>
        <time>2011-05-08T06:45:28Z</time>
      </trkpt>
      <trkpt lat="44.75785" lon="-0.34212">
        <ele>139</ele>
        <time>2011-05-08T06:45:30Z</time>
      </trkpt>
      <trkpt lat="44.75786" lon="-0.3422">
        <ele>139</ele>
        <time>2011-05-08T06:45:32Z</time>
      </trkpt>
      <trkpt lat="44.7579" lon="-0.34231">
        <ele>140</ele>
        <time>2011-05-08T06:45:34Z</time>
      </trkpt>
      <trkpt lat="44.75792" lon="-0.34245">
        <ele>139</ele>
        <time>2011-05-08T06:45:36Z</time>
      </trkpt>
      <trkpt lat="44.75793" lon="-0.34256">
        <ele>138.10000610352</ele>
        <time>2011-05-08T06:45:38Z</time>
      </trkpt>
      <trkpt lat="44.75793" lon="-0.34268">
        <ele>135.89999389648</ele>
        <time>2011-05-08T06:45:40Z</time>
      </trkpt>
      <trkpt lat="44.75792" lon="-0.34278">
        <ele>136.69999694824</ele>
        <time>2011-05-08T06:45:42Z</time>
      </trkpt>
      <trkpt lat="44.7579" lon="-0.34287">
        <ele>137.69999694824</ele>
        <time>2011-05-08T06:45:44Z</time>
      </trkpt>
      <trkpt lat="44.75791" lon="-0.34297">
        <ele>138.39999389648</ele>
        <time>2011-05-08T06:45:46Z</time>
      </trkpt>
      <trkpt lat="44.7579" lon="-0.34304">
        <ele>138</ele>
        <time>2011-05-08T06:45:47Z</time>
      </trkpt>
      <trkpt lat="44.7579" lon="-0.34313">
        <ele>137.5</ele>
        <time>2011-05-08T06:45:49Z</time>
      </trkpt>
      <trkpt lat="44.75789" lon="-0.34319">
        <ele>137.80000305176</ele>
        <time>2011-05-08T06:45:51Z</time>
      </trkpt>
      <trkpt lat="44.75788" lon="-0.34326">
        <ele>136.39999389648</ele>
        <time>2011-05-08T06:45:53Z</time>
      </trkpt>
      <trkpt lat="44.75786" lon="-0.3434">
        <ele>135.5</ele>
        <time>2011-05-08T06:45:55Z</time>
      </trkpt>
      <trkpt lat="44.75785" lon="-0.34347">
        <ele>135.39999389648</ele>
        <time>2011-05-08T06:45:56Z</time>
      </trkpt>
      <trkpt lat="44.75785" lon="-0.34355">
        <ele>136</ele>
        <time>2011-05-08T06:45:58Z</time>
      </trkpt>
      <trkpt lat="44.75785" lon="-0.34362">
        <ele>135.10000610352</ele>
        <time>2011-05-08T06:45:59Z</time>
      </trkpt>
      <trkpt lat="44.75785" lon="-0.3437">
        <ele>134.39999389648</ele>
        <time>2011-05-08T06:46:00Z</time>
      </trkpt>
      <trkpt lat="44.75786" lon="-0.34376">
        <ele>133.10000610352</ele>
        <time>2011-05-08T06:46:01Z</time>
      </trkpt>
      <trkpt lat="44.75786" lon="-0.34387">
        <ele>130.89999389648</ele>
        <time>2011-05-08T06:46:03Z</time>
      </trkpt>
      <trkpt lat="44.75787" lon="-0.34394">
        <ele>129.69999694824</ele>
        <time>2011-05-08T06:46:04Z</time>
      </trkpt>
      <trkpt lat="44.75788" lon="-0.34403">
        <ele>128</ele>
        <time>2011-05-08T06:46:05Z</time>
      </trkpt>
      <trkpt lat="44.7579" lon="-0.34411">
        <ele>127</ele>
        <time>2011-05-08T06:46:06Z</time>
      </trkpt>
      <trkpt lat="44.75791" lon="-0.34422">
        <ele>124.59999847412</ele>
        <time>2011-05-08T06:46:07Z</time>
      </trkpt>
      <trkpt lat="44.75791" lon="-0.34433">
        <ele>121.5</ele>
        <time>2011-05-08T06:46:08Z</time>
      </trkpt>
      <trkpt lat="44.75787" lon="-0.34445">
        <ele>119.90000152588</ele>
        <time>2011-05-08T06:46:09Z</time>
      </trkpt>
      <trkpt lat="44.75787" lon="-0.34459">
        <ele>120.59999847412</ele>
        <time>2011-05-08T06:46:10Z</time>
      </trkpt>
      <trkpt lat="44.75786" lon="-0.34471">
        <ele>120.59999847412</ele>
        <time>2011-05-08T06:46:11Z</time>
      </trkpt>
      <trkpt lat="44.75783" lon="-0.34482">
        <ele>119.90000152588</ele>
        <time>2011-05-08T06:46:12Z</time>
      </trkpt>
      <trkpt lat="44.75783" lon="-0.34492">
        <ele>120.19999694824</ele>
        <time>2011-05-08T06:46:13Z</time>
      </trkpt>
      <trkpt lat="44.75783" lon="-0.34502">
        <ele>120.59999847412</ele>
        <time>2011-05-08T06:46:14Z</time>
      </trkpt>
      <trkpt lat="44.75785" lon="-0.34512">
        <ele>120</ele>
        <time>2011-05-08T06:46:15Z</time>
      </trkpt>
      <trkpt lat="44.75785" lon="-0.3452">
        <ele>119.30000305176</ele>
        <time>2011-05-08T06:46:16Z</time>
      </trkpt>
      <trkpt lat="44.75786" lon="-0.34529">
        <ele>120.09999847412</ele>
        <time>2011-05-08T06:46:17Z</time>
      </trkpt>
      <trkpt lat="44.75789" lon="-0.34536">
        <ele>119.80000305176</ele>
        <time>2011-05-08T06:46:18Z</time>
      </trkpt>
      <trkpt lat="44.75791" lon="-0.34542">
        <ele>120.19999694824</ele>
        <time>2011-05-08T06:46:19Z</time>
      </trkpt>
      <trkpt lat="44.75794" lon="-0.34548">
        <ele>120.40000152588</ele>
        <time>2011-05-08T06:46:20Z</time>
      </trkpt>
      <trkpt lat="44.758" lon="-0.34558">
        <ele>119.5</ele>
        <time>2011-05-08T06:46:22Z</time>
      </trkpt>
      <trkpt lat="44.75801" lon="-0.34566">
        <ele>119.59999847412</ele>
        <time>2011-05-08T06:46:23Z</time>
      </trkpt>
      <trkpt lat="44.75802" lon="-0.34574">
        <ele>119.5</ele>
        <time>2011-05-08T06:46:24Z</time>
      </trkpt>
      <trkpt lat="44.75805" lon="-0.34586">
        <ele>120.40000152588</ele>
        <time>2011-05-08T06:46:26Z</time>
      </trkpt>
      <trkpt lat="44.75805" lon="-0.34592">
        <ele>120.19999694824</ele>
        <time>2011-05-08T06:46:28Z</time>
      </trkpt>
      <trkpt lat="44.75801" lon="-0.346">
        <ele>120.59999847412</ele>
        <time>2011-05-08T06:47:11Z</time>
      </trkpt>
      <trkpt lat="44.75793" lon="-0.34603">
        <ele>119.5</ele>
        <time>2011-05-08T06:47:13Z</time>
      </trkpt>
      <trkpt lat="44.75788" lon="-0.34603">
        <ele>117.90000152588</ele>
        <time>2011-05-08T06:47:15Z</time>
      </trkpt>
      <trkpt lat="44.75781" lon="-0.34601">
        <ele>116.09999847412</ele>
        <time>2011-05-08T06:47:20Z</time>
      </trkpt>
      <trkpt lat="44.75777" lon="-0.34597">
        <ele>116.19999694824</ele>
        <time>2011-05-08T06:47:22Z</time>
      </trkpt>
      <trkpt lat="44.75774" lon="-0.34591">
        <ele>115.90000152588</ele>
        <time>2011-05-08T06:47:24Z</time>
      </trkpt>
      <trkpt lat="44.75771" lon="-0.34586">
        <ele>115.19999694824</ele>
        <time>2011-05-08T06:47:26Z</time>
      </trkpt>
      <trkpt lat="44.75766" lon="-0.34579">
        <ele>114</ele>
        <time>2011-05-08T06:47:28Z</time>
      </trkpt>
      <trkpt lat="44.75763" lon="-0.34572">
        <ele>114.40000152588</ele>
        <time>2011-05-08T06:47:30Z</time>
      </trkpt>
      <trkpt lat="44.75759" lon="-0.34562">
        <ele>115.19999694824</ele>
        <time>2011-05-08T06:47:32Z</time>
      </trkpt>
      <trkpt lat="44.75755" lon="-0.34553">
        <ele>114.19999694824</ele>
        <time>2011-05-08T06:47:34Z</time>
      </trkpt>
      <trkpt lat="44.75753" lon="-0.34543">
        <ele>114.09999847412</ele>
        <time>2011-05-08T06:47:36Z</time>
      </trkpt>
      <trkpt lat="44.75751" lon="-0.34536">
        <ele>114.40000152588</ele>
        <time>2011-05-08T06:47:38Z</time>
      </trkpt>
      <trkpt lat="44.75747" lon="-0.3453">
        <ele>114.80000305176</ele>
        <time>2011-05-08T06:47:40Z</time>
      </trkpt>
      <trkpt lat="44.75743" lon="-0.34525">
        <ele>117.09999847412</ele>
        <time>2011-05-08T06:47:43Z</time>
      </trkpt>
      <trkpt lat="44.75739" lon="-0.34519">
        <ele>117.5</ele>
        <time>2011-05-08T06:47:47Z</time>
      </trkpt>
      <trkpt lat="44.75734" lon="-0.34517">
        <ele>118.90000152588</ele>
        <time>2011-05-08T06:47:53Z</time>
      </trkpt>
      <trkpt lat="44.75728" lon="-0.3452">
        <ele>119.19999694824</ele>
        <time>2011-05-08T06:47:57Z</time>
      </trkpt>
      <trkpt lat="44.75722" lon="-0.34519">
        <ele>120.40000152588</ele>
        <time>2011-05-08T06:47:59Z</time>
      </trkpt>
      <trkpt lat="44.75716" lon="-0.34523">
        <ele>121.19999694824</ele>
        <time>2011-05-08T06:48:03Z</time>
      </trkpt>
      <trkpt lat="44.75711" lon="-0.34525">
        <ele>120.80000305176</ele>
        <time>2011-05-08T06:48:05Z</time>
      </trkpt>
      <trkpt lat="44.75706" lon="-0.34528">
        <ele>121.69999694824</ele>
        <time>2011-05-08T06:48:07Z</time>
      </trkpt>
      <trkpt lat="44.757" lon="-0.34528">
        <ele>121.80000305176</ele>
        <time>2011-05-08T06:48:09Z</time>
      </trkpt>
      <trkpt lat="44.75694" lon="-0.34532">
        <ele>122</ele>
        <time>2011-05-08T06:48:11Z</time>
      </trkpt>
      <trkpt lat="44.7569" lon="-0.34536">
        <ele>121.59999847412</ele>
        <time>2011-05-08T06:48:13Z</time>
      </trkpt>
      <trkpt lat="44.75684" lon="-0.34538">
        <ele>122.30000305176</ele>
        <time>2011-05-08T06:48:15Z</time>
      </trkpt>
      <trkpt lat="44.7568" lon="-0.34542">
        <ele>122.19999694824</ele>
        <time>2011-05-08T06:48:17Z</time>
      </trkpt>
      <trkpt lat="44.75676" lon="-0.34548">
        <ele>122.30000305176</ele>
        <time>2011-05-08T06:48:19Z</time>
      </trkpt>
      <trkpt lat="44.7567" lon="-0.34548">
        <ele>122.5</ele>
        <time>2011-05-08T06:48:21Z</time>
      </trkpt>
      <trkpt lat="44.75665" lon="-0.34549">
        <ele>123.09999847412</ele>
        <time>2011-05-08T06:48:23Z</time>
      </trkpt>
      <trkpt lat="44.7566" lon="-0.34548">
        <ele>123.5</ele>
        <time>2011-05-08T06:48:24Z</time>
      </trkpt>
      <trkpt lat="44.75654" lon="-0.34549">
        <ele>124.30000305176</ele>
        <time>2011-05-08T06:48:26Z</time>
      </trkpt>
      <trkpt lat="44.75649" lon="-0.34551">
        <ele>125.19999694824</ele>
        <time>2011-05-08T06:48:28Z</time>
      </trkpt>
      <trkpt lat="44.75642" lon="-0.3455">
        <ele>125.90000152588</ele>
        <time>2011-05-08T06:48:30Z</time>
      </trkpt>
      <trkpt lat="44.75636" lon="-0.34551">
        <ele>126.90000152588</ele>
        <time>2011-05-08T06:48:32Z</time>
      </trkpt>
      <trkpt lat="44.75632" lon="-0.34552">
        <ele>127.69999694824</ele>
        <time>2011-05-08T06:48:33Z</time>
      </trkpt>
      <trkpt lat="44.75625" lon="-0.34555">
        <ele>127.69999694824</ele>
        <time>2011-05-08T06:48:35Z</time>
      </trkpt>
      <trkpt lat="44.75614" lon="-0.34557">
        <ele>127.40000152588</ele>
        <time>2011-05-08T06:48:38Z</time>
      </trkpt>
      <trkpt lat="44.75607" lon="-0.3456">
        <ele>127.19999694824</ele>
        <time>2011-05-08T06:48:40Z</time>
      </trkpt>
      <trkpt lat="44.75602" lon="-0.34566">
        <ele>128</ele>
        <time>2011-05-08T06:48:42Z</time>
      </trkpt>
      <trkpt lat="44.75597" lon="-0.3457">
        <ele>129.5</ele>
        <time>2011-05-08T06:48:44Z</time>
      </trkpt>
      <trkpt lat="44.7559" lon="-0.34572">
        <ele>130</ele>
        <time>2011-05-08T06:48:46Z</time>
      </trkpt>
      <trkpt lat="44.75586" lon="-0.34575">
        <ele>130.39999389648</ele>
        <time>2011-05-08T06:48:48Z</time>
      </trkpt>
      <trkpt lat="44.75582" lon="-0.34581">
        <ele>130.10000610352</ele>
        <time>2011-05-08T06:48:50Z</time>
      </trkpt>
      <trkpt lat="44.75576" lon="-0.34581">
        <ele>130.19999694824</ele>
        <time>2011-05-08T06:48:52Z</time>
      </trkpt>
      <trkpt lat="44.75571" lon="-0.34586">
        <ele>130.10000610352</ele>
        <time>2011-05-08T06:48:54Z</time>
      </trkpt>
      <trkpt lat="44.75567" lon="-0.34592">
        <ele>130.5</ele>
        <time>2011-05-08T06:48:56Z</time>
      </trkpt>
      <trkpt lat="44.75562" lon="-0.34598">
        <ele>128.80000305176</ele>
        <time>2011-05-08T06:48:59Z</time>
      </trkpt>
      <trkpt lat="44.75557" lon="-0.34601">
        <ele>129.39999389648</ele>
        <time>2011-05-08T06:49:01Z</time>
      </trkpt>
      <trkpt lat="44.75554" lon="-0.34606">
        <ele>129.80000305176</ele>
        <time>2011-05-08T06:49:03Z</time>
      </trkpt>
      <trkpt lat="44.75548" lon="-0.34609">
        <ele>131.39999389648</ele>
        <time>2011-05-08T06:49:05Z</time>
      </trkpt>
      <trkpt lat="44.75543" lon="-0.34614">
        <ele>132.30000305176</ele>
        <time>2011-05-08T06:49:07Z</time>
      </trkpt>
      <trkpt lat="44.75537" lon="-0.34616">
        <ele>132.10000610352</ele>
        <time>2011-05-08T06:49:09Z</time>
      </trkpt>
      <trkpt lat="44.75533" lon="-0.34624">
        <ele>132.19999694824</ele>
        <time>2011-05-08T06:49:11Z</time>
      </trkpt>
      <trkpt lat="44.75528" lon="-0.3463">
        <ele>134.69999694824</ele>
        <time>2011-05-08T06:49:13Z</time>
      </trkpt>
      <trkpt lat="44.75523" lon="-0.34637">
        <ele>134.10000610352</ele>
        <time>2011-05-08T06:49:15Z</time>
      </trkpt>
      <trkpt lat="44.75513" lon="-0.34638">
        <ele>133.19999694824</ele>
        <time>2011-05-08T06:49:17Z</time>
      </trkpt>
      <trkpt lat="44.75508" lon="-0.34635">
        <ele>132.89999389648</ele>
        <time>2011-05-08T06:49:19Z</time>
      </trkpt>
      <trkpt lat="44.75503" lon="-0.34633">
        <ele>132.80000305176</ele>
        <time>2011-05-08T06:49:22Z</time>
      </trkpt>
      <trkpt lat="44.75498" lon="-0.34632">
        <ele>133.19999694824</ele>
        <time>2011-05-08T06:49:24Z</time>
      </trkpt>
      <trkpt lat="44.75492" lon="-0.34632">
        <ele>134</ele>
        <time>2011-05-08T06:49:26Z</time>
      </trkpt>
      <trkpt lat="44.75486" lon="-0.3463">
        <ele>134.69999694824</ele>
        <time>2011-05-08T06:49:28Z</time>
      </trkpt>
      <trkpt lat="44.7548" lon="-0.34629">
        <ele>135.89999389648</ele>
        <time>2011-05-08T06:49:32Z</time>
      </trkpt>
      <trkpt lat="44.75475" lon="-0.3463">
        <ele>137.30000305176</ele>
        <time>2011-05-08T06:49:37Z</time>
      </trkpt>
      <trkpt lat="44.75468" lon="-0.34633">
        <ele>137.19999694824</ele>
        <time>2011-05-08T06:49:40Z</time>
      </trkpt>
      <trkpt lat="44.75462" lon="-0.34638">
        <ele>139</ele>
        <time>2011-05-08T06:49:42Z</time>
      </trkpt>
      <trkpt lat="44.75457" lon="-0.34644">
        <ele>139.89999389648</ele>
        <time>2011-05-08T06:49:45Z</time>
      </trkpt>
      <trkpt lat="44.75449" lon="-0.34649">
        <ele>140.69999694824</ele>
        <time>2011-05-08T06:49:47Z</time>
      </trkpt>
      <trkpt lat="44.75443" lon="-0.34651">
        <ele>141.69999694824</ele>
        <time>2011-05-08T06:49:49Z</time>
      </trkpt>
      <trkpt lat="44.75438" lon="-0.34655">
        <ele>141.89999389648</ele>
        <time>2011-05-08T06:49:51Z</time>
      </trkpt>
      <trkpt lat="44.75431" lon="-0.34658">
        <ele>142.69999694824</ele>
        <time>2011-05-08T06:49:53Z</time>
      </trkpt>
      <trkpt lat="44.75424" lon="-0.34658">
        <ele>142.80000305176</ele>
        <time>2011-05-08T06:49:55Z</time>
      </trkpt>
      <trkpt lat="44.75418" lon="-0.3466">
        <ele>142.60000610352</ele>
        <time>2011-05-08T06:49:57Z</time>
      </trkpt>
      <trkpt lat="44.75413" lon="-0.34662">
        <ele>143.10000610352</ele>
        <time>2011-05-08T06:49:59Z</time>
      </trkpt>
      <trkpt lat="44.75408" lon="-0.34665">
        <ele>143.30000305176</ele>
        <time>2011-05-08T06:50:01Z</time>
      </trkpt>
      <trkpt lat="44.75401" lon="-0.34667">
        <ele>143.30000305176</ele>
        <time>2011-05-08T06:50:03Z</time>
      </trkpt>
      <trkpt lat="44.75396" lon="-0.34672">
        <ele>145.30000305176</ele>
        <time>2011-05-08T06:50:06Z</time>
      </trkpt>
      <trkpt lat="44.7539" lon="-0.34676">
        <ele>144.39999389648</ele>
        <time>2011-05-08T06:50:08Z</time>
      </trkpt>
      <trkpt lat="44.75384" lon="-0.34678">
        <ele>143.30000305176</ele>
        <time>2011-05-08T06:50:10Z</time>
      </trkpt>
      <trkpt lat="44.75377" lon="-0.34683">
        <ele>144.10000610352</ele>
        <time>2011-05-08T06:50:12Z</time>
      </trkpt>
      <trkpt lat="44.75372" lon="-0.34687">
        <ele>143.80000305176</ele>
        <time>2011-05-08T06:50:14Z</time>
      </trkpt>
      <trkpt lat="44.75367" lon="-0.34691">
        <ele>143.60000610352</ele>
        <time>2011-05-08T06:50:16Z</time>
      </trkpt>
      <trkpt lat="44.75363" lon="-0.34695">
        <ele>142.5</ele>
        <time>2011-05-08T06:50:18Z</time>
      </trkpt>
      <trkpt lat="44.75358" lon="-0.34701">
        <ele>143.10000610352</ele>
        <time>2011-05-08T06:50:20Z</time>
      </trkpt>
      <trkpt lat="44.75352" lon="-0.34704">
        <ele>141.69999694824</ele>
        <time>2011-05-08T06:50:22Z</time>
      </trkpt>
      <trkpt lat="44.75346" lon="-0.34709">
        <ele>142.5</ele>
        <time>2011-05-08T06:50:24Z</time>
      </trkpt>
      <trkpt lat="44.75342" lon="-0.34713">
        <ele>142.39999389648</ele>
        <time>2011-05-08T06:50:26Z</time>
      </trkpt>
      <trkpt lat="44.75336" lon="-0.34717">
        <ele>142.19999694824</ele>
        <time>2011-05-08T06:50:28Z</time>
      </trkpt>
      <trkpt lat="44.7533" lon="-0.34724">
        <ele>142.5</ele>
        <time>2011-05-08T06:50:30Z</time>
      </trkpt>
      <trkpt lat="44.75325" lon="-0.34727">
        <ele>142.69999694824</ele>
        <time>2011-05-08T06:50:32Z</time>
      </trkpt>
      <trkpt lat="44.7532" lon="-0.34731">
        <ele>142.69999694824</ele>
        <time>2011-05-08T06:50:34Z</time>
      </trkpt>
      <trkpt lat="44.75315" lon="-0.34736">
        <ele>142.60000610352</ele>
        <time>2011-05-08T06:50:36Z</time>
      </trkpt>
      <trkpt lat="44.75307" lon="-0.34726">
        <ele>140</ele>
        <time>2011-05-08T06:50:40Z</time>
      </trkpt>
      <trkpt lat="44.75303" lon="-0.34716">
        <ele>140.39999389648</ele>
        <time>2011-05-08T06:50:42Z</time>
      </trkpt>
      <trkpt lat="44.753" lon="-0.34707">
        <ele>140.10000610352</ele>
        <time>2011-05-08T06:50:44Z</time>
      </trkpt>
      <trkpt lat="44.75298" lon="-0.34697">
        <ele>140.19999694824</ele>
        <time>2011-05-08T06:50:46Z</time>
      </trkpt>
      <trkpt lat="44.75297" lon="-0.34691">
        <ele>140.39999389648</ele>
        <time>2011-05-08T06:50:47Z</time>
      </trkpt>
      <trkpt lat="44.75296" lon="-0.34678">
        <ele>140.69999694824</ele>
        <time>2011-05-08T06:50:49Z</time>
      </trkpt>
      <trkpt lat="44.75296" lon="-0.34671">
        <ele>140</ele>
        <time>2011-05-08T06:50:50Z</time>
      </trkpt>
      <trkpt lat="44.75295" lon="-0.34661">
        <ele>139.19999694824</ele>
        <time>2011-05-08T06:50:52Z</time>
      </trkpt>
      <trkpt lat="44.75294" lon="-0.34654">
        <ele>139.39999389648</ele>
        <time>2011-05-08T06:50:53Z</time>
      </trkpt>
      <trkpt lat="44.75292" lon="-0.34643">
        <ele>139.60000610352</ele>
        <time>2011-05-08T06:50:55Z</time>
      </trkpt>
      <trkpt lat="44.75291" lon="-0.34632">
        <ele>139.19999694824</ele>
        <time>2011-05-08T06:50:57Z</time>
      </trkpt>
      <trkpt lat="44.75291" lon="-0.34621">
        <ele>139.80000305176</ele>
        <time>2011-05-08T06:50:59Z</time>
      </trkpt>
      <trkpt lat="44.7529" lon="-0.34609">
        <ele>138.69999694824</ele>
        <time>2011-05-08T06:51:01Z</time>
      </trkpt>
      <trkpt lat="44.7529" lon="-0.34597">
        <ele>139.19999694824</ele>
        <time>2011-05-08T06:51:03Z</time>
      </trkpt>
      <trkpt lat="44.7529" lon="-0.34589">
        <ele>138.69999694824</ele>
        <time>2011-05-08T06:51:05Z</time>
      </trkpt>
      <trkpt lat="44.75284" lon="-0.34588">
        <ele>138.19999694824</ele>
        <time>2011-05-08T06:51:07Z</time>
      </trkpt>
      <trkpt lat="44.75276" lon="-0.34592">
        <ele>138.80000305176</ele>
        <time>2011-05-08T06:51:10Z</time>
      </trkpt>
      <trkpt lat="44.7527" lon="-0.34595">
        <ele>139.19999694824</ele>
        <time>2011-05-08T06:51:12Z</time>
      </trkpt>
      <trkpt lat="44.75263" lon="-0.34599">
        <ele>140.10000610352</ele>
        <time>2011-05-08T06:51:14Z</time>
      </trkpt>
      <trkpt lat="44.75254" lon="-0.34601">
        <ele>140.89999389648</ele>
        <time>2011-05-08T06:51:16Z</time>
      </trkpt>
      <trkpt lat="44.75246" lon="-0.34604">
        <ele>139.39999389648</ele>
        <time>2011-05-08T06:51:18Z</time>
      </trkpt>
      <trkpt lat="44.75239" lon="-0.34608">
        <ele>139.39999389648</ele>
        <time>2011-05-08T06:51:20Z</time>
      </trkpt>
      <trkpt lat="44.75234" lon="-0.34608">
        <ele>138.89999389648</ele>
        <time>2011-05-08T06:51:21Z</time>
      </trkpt>
      <trkpt lat="44.7523" lon="-0.34602">
        <ele>139.5</ele>
        <time>2011-05-08T06:51:23Z</time>
      </trkpt>
      <trkpt lat="44.75226" lon="-0.34592">
        <ele>139.60000610352</ele>
        <time>2011-05-08T06:51:25Z</time>
      </trkpt>
      <trkpt lat="44.75223" lon="-0.34587">
        <ele>140.10000610352</ele>
        <time>2011-05-08T06:51:26Z</time>
      </trkpt>
      <trkpt lat="44.75219" lon="-0.34576">
        <ele>141.10000610352</ele>
        <time>2011-05-08T06:51:28Z</time>
      </trkpt>
      <trkpt lat="44.75216" lon="-0.34567">
        <ele>141.5</ele>
        <time>2011-05-08T06:51:30Z</time>
      </trkpt>
      <trkpt lat="44.75213" lon="-0.34558">
        <ele>141.60000610352</ele>
        <time>2011-05-08T06:51:32Z</time>
      </trkpt>
      <trkpt lat="44.75211" lon="-0.34551">
        <ele>142.19999694824</ele>
        <time>2011-05-08T06:51:34Z</time>
      </trkpt>
      <trkpt lat="44.75211" lon="-0.34543">
        <ele>141.5</ele>
        <time>2011-05-08T06:51:38Z</time>
      </trkpt>
      <trkpt lat="44.75205" lon="-0.34542">
        <ele>140.80000305176</ele>
        <time>2011-05-08T06:51:43Z</time>
      </trkpt>
      <trkpt lat="44.752" lon="-0.34538">
        <ele>141.69999694824</ele>
        <time>2011-05-08T06:51:49Z</time>
      </trkpt>
      <trkpt lat="44.75193" lon="-0.34539">
        <ele>141.60000610352</ele>
        <time>2011-05-08T06:51:54Z</time>
      </trkpt>
      <trkpt lat="44.75188" lon="-0.34542">
        <ele>139.39999389648</ele>
        <time>2011-05-08T06:51:56Z</time>
      </trkpt>
      <trkpt lat="44.75186" lon="-0.34548">
        <ele>139.60000610352</ele>
        <time>2011-05-08T06:51:59Z</time>
      </trkpt>
      <trkpt lat="44.75184" lon="-0.34554">
        <ele>140</ele>
        <time>2011-05-08T06:52:02Z</time>
      </trkpt>
      <trkpt lat="44.75181" lon="-0.3456">
        <ele>140.39999389648</ele>
        <time>2011-05-08T06:52:04Z</time>
      </trkpt>
      <trkpt lat="44.75178" lon="-0.34566">
        <ele>140.5</ele>
        <time>2011-05-08T06:52:07Z</time>
      </trkpt>
      <trkpt lat="44.75176" lon="-0.34572">
        <ele>139.69999694824</ele>
        <time>2011-05-08T06:52:09Z</time>
      </trkpt>
      <trkpt lat="44.75174" lon="-0.34578">
        <ele>140.5</ele>
        <time>2011-05-08T06:52:11Z</time>
      </trkpt>
      <trkpt lat="44.75174" lon="-0.34588">
        <ele>140.10000610352</ele>
        <time>2011-05-08T06:52:13Z</time>
      </trkpt>
      <trkpt lat="44.75173" lon="-0.34595">
        <ele>139.69999694824</ele>
        <time>2011-05-08T06:52:15Z</time>
      </trkpt>
      <trkpt lat="44.75171" lon="-0.34604">
        <ele>138.89999389648</ele>
        <time>2011-05-08T06:52:17Z</time>
      </trkpt>
      <trkpt lat="44.75168" lon="-0.34611">
        <ele>138.19999694824</ele>
        <time>2011-05-08T06:52:19Z</time>
      </trkpt>
      <trkpt lat="44.75167" lon="-0.34618">
        <ele>137.69999694824</ele>
        <time>2011-05-08T06:52:21Z</time>
      </trkpt>
      <trkpt lat="44.75163" lon="-0.34624">
        <ele>137.19999694824</ele>
        <time>2011-05-08T06:52:24Z</time>
      </trkpt>
      <trkpt lat="44.7516" lon="-0.34633">
        <ele>137.80000305176</ele>
        <time>2011-05-08T06:52:28Z</time>
      </trkpt>
      <trkpt lat="44.75156" lon="-0.34637">
        <ele>137.30000305176</ele>
        <time>2011-05-08T06:52:30Z</time>
      </trkpt>
      <trkpt lat="44.7515" lon="-0.34635">
        <ele>137.30000305176</ele>
        <time>2011-05-08T06:52:32Z</time>
      </trkpt>
      <trkpt lat="44.75148" lon="-0.34627">
        <ele>136.19999694824</ele>
        <time>2011-05-08T06:52:35Z</time>
      </trkpt>
      <trkpt lat="44.75145" lon="-0.3462">
        <ele>135.10000610352</ele>
        <time>2011-05-08T06:52:37Z</time>
      </trkpt>
      <trkpt lat="44.75141" lon="-0.3461">
        <ele>135</ele>
        <time>2011-05-08T06:52:40Z</time>
      </trkpt>
      <trkpt lat="44.75137" lon="-0.34603">
        <ele>133.89999389648</ele>
        <time>2011-05-08T06:52:42Z</time>
      </trkpt>
      <trkpt lat="44.75136" lon="-0.34597">
        <ele>132.10000610352</ele>
        <time>2011-05-08T06:52:44Z</time>
      </trkpt>
      <trkpt lat="44.75134" lon="-0.34589">
        <ele>131.89999389648</ele>
        <time>2011-05-08T06:52:46Z</time>
      </trkpt>
      <trkpt lat="44.75133" lon="-0.34581">
        <ele>132.30000305176</ele>
        <time>2011-05-08T06:52:48Z</time>
      </trkpt>
      <trkpt lat="44.75131" lon="-0.34574">
        <ele>132.39999389648</ele>
        <time>2011-05-08T06:52:50Z</time>
      </trkpt>
      <trkpt lat="44.7513" lon="-0.34565">
        <ele>132.19999694824</ele>
        <time>2011-05-08T06:52:52Z</time>
      </trkpt>
      <trkpt lat="44.75129" lon="-0.34557">
        <ele>133.10000610352</ele>
        <time>2011-05-08T06:52:54Z</time>
      </trkpt>
      <trkpt lat="44.75127" lon="-0.34549">
        <ele>133</ele>
        <time>2011-05-08T06:52:56Z</time>
      </trkpt>
      <trkpt lat="44.75126" lon="-0.34541">
        <ele>133.10000610352</ele>
        <time>2011-05-08T06:52:58Z</time>
      </trkpt>
      <trkpt lat="44.75126" lon="-0.34533">
        <ele>132.80000305176</ele>
        <time>2011-05-08T06:53:00Z</time>
      </trkpt>
      <trkpt lat="44.75123" lon="-0.34526">
        <ele>132.39999389648</ele>
        <time>2011-05-08T06:53:02Z</time>
      </trkpt>
      <trkpt lat="44.7512" lon="-0.34519">
        <ele>132.10000610352</ele>
        <time>2011-05-08T06:53:04Z</time>
      </trkpt>
      <trkpt lat="44.75117" lon="-0.34513">
        <ele>131.69999694824</ele>
        <time>2011-05-08T06:53:06Z</time>
      </trkpt>
      <trkpt lat="44.75116" lon="-0.34505">
        <ele>132.69999694824</ele>
        <time>2011-05-08T06:53:08Z</time>
      </trkpt>
      <trkpt lat="44.75113" lon="-0.34499">
        <ele>133.39999389648</ele>
        <time>2011-05-08T06:53:11Z</time>
      </trkpt>
      <trkpt lat="44.75107" lon="-0.34497">
        <ele>134.89999389648</ele>
        <time>2011-05-08T06:53:15Z</time>
      </trkpt>
      <trkpt lat="44.751" lon="-0.34497">
        <ele>135.19999694824</ele>
        <time>2011-05-08T06:53:18Z</time>
      </trkpt>
      <trkpt lat="44.75095" lon="-0.34498">
        <ele>135.89999389648</ele>
        <time>2011-05-08T06:53:21Z</time>
      </trkpt>
      <trkpt lat="44.75089" lon="-0.34498">
        <ele>135.89999389648</ele>
        <time>2011-05-08T06:53:23Z</time>
      </trkpt>
      <trkpt lat="44.75083" lon="-0.34499">
        <ele>135.89999389648</ele>
        <time>2011-05-08T06:53:25Z</time>
      </trkpt>
      <trkpt lat="44.75077" lon="-0.345">
        <ele>136.60000610352</ele>
        <time>2011-05-08T06:53:27Z</time>
      </trkpt>
      <trkpt lat="44.75071" lon="-0.345">
        <ele>137</ele>
        <time>2011-05-08T06:53:29Z</time>
      </trkpt>
      <trkpt lat="44.75065" lon="-0.34502">
        <ele>138.19999694824</ele>
        <time>2011-05-08T06:53:31Z</time>
      </trkpt>
      <trkpt lat="44.7506" lon="-0.34503">
        <ele>138.80000305176</ele>
        <time>2011-05-08T06:53:33Z</time>
      </trkpt>
      <trkpt lat="44.75053" lon="-0.34505">
        <ele>138.30000305176</ele>
        <time>2011-05-08T06:53:36Z</time>
      </trkpt>
      <trkpt lat="44.75047" lon="-0.34505">
        <ele>137.60000610352</ele>
        <time>2011-05-08T06:53:38Z</time>
      </trkpt>
      <trkpt lat="44.7504" lon="-0.34506">
        <ele>138.19999694824</ele>
        <time>2011-05-08T06:53:40Z</time>
      </trkpt>
      <trkpt lat="44.75033" lon="-0.34506">
        <ele>138.60000610352</ele>
        <time>2011-05-08T06:53:42Z</time>
      </trkpt>
      <trkpt lat="44.75028" lon="-0.34506">
        <ele>139.60000610352</ele>
        <time>2011-05-08T06:53:44Z</time>
      </trkpt>
      <trkpt lat="44.7502" lon="-0.34502">
        <ele>138.69999694824</ele>
        <time>2011-05-08T06:53:46Z</time>
      </trkpt>
      <trkpt lat="44.75014" lon="-0.34495">
        <ele>138.80000305176</ele>
        <time>2011-05-08T06:53:48Z</time>
      </trkpt>
      <trkpt lat="44.75009" lon="-0.34489">
        <ele>139</ele>
        <time>2011-05-08T06:53:50Z</time>
      </trkpt>
      <trkpt lat="44.75002" lon="-0.34484">
        <ele>139.10000610352</ele>
        <time>2011-05-08T06:53:52Z</time>
      </trkpt>
      <trkpt lat="44.74998" lon="-0.34479">
        <ele>139.60000610352</ele>
        <time>2011-05-08T06:53:54Z</time>
      </trkpt>
      <trkpt lat="44.74994" lon="-0.34474">
        <ele>139.5</ele>
        <time>2011-05-08T06:53:56Z</time>
      </trkpt>
      <trkpt lat="44.74989" lon="-0.34467">
        <ele>138.69999694824</ele>
        <time>2011-05-08T06:53:58Z</time>
      </trkpt>
      <trkpt lat="44.74985" lon="-0.34461">
        <ele>140</ele>
        <time>2011-05-08T06:54:00Z</time>
      </trkpt>
      <trkpt lat="44.74979" lon="-0.34456">
        <ele>138.89999389648</ele>
        <time>2011-05-08T06:54:02Z</time>
      </trkpt>
      <trkpt lat="44.74973" lon="-0.3445">
        <ele>138.89999389648</ele>
        <time>2011-05-08T06:54:04Z</time>
      </trkpt>
      <trkpt lat="44.74968" lon="-0.34445">
        <ele>137.89999389648</ele>
        <time>2011-05-08T06:54:06Z</time>
      </trkpt>
      <trkpt lat="44.74964" lon="-0.34439">
        <ele>138.5</ele>
        <time>2011-05-08T06:54:08Z</time>
      </trkpt>
      <trkpt lat="44.7496" lon="-0.34433">
        <ele>139.60000610352</ele>
        <time>2011-05-08T06:54:10Z</time>
      </trkpt>
      <trkpt lat="44.74955" lon="-0.34434">
        <ele>140.60000610352</ele>
        <time>2011-05-08T06:54:12Z</time>
      </trkpt>
      <trkpt lat="44.74949" lon="-0.34436">
        <ele>142.30000305176</ele>
        <time>2011-05-08T06:54:14Z</time>
      </trkpt>
      <trkpt lat="44.74943" lon="-0.34442">
        <ele>143.30000305176</ele>
        <time>2011-05-08T06:54:16Z</time>
      </trkpt>
      <trkpt lat="44.74936" lon="-0.34441">
        <ele>144.19999694824</ele>
        <time>2011-05-08T06:54:18Z</time>
      </trkpt>
      <trkpt lat="44.74928" lon="-0.34437">
        <ele>144.60000610352</ele>
        <time>2011-05-08T06:54:20Z</time>
      </trkpt>
      <trkpt lat="44.74923" lon="-0.34434">
        <ele>145.5</ele>
        <time>2011-05-08T06:54:21Z</time>
      </trkpt>
      <trkpt lat="44.74918" lon="-0.34432">
        <ele>145.19999694824</ele>
        <time>2011-05-08T06:54:22Z</time>
      </trkpt>
      <trkpt lat="44.74913" lon="-0.34429">
        <ele>144.80000305176</ele>
        <time>2011-05-08T06:54:23Z</time>
      </trkpt>
      <trkpt lat="44.74908" lon="-0.34427">
        <ele>144.69999694824</ele>
        <time>2011-05-08T06:54:24Z</time>
      </trkpt>
      <trkpt lat="44.74902" lon="-0.34423">
        <ele>145.19999694824</ele>
        <time>2011-05-08T06:54:25Z</time>
      </trkpt>
      <trkpt lat="44.74896" lon="-0.3442">
        <ele>145.39999389648</ele>
        <time>2011-05-08T06:54:26Z</time>
      </trkpt>
      <trkpt lat="44.74891" lon="-0.34417">
        <ele>145.69999694824</ele>
        <time>2011-05-08T06:54:27Z</time>
      </trkpt>
      <trkpt lat="44.74887" lon="-0.34414">
        <ele>145.80000305176</ele>
        <time>2011-05-08T06:54:28Z</time>
      </trkpt>
      <trkpt lat="44.74882" lon="-0.3441">
        <ele>145.69999694824</ele>
        <time>2011-05-08T06:54:29Z</time>
      </trkpt>
      <trkpt lat="44.74873" lon="-0.34406">
        <ele>145.60000610352</ele>
        <time>2011-05-08T06:54:31Z</time>
      </trkpt>
      <trkpt lat="44.74863" lon="-0.344">
        <ele>145.39999389648</ele>
        <time>2011-05-08T06:54:33Z</time>
      </trkpt>
      <trkpt lat="44.74856" lon="-0.34394">
        <ele>145.69999694824</ele>
        <time>2011-05-08T06:54:35Z</time>
      </trkpt>
      <trkpt lat="44.74851" lon="-0.34392">
        <ele>145.80000305176</ele>
        <time>2011-05-08T06:54:36Z</time>
      </trkpt>
      <trkpt lat="44.74842" lon="-0.34388">
        <ele>145.39999389648</ele>
        <time>2011-05-08T06:54:38Z</time>
      </trkpt>
      <trkpt lat="44.74834" lon="-0.34384">
        <ele>145.19999694824</ele>
        <time>2011-05-08T06:54:40Z</time>
      </trkpt>
      <trkpt lat="44.74827" lon="-0.34381">
        <ele>145.30000305176</ele>
        <time>2011-05-08T06:54:42Z</time>
      </trkpt>
      <trkpt lat="44.74822" lon="-0.34378">
        <ele>145.19999694824</ele>
        <time>2011-05-08T06:54:43Z</time>
      </trkpt>
      <trkpt lat="44.74814" lon="-0.34373">
        <ele>144.69999694824</ele>
        <time>2011-05-08T06:54:45Z</time>
      </trkpt>
      <trkpt lat="44.74807" lon="-0.34368">
        <ele>144.10000610352</ele>
        <time>2011-05-08T06:54:47Z</time>
      </trkpt>
      <trkpt lat="44.74803" lon="-0.34364">
        <ele>143.5</ele>
        <time>2011-05-08T06:54:48Z</time>
      </trkpt>
      <trkpt lat="44.74799" lon="-0.34362">
        <ele>144</ele>
        <time>2011-05-08T06:54:49Z</time>
      </trkpt>
      <trkpt lat="44.74792" lon="-0.34361">
        <ele>144.5</ele>
        <time>2011-05-08T06:54:51Z</time>
      </trkpt>
      <trkpt lat="44.74786" lon="-0.34368">
        <ele>145.30000305176</ele>
        <time>2011-05-08T06:54:53Z</time>
      </trkpt>
      <trkpt lat="44.74783" lon="-0.34373">
        <ele>144.80000305176</ele>
        <time>2011-05-08T06:54:54Z</time>
      </trkpt>
      <trkpt lat="44.74779" lon="-0.34379">
        <ele>144.69999694824</ele>
        <time>2011-05-08T06:54:55Z</time>
      </trkpt>
      <trkpt lat="44.74776" lon="-0.34385">
        <ele>144.60000610352</ele>
        <time>2011-05-08T06:54:56Z</time>
      </trkpt>
      <trkpt lat="44.74773" lon="-0.34393">
        <ele>144.69999694824</ele>
        <time>2011-05-08T06:54:57Z</time>
      </trkpt>
      <trkpt lat="44.74769" lon="-0.344">
        <ele>144.80000305176</ele>
        <time>2011-05-08T06:54:58Z</time>
      </trkpt>
      <trkpt lat="44.74765" lon="-0.34406">
        <ele>145.19999694824</ele>
        <time>2011-05-08T06:54:59Z</time>
      </trkpt>
      <trkpt lat="44.7476" lon="-0.34408">
        <ele>145.10000610352</ele>
        <time>2011-05-08T06:55:00Z</time>
      </trkpt>
      <trkpt lat="44.74751" lon="-0.34407">
        <ele>146.39999389648</ele>
        <time>2011-05-08T06:55:02Z</time>
      </trkpt>
      <trkpt lat="44.74746" lon="-0.34405">
        <ele>146.39999389648</ele>
        <time>2011-05-08T06:55:03Z</time>
      </trkpt>
      <trkpt lat="44.74742" lon="-0.34403">
        <ele>146.10000610352</ele>
        <time>2011-05-08T06:55:04Z</time>
      </trkpt>
      <trkpt lat="44.74732" lon="-0.344">
        <ele>146.5</ele>
        <time>2011-05-08T06:55:06Z</time>
      </trkpt>
      <trkpt lat="44.74727" lon="-0.34398">
        <ele>145.89999389648</ele>
        <time>2011-05-08T06:55:07Z</time>
      </trkpt>
      <trkpt lat="44.74722" lon="-0.34396">
        <ele>145.89999389648</ele>
        <time>2011-05-08T06:55:08Z</time>
      </trkpt>
      <trkpt lat="44.74717" lon="-0.34394">
        <ele>145.89999389648</ele>
        <time>2011-05-08T06:55:09Z</time>
      </trkpt>
      <trkpt lat="44.74712" lon="-0.34391">
        <ele>146.10000610352</ele>
        <time>2011-05-08T06:55:10Z</time>
      </trkpt>
      <trkpt lat="44.74707" lon="-0.3439">
        <ele>146</ele>
        <time>2011-05-08T06:55:11Z</time>
      </trkpt>
      <trkpt lat="44.74702" lon="-0.34387">
        <ele>146.39999389648</ele>
        <time>2011-05-08T06:55:12Z</time>
      </trkpt>
      <trkpt lat="44.74695" lon="-0.34383">
        <ele>147.10000610352</ele>
        <time>2011-05-08T06:55:14Z</time>
      </trkpt>
      <trkpt lat="44.74689" lon="-0.34381">
        <ele>146.89999389648</ele>
        <time>2011-05-08T06:55:15Z</time>
      </trkpt>
      <trkpt lat="44.74684" lon="-0.3438">
        <ele>147</ele>
        <time>2011-05-08T06:55:16Z</time>
      </trkpt>
      <trkpt lat="44.74676" lon="-0.34377">
        <ele>146</ele>
        <time>2011-05-08T06:55:18Z</time>
      </trkpt>
      <trkpt lat="44.74671" lon="-0.34382">
        <ele>145.69999694824</ele>
        <time>2011-05-08T06:55:20Z</time>
      </trkpt>
      <trkpt lat="44.74668" lon="-0.34392">
        <ele>145.5</ele>
        <time>2011-05-08T06:55:22Z</time>
      </trkpt>
      <trkpt lat="44.74667" lon="-0.34403">
        <ele>145.80000305176</ele>
        <time>2011-05-08T06:55:24Z</time>
      </trkpt>
      <trkpt lat="44.74664" lon="-0.34415">
        <ele>145.89999389648</ele>
        <time>2011-05-08T06:55:26Z</time>
      </trkpt>
      <trkpt lat="44.74663" lon="-0.34429">
        <ele>146</ele>
        <time>2011-05-08T06:55:28Z</time>
      </trkpt>
      <trkpt lat="44.74661" lon="-0.34435">
        <ele>146.89999389648</ele>
        <time>2011-05-08T06:55:29Z</time>
      </trkpt>
      <trkpt lat="44.74659" lon="-0.34445">
        <ele>146.19999694824</ele>
        <time>2011-05-08T06:55:31Z</time>
      </trkpt>
      <trkpt lat="44.74656" lon="-0.34451">
        <ele>146.5</ele>
        <time>2011-05-08T06:55:33Z</time>
      </trkpt>
      <trkpt lat="44.74649" lon="-0.34452">
        <ele>146.39999389648</ele>
        <time>2011-05-08T06:55:35Z</time>
      </trkpt>
      <trkpt lat="44.74644" lon="-0.34451">
        <ele>146.19999694824</ele>
        <time>2011-05-08T06:55:36Z</time>
      </trkpt>
      <trkpt lat="44.74639" lon="-0.34449">
        <ele>146.10000610352</ele>
        <time>2011-05-08T06:55:37Z</time>
      </trkpt>
      <trkpt lat="44.74633" lon="-0.34447">
        <ele>146</ele>
        <time>2011-05-08T06:55:38Z</time>
      </trkpt>
      <trkpt lat="44.74623" lon="-0.34443">
        <ele>146.10000610352</ele>
        <time>2011-05-08T06:55:40Z</time>
      </trkpt>
      <trkpt lat="44.74614" lon="-0.34441">
        <ele>146</ele>
        <time>2011-05-08T06:55:42Z</time>
      </trkpt>
      <trkpt lat="44.74608" lon="-0.34441">
        <ele>145.89999389648</ele>
        <time>2011-05-08T06:55:44Z</time>
      </trkpt>
      <trkpt lat="44.746" lon="-0.3444">
        <ele>146.10000610352</ele>
        <time>2011-05-08T06:55:46Z</time>
      </trkpt>
      <trkpt lat="44.74592" lon="-0.3444">
        <ele>146.10000610352</ele>
        <time>2011-05-08T06:55:48Z</time>
      </trkpt>
      <trkpt lat="44.74585" lon="-0.34444">
        <ele>146.30000305176</ele>
        <time>2011-05-08T06:55:50Z</time>
      </trkpt>
      <trkpt lat="44.74581" lon="-0.34449">
        <ele>146</ele>
        <time>2011-05-08T06:55:51Z</time>
      </trkpt>
      <trkpt lat="44.7458" lon="-0.34457">
        <ele>146.39999389648</ele>
        <time>2011-05-08T06:55:53Z</time>
      </trkpt>
      <trkpt lat="44.74578" lon="-0.34468">
        <ele>146.60000610352</ele>
        <time>2011-05-08T06:55:55Z</time>
      </trkpt>
      <trkpt lat="44.74575" lon="-0.34476">
        <ele>146.5</ele>
        <time>2011-05-08T06:55:57Z</time>
      </trkpt>
      <trkpt lat="44.7457" lon="-0.3448">
        <ele>145.39999389648</ele>
        <time>2011-05-08T06:55:59Z</time>
      </trkpt>
      <trkpt lat="44.74563" lon="-0.34478">
        <ele>144.89999389648</ele>
        <time>2011-05-08T06:56:01Z</time>
      </trkpt>
      <trkpt lat="44.74555" lon="-0.34475">
        <ele>144.89999389648</ele>
        <time>2011-05-08T06:56:03Z</time>
      </trkpt>
      <trkpt lat="44.7455" lon="-0.34473">
        <ele>144.80000305176</ele>
        <time>2011-05-08T06:56:04Z</time>
      </trkpt>
      <trkpt lat="44.74545" lon="-0.34473">
        <ele>145</ele>
        <time>2011-05-08T06:56:05Z</time>
      </trkpt>
      <trkpt lat="44.74539" lon="-0.34473">
        <ele>144.60000610352</ele>
        <time>2011-05-08T06:56:06Z</time>
      </trkpt>
      <trkpt lat="44.74532" lon="-0.34471">
        <ele>144.30000305176</ele>
        <time>2011-05-08T06:56:08Z</time>
      </trkpt>
      <trkpt lat="44.74527" lon="-0.34469">
        <ele>144.19999694824</ele>
        <time>2011-05-08T06:56:10Z</time>
      </trkpt>
      <trkpt lat="44.74523" lon="-0.34467">
        <ele>144.19999694824</ele>
        <time>2011-05-08T06:56:12Z</time>
      </trkpt>
      <trkpt lat="44.74517" lon="-0.34462">
        <ele>144.19999694824</ele>
        <time>2011-05-08T06:56:16Z</time>
      </trkpt>
      <trkpt lat="44.74514" lon="-0.34455">
        <ele>143.60000610352</ele>
        <time>2011-05-08T06:56:21Z</time>
      </trkpt>
      <trkpt lat="44.74511" lon="-0.34451">
        <ele>142.80000305176</ele>
        <time>2011-05-08T06:56:23Z</time>
      </trkpt>
      <trkpt lat="44.74509" lon="-0.34445">
        <ele>141.89999389648</ele>
        <time>2011-05-08T06:56:25Z</time>
      </trkpt>
      <trkpt lat="44.74509" lon="-0.34435">
        <ele>141.80000305176</ele>
        <time>2011-05-08T06:56:28Z</time>
      </trkpt>
      <trkpt lat="44.74509" lon="-0.34428">
        <ele>141.89999389648</ele>
        <time>2011-05-08T06:56:30Z</time>
      </trkpt>
      <trkpt lat="44.74507" lon="-0.34421">
        <ele>142.89999389648</ele>
        <time>2011-05-08T06:56:32Z</time>
      </trkpt>
      <trkpt lat="44.74504" lon="-0.34414">
        <ele>142.5</ele>
        <time>2011-05-08T06:56:34Z</time>
      </trkpt>
      <trkpt lat="44.74502" lon="-0.34407">
        <ele>141.5</ele>
        <time>2011-05-08T06:56:36Z</time>
      </trkpt>
      <trkpt lat="44.74501" lon="-0.34399">
        <ele>141</ele>
        <time>2011-05-08T06:56:38Z</time>
      </trkpt>
      <trkpt lat="44.74496" lon="-0.34393">
        <ele>142.19999694824</ele>
        <time>2011-05-08T06:56:41Z</time>
      </trkpt>
      <trkpt lat="44.74491" lon="-0.34389">
        <ele>141.80000305176</ele>
        <time>2011-05-08T06:56:43Z</time>
      </trkpt>
      <trkpt lat="44.74487" lon="-0.34384">
        <ele>141.80000305176</ele>
        <time>2011-05-08T06:56:45Z</time>
      </trkpt>
      <trkpt lat="44.74483" lon="-0.34377">
        <ele>141.30000305176</ele>
        <time>2011-05-08T06:56:48Z</time>
      </trkpt>
      <trkpt lat="44.74481" lon="-0.34371">
        <ele>141.80000305176</ele>
        <time>2011-05-08T06:56:51Z</time>
      </trkpt>
      <trkpt lat="44.74477" lon="-0.34366">
        <ele>142</ele>
        <time>2011-05-08T06:56:53Z</time>
      </trkpt>
      <trkpt lat="44.74474" lon="-0.3436">
        <ele>142.80000305176</ele>
        <time>2011-05-08T06:56:56Z</time>
      </trkpt>
      <trkpt lat="44.74468" lon="-0.3436">
        <ele>142.60000610352</ele>
        <time>2011-05-08T06:56:59Z</time>
      </trkpt>
      <trkpt lat="44.74462" lon="-0.34361">
        <ele>142.39999389648</ele>
        <time>2011-05-08T06:57:02Z</time>
      </trkpt>
      <trkpt lat="44.74457" lon="-0.34364">
        <ele>142.69999694824</ele>
        <time>2011-05-08T06:57:04Z</time>
      </trkpt>
      <trkpt lat="44.74452" lon="-0.34367">
        <ele>142.10000610352</ele>
        <time>2011-05-08T06:57:06Z</time>
      </trkpt>
      <trkpt lat="44.74445" lon="-0.3437">
        <ele>140.60000610352</ele>
        <time>2011-05-08T06:57:08Z</time>
      </trkpt>
      <trkpt lat="44.74441" lon="-0.34373">
        <ele>140</ele>
        <time>2011-05-08T06:57:10Z</time>
      </trkpt>
      <trkpt lat="44.74436" lon="-0.34376">
        <ele>138.80000305176</ele>
        <time>2011-05-08T06:57:13Z</time>
      </trkpt>
      <trkpt lat="44.74429" lon="-0.34375">
        <ele>137.80000305176</ele>
        <time>2011-05-08T06:57:15Z</time>
      </trkpt>
      <trkpt lat="44.74423" lon="-0.34382">
        <ele>138.10000610352</ele>
        <time>2011-05-08T06:57:17Z</time>
      </trkpt>
      <trkpt lat="44.7442" lon="-0.34388">
        <ele>138.30000305176</ele>
        <time>2011-05-08T06:57:19Z</time>
      </trkpt>
      <trkpt lat="44.74418" lon="-0.34394">
        <ele>138.5</ele>
        <time>2011-05-08T06:57:21Z</time>
      </trkpt>
      <trkpt lat="44.74411" lon="-0.34399">
        <ele>137.30000305176</ele>
        <time>2011-05-08T06:57:23Z</time>
      </trkpt>
      <trkpt lat="44.74407" lon="-0.34406">
        <ele>135</ele>
        <time>2011-05-08T06:57:26Z</time>
      </trkpt>
      <trkpt lat="44.74403" lon="-0.34411">
        <ele>135.30000305176</ele>
        <time>2011-05-08T06:57:28Z</time>
      </trkpt>
      <trkpt lat="44.74399" lon="-0.3442">
        <ele>134.89999389648</ele>
        <time>2011-05-08T06:57:31Z</time>
      </trkpt>
      <trkpt lat="44.74394" lon="-0.34429">
        <ele>134</ele>
        <time>2011-05-08T06:57:33Z</time>
      </trkpt>
      <trkpt lat="44.7439" lon="-0.34438">
        <ele>134.10000610352</ele>
        <time>2011-05-08T06:57:35Z</time>
      </trkpt>
      <trkpt lat="44.7439" lon="-0.34447">
        <ele>133.30000305176</ele>
        <time>2011-05-08T06:57:37Z</time>
      </trkpt>
      <trkpt lat="44.7438" lon="-0.3446">
        <ele>132.39999389648</ele>
        <time>2011-05-08T06:57:41Z</time>
      </trkpt>
      <trkpt lat="44.74377" lon="-0.34468">
        <ele>132.39999389648</ele>
        <time>2011-05-08T06:57:43Z</time>
      </trkpt>
      <trkpt lat="44.74375" lon="-0.34475">
        <ele>131.60000610352</ele>
        <time>2011-05-08T06:57:45Z</time>
      </trkpt>
      <trkpt lat="44.7437" lon="-0.34483">
        <ele>130.30000305176</ele>
        <time>2011-05-08T06:57:47Z</time>
      </trkpt>
      <trkpt lat="44.74366" lon="-0.34488">
        <ele>129.80000305176</ele>
        <time>2011-05-08T06:57:49Z</time>
      </trkpt>
      <trkpt lat="44.74362" lon="-0.34494">
        <ele>130.39999389648</ele>
        <time>2011-05-08T06:57:52Z</time>
      </trkpt>
      <trkpt lat="44.74359" lon="-0.345">
        <ele>130.39999389648</ele>
        <time>2011-05-08T06:57:54Z</time>
      </trkpt>
      <trkpt lat="44.74356" lon="-0.34504">
        <ele>130.69999694824</ele>
        <time>2011-05-08T06:57:56Z</time>
      </trkpt>
      <trkpt lat="44.74352" lon="-0.34511">
        <ele>130.69999694824</ele>
        <time>2011-05-08T06:58:00Z</time>
      </trkpt>
      <trkpt lat="44.7435" lon="-0.34516">
        <ele>130.39999389648</ele>
        <time>2011-05-08T06:58:02Z</time>
      </trkpt>
      <trkpt lat="44.74343" lon="-0.34524">
        <ele>130.19999694824</ele>
        <time>2011-05-08T06:58:05Z</time>
      </trkpt>
      <trkpt lat="44.74339" lon="-0.34533">
        <ele>128.39999389648</ele>
        <time>2011-05-08T06:58:08Z</time>
      </trkpt>
      <trkpt lat="44.74333" lon="-0.3454">
        <ele>129.19999694824</ele>
        <time>2011-05-08T06:58:11Z</time>
      </trkpt>
      <trkpt lat="44.74332" lon="-0.34546">
        <ele>128.30000305176</ele>
        <time>2011-05-08T06:58:14Z</time>
      </trkpt>
      <trkpt lat="44.74332" lon="-0.34554">
        <ele>128.5</ele>
        <time>2011-05-08T06:58:18Z</time>
      </trkpt>
      <trkpt lat="44.74333" lon="-0.34562">
        <ele>128.5</ele>
        <time>2011-05-08T06:58:22Z</time>
      </trkpt>
      <trkpt lat="44.74337" lon="-0.34566">
        <ele>128.60000610352</ele>
        <time>2011-05-08T06:58:27Z</time>
      </trkpt>
      <trkpt lat="44.7434" lon="-0.34571">
        <ele>131.30000305176</ele>
        <time>2011-05-08T06:58:30Z</time>
      </trkpt>
      <trkpt lat="44.74344" lon="-0.34577">
        <ele>132</ele>
        <time>2011-05-08T06:58:33Z</time>
      </trkpt>
      <trkpt lat="44.74347" lon="-0.34585">
        <ele>132.69999694824</ele>
        <time>2011-05-08T06:58:37Z</time>
      </trkpt>
      <trkpt lat="44.7435" lon="-0.3459">
        <ele>131.80000305176</ele>
        <time>2011-05-08T06:58:40Z</time>
      </trkpt>
      <trkpt lat="44.74355" lon="-0.34597">
        <ele>131.30000305176</ele>
        <time>2011-05-08T06:58:43Z</time>
      </trkpt>
      <trkpt lat="44.74362" lon="-0.34604">
        <ele>131.89999389648</ele>
        <time>2011-05-08T06:59:34Z</time>
      </trkpt>
      <trkpt lat="44.74365" lon="-0.34607">
        <ele>131.60000610352</ele>
        <time>2011-05-08T06:59:35Z</time>
      </trkpt>
      <trkpt lat="44.7437" lon="-0.34612">
        <ele>130.80000305176</ele>
        <time>2011-05-08T06:59:36Z</time>
      </trkpt>
      <trkpt lat="44.74371" lon="-0.34619">
        <ele>130.80000305176</ele>
        <time>2011-05-08T06:59:38Z</time>
      </trkpt>
      <trkpt lat="44.74374" lon="-0.34632">
        <ele>126.90000152588</ele>
        <time>2011-05-08T06:59:41Z</time>
      </trkpt>
      <trkpt lat="44.74369" lon="-0.34631">
        <ele>126.30000305176</ele>
        <time>2011-05-08T06:59:43Z</time>
      </trkpt>
      <trkpt lat="44.74364" lon="-0.34632">
        <ele>124</ele>
        <time>2011-05-08T06:59:49Z</time>
      </trkpt>
      <trkpt lat="44.74358" lon="-0.34633">
        <ele>124.59999847412</ele>
        <time>2011-05-08T07:00:11Z</time>
      </trkpt>
      <trkpt lat="44.74352" lon="-0.3463">
        <ele>124.80000305176</ele>
        <time>2011-05-08T07:00:12Z</time>
      </trkpt>
      <trkpt lat="44.74345" lon="-0.34628">
        <ele>125.09999847412</ele>
        <time>2011-05-08T07:00:13Z</time>
      </trkpt>
      <trkpt lat="44.74336" lon="-0.34625">
        <ele>125.69999694824</ele>
        <time>2011-05-08T07:00:15Z</time>
      </trkpt>
      <trkpt lat="44.7433" lon="-0.34622">
        <ele>127</ele>
        <time>2011-05-08T07:00:17Z</time>
      </trkpt>
      <trkpt lat="44.74322" lon="-0.34622">
        <ele>127</ele>
        <time>2011-05-08T07:00:19Z</time>
      </trkpt>
      <trkpt lat="44.74316" lon="-0.34619">
        <ele>127</ele>
        <time>2011-05-08T07:00:21Z</time>
      </trkpt>
      <trkpt lat="44.74309" lon="-0.34619">
        <ele>127.59999847412</ele>
        <time>2011-05-08T07:00:24Z</time>
      </trkpt>
      <trkpt lat="44.74298" lon="-0.34619">
        <ele>125.5</ele>
        <time>2011-05-08T07:00:25Z</time>
      </trkpt>
      <trkpt lat="44.74293" lon="-0.34616">
        <ele>125</ele>
        <time>2011-05-08T07:00:57Z</time>
      </trkpt>
      <trkpt lat="44.74285" lon="-0.34614">
        <ele>124.5</ele>
        <time>2011-05-08T07:01:00Z</time>
      </trkpt>
      <trkpt lat="44.74279" lon="-0.34611">
        <ele>123.80000305176</ele>
        <time>2011-05-08T07:01:02Z</time>
      </trkpt>
      <trkpt lat="44.74274" lon="-0.34612">
        <ele>123.69999694824</ele>
        <time>2011-05-08T07:01:05Z</time>
      </trkpt>
      <trkpt lat="44.74269" lon="-0.34612">
        <ele>125.30000305176</ele>
        <time>2011-05-08T07:01:09Z</time>
      </trkpt>
      <trkpt lat="44.74262" lon="-0.3461">
        <ele>127.69999694824</ele>
        <time>2011-05-08T07:01:24Z</time>
      </trkpt>
      <trkpt lat="44.74254" lon="-0.34614">
        <ele>129.5</ele>
        <time>2011-05-08T07:01:27Z</time>
      </trkpt>
      <trkpt lat="44.7425" lon="-0.34619">
        <ele>130.60000610352</ele>
        <time>2011-05-08T07:01:29Z</time>
      </trkpt>
      <trkpt lat="44.74246" lon="-0.34625">
        <ele>132.69999694824</ele>
        <time>2011-05-08T07:01:32Z</time>
      </trkpt>
      <trkpt lat="44.74241" lon="-0.34629">
        <ele>132.89999389648</ele>
        <time>2011-05-08T07:01:35Z</time>
      </trkpt>
      <trkpt lat="44.74237" lon="-0.34634">
        <ele>135.69999694824</ele>
        <time>2011-05-08T07:01:37Z</time>
      </trkpt>
      <trkpt lat="44.74229" lon="-0.34642">
        <ele>135.39999389648</ele>
        <time>2011-05-08T07:01:41Z</time>
      </trkpt>
      <trkpt lat="44.74223" lon="-0.34647">
        <ele>134.60000610352</ele>
        <time>2011-05-08T07:01:43Z</time>
      </trkpt>
      <trkpt lat="44.74217" lon="-0.34655">
        <ele>134.39999389648</ele>
        <time>2011-05-08T07:01:46Z</time>
      </trkpt>
      <trkpt lat="44.74212" lon="-0.34661">
        <ele>135.39999389648</ele>
        <time>2011-05-08T07:01:47Z</time>
      </trkpt>
      <trkpt lat="44.74207" lon="-0.34663">
        <ele>133.80000305176</ele>
        <time>2011-05-08T07:01:48Z</time>
      </trkpt>
      <trkpt lat="44.74202" lon="-0.34667">
        <ele>132.19999694824</ele>
        <time>2011-05-08T07:01:49Z</time>
      </trkpt>
      <trkpt lat="44.74196" lon="-0.34676">
        <ele>132.80000305176</ele>
        <time>2011-05-08T07:01:51Z</time>
      </trkpt>
      <trkpt lat="44.7419" lon="-0.34682">
        <ele>132.89999389648</ele>
        <time>2011-05-08T07:01:53Z</time>
      </trkpt>
      <trkpt lat="44.74186" lon="-0.34686">
        <ele>132.19999694824</ele>
        <time>2011-05-08T07:01:54Z</time>
      </trkpt>
      <trkpt lat="44.74179" lon="-0.34693">
        <ele>132.30000305176</ele>
        <time>2011-05-08T07:01:56Z</time>
      </trkpt>
      <trkpt lat="44.74177" lon="-0.34701">
        <ele>131.5</ele>
        <time>2011-05-08T07:01:59Z</time>
      </trkpt>
      <trkpt lat="44.74173" lon="-0.3471">
        <ele>129.5</ele>
        <time>2011-05-08T07:02:02Z</time>
      </trkpt>
      <trkpt lat="44.74169" lon="-0.34718">
        <ele>129.10000610352</ele>
        <time>2011-05-08T07:02:04Z</time>
      </trkpt>
      <trkpt lat="44.74164" lon="-0.34724">
        <ele>128.30000305176</ele>
        <time>2011-05-08T07:02:06Z</time>
      </trkpt>
      <trkpt lat="44.74159" lon="-0.34728">
        <ele>127.90000152588</ele>
        <time>2011-05-08T07:02:08Z</time>
      </trkpt>
      <trkpt lat="44.74159" lon="-0.34736">
        <ele>126.40000152588</ele>
        <time>2011-05-08T07:02:10Z</time>
      </trkpt>
      <trkpt lat="44.74157" lon="-0.34743">
        <ele>125.5</ele>
        <time>2011-05-08T07:02:13Z</time>
      </trkpt>
      <trkpt lat="44.74152" lon="-0.34749">
        <ele>125.40000152588</ele>
        <time>2011-05-08T07:02:16Z</time>
      </trkpt>
      <trkpt lat="44.74147" lon="-0.34755">
        <ele>125.30000305176</ele>
        <time>2011-05-08T07:02:19Z</time>
      </trkpt>
      <trkpt lat="44.74141" lon="-0.34762">
        <ele>124.59999847412</ele>
        <time>2011-05-08T07:02:21Z</time>
      </trkpt>
      <trkpt lat="44.74136" lon="-0.34767">
        <ele>125.40000152588</ele>
        <time>2011-05-08T07:02:23Z</time>
      </trkpt>
      <trkpt lat="44.74133" lon="-0.34772">
        <ele>126.30000305176</ele>
        <time>2011-05-08T07:02:25Z</time>
      </trkpt>
      <trkpt lat="44.74129" lon="-0.34776">
        <ele>126.30000305176</ele>
        <time>2011-05-08T07:02:27Z</time>
      </trkpt>
      <trkpt lat="44.74123" lon="-0.34781">
        <ele>125.59999847412</ele>
        <time>2011-05-08T07:02:29Z</time>
      </trkpt>
      <trkpt lat="44.74119" lon="-0.34786">
        <ele>125.09999847412</ele>
        <time>2011-05-08T07:02:33Z</time>
      </trkpt>
      <trkpt lat="44.74116" lon="-0.3479">
        <ele>125.19999694824</ele>
        <time>2011-05-08T07:02:37Z</time>
      </trkpt>
      <trkpt lat="44.74113" lon="-0.34795">
        <ele>123.90000152588</ele>
        <time>2011-05-08T07:02:41Z</time>
      </trkpt>
      <trkpt lat="44.7411" lon="-0.34801">
        <ele>121.69999694824</ele>
        <time>2011-05-08T07:02:44Z</time>
      </trkpt>
      <trkpt lat="44.74107" lon="-0.34808">
        <ele>121</ele>
        <time>2011-05-08T07:02:50Z</time>
      </trkpt>
      <trkpt lat="44.74106" lon="-0.34815">
        <ele>120.40000152588</ele>
        <time>2011-05-08T07:02:55Z</time>
      </trkpt>
      <trkpt lat="44.741" lon="-0.34818">
        <ele>118.90000152588</ele>
        <time>2011-05-08T07:02:58Z</time>
      </trkpt>
      <trkpt lat="44.74094" lon="-0.34826">
        <ele>120</ele>
        <time>2011-05-08T07:03:00Z</time>
      </trkpt>
      <trkpt lat="44.74089" lon="-0.34834">
        <ele>119.80000305176</ele>
        <time>2011-05-08T07:03:02Z</time>
      </trkpt>
      <trkpt lat="44.74085" lon="-0.34837">
        <ele>119.40000152588</ele>
        <time>2011-05-08T07:03:03Z</time>
      </trkpt>
      <trkpt lat="44.74078" lon="-0.3484">
        <ele>118.59999847412</ele>
        <time>2011-05-08T07:03:04Z</time>
      </trkpt>
      <trkpt lat="44.74072" lon="-0.34842">
        <ele>118.69999694824</ele>
        <time>2011-05-08T07:03:05Z</time>
      </trkpt>
      <trkpt lat="44.74068" lon="-0.34846">
        <ele>118.19999694824</ele>
        <time>2011-05-08T07:03:06Z</time>
      </trkpt>
      <trkpt lat="44.74061" lon="-0.34848">
        <ele>118.59999847412</ele>
        <time>2011-05-08T07:03:07Z</time>
      </trkpt>
      <trkpt lat="44.74054" lon="-0.34852">
        <ele>118.30000305176</ele>
        <time>2011-05-08T07:03:08Z</time>
      </trkpt>
      <trkpt lat="44.74045" lon="-0.34855">
        <ele>118.5</ele>
        <time>2011-05-08T07:03:09Z</time>
      </trkpt>
      <trkpt lat="44.74038" lon="-0.34859">
        <ele>118.30000305176</ele>
        <time>2011-05-08T07:03:10Z</time>
      </trkpt>
      <trkpt lat="44.74031" lon="-0.34862">
        <ele>117.90000152588</ele>
        <time>2011-05-08T07:03:11Z</time>
      </trkpt>
      <trkpt lat="44.74024" lon="-0.34867">
        <ele>117.80000305176</ele>
        <time>2011-05-08T07:03:12Z</time>
      </trkpt>
      <trkpt lat="44.74017" lon="-0.34869">
        <ele>117.59999847412</ele>
        <time>2011-05-08T07:03:13Z</time>
      </trkpt>
      <trkpt lat="44.74009" lon="-0.3487">
        <ele>117.59999847412</ele>
        <time>2011-05-08T07:03:14Z</time>
      </trkpt>
      <trkpt lat="44.74002" lon="-0.34871">
        <ele>117.90000152588</ele>
        <time>2011-05-08T07:03:15Z</time>
      </trkpt>
      <trkpt lat="44.73996" lon="-0.34874">
        <ele>118.19999694824</ele>
        <time>2011-05-08T07:03:16Z</time>
      </trkpt>
      <trkpt lat="44.7399" lon="-0.34875">
        <ele>117.80000305176</ele>
        <time>2011-05-08T07:03:17Z</time>
      </trkpt>
      <trkpt lat="44.73984" lon="-0.34877">
        <ele>117.40000152588</ele>
        <time>2011-05-08T07:03:18Z</time>
      </trkpt>
      <trkpt lat="44.73978" lon="-0.34879">
        <ele>117.09999847412</ele>
        <time>2011-05-08T07:03:19Z</time>
      </trkpt>
      <trkpt lat="44.73971" lon="-0.34881">
        <ele>117.09999847412</ele>
        <time>2011-05-08T07:03:20Z</time>
      </trkpt>
      <trkpt lat="44.73967" lon="-0.34884">
        <ele>116.80000305176</ele>
        <time>2011-05-08T07:03:21Z</time>
      </trkpt>
      <trkpt lat="44.73962" lon="-0.34888">
        <ele>116</ele>
        <time>2011-05-08T07:03:23Z</time>
      </trkpt>
      <trkpt lat="44.73961" lon="-0.34894">
        <ele>113.19999694824</ele>
        <time>2011-05-08T07:03:26Z</time>
      </trkpt>
      <trkpt lat="44.73961" lon="-0.349">
        <ele>112.09999847412</ele>
        <time>2011-05-08T07:03:28Z</time>
      </trkpt>
      <trkpt lat="44.73961" lon="-0.34908">
        <ele>112.09999847412</ele>
        <time>2011-05-08T07:03:30Z</time>
      </trkpt>
      <trkpt lat="44.73963" lon="-0.34916">
        <ele>112.19999694824</ele>
        <time>2011-05-08T07:03:32Z</time>
      </trkpt>
      <trkpt lat="44.7396" lon="-0.34924">
        <ele>111.69999694824</ele>
        <time>2011-05-08T07:03:36Z</time>
      </trkpt>
      <trkpt lat="44.73951" lon="-0.34925">
        <ele>113.30000305176</ele>
        <time>2011-05-08T07:03:40Z</time>
      </trkpt>
      <trkpt lat="44.73945" lon="-0.34927">
        <ele>114.30000305176</ele>
        <time>2011-05-08T07:03:43Z</time>
      </trkpt>
      <trkpt lat="44.73939" lon="-0.34925">
        <ele>115</ele>
        <time>2011-05-08T07:03:47Z</time>
      </trkpt>
      <trkpt lat="44.73934" lon="-0.34924">
        <ele>114.40000152588</ele>
        <time>2011-05-08T07:03:50Z</time>
      </trkpt>
      <trkpt lat="44.7393" lon="-0.34925">
        <ele>114.19999694824</ele>
        <time>2011-05-08T07:03:54Z</time>
      </trkpt>
      <trkpt lat="44.73926" lon="-0.34919">
        <ele>113.19999694824</ele>
        <time>2011-05-08T07:03:59Z</time>
      </trkpt>
      <trkpt lat="44.7392" lon="-0.34913">
        <ele>114.59999847412</ele>
        <time>2011-05-08T07:04:02Z</time>
      </trkpt>
      <trkpt lat="44.73915" lon="-0.34907">
        <ele>115</ele>
        <time>2011-05-08T07:04:05Z</time>
      </trkpt>
      <trkpt lat="44.73911" lon="-0.34901">
        <ele>115.80000305176</ele>
        <time>2011-05-08T07:04:08Z</time>
      </trkpt>
      <trkpt lat="44.73906" lon="-0.34895">
        <ele>118.30000305176</ele>
        <time>2011-05-08T07:04:12Z</time>
      </trkpt>
      <trkpt lat="44.73901" lon="-0.34891">
        <ele>119.09999847412</ele>
        <time>2011-05-08T07:04:14Z</time>
      </trkpt>
      <trkpt lat="44.73897" lon="-0.34886">
        <ele>118.30000305176</ele>
        <time>2011-05-08T07:04:17Z</time>
      </trkpt>
      <trkpt lat="44.73891" lon="-0.34886">
        <ele>116.30000305176</ele>
        <time>2011-05-08T07:04:19Z</time>
      </trkpt>
      <trkpt lat="44.73889" lon="-0.34893">
        <ele>114.80000305176</ele>
        <time>2011-05-08T07:04:27Z</time>
      </trkpt>
      <trkpt lat="44.73889" lon="-0.349">
        <ele>114.19999694824</ele>
        <time>2011-05-08T07:04:31Z</time>
      </trkpt>
      <trkpt lat="44.73888" lon="-0.34908">
        <ele>116.69999694824</ele>
        <time>2011-05-08T07:04:35Z</time>
      </trkpt>
      <trkpt lat="44.73886" lon="-0.34915">
        <ele>115.40000152588</ele>
        <time>2011-05-08T07:04:38Z</time>
      </trkpt>
      <trkpt lat="44.73883" lon="-0.34921">
        <ele>113.80000305176</ele>
        <time>2011-05-08T07:04:41Z</time>
      </trkpt>
      <trkpt lat="44.73878" lon="-0.34922">
        <ele>114.19999694824</ele>
        <time>2011-05-08T07:04:43Z</time>
      </trkpt>
      <trkpt lat="44.73873" lon="-0.34923">
        <ele>113.80000305176</ele>
        <time>2011-05-08T07:04:46Z</time>
      </trkpt>
      <trkpt lat="44.73867" lon="-0.34925">
        <ele>115.30000305176</ele>
        <time>2011-05-08T07:04:49Z</time>
      </trkpt>
      <trkpt lat="44.73862" lon="-0.34926">
        <ele>114.59999847412</ele>
        <time>2011-05-08T07:04:51Z</time>
      </trkpt>
      <trkpt lat="44.73857" lon="-0.34927">
        <ele>114.09999847412</ele>
        <time>2011-05-08T07:04:53Z</time>
      </trkpt>
      <trkpt lat="44.73852" lon="-0.34929">
        <ele>114.80000305176</ele>
        <time>2011-05-08T07:05:00Z</time>
      </trkpt>
      <trkpt lat="44.73846" lon="-0.34931">
        <ele>116.09999847412</ele>
        <time>2011-05-08T07:05:03Z</time>
      </trkpt>
      <trkpt lat="44.73843" lon="-0.34936">
        <ele>116.59999847412</ele>
        <time>2011-05-08T07:05:06Z</time>
      </trkpt>
      <trkpt lat="44.73837" lon="-0.34938">
        <ele>116.19999694824</ele>
        <time>2011-05-08T07:05:08Z</time>
      </trkpt>
      <trkpt lat="44.73831" lon="-0.34938">
        <ele>115.69999694824</ele>
        <time>2011-05-08T07:05:10Z</time>
      </trkpt>
      <trkpt lat="44.73826" lon="-0.34935">
        <ele>114.59999847412</ele>
        <time>2011-05-08T07:05:11Z</time>
      </trkpt>
      <trkpt lat="44.73822" lon="-0.34928">
        <ele>114.59999847412</ele>
        <time>2011-05-08T07:05:13Z</time>
      </trkpt>
      <trkpt lat="44.73817" lon="-0.34922">
        <ele>115</ele>
        <time>2011-05-08T07:05:15Z</time>
      </trkpt>
      <trkpt lat="44.73812" lon="-0.34914">
        <ele>114.5</ele>
        <time>2011-05-08T07:05:17Z</time>
      </trkpt>
      <trkpt lat="44.73809" lon="-0.34904">
        <ele>113.30000305176</ele>
        <time>2011-05-08T07:05:19Z</time>
      </trkpt>
      <trkpt lat="44.73805" lon="-0.34899">
        <ele>111.80000305176</ele>
        <time>2011-05-08T07:05:20Z</time>
      </trkpt>
      <trkpt lat="44.73802" lon="-0.34893">
        <ele>111.80000305176</ele>
        <time>2011-05-08T07:05:22Z</time>
      </trkpt>
      <trkpt lat="44.73798" lon="-0.34884">
        <ele>112.90000152588</ele>
        <time>2011-05-08T07:05:26Z</time>
      </trkpt>
      <trkpt lat="44.73796" lon="-0.34876">
        <ele>113.09999847412</ele>
        <time>2011-05-08T07:05:28Z</time>
      </trkpt>
      <trkpt lat="44.73796" lon="-0.34869">
        <ele>113.19999694824</ele>
        <time>2011-05-08T07:05:30Z</time>
      </trkpt>
      <trkpt lat="44.73795" lon="-0.34862">
        <ele>114.5</ele>
        <time>2011-05-08T07:05:32Z</time>
      </trkpt>
      <trkpt lat="44.73795" lon="-0.34853">
        <ele>115</ele>
        <time>2011-05-08T07:05:35Z</time>
      </trkpt>
      <trkpt lat="44.73794" lon="-0.34846">
        <ele>115.59999847412</ele>
        <time>2011-05-08T07:05:37Z</time>
      </trkpt>
      <trkpt lat="44.73795" lon="-0.3484">
        <ele>116.80000305176</ele>
        <time>2011-05-08T07:05:40Z</time>
      </trkpt>
      <trkpt lat="44.73793" lon="-0.34833">
        <ele>116.90000152588</ele>
        <time>2011-05-08T07:05:43Z</time>
      </trkpt>
      <trkpt lat="44.7379" lon="-0.34827">
        <ele>116.30000305176</ele>
        <time>2011-05-08T07:05:48Z</time>
      </trkpt>
      <trkpt lat="44.73786" lon="-0.34828">
        <ele>116.5</ele>
        <time>2011-05-08T07:05:52Z</time>
      </trkpt>
      <trkpt lat="44.7378" lon="-0.34828">
        <ele>114.5</ele>
        <time>2011-05-08T07:05:57Z</time>
      </trkpt>
      <trkpt lat="44.73772" lon="-0.34831">
        <ele>115.30000305176</ele>
        <time>2011-05-08T07:06:01Z</time>
      </trkpt>
      <trkpt lat="44.73767" lon="-0.34835">
        <ele>115.90000152588</ele>
        <time>2011-05-08T07:06:04Z</time>
      </trkpt>
      <trkpt lat="44.7376" lon="-0.34834">
        <ele>116.5</ele>
        <time>2011-05-08T07:06:07Z</time>
      </trkpt>
      <trkpt lat="44.73753" lon="-0.34836">
        <ele>116.69999694824</ele>
        <time>2011-05-08T07:06:10Z</time>
      </trkpt>
      <trkpt lat="44.73748" lon="-0.34841">
        <ele>116.5</ele>
        <time>2011-05-08T07:06:13Z</time>
      </trkpt>
      <trkpt lat="44.73741" lon="-0.34841">
        <ele>116.5</ele>
        <time>2011-05-08T07:06:15Z</time>
      </trkpt>
      <trkpt lat="44.73734" lon="-0.34843">
        <ele>115.5</ele>
        <time>2011-05-08T07:06:17Z</time>
      </trkpt>
      <trkpt lat="44.7373" lon="-0.34844">
        <ele>115.5</ele>
        <time>2011-05-08T07:06:19Z</time>
      </trkpt>
      <trkpt lat="44.73725" lon="-0.34845">
        <ele>115.19999694824</ele>
        <time>2011-05-08T07:06:22Z</time>
      </trkpt>
      <trkpt lat="44.73718" lon="-0.34851">
        <ele>114.09999847412</ele>
        <time>2011-05-08T07:06:25Z</time>
      </trkpt>
      <trkpt lat="44.73713" lon="-0.34853">
        <ele>113.19999694824</ele>
        <time>2011-05-08T07:06:27Z</time>
      </trkpt>
      <trkpt lat="44.73706" lon="-0.34856">
        <ele>111.09999847412</ele>
        <time>2011-05-08T07:06:29Z</time>
      </trkpt>
      <trkpt lat="44.73701" lon="-0.34858">
        <ele>110.69999694824</ele>
        <time>2011-05-08T07:06:31Z</time>
      </trkpt>
      <trkpt lat="44.73697" lon="-0.34861">
        <ele>109.90000152588</ele>
        <time>2011-05-08T07:06:35Z</time>
      </trkpt>
      <trkpt lat="44.73694" lon="-0.34866">
        <ele>109.80000305176</ele>
        <time>2011-05-08T07:07:04Z</time>
      </trkpt>
      <trkpt lat="44.73691" lon="-0.34872">
        <ele>110.59999847412</ele>
        <time>2011-05-08T07:07:11Z</time>
      </trkpt>
      <trkpt lat="44.73689" lon="-0.3488">
        <ele>110.69999694824</ele>
        <time>2011-05-08T07:07:19Z</time>
      </trkpt>
      <trkpt lat="44.73687" lon="-0.34888">
        <ele>111.09999847412</ele>
        <time>2011-05-08T07:07:21Z</time>
      </trkpt>
      <trkpt lat="44.73686" lon="-0.34899">
        <ele>110.30000305176</ele>
        <time>2011-05-08T07:07:24Z</time>
      </trkpt>
      <trkpt lat="44.73684" lon="-0.34911">
        <ele>109.59999847412</ele>
        <time>2011-05-08T07:07:26Z</time>
      </trkpt>
      <trkpt lat="44.73684" lon="-0.34918">
        <ele>108.69999694824</ele>
        <time>2011-05-08T07:07:27Z</time>
      </trkpt>
      <trkpt lat="44.73683" lon="-0.34925">
        <ele>109.69999694824</ele>
        <time>2011-05-08T07:07:29Z</time>
      </trkpt>
      <trkpt lat="44.73683" lon="-0.34932">
        <ele>110.5</ele>
        <time>2011-05-08T07:07:31Z</time>
      </trkpt>
      <trkpt lat="44.73681" lon="-0.34939">
        <ele>110</ele>
        <time>2011-05-08T07:07:33Z</time>
      </trkpt>
      <trkpt lat="44.73683" lon="-0.34947">
        <ele>107.90000152588</ele>
        <time>2011-05-08T07:07:34Z</time>
      </trkpt>
      <trkpt lat="44.73683" lon="-0.34955">
        <ele>108.5</ele>
        <time>2011-05-08T07:07:36Z</time>
      </trkpt>
      <trkpt lat="44.73682" lon="-0.34963">
        <ele>109.09999847412</ele>
        <time>2011-05-08T07:07:38Z</time>
      </trkpt>
      <trkpt lat="44.73677" lon="-0.34972">
        <ele>109.30000305176</ele>
        <time>2011-05-08T07:07:41Z</time>
      </trkpt>
      <trkpt lat="44.73674" lon="-0.34979">
        <ele>111</ele>
        <time>2011-05-08T07:07:44Z</time>
      </trkpt>
      <trkpt lat="44.73671" lon="-0.34985">
        <ele>110.80000305176</ele>
        <time>2011-05-08T07:07:46Z</time>
      </trkpt>
      <trkpt lat="44.73666" lon="-0.34986">
        <ele>113.19999694824</ele>
        <time>2011-05-08T07:07:49Z</time>
      </trkpt>
      <trkpt lat="44.73662" lon="-0.3499">
        <ele>114.90000152588</ele>
        <time>2011-05-08T07:07:52Z</time>
      </trkpt>
      <trkpt lat="44.73658" lon="-0.34995">
        <ele>115.40000152588</ele>
        <time>2011-05-08T07:07:54Z</time>
      </trkpt>
      <trkpt lat="44.73654" lon="-0.35001">
        <ele>115.30000305176</ele>
        <time>2011-05-08T07:07:56Z</time>
      </trkpt>
      <trkpt lat="44.7365" lon="-0.35008">
        <ele>115.90000152588</ele>
        <time>2011-05-08T07:07:58Z</time>
      </trkpt>
      <trkpt lat="44.73645" lon="-0.35011">
        <ele>115.59999847412</ele>
        <time>2011-05-08T07:07:59Z</time>
      </trkpt>
      <trkpt lat="44.7364" lon="-0.35018">
        <ele>117.09999847412</ele>
        <time>2011-05-08T07:08:01Z</time>
      </trkpt>
      <trkpt lat="44.73638" lon="-0.35024">
        <ele>117.19999694824</ele>
        <time>2011-05-08T07:08:03Z</time>
      </trkpt>
      <trkpt lat="44.73635" lon="-0.35031">
        <ele>118.5</ele>
        <time>2011-05-08T07:08:05Z</time>
      </trkpt>
      <trkpt lat="44.7363" lon="-0.35039">
        <ele>117.30000305176</ele>
        <time>2011-05-08T07:08:08Z</time>
      </trkpt>
      <trkpt lat="44.73626" lon="-0.35045">
        <ele>118</ele>
        <time>2011-05-08T07:08:12Z</time>
      </trkpt>
      <trkpt lat="44.73623" lon="-0.3505">
        <ele>120.40000152588</ele>
        <time>2011-05-08T07:08:15Z</time>
      </trkpt>
      <trkpt lat="44.7362" lon="-0.35055">
        <ele>120.5</ele>
        <time>2011-05-08T07:08:25Z</time>
      </trkpt>
      <trkpt lat="44.73619" lon="-0.35063">
        <ele>123.5</ele>
        <time>2011-05-08T07:08:31Z</time>
      </trkpt>
      <trkpt lat="44.73616" lon="-0.3507">
        <ele>125.09999847412</ele>
        <time>2011-05-08T07:08:37Z</time>
      </trkpt>
      <trkpt lat="44.73615" lon="-0.35076">
        <ele>124.30000305176</ele>
        <time>2011-05-08T07:08:44Z</time>
      </trkpt>
      <trkpt lat="44.73612" lon="-0.35082">
        <ele>124.80000305176</ele>
        <time>2011-05-08T07:08:47Z</time>
      </trkpt>
      <trkpt lat="44.73607" lon="-0.35082">
        <ele>125.59999847412</ele>
        <time>2011-05-08T07:08:52Z</time>
      </trkpt>
      <trkpt lat="44.73602" lon="-0.35084">
        <ele>127</ele>
        <time>2011-05-08T07:08:56Z</time>
      </trkpt>
      <trkpt lat="44.73598" lon="-0.35088">
        <ele>128.30000305176</ele>
        <time>2011-05-08T07:09:00Z</time>
      </trkpt>
      <trkpt lat="44.73594" lon="-0.35091">
        <ele>128.80000305176</ele>
        <time>2011-05-08T07:09:03Z</time>
      </trkpt>
      <trkpt lat="44.73591" lon="-0.35097">
        <ele>129.80000305176</ele>
        <time>2011-05-08T07:09:08Z</time>
      </trkpt>
      <trkpt lat="44.73591" lon="-0.35104">
        <ele>127.69999694824</ele>
        <time>2011-05-08T07:09:13Z</time>
      </trkpt>
      <trkpt lat="44.73588" lon="-0.3511">
        <ele>126.40000152588</ele>
        <time>2011-05-08T07:09:22Z</time>
      </trkpt>
      <trkpt lat="44.73593" lon="-0.35115">
        <ele>126.80000305176</ele>
        <time>2011-05-08T07:09:47Z</time>
      </trkpt>
      <trkpt lat="44.73594" lon="-0.35122">
        <ele>128.39999389648</ele>
        <time>2011-05-08T07:09:49Z</time>
      </trkpt>
      <trkpt lat="44.736" lon="-0.35128">
        <ele>130.69999694824</ele>
        <time>2011-05-08T07:09:51Z</time>
      </trkpt>
      <trkpt lat="44.73605" lon="-0.35133">
        <ele>132.10000610352</ele>
        <time>2011-05-08T07:09:53Z</time>
      </trkpt>
      <trkpt lat="44.73609" lon="-0.35138">
        <ele>133.69999694824</ele>
        <time>2011-05-08T07:09:55Z</time>
      </trkpt>
      <trkpt lat="44.73612" lon="-0.35143">
        <ele>135.39999389648</ele>
        <time>2011-05-08T07:10:01Z</time>
      </trkpt>
      <trkpt lat="44.73615" lon="-0.35148">
        <ele>135.80000305176</ele>
        <time>2011-05-08T07:10:05Z</time>
      </trkpt>
      <trkpt lat="44.73617" lon="-0.35157">
        <ele>134.5</ele>
        <time>2011-05-08T07:10:08Z</time>
      </trkpt>
      <trkpt lat="44.7362" lon="-0.35163">
        <ele>135.39999389648</ele>
        <time>2011-05-08T07:10:12Z</time>
      </trkpt>
      <trkpt lat="44.73621" lon="-0.3517">
        <ele>134.19999694824</ele>
        <time>2011-05-08T07:10:14Z</time>
      </trkpt>
      <trkpt lat="44.73625" lon="-0.35175">
        <ele>135.30000305176</ele>
        <time>2011-05-08T07:10:16Z</time>
      </trkpt>
      <trkpt lat="44.73626" lon="-0.35183">
        <ele>135.89999389648</ele>
        <time>2011-05-08T07:10:19Z</time>
      </trkpt>
      <trkpt lat="44.73629" lon="-0.35188">
        <ele>137.5</ele>
        <time>2011-05-08T07:10:23Z</time>
      </trkpt>
      <trkpt lat="44.73629" lon="-0.35194">
        <ele>135.89999389648</ele>
        <time>2011-05-08T07:10:27Z</time>
      </trkpt>
      <trkpt lat="44.73632" lon="-0.35202">
        <ele>136.5</ele>
        <time>2011-05-08T07:10:31Z</time>
      </trkpt>
      <trkpt lat="44.73634" lon="-0.35209">
        <ele>134.60000610352</ele>
        <time>2011-05-08T07:10:33Z</time>
      </trkpt>
      <trkpt lat="44.73636" lon="-0.35217">
        <ele>133.30000305176</ele>
        <time>2011-05-08T07:10:35Z</time>
      </trkpt>
      <trkpt lat="44.73637" lon="-0.35225">
        <ele>132.30000305176</ele>
        <time>2011-05-08T07:10:39Z</time>
      </trkpt>
      <trkpt lat="44.73634" lon="-0.3523">
        <ele>132.5</ele>
        <time>2011-05-08T07:10:41Z</time>
      </trkpt>
      <trkpt lat="44.73634" lon="-0.35238">
        <ele>132.30000305176</ele>
        <time>2011-05-08T07:10:45Z</time>
      </trkpt>
      <trkpt lat="44.73637" lon="-0.35244">
        <ele>134.10000610352</ele>
        <time>2011-05-08T07:10:50Z</time>
      </trkpt>
      <trkpt lat="44.7364" lon="-0.35254">
        <ele>135.89999389648</ele>
        <time>2011-05-08T07:10:54Z</time>
      </trkpt>
      <trkpt lat="44.73638" lon="-0.35262">
        <ele>135</ele>
        <time>2011-05-08T07:10:57Z</time>
      </trkpt>
      <trkpt lat="44.73632" lon="-0.35268">
        <ele>135.60000610352</ele>
        <time>2011-05-08T07:11:00Z</time>
      </trkpt>
      <trkpt lat="44.73627" lon="-0.3527">
        <ele>136</ele>
        <time>2011-05-08T07:11:03Z</time>
      </trkpt>
      <trkpt lat="44.73622" lon="-0.35266">
        <ele>137</ele>
        <time>2011-05-08T07:11:06Z</time>
      </trkpt>
      <trkpt lat="44.73617" lon="-0.35262">
        <ele>137</ele>
        <time>2011-05-08T07:11:07Z</time>
      </trkpt>
      <trkpt lat="44.73611" lon="-0.35252">
        <ele>138.10000610352</ele>
        <time>2011-05-08T07:11:09Z</time>
      </trkpt>
      <trkpt lat="44.73606" lon="-0.35245">
        <ele>137.60000610352</ele>
        <time>2011-05-08T07:11:11Z</time>
      </trkpt>
      <trkpt lat="44.73604" lon="-0.35238">
        <ele>138.5</ele>
        <time>2011-05-08T07:11:13Z</time>
      </trkpt>
      <trkpt lat="44.736" lon="-0.35233">
        <ele>139</ele>
        <time>2011-05-08T07:11:15Z</time>
      </trkpt>
      <trkpt lat="44.73597" lon="-0.35224">
        <ele>139.30000305176</ele>
        <time>2011-05-08T07:11:17Z</time>
      </trkpt>
      <trkpt lat="44.73596" lon="-0.35216">
        <ele>140.19999694824</ele>
        <time>2011-05-08T07:11:19Z</time>
      </trkpt>
      <trkpt lat="44.73592" lon="-0.35205">
        <ele>138.69999694824</ele>
        <time>2011-05-08T07:11:21Z</time>
      </trkpt>
      <trkpt lat="44.7359" lon="-0.35196">
        <ele>139</ele>
        <time>2011-05-08T07:11:23Z</time>
      </trkpt>
      <trkpt lat="44.73587" lon="-0.35187">
        <ele>139.5</ele>
        <time>2011-05-08T07:11:25Z</time>
      </trkpt>
      <trkpt lat="44.73584" lon="-0.35179">
        <ele>139</ele>
        <time>2011-05-08T07:11:27Z</time>
      </trkpt>
      <trkpt lat="44.73581" lon="-0.35171">
        <ele>138.80000305176</ele>
        <time>2011-05-08T07:11:29Z</time>
      </trkpt>
      <trkpt lat="44.73578" lon="-0.3516">
        <ele>138.30000305176</ele>
        <time>2011-05-08T07:11:31Z</time>
      </trkpt>
      <trkpt lat="44.73577" lon="-0.35151">
        <ele>138.19999694824</ele>
        <time>2011-05-08T07:11:34Z</time>
      </trkpt>
      <trkpt lat="44.73577" lon="-0.35142">
        <ele>137.69999694824</ele>
        <time>2011-05-08T07:11:36Z</time>
      </trkpt>
      <trkpt lat="44.73574" lon="-0.35131">
        <ele>133.10000610352</ele>
        <time>2011-05-08T07:11:38Z</time>
      </trkpt>
      <trkpt lat="44.73573" lon="-0.35116">
        <ele>131.5</ele>
        <time>2011-05-08T07:11:41Z</time>
      </trkpt>
      <trkpt lat="44.73574" lon="-0.35108">
        <ele>131.89999389648</ele>
        <time>2011-05-08T07:11:43Z</time>
      </trkpt>
      <trkpt lat="44.73576" lon="-0.351">
        <ele>131.60000610352</ele>
        <time>2011-05-08T07:11:45Z</time>
      </trkpt>
      <trkpt lat="44.73575" lon="-0.35094">
        <ele>131.80000305176</ele>
        <time>2011-05-08T07:11:47Z</time>
      </trkpt>
      <trkpt lat="44.73574" lon="-0.35086">
        <ele>131.80000305176</ele>
        <time>2011-05-08T07:11:49Z</time>
      </trkpt>
      <trkpt lat="44.73576" lon="-0.35078">
        <ele>131.30000305176</ele>
        <time>2011-05-08T07:11:51Z</time>
      </trkpt>
      <trkpt lat="44.73577" lon="-0.3507">
        <ele>130.89999389648</ele>
        <time>2011-05-08T07:11:55Z</time>
      </trkpt>
      <trkpt lat="44.7358" lon="-0.35062">
        <ele>131</ele>
        <time>2011-05-08T07:11:59Z</time>
      </trkpt>
      <trkpt lat="44.73586" lon="-0.35057">
        <ele>129.80000305176</ele>
        <time>2011-05-08T07:12:01Z</time>
      </trkpt>
      <trkpt lat="44.7359" lon="-0.35054">
        <ele>129.80000305176</ele>
        <time>2011-05-08T07:12:02Z</time>
      </trkpt>
      <trkpt lat="44.73596" lon="-0.35049">
        <ele>126.80000305176</ele>
        <time>2011-05-08T07:12:04Z</time>
      </trkpt>
      <trkpt lat="44.73599" lon="-0.35042">
        <ele>127.69999694824</ele>
        <time>2011-05-08T07:12:07Z</time>
      </trkpt>
      <trkpt lat="44.73607" lon="-0.35038">
        <ele>127.30000305176</ele>
        <time>2011-05-08T07:12:09Z</time>
      </trkpt>
      <trkpt lat="44.7361" lon="-0.35033">
        <ele>126.90000152588</ele>
        <time>2011-05-08T07:12:10Z</time>
      </trkpt>
      <trkpt lat="44.73604" lon="-0.3503">
        <ele>126.90000152588</ele>
        <time>2011-05-08T07:12:14Z</time>
      </trkpt>
      <trkpt lat="44.73599" lon="-0.35027">
        <ele>126.19999694824</ele>
        <time>2011-05-08T07:12:17Z</time>
      </trkpt>
      <trkpt lat="44.73594" lon="-0.35025">
        <ele>125.59999847412</ele>
        <time>2011-05-08T07:12:20Z</time>
      </trkpt>
      <trkpt lat="44.73589" lon="-0.35023">
        <ele>125.40000152588</ele>
        <time>2011-05-08T07:12:23Z</time>
      </trkpt>
      <trkpt lat="44.73584" lon="-0.35022">
        <ele>124.59999847412</ele>
        <time>2011-05-08T07:12:25Z</time>
      </trkpt>
      <trkpt lat="44.73579" lon="-0.35023">
        <ele>124.59999847412</ele>
        <time>2011-05-08T07:12:28Z</time>
      </trkpt>
      <trkpt lat="44.73574" lon="-0.35025">
        <ele>122.90000152588</ele>
        <time>2011-05-08T07:12:31Z</time>
      </trkpt>
      <trkpt lat="44.7357" lon="-0.35024">
        <ele>122.40000152588</ele>
        <time>2011-05-08T07:12:33Z</time>
      </trkpt>
      <trkpt lat="44.73564" lon="-0.35024">
        <ele>121.80000305176</ele>
        <time>2011-05-08T07:12:38Z</time>
      </trkpt>
      <trkpt lat="44.73559" lon="-0.35022">
        <ele>121.40000152588</ele>
        <time>2011-05-08T07:12:41Z</time>
      </trkpt>
      <trkpt lat="44.73554" lon="-0.35024">
        <ele>120.80000305176</ele>
        <time>2011-05-08T07:12:43Z</time>
      </trkpt>
      <trkpt lat="44.7355" lon="-0.35026">
        <ele>120.59999847412</ele>
        <time>2011-05-08T07:12:45Z</time>
      </trkpt>
      <trkpt lat="44.73544" lon="-0.35026">
        <ele>117.90000152588</ele>
        <time>2011-05-08T07:12:48Z</time>
      </trkpt>
      <trkpt lat="44.73538" lon="-0.35026">
        <ele>117.30000305176</ele>
        <time>2011-05-08T07:12:52Z</time>
      </trkpt>
      <trkpt lat="44.73532" lon="-0.35027">
        <ele>117.30000305176</ele>
        <time>2011-05-08T07:12:54Z</time>
      </trkpt>
      <trkpt lat="44.73528" lon="-0.35028">
        <ele>118.80000305176</ele>
        <time>2011-05-08T07:12:59Z</time>
      </trkpt>
      <trkpt lat="44.73522" lon="-0.35027">
        <ele>118.30000305176</ele>
        <time>2011-05-08T07:13:07Z</time>
      </trkpt>
      <trkpt lat="44.73516" lon="-0.35027">
        <ele>119.90000152588</ele>
        <time>2011-05-08T07:13:10Z</time>
      </trkpt>
      <trkpt lat="44.7351" lon="-0.35025">
        <ele>121.30000305176</ele>
        <time>2011-05-08T07:13:22Z</time>
      </trkpt>
      <trkpt lat="44.73507" lon="-0.35019">
        <ele>120.59999847412</ele>
        <time>2011-05-08T07:13:26Z</time>
      </trkpt>
      <trkpt lat="44.73502" lon="-0.35011">
        <ele>121.59999847412</ele>
        <time>2011-05-08T07:13:28Z</time>
      </trkpt>
      <trkpt lat="44.73499" lon="-0.35004">
        <ele>121.5</ele>
        <time>2011-05-08T07:13:30Z</time>
      </trkpt>
      <trkpt lat="44.735" lon="-0.34997">
        <ele>119.90000152588</ele>
        <time>2011-05-08T07:13:33Z</time>
      </trkpt>
      <trkpt lat="44.73503" lon="-0.34991">
        <ele>118.09999847412</ele>
        <time>2011-05-08T07:13:37Z</time>
      </trkpt>
      <trkpt lat="44.73508" lon="-0.34982">
        <ele>120.5</ele>
        <time>2011-05-08T07:13:41Z</time>
      </trkpt>
      <trkpt lat="44.73512" lon="-0.34978">
        <ele>119.80000305176</ele>
        <time>2011-05-08T07:13:44Z</time>
      </trkpt>
      <trkpt lat="44.73517" lon="-0.34975">
        <ele>119.5</ele>
        <time>2011-05-08T07:13:47Z</time>
      </trkpt>
      <trkpt lat="44.73523" lon="-0.3497">
        <ele>119</ele>
        <time>2011-05-08T07:13:50Z</time>
      </trkpt>
      <trkpt lat="44.73528" lon="-0.3497">
        <ele>117.19999694824</ele>
        <time>2011-05-08T07:13:52Z</time>
      </trkpt>
      <trkpt lat="44.73522" lon="-0.34971">
        <ele>118.69999694824</ele>
        <time>2011-05-08T07:14:59Z</time>
      </trkpt>
      <trkpt lat="44.73516" lon="-0.34972">
        <ele>117.30000305176</ele>
        <time>2011-05-08T07:15:02Z</time>
      </trkpt>
      <trkpt lat="44.73511" lon="-0.34971">
        <ele>115.40000152588</ele>
        <time>2011-05-08T07:15:04Z</time>
      </trkpt>
      <trkpt lat="44.73505" lon="-0.3497">
        <ele>114.5</ele>
        <time>2011-05-08T07:15:07Z</time>
      </trkpt>
      <trkpt lat="44.73498" lon="-0.3497">
        <ele>115.5</ele>
        <time>2011-05-08T07:15:12Z</time>
      </trkpt>
      <trkpt lat="44.73494" lon="-0.34967">
        <ele>116.30000305176</ele>
        <time>2011-05-08T07:15:15Z</time>
      </trkpt>
      <trkpt lat="44.73488" lon="-0.34967">
        <ele>119.5</ele>
        <time>2011-05-08T07:15:20Z</time>
      </trkpt>
      <trkpt lat="44.73481" lon="-0.34963">
        <ele>119.19999694824</ele>
        <time>2011-05-08T07:15:22Z</time>
      </trkpt>
      <trkpt lat="44.73477" lon="-0.3496">
        <ele>118.30000305176</ele>
        <time>2011-05-08T07:15:24Z</time>
      </trkpt>
      <trkpt lat="44.73472" lon="-0.34957">
        <ele>118</ele>
        <time>2011-05-08T07:15:26Z</time>
      </trkpt>
      <trkpt lat="44.73468" lon="-0.34955">
        <ele>117.90000152588</ele>
        <time>2011-05-08T07:15:28Z</time>
      </trkpt>
      <trkpt lat="44.73462" lon="-0.34952">
        <ele>117.30000305176</ele>
        <time>2011-05-08T07:15:32Z</time>
      </trkpt>
      <trkpt lat="44.73455" lon="-0.34951">
        <ele>118.69999694824</ele>
        <time>2011-05-08T07:15:35Z</time>
      </trkpt>
      <trkpt lat="44.73449" lon="-0.34951">
        <ele>118.30000305176</ele>
        <time>2011-05-08T07:15:37Z</time>
      </trkpt>
      <trkpt lat="44.73439" lon="-0.34949">
        <ele>118.59999847412</ele>
        <time>2011-05-08T07:15:41Z</time>
      </trkpt>
      <trkpt lat="44.73434" lon="-0.34949">
        <ele>117.80000305176</ele>
        <time>2011-05-08T07:15:43Z</time>
      </trkpt>
      <trkpt lat="44.73426" lon="-0.34947">
        <ele>117.90000152588</ele>
        <time>2011-05-08T07:15:45Z</time>
      </trkpt>
      <trkpt lat="44.7342" lon="-0.34946">
        <ele>118.30000305176</ele>
        <time>2011-05-08T07:15:47Z</time>
      </trkpt>
      <trkpt lat="44.73412" lon="-0.34947">
        <ele>118.5</ele>
        <time>2011-05-08T07:15:49Z</time>
      </trkpt>
      <trkpt lat="44.73404" lon="-0.34949">
        <ele>116.69999694824</ele>
        <time>2011-05-08T07:15:51Z</time>
      </trkpt>
      <trkpt lat="44.73399" lon="-0.34951">
        <ele>116.09999847412</ele>
        <time>2011-05-08T07:15:53Z</time>
      </trkpt>
      <trkpt lat="44.73388" lon="-0.34953">
        <ele>114.09999847412</ele>
        <time>2011-05-08T07:15:55Z</time>
      </trkpt>
      <trkpt lat="44.73381" lon="-0.34953">
        <ele>114</ele>
        <time>2011-05-08T07:15:57Z</time>
      </trkpt>
      <trkpt lat="44.73373" lon="-0.34949">
        <ele>111.69999694824</ele>
        <time>2011-05-08T07:15:59Z</time>
      </trkpt>
      <trkpt lat="44.73369" lon="-0.34944">
        <ele>110.19999694824</ele>
        <time>2011-05-08T07:16:02Z</time>
      </trkpt>
      <trkpt lat="44.73365" lon="-0.3494">
        <ele>110.69999694824</ele>
        <time>2011-05-08T07:16:04Z</time>
      </trkpt>
      <trkpt lat="44.7336" lon="-0.34936">
        <ele>112</ele>
        <time>2011-05-08T07:16:07Z</time>
      </trkpt>
      <trkpt lat="44.73357" lon="-0.34932">
        <ele>113</ele>
        <time>2011-05-08T07:16:09Z</time>
      </trkpt>
      <trkpt lat="44.73354" lon="-0.34925">
        <ele>114.30000305176</ele>
        <time>2011-05-08T07:16:11Z</time>
      </trkpt>
      <trkpt lat="44.73355" lon="-0.34918">
        <ele>114.59999847412</ele>
        <time>2011-05-08T07:16:13Z</time>
      </trkpt>
      <trkpt lat="44.73352" lon="-0.34912">
        <ele>115.59999847412</ele>
        <time>2011-05-08T07:16:15Z</time>
      </trkpt>
      <trkpt lat="44.7335" lon="-0.34905">
        <ele>114.5</ele>
        <time>2011-05-08T07:16:17Z</time>
      </trkpt>
      <trkpt lat="44.73349" lon="-0.34898">
        <ele>114.30000305176</ele>
        <time>2011-05-08T07:16:20Z</time>
      </trkpt>
      <trkpt lat="44.73348" lon="-0.3489">
        <ele>115</ele>
        <time>2011-05-08T07:16:23Z</time>
      </trkpt>
      <trkpt lat="44.73344" lon="-0.34894">
        <ele>115.30000305176</ele>
        <time>2011-05-08T07:16:27Z</time>
      </trkpt>
      <trkpt lat="44.73338" lon="-0.34902">
        <ele>114.40000152588</ele>
        <time>2011-05-08T07:16:30Z</time>
      </trkpt>
      <trkpt lat="44.73333" lon="-0.34902">
        <ele>114.90000152588</ele>
        <time>2011-05-08T07:16:32Z</time>
      </trkpt>
      <trkpt lat="44.73327" lon="-0.34903">
        <ele>114.30000305176</ele>
        <time>2011-05-08T07:16:36Z</time>
      </trkpt>
      <trkpt lat="44.73322" lon="-0.34907">
        <ele>113.69999694824</ele>
        <time>2011-05-08T07:16:38Z</time>
      </trkpt>
      <trkpt lat="44.73314" lon="-0.34918">
        <ele>114.19999694824</ele>
        <time>2011-05-08T07:16:41Z</time>
      </trkpt>
      <trkpt lat="44.73308" lon="-0.34924">
        <ele>115.40000152588</ele>
        <time>2011-05-08T07:16:43Z</time>
      </trkpt>
      <trkpt lat="44.73303" lon="-0.34927">
        <ele>115.19999694824</ele>
        <time>2011-05-08T07:16:45Z</time>
      </trkpt>
      <trkpt lat="44.73297" lon="-0.34926">
        <ele>114.30000305176</ele>
        <time>2011-05-08T07:16:48Z</time>
      </trkpt>
      <trkpt lat="44.73291" lon="-0.34929">
        <ele>114.40000152588</ele>
        <time>2011-05-08T07:16:50Z</time>
      </trkpt>
      <trkpt lat="44.73285" lon="-0.34931">
        <ele>115.80000305176</ele>
        <time>2011-05-08T07:16:53Z</time>
      </trkpt>
      <trkpt lat="44.73277" lon="-0.34929">
        <ele>116.80000305176</ele>
        <time>2011-05-08T07:16:56Z</time>
      </trkpt>
      <trkpt lat="44.73271" lon="-0.34926">
        <ele>117.30000305176</ele>
        <time>2011-05-08T07:16:59Z</time>
      </trkpt>
      <trkpt lat="44.73264" lon="-0.34926">
        <ele>117.40000152588</ele>
        <time>2011-05-08T07:17:01Z</time>
      </trkpt>
      <trkpt lat="44.73259" lon="-0.34925">
        <ele>116.80000305176</ele>
        <time>2011-05-08T07:17:02Z</time>
      </trkpt>
      <trkpt lat="44.73253" lon="-0.34923">
        <ele>116.80000305176</ele>
        <time>2011-05-08T07:17:04Z</time>
      </trkpt>
      <trkpt lat="44.7325" lon="-0.34917">
        <ele>117.40000152588</ele>
        <time>2011-05-08T07:17:06Z</time>
      </trkpt>
      <trkpt lat="44.73245" lon="-0.34913">
        <ele>118.30000305176</ele>
        <time>2011-05-08T07:17:08Z</time>
      </trkpt>
      <trkpt lat="44.73241" lon="-0.34908">
        <ele>118.69999694824</ele>
        <time>2011-05-08T07:17:11Z</time>
      </trkpt>
      <trkpt lat="44.73238" lon="-0.349">
        <ele>117.59999847412</ele>
        <time>2011-05-08T07:17:14Z</time>
      </trkpt>
      <trkpt lat="44.73234" lon="-0.34893">
        <ele>114</ele>
        <time>2011-05-08T07:17:16Z</time>
      </trkpt>
      <trkpt lat="44.7323" lon="-0.34886">
        <ele>112.40000152588</ele>
        <time>2011-05-08T07:17:18Z</time>
      </trkpt>
      <trkpt lat="44.73225" lon="-0.34882">
        <ele>113.19999694824</ele>
        <time>2011-05-08T07:17:22Z</time>
      </trkpt>
      <trkpt lat="44.73221" lon="-0.3488">
        <ele>113.5</ele>
        <time>2011-05-08T07:17:25Z</time>
      </trkpt>
      <trkpt lat="44.73214" lon="-0.34878">
        <ele>110.90000152588</ele>
        <time>2011-05-08T07:17:29Z</time>
      </trkpt>
      <trkpt lat="44.73208" lon="-0.34877">
        <ele>111.69999694824</ele>
        <time>2011-05-08T07:17:32Z</time>
      </trkpt>
      <trkpt lat="44.732" lon="-0.3488">
        <ele>110.30000305176</ele>
        <time>2011-05-08T07:17:34Z</time>
      </trkpt>
      <trkpt lat="44.73193" lon="-0.34883">
        <ele>108.30000305176</ele>
        <time>2011-05-08T07:17:36Z</time>
      </trkpt>
      <trkpt lat="44.73185" lon="-0.34883">
        <ele>106.80000305176</ele>
        <time>2011-05-08T07:17:38Z</time>
      </trkpt>
      <trkpt lat="44.73175" lon="-0.3488">
        <ele>106.09999847412</ele>
        <time>2011-05-08T07:17:41Z</time>
      </trkpt>
      <trkpt lat="44.7317" lon="-0.34875">
        <ele>106.30000305176</ele>
        <time>2011-05-08T07:17:42Z</time>
      </trkpt>
      <trkpt lat="44.73164" lon="-0.34874">
        <ele>106.30000305176</ele>
        <time>2011-05-08T07:17:44Z</time>
      </trkpt>
      <trkpt lat="44.73159" lon="-0.34873">
        <ele>106.69999694824</ele>
        <time>2011-05-08T07:17:46Z</time>
      </trkpt>
      <trkpt lat="44.73154" lon="-0.3487">
        <ele>106.90000152588</ele>
        <time>2011-05-08T07:17:49Z</time>
      </trkpt>
      <trkpt lat="44.73147" lon="-0.34867">
        <ele>107.09999847412</ele>
        <time>2011-05-08T07:17:51Z</time>
      </trkpt>
      <trkpt lat="44.73143" lon="-0.34861">
        <ele>107.19999694824</ele>
        <time>2011-05-08T07:17:54Z</time>
      </trkpt>
      <trkpt lat="44.7314" lon="-0.34855">
        <ele>106.30000305176</ele>
        <time>2011-05-08T07:17:56Z</time>
      </trkpt>
      <trkpt lat="44.73137" lon="-0.34849">
        <ele>104.69999694824</ele>
        <time>2011-05-08T07:17:59Z</time>
      </trkpt>
      <trkpt lat="44.73135" lon="-0.34841">
        <ele>103.59999847412</ele>
        <time>2011-05-08T07:18:03Z</time>
      </trkpt>
      <trkpt lat="44.73133" lon="-0.34835">
        <ele>102.59999847412</ele>
        <time>2011-05-08T07:18:05Z</time>
      </trkpt>
      <trkpt lat="44.73132" lon="-0.34828">
        <ele>103.90000152588</ele>
        <time>2011-05-08T07:18:08Z</time>
      </trkpt>
      <trkpt lat="44.73135" lon="-0.34821">
        <ele>103</ele>
        <time>2011-05-08T07:18:11Z</time>
      </trkpt>
      <trkpt lat="44.73139" lon="-0.34816">
        <ele>103.5</ele>
        <time>2011-05-08T07:18:13Z</time>
      </trkpt>
      <trkpt lat="44.73142" lon="-0.3481">
        <ele>104.19999694824</ele>
        <time>2011-05-08T07:18:15Z</time>
      </trkpt>
      <trkpt lat="44.73144" lon="-0.34803">
        <ele>103.5</ele>
        <time>2011-05-08T07:18:17Z</time>
      </trkpt>
      <trkpt lat="44.73148" lon="-0.34797">
        <ele>103.5</ele>
        <time>2011-05-08T07:18:19Z</time>
      </trkpt>
      <trkpt lat="44.73147" lon="-0.34788">
        <ele>105.5</ele>
        <time>2011-05-08T07:18:22Z</time>
      </trkpt>
      <trkpt lat="44.73146" lon="-0.34778">
        <ele>105.80000305176</ele>
        <time>2011-05-08T07:18:24Z</time>
      </trkpt>
      <trkpt lat="44.73145" lon="-0.34767">
        <ele>106</ele>
        <time>2011-05-08T07:18:26Z</time>
      </trkpt>
      <trkpt lat="44.73146" lon="-0.34755">
        <ele>105.80000305176</ele>
        <time>2011-05-08T07:18:28Z</time>
      </trkpt>
      <trkpt lat="44.73146" lon="-0.34743">
        <ele>106.09999847412</ele>
        <time>2011-05-08T07:18:30Z</time>
      </trkpt>
      <trkpt lat="44.73146" lon="-0.34731">
        <ele>105.30000305176</ele>
        <time>2011-05-08T07:18:32Z</time>
      </trkpt>
      <trkpt lat="44.73148" lon="-0.3472">
        <ele>106.5</ele>
        <time>2011-05-08T07:18:34Z</time>
      </trkpt>
      <trkpt lat="44.7315" lon="-0.34709">
        <ele>106.19999694824</ele>
        <time>2011-05-08T07:18:36Z</time>
      </trkpt>
      <trkpt lat="44.7315" lon="-0.34701">
        <ele>106.40000152588</ele>
        <time>2011-05-08T07:18:38Z</time>
      </trkpt>
      <trkpt lat="44.73151" lon="-0.34688">
        <ele>105.90000152588</ele>
        <time>2011-05-08T07:18:41Z</time>
      </trkpt>
      <trkpt lat="44.73151" lon="-0.34679">
        <ele>105.90000152588</ele>
        <time>2011-05-08T07:18:43Z</time>
      </trkpt>
      <trkpt lat="44.73151" lon="-0.34668">
        <ele>105.80000305176</ele>
        <time>2011-05-08T07:18:45Z</time>
      </trkpt>
      <trkpt lat="44.73152" lon="-0.34659">
        <ele>105.59999847412</ele>
        <time>2011-05-08T07:18:47Z</time>
      </trkpt>
      <trkpt lat="44.73152" lon="-0.34649">
        <ele>105.40000152588</ele>
        <time>2011-05-08T07:18:49Z</time>
      </trkpt>
      <trkpt lat="44.73152" lon="-0.34641">
        <ele>105.69999694824</ele>
        <time>2011-05-08T07:18:51Z</time>
      </trkpt>
      <trkpt lat="44.73152" lon="-0.34633">
        <ele>106.69999694824</ele>
        <time>2011-05-08T07:18:53Z</time>
      </trkpt>
      <trkpt lat="44.73153" lon="-0.34624">
        <ele>107.90000152588</ele>
        <time>2011-05-08T07:18:55Z</time>
      </trkpt>
      <trkpt lat="44.73154" lon="-0.34616">
        <ele>107.40000152588</ele>
        <time>2011-05-08T07:18:57Z</time>
      </trkpt>
      <trkpt lat="44.73155" lon="-0.34608">
        <ele>106.5</ele>
        <time>2011-05-08T07:18:59Z</time>
      </trkpt>
      <trkpt lat="44.73155" lon="-0.34601">
        <ele>106.69999694824</ele>
        <time>2011-05-08T07:19:01Z</time>
      </trkpt>
      <trkpt lat="44.73154" lon="-0.34593">
        <ele>106.80000305176</ele>
        <time>2011-05-08T07:19:03Z</time>
      </trkpt>
      <trkpt lat="44.73155" lon="-0.34584">
        <ele>105.80000305176</ele>
        <time>2011-05-08T07:19:05Z</time>
      </trkpt>
      <trkpt lat="44.73155" lon="-0.34575">
        <ele>106.59999847412</ele>
        <time>2011-05-08T07:19:07Z</time>
      </trkpt>
      <trkpt lat="44.73155" lon="-0.34566">
        <ele>106.90000152588</ele>
        <time>2011-05-08T07:19:09Z</time>
      </trkpt>
      <trkpt lat="44.73156" lon="-0.34557">
        <ele>107.30000305176</ele>
        <time>2011-05-08T07:19:11Z</time>
      </trkpt>
      <trkpt lat="44.73156" lon="-0.34548">
        <ele>107.80000305176</ele>
        <time>2011-05-08T07:19:13Z</time>
      </trkpt>
      <trkpt lat="44.73155" lon="-0.34537">
        <ele>109</ele>
        <time>2011-05-08T07:19:15Z</time>
      </trkpt>
      <trkpt lat="44.73154" lon="-0.34527">
        <ele>109</ele>
        <time>2011-05-08T07:19:17Z</time>
      </trkpt>
      <trkpt lat="44.73154" lon="-0.34518">
        <ele>109.30000305176</ele>
        <time>2011-05-08T07:19:19Z</time>
      </trkpt>
      <trkpt lat="44.73154" lon="-0.34509">
        <ele>109.69999694824</ele>
        <time>2011-05-08T07:19:21Z</time>
      </trkpt>
      <trkpt lat="44.73153" lon="-0.34501">
        <ele>110.5</ele>
        <time>2011-05-08T07:19:23Z</time>
      </trkpt>
      <trkpt lat="44.73152" lon="-0.34492">
        <ele>111</ele>
        <time>2011-05-08T07:19:25Z</time>
      </trkpt>
      <trkpt lat="44.73152" lon="-0.34484">
        <ele>111.40000152588</ele>
        <time>2011-05-08T07:19:27Z</time>
      </trkpt>
      <trkpt lat="44.7315" lon="-0.34477">
        <ele>111.30000305176</ele>
        <time>2011-05-08T07:19:29Z</time>
      </trkpt>
      <trkpt lat="44.7315" lon="-0.3447">
        <ele>111.69999694824</ele>
        <time>2011-05-08T07:19:31Z</time>
      </trkpt>
      <trkpt lat="44.73149" lon="-0.3446">
        <ele>112</ele>
        <time>2011-05-08T07:19:33Z</time>
      </trkpt>
      <trkpt lat="44.73149" lon="-0.34452">
        <ele>112.09999847412</ele>
        <time>2011-05-08T07:19:35Z</time>
      </trkpt>
      <trkpt lat="44.73149" lon="-0.34443">
        <ele>113</ele>
        <time>2011-05-08T07:19:37Z</time>
      </trkpt>
      <trkpt lat="44.73148" lon="-0.34435">
        <ele>112.30000305176</ele>
        <time>2011-05-08T07:19:39Z</time>
      </trkpt>
      <trkpt lat="44.73145" lon="-0.34425">
        <ele>113</ele>
        <time>2011-05-08T07:19:41Z</time>
      </trkpt>
      <trkpt lat="44.73144" lon="-0.34414">
        <ele>112.69999694824</ele>
        <time>2011-05-08T07:19:43Z</time>
      </trkpt>
      <trkpt lat="44.73141" lon="-0.34407">
        <ele>112.59999847412</ele>
        <time>2011-05-08T07:19:44Z</time>
      </trkpt>
      <trkpt lat="44.7314" lon="-0.344">
        <ele>112.80000305176</ele>
        <time>2011-05-08T07:19:45Z</time>
      </trkpt>
      <trkpt lat="44.73138" lon="-0.34392">
        <ele>112.40000152588</ele>
        <time>2011-05-08T07:19:46Z</time>
      </trkpt>
      <trkpt lat="44.73135" lon="-0.34385">
        <ele>112.19999694824</ele>
        <time>2011-05-08T07:19:47Z</time>
      </trkpt>
      <trkpt lat="44.73133" lon="-0.34377">
        <ele>112.40000152588</ele>
        <time>2011-05-08T07:19:48Z</time>
      </trkpt>
      <trkpt lat="44.7313" lon="-0.3437">
        <ele>112.90000152588</ele>
        <time>2011-05-08T07:19:49Z</time>
      </trkpt>
      <trkpt lat="44.73127" lon="-0.34361">
        <ele>113.09999847412</ele>
        <time>2011-05-08T07:19:50Z</time>
      </trkpt>
      <trkpt lat="44.73124" lon="-0.34352">
        <ele>112.69999694824</ele>
        <time>2011-05-08T07:19:51Z</time>
      </trkpt>
      <trkpt lat="44.73121" lon="-0.34345">
        <ele>112.40000152588</ele>
        <time>2011-05-08T07:19:52Z</time>
      </trkpt>
      <trkpt lat="44.73118" lon="-0.34338">
        <ele>111.5</ele>
        <time>2011-05-08T07:19:53Z</time>
      </trkpt>
      <trkpt lat="44.73115" lon="-0.34332">
        <ele>111.5</ele>
        <time>2011-05-08T07:19:54Z</time>
      </trkpt>
      <trkpt lat="44.7311" lon="-0.34324">
        <ele>110.90000152588</ele>
        <time>2011-05-08T07:19:56Z</time>
      </trkpt>
      <trkpt lat="44.73104" lon="-0.34315">
        <ele>110.5</ele>
        <time>2011-05-08T07:19:58Z</time>
      </trkpt>
      <trkpt lat="44.73098" lon="-0.3431">
        <ele>109.80000305176</ele>
        <time>2011-05-08T07:20:00Z</time>
      </trkpt>
      <trkpt lat="44.73095" lon="-0.34302">
        <ele>110.19999694824</ele>
        <time>2011-05-08T07:20:02Z</time>
      </trkpt>
      <trkpt lat="44.73095" lon="-0.34292">
        <ele>109.90000152588</ele>
        <time>2011-05-08T07:20:04Z</time>
      </trkpt>
      <trkpt lat="44.73095" lon="-0.34284">
        <ele>110.09999847412</ele>
        <time>2011-05-08T07:20:06Z</time>
      </trkpt>
      <trkpt lat="44.73094" lon="-0.34277">
        <ele>110.09999847412</ele>
        <time>2011-05-08T07:20:08Z</time>
      </trkpt>
      <trkpt lat="44.73094" lon="-0.34267">
        <ele>110.40000152588</ele>
        <time>2011-05-08T07:20:10Z</time>
      </trkpt>
      <trkpt lat="44.73094" lon="-0.34258">
        <ele>111</ele>
        <time>2011-05-08T07:20:12Z</time>
      </trkpt>
      <trkpt lat="44.73091" lon="-0.3425">
        <ele>111.80000305176</ele>
        <time>2011-05-08T07:20:14Z</time>
      </trkpt>
      <trkpt lat="44.73091" lon="-0.34242">
        <ele>111.69999694824</ele>
        <time>2011-05-08T07:20:16Z</time>
      </trkpt>
      <trkpt lat="44.73092" lon="-0.34233">
        <ele>111.40000152588</ele>
        <time>2011-05-08T07:20:18Z</time>
      </trkpt>
      <trkpt lat="44.73093" lon="-0.34225">
        <ele>111.5</ele>
        <time>2011-05-08T07:20:20Z</time>
      </trkpt>
      <trkpt lat="44.73093" lon="-0.34218">
        <ele>112.40000152588</ele>
        <time>2011-05-08T07:20:22Z</time>
      </trkpt>
      <trkpt lat="44.73093" lon="-0.34208">
        <ele>112.90000152588</ele>
        <time>2011-05-08T07:20:24Z</time>
      </trkpt>
      <trkpt lat="44.73092" lon="-0.34201">
        <ele>112.69999694824</ele>
        <time>2011-05-08T07:20:26Z</time>
      </trkpt>
      <trkpt lat="44.73089" lon="-0.34193">
        <ele>114.09999847412</ele>
        <time>2011-05-08T07:20:29Z</time>
      </trkpt>
      <trkpt lat="44.7309" lon="-0.34184">
        <ele>115.30000305176</ele>
        <time>2011-05-08T07:20:31Z</time>
      </trkpt>
      <trkpt lat="44.7309" lon="-0.34178">
        <ele>115.59999847412</ele>
        <time>2011-05-08T07:20:33Z</time>
      </trkpt>
      <trkpt lat="44.73087" lon="-0.34171">
        <ele>116.09999847412</ele>
        <time>2011-05-08T07:20:35Z</time>
      </trkpt>
      <trkpt lat="44.73086" lon="-0.34162">
        <ele>117</ele>
        <time>2011-05-08T07:20:38Z</time>
      </trkpt>
      <trkpt lat="44.73084" lon="-0.34151">
        <ele>117.40000152588</ele>
        <time>2011-05-08T07:20:41Z</time>
      </trkpt>
      <trkpt lat="44.73084" lon="-0.34144">
        <ele>117.90000152588</ele>
        <time>2011-05-08T07:20:43Z</time>
      </trkpt>
      <trkpt lat="44.73083" lon="-0.34138">
        <ele>118.59999847412</ele>
        <time>2011-05-08T07:20:45Z</time>
      </trkpt>
      <trkpt lat="44.73082" lon="-0.34127">
        <ele>120</ele>
        <time>2011-05-08T07:20:47Z</time>
      </trkpt>
      <trkpt lat="44.73079" lon="-0.34118">
        <ele>120.5</ele>
        <time>2011-05-08T07:20:49Z</time>
      </trkpt>
      <trkpt lat="44.73077" lon="-0.3411">
        <ele>122.09999847412</ele>
        <time>2011-05-08T07:20:51Z</time>
      </trkpt>
      <trkpt lat="44.73075" lon="-0.34104">
        <ele>123.80000305176</ele>
        <time>2011-05-08T07:20:54Z</time>
      </trkpt>
      <trkpt lat="44.73072" lon="-0.34098">
        <ele>124.69999694824</ele>
        <time>2011-05-08T07:20:57Z</time>
      </trkpt>
      <trkpt lat="44.73071" lon="-0.34091">
        <ele>127.40000152588</ele>
        <time>2011-05-08T07:21:01Z</time>
      </trkpt>
      <trkpt lat="44.7307" lon="-0.34081">
        <ele>129.60000610352</ele>
        <time>2011-05-08T07:21:05Z</time>
      </trkpt>
      <trkpt lat="44.7307" lon="-0.34074">
        <ele>132.10000610352</ele>
        <time>2011-05-08T07:21:08Z</time>
      </trkpt>
      <trkpt lat="44.73068" lon="-0.34068">
        <ele>133</ele>
        <time>2011-05-08T07:21:10Z</time>
      </trkpt>
      <trkpt lat="44.73065" lon="-0.34061">
        <ele>133.30000305176</ele>
        <time>2011-05-08T07:21:14Z</time>
      </trkpt>
      <trkpt lat="44.73064" lon="-0.34052">
        <ele>133.5</ele>
        <time>2011-05-08T07:21:17Z</time>
      </trkpt>
      <trkpt lat="44.73062" lon="-0.34044">
        <ele>134.5</ele>
        <time>2011-05-08T07:21:20Z</time>
      </trkpt>
      <trkpt lat="44.73059" lon="-0.34036">
        <ele>135.30000305176</ele>
        <time>2011-05-08T07:21:24Z</time>
      </trkpt>
      <trkpt lat="44.73055" lon="-0.34031">
        <ele>136.19999694824</ele>
        <time>2011-05-08T07:21:26Z</time>
      </trkpt>
      <trkpt lat="44.73052" lon="-0.34025">
        <ele>136.69999694824</ele>
        <time>2011-05-08T07:21:29Z</time>
      </trkpt>
      <trkpt lat="44.7305" lon="-0.34019">
        <ele>137</ele>
        <time>2011-05-08T07:21:32Z</time>
      </trkpt>
      <trkpt lat="44.73047" lon="-0.34013">
        <ele>138.5</ele>
        <time>2011-05-08T07:21:36Z</time>
      </trkpt>
      <trkpt lat="44.73042" lon="-0.34005">
        <ele>139.19999694824</ele>
        <time>2011-05-08T07:21:39Z</time>
      </trkpt>
      <trkpt lat="44.73039" lon="-0.33996">
        <ele>139</ele>
        <time>2011-05-08T07:21:43Z</time>
      </trkpt>
      <trkpt lat="44.73038" lon="-0.3399">
        <ele>136.19999694824</ele>
        <time>2011-05-08T07:21:45Z</time>
      </trkpt>
      <trkpt lat="44.73038" lon="-0.33982">
        <ele>134.80000305176</ele>
        <time>2011-05-08T07:21:47Z</time>
      </trkpt>
      <trkpt lat="44.73038" lon="-0.33976">
        <ele>135.19999694824</ele>
        <time>2011-05-08T07:21:49Z</time>
      </trkpt>
      <trkpt lat="44.7304" lon="-0.33967">
        <ele>135</ele>
        <time>2011-05-08T07:21:52Z</time>
      </trkpt>
      <trkpt lat="44.73043" lon="-0.33957">
        <ele>137.69999694824</ele>
        <time>2011-05-08T07:21:55Z</time>
      </trkpt>
      <trkpt lat="44.73047" lon="-0.33953">
        <ele>138.69999694824</ele>
        <time>2011-05-08T07:21:57Z</time>
      </trkpt>
      <trkpt lat="44.73051" lon="-0.33948">
        <ele>138.80000305176</ele>
        <time>2011-05-08T07:21:59Z</time>
      </trkpt>
      <trkpt lat="44.73057" lon="-0.33943">
        <ele>137.5</ele>
        <time>2011-05-08T07:22:01Z</time>
      </trkpt>
      <trkpt lat="44.73064" lon="-0.33939">
        <ele>137.69999694824</ele>
        <time>2011-05-08T07:22:03Z</time>
      </trkpt>
      <trkpt lat="44.73069" lon="-0.33935">
        <ele>138.19999694824</ele>
        <time>2011-05-08T07:22:05Z</time>
      </trkpt>
      <trkpt lat="44.73075" lon="-0.33929">
        <ele>138.5</ele>
        <time>2011-05-08T07:22:07Z</time>
      </trkpt>
      <trkpt lat="44.73082" lon="-0.33923">
        <ele>138</ele>
        <time>2011-05-08T07:22:09Z</time>
      </trkpt>
      <trkpt lat="44.73088" lon="-0.33919">
        <ele>138.80000305176</ele>
        <time>2011-05-08T07:22:11Z</time>
      </trkpt>
      <trkpt lat="44.73094" lon="-0.33913">
        <ele>138.5</ele>
        <time>2011-05-08T07:22:13Z</time>
      </trkpt>
      <trkpt lat="44.73101" lon="-0.33909">
        <ele>138.30000305176</ele>
        <time>2011-05-08T07:22:15Z</time>
      </trkpt>
      <trkpt lat="44.73109" lon="-0.33903">
        <ele>138.80000305176</ele>
        <time>2011-05-08T07:22:17Z</time>
      </trkpt>
      <trkpt lat="44.73116" lon="-0.33897">
        <ele>139.5</ele>
        <time>2011-05-08T07:22:19Z</time>
      </trkpt>
      <trkpt lat="44.73122" lon="-0.33892">
        <ele>139</ele>
        <time>2011-05-08T07:22:21Z</time>
      </trkpt>
      <trkpt lat="44.73129" lon="-0.33887">
        <ele>140</ele>
        <time>2011-05-08T07:22:23Z</time>
      </trkpt>
      <trkpt lat="44.73134" lon="-0.33885">
        <ele>140</ele>
        <time>2011-05-08T07:22:24Z</time>
      </trkpt>
      <trkpt lat="44.73138" lon="-0.33882">
        <ele>139.60000610352</ele>
        <time>2011-05-08T07:22:25Z</time>
      </trkpt>
      <trkpt lat="44.73145" lon="-0.33876">
        <ele>139.19999694824</ele>
        <time>2011-05-08T07:22:27Z</time>
      </trkpt>
      <trkpt lat="44.73149" lon="-0.33872">
        <ele>140</ele>
        <time>2011-05-08T07:22:28Z</time>
      </trkpt>
      <trkpt lat="44.73153" lon="-0.33869">
        <ele>139.5</ele>
        <time>2011-05-08T07:22:29Z</time>
      </trkpt>
      <trkpt lat="44.7316" lon="-0.33863">
        <ele>140.69999694824</ele>
        <time>2011-05-08T07:22:31Z</time>
      </trkpt>
      <trkpt lat="44.73166" lon="-0.33858">
        <ele>140.80000305176</ele>
        <time>2011-05-08T07:22:33Z</time>
      </trkpt>
      <trkpt lat="44.73171" lon="-0.33856">
        <ele>142.10000610352</ele>
        <time>2011-05-08T07:22:34Z</time>
      </trkpt>
      <trkpt lat="44.73313" lon="-0.33754">
        <ele>130.69999694824</ele>
        <time>2011-05-08T07:23:10Z</time>
      </trkpt>
      <trkpt lat="44.73324" lon="-0.33753">
        <ele>139.10000610352</ele>
        <time>2011-05-08T07:23:14Z</time>
      </trkpt>
      <trkpt lat="44.73331" lon="-0.33754">
        <ele>136.69999694824</ele>
        <time>2011-05-08T07:23:16Z</time>
      </trkpt>
      <trkpt lat="44.73336" lon="-0.33755">
        <ele>137.10000610352</ele>
        <time>2011-05-08T07:23:17Z</time>
      </trkpt>
      <trkpt lat="44.73343" lon="-0.33757">
        <ele>139</ele>
        <time>2011-05-08T07:23:19Z</time>
      </trkpt>
      <trkpt lat="44.73349" lon="-0.33757">
        <ele>140.10000610352</ele>
        <time>2011-05-08T07:23:21Z</time>
      </trkpt>
      <trkpt lat="44.73355" lon="-0.33758">
        <ele>139.80000305176</ele>
        <time>2011-05-08T07:23:23Z</time>
      </trkpt>
      <trkpt lat="44.73361" lon="-0.33758">
        <ele>140.10000610352</ele>
        <time>2011-05-08T07:23:25Z</time>
      </trkpt>
      <trkpt lat="44.73367" lon="-0.33755">
        <ele>140</ele>
        <time>2011-05-08T07:23:27Z</time>
      </trkpt>
      <trkpt lat="44.73372" lon="-0.33749">
        <ele>143.80000305176</ele>
        <time>2011-05-08T07:23:29Z</time>
      </trkpt>
      <trkpt lat="44.73373" lon="-0.33742">
        <ele>145.89999389648</ele>
        <time>2011-05-08T07:23:31Z</time>
      </trkpt>
      <trkpt lat="44.73373" lon="-0.33731">
        <ele>147.39999389648</ele>
        <time>2011-05-08T07:23:33Z</time>
      </trkpt>
      <trkpt lat="44.73372" lon="-0.33721">
        <ele>148.39999389648</ele>
        <time>2011-05-08T07:23:35Z</time>
      </trkpt>
      <trkpt lat="44.73371" lon="-0.33712">
        <ele>147.89999389648</ele>
        <time>2011-05-08T07:23:37Z</time>
      </trkpt>
      <trkpt lat="44.7337" lon="-0.33701">
        <ele>148.5</ele>
        <time>2011-05-08T07:23:39Z</time>
      </trkpt>
      <trkpt lat="44.73368" lon="-0.33692">
        <ele>148.39999389648</ele>
        <time>2011-05-08T07:23:41Z</time>
      </trkpt>
      <trkpt lat="44.73365" lon="-0.33684">
        <ele>149.80000305176</ele>
        <time>2011-05-08T07:23:43Z</time>
      </trkpt>
      <trkpt lat="44.73365" lon="-0.33672">
        <ele>149.60000610352</ele>
        <time>2011-05-08T07:23:45Z</time>
      </trkpt>
      <trkpt lat="44.73366" lon="-0.33663">
        <ele>149.30000305176</ele>
        <time>2011-05-08T07:23:47Z</time>
      </trkpt>
      <trkpt lat="44.73366" lon="-0.33653">
        <ele>150.5</ele>
        <time>2011-05-08T07:23:49Z</time>
      </trkpt>
      <trkpt lat="44.73367" lon="-0.33644">
        <ele>150.80000305176</ele>
        <time>2011-05-08T07:23:51Z</time>
      </trkpt>
      <trkpt lat="44.73371" lon="-0.33635">
        <ele>150.60000610352</ele>
        <time>2011-05-08T07:23:53Z</time>
      </trkpt>
      <trkpt lat="44.73374" lon="-0.33629">
        <ele>150.80000305176</ele>
        <time>2011-05-08T07:23:54Z</time>
      </trkpt>
      <trkpt lat="44.7338" lon="-0.33621">
        <ele>151.10000610352</ele>
        <time>2011-05-08T07:23:56Z</time>
      </trkpt>
      <trkpt lat="44.73383" lon="-0.33617">
        <ele>150.89999389648</ele>
        <time>2011-05-08T07:23:57Z</time>
      </trkpt>
      <trkpt lat="44.7339" lon="-0.33608">
        <ele>151.89999389648</ele>
        <time>2011-05-08T07:23:59Z</time>
      </trkpt>
      <trkpt lat="44.73392" lon="-0.33603">
        <ele>152.30000305176</ele>
        <time>2011-05-08T07:24:00Z</time>
      </trkpt>
      <trkpt lat="44.73396" lon="-0.33593">
        <ele>152.19999694824</ele>
        <time>2011-05-08T07:24:02Z</time>
      </trkpt>
      <trkpt lat="44.73394" lon="-0.33585">
        <ele>152.30000305176</ele>
        <time>2011-05-08T07:24:04Z</time>
      </trkpt>
      <trkpt lat="44.7339" lon="-0.33577">
        <ele>152.19999694824</ele>
        <time>2011-05-08T07:24:07Z</time>
      </trkpt>
      <trkpt lat="44.73385" lon="-0.3357">
        <ele>151.60000610352</ele>
        <time>2011-05-08T07:24:09Z</time>
      </trkpt>
      <trkpt lat="44.7338" lon="-0.33563">
        <ele>151.89999389648</ele>
        <time>2011-05-08T07:24:11Z</time>
      </trkpt>
      <trkpt lat="44.7338" lon="-0.33549">
        <ele>151.60000610352</ele>
        <time>2011-05-08T07:24:13Z</time>
      </trkpt>
      <trkpt lat="44.73383" lon="-0.33542">
        <ele>150.80000305176</ele>
        <time>2011-05-08T07:24:14Z</time>
      </trkpt>
      <trkpt lat="44.73385" lon="-0.33535">
        <ele>150.39999389648</ele>
        <time>2011-05-08T07:24:15Z</time>
      </trkpt>
      <trkpt lat="44.73388" lon="-0.33527">
        <ele>149.5</ele>
        <time>2011-05-08T07:24:16Z</time>
      </trkpt>
      <trkpt lat="44.73392" lon="-0.3352">
        <ele>148.80000305176</ele>
        <time>2011-05-08T07:24:17Z</time>
      </trkpt>
      <trkpt lat="44.73396" lon="-0.33513">
        <ele>148.69999694824</ele>
        <time>2011-05-08T07:24:18Z</time>
      </trkpt>
      <trkpt lat="44.73401" lon="-0.33505">
        <ele>148.30000305176</ele>
        <time>2011-05-08T07:24:19Z</time>
      </trkpt>
      <trkpt lat="44.73405" lon="-0.33498">
        <ele>148.80000305176</ele>
        <time>2011-05-08T07:24:20Z</time>
      </trkpt>
      <trkpt lat="44.73411" lon="-0.33491">
        <ele>148</ele>
        <time>2011-05-08T07:24:21Z</time>
      </trkpt>
      <trkpt lat="44.73415" lon="-0.33483">
        <ele>147.39999389648</ele>
        <time>2011-05-08T07:24:22Z</time>
      </trkpt>
      <trkpt lat="44.73421" lon="-0.33476">
        <ele>147.89999389648</ele>
        <time>2011-05-08T07:24:23Z</time>
      </trkpt>
      <trkpt lat="44.73424" lon="-0.33468">
        <ele>147.89999389648</ele>
        <time>2011-05-08T07:24:24Z</time>
      </trkpt>
      <trkpt lat="44.73428" lon="-0.33461">
        <ele>148.60000610352</ele>
        <time>2011-05-08T07:24:25Z</time>
      </trkpt>
      <trkpt lat="44.73433" lon="-0.33453">
        <ele>148.69999694824</ele>
        <time>2011-05-08T07:24:26Z</time>
      </trkpt>
      <trkpt lat="44.73438" lon="-0.33444">
        <ele>149.10000610352</ele>
        <time>2011-05-08T07:24:27Z</time>
      </trkpt>
      <trkpt lat="44.73443" lon="-0.33436">
        <ele>148.39999389648</ele>
        <time>2011-05-08T07:24:28Z</time>
      </trkpt>
      <trkpt lat="44.7345" lon="-0.33429">
        <ele>147.39999389648</ele>
        <time>2011-05-08T07:24:29Z</time>
      </trkpt>
      <trkpt lat="44.73454" lon="-0.3342">
        <ele>148</ele>
        <time>2011-05-08T07:24:30Z</time>
      </trkpt>
      <trkpt lat="44.73459" lon="-0.33412">
        <ele>147</ele>
        <time>2011-05-08T07:24:31Z</time>
      </trkpt>
      <trkpt lat="44.73465" lon="-0.33404">
        <ele>146</ele>
        <time>2011-05-08T07:24:32Z</time>
      </trkpt>
      <trkpt lat="44.73469" lon="-0.33394">
        <ele>144.5</ele>
        <time>2011-05-08T07:24:33Z</time>
      </trkpt>
      <trkpt lat="44.73472" lon="-0.33385">
        <ele>143.69999694824</ele>
        <time>2011-05-08T07:24:34Z</time>
      </trkpt>
      <trkpt lat="44.73475" lon="-0.3337">
        <ele>142.69999694824</ele>
        <time>2011-05-08T07:24:35Z</time>
      </trkpt>
      <trkpt lat="44.73475" lon="-0.33355">
        <ele>143.19999694824</ele>
        <time>2011-05-08T07:24:36Z</time>
      </trkpt>
      <trkpt lat="44.73475" lon="-0.33339">
        <ele>142.80000305176</ele>
        <time>2011-05-08T07:24:37Z</time>
      </trkpt>
      <trkpt lat="44.73474" lon="-0.33325">
        <ele>142.69999694824</ele>
        <time>2011-05-08T07:24:38Z</time>
      </trkpt>
      <trkpt lat="44.73473" lon="-0.3331">
        <ele>141.5</ele>
        <time>2011-05-08T07:24:39Z</time>
      </trkpt>
      <trkpt lat="44.73471" lon="-0.33279">
        <ele>141.30000305176</ele>
        <time>2011-05-08T07:24:41Z</time>
      </trkpt>
      <trkpt lat="44.7347" lon="-0.33265">
        <ele>140.5</ele>
        <time>2011-05-08T07:24:42Z</time>
      </trkpt>
      <trkpt lat="44.7347" lon="-0.33254">
        <ele>139.80000305176</ele>
        <time>2011-05-08T07:24:43Z</time>
      </trkpt>
      <trkpt lat="44.73468" lon="-0.33241">
        <ele>139.19999694824</ele>
        <time>2011-05-08T07:24:44Z</time>
      </trkpt>
      <trkpt lat="44.73468" lon="-0.33231">
        <ele>138.60000610352</ele>
        <time>2011-05-08T07:24:45Z</time>
      </trkpt>
      <trkpt lat="44.73467" lon="-0.33222">
        <ele>137.5</ele>
        <time>2011-05-08T07:24:46Z</time>
      </trkpt>
      <trkpt lat="44.73466" lon="-0.33211">
        <ele>137.5</ele>
        <time>2011-05-08T07:24:47Z</time>
      </trkpt>
      <trkpt lat="44.73465" lon="-0.33202">
        <ele>136.5</ele>
        <time>2011-05-08T07:24:48Z</time>
      </trkpt>
      <trkpt lat="44.73462" lon="-0.33193">
        <ele>136.60000610352</ele>
        <time>2011-05-08T07:24:49Z</time>
      </trkpt>
      <trkpt lat="44.73458" lon="-0.33187">
        <ele>136.10000610352</ele>
        <time>2011-05-08T07:24:50Z</time>
      </trkpt>
      <trkpt lat="44.73452" lon="-0.33182">
        <ele>135.80000305176</ele>
        <time>2011-05-08T07:24:51Z</time>
      </trkpt>
      <trkpt lat="44.73445" lon="-0.33178">
        <ele>135.80000305176</ele>
        <time>2011-05-08T07:24:52Z</time>
      </trkpt>
      <trkpt lat="44.73437" lon="-0.33174">
        <ele>136</ele>
        <time>2011-05-08T07:24:53Z</time>
      </trkpt>
      <trkpt lat="44.73429" lon="-0.33171">
        <ele>135.30000305176</ele>
        <time>2011-05-08T07:24:54Z</time>
      </trkpt>
      <trkpt lat="44.73421" lon="-0.33167">
        <ele>135.30000305176</ele>
        <time>2011-05-08T07:24:55Z</time>
      </trkpt>
      <trkpt lat="44.73412" lon="-0.33163">
        <ele>135.19999694824</ele>
        <time>2011-05-08T07:24:56Z</time>
      </trkpt>
      <trkpt lat="44.73402" lon="-0.33159">
        <ele>135.19999694824</ele>
        <time>2011-05-08T07:24:57Z</time>
      </trkpt>
      <trkpt lat="44.73393" lon="-0.33154">
        <ele>134.60000610352</ele>
        <time>2011-05-08T07:24:58Z</time>
      </trkpt>
      <trkpt lat="44.73385" lon="-0.33148">
        <ele>133.39999389648</ele>
        <time>2011-05-08T07:24:59Z</time>
      </trkpt>
      <trkpt lat="44.73377" lon="-0.33143">
        <ele>132.39999389648</ele>
        <time>2011-05-08T07:25:00Z</time>
      </trkpt>
      <trkpt lat="44.7337" lon="-0.33142">
        <ele>131.89999389648</ele>
        <time>2011-05-08T07:25:01Z</time>
      </trkpt>
      <trkpt lat="44.73363" lon="-0.33139">
        <ele>131.30000305176</ele>
        <time>2011-05-08T07:25:02Z</time>
      </trkpt>
      <trkpt lat="44.73357" lon="-0.33136">
        <ele>129.5</ele>
        <time>2011-05-08T07:25:03Z</time>
      </trkpt>
      <trkpt lat="44.73352" lon="-0.33135">
        <ele>128.30000305176</ele>
        <time>2011-05-08T07:25:04Z</time>
      </trkpt>
      <trkpt lat="44.73348" lon="-0.33134">
        <ele>127.90000152588</ele>
        <time>2011-05-08T07:25:05Z</time>
      </trkpt>
      <trkpt lat="44.7334" lon="-0.33127">
        <ele>126.80000305176</ele>
        <time>2011-05-08T07:25:07Z</time>
      </trkpt>
      <trkpt lat="44.7334" lon="-0.33119">
        <ele>126.5</ele>
        <time>2011-05-08T07:25:08Z</time>
      </trkpt>
      <trkpt lat="44.73341" lon="-0.33111">
        <ele>125.59999847412</ele>
        <time>2011-05-08T07:25:09Z</time>
      </trkpt>
      <trkpt lat="44.73342" lon="-0.33104">
        <ele>125.09999847412</ele>
        <time>2011-05-08T07:25:10Z</time>
      </trkpt>
      <trkpt lat="44.73344" lon="-0.33096">
        <ele>124.80000305176</ele>
        <time>2011-05-08T07:25:11Z</time>
      </trkpt>
      <trkpt lat="44.73347" lon="-0.33089">
        <ele>124.69999694824</ele>
        <time>2011-05-08T07:25:12Z</time>
      </trkpt>
      <trkpt lat="44.73348" lon="-0.33083">
        <ele>124.30000305176</ele>
        <time>2011-05-08T07:25:13Z</time>
      </trkpt>
      <trkpt lat="44.73349" lon="-0.33075">
        <ele>124.09999847412</ele>
        <time>2011-05-08T07:25:14Z</time>
      </trkpt>
      <trkpt lat="44.73348" lon="-0.33067">
        <ele>123.59999847412</ele>
        <time>2011-05-08T07:25:15Z</time>
      </trkpt>
      <trkpt lat="44.73348" lon="-0.33058">
        <ele>123</ele>
        <time>2011-05-08T07:25:16Z</time>
      </trkpt>
      <trkpt lat="44.73348" lon="-0.3305">
        <ele>122.69999694824</ele>
        <time>2011-05-08T07:25:17Z</time>
      </trkpt>
      <trkpt lat="44.73346" lon="-0.33042">
        <ele>122.40000152588</ele>
        <time>2011-05-08T07:25:19Z</time>
      </trkpt>
      <trkpt lat="44.73348" lon="-0.33035">
        <ele>121.5</ele>
        <time>2011-05-08T07:25:22Z</time>
      </trkpt>
      <trkpt lat="44.73354" lon="-0.33038">
        <ele>119.90000152588</ele>
        <time>2011-05-08T07:25:28Z</time>
      </trkpt>
      <trkpt lat="44.73359" lon="-0.33036">
        <ele>119.69999694824</ele>
        <time>2011-05-08T07:25:30Z</time>
      </trkpt>
      <trkpt lat="44.73365" lon="-0.33033">
        <ele>119.5</ele>
        <time>2011-05-08T07:25:32Z</time>
      </trkpt>
      <trkpt lat="44.73374" lon="-0.33034">
        <ele>119.09999847412</ele>
        <time>2011-05-08T07:25:34Z</time>
      </trkpt>
      <trkpt lat="44.73382" lon="-0.33028">
        <ele>118.69999694824</ele>
        <time>2011-05-08T07:25:36Z</time>
      </trkpt>
      <trkpt lat="44.73387" lon="-0.33024">
        <ele>118.90000152588</ele>
        <time>2011-05-08T07:25:37Z</time>
      </trkpt>
      <trkpt lat="44.73393" lon="-0.3302">
        <ele>119.19999694824</ele>
        <time>2011-05-08T07:25:38Z</time>
      </trkpt>
      <trkpt lat="44.73397" lon="-0.33016">
        <ele>119.19999694824</ele>
        <time>2011-05-08T07:25:39Z</time>
      </trkpt>
      <trkpt lat="44.7341" lon="-0.33008">
        <ele>118.30000305176</ele>
        <time>2011-05-08T07:25:41Z</time>
      </trkpt>
      <trkpt lat="44.73415" lon="-0.33003">
        <ele>117.59999847412</ele>
        <time>2011-05-08T07:25:42Z</time>
      </trkpt>
      <trkpt lat="44.73421" lon="-0.32998">
        <ele>117.40000152588</ele>
        <time>2011-05-08T07:25:43Z</time>
      </trkpt>
      <trkpt lat="44.73425" lon="-0.32994">
        <ele>117.40000152588</ele>
        <time>2011-05-08T07:25:44Z</time>
      </trkpt>
      <trkpt lat="44.73431" lon="-0.3299">
        <ele>117.19999694824</ele>
        <time>2011-05-08T07:25:45Z</time>
      </trkpt>
      <trkpt lat="44.73435" lon="-0.32988">
        <ele>117.19999694824</ele>
        <time>2011-05-08T07:25:46Z</time>
      </trkpt>
      <trkpt lat="44.73442" lon="-0.32986">
        <ele>117.09999847412</ele>
        <time>2011-05-08T07:25:47Z</time>
      </trkpt>
      <trkpt lat="44.73448" lon="-0.32983">
        <ele>117.40000152588</ele>
        <time>2011-05-08T07:25:48Z</time>
      </trkpt>
      <trkpt lat="44.73455" lon="-0.32979">
        <ele>116.59999847412</ele>
        <time>2011-05-08T07:25:49Z</time>
      </trkpt>
      <trkpt lat="44.73461" lon="-0.32978">
        <ele>116.40000152588</ele>
        <time>2011-05-08T07:25:50Z</time>
      </trkpt>
      <trkpt lat="44.73468" lon="-0.32977">
        <ele>116.69999694824</ele>
        <time>2011-05-08T07:25:51Z</time>
      </trkpt>
      <trkpt lat="44.73475" lon="-0.32976">
        <ele>117</ele>
        <time>2011-05-08T07:25:52Z</time>
      </trkpt>
      <trkpt lat="44.7348" lon="-0.32974">
        <ele>116.80000305176</ele>
        <time>2011-05-08T07:25:53Z</time>
      </trkpt>
      <trkpt lat="44.73488" lon="-0.32975">
        <ele>115.59999847412</ele>
        <time>2011-05-08T07:25:54Z</time>
      </trkpt>
      <trkpt lat="44.73496" lon="-0.32972">
        <ele>114.5</ele>
        <time>2011-05-08T07:25:55Z</time>
      </trkpt>
      <trkpt lat="44.73502" lon="-0.32972">
        <ele>114</ele>
        <time>2011-05-08T07:25:56Z</time>
      </trkpt>
      <trkpt lat="44.73509" lon="-0.32971">
        <ele>113.5</ele>
        <time>2011-05-08T07:25:57Z</time>
      </trkpt>
      <trkpt lat="44.73515" lon="-0.32971">
        <ele>113.40000152588</ele>
        <time>2011-05-08T07:25:58Z</time>
      </trkpt>
      <trkpt lat="44.73522" lon="-0.32971">
        <ele>113.09999847412</ele>
        <time>2011-05-08T07:25:59Z</time>
      </trkpt>
      <trkpt lat="44.73531" lon="-0.32968">
        <ele>111.90000152588</ele>
        <time>2011-05-08T07:26:00Z</time>
      </trkpt>
      <trkpt lat="44.7354" lon="-0.32967">
        <ele>112.80000305176</ele>
        <time>2011-05-08T07:26:01Z</time>
      </trkpt>
      <trkpt lat="44.73546" lon="-0.32966">
        <ele>112</ele>
        <time>2011-05-08T07:26:02Z</time>
      </trkpt>
      <trkpt lat="44.73551" lon="-0.32965">
        <ele>112.19999694824</ele>
        <time>2011-05-08T07:26:03Z</time>
      </trkpt>
      <trkpt lat="44.73557" lon="-0.32962">
        <ele>112.19999694824</ele>
        <time>2011-05-08T07:26:04Z</time>
      </trkpt>
      <trkpt lat="44.73562" lon="-0.3296">
        <ele>112.30000305176</ele>
        <time>2011-05-08T07:26:05Z</time>
      </trkpt>
      <trkpt lat="44.73572" lon="-0.32958">
        <ele>112.90000152588</ele>
        <time>2011-05-08T07:26:07Z</time>
      </trkpt>
      <trkpt lat="44.73577" lon="-0.32958">
        <ele>112.40000152588</ele>
        <time>2011-05-08T07:26:08Z</time>
      </trkpt>
      <trkpt lat="44.73583" lon="-0.32957">
        <ele>111</ele>
        <time>2011-05-08T07:26:09Z</time>
      </trkpt>
      <trkpt lat="44.73588" lon="-0.32956">
        <ele>111</ele>
        <time>2011-05-08T07:26:10Z</time>
      </trkpt>
      <trkpt lat="44.73594" lon="-0.32957">
        <ele>111</ele>
        <time>2011-05-08T07:26:11Z</time>
      </trkpt>
      <trkpt lat="44.736" lon="-0.32957">
        <ele>110.5</ele>
        <time>2011-05-08T07:26:12Z</time>
      </trkpt>
      <trkpt lat="44.73605" lon="-0.32957">
        <ele>110.80000305176</ele>
        <time>2011-05-08T07:26:13Z</time>
      </trkpt>
      <trkpt lat="44.7361" lon="-0.3296">
        <ele>110.59999847412</ele>
        <time>2011-05-08T07:26:14Z</time>
      </trkpt>
      <trkpt lat="44.73615" lon="-0.32963">
        <ele>110.69999694824</ele>
        <time>2011-05-08T07:26:15Z</time>
      </trkpt>
      <trkpt lat="44.7362" lon="-0.32965">
        <ele>111.30000305176</ele>
        <time>2011-05-08T07:26:16Z</time>
      </trkpt>
      <trkpt lat="44.73626" lon="-0.32967">
        <ele>111.80000305176</ele>
        <time>2011-05-08T07:26:17Z</time>
      </trkpt>
      <trkpt lat="44.73632" lon="-0.32971">
        <ele>112.19999694824</ele>
        <time>2011-05-08T07:26:18Z</time>
      </trkpt>
      <trkpt lat="44.73637" lon="-0.32971">
        <ele>112.40000152588</ele>
        <time>2011-05-08T07:26:19Z</time>
      </trkpt>
      <trkpt lat="44.73643" lon="-0.32973">
        <ele>112.59999847412</ele>
        <time>2011-05-08T07:26:20Z</time>
      </trkpt>
      <trkpt lat="44.73647" lon="-0.32978">
        <ele>112.30000305176</ele>
        <time>2011-05-08T07:26:21Z</time>
      </trkpt>
      <trkpt lat="44.73651" lon="-0.32981">
        <ele>112.80000305176</ele>
        <time>2011-05-08T07:26:22Z</time>
      </trkpt>
      <trkpt lat="44.73655" lon="-0.32985">
        <ele>112.59999847412</ele>
        <time>2011-05-08T07:26:23Z</time>
      </trkpt>
      <trkpt lat="44.73662" lon="-0.32989">
        <ele>112.69999694824</ele>
        <time>2011-05-08T07:26:25Z</time>
      </trkpt>
      <trkpt lat="44.73667" lon="-0.32988">
        <ele>112.80000305176</ele>
        <time>2011-05-08T07:26:27Z</time>
      </trkpt>
      <trkpt lat="44.73672" lon="-0.32988">
        <ele>112.69999694824</ele>
        <time>2011-05-08T07:26:29Z</time>
      </trkpt>
      <trkpt lat="44.73678" lon="-0.32988">
        <ele>112.90000152588</ele>
        <time>2011-05-08T07:26:31Z</time>
      </trkpt>
      <trkpt lat="44.73684" lon="-0.32987">
        <ele>114</ele>
        <time>2011-05-08T07:26:34Z</time>
      </trkpt>
      <trkpt lat="44.73689" lon="-0.32986">
        <ele>114.30000305176</ele>
        <time>2011-05-08T07:26:36Z</time>
      </trkpt>
      <trkpt lat="44.73693" lon="-0.32984">
        <ele>114.40000152588</ele>
        <time>2011-05-08T07:26:38Z</time>
      </trkpt>
      <trkpt lat="44.73699" lon="-0.32981">
        <ele>115</ele>
        <time>2011-05-08T07:26:41Z</time>
      </trkpt>
      <trkpt lat="44.73705" lon="-0.32978">
        <ele>114</ele>
        <time>2011-05-08T07:26:43Z</time>
      </trkpt>
      <trkpt lat="44.7371" lon="-0.32974">
        <ele>114.59999847412</ele>
        <time>2011-05-08T07:26:45Z</time>
      </trkpt>
      <trkpt lat="44.73715" lon="-0.32971">
        <ele>115</ele>
        <time>2011-05-08T07:26:47Z</time>
      </trkpt>
      <trkpt lat="44.73721" lon="-0.32968">
        <ele>115.69999694824</ele>
        <time>2011-05-08T07:26:50Z</time>
      </trkpt>
      <trkpt lat="44.73729" lon="-0.32968">
        <ele>116.5</ele>
        <time>2011-05-08T07:26:53Z</time>
      </trkpt>
      <trkpt lat="44.73734" lon="-0.32965">
        <ele>116.80000305176</ele>
        <time>2011-05-08T07:26:56Z</time>
      </trkpt>
      <trkpt lat="44.73739" lon="-0.32962">
        <ele>118.30000305176</ele>
        <time>2011-05-08T07:26:59Z</time>
      </trkpt>
      <trkpt lat="44.73745" lon="-0.32958">
        <ele>117.69999694824</ele>
        <time>2011-05-08T07:27:01Z</time>
      </trkpt>
      <trkpt lat="44.7375" lon="-0.32956">
        <ele>117.40000152588</ele>
        <time>2011-05-08T07:27:03Z</time>
      </trkpt>
      <trkpt lat="44.73757" lon="-0.32953">
        <ele>116.80000305176</ele>
        <time>2011-05-08T07:27:05Z</time>
      </trkpt>
      <trkpt lat="44.73763" lon="-0.32949">
        <ele>117.19999694824</ele>
        <time>2011-05-08T07:27:07Z</time>
      </trkpt>
      <trkpt lat="44.73767" lon="-0.32945">
        <ele>117.59999847412</ele>
        <time>2011-05-08T07:27:09Z</time>
      </trkpt>
      <trkpt lat="44.73772" lon="-0.32943">
        <ele>118.80000305176</ele>
        <time>2011-05-08T07:27:13Z</time>
      </trkpt>
      <trkpt lat="44.73777" lon="-0.32945">
        <ele>119</ele>
        <time>2011-05-08T07:27:15Z</time>
      </trkpt>
      <trkpt lat="44.73781" lon="-0.32943">
        <ele>119.19999694824</ele>
        <time>2011-05-08T07:27:17Z</time>
      </trkpt>
      <trkpt lat="44.73788" lon="-0.32941">
        <ele>119.59999847412</ele>
        <time>2011-05-08T07:27:20Z</time>
      </trkpt>
      <trkpt lat="44.73792" lon="-0.32938">
        <ele>121.59999847412</ele>
        <time>2011-05-08T07:27:23Z</time>
      </trkpt>
      <trkpt lat="44.73798" lon="-0.32937">
        <ele>122.80000305176</ele>
        <time>2011-05-08T07:27:25Z</time>
      </trkpt>
      <trkpt lat="44.73803" lon="-0.32934">
        <ele>123.09999847412</ele>
        <time>2011-05-08T07:27:28Z</time>
      </trkpt>
      <trkpt lat="44.7381" lon="-0.32933">
        <ele>124.09999847412</ele>
        <time>2011-05-08T07:27:30Z</time>
      </trkpt>
      <trkpt lat="44.73816" lon="-0.32934">
        <ele>125.40000152588</ele>
        <time>2011-05-08T07:27:32Z</time>
      </trkpt>
      <trkpt lat="44.73823" lon="-0.32934">
        <ele>124.90000152588</ele>
        <time>2011-05-08T07:27:34Z</time>
      </trkpt>
      <trkpt lat="44.73828" lon="-0.32935">
        <ele>123.69999694824</ele>
        <time>2011-05-08T07:27:35Z</time>
      </trkpt>
      <trkpt lat="44.73833" lon="-0.32938">
        <ele>122.90000152588</ele>
        <time>2011-05-08T07:27:37Z</time>
      </trkpt>
      <trkpt lat="44.73838" lon="-0.32949">
        <ele>122.40000152588</ele>
        <time>2011-05-08T07:27:41Z</time>
      </trkpt>
      <trkpt lat="44.73842" lon="-0.32955">
        <ele>123</ele>
        <time>2011-05-08T07:27:43Z</time>
      </trkpt>
      <trkpt lat="44.73845" lon="-0.32962">
        <ele>123.40000152588</ele>
        <time>2011-05-08T07:27:45Z</time>
      </trkpt>
      <trkpt lat="44.73849" lon="-0.32966">
        <ele>124.59999847412</ele>
        <time>2011-05-08T07:27:47Z</time>
      </trkpt>
      <trkpt lat="44.73854" lon="-0.32967">
        <ele>126.19999694824</ele>
        <time>2011-05-08T07:27:50Z</time>
      </trkpt>
      <trkpt lat="44.73859" lon="-0.32971">
        <ele>128.89999389648</ele>
        <time>2011-05-08T07:27:52Z</time>
      </trkpt>
      <trkpt lat="44.73862" lon="-0.32978">
        <ele>130.10000610352</ele>
        <time>2011-05-08T07:27:55Z</time>
      </trkpt>
      <trkpt lat="44.73868" lon="-0.32985">
        <ele>130.10000610352</ele>
        <time>2011-05-08T07:27:58Z</time>
      </trkpt>
      <trkpt lat="44.73873" lon="-0.3299">
        <ele>131.89999389648</ele>
        <time>2011-05-08T07:28:01Z</time>
      </trkpt>
      <trkpt lat="44.73878" lon="-0.32995">
        <ele>132</ele>
        <time>2011-05-08T07:28:04Z</time>
      </trkpt>
      <trkpt lat="44.73882" lon="-0.33001">
        <ele>131.10000610352</ele>
        <time>2011-05-08T07:28:07Z</time>
      </trkpt>
      <trkpt lat="44.73886" lon="-0.33007">
        <ele>132.39999389648</ele>
        <time>2011-05-08T07:28:11Z</time>
      </trkpt>
      <trkpt lat="44.73888" lon="-0.33013">
        <ele>132.89999389648</ele>
        <time>2011-05-08T07:28:13Z</time>
      </trkpt>
      <trkpt lat="44.73892" lon="-0.33017">
        <ele>133.19999694824</ele>
        <time>2011-05-08T07:28:16Z</time>
      </trkpt>
      <trkpt lat="44.73895" lon="-0.33021">
        <ele>133.5</ele>
        <time>2011-05-08T07:28:18Z</time>
      </trkpt>
      <trkpt lat="44.73899" lon="-0.33026">
        <ele>132.80000305176</ele>
        <time>2011-05-08T07:28:20Z</time>
      </trkpt>
      <trkpt lat="44.73904" lon="-0.33031">
        <ele>134.10000610352</ele>
        <time>2011-05-08T07:28:22Z</time>
      </trkpt>
      <trkpt lat="44.73909" lon="-0.33035">
        <ele>134.10000610352</ele>
        <time>2011-05-08T07:28:23Z</time>
      </trkpt>
      <trkpt lat="44.73913" lon="-0.3304">
        <ele>134.30000305176</ele>
        <time>2011-05-08T07:28:25Z</time>
      </trkpt>
      <trkpt lat="44.73917" lon="-0.33045">
        <ele>134.19999694824</ele>
        <time>2011-05-08T07:28:27Z</time>
      </trkpt>
      <trkpt lat="44.73921" lon="-0.33052">
        <ele>134.19999694824</ele>
        <time>2011-05-08T07:28:29Z</time>
      </trkpt>
      <trkpt lat="44.73927" lon="-0.3306">
        <ele>135.89999389648</ele>
        <time>2011-05-08T07:28:31Z</time>
      </trkpt>
      <trkpt lat="44.73931" lon="-0.33067">
        <ele>136.69999694824</ele>
        <time>2011-05-08T07:28:33Z</time>
      </trkpt>
      <trkpt lat="44.73936" lon="-0.33075">
        <ele>136.30000305176</ele>
        <time>2011-05-08T07:28:35Z</time>
      </trkpt>
      <trkpt lat="44.73938" lon="-0.33081">
        <ele>136</ele>
        <time>2011-05-08T07:28:37Z</time>
      </trkpt>
      <trkpt lat="44.73941" lon="-0.33087">
        <ele>136.19999694824</ele>
        <time>2011-05-08T07:28:39Z</time>
      </trkpt>
      <trkpt lat="44.73943" lon="-0.33093">
        <ele>136</ele>
        <time>2011-05-08T07:28:41Z</time>
      </trkpt>
      <trkpt lat="44.73948" lon="-0.33098">
        <ele>136.80000305176</ele>
        <time>2011-05-08T07:28:43Z</time>
      </trkpt>
      <trkpt lat="44.7395" lon="-0.33104">
        <ele>136.69999694824</ele>
        <time>2011-05-08T07:28:45Z</time>
      </trkpt>
      <trkpt lat="44.73952" lon="-0.3311">
        <ele>136.30000305176</ele>
        <time>2011-05-08T07:28:47Z</time>
      </trkpt>
      <trkpt lat="44.73956" lon="-0.33115">
        <ele>136.10000610352</ele>
        <time>2011-05-08T07:28:49Z</time>
      </trkpt>
      <trkpt lat="44.73959" lon="-0.33122">
        <ele>135.60000610352</ele>
        <time>2011-05-08T07:28:52Z</time>
      </trkpt>
      <trkpt lat="44.73963" lon="-0.33128">
        <ele>135.39999389648</ele>
        <time>2011-05-08T07:28:54Z</time>
      </trkpt>
      <trkpt lat="44.73967" lon="-0.33133">
        <ele>135.89999389648</ele>
        <time>2011-05-08T07:28:57Z</time>
      </trkpt>
      <trkpt lat="44.73971" lon="-0.3314">
        <ele>136.60000610352</ele>
        <time>2011-05-08T07:29:00Z</time>
      </trkpt>
      <trkpt lat="44.73975" lon="-0.33147">
        <ele>136.30000305176</ele>
        <time>2011-05-08T07:29:02Z</time>
      </trkpt>
      <trkpt lat="44.73982" lon="-0.33156">
        <ele>136.39999389648</ele>
        <time>2011-05-08T07:29:04Z</time>
      </trkpt>
      <trkpt lat="44.73986" lon="-0.33162">
        <ele>136.89999389648</ele>
        <time>2011-05-08T07:29:06Z</time>
      </trkpt>
      <trkpt lat="44.73991" lon="-0.33169">
        <ele>137.69999694824</ele>
        <time>2011-05-08T07:29:08Z</time>
      </trkpt>
      <trkpt lat="44.73996" lon="-0.33175">
        <ele>139.30000305176</ele>
        <time>2011-05-08T07:29:10Z</time>
      </trkpt>
      <trkpt lat="44.74001" lon="-0.33183">
        <ele>140.10000610352</ele>
        <time>2011-05-08T07:29:12Z</time>
      </trkpt>
      <trkpt lat="44.74007" lon="-0.33189">
        <ele>141.10000610352</ele>
        <time>2011-05-08T07:29:14Z</time>
      </trkpt>
      <trkpt lat="44.74011" lon="-0.33194">
        <ele>141.10000610352</ele>
        <time>2011-05-08T07:29:16Z</time>
      </trkpt>
      <trkpt lat="44.74016" lon="-0.33202">
        <ele>140.89999389648</ele>
        <time>2011-05-08T07:29:18Z</time>
      </trkpt>
      <trkpt lat="44.74021" lon="-0.33209">
        <ele>141.5</ele>
        <time>2011-05-08T07:29:20Z</time>
      </trkpt>
      <trkpt lat="44.74026" lon="-0.33216">
        <ele>141.39999389648</ele>
        <time>2011-05-08T07:29:22Z</time>
      </trkpt>
      <trkpt lat="44.74033" lon="-0.33221">
        <ele>140.89999389648</ele>
        <time>2011-05-08T07:29:24Z</time>
      </trkpt>
      <trkpt lat="44.74036" lon="-0.33225">
        <ele>140.80000305176</ele>
        <time>2011-05-08T07:29:25Z</time>
      </trkpt>
      <trkpt lat="44.74041" lon="-0.33229">
        <ele>141.89999389648</ele>
        <time>2011-05-08T07:29:27Z</time>
      </trkpt>
      <trkpt lat="44.74045" lon="-0.33235">
        <ele>141.89999389648</ele>
        <time>2011-05-08T07:29:29Z</time>
      </trkpt>
      <trkpt lat="44.74049" lon="-0.3324">
        <ele>142.10000610352</ele>
        <time>2011-05-08T07:29:30Z</time>
      </trkpt>
      <trkpt lat="44.74055" lon="-0.33248">
        <ele>141.89999389648</ele>
        <time>2011-05-08T07:29:32Z</time>
      </trkpt>
      <trkpt lat="44.7406" lon="-0.33253">
        <ele>143.10000610352</ele>
        <time>2011-05-08T07:29:34Z</time>
      </trkpt>
      <trkpt lat="44.74066" lon="-0.33259">
        <ele>143</ele>
        <time>2011-05-08T07:29:36Z</time>
      </trkpt>
      <trkpt lat="44.74072" lon="-0.33264">
        <ele>143.89999389648</ele>
        <time>2011-05-08T07:29:38Z</time>
      </trkpt>
      <trkpt lat="44.74078" lon="-0.33274">
        <ele>143.19999694824</ele>
        <time>2011-05-08T07:29:41Z</time>
      </trkpt>
      <trkpt lat="44.74082" lon="-0.33279">
        <ele>143</ele>
        <time>2011-05-08T07:29:43Z</time>
      </trkpt>
      <trkpt lat="44.74086" lon="-0.33284">
        <ele>142.39999389648</ele>
        <time>2011-05-08T07:29:45Z</time>
      </trkpt>
      <trkpt lat="44.74091" lon="-0.33288">
        <ele>142.39999389648</ele>
        <time>2011-05-08T07:29:47Z</time>
      </trkpt>
      <trkpt lat="44.74095" lon="-0.33292">
        <ele>142.39999389648</ele>
        <time>2011-05-08T07:29:49Z</time>
      </trkpt>
      <trkpt lat="44.741" lon="-0.3329">
        <ele>144</ele>
        <time>2011-05-08T07:29:51Z</time>
      </trkpt>
      <trkpt lat="44.74105" lon="-0.33288">
        <ele>144.89999389648</ele>
        <time>2011-05-08T07:29:53Z</time>
      </trkpt>
      <trkpt lat="44.74111" lon="-0.33283">
        <ele>146</ele>
        <time>2011-05-08T07:29:55Z</time>
      </trkpt>
      <trkpt lat="44.74117" lon="-0.33276">
        <ele>146.30000305176</ele>
        <time>2011-05-08T07:29:57Z</time>
      </trkpt>
      <trkpt lat="44.74123" lon="-0.33268">
        <ele>146.5</ele>
        <time>2011-05-08T07:29:59Z</time>
      </trkpt>
      <trkpt lat="44.74127" lon="-0.33264">
        <ele>146.60000610352</ele>
        <time>2011-05-08T07:30:00Z</time>
      </trkpt>
      <trkpt lat="44.74134" lon="-0.33257">
        <ele>146.89999389648</ele>
        <time>2011-05-08T07:30:02Z</time>
      </trkpt>
      <trkpt lat="44.74137" lon="-0.33253">
        <ele>146.60000610352</ele>
        <time>2011-05-08T07:30:03Z</time>
      </trkpt>
      <trkpt lat="44.74142" lon="-0.33249">
        <ele>146.5</ele>
        <time>2011-05-08T07:30:04Z</time>
      </trkpt>
      <trkpt lat="44.74149" lon="-0.33241">
        <ele>146.30000305176</ele>
        <time>2011-05-08T07:30:06Z</time>
      </trkpt>
      <trkpt lat="44.74155" lon="-0.33235">
        <ele>146.10000610352</ele>
        <time>2011-05-08T07:30:08Z</time>
      </trkpt>
      <trkpt lat="44.7416" lon="-0.33232">
        <ele>146.30000305176</ele>
        <time>2011-05-08T07:30:09Z</time>
      </trkpt>
      <trkpt lat="44.74166" lon="-0.33226">
        <ele>145.69999694824</ele>
        <time>2011-05-08T07:30:11Z</time>
      </trkpt>
      <trkpt lat="44.7417" lon="-0.33222">
        <ele>145.69999694824</ele>
        <time>2011-05-08T07:30:12Z</time>
      </trkpt>
      <trkpt lat="44.74177" lon="-0.33217">
        <ele>145.30000305176</ele>
        <time>2011-05-08T07:30:14Z</time>
      </trkpt>
      <trkpt lat="44.74183" lon="-0.33211">
        <ele>145.10000610352</ele>
        <time>2011-05-08T07:30:16Z</time>
      </trkpt>
      <trkpt lat="44.74188" lon="-0.33205">
        <ele>145.30000305176</ele>
        <time>2011-05-08T07:30:18Z</time>
      </trkpt>
      <trkpt lat="44.74195" lon="-0.33197">
        <ele>144.80000305176</ele>
        <time>2011-05-08T07:30:20Z</time>
      </trkpt>
      <trkpt lat="44.74199" lon="-0.33192">
        <ele>144.69999694824</ele>
        <time>2011-05-08T07:30:21Z</time>
      </trkpt>
      <trkpt lat="44.74204" lon="-0.33187">
        <ele>144.5</ele>
        <time>2011-05-08T07:30:22Z</time>
      </trkpt>
      <trkpt lat="44.74209" lon="-0.33181">
        <ele>144.69999694824</ele>
        <time>2011-05-08T07:30:23Z</time>
      </trkpt>
      <trkpt lat="44.74214" lon="-0.33176">
        <ele>144.5</ele>
        <time>2011-05-08T07:30:24Z</time>
      </trkpt>
      <trkpt lat="44.74219" lon="-0.3317">
        <ele>144.30000305176</ele>
        <time>2011-05-08T07:30:25Z</time>
      </trkpt>
      <trkpt lat="44.74223" lon="-0.33164">
        <ele>144.69999694824</ele>
        <time>2011-05-08T07:30:26Z</time>
      </trkpt>
      <trkpt lat="44.74228" lon="-0.33159">
        <ele>144.69999694824</ele>
        <time>2011-05-08T07:30:27Z</time>
      </trkpt>
      <trkpt lat="44.74233" lon="-0.33153">
        <ele>144.89999389648</ele>
        <time>2011-05-08T07:30:28Z</time>
      </trkpt>
      <trkpt lat="44.74237" lon="-0.33148">
        <ele>144.60000610352</ele>
        <time>2011-05-08T07:30:29Z</time>
      </trkpt>
      <trkpt lat="44.74241" lon="-0.33142">
        <ele>144.89999389648</ele>
        <time>2011-05-08T07:30:30Z</time>
      </trkpt>
      <trkpt lat="44.74246" lon="-0.33139">
        <ele>144.80000305176</ele>
        <time>2011-05-08T07:30:31Z</time>
      </trkpt>
      <trkpt lat="44.74251" lon="-0.33133">
        <ele>144.69999694824</ele>
        <time>2011-05-08T07:30:33Z</time>
      </trkpt>
      <trkpt lat="44.74255" lon="-0.33127">
        <ele>144.60000610352</ele>
        <time>2011-05-08T07:30:35Z</time>
      </trkpt>
      <trkpt lat="44.74261" lon="-0.33126">
        <ele>144.80000305176</ele>
        <time>2011-05-08T07:30:37Z</time>
      </trkpt>
      <trkpt lat="44.74265" lon="-0.33129">
        <ele>144.89999389648</ele>
        <time>2011-05-08T07:30:39Z</time>
      </trkpt>
      <trkpt lat="44.74266" lon="-0.3314">
        <ele>143.69999694824</ele>
        <time>2011-05-08T07:30:42Z</time>
      </trkpt>
      <trkpt lat="44.74267" lon="-0.33146">
        <ele>143.69999694824</ele>
        <time>2011-05-08T07:30:43Z</time>
      </trkpt>
      <trkpt lat="44.7427" lon="-0.33156">
        <ele>143.19999694824</ele>
        <time>2011-05-08T07:30:45Z</time>
      </trkpt>
      <trkpt lat="44.74272" lon="-0.33166">
        <ele>143.10000610352</ele>
        <time>2011-05-08T07:30:47Z</time>
      </trkpt>
      <trkpt lat="44.74274" lon="-0.33177">
        <ele>143.5</ele>
        <time>2011-05-08T07:30:49Z</time>
      </trkpt>
      <trkpt lat="44.74276" lon="-0.33186">
        <ele>144.5</ele>
        <time>2011-05-08T07:30:51Z</time>
      </trkpt>
      <trkpt lat="44.74281" lon="-0.33184">
        <ele>144.5</ele>
        <time>2011-05-08T07:30:54Z</time>
      </trkpt>
      <trkpt lat="44.74278" lon="-0.33175">
        <ele>144.89999389648</ele>
        <time>2011-05-08T07:30:56Z</time>
      </trkpt>
      <trkpt lat="44.74276" lon="-0.33169">
        <ele>144.89999389648</ele>
        <time>2011-05-08T07:30:57Z</time>
      </trkpt>
      <trkpt lat="44.74274" lon="-0.33157">
        <ele>145.10000610352</ele>
        <time>2011-05-08T07:30:59Z</time>
      </trkpt>
      <trkpt lat="44.74274" lon="-0.3315">
        <ele>145.19999694824</ele>
        <time>2011-05-08T07:31:00Z</time>
      </trkpt>
      <trkpt lat="44.74273" lon="-0.33144">
        <ele>145.10000610352</ele>
        <time>2011-05-08T07:31:01Z</time>
      </trkpt>
      <trkpt lat="44.74271" lon="-0.33137">
        <ele>145.30000305176</ele>
        <time>2011-05-08T07:31:02Z</time>
      </trkpt>
      <trkpt lat="44.7427" lon="-0.33131">
        <ele>145.5</ele>
        <time>2011-05-08T07:31:03Z</time>
      </trkpt>
      <trkpt lat="44.74269" lon="-0.33124">
        <ele>145.60000610352</ele>
        <time>2011-05-08T07:31:04Z</time>
      </trkpt>
      <trkpt lat="44.74268" lon="-0.33117">
        <ele>145.39999389648</ele>
        <time>2011-05-08T07:31:05Z</time>
      </trkpt>
      <trkpt lat="44.74267" lon="-0.33109">
        <ele>145.60000610352</ele>
        <time>2011-05-08T07:31:06Z</time>
      </trkpt>
      <trkpt lat="44.74265" lon="-0.33103">
        <ele>146.19999694824</ele>
        <time>2011-05-08T07:31:07Z</time>
      </trkpt>
      <trkpt lat="44.74264" lon="-0.33095">
        <ele>146.10000610352</ele>
        <time>2011-05-08T07:31:08Z</time>
      </trkpt>
      <trkpt lat="44.74263" lon="-0.33089">
        <ele>146.80000305176</ele>
        <time>2011-05-08T07:31:09Z</time>
      </trkpt>
      <trkpt lat="44.74262" lon="-0.33082">
        <ele>147</ele>
        <time>2011-05-08T07:31:10Z</time>
      </trkpt>
      <trkpt lat="44.74261" lon="-0.33075">
        <ele>146.80000305176</ele>
        <time>2011-05-08T07:31:11Z</time>
      </trkpt>
      <trkpt lat="44.7426" lon="-0.33069">
        <ele>147</ele>
        <time>2011-05-08T07:31:12Z</time>
      </trkpt>
      <trkpt lat="44.74258" lon="-0.33062">
        <ele>147.30000305176</ele>
        <time>2011-05-08T07:31:13Z</time>
      </trkpt>
      <trkpt lat="44.74256" lon="-0.33055">
        <ele>147.60000610352</ele>
        <time>2011-05-08T07:31:14Z</time>
      </trkpt>
      <trkpt lat="44.74254" lon="-0.33048">
        <ele>147.5</ele>
        <time>2011-05-08T07:31:15Z</time>
      </trkpt>
      <trkpt lat="44.74253" lon="-0.3304">
        <ele>147.60000610352</ele>
        <time>2011-05-08T07:31:16Z</time>
      </trkpt>
      <trkpt lat="44.74251" lon="-0.33032">
        <ele>147.69999694824</ele>
        <time>2011-05-08T07:31:17Z</time>
      </trkpt>
      <trkpt lat="44.74249" lon="-0.33025">
        <ele>147.89999389648</ele>
        <time>2011-05-08T07:31:18Z</time>
      </trkpt>
      <trkpt lat="44.74246" lon="-0.33018">
        <ele>148.19999694824</ele>
        <time>2011-05-08T07:31:19Z</time>
      </trkpt>
      <trkpt lat="44.74243" lon="-0.3301">
        <ele>148.10000610352</ele>
        <time>2011-05-08T07:31:20Z</time>
      </trkpt>
      <trkpt lat="44.74241" lon="-0.33003">
        <ele>147.60000610352</ele>
        <time>2011-05-08T07:31:21Z</time>
      </trkpt>
      <trkpt lat="44.74238" lon="-0.32996">
        <ele>148.10000610352</ele>
        <time>2011-05-08T07:31:22Z</time>
      </trkpt>
      <trkpt lat="44.74236" lon="-0.32989">
        <ele>148.30000305176</ele>
        <time>2011-05-08T07:31:23Z</time>
      </trkpt>
      <trkpt lat="44.74235" lon="-0.32981">
        <ele>148.5</ele>
        <time>2011-05-08T07:31:24Z</time>
      </trkpt>
      <trkpt lat="44.74233" lon="-0.32974">
        <ele>148.60000610352</ele>
        <time>2011-05-08T07:31:25Z</time>
      </trkpt>
      <trkpt lat="44.74231" lon="-0.32965">
        <ele>148.30000305176</ele>
        <time>2011-05-08T07:31:26Z</time>
      </trkpt>
      <trkpt lat="44.74228" lon="-0.32955">
        <ele>148.10000610352</ele>
        <time>2011-05-08T07:31:27Z</time>
      </trkpt>
      <trkpt lat="44.74225" lon="-0.32947">
        <ele>148.69999694824</ele>
        <time>2011-05-08T07:31:28Z</time>
      </trkpt>
      <trkpt lat="44.74222" lon="-0.32939">
        <ele>148.69999694824</ele>
        <time>2011-05-08T07:31:29Z</time>
      </trkpt>
      <trkpt lat="44.7422" lon="-0.32929">
        <ele>149.10000610352</ele>
        <time>2011-05-08T07:31:30Z</time>
      </trkpt>
      <trkpt lat="44.74219" lon="-0.3292">
        <ele>148.5</ele>
        <time>2011-05-08T07:31:31Z</time>
      </trkpt>
      <trkpt lat="44.74216" lon="-0.32911">
        <ele>147.80000305176</ele>
        <time>2011-05-08T07:31:32Z</time>
      </trkpt>
      <trkpt lat="44.74213" lon="-0.32902">
        <ele>147.60000610352</ele>
        <time>2011-05-08T07:31:33Z</time>
      </trkpt>
      <trkpt lat="44.7421" lon="-0.32891">
        <ele>148</ele>
        <time>2011-05-08T07:31:34Z</time>
      </trkpt>
      <trkpt lat="44.74208" lon="-0.32881">
        <ele>147.69999694824</ele>
        <time>2011-05-08T07:31:35Z</time>
      </trkpt>
      <trkpt lat="44.74206" lon="-0.3287">
        <ele>147.5</ele>
        <time>2011-05-08T07:31:36Z</time>
      </trkpt>
      <trkpt lat="44.74203" lon="-0.32858">
        <ele>147.5</ele>
        <time>2011-05-08T07:31:37Z</time>
      </trkpt>
      <trkpt lat="44.742" lon="-0.32846">
        <ele>147.39999389648</ele>
        <time>2011-05-08T07:31:38Z</time>
      </trkpt>
      <trkpt lat="44.74197" lon="-0.32834">
        <ele>147.60000610352</ele>
        <time>2011-05-08T07:31:39Z</time>
      </trkpt>
      <trkpt lat="44.74194" lon="-0.32822">
        <ele>146.80000305176</ele>
        <time>2011-05-08T07:31:40Z</time>
      </trkpt>
      <trkpt lat="44.74188" lon="-0.32798">
        <ele>146.30000305176</ele>
        <time>2011-05-08T07:31:42Z</time>
      </trkpt>
      <trkpt lat="44.74186" lon="-0.32786">
        <ele>146.5</ele>
        <time>2011-05-08T07:31:43Z</time>
      </trkpt>
      <trkpt lat="44.74184" lon="-0.32776">
        <ele>145.69999694824</ele>
        <time>2011-05-08T07:31:44Z</time>
      </trkpt>
      <trkpt lat="44.74182" lon="-0.32768">
        <ele>146.19999694824</ele>
        <time>2011-05-08T07:31:45Z</time>
      </trkpt>
      <trkpt lat="44.74177" lon="-0.32765">
        <ele>146.19999694824</ele>
        <time>2011-05-08T07:31:46Z</time>
      </trkpt>
      <trkpt lat="44.74172" lon="-0.32763">
        <ele>145.89999389648</ele>
        <time>2011-05-08T07:31:47Z</time>
      </trkpt>
      <trkpt lat="44.74163" lon="-0.32764">
        <ele>145.69999694824</ele>
        <time>2011-05-08T07:31:49Z</time>
      </trkpt>
      <trkpt lat="44.74157" lon="-0.32767">
        <ele>145.30000305176</ele>
        <time>2011-05-08T07:31:50Z</time>
      </trkpt>
      <trkpt lat="44.7415" lon="-0.32771">
        <ele>145.19999694824</ele>
        <time>2011-05-08T07:31:51Z</time>
      </trkpt>
      <trkpt lat="44.74143" lon="-0.32775">
        <ele>144.80000305176</ele>
        <time>2011-05-08T07:31:52Z</time>
      </trkpt>
      <trkpt lat="44.74137" lon="-0.32778">
        <ele>144.69999694824</ele>
        <time>2011-05-08T07:31:53Z</time>
      </trkpt>
      <trkpt lat="44.74131" lon="-0.32783">
        <ele>144.19999694824</ele>
        <time>2011-05-08T07:31:54Z</time>
      </trkpt>
      <trkpt lat="44.74123" lon="-0.32786">
        <ele>144</ele>
        <time>2011-05-08T07:31:55Z</time>
      </trkpt>
      <trkpt lat="44.74118" lon="-0.32789">
        <ele>143.80000305176</ele>
        <time>2011-05-08T07:31:56Z</time>
      </trkpt>
      <trkpt lat="44.74111" lon="-0.32787">
        <ele>143.39999389648</ele>
        <time>2011-05-08T07:31:57Z</time>
      </trkpt>
      <trkpt lat="44.74102" lon="-0.32784">
        <ele>142.89999389648</ele>
        <time>2011-05-08T07:31:58Z</time>
      </trkpt>
      <trkpt lat="44.74095" lon="-0.32778">
        <ele>143</ele>
        <time>2011-05-08T07:31:59Z</time>
      </trkpt>
      <trkpt lat="44.74089" lon="-0.32771">
        <ele>143</ele>
        <time>2011-05-08T07:32:00Z</time>
      </trkpt>
      <trkpt lat="44.74083" lon="-0.32764">
        <ele>143.10000610352</ele>
        <time>2011-05-08T07:32:01Z</time>
      </trkpt>
      <trkpt lat="44.74076" lon="-0.32757">
        <ele>142.80000305176</ele>
        <time>2011-05-08T07:32:02Z</time>
      </trkpt>
      <trkpt lat="44.74072" lon="-0.32746">
        <ele>143.10000610352</ele>
        <time>2011-05-08T07:32:03Z</time>
      </trkpt>
      <trkpt lat="44.74066" lon="-0.32736">
        <ele>142.80000305176</ele>
        <time>2011-05-08T07:32:04Z</time>
      </trkpt>
      <trkpt lat="44.74059" lon="-0.32728">
        <ele>142.69999694824</ele>
        <time>2011-05-08T07:32:05Z</time>
      </trkpt>
      <trkpt lat="44.74052" lon="-0.3272">
        <ele>143</ele>
        <time>2011-05-08T07:32:06Z</time>
      </trkpt>
      <trkpt lat="44.74046" lon="-0.32716">
        <ele>143.19999694824</ele>
        <time>2011-05-08T07:32:07Z</time>
      </trkpt>
      <trkpt lat="44.74039" lon="-0.32714">
        <ele>143.30000305176</ele>
        <time>2011-05-08T07:32:08Z</time>
      </trkpt>
      <trkpt lat="44.74032" lon="-0.32712">
        <ele>143.19999694824</ele>
        <time>2011-05-08T07:32:09Z</time>
      </trkpt>
      <trkpt lat="44.74026" lon="-0.32714">
        <ele>142.69999694824</ele>
        <time>2011-05-08T07:32:10Z</time>
      </trkpt>
      <trkpt lat="44.74021" lon="-0.32713">
        <ele>142.30000305176</ele>
        <time>2011-05-08T07:32:11Z</time>
      </trkpt>
      <trkpt lat="44.74014" lon="-0.32715">
        <ele>141.89999389648</ele>
        <time>2011-05-08T07:32:12Z</time>
      </trkpt>
      <trkpt lat="44.74004" lon="-0.3272">
        <ele>141.39999389648</ele>
        <time>2011-05-08T07:32:14Z</time>
      </trkpt>
      <trkpt lat="44.73999" lon="-0.32724">
        <ele>141.10000610352</ele>
        <time>2011-05-08T07:32:15Z</time>
      </trkpt>
      <trkpt lat="44.73995" lon="-0.32726">
        <ele>139.89999389648</ele>
        <time>2011-05-08T07:32:16Z</time>
      </trkpt>
      <trkpt lat="44.73989" lon="-0.32731">
        <ele>139.69999694824</ele>
        <time>2011-05-08T07:32:17Z</time>
      </trkpt>
      <trkpt lat="44.73984" lon="-0.32736">
        <ele>139.69999694824</ele>
        <time>2011-05-08T07:32:18Z</time>
      </trkpt>
      <trkpt lat="44.73979" lon="-0.32742">
        <ele>139.89999389648</ele>
        <time>2011-05-08T07:32:19Z</time>
      </trkpt>
      <trkpt lat="44.73972" lon="-0.32748">
        <ele>139.80000305176</ele>
        <time>2011-05-08T07:32:20Z</time>
      </trkpt>
      <trkpt lat="44.73966" lon="-0.32752">
        <ele>139.60000610352</ele>
        <time>2011-05-08T07:32:21Z</time>
      </trkpt>
      <trkpt lat="44.73958" lon="-0.32751">
        <ele>139.5</ele>
        <time>2011-05-08T07:32:22Z</time>
      </trkpt>
      <trkpt lat="44.73952" lon="-0.32751">
        <ele>139.60000610352</ele>
        <time>2011-05-08T07:32:23Z</time>
      </trkpt>
      <trkpt lat="44.73946" lon="-0.32751">
        <ele>139.30000305176</ele>
        <time>2011-05-08T07:32:24Z</time>
      </trkpt>
      <trkpt lat="44.73937" lon="-0.32744">
        <ele>139.69999694824</ele>
        <time>2011-05-08T07:32:26Z</time>
      </trkpt>
      <trkpt lat="44.73932" lon="-0.3274">
        <ele>139.19999694824</ele>
        <time>2011-05-08T07:32:27Z</time>
      </trkpt>
      <trkpt lat="44.73924" lon="-0.32736">
        <ele>139.30000305176</ele>
        <time>2011-05-08T07:32:28Z</time>
      </trkpt>
      <trkpt lat="44.73916" lon="-0.32731">
        <ele>139.19999694824</ele>
        <time>2011-05-08T07:32:29Z</time>
      </trkpt>
      <trkpt lat="44.73911" lon="-0.32725">
        <ele>139.39999389648</ele>
        <time>2011-05-08T07:32:30Z</time>
      </trkpt>
      <trkpt lat="44.73903" lon="-0.32716">
        <ele>139.60000610352</ele>
        <time>2011-05-08T07:32:32Z</time>
      </trkpt>
      <trkpt lat="44.73899" lon="-0.32714">
        <ele>139.5</ele>
        <time>2011-05-08T07:32:33Z</time>
      </trkpt>
      <trkpt lat="44.73897" lon="-0.32707">
        <ele>139.19999694824</ele>
        <time>2011-05-08T07:32:34Z</time>
      </trkpt>
      <trkpt lat="44.73899" lon="-0.327">
        <ele>139.19999694824</ele>
        <time>2011-05-08T07:32:35Z</time>
      </trkpt>
      <trkpt lat="44.739" lon="-0.32691">
        <ele>138.5</ele>
        <time>2011-05-08T07:32:37Z</time>
      </trkpt>
      <trkpt lat="44.73905" lon="-0.32683">
        <ele>137.89999389648</ele>
        <time>2011-05-08T07:32:39Z</time>
      </trkpt>
      <trkpt lat="44.73909" lon="-0.32678">
        <ele>137.5</ele>
        <time>2011-05-08T07:32:40Z</time>
      </trkpt>
      <trkpt lat="44.73918" lon="-0.32666">
        <ele>136.19999694824</ele>
        <time>2011-05-08T07:32:42Z</time>
      </trkpt>
      <trkpt lat="44.73924" lon="-0.32657">
        <ele>134.39999389648</ele>
        <time>2011-05-08T07:32:43Z</time>
      </trkpt>
      <trkpt lat="44.73927" lon="-0.3265">
        <ele>132.69999694824</ele>
        <time>2011-05-08T07:32:44Z</time>
      </trkpt>
      <trkpt lat="44.73931" lon="-0.32645">
        <ele>132.5</ele>
        <time>2011-05-08T07:32:45Z</time>
      </trkpt>
      <trkpt lat="44.73936" lon="-0.32642">
        <ele>131.89999389648</ele>
        <time>2011-05-08T07:32:46Z</time>
      </trkpt>
      <trkpt lat="44.73945" lon="-0.32631">
        <ele>132</ele>
        <time>2011-05-08T07:32:48Z</time>
      </trkpt>
      <trkpt lat="44.7395" lon="-0.32627">
        <ele>132.39999389648</ele>
        <time>2011-05-08T07:32:49Z</time>
      </trkpt>
      <trkpt lat="44.73956" lon="-0.32623">
        <ele>132.5</ele>
        <time>2011-05-08T07:32:50Z</time>
      </trkpt>
      <trkpt lat="44.73961" lon="-0.32618">
        <ele>132.19999694824</ele>
        <time>2011-05-08T07:32:51Z</time>
      </trkpt>
      <trkpt lat="44.7397" lon="-0.32609">
        <ele>132</ele>
        <time>2011-05-08T07:32:53Z</time>
      </trkpt>
      <trkpt lat="44.73974" lon="-0.32606">
        <ele>131.69999694824</ele>
        <time>2011-05-08T07:32:54Z</time>
      </trkpt>
      <trkpt lat="44.73981" lon="-0.32602">
        <ele>131.30000305176</ele>
        <time>2011-05-08T07:32:56Z</time>
      </trkpt>
      <trkpt lat="44.73987" lon="-0.32599">
        <ele>131.30000305176</ele>
        <time>2011-05-08T07:32:59Z</time>
      </trkpt>
      <trkpt lat="44.73994" lon="-0.32602">
        <ele>130.89999389648</ele>
        <time>2011-05-08T07:33:03Z</time>
      </trkpt>
      <trkpt lat="44.74001" lon="-0.326">
        <ele>130.30000305176</ele>
        <time>2011-05-08T07:33:06Z</time>
      </trkpt>
      <trkpt lat="44.74006" lon="-0.32602">
        <ele>129.89999389648</ele>
        <time>2011-05-08T07:33:08Z</time>
      </trkpt>
      <trkpt lat="44.74009" lon="-0.32608">
        <ele>128.5</ele>
        <time>2011-05-08T07:33:11Z</time>
      </trkpt>
      <trkpt lat="44.74014" lon="-0.3261">
        <ele>127.5</ele>
        <time>2011-05-08T07:33:15Z</time>
      </trkpt>
      <trkpt lat="44.74019" lon="-0.32609">
        <ele>127.40000152588</ele>
        <time>2011-05-08T07:33:20Z</time>
      </trkpt>
      <trkpt lat="44.74022" lon="-0.32614">
        <ele>126.30000305176</ele>
        <time>2011-05-08T07:33:22Z</time>
      </trkpt>
      <trkpt lat="44.74028" lon="-0.3262">
        <ele>124.30000305176</ele>
        <time>2011-05-08T07:33:24Z</time>
      </trkpt>
      <trkpt lat="44.74035" lon="-0.32616">
        <ele>123.80000305176</ele>
        <time>2011-05-08T07:33:38Z</time>
      </trkpt>
      <trkpt lat="44.74036" lon="-0.32605">
        <ele>125.09999847412</ele>
        <time>2011-05-08T07:33:42Z</time>
      </trkpt>
      <trkpt lat="44.7404" lon="-0.32601">
        <ele>125.09999847412</ele>
        <time>2011-05-08T07:33:44Z</time>
      </trkpt>
      <trkpt lat="44.74045" lon="-0.32598">
        <ele>125.5</ele>
        <time>2011-05-08T07:33:47Z</time>
      </trkpt>
      <trkpt lat="44.74049" lon="-0.32593">
        <ele>125.40000152588</ele>
        <time>2011-05-08T07:33:50Z</time>
      </trkpt>
      <trkpt lat="44.74054" lon="-0.32589">
        <ele>125.19999694824</ele>
        <time>2011-05-08T07:33:54Z</time>
      </trkpt>
      <trkpt lat="44.74058" lon="-0.32585">
        <ele>125.40000152588</ele>
        <time>2011-05-08T07:33:59Z</time>
      </trkpt>
      <trkpt lat="44.74063" lon="-0.32584">
        <ele>124.5</ele>
        <time>2011-05-08T07:34:03Z</time>
      </trkpt>
      <trkpt lat="44.74068" lon="-0.32583">
        <ele>124.30000305176</ele>
        <time>2011-05-08T07:34:08Z</time>
      </trkpt>
      <trkpt lat="44.74072" lon="-0.32578">
        <ele>123</ele>
        <time>2011-05-08T07:34:18Z</time>
      </trkpt>
      <trkpt lat="44.74076" lon="-0.32581">
        <ele>123.19999694824</ele>
        <time>2011-05-08T07:34:20Z</time>
      </trkpt>
      <trkpt lat="44.74071" lon="-0.32579">
        <ele>124.09999847412</ele>
        <time>2011-05-08T07:34:33Z</time>
      </trkpt>
      <trkpt lat="44.74078" lon="-0.32573">
        <ele>124.59999847412</ele>
        <time>2011-05-08T07:34:56Z</time>
      </trkpt>
      <trkpt lat="44.74083" lon="-0.32569">
        <ele>125.80000305176</ele>
        <time>2011-05-08T07:34:58Z</time>
      </trkpt>
      <trkpt lat="44.74087" lon="-0.32564">
        <ele>125.19999694824</ele>
        <time>2011-05-08T07:35:01Z</time>
      </trkpt>
      <trkpt lat="44.74091" lon="-0.32559">
        <ele>125.09999847412</ele>
        <time>2011-05-08T07:35:02Z</time>
      </trkpt>
      <trkpt lat="44.74095" lon="-0.32555">
        <ele>125.80000305176</ele>
        <time>2011-05-08T07:35:04Z</time>
      </trkpt>
      <trkpt lat="44.741" lon="-0.32551">
        <ele>126.40000152588</ele>
        <time>2011-05-08T07:35:07Z</time>
      </trkpt>
      <trkpt lat="44.74106" lon="-0.32549">
        <ele>125</ele>
        <time>2011-05-08T07:35:10Z</time>
      </trkpt>
      <trkpt lat="44.74112" lon="-0.3255">
        <ele>122.90000152588</ele>
        <time>2011-05-08T07:35:13Z</time>
      </trkpt>
      <trkpt lat="44.74118" lon="-0.32552">
        <ele>123.69999694824</ele>
        <time>2011-05-08T07:35:16Z</time>
      </trkpt>
      <trkpt lat="44.74123" lon="-0.32552">
        <ele>121.09999847412</ele>
        <time>2011-05-08T07:35:19Z</time>
      </trkpt>
      <trkpt lat="44.74128" lon="-0.32558">
        <ele>120.40000152588</ele>
        <time>2011-05-08T07:35:24Z</time>
      </trkpt>
      <trkpt lat="44.74127" lon="-0.32565">
        <ele>120.09999847412</ele>
        <time>2011-05-08T07:35:27Z</time>
      </trkpt>
      <trkpt lat="44.74129" lon="-0.3257">
        <ele>122.30000305176</ele>
        <time>2011-05-08T07:35:31Z</time>
      </trkpt>
      <trkpt lat="44.7413" lon="-0.32577">
        <ele>122.19999694824</ele>
        <time>2011-05-08T07:35:36Z</time>
      </trkpt>
      <trkpt lat="44.74131" lon="-0.32583">
        <ele>120.80000305176</ele>
        <time>2011-05-08T07:35:38Z</time>
      </trkpt>
      <trkpt lat="44.74132" lon="-0.32593">
        <ele>122</ele>
        <time>2011-05-08T07:35:42Z</time>
      </trkpt>
      <trkpt lat="44.74131" lon="-0.32601">
        <ele>123.40000152588</ele>
        <time>2011-05-08T07:35:46Z</time>
      </trkpt>
      <trkpt lat="44.74131" lon="-0.32609">
        <ele>123.30000305176</ele>
        <time>2011-05-08T07:35:49Z</time>
      </trkpt>
      <trkpt lat="44.74137" lon="-0.32607">
        <ele>126</ele>
        <time>2011-05-08T07:35:54Z</time>
      </trkpt>
      <trkpt lat="44.74142" lon="-0.32605">
        <ele>126</ele>
        <time>2011-05-08T07:35:57Z</time>
      </trkpt>
      <trkpt lat="44.74147" lon="-0.32602">
        <ele>125.30000305176</ele>
        <time>2011-05-08T07:36:00Z</time>
      </trkpt>
      <trkpt lat="44.74151" lon="-0.32599">
        <ele>126.59999847412</ele>
        <time>2011-05-08T07:36:03Z</time>
      </trkpt>
      <trkpt lat="44.74155" lon="-0.32596">
        <ele>127.59999847412</ele>
        <time>2011-05-08T07:36:05Z</time>
      </trkpt>
      <trkpt lat="44.74158" lon="-0.3259">
        <ele>127.30000305176</ele>
        <time>2011-05-08T07:36:07Z</time>
      </trkpt>
      <trkpt lat="44.74161" lon="-0.32584">
        <ele>127.69999694824</ele>
        <time>2011-05-08T07:36:09Z</time>
      </trkpt>
      <trkpt lat="44.74168" lon="-0.32577">
        <ele>128.10000610352</ele>
        <time>2011-05-08T07:36:11Z</time>
      </trkpt>
      <trkpt lat="44.74172" lon="-0.32574">
        <ele>128</ele>
        <time>2011-05-08T07:36:12Z</time>
      </trkpt>
      <trkpt lat="44.74176" lon="-0.32569">
        <ele>128.39999389648</ele>
        <time>2011-05-08T07:36:14Z</time>
      </trkpt>
      <trkpt lat="44.74178" lon="-0.32563">
        <ele>129.39999389648</ele>
        <time>2011-05-08T07:36:16Z</time>
      </trkpt>
      <trkpt lat="44.74183" lon="-0.32559">
        <ele>130.89999389648</ele>
        <time>2011-05-08T07:36:19Z</time>
      </trkpt>
      <trkpt lat="44.74191" lon="-0.32557">
        <ele>130.89999389648</ele>
        <time>2011-05-08T07:36:22Z</time>
      </trkpt>
      <trkpt lat="44.74194" lon="-0.32551">
        <ele>131.39999389648</ele>
        <time>2011-05-08T07:36:23Z</time>
      </trkpt>
      <trkpt lat="44.74199" lon="-0.32549">
        <ele>131</ele>
        <time>2011-05-08T07:36:24Z</time>
      </trkpt>
      <trkpt lat="44.74204" lon="-0.32546">
        <ele>129.69999694824</ele>
        <time>2011-05-08T07:36:27Z</time>
      </trkpt>
      <trkpt lat="44.74209" lon="-0.32543">
        <ele>127.5</ele>
        <time>2011-05-08T07:36:33Z</time>
      </trkpt>
      <trkpt lat="44.74212" lon="-0.32539">
        <ele>126.90000152588</ele>
        <time>2011-05-08T07:36:36Z</time>
      </trkpt>
      <trkpt lat="44.74218" lon="-0.3254">
        <ele>125.69999694824</ele>
        <time>2011-05-08T07:36:39Z</time>
      </trkpt>
      <trkpt lat="44.74221" lon="-0.32543">
        <ele>127.5</ele>
        <time>2011-05-08T07:36:46Z</time>
      </trkpt>
      <trkpt lat="44.7423" lon="-0.32544">
        <ele>127.90000152588</ele>
        <time>2011-05-08T07:36:48Z</time>
      </trkpt>
      <trkpt lat="44.74237" lon="-0.32544">
        <ele>127.30000305176</ele>
        <time>2011-05-08T07:36:50Z</time>
      </trkpt>
      <trkpt lat="44.74241" lon="-0.32544">
        <ele>127.09999847412</ele>
        <time>2011-05-08T07:36:52Z</time>
      </trkpt>
      <trkpt lat="44.74246" lon="-0.32541">
        <ele>127.09999847412</ele>
        <time>2011-05-08T07:36:54Z</time>
      </trkpt>
      <trkpt lat="44.7425" lon="-0.32536">
        <ele>126.69999694824</ele>
        <time>2011-05-08T07:36:58Z</time>
      </trkpt>
      <trkpt lat="44.74255" lon="-0.32531">
        <ele>126.30000305176</ele>
        <time>2011-05-08T07:37:00Z</time>
      </trkpt>
      <trkpt lat="44.74259" lon="-0.32528">
        <ele>127</ele>
        <time>2011-05-08T07:37:03Z</time>
      </trkpt>
      <trkpt lat="44.74264" lon="-0.32527">
        <ele>126.90000152588</ele>
        <time>2011-05-08T07:37:06Z</time>
      </trkpt>
      <trkpt lat="44.74269" lon="-0.32525">
        <ele>127</ele>
        <time>2011-05-08T07:37:09Z</time>
      </trkpt>
      <trkpt lat="44.74274" lon="-0.32526">
        <ele>126.80000305176</ele>
        <time>2011-05-08T07:37:11Z</time>
      </trkpt>
      <trkpt lat="44.74279" lon="-0.32522">
        <ele>126.69999694824</ele>
        <time>2011-05-08T07:37:18Z</time>
      </trkpt>
      <trkpt lat="44.74284" lon="-0.32518">
        <ele>126.90000152588</ele>
        <time>2011-05-08T07:37:20Z</time>
      </trkpt>
      <trkpt lat="44.74288" lon="-0.32514">
        <ele>128.19999694824</ele>
        <time>2011-05-08T07:37:23Z</time>
      </trkpt>
      <trkpt lat="44.74292" lon="-0.32507">
        <ele>129.19999694824</ele>
        <time>2011-05-08T07:37:26Z</time>
      </trkpt>
      <trkpt lat="44.74296" lon="-0.32503">
        <ele>128.69999694824</ele>
        <time>2011-05-08T07:37:28Z</time>
      </trkpt>
      <trkpt lat="44.743" lon="-0.32499">
        <ele>129.30000305176</ele>
        <time>2011-05-08T07:37:30Z</time>
      </trkpt>
      <trkpt lat="44.74306" lon="-0.32495">
        <ele>130</ele>
        <time>2011-05-08T07:37:34Z</time>
      </trkpt>
      <trkpt lat="44.74312" lon="-0.32492">
        <ele>131.19999694824</ele>
        <time>2011-05-08T07:37:37Z</time>
      </trkpt>
      <trkpt lat="44.74317" lon="-0.32489">
        <ele>130.39999389648</ele>
        <time>2011-05-08T07:37:39Z</time>
      </trkpt>
      <trkpt lat="44.74325" lon="-0.32483">
        <ele>130.30000305176</ele>
        <time>2011-05-08T07:37:42Z</time>
      </trkpt>
      <trkpt lat="44.74329" lon="-0.32479">
        <ele>130.69999694824</ele>
        <time>2011-05-08T07:37:44Z</time>
      </trkpt>
      <trkpt lat="44.74335" lon="-0.32471">
        <ele>130.80000305176</ele>
        <time>2011-05-08T07:37:46Z</time>
      </trkpt>
      <trkpt lat="44.74339" lon="-0.32467">
        <ele>130.60000610352</ele>
        <time>2011-05-08T07:37:47Z</time>
      </trkpt>
      <trkpt lat="44.74348" lon="-0.32463">
        <ele>128.39999389648</ele>
        <time>2011-05-08T07:37:49Z</time>
      </trkpt>
      <trkpt lat="44.74352" lon="-0.32458">
        <ele>128.89999389648</ele>
        <time>2011-05-08T07:37:51Z</time>
      </trkpt>
      <trkpt lat="44.74355" lon="-0.32453">
        <ele>129.69999694824</ele>
        <time>2011-05-08T07:37:54Z</time>
      </trkpt>
      <trkpt lat="44.74357" lon="-0.32447">
        <ele>130</ele>
        <time>2011-05-08T07:37:56Z</time>
      </trkpt>
      <trkpt lat="44.74355" lon="-0.32441">
        <ele>131</ele>
        <time>2011-05-08T07:37:58Z</time>
      </trkpt>
      <trkpt lat="44.74356" lon="-0.32431">
        <ele>131.5</ele>
        <time>2011-05-08T07:38:00Z</time>
      </trkpt>
      <trkpt lat="44.74354" lon="-0.32422">
        <ele>132.5</ele>
        <time>2011-05-08T07:38:02Z</time>
      </trkpt>
      <trkpt lat="44.7435" lon="-0.32416">
        <ele>134.10000610352</ele>
        <time>2011-05-08T07:38:04Z</time>
      </trkpt>
      <trkpt lat="44.74345" lon="-0.32404">
        <ele>135.39999389648</ele>
        <time>2011-05-08T07:38:06Z</time>
      </trkpt>
      <trkpt lat="44.74343" lon="-0.32396">
        <ele>136</ele>
        <time>2011-05-08T07:38:08Z</time>
      </trkpt>
      <trkpt lat="44.74339" lon="-0.32388">
        <ele>136.5</ele>
        <time>2011-05-08T07:38:11Z</time>
      </trkpt>
      <trkpt lat="44.74335" lon="-0.32382">
        <ele>136.89999389648</ele>
        <time>2011-05-08T07:38:14Z</time>
      </trkpt>
      <trkpt lat="44.74332" lon="-0.32376">
        <ele>136</ele>
        <time>2011-05-08T07:38:17Z</time>
      </trkpt>
      <trkpt lat="44.74331" lon="-0.32366">
        <ele>132.60000610352</ele>
        <time>2011-05-08T07:38:34Z</time>
      </trkpt>
      <trkpt lat="44.74331" lon="-0.32359">
        <ele>132.30000305176</ele>
        <time>2011-05-08T07:38:38Z</time>
      </trkpt>
      <trkpt lat="44.74332" lon="-0.32347">
        <ele>131.69999694824</ele>
        <time>2011-05-08T07:38:42Z</time>
      </trkpt>
      <trkpt lat="44.7433" lon="-0.32341">
        <ele>130.10000610352</ele>
        <time>2011-05-08T07:38:44Z</time>
      </trkpt>
      <trkpt lat="44.74325" lon="-0.3234">
        <ele>129.30000305176</ele>
        <time>2011-05-08T07:38:48Z</time>
      </trkpt>
      <trkpt lat="44.7432" lon="-0.32337">
        <ele>128.30000305176</ele>
        <time>2011-05-08T07:38:52Z</time>
      </trkpt>
      <trkpt lat="44.74318" lon="-0.3233">
        <ele>124.59999847412</ele>
        <time>2011-05-08T07:38:54Z</time>
      </trkpt>
      <trkpt lat="44.74316" lon="-0.32324">
        <ele>123.19999694824</ele>
        <time>2011-05-08T07:39:05Z</time>
      </trkpt>
      <trkpt lat="44.74317" lon="-0.32324">
        <ele>123.59999847412</ele>
        <time>2011-05-08T07:39:23Z</time>
      </trkpt>
      <trkpt lat="44.74315" lon="-0.32323">
        <ele>123.90000152588</ele>
        <time>2011-05-08T07:39:53Z</time>
      </trkpt>
      <trkpt lat="44.74312" lon="-0.32322">
        <ele>124.19999694824</ele>
        <time>2011-05-08T07:39:54Z</time>
      </trkpt>
      <trkpt lat="44.74308" lon="-0.32317">
        <ele>123.90000152588</ele>
        <time>2011-05-08T07:39:59Z</time>
      </trkpt>
      <trkpt lat="44.74302" lon="-0.32317">
        <ele>123.69999694824</ele>
        <time>2011-05-08T07:40:02Z</time>
      </trkpt>
      <trkpt lat="44.74293" lon="-0.32314">
        <ele>124</ele>
        <time>2011-05-08T07:40:06Z</time>
      </trkpt>
      <trkpt lat="44.74284" lon="-0.32313">
        <ele>123.30000305176</ele>
        <time>2011-05-08T07:40:08Z</time>
      </trkpt>
      <trkpt lat="44.7428" lon="-0.32307">
        <ele>122.5</ele>
        <time>2011-05-08T07:40:10Z</time>
      </trkpt>
      <trkpt lat="44.74276" lon="-0.32302">
        <ele>121.09999847412</ele>
        <time>2011-05-08T07:40:12Z</time>
      </trkpt>
      <trkpt lat="44.74274" lon="-0.32296">
        <ele>120</ele>
        <time>2011-05-08T07:40:14Z</time>
      </trkpt>
      <trkpt lat="44.74271" lon="-0.3229">
        <ele>119.69999694824</ele>
        <time>2011-05-08T07:40:16Z</time>
      </trkpt>
      <trkpt lat="44.74269" lon="-0.32281">
        <ele>119.09999847412</ele>
        <time>2011-05-08T07:40:18Z</time>
      </trkpt>
      <trkpt lat="44.74266" lon="-0.32271">
        <ele>120.19999694824</ele>
        <time>2011-05-08T07:40:20Z</time>
      </trkpt>
      <trkpt lat="44.74264" lon="-0.32262">
        <ele>119.59999847412</ele>
        <time>2011-05-08T07:40:22Z</time>
      </trkpt>
      <trkpt lat="44.74262" lon="-0.32255">
        <ele>117.30000305176</ele>
        <time>2011-05-08T07:40:24Z</time>
      </trkpt>
      <trkpt lat="44.74259" lon="-0.32248">
        <ele>116.90000152588</ele>
        <time>2011-05-08T07:40:26Z</time>
      </trkpt>
      <trkpt lat="44.74257" lon="-0.32242">
        <ele>116</ele>
        <time>2011-05-08T07:40:28Z</time>
      </trkpt>
      <trkpt lat="44.74255" lon="-0.32235">
        <ele>116.69999694824</ele>
        <time>2011-05-08T07:40:31Z</time>
      </trkpt>
      <trkpt lat="44.7425" lon="-0.32236">
        <ele>114</ele>
        <time>2011-05-08T07:40:34Z</time>
      </trkpt>
      <trkpt lat="44.74245" lon="-0.32239">
        <ele>114</ele>
        <time>2011-05-08T07:40:38Z</time>
      </trkpt>
      <trkpt lat="44.74237" lon="-0.32244">
        <ele>114.59999847412</ele>
        <time>2011-05-08T07:40:42Z</time>
      </trkpt>
      <trkpt lat="44.74231" lon="-0.3225">
        <ele>114.5</ele>
        <time>2011-05-08T07:40:45Z</time>
      </trkpt>
      <trkpt lat="44.74226" lon="-0.32256">
        <ele>115.30000305176</ele>
        <time>2011-05-08T07:40:48Z</time>
      </trkpt>
      <trkpt lat="44.74221" lon="-0.32258">
        <ele>115.40000152588</ele>
        <time>2011-05-08T07:40:50Z</time>
      </trkpt>
      <trkpt lat="44.74216" lon="-0.32261">
        <ele>115.69999694824</ele>
        <time>2011-05-08T07:40:53Z</time>
      </trkpt>
      <trkpt lat="44.74212" lon="-0.32264">
        <ele>115.5</ele>
        <time>2011-05-08T07:40:55Z</time>
      </trkpt>
      <trkpt lat="44.74206" lon="-0.32267">
        <ele>115.69999694824</ele>
        <time>2011-05-08T07:40:57Z</time>
      </trkpt>
      <trkpt lat="44.74201" lon="-0.32271">
        <ele>116.30000305176</ele>
        <time>2011-05-08T07:40:59Z</time>
      </trkpt>
      <trkpt lat="44.74197" lon="-0.32275">
        <ele>117.19999694824</ele>
        <time>2011-05-08T07:41:01Z</time>
      </trkpt>
      <trkpt lat="44.74193" lon="-0.3228">
        <ele>116.69999694824</ele>
        <time>2011-05-08T07:41:03Z</time>
      </trkpt>
      <trkpt lat="44.74187" lon="-0.32283">
        <ele>116.19999694824</ele>
        <time>2011-05-08T07:41:05Z</time>
      </trkpt>
      <trkpt lat="44.74183" lon="-0.32287">
        <ele>115.90000152588</ele>
        <time>2011-05-08T07:41:07Z</time>
      </trkpt>
      <trkpt lat="44.74177" lon="-0.32291">
        <ele>115.69999694824</ele>
        <time>2011-05-08T07:41:09Z</time>
      </trkpt>
      <trkpt lat="44.74171" lon="-0.32293">
        <ele>115.5</ele>
        <time>2011-05-08T07:41:11Z</time>
      </trkpt>
      <trkpt lat="44.74164" lon="-0.32297">
        <ele>115.09999847412</ele>
        <time>2011-05-08T07:41:13Z</time>
      </trkpt>
      <trkpt lat="44.74158" lon="-0.32303">
        <ele>115.90000152588</ele>
        <time>2011-05-08T07:41:15Z</time>
      </trkpt>
      <trkpt lat="44.74154" lon="-0.32308">
        <ele>115.09999847412</ele>
        <time>2011-05-08T07:41:17Z</time>
      </trkpt>
      <trkpt lat="44.74149" lon="-0.32313">
        <ele>115.19999694824</ele>
        <time>2011-05-08T07:41:19Z</time>
      </trkpt>
      <trkpt lat="44.74142" lon="-0.32318">
        <ele>113.80000305176</ele>
        <time>2011-05-08T07:41:21Z</time>
      </trkpt>
      <trkpt lat="44.74135" lon="-0.32321">
        <ele>113.90000152588</ele>
        <time>2011-05-08T07:41:23Z</time>
      </trkpt>
      <trkpt lat="44.74127" lon="-0.32323">
        <ele>112.90000152588</ele>
        <time>2011-05-08T07:41:25Z</time>
      </trkpt>
      <trkpt lat="44.74122" lon="-0.32327">
        <ele>113</ele>
        <time>2011-05-08T07:41:26Z</time>
      </trkpt>
      <trkpt lat="44.7411" lon="-0.32332">
        <ele>112.90000152588</ele>
        <time>2011-05-08T07:41:28Z</time>
      </trkpt>
      <trkpt lat="44.74104" lon="-0.32337">
        <ele>113</ele>
        <time>2011-05-08T07:41:29Z</time>
      </trkpt>
      <trkpt lat="44.74098" lon="-0.32341">
        <ele>112.80000305176</ele>
        <time>2011-05-08T07:41:30Z</time>
      </trkpt>
      <trkpt lat="44.74091" lon="-0.32347">
        <ele>113.69999694824</ele>
        <time>2011-05-08T07:41:31Z</time>
      </trkpt>
      <trkpt lat="44.74084" lon="-0.32353">
        <ele>113.80000305176</ele>
        <time>2011-05-08T07:41:32Z</time>
      </trkpt>
      <trkpt lat="44.74078" lon="-0.32358">
        <ele>113.90000152588</ele>
        <time>2011-05-08T07:41:33Z</time>
      </trkpt>
      <trkpt lat="44.74074" lon="-0.32364">
        <ele>114.90000152588</ele>
        <time>2011-05-08T07:41:34Z</time>
      </trkpt>
      <trkpt lat="44.74068" lon="-0.32367">
        <ele>114.5</ele>
        <time>2011-05-08T07:41:35Z</time>
      </trkpt>
      <trkpt lat="44.74062" lon="-0.32371">
        <ele>114.59999847412</ele>
        <time>2011-05-08T07:41:36Z</time>
      </trkpt>
      <trkpt lat="44.74058" lon="-0.32376">
        <ele>114.09999847412</ele>
        <time>2011-05-08T07:41:37Z</time>
      </trkpt>
      <trkpt lat="44.74053" lon="-0.32379">
        <ele>113.80000305176</ele>
        <time>2011-05-08T07:41:38Z</time>
      </trkpt>
      <trkpt lat="44.74046" lon="-0.32388">
        <ele>113.30000305176</ele>
        <time>2011-05-08T07:41:40Z</time>
      </trkpt>
      <trkpt lat="44.74038" lon="-0.32395">
        <ele>113.59999847412</ele>
        <time>2011-05-08T07:41:42Z</time>
      </trkpt>
      <trkpt lat="44.74031" lon="-0.324">
        <ele>114.19999694824</ele>
        <time>2011-05-08T07:41:44Z</time>
      </trkpt>
      <trkpt lat="44.74027" lon="-0.32402">
        <ele>114.30000305176</ele>
        <time>2011-05-08T07:41:45Z</time>
      </trkpt>
      <trkpt lat="44.74022" lon="-0.32407">
        <ele>114.5</ele>
        <time>2011-05-08T07:41:46Z</time>
      </trkpt>
      <trkpt lat="44.74017" lon="-0.32411">
        <ele>114.40000152588</ele>
        <time>2011-05-08T07:41:47Z</time>
      </trkpt>
      <trkpt lat="44.74012" lon="-0.32415">
        <ele>114.5</ele>
        <time>2011-05-08T07:41:48Z</time>
      </trkpt>
      <trkpt lat="44.74007" lon="-0.32419">
        <ele>113.90000152588</ele>
        <time>2011-05-08T07:41:49Z</time>
      </trkpt>
      <trkpt lat="44.74002" lon="-0.32423">
        <ele>113.90000152588</ele>
        <time>2011-05-08T07:41:50Z</time>
      </trkpt>
      <trkpt lat="44.73997" lon="-0.32428">
        <ele>114.09999847412</ele>
        <time>2011-05-08T07:41:51Z</time>
      </trkpt>
      <trkpt lat="44.73992" lon="-0.32432">
        <ele>114</ele>
        <time>2011-05-08T07:41:52Z</time>
      </trkpt>
      <trkpt lat="44.73985" lon="-0.32437">
        <ele>114.19999694824</ele>
        <time>2011-05-08T07:41:53Z</time>
      </trkpt>
      <trkpt lat="44.73978" lon="-0.32441">
        <ele>114.30000305176</ele>
        <time>2011-05-08T07:41:54Z</time>
      </trkpt>
      <trkpt lat="44.73973" lon="-0.32446">
        <ele>113.90000152588</ele>
        <time>2011-05-08T07:41:55Z</time>
      </trkpt>
      <trkpt lat="44.73968" lon="-0.32451">
        <ele>113.30000305176</ele>
        <time>2011-05-08T07:41:56Z</time>
      </trkpt>
      <trkpt lat="44.73962" lon="-0.32455">
        <ele>113.5</ele>
        <time>2011-05-08T07:41:57Z</time>
      </trkpt>
      <trkpt lat="44.73958" lon="-0.32458">
        <ele>113.40000152588</ele>
        <time>2011-05-08T07:41:58Z</time>
      </trkpt>
      <trkpt lat="44.73953" lon="-0.32461">
        <ele>114.30000305176</ele>
        <time>2011-05-08T07:41:59Z</time>
      </trkpt>
      <trkpt lat="44.73948" lon="-0.32466">
        <ele>114.19999694824</ele>
        <time>2011-05-08T07:42:00Z</time>
      </trkpt>
      <trkpt lat="44.73942" lon="-0.32469">
        <ele>113.69999694824</ele>
        <time>2011-05-08T07:42:01Z</time>
      </trkpt>
      <trkpt lat="44.73936" lon="-0.32473">
        <ele>113.80000305176</ele>
        <time>2011-05-08T07:42:02Z</time>
      </trkpt>
      <trkpt lat="44.73931" lon="-0.32476">
        <ele>113.80000305176</ele>
        <time>2011-05-08T07:42:03Z</time>
      </trkpt>
      <trkpt lat="44.73927" lon="-0.3248">
        <ele>113.90000152588</ele>
        <time>2011-05-08T07:42:04Z</time>
      </trkpt>
      <trkpt lat="44.73919" lon="-0.32485">
        <ele>114</ele>
        <time>2011-05-08T07:42:06Z</time>
      </trkpt>
      <trkpt lat="44.73913" lon="-0.32479">
        <ele>113.80000305176</ele>
        <time>2011-05-08T07:42:09Z</time>
      </trkpt>
      <trkpt lat="44.7391" lon="-0.32472">
        <ele>112.90000152588</ele>
        <time>2011-05-08T07:42:11Z</time>
      </trkpt>
      <trkpt lat="44.73905" lon="-0.32465">
        <ele>112.90000152588</ele>
        <time>2011-05-08T07:42:14Z</time>
      </trkpt>
      <trkpt lat="44.739" lon="-0.32458">
        <ele>112.80000305176</ele>
        <time>2011-05-08T07:42:16Z</time>
      </trkpt>
      <trkpt lat="44.73896" lon="-0.32449">
        <ele>112.69999694824</ele>
        <time>2011-05-08T07:42:18Z</time>
      </trkpt>
      <trkpt lat="44.73891" lon="-0.32444">
        <ele>114.5</ele>
        <time>2011-05-08T07:42:22Z</time>
      </trkpt>
      <trkpt lat="44.73889" lon="-0.32438">
        <ele>113.5</ele>
        <time>2011-05-08T07:42:24Z</time>
      </trkpt>
      <trkpt lat="44.73885" lon="-0.32431">
        <ele>113.69999694824</ele>
        <time>2011-05-08T07:42:27Z</time>
      </trkpt>
      <trkpt lat="44.73882" lon="-0.32425">
        <ele>112.90000152588</ele>
        <time>2011-05-08T07:42:30Z</time>
      </trkpt>
      <trkpt lat="44.73878" lon="-0.32419">
        <ele>114</ele>
        <time>2011-05-08T07:42:34Z</time>
      </trkpt>
      <trkpt lat="44.73876" lon="-0.32413">
        <ele>114.5</ele>
        <time>2011-05-08T07:42:36Z</time>
      </trkpt>
      <trkpt lat="44.73874" lon="-0.32405">
        <ele>115.69999694824</ele>
        <time>2011-05-08T07:42:40Z</time>
      </trkpt>
      <trkpt lat="44.7387" lon="-0.32399">
        <ele>115.30000305176</ele>
        <time>2011-05-08T07:42:43Z</time>
      </trkpt>
      <trkpt lat="44.73869" lon="-0.32393">
        <ele>116.40000152588</ele>
        <time>2011-05-08T07:42:45Z</time>
      </trkpt>
      <trkpt lat="44.73866" lon="-0.32385">
        <ele>116.5</ele>
        <time>2011-05-08T07:42:49Z</time>
      </trkpt>
      <trkpt lat="44.73863" lon="-0.32378">
        <ele>118.30000305176</ele>
        <time>2011-05-08T07:42:52Z</time>
      </trkpt>
      <trkpt lat="44.73859" lon="-0.3237">
        <ele>118</ele>
        <time>2011-05-08T07:42:55Z</time>
      </trkpt>
      <trkpt lat="44.73857" lon="-0.32364">
        <ele>119.59999847412</ele>
        <time>2011-05-08T07:42:57Z</time>
      </trkpt>
      <trkpt lat="44.73852" lon="-0.32359">
        <ele>121.90000152588</ele>
        <time>2011-05-08T07:43:00Z</time>
      </trkpt>
      <trkpt lat="44.7385" lon="-0.32353">
        <ele>122.19999694824</ele>
        <time>2011-05-08T07:43:03Z</time>
      </trkpt>
      <trkpt lat="44.73846" lon="-0.32347">
        <ele>123</ele>
        <time>2011-05-08T07:43:06Z</time>
      </trkpt>
      <trkpt lat="44.73843" lon="-0.32342">
        <ele>124</ele>
        <time>2011-05-08T07:43:08Z</time>
      </trkpt>
      <trkpt lat="44.73841" lon="-0.32335">
        <ele>124.90000152588</ele>
        <time>2011-05-08T07:43:11Z</time>
      </trkpt>
      <trkpt lat="44.73838" lon="-0.32331">
        <ele>126.19999694824</ele>
        <time>2011-05-08T07:43:13Z</time>
      </trkpt>
      <trkpt lat="44.73835" lon="-0.32324">
        <ele>126.40000152588</ele>
        <time>2011-05-08T07:43:15Z</time>
      </trkpt>
      <trkpt lat="44.7383" lon="-0.32315">
        <ele>127</ele>
        <time>2011-05-08T07:43:18Z</time>
      </trkpt>
      <trkpt lat="44.73828" lon="-0.32307">
        <ele>128</ele>
        <time>2011-05-08T07:43:21Z</time>
      </trkpt>
      <trkpt lat="44.73825" lon="-0.32299">
        <ele>129.5</ele>
        <time>2011-05-08T07:43:24Z</time>
      </trkpt>
      <trkpt lat="44.73823" lon="-0.32293">
        <ele>130.19999694824</ele>
        <time>2011-05-08T07:43:26Z</time>
      </trkpt>
      <trkpt lat="44.73817" lon="-0.32291">
        <ele>130.80000305176</ele>
        <time>2011-05-08T07:43:28Z</time>
      </trkpt>
      <trkpt lat="44.73812" lon="-0.32291">
        <ele>130.39999389648</ele>
        <time>2011-05-08T07:43:30Z</time>
      </trkpt>
      <trkpt lat="44.73807" lon="-0.32295">
        <ele>130.19999694824</ele>
        <time>2011-05-08T07:43:32Z</time>
      </trkpt>
      <trkpt lat="44.73802" lon="-0.32302">
        <ele>129.5</ele>
        <time>2011-05-08T07:43:34Z</time>
      </trkpt>
      <trkpt lat="44.73797" lon="-0.32312">
        <ele>129.5</ele>
        <time>2011-05-08T07:43:36Z</time>
      </trkpt>
      <trkpt lat="44.73794" lon="-0.32317">
        <ele>129.39999389648</ele>
        <time>2011-05-08T07:43:37Z</time>
      </trkpt>
      <trkpt lat="44.7379" lon="-0.32322">
        <ele>128.69999694824</ele>
        <time>2011-05-08T07:43:38Z</time>
      </trkpt>
      <trkpt lat="44.73787" lon="-0.32327">
        <ele>128.80000305176</ele>
        <time>2011-05-08T07:43:39Z</time>
      </trkpt>
      <trkpt lat="44.73784" lon="-0.32332">
        <ele>128.89999389648</ele>
        <time>2011-05-08T07:43:40Z</time>
      </trkpt>
      <trkpt lat="44.73777" lon="-0.32341">
        <ele>128.19999694824</ele>
        <time>2011-05-08T07:43:42Z</time>
      </trkpt>
      <trkpt lat="44.73774" lon="-0.32346">
        <ele>128.39999389648</ele>
        <time>2011-05-08T07:43:43Z</time>
      </trkpt>
      <trkpt lat="44.7377" lon="-0.3235">
        <ele>128.19999694824</ele>
        <time>2011-05-08T07:43:44Z</time>
      </trkpt>
      <trkpt lat="44.73765" lon="-0.32358">
        <ele>128.30000305176</ele>
        <time>2011-05-08T07:43:46Z</time>
      </trkpt>
      <trkpt lat="44.73758" lon="-0.32365">
        <ele>128.5</ele>
        <time>2011-05-08T07:43:48Z</time>
      </trkpt>
      <trkpt lat="44.73756" lon="-0.3237">
        <ele>128.39999389648</ele>
        <time>2011-05-08T07:43:49Z</time>
      </trkpt>
      <trkpt lat="44.73751" lon="-0.3238">
        <ele>129</ele>
        <time>2011-05-08T07:43:51Z</time>
      </trkpt>
      <trkpt lat="44.73748" lon="-0.32385">
        <ele>129.19999694824</ele>
        <time>2011-05-08T07:43:52Z</time>
      </trkpt>
      <trkpt lat="44.73744" lon="-0.32392">
        <ele>129.19999694824</ele>
        <time>2011-05-08T07:43:54Z</time>
      </trkpt>
      <trkpt lat="44.73743" lon="-0.32402">
        <ele>129.5</ele>
        <time>2011-05-08T07:43:56Z</time>
      </trkpt>
      <trkpt lat="44.73745" lon="-0.32411">
        <ele>129.60000610352</ele>
        <time>2011-05-08T07:43:58Z</time>
      </trkpt>
      <trkpt lat="44.73745" lon="-0.3242">
        <ele>129.60000610352</ele>
        <time>2011-05-08T07:44:00Z</time>
      </trkpt>
      <trkpt lat="44.73745" lon="-0.32429">
        <ele>130.89999389648</ele>
        <time>2011-05-08T07:44:03Z</time>
      </trkpt>
      <trkpt lat="44.73742" lon="-0.32437">
        <ele>131.10000610352</ele>
        <time>2011-05-08T07:44:05Z</time>
      </trkpt>
      <trkpt lat="44.73743" lon="-0.32449">
        <ele>132</ele>
        <time>2011-05-08T07:44:07Z</time>
      </trkpt>
      <trkpt lat="44.73743" lon="-0.32456">
        <ele>132.30000305176</ele>
        <time>2011-05-08T07:44:08Z</time>
      </trkpt>
      <trkpt lat="44.73741" lon="-0.32462">
        <ele>132.60000610352</ele>
        <time>2011-05-08T07:44:09Z</time>
      </trkpt>
      <trkpt lat="44.73737" lon="-0.32472">
        <ele>132.39999389648</ele>
        <time>2011-05-08T07:44:11Z</time>
      </trkpt>
      <trkpt lat="44.73735" lon="-0.32481">
        <ele>133.10000610352</ele>
        <time>2011-05-08T07:44:13Z</time>
      </trkpt>
      <trkpt lat="44.73731" lon="-0.32489">
        <ele>133.30000305176</ele>
        <time>2011-05-08T07:44:15Z</time>
      </trkpt>
      <trkpt lat="44.73724" lon="-0.32498">
        <ele>132.69999694824</ele>
        <time>2011-05-08T07:44:17Z</time>
      </trkpt>
      <trkpt lat="44.7372" lon="-0.32502">
        <ele>132.5</ele>
        <time>2011-05-08T07:44:18Z</time>
      </trkpt>
      <trkpt lat="44.73715" lon="-0.32512">
        <ele>132.69999694824</ele>
        <time>2011-05-08T07:44:20Z</time>
      </trkpt>
      <trkpt lat="44.73711" lon="-0.32521">
        <ele>133.30000305176</ele>
        <time>2011-05-08T07:44:22Z</time>
      </trkpt>
      <trkpt lat="44.7371" lon="-0.32529">
        <ele>134.10000610352</ele>
        <time>2011-05-08T07:44:23Z</time>
      </trkpt>
      <trkpt lat="44.7371" lon="-0.32538">
        <ele>134.60000610352</ele>
        <time>2011-05-08T07:44:24Z</time>
      </trkpt>
      <trkpt lat="44.73711" lon="-0.32545">
        <ele>135.30000305176</ele>
        <time>2011-05-08T07:44:25Z</time>
      </trkpt>
      <trkpt lat="44.73709" lon="-0.32551">
        <ele>135.5</ele>
        <time>2011-05-08T07:44:26Z</time>
      </trkpt>
      <trkpt lat="44.73706" lon="-0.32557">
        <ele>136.60000610352</ele>
        <time>2011-05-08T07:44:27Z</time>
      </trkpt>
      <trkpt lat="44.73701" lon="-0.32564">
        <ele>137.39999389648</ele>
        <time>2011-05-08T07:44:28Z</time>
      </trkpt>
      <trkpt lat="44.73699" lon="-0.3257">
        <ele>137.30000305176</ele>
        <time>2011-05-08T07:44:29Z</time>
      </trkpt>
      <trkpt lat="44.73698" lon="-0.32579">
        <ele>137.30000305176</ele>
        <time>2011-05-08T07:44:30Z</time>
      </trkpt>
      <trkpt lat="44.73695" lon="-0.32585">
        <ele>137.60000610352</ele>
        <time>2011-05-08T07:44:31Z</time>
      </trkpt>
      <trkpt lat="44.73696" lon="-0.32594">
        <ele>137.19999694824</ele>
        <time>2011-05-08T07:44:32Z</time>
      </trkpt>
      <trkpt lat="44.73696" lon="-0.326">
        <ele>137.10000610352</ele>
        <time>2011-05-08T07:44:33Z</time>
      </trkpt>
      <trkpt lat="44.73691" lon="-0.32607">
        <ele>136.39999389648</ele>
        <time>2011-05-08T07:44:34Z</time>
      </trkpt>
      <trkpt lat="44.73685" lon="-0.32611">
        <ele>136.89999389648</ele>
        <time>2011-05-08T07:44:35Z</time>
      </trkpt>
      <trkpt lat="44.73681" lon="-0.32617">
        <ele>137</ele>
        <time>2011-05-08T07:44:37Z</time>
      </trkpt>
      <trkpt lat="44.73677" lon="-0.32624">
        <ele>136.89999389648</ele>
        <time>2011-05-08T07:44:38Z</time>
      </trkpt>
      <trkpt lat="44.73671" lon="-0.32629">
        <ele>137.19999694824</ele>
        <time>2011-05-08T07:44:39Z</time>
      </trkpt>
      <trkpt lat="44.73668" lon="-0.32635">
        <ele>136.80000305176</ele>
        <time>2011-05-08T07:44:40Z</time>
      </trkpt>
      <trkpt lat="44.7366" lon="-0.32645">
        <ele>136.69999694824</ele>
        <time>2011-05-08T07:44:42Z</time>
      </trkpt>
      <trkpt lat="44.73654" lon="-0.32649">
        <ele>136.60000610352</ele>
        <time>2011-05-08T07:44:43Z</time>
      </trkpt>
      <trkpt lat="44.73649" lon="-0.32653">
        <ele>135.5</ele>
        <time>2011-05-08T07:44:44Z</time>
      </trkpt>
      <trkpt lat="44.73642" lon="-0.32662">
        <ele>135.10000610352</ele>
        <time>2011-05-08T07:44:46Z</time>
      </trkpt>
      <trkpt lat="44.73641" lon="-0.32668">
        <ele>134.60000610352</ele>
        <time>2011-05-08T07:44:47Z</time>
      </trkpt>
      <trkpt lat="44.7364" lon="-0.32674">
        <ele>135.19999694824</ele>
        <time>2011-05-08T07:44:48Z</time>
      </trkpt>
      <trkpt lat="44.73636" lon="-0.32679">
        <ele>135.69999694824</ele>
        <time>2011-05-08T07:44:49Z</time>
      </trkpt>
      <trkpt lat="44.73627" lon="-0.32689">
        <ele>133.60000610352</ele>
        <time>2011-05-08T07:44:51Z</time>
      </trkpt>
      <trkpt lat="44.73622" lon="-0.32692">
        <ele>132.19999694824</ele>
        <time>2011-05-08T07:44:52Z</time>
      </trkpt>
      <trkpt lat="44.73614" lon="-0.32696">
        <ele>130.60000610352</ele>
        <time>2011-05-08T07:44:54Z</time>
      </trkpt>
      <trkpt lat="44.73608" lon="-0.32699">
        <ele>130</ele>
        <time>2011-05-08T07:44:56Z</time>
      </trkpt>
      <trkpt lat="44.73603" lon="-0.32706">
        <ele>129.19999694824</ele>
        <time>2011-05-08T07:44:58Z</time>
      </trkpt>
      <trkpt lat="44.73598" lon="-0.3271">
        <ele>128.39999389648</ele>
        <time>2011-05-08T07:44:59Z</time>
      </trkpt>
      <trkpt lat="44.73594" lon="-0.32714">
        <ele>127.80000305176</ele>
        <time>2011-05-08T07:45:00Z</time>
      </trkpt>
      <trkpt lat="44.73589" lon="-0.32716">
        <ele>127.69999694824</ele>
        <time>2011-05-08T07:45:01Z</time>
      </trkpt>
      <trkpt lat="44.73585" lon="-0.32722">
        <ele>127.69999694824</ele>
        <time>2011-05-08T07:45:03Z</time>
      </trkpt>
      <trkpt lat="44.73576" lon="-0.32731">
        <ele>127</ele>
        <time>2011-05-08T07:45:05Z</time>
      </trkpt>
      <trkpt lat="44.7357" lon="-0.32735">
        <ele>126.69999694824</ele>
        <time>2011-05-08T07:45:06Z</time>
      </trkpt>
      <trkpt lat="44.73564" lon="-0.32738">
        <ele>126.30000305176</ele>
        <time>2011-05-08T07:45:07Z</time>
      </trkpt>
      <trkpt lat="44.73554" lon="-0.32742">
        <ele>126.19999694824</ele>
        <time>2011-05-08T07:45:08Z</time>
      </trkpt>
      <trkpt lat="44.73548" lon="-0.32747">
        <ele>126.19999694824</ele>
        <time>2011-05-08T07:45:09Z</time>
      </trkpt>
      <trkpt lat="44.73543" lon="-0.32751">
        <ele>125.90000152588</ele>
        <time>2011-05-08T07:45:10Z</time>
      </trkpt>
      <trkpt lat="44.73538" lon="-0.32752">
        <ele>125.69999694824</ele>
        <time>2011-05-08T07:45:11Z</time>
      </trkpt>
      <trkpt lat="44.73532" lon="-0.32754">
        <ele>125.40000152588</ele>
        <time>2011-05-08T07:45:12Z</time>
      </trkpt>
      <trkpt lat="44.73527" lon="-0.32756">
        <ele>125.30000305176</ele>
        <time>2011-05-08T07:45:13Z</time>
      </trkpt>
      <trkpt lat="44.73522" lon="-0.3276">
        <ele>124.69999694824</ele>
        <time>2011-05-08T07:45:14Z</time>
      </trkpt>
      <trkpt lat="44.73517" lon="-0.32765">
        <ele>124.59999847412</ele>
        <time>2011-05-08T07:45:15Z</time>
      </trkpt>
      <trkpt lat="44.73513" lon="-0.32769">
        <ele>124.5</ele>
        <time>2011-05-08T07:45:16Z</time>
      </trkpt>
      <trkpt lat="44.73508" lon="-0.32774">
        <ele>124.30000305176</ele>
        <time>2011-05-08T07:45:17Z</time>
      </trkpt>
      <trkpt lat="44.73504" lon="-0.32783">
        <ele>124.5</ele>
        <time>2011-05-08T07:45:18Z</time>
      </trkpt>
      <trkpt lat="44.73497" lon="-0.32791">
        <ele>124.40000152588</ele>
        <time>2011-05-08T07:45:19Z</time>
      </trkpt>
      <trkpt lat="44.73492" lon="-0.32798">
        <ele>124.59999847412</ele>
        <time>2011-05-08T07:45:20Z</time>
      </trkpt>
      <trkpt lat="44.73489" lon="-0.32805">
        <ele>125</ele>
        <time>2011-05-08T07:45:21Z</time>
      </trkpt>
      <trkpt lat="44.73482" lon="-0.32813">
        <ele>124.69999694824</ele>
        <time>2011-05-08T07:45:22Z</time>
      </trkpt>
      <trkpt lat="44.73477" lon="-0.3282">
        <ele>124.80000305176</ele>
        <time>2011-05-08T07:45:23Z</time>
      </trkpt>
      <trkpt lat="44.73474" lon="-0.32826">
        <ele>125.30000305176</ele>
        <time>2011-05-08T07:45:24Z</time>
      </trkpt>
      <trkpt lat="44.73466" lon="-0.32832">
        <ele>125</ele>
        <time>2011-05-08T07:45:25Z</time>
      </trkpt>
      <trkpt lat="44.73462" lon="-0.3284">
        <ele>124.90000152588</ele>
        <time>2011-05-08T07:45:27Z</time>
      </trkpt>
      <trkpt lat="44.73457" lon="-0.32842">
        <ele>124.30000305176</ele>
        <time>2011-05-08T07:45:28Z</time>
      </trkpt>
      <trkpt lat="44.73449" lon="-0.32844">
        <ele>123.90000152588</ele>
        <time>2011-05-08T07:45:30Z</time>
      </trkpt>
      <trkpt lat="44.73443" lon="-0.32845">
        <ele>124</ele>
        <time>2011-05-08T07:45:31Z</time>
      </trkpt>
      <trkpt lat="44.73438" lon="-0.32841">
        <ele>124.5</ele>
        <time>2011-05-08T07:45:33Z</time>
      </trkpt>
      <trkpt lat="44.73432" lon="-0.32842">
        <ele>123.5</ele>
        <time>2011-05-08T07:45:34Z</time>
      </trkpt>
      <trkpt lat="44.73424" lon="-0.32844">
        <ele>123.09999847412</ele>
        <time>2011-05-08T07:45:35Z</time>
      </trkpt>
      <trkpt lat="44.73417" lon="-0.32845">
        <ele>123.30000305176</ele>
        <time>2011-05-08T07:45:37Z</time>
      </trkpt>
      <trkpt lat="44.73412" lon="-0.32845">
        <ele>123.19999694824</ele>
        <time>2011-05-08T07:45:38Z</time>
      </trkpt>
      <trkpt lat="44.73397" lon="-0.32845">
        <ele>121.59999847412</ele>
        <time>2011-05-08T07:45:40Z</time>
      </trkpt>
      <trkpt lat="44.73391" lon="-0.32844">
        <ele>120.80000305176</ele>
        <time>2011-05-08T07:45:42Z</time>
      </trkpt>
      <trkpt lat="44.73387" lon="-0.32837">
        <ele>120.90000152588</ele>
        <time>2011-05-08T07:45:44Z</time>
      </trkpt>
      <trkpt lat="44.73388" lon="-0.3283">
        <ele>119.90000152588</ele>
        <time>2011-05-08T07:45:48Z</time>
      </trkpt>
      <trkpt lat="44.73388" lon="-0.32822">
        <ele>117.90000152588</ele>
        <time>2011-05-08T07:45:51Z</time>
      </trkpt>
      <trkpt lat="44.73386" lon="-0.32814">
        <ele>118.30000305176</ele>
        <time>2011-05-08T07:45:55Z</time>
      </trkpt>
      <trkpt lat="44.73383" lon="-0.32807">
        <ele>118.5</ele>
        <time>2011-05-08T07:45:58Z</time>
      </trkpt>
      <trkpt lat="44.73383" lon="-0.32799">
        <ele>117.40000152588</ele>
        <time>2011-05-08T07:46:00Z</time>
      </trkpt>
      <trkpt lat="44.73382" lon="-0.32793">
        <ele>118.5</ele>
        <time>2011-05-08T07:46:03Z</time>
      </trkpt>
      <trkpt lat="44.73382" lon="-0.32786">
        <ele>120</ele>
        <time>2011-05-08T07:46:08Z</time>
      </trkpt>
      <trkpt lat="44.73382" lon="-0.32778">
        <ele>120.69999694824</ele>
        <time>2011-05-08T07:46:12Z</time>
      </trkpt>
      <trkpt lat="44.73381" lon="-0.3277">
        <ele>123.40000152588</ele>
        <time>2011-05-08T07:46:16Z</time>
      </trkpt>
      <trkpt lat="44.73381" lon="-0.32763">
        <ele>123.80000305176</ele>
        <time>2011-05-08T07:46:19Z</time>
      </trkpt>
      <trkpt lat="44.73383" lon="-0.32757">
        <ele>124.40000152588</ele>
        <time>2011-05-08T07:46:22Z</time>
      </trkpt>
      <trkpt lat="44.73388" lon="-0.32749">
        <ele>123.5</ele>
        <time>2011-05-08T07:46:26Z</time>
      </trkpt>
      <trkpt lat="44.73389" lon="-0.32741">
        <ele>122.69999694824</ele>
        <time>2011-05-08T07:46:29Z</time>
      </trkpt>
      <trkpt lat="44.7339" lon="-0.32734">
        <ele>123.69999694824</ele>
        <time>2011-05-08T07:46:32Z</time>
      </trkpt>
      <trkpt lat="44.7339" lon="-0.32727">
        <ele>125.40000152588</ele>
        <time>2011-05-08T07:46:36Z</time>
      </trkpt>
      <trkpt lat="44.73391" lon="-0.32719">
        <ele>127.30000305176</ele>
        <time>2011-05-08T07:46:39Z</time>
      </trkpt>
      <trkpt lat="44.73393" lon="-0.32712">
        <ele>127.80000305176</ele>
        <time>2011-05-08T07:46:43Z</time>
      </trkpt>
      <trkpt lat="44.73394" lon="-0.32705">
        <ele>128.39999389648</ele>
        <time>2011-05-08T07:46:46Z</time>
      </trkpt>
      <trkpt lat="44.73397" lon="-0.32699">
        <ele>127.40000152588</ele>
        <time>2011-05-08T07:46:49Z</time>
      </trkpt>
      <trkpt lat="44.73399" lon="-0.32692">
        <ele>128.39999389648</ele>
        <time>2011-05-08T07:46:52Z</time>
      </trkpt>
      <trkpt lat="44.73401" lon="-0.32686">
        <ele>128.89999389648</ele>
        <time>2011-05-08T07:46:55Z</time>
      </trkpt>
      <trkpt lat="44.73403" lon="-0.3268">
        <ele>130</ele>
        <time>2011-05-08T07:46:57Z</time>
      </trkpt>
      <trkpt lat="44.73404" lon="-0.32673">
        <ele>130.80000305176</ele>
        <time>2011-05-08T07:47:01Z</time>
      </trkpt>
      <trkpt lat="44.73407" lon="-0.32667">
        <ele>130.69999694824</ele>
        <time>2011-05-08T07:47:05Z</time>
      </trkpt>
      <trkpt lat="44.73408" lon="-0.3266">
        <ele>130.60000610352</ele>
        <time>2011-05-08T07:47:07Z</time>
      </trkpt>
      <trkpt lat="44.73409" lon="-0.32653">
        <ele>131.30000305176</ele>
        <time>2011-05-08T07:47:10Z</time>
      </trkpt>
      <trkpt lat="44.73413" lon="-0.32649">
        <ele>130.60000610352</ele>
        <time>2011-05-08T07:47:12Z</time>
      </trkpt>
      <trkpt lat="44.73416" lon="-0.32642">
        <ele>132.5</ele>
        <time>2011-05-08T07:47:17Z</time>
      </trkpt>
      <trkpt lat="44.73418" lon="-0.32635">
        <ele>133.5</ele>
        <time>2011-05-08T07:47:19Z</time>
      </trkpt>
      <trkpt lat="44.73417" lon="-0.32628">
        <ele>135.10000610352</ele>
        <time>2011-05-08T07:47:24Z</time>
      </trkpt>
      <trkpt lat="44.73418" lon="-0.32619">
        <ele>135.30000305176</ele>
        <time>2011-05-08T07:47:28Z</time>
      </trkpt>
      <trkpt lat="44.73415" lon="-0.3261">
        <ele>135.5</ele>
        <time>2011-05-08T07:47:31Z</time>
      </trkpt>
      <trkpt lat="44.7341" lon="-0.32602">
        <ele>137</ele>
        <time>2011-05-08T07:47:34Z</time>
      </trkpt>
      <trkpt lat="44.73407" lon="-0.32596">
        <ele>138.60000610352</ele>
        <time>2011-05-08T07:47:37Z</time>
      </trkpt>
      <trkpt lat="44.73404" lon="-0.32591">
        <ele>139.69999694824</ele>
        <time>2011-05-08T07:47:39Z</time>
      </trkpt>
      <trkpt lat="44.73401" lon="-0.32585">
        <ele>140.10000610352</ele>
        <time>2011-05-08T07:47:41Z</time>
      </trkpt>
      <trkpt lat="44.73398" lon="-0.32579">
        <ele>140.60000610352</ele>
        <time>2011-05-08T07:47:43Z</time>
      </trkpt>
      <trkpt lat="44.73393" lon="-0.32574">
        <ele>141</ele>
        <time>2011-05-08T07:47:45Z</time>
      </trkpt>
      <trkpt lat="44.73389" lon="-0.32567">
        <ele>142.10000610352</ele>
        <time>2011-05-08T07:47:47Z</time>
      </trkpt>
      <trkpt lat="44.73384" lon="-0.32561">
        <ele>142.19999694824</ele>
        <time>2011-05-08T07:47:49Z</time>
      </trkpt>
      <trkpt lat="44.73379" lon="-0.32554">
        <ele>141.69999694824</ele>
        <time>2011-05-08T07:47:51Z</time>
      </trkpt>
      <trkpt lat="44.73375" lon="-0.32546">
        <ele>140.89999389648</ele>
        <time>2011-05-08T07:47:53Z</time>
      </trkpt>
      <trkpt lat="44.73371" lon="-0.32538">
        <ele>140.89999389648</ele>
        <time>2011-05-08T07:47:55Z</time>
      </trkpt>
      <trkpt lat="44.73367" lon="-0.32528">
        <ele>140.30000305176</ele>
        <time>2011-05-08T07:47:57Z</time>
      </trkpt>
      <trkpt lat="44.73362" lon="-0.32518">
        <ele>139.5</ele>
        <time>2011-05-08T07:47:59Z</time>
      </trkpt>
      <trkpt lat="44.73359" lon="-0.32511">
        <ele>139.39999389648</ele>
        <time>2011-05-08T07:48:00Z</time>
      </trkpt>
      <trkpt lat="44.73356" lon="-0.32502">
        <ele>138.69999694824</ele>
        <time>2011-05-08T07:48:01Z</time>
      </trkpt>
      <trkpt lat="44.73354" lon="-0.32495">
        <ele>138</ele>
        <time>2011-05-08T07:48:02Z</time>
      </trkpt>
      <trkpt lat="44.73353" lon="-0.32489">
        <ele>137.80000305176</ele>
        <time>2011-05-08T07:48:03Z</time>
      </trkpt>
      <trkpt lat="44.73351" lon="-0.32482">
        <ele>135.39999389648</ele>
        <time>2011-05-08T07:48:04Z</time>
      </trkpt>
      <trkpt lat="44.7335" lon="-0.32475">
        <ele>134.69999694824</ele>
        <time>2011-05-08T07:48:05Z</time>
      </trkpt>
      <trkpt lat="44.7335" lon="-0.32466">
        <ele>135.39999389648</ele>
        <time>2011-05-08T07:48:07Z</time>
      </trkpt>
      <trkpt lat="44.73355" lon="-0.32457">
        <ele>135.60000610352</ele>
        <time>2011-05-08T07:48:09Z</time>
      </trkpt>
      <trkpt lat="44.73359" lon="-0.32451">
        <ele>135.60000610352</ele>
        <time>2011-05-08T07:48:11Z</time>
      </trkpt>
      <trkpt lat="44.73364" lon="-0.32441">
        <ele>136.10000610352</ele>
        <time>2011-05-08T07:48:13Z</time>
      </trkpt>
      <trkpt lat="44.73369" lon="-0.32436">
        <ele>135.69999694824</ele>
        <time>2011-05-08T07:48:14Z</time>
      </trkpt>
      <trkpt lat="44.73372" lon="-0.3243">
        <ele>135.39999389648</ele>
        <time>2011-05-08T07:48:15Z</time>
      </trkpt>
      <trkpt lat="44.73375" lon="-0.32425">
        <ele>134.80000305176</ele>
        <time>2011-05-08T07:48:16Z</time>
      </trkpt>
      <trkpt lat="44.73382" lon="-0.32417">
        <ele>135.30000305176</ele>
        <time>2011-05-08T07:48:18Z</time>
      </trkpt>
      <trkpt lat="44.73388" lon="-0.32411">
        <ele>134.89999389648</ele>
        <time>2011-05-08T07:48:20Z</time>
      </trkpt>
      <trkpt lat="44.73393" lon="-0.32401">
        <ele>135</ele>
        <time>2011-05-08T07:48:22Z</time>
      </trkpt>
      <trkpt lat="44.73396" lon="-0.32395">
        <ele>135</ele>
        <time>2011-05-08T07:48:23Z</time>
      </trkpt>
      <trkpt lat="44.73399" lon="-0.32389">
        <ele>135.10000610352</ele>
        <time>2011-05-08T07:48:24Z</time>
      </trkpt>
      <trkpt lat="44.73402" lon="-0.32384">
        <ele>135.30000305176</ele>
        <time>2011-05-08T07:48:25Z</time>
      </trkpt>
      <trkpt lat="44.73406" lon="-0.32378">
        <ele>135.5</ele>
        <time>2011-05-08T07:48:26Z</time>
      </trkpt>
      <trkpt lat="44.7341" lon="-0.32374">
        <ele>134.80000305176</ele>
        <time>2011-05-08T07:48:27Z</time>
      </trkpt>
      <trkpt lat="44.73414" lon="-0.32368">
        <ele>134.69999694824</ele>
        <time>2011-05-08T07:48:28Z</time>
      </trkpt>
      <trkpt lat="44.7342" lon="-0.32363">
        <ele>134.19999694824</ele>
        <time>2011-05-08T07:48:29Z</time>
      </trkpt>
      <trkpt lat="44.73424" lon="-0.32359">
        <ele>134</ele>
        <time>2011-05-08T07:48:30Z</time>
      </trkpt>
      <trkpt lat="44.73429" lon="-0.32357">
        <ele>134.10000610352</ele>
        <time>2011-05-08T07:48:31Z</time>
      </trkpt>
      <trkpt lat="44.73433" lon="-0.32352">
        <ele>133.19999694824</ele>
        <time>2011-05-08T07:48:32Z</time>
      </trkpt>
      <trkpt lat="44.73438" lon="-0.32348">
        <ele>133.60000610352</ele>
        <time>2011-05-08T07:48:34Z</time>
      </trkpt>
      <trkpt lat="44.73445" lon="-0.32342">
        <ele>134.10000610352</ele>
        <time>2011-05-08T07:48:36Z</time>
      </trkpt>
      <trkpt lat="44.7345" lon="-0.3234">
        <ele>133.5</ele>
        <time>2011-05-08T07:48:37Z</time>
      </trkpt>
      <trkpt lat="44.73453" lon="-0.32332">
        <ele>135</ele>
        <time>2011-05-08T07:48:39Z</time>
      </trkpt>
      <trkpt lat="44.7346" lon="-0.32325">
        <ele>134.60000610352</ele>
        <time>2011-05-08T07:48:41Z</time>
      </trkpt>
      <trkpt lat="44.73467" lon="-0.32319">
        <ele>134.89999389648</ele>
        <time>2011-05-08T07:48:43Z</time>
      </trkpt>
      <trkpt lat="44.73471" lon="-0.32315">
        <ele>134.30000305176</ele>
        <time>2011-05-08T07:48:44Z</time>
      </trkpt>
      <trkpt lat="44.73473" lon="-0.32309">
        <ele>135.30000305176</ele>
        <time>2011-05-08T07:48:46Z</time>
      </trkpt>
      <trkpt lat="44.73477" lon="-0.32305">
        <ele>135.30000305176</ele>
        <time>2011-05-08T07:48:47Z</time>
      </trkpt>
      <trkpt lat="44.73481" lon="-0.32299">
        <ele>135.30000305176</ele>
        <time>2011-05-08T07:48:49Z</time>
      </trkpt>
      <trkpt lat="44.73488" lon="-0.32291">
        <ele>134.89999389648</ele>
        <time>2011-05-08T07:48:51Z</time>
      </trkpt>
      <trkpt lat="44.73493" lon="-0.32287">
        <ele>134.19999694824</ele>
        <time>2011-05-08T07:48:53Z</time>
      </trkpt>
      <trkpt lat="44.73497" lon="-0.32281">
        <ele>133.39999389648</ele>
        <time>2011-05-08T07:48:54Z</time>
      </trkpt>
      <trkpt lat="44.73499" lon="-0.32274">
        <ele>132.80000305176</ele>
        <time>2011-05-08T07:48:55Z</time>
      </trkpt>
      <trkpt lat="44.73502" lon="-0.32267">
        <ele>132.19999694824</ele>
        <time>2011-05-08T07:48:56Z</time>
      </trkpt>
      <trkpt lat="44.73506" lon="-0.32258">
        <ele>131.30000305176</ele>
        <time>2011-05-08T07:48:58Z</time>
      </trkpt>
      <trkpt lat="44.73511" lon="-0.32252">
        <ele>131.10000610352</ele>
        <time>2011-05-08T07:49:00Z</time>
      </trkpt>
      <trkpt lat="44.73517" lon="-0.32244">
        <ele>131.39999389648</ele>
        <time>2011-05-08T07:49:02Z</time>
      </trkpt>
      <trkpt lat="44.73523" lon="-0.32236">
        <ele>132</ele>
        <time>2011-05-08T07:49:04Z</time>
      </trkpt>
      <trkpt lat="44.73529" lon="-0.32226">
        <ele>132.10000610352</ele>
        <time>2011-05-08T07:49:06Z</time>
      </trkpt>
      <trkpt lat="44.73534" lon="-0.32219">
        <ele>131.60000610352</ele>
        <time>2011-05-08T07:49:07Z</time>
      </trkpt>
      <trkpt lat="44.73539" lon="-0.32214">
        <ele>130.69999694824</ele>
        <time>2011-05-08T07:49:08Z</time>
      </trkpt>
      <trkpt lat="44.73544" lon="-0.3221">
        <ele>130.60000610352</ele>
        <time>2011-05-08T07:49:09Z</time>
      </trkpt>
      <trkpt lat="44.73549" lon="-0.32205">
        <ele>131.30000305176</ele>
        <time>2011-05-08T07:49:10Z</time>
      </trkpt>
      <trkpt lat="44.73555" lon="-0.32202">
        <ele>130.39999389648</ele>
        <time>2011-05-08T07:49:11Z</time>
      </trkpt>
      <trkpt lat="44.73558" lon="-0.32195">
        <ele>130</ele>
        <time>2011-05-08T07:49:12Z</time>
      </trkpt>
      <trkpt lat="44.73563" lon="-0.32189">
        <ele>128.80000305176</ele>
        <time>2011-05-08T07:49:13Z</time>
      </trkpt>
      <trkpt lat="44.73568" lon="-0.32182">
        <ele>128</ele>
        <time>2011-05-08T07:49:14Z</time>
      </trkpt>
      <trkpt lat="44.73573" lon="-0.32176">
        <ele>127.5</ele>
        <time>2011-05-08T07:49:15Z</time>
      </trkpt>
      <trkpt lat="44.73577" lon="-0.32169">
        <ele>126.80000305176</ele>
        <time>2011-05-08T07:49:16Z</time>
      </trkpt>
      <trkpt lat="44.7358" lon="-0.32163">
        <ele>126.69999694824</ele>
        <time>2011-05-08T07:49:17Z</time>
      </trkpt>
      <trkpt lat="44.73582" lon="-0.32157">
        <ele>126.90000152588</ele>
        <time>2011-05-08T07:49:18Z</time>
      </trkpt>
      <trkpt lat="44.73585" lon="-0.32147">
        <ele>126.90000152588</ele>
        <time>2011-05-08T07:49:19Z</time>
      </trkpt>
      <trkpt lat="44.73587" lon="-0.32139">
        <ele>126.80000305176</ele>
        <time>2011-05-08T07:49:20Z</time>
      </trkpt>
      <trkpt lat="44.7359" lon="-0.32132">
        <ele>126.59999847412</ele>
        <time>2011-05-08T07:49:21Z</time>
      </trkpt>
      <trkpt lat="44.73592" lon="-0.32124">
        <ele>127.30000305176</ele>
        <time>2011-05-08T07:49:22Z</time>
      </trkpt>
      <trkpt lat="44.73594" lon="-0.32115">
        <ele>127.30000305176</ele>
        <time>2011-05-08T07:49:23Z</time>
      </trkpt>
      <trkpt lat="44.73595" lon="-0.32104">
        <ele>127.90000152588</ele>
        <time>2011-05-08T07:49:24Z</time>
      </trkpt>
      <trkpt lat="44.73596" lon="-0.32094">
        <ele>127.09999847412</ele>
        <time>2011-05-08T07:49:25Z</time>
      </trkpt>
      <trkpt lat="44.73597" lon="-0.32084">
        <ele>126.40000152588</ele>
        <time>2011-05-08T07:49:26Z</time>
      </trkpt>
      <trkpt lat="44.73596" lon="-0.32072">
        <ele>125.69999694824</ele>
        <time>2011-05-08T07:49:27Z</time>
      </trkpt>
      <trkpt lat="44.73596" lon="-0.32062">
        <ele>126</ele>
        <time>2011-05-08T07:49:28Z</time>
      </trkpt>
      <trkpt lat="44.73595" lon="-0.32049">
        <ele>126.40000152588</ele>
        <time>2011-05-08T07:49:29Z</time>
      </trkpt>
      <trkpt lat="44.73594" lon="-0.32037">
        <ele>126.30000305176</ele>
        <time>2011-05-08T07:49:30Z</time>
      </trkpt>
      <trkpt lat="44.73593" lon="-0.32028">
        <ele>125.69999694824</ele>
        <time>2011-05-08T07:49:31Z</time>
      </trkpt>
      <trkpt lat="44.7359" lon="-0.32019">
        <ele>125.5</ele>
        <time>2011-05-08T07:49:32Z</time>
      </trkpt>
      <trkpt lat="44.7359" lon="-0.32009">
        <ele>124.59999847412</ele>
        <time>2011-05-08T07:49:33Z</time>
      </trkpt>
      <trkpt lat="44.73587" lon="-0.31998">
        <ele>122.5</ele>
        <time>2011-05-08T07:49:34Z</time>
      </trkpt>
      <trkpt lat="44.73585" lon="-0.31986">
        <ele>122.19999694824</ele>
        <time>2011-05-08T07:49:35Z</time>
      </trkpt>
      <trkpt lat="44.73582" lon="-0.31977">
        <ele>122.90000152588</ele>
        <time>2011-05-08T07:49:36Z</time>
      </trkpt>
      <trkpt lat="44.73579" lon="-0.3197">
        <ele>122.19999694824</ele>
        <time>2011-05-08T07:49:37Z</time>
      </trkpt>
      <trkpt lat="44.73575" lon="-0.31964">
        <ele>121.80000305176</ele>
        <time>2011-05-08T07:49:38Z</time>
      </trkpt>
      <trkpt lat="44.73573" lon="-0.31955">
        <ele>121.5</ele>
        <time>2011-05-08T07:49:39Z</time>
      </trkpt>
      <trkpt lat="44.73569" lon="-0.31949">
        <ele>121.69999694824</ele>
        <time>2011-05-08T07:49:40Z</time>
      </trkpt>
      <trkpt lat="44.73564" lon="-0.31948">
        <ele>121.80000305176</ele>
        <time>2011-05-08T07:49:41Z</time>
      </trkpt>
      <trkpt lat="44.73554" lon="-0.31944">
        <ele>121.5</ele>
        <time>2011-05-08T07:49:43Z</time>
      </trkpt>
      <trkpt lat="44.73549" lon="-0.3194">
        <ele>121.5</ele>
        <time>2011-05-08T07:49:44Z</time>
      </trkpt>
      <trkpt lat="44.73545" lon="-0.31934">
        <ele>121.30000305176</ele>
        <time>2011-05-08T07:49:45Z</time>
      </trkpt>
      <trkpt lat="44.73539" lon="-0.31927">
        <ele>122.09999847412</ele>
        <time>2011-05-08T07:49:46Z</time>
      </trkpt>
      <trkpt lat="44.73535" lon="-0.31921">
        <ele>121.30000305176</ele>
        <time>2011-05-08T07:49:47Z</time>
      </trkpt>
      <trkpt lat="44.7353" lon="-0.31916">
        <ele>119.80000305176</ele>
        <time>2011-05-08T07:49:48Z</time>
      </trkpt>
      <trkpt lat="44.73524" lon="-0.31909">
        <ele>119.90000152588</ele>
        <time>2011-05-08T07:49:49Z</time>
      </trkpt>
      <trkpt lat="44.73517" lon="-0.31903">
        <ele>119.90000152588</ele>
        <time>2011-05-08T07:49:50Z</time>
      </trkpt>
      <trkpt lat="44.73512" lon="-0.31898">
        <ele>119.59999847412</ele>
        <time>2011-05-08T07:49:51Z</time>
      </trkpt>
      <trkpt lat="44.73506" lon="-0.31892">
        <ele>119.5</ele>
        <time>2011-05-08T07:49:52Z</time>
      </trkpt>
      <trkpt lat="44.73499" lon="-0.31887">
        <ele>118.80000305176</ele>
        <time>2011-05-08T07:49:53Z</time>
      </trkpt>
      <trkpt lat="44.73491" lon="-0.31882">
        <ele>118</ele>
        <time>2011-05-08T07:49:54Z</time>
      </trkpt>
      <trkpt lat="44.73485" lon="-0.31876">
        <ele>117.90000152588</ele>
        <time>2011-05-08T07:49:55Z</time>
      </trkpt>
      <trkpt lat="44.73476" lon="-0.31872">
        <ele>117.90000152588</ele>
        <time>2011-05-08T07:49:56Z</time>
      </trkpt>
      <trkpt lat="44.73466" lon="-0.31866">
        <ele>117.40000152588</ele>
        <time>2011-05-08T07:49:57Z</time>
      </trkpt>
      <trkpt lat="44.73457" lon="-0.31864">
        <ele>116.80000305176</ele>
        <time>2011-05-08T07:49:58Z</time>
      </trkpt>
      <trkpt lat="44.73448" lon="-0.31856">
        <ele>116.90000152588</ele>
        <time>2011-05-08T07:49:59Z</time>
      </trkpt>
      <trkpt lat="44.73438" lon="-0.31848">
        <ele>117.09999847412</ele>
        <time>2011-05-08T07:50:00Z</time>
      </trkpt>
      <trkpt lat="44.73431" lon="-0.31841">
        <ele>116.09999847412</ele>
        <time>2011-05-08T07:50:01Z</time>
      </trkpt>
      <trkpt lat="44.73424" lon="-0.31833">
        <ele>115.40000152588</ele>
        <time>2011-05-08T07:50:02Z</time>
      </trkpt>
      <trkpt lat="44.73416" lon="-0.31824">
        <ele>114.90000152588</ele>
        <time>2011-05-08T07:50:03Z</time>
      </trkpt>
      <trkpt lat="44.73413" lon="-0.31818">
        <ele>115.59999847412</ele>
        <time>2011-05-08T07:50:04Z</time>
      </trkpt>
      <trkpt lat="44.73408" lon="-0.31812">
        <ele>115.59999847412</ele>
        <time>2011-05-08T07:50:05Z</time>
      </trkpt>
      <trkpt lat="44.73405" lon="-0.31808">
        <ele>115.40000152588</ele>
        <time>2011-05-08T07:50:06Z</time>
      </trkpt>
      <trkpt lat="44.734" lon="-0.31808">
        <ele>115.30000305176</ele>
        <time>2011-05-08T07:50:07Z</time>
      </trkpt>
      <trkpt lat="44.73394" lon="-0.31806">
        <ele>114.5</ele>
        <time>2011-05-08T07:50:09Z</time>
      </trkpt>
      <trkpt lat="44.7339" lon="-0.31807">
        <ele>112.40000152588</ele>
        <time>2011-05-08T07:50:12Z</time>
      </trkpt>
      <trkpt lat="44.73385" lon="-0.31811">
        <ele>112.19999694824</ele>
        <time>2011-05-08T07:50:15Z</time>
      </trkpt>
      <trkpt lat="44.73379" lon="-0.31815">
        <ele>111.90000152588</ele>
        <time>2011-05-08T07:50:18Z</time>
      </trkpt>
      <trkpt lat="44.73373" lon="-0.31817">
        <ele>112.30000305176</ele>
        <time>2011-05-08T07:50:20Z</time>
      </trkpt>
      <trkpt lat="44.73368" lon="-0.3182">
        <ele>112.30000305176</ele>
        <time>2011-05-08T07:50:22Z</time>
      </trkpt>
      <trkpt lat="44.7336" lon="-0.31824">
        <ele>112.59999847412</ele>
        <time>2011-05-08T07:50:24Z</time>
      </trkpt>
      <trkpt lat="44.73352" lon="-0.31826">
        <ele>114.59999847412</ele>
        <time>2011-05-08T07:50:26Z</time>
      </trkpt>
      <trkpt lat="44.73344" lon="-0.3183">
        <ele>115</ele>
        <time>2011-05-08T07:50:28Z</time>
      </trkpt>
      <trkpt lat="44.73338" lon="-0.31833">
        <ele>115.19999694824</ele>
        <time>2011-05-08T07:50:30Z</time>
      </trkpt>
      <trkpt lat="44.73333" lon="-0.31835">
        <ele>114.5</ele>
        <time>2011-05-08T07:50:31Z</time>
      </trkpt>
      <trkpt lat="44.73327" lon="-0.31838">
        <ele>114.09999847412</ele>
        <time>2011-05-08T07:50:33Z</time>
      </trkpt>
      <trkpt lat="44.73322" lon="-0.3184">
        <ele>113.30000305176</ele>
        <time>2011-05-08T07:50:34Z</time>
      </trkpt>
      <trkpt lat="44.73315" lon="-0.31843">
        <ele>114.69999694824</ele>
        <time>2011-05-08T07:50:36Z</time>
      </trkpt>
      <trkpt lat="44.73308" lon="-0.31845">
        <ele>114.30000305176</ele>
        <time>2011-05-08T07:50:38Z</time>
      </trkpt>
      <trkpt lat="44.73302" lon="-0.31847">
        <ele>114.90000152588</ele>
        <time>2011-05-08T07:50:40Z</time>
      </trkpt>
      <trkpt lat="44.73293" lon="-0.31852">
        <ele>114.5</ele>
        <time>2011-05-08T07:50:43Z</time>
      </trkpt>
      <trkpt lat="44.73287" lon="-0.31851">
        <ele>114.69999694824</ele>
        <time>2011-05-08T07:50:45Z</time>
      </trkpt>
      <trkpt lat="44.73283" lon="-0.31846">
        <ele>114.80000305176</ele>
        <time>2011-05-08T07:50:47Z</time>
      </trkpt>
      <trkpt lat="44.7328" lon="-0.31841">
        <ele>114.69999694824</ele>
        <time>2011-05-08T07:50:50Z</time>
      </trkpt>
      <trkpt lat="44.73279" lon="-0.31834">
        <ele>116.19999694824</ele>
        <time>2011-05-08T07:50:53Z</time>
      </trkpt>
      <trkpt lat="44.73275" lon="-0.31828">
        <ele>116.90000152588</ele>
        <time>2011-05-08T07:50:55Z</time>
      </trkpt>
      <trkpt lat="44.73275" lon="-0.31821">
        <ele>117.40000152588</ele>
        <time>2011-05-08T07:50:58Z</time>
      </trkpt>
      <trkpt lat="44.73273" lon="-0.31814">
        <ele>117.5</ele>
        <time>2011-05-08T07:51:00Z</time>
      </trkpt>
      <trkpt lat="44.73271" lon="-0.31808">
        <ele>117.5</ele>
        <time>2011-05-08T07:51:02Z</time>
      </trkpt>
      <trkpt lat="44.73271" lon="-0.318">
        <ele>118.59999847412</ele>
        <time>2011-05-08T07:51:04Z</time>
      </trkpt>
      <trkpt lat="44.7327" lon="-0.31794">
        <ele>119.69999694824</ele>
        <time>2011-05-08T07:51:06Z</time>
      </trkpt>
      <trkpt lat="44.73266" lon="-0.31788">
        <ele>120</ele>
        <time>2011-05-08T07:51:08Z</time>
      </trkpt>
      <trkpt lat="44.73262" lon="-0.31781">
        <ele>121.09999847412</ele>
        <time>2011-05-08T07:51:11Z</time>
      </trkpt>
      <trkpt lat="44.73258" lon="-0.31774">
        <ele>122.40000152588</ele>
        <time>2011-05-08T07:51:14Z</time>
      </trkpt>
      <trkpt lat="44.73255" lon="-0.31768">
        <ele>122.69999694824</ele>
        <time>2011-05-08T07:51:16Z</time>
      </trkpt>
      <trkpt lat="44.73252" lon="-0.31762">
        <ele>124.19999694824</ele>
        <time>2011-05-08T07:51:19Z</time>
      </trkpt>
      <trkpt lat="44.73249" lon="-0.31756">
        <ele>125.69999694824</ele>
        <time>2011-05-08T07:51:22Z</time>
      </trkpt>
      <trkpt lat="44.73246" lon="-0.31751">
        <ele>125.30000305176</ele>
        <time>2011-05-08T07:51:24Z</time>
      </trkpt>
      <trkpt lat="44.73241" lon="-0.31743">
        <ele>126.5</ele>
        <time>2011-05-08T07:51:27Z</time>
      </trkpt>
      <trkpt lat="44.73237" lon="-0.31736">
        <ele>127.5</ele>
        <time>2011-05-08T07:51:30Z</time>
      </trkpt>
      <trkpt lat="44.73235" lon="-0.31727">
        <ele>127.19999694824</ele>
        <time>2011-05-08T07:51:33Z</time>
      </trkpt>
      <trkpt lat="44.73235" lon="-0.3172">
        <ele>127.69999694824</ele>
        <time>2011-05-08T07:51:35Z</time>
      </trkpt>
      <trkpt lat="44.73233" lon="-0.31712">
        <ele>128.10000610352</ele>
        <time>2011-05-08T07:51:38Z</time>
      </trkpt>
      <trkpt lat="44.73231" lon="-0.31704">
        <ele>129.69999694824</ele>
        <time>2011-05-08T07:51:43Z</time>
      </trkpt>
      <trkpt lat="44.73226" lon="-0.31698">
        <ele>129.10000610352</ele>
        <time>2011-05-08T07:51:46Z</time>
      </trkpt>
      <trkpt lat="44.73222" lon="-0.31693">
        <ele>130.80000305176</ele>
        <time>2011-05-08T07:51:49Z</time>
      </trkpt>
      <trkpt lat="44.73217" lon="-0.31687">
        <ele>131.10000610352</ele>
        <time>2011-05-08T07:51:51Z</time>
      </trkpt>
      <trkpt lat="44.73213" lon="-0.31681">
        <ele>131.69999694824</ele>
        <time>2011-05-08T07:51:54Z</time>
      </trkpt>
      <trkpt lat="44.73212" lon="-0.31673">
        <ele>134.10000610352</ele>
        <time>2011-05-08T07:51:58Z</time>
      </trkpt>
      <trkpt lat="44.7321" lon="-0.31663">
        <ele>135.89999389648</ele>
        <time>2011-05-08T07:52:01Z</time>
      </trkpt>
      <trkpt lat="44.73206" lon="-0.3166">
        <ele>136.5</ele>
        <time>2011-05-08T07:52:04Z</time>
      </trkpt>
      <trkpt lat="44.73205" lon="-0.31652">
        <ele>137.19999694824</ele>
        <time>2011-05-08T07:52:07Z</time>
      </trkpt>
      <trkpt lat="44.73204" lon="-0.31645">
        <ele>138</ele>
        <time>2011-05-08T07:52:09Z</time>
      </trkpt>
      <trkpt lat="44.73206" lon="-0.31639">
        <ele>138.69999694824</ele>
        <time>2011-05-08T07:52:12Z</time>
      </trkpt>
      <trkpt lat="44.73204" lon="-0.3163">
        <ele>138.60000610352</ele>
        <time>2011-05-08T07:52:15Z</time>
      </trkpt>
      <trkpt lat="44.73202" lon="-0.31624">
        <ele>140.5</ele>
        <time>2011-05-08T07:52:18Z</time>
      </trkpt>
      <trkpt lat="44.73199" lon="-0.31618">
        <ele>140.39999389648</ele>
        <time>2011-05-08T07:52:20Z</time>
      </trkpt>
      <trkpt lat="44.73199" lon="-0.3161">
        <ele>140.39999389648</ele>
        <time>2011-05-08T07:52:22Z</time>
      </trkpt>
      <trkpt lat="44.73198" lon="-0.31602">
        <ele>140.69999694824</ele>
        <time>2011-05-08T07:52:24Z</time>
      </trkpt>
      <trkpt lat="44.73197" lon="-0.31594">
        <ele>140.10000610352</ele>
        <time>2011-05-08T07:52:26Z</time>
      </trkpt>
      <trkpt lat="44.73197" lon="-0.31587">
        <ele>140.80000305176</ele>
        <time>2011-05-08T07:52:28Z</time>
      </trkpt>
      <trkpt lat="44.73194" lon="-0.31581">
        <ele>141</ele>
        <time>2011-05-08T07:52:30Z</time>
      </trkpt>
      <trkpt lat="44.73189" lon="-0.31576">
        <ele>142</ele>
        <time>2011-05-08T07:52:32Z</time>
      </trkpt>
      <trkpt lat="44.73184" lon="-0.31572">
        <ele>144.39999389648</ele>
        <time>2011-05-08T07:52:35Z</time>
      </trkpt>
      <trkpt lat="44.73184" lon="-0.31561">
        <ele>144.30000305176</ele>
        <time>2011-05-08T07:52:38Z</time>
      </trkpt>
      <trkpt lat="44.73182" lon="-0.31553">
        <ele>144.10000610352</ele>
        <time>2011-05-08T07:52:40Z</time>
      </trkpt>
      <trkpt lat="44.7318" lon="-0.31544">
        <ele>144.60000610352</ele>
        <time>2011-05-08T07:52:43Z</time>
      </trkpt>
      <trkpt lat="44.73177" lon="-0.31539">
        <ele>144.39999389648</ele>
        <time>2011-05-08T07:52:45Z</time>
      </trkpt>
      <trkpt lat="44.73175" lon="-0.3153">
        <ele>146</ele>
        <time>2011-05-08T07:52:49Z</time>
      </trkpt>
      <trkpt lat="44.73173" lon="-0.31521">
        <ele>145.89999389648</ele>
        <time>2011-05-08T07:52:51Z</time>
      </trkpt>
      <trkpt lat="44.73171" lon="-0.31515">
        <ele>146.60000610352</ele>
        <time>2011-05-08T07:52:53Z</time>
      </trkpt>
      <trkpt lat="44.73169" lon="-0.31509">
        <ele>146.60000610352</ele>
        <time>2011-05-08T07:52:56Z</time>
      </trkpt>
      <trkpt lat="44.73168" lon="-0.31501">
        <ele>147.10000610352</ele>
        <time>2011-05-08T07:52:59Z</time>
      </trkpt>
      <trkpt lat="44.73166" lon="-0.31495">
        <ele>147.80000305176</ele>
        <time>2011-05-08T07:53:03Z</time>
      </trkpt>
      <trkpt lat="44.73163" lon="-0.31487">
        <ele>148.89999389648</ele>
        <time>2011-05-08T07:53:06Z</time>
      </trkpt>
      <trkpt lat="44.73161" lon="-0.31481">
        <ele>149</ele>
        <time>2011-05-08T07:53:08Z</time>
      </trkpt>
      <trkpt lat="44.7316" lon="-0.31473">
        <ele>149.69999694824</ele>
        <time>2011-05-08T07:53:12Z</time>
      </trkpt>
      <trkpt lat="44.73158" lon="-0.31467">
        <ele>149.80000305176</ele>
        <time>2011-05-08T07:53:14Z</time>
      </trkpt>
      <trkpt lat="44.73154" lon="-0.31459">
        <ele>151.80000305176</ele>
        <time>2011-05-08T07:53:16Z</time>
      </trkpt>
      <trkpt lat="44.73152" lon="-0.31452">
        <ele>152.5</ele>
        <time>2011-05-08T07:53:18Z</time>
      </trkpt>
      <trkpt lat="44.73152" lon="-0.31443">
        <ele>152.89999389648</ele>
        <time>2011-05-08T07:53:20Z</time>
      </trkpt>
      <trkpt lat="44.73149" lon="-0.31436">
        <ele>153.60000610352</ele>
        <time>2011-05-08T07:53:22Z</time>
      </trkpt>
      <trkpt lat="44.73147" lon="-0.31429">
        <ele>154</ele>
        <time>2011-05-08T07:53:24Z</time>
      </trkpt>
      <trkpt lat="44.73146" lon="-0.31418">
        <ele>153.89999389648</ele>
        <time>2011-05-08T07:53:26Z</time>
      </trkpt>
      <trkpt lat="44.73142" lon="-0.31411">
        <ele>154.10000610352</ele>
        <time>2011-05-08T07:53:28Z</time>
      </trkpt>
      <trkpt lat="44.7314" lon="-0.31405">
        <ele>153.60000610352</ele>
        <time>2011-05-08T07:53:30Z</time>
      </trkpt>
      <trkpt lat="44.73139" lon="-0.31397">
        <ele>154.5</ele>
        <time>2011-05-08T07:53:32Z</time>
      </trkpt>
      <trkpt lat="44.73138" lon="-0.31388">
        <ele>155</ele>
        <time>2011-05-08T07:53:34Z</time>
      </trkpt>
      <trkpt lat="44.73135" lon="-0.31382">
        <ele>154.60000610352</ele>
        <time>2011-05-08T07:53:36Z</time>
      </trkpt>
      <trkpt lat="44.73133" lon="-0.31373">
        <ele>155.69999694824</ele>
        <time>2011-05-08T07:53:38Z</time>
      </trkpt>
      <trkpt lat="44.7313" lon="-0.31365">
        <ele>156.89999389648</ele>
        <time>2011-05-08T07:53:40Z</time>
      </trkpt>
      <trkpt lat="44.73127" lon="-0.31354">
        <ele>157.10000610352</ele>
        <time>2011-05-08T07:53:43Z</time>
      </trkpt>
      <trkpt lat="44.73125" lon="-0.31347">
        <ele>157.30000305176</ele>
        <time>2011-05-08T07:53:45Z</time>
      </trkpt>
      <trkpt lat="44.73123" lon="-0.31339">
        <ele>157.30000305176</ele>
        <time>2011-05-08T07:53:47Z</time>
      </trkpt>
      <trkpt lat="44.7312" lon="-0.31333">
        <ele>157.39999389648</ele>
        <time>2011-05-08T07:53:49Z</time>
      </trkpt>
      <trkpt lat="44.73116" lon="-0.31327">
        <ele>157.80000305176</ele>
        <time>2011-05-08T07:53:51Z</time>
      </trkpt>
      <trkpt lat="44.73114" lon="-0.31318">
        <ele>157.10000610352</ele>
        <time>2011-05-08T07:53:53Z</time>
      </trkpt>
      <trkpt lat="44.73111" lon="-0.3131">
        <ele>157.5</ele>
        <time>2011-05-08T07:53:55Z</time>
      </trkpt>
      <trkpt lat="44.73108" lon="-0.31302">
        <ele>156.89999389648</ele>
        <time>2011-05-08T07:53:57Z</time>
      </trkpt>
      <trkpt lat="44.73105" lon="-0.31294">
        <ele>156.80000305176</ele>
        <time>2011-05-08T07:53:59Z</time>
      </trkpt>
      <trkpt lat="44.73102" lon="-0.31286">
        <ele>157.60000610352</ele>
        <time>2011-05-08T07:54:01Z</time>
      </trkpt>
      <trkpt lat="44.73099" lon="-0.3128">
        <ele>158.5</ele>
        <time>2011-05-08T07:54:03Z</time>
      </trkpt>
      <trkpt lat="44.73095" lon="-0.31272">
        <ele>158.39999389648</ele>
        <time>2011-05-08T07:54:05Z</time>
      </trkpt>
      <trkpt lat="44.73093" lon="-0.31266">
        <ele>158.69999694824</ele>
        <time>2011-05-08T07:54:07Z</time>
      </trkpt>
      <trkpt lat="44.73088" lon="-0.3126">
        <ele>158.69999694824</ele>
        <time>2011-05-08T07:54:09Z</time>
      </trkpt>
      <trkpt lat="44.73084" lon="-0.31252">
        <ele>157.30000305176</ele>
        <time>2011-05-08T07:54:11Z</time>
      </trkpt>
      <trkpt lat="44.73079" lon="-0.31243">
        <ele>155.5</ele>
        <time>2011-05-08T07:54:13Z</time>
      </trkpt>
      <trkpt lat="44.73077" lon="-0.31235">
        <ele>156</ele>
        <time>2011-05-08T07:54:15Z</time>
      </trkpt>
      <trkpt lat="44.73079" lon="-0.31223">
        <ele>153.80000305176</ele>
        <time>2011-05-08T07:54:17Z</time>
      </trkpt>
      <trkpt lat="44.73081" lon="-0.31214">
        <ele>151.89999389648</ele>
        <time>2011-05-08T07:54:18Z</time>
      </trkpt>
      <trkpt lat="44.73084" lon="-0.31206">
        <ele>151.60000610352</ele>
        <time>2011-05-08T07:54:19Z</time>
      </trkpt>
      <trkpt lat="44.73089" lon="-0.31197">
        <ele>152.60000610352</ele>
        <time>2011-05-08T07:54:21Z</time>
      </trkpt>
      <trkpt lat="44.73094" lon="-0.31192">
        <ele>151.60000610352</ele>
        <time>2011-05-08T07:54:22Z</time>
      </trkpt>
      <trkpt lat="44.73099" lon="-0.31188">
        <ele>151.60000610352</ele>
        <time>2011-05-08T07:54:23Z</time>
      </trkpt>
      <trkpt lat="44.73105" lon="-0.31183">
        <ele>150.89999389648</ele>
        <time>2011-05-08T07:54:24Z</time>
      </trkpt>
      <trkpt lat="44.7311" lon="-0.31179">
        <ele>150.19999694824</ele>
        <time>2011-05-08T07:54:25Z</time>
      </trkpt>
      <trkpt lat="44.73115" lon="-0.31174">
        <ele>150.30000305176</ele>
        <time>2011-05-08T07:54:26Z</time>
      </trkpt>
      <trkpt lat="44.73121" lon="-0.31168">
        <ele>150.69999694824</ele>
        <time>2011-05-08T07:54:27Z</time>
      </trkpt>
      <trkpt lat="44.73127" lon="-0.31164">
        <ele>151.10000610352</ele>
        <time>2011-05-08T07:54:28Z</time>
      </trkpt>
      <trkpt lat="44.73133" lon="-0.3116">
        <ele>150.80000305176</ele>
        <time>2011-05-08T07:54:29Z</time>
      </trkpt>
      <trkpt lat="44.7314" lon="-0.31155">
        <ele>150.19999694824</ele>
        <time>2011-05-08T07:54:30Z</time>
      </trkpt>
      <trkpt lat="44.73146" lon="-0.31149">
        <ele>150.10000610352</ele>
        <time>2011-05-08T07:54:31Z</time>
      </trkpt>
      <trkpt lat="44.73152" lon="-0.31145">
        <ele>150.19999694824</ele>
        <time>2011-05-08T07:54:32Z</time>
      </trkpt>
      <trkpt lat="44.73158" lon="-0.31142">
        <ele>149.60000610352</ele>
        <time>2011-05-08T07:54:33Z</time>
      </trkpt>
      <trkpt lat="44.73165" lon="-0.31141">
        <ele>149.80000305176</ele>
        <time>2011-05-08T07:54:34Z</time>
      </trkpt>
      <trkpt lat="44.7317" lon="-0.31142">
        <ele>149.60000610352</ele>
        <time>2011-05-08T07:54:35Z</time>
      </trkpt>
      <trkpt lat="44.73177" lon="-0.31142">
        <ele>149.5</ele>
        <time>2011-05-08T07:54:36Z</time>
      </trkpt>
      <trkpt lat="44.73183" lon="-0.31143">
        <ele>149.30000305176</ele>
        <time>2011-05-08T07:54:37Z</time>
      </trkpt>
      <trkpt lat="44.7319" lon="-0.31142">
        <ele>149.19999694824</ele>
        <time>2011-05-08T07:54:38Z</time>
      </trkpt>
      <trkpt lat="44.73196" lon="-0.31142">
        <ele>149.10000610352</ele>
        <time>2011-05-08T07:54:39Z</time>
      </trkpt>
      <trkpt lat="44.73202" lon="-0.31142">
        <ele>148.80000305176</ele>
        <time>2011-05-08T07:54:40Z</time>
      </trkpt>
      <trkpt lat="44.73209" lon="-0.31142">
        <ele>149.10000610352</ele>
        <time>2011-05-08T07:54:41Z</time>
      </trkpt>
      <trkpt lat="44.73223" lon="-0.31141">
        <ele>149.19999694824</ele>
        <time>2011-05-08T07:54:43Z</time>
      </trkpt>
      <trkpt lat="44.73231" lon="-0.31142">
        <ele>148.19999694824</ele>
        <time>2011-05-08T07:54:44Z</time>
      </trkpt>
      <trkpt lat="44.7324" lon="-0.31142">
        <ele>147.69999694824</ele>
        <time>2011-05-08T07:54:45Z</time>
      </trkpt>
      <trkpt lat="44.73248" lon="-0.31142">
        <ele>147.30000305176</ele>
        <time>2011-05-08T07:54:46Z</time>
      </trkpt>
      <trkpt lat="44.73256" lon="-0.31141">
        <ele>146.10000610352</ele>
        <time>2011-05-08T07:54:47Z</time>
      </trkpt>
      <trkpt lat="44.73266" lon="-0.3114">
        <ele>145.30000305176</ele>
        <time>2011-05-08T07:54:48Z</time>
      </trkpt>
      <trkpt lat="44.73276" lon="-0.31138">
        <ele>144.39999389648</ele>
        <time>2011-05-08T07:54:49Z</time>
      </trkpt>
      <trkpt lat="44.73285" lon="-0.31138">
        <ele>143.60000610352</ele>
        <time>2011-05-08T07:54:50Z</time>
      </trkpt>
      <trkpt lat="44.73295" lon="-0.31138">
        <ele>143.69999694824</ele>
        <time>2011-05-08T07:54:51Z</time>
      </trkpt>
      <trkpt lat="44.73305" lon="-0.31137">
        <ele>144</ele>
        <time>2011-05-08T07:54:52Z</time>
      </trkpt>
      <trkpt lat="44.73315" lon="-0.31137">
        <ele>143</ele>
        <time>2011-05-08T07:54:53Z</time>
      </trkpt>
      <trkpt lat="44.73325" lon="-0.31137">
        <ele>142.60000610352</ele>
        <time>2011-05-08T07:54:54Z</time>
      </trkpt>
      <trkpt lat="44.73333" lon="-0.31137">
        <ele>141.89999389648</ele>
        <time>2011-05-08T07:54:55Z</time>
      </trkpt>
      <trkpt lat="44.73342" lon="-0.31137">
        <ele>141.30000305176</ele>
        <time>2011-05-08T07:54:56Z</time>
      </trkpt>
      <trkpt lat="44.7335" lon="-0.31135">
        <ele>141.19999694824</ele>
        <time>2011-05-08T07:54:57Z</time>
      </trkpt>
      <trkpt lat="44.73358" lon="-0.31134">
        <ele>140.69999694824</ele>
        <time>2011-05-08T07:54:58Z</time>
      </trkpt>
      <trkpt lat="44.73369" lon="-0.31134">
        <ele>139.80000305176</ele>
        <time>2011-05-08T07:54:59Z</time>
      </trkpt>
      <trkpt lat="44.73377" lon="-0.31133">
        <ele>139.30000305176</ele>
        <time>2011-05-08T07:55:00Z</time>
      </trkpt>
      <trkpt lat="44.73387" lon="-0.31132">
        <ele>138</ele>
        <time>2011-05-08T07:55:01Z</time>
      </trkpt>
      <trkpt lat="44.73397" lon="-0.31131">
        <ele>137.5</ele>
        <time>2011-05-08T07:55:02Z</time>
      </trkpt>
      <trkpt lat="44.73407" lon="-0.31133">
        <ele>137.69999694824</ele>
        <time>2011-05-08T07:55:03Z</time>
      </trkpt>
      <trkpt lat="44.73417" lon="-0.31139">
        <ele>136.19999694824</ele>
        <time>2011-05-08T07:55:04Z</time>
      </trkpt>
      <trkpt lat="44.73426" lon="-0.31146">
        <ele>134.80000305176</ele>
        <time>2011-05-08T07:55:05Z</time>
      </trkpt>
      <trkpt lat="44.73433" lon="-0.31154">
        <ele>134</ele>
        <time>2011-05-08T07:55:06Z</time>
      </trkpt>
      <trkpt lat="44.73439" lon="-0.3116">
        <ele>133</ele>
        <time>2011-05-08T07:55:07Z</time>
      </trkpt>
      <trkpt lat="44.73446" lon="-0.31163">
        <ele>132.5</ele>
        <time>2011-05-08T07:55:08Z</time>
      </trkpt>
      <trkpt lat="44.73452" lon="-0.31161">
        <ele>131.60000610352</ele>
        <time>2011-05-08T07:55:09Z</time>
      </trkpt>
      <trkpt lat="44.73458" lon="-0.31155">
        <ele>131.10000610352</ele>
        <time>2011-05-08T07:55:10Z</time>
      </trkpt>
      <trkpt lat="44.73461" lon="-0.31145">
        <ele>130.60000610352</ele>
        <time>2011-05-08T07:55:11Z</time>
      </trkpt>
      <trkpt lat="44.73464" lon="-0.31137">
        <ele>130.39999389648</ele>
        <time>2011-05-08T07:55:12Z</time>
      </trkpt>
      <trkpt lat="44.73466" lon="-0.31126">
        <ele>130.10000610352</ele>
        <time>2011-05-08T07:55:13Z</time>
      </trkpt>
      <trkpt lat="44.73468" lon="-0.31117">
        <ele>130</ele>
        <time>2011-05-08T07:55:14Z</time>
      </trkpt>
      <trkpt lat="44.7347" lon="-0.31107">
        <ele>129</ele>
        <time>2011-05-08T07:55:15Z</time>
      </trkpt>
      <trkpt lat="44.73472" lon="-0.31099">
        <ele>128.30000305176</ele>
        <time>2011-05-08T07:55:16Z</time>
      </trkpt>
      <trkpt lat="44.73476" lon="-0.3109">
        <ele>128</ele>
        <time>2011-05-08T07:55:17Z</time>
      </trkpt>
      <trkpt lat="44.73478" lon="-0.31081">
        <ele>127.69999694824</ele>
        <time>2011-05-08T07:55:18Z</time>
      </trkpt>
      <trkpt lat="44.73481" lon="-0.31071">
        <ele>127.40000152588</ele>
        <time>2011-05-08T07:55:19Z</time>
      </trkpt>
      <trkpt lat="44.73482" lon="-0.31063">
        <ele>126.80000305176</ele>
        <time>2011-05-08T07:55:20Z</time>
      </trkpt>
      <trkpt lat="44.73484" lon="-0.31054">
        <ele>125.80000305176</ele>
        <time>2011-05-08T07:55:21Z</time>
      </trkpt>
      <trkpt lat="44.73487" lon="-0.31045">
        <ele>124.5</ele>
        <time>2011-05-08T07:55:22Z</time>
      </trkpt>
      <trkpt lat="44.73488" lon="-0.31038">
        <ele>123.69999694824</ele>
        <time>2011-05-08T07:55:23Z</time>
      </trkpt>
      <trkpt lat="44.73495" lon="-0.31033">
        <ele>122.40000152588</ele>
        <time>2011-05-08T07:55:25Z</time>
      </trkpt>
      <trkpt lat="44.73502" lon="-0.31037">
        <ele>122</ele>
        <time>2011-05-08T07:55:27Z</time>
      </trkpt>
      <trkpt lat="44.73511" lon="-0.31044">
        <ele>120.90000152588</ele>
        <time>2011-05-08T07:55:29Z</time>
      </trkpt>
      <trkpt lat="44.73516" lon="-0.31046">
        <ele>120.09999847412</ele>
        <time>2011-05-08T07:55:30Z</time>
      </trkpt>
      <trkpt lat="44.73522" lon="-0.31051">
        <ele>119.59999847412</ele>
        <time>2011-05-08T07:55:31Z</time>
      </trkpt>
      <trkpt lat="44.73527" lon="-0.31056">
        <ele>119</ele>
        <time>2011-05-08T07:55:32Z</time>
      </trkpt>
      <trkpt lat="44.73533" lon="-0.3106">
        <ele>119.19999694824</ele>
        <time>2011-05-08T07:55:33Z</time>
      </trkpt>
      <trkpt lat="44.73538" lon="-0.31064">
        <ele>118.59999847412</ele>
        <time>2011-05-08T07:55:34Z</time>
      </trkpt>
      <trkpt lat="44.73546" lon="-0.31068">
        <ele>118.30000305176</ele>
        <time>2011-05-08T07:55:35Z</time>
      </trkpt>
      <trkpt lat="44.73552" lon="-0.31073">
        <ele>118</ele>
        <time>2011-05-08T07:55:36Z</time>
      </trkpt>
      <trkpt lat="44.73558" lon="-0.31078">
        <ele>118.09999847412</ele>
        <time>2011-05-08T07:55:37Z</time>
      </trkpt>
      <trkpt lat="44.73563" lon="-0.31083">
        <ele>117.30000305176</ele>
        <time>2011-05-08T07:55:38Z</time>
      </trkpt>
      <trkpt lat="44.73569" lon="-0.31087">
        <ele>116.5</ele>
        <time>2011-05-08T07:55:39Z</time>
      </trkpt>
      <trkpt lat="44.73573" lon="-0.31092">
        <ele>115.80000305176</ele>
        <time>2011-05-08T07:55:40Z</time>
      </trkpt>
      <trkpt lat="44.73579" lon="-0.31097">
        <ele>115.59999847412</ele>
        <time>2011-05-08T07:55:41Z</time>
      </trkpt>
      <trkpt lat="44.73586" lon="-0.31101">
        <ele>115.30000305176</ele>
        <time>2011-05-08T07:55:42Z</time>
      </trkpt>
      <trkpt lat="44.73596" lon="-0.31111">
        <ele>114.90000152588</ele>
        <time>2011-05-08T07:55:44Z</time>
      </trkpt>
      <trkpt lat="44.73603" lon="-0.31114">
        <ele>114</ele>
        <time>2011-05-08T07:55:45Z</time>
      </trkpt>
      <trkpt lat="44.73609" lon="-0.31117">
        <ele>114</ele>
        <time>2011-05-08T07:55:46Z</time>
      </trkpt>
      <trkpt lat="44.73614" lon="-0.3112">
        <ele>114.09999847412</ele>
        <time>2011-05-08T07:55:47Z</time>
      </trkpt>
      <trkpt lat="44.7362" lon="-0.31123">
        <ele>114</ele>
        <time>2011-05-08T07:55:48Z</time>
      </trkpt>
      <trkpt lat="44.73625" lon="-0.31126">
        <ele>113.69999694824</ele>
        <time>2011-05-08T07:55:49Z</time>
      </trkpt>
      <trkpt lat="44.73633" lon="-0.31133">
        <ele>113.80000305176</ele>
        <time>2011-05-08T07:55:51Z</time>
      </trkpt>
      <trkpt lat="44.73641" lon="-0.31138">
        <ele>113.40000152588</ele>
        <time>2011-05-08T07:55:53Z</time>
      </trkpt>
      <trkpt lat="44.73646" lon="-0.31143">
        <ele>113.5</ele>
        <time>2011-05-08T07:55:55Z</time>
      </trkpt>
      <trkpt lat="44.73652" lon="-0.31148">
        <ele>114</ele>
        <time>2011-05-08T07:55:57Z</time>
      </trkpt>
      <trkpt lat="44.73658" lon="-0.31152">
        <ele>113.80000305176</ele>
        <time>2011-05-08T07:55:59Z</time>
      </trkpt>
      <trkpt lat="44.73663" lon="-0.31157">
        <ele>113.5</ele>
        <time>2011-05-08T07:56:01Z</time>
      </trkpt>
      <trkpt lat="44.73668" lon="-0.31162">
        <ele>113.5</ele>
        <time>2011-05-08T07:56:03Z</time>
      </trkpt>
      <trkpt lat="44.73671" lon="-0.3117">
        <ele>112.59999847412</ele>
        <time>2011-05-08T07:56:05Z</time>
      </trkpt>
      <trkpt lat="44.73671" lon="-0.31179">
        <ele>113</ele>
        <time>2011-05-08T07:56:07Z</time>
      </trkpt>
      <trkpt lat="44.73669" lon="-0.31186">
        <ele>113.5</ele>
        <time>2011-05-08T07:56:09Z</time>
      </trkpt>
      <trkpt lat="44.73668" lon="-0.31193">
        <ele>114.69999694824</ele>
        <time>2011-05-08T07:56:11Z</time>
      </trkpt>
      <trkpt lat="44.73667" lon="-0.31201">
        <ele>114.30000305176</ele>
        <time>2011-05-08T07:56:13Z</time>
      </trkpt>
      <trkpt lat="44.73665" lon="-0.3121">
        <ele>114.5</ele>
        <time>2011-05-08T07:56:15Z</time>
      </trkpt>
      <trkpt lat="44.73665" lon="-0.3122">
        <ele>113.69999694824</ele>
        <time>2011-05-08T07:56:17Z</time>
      </trkpt>
      <trkpt lat="44.73666" lon="-0.3123">
        <ele>113.90000152588</ele>
        <time>2011-05-08T07:56:19Z</time>
      </trkpt>
      <trkpt lat="44.73666" lon="-0.31236">
        <ele>113.19999694824</ele>
        <time>2011-05-08T07:56:21Z</time>
      </trkpt>
      <trkpt lat="44.73668" lon="-0.31244">
        <ele>114.19999694824</ele>
        <time>2011-05-08T07:56:24Z</time>
      </trkpt>
      <trkpt lat="44.73671" lon="-0.31248">
        <ele>114.30000305176</ele>
        <time>2011-05-08T07:56:26Z</time>
      </trkpt>
      <trkpt lat="44.73676" lon="-0.31251">
        <ele>114.5</ele>
        <time>2011-05-08T07:56:28Z</time>
      </trkpt>
      <trkpt lat="44.7368" lon="-0.31255">
        <ele>114.59999847412</ele>
        <time>2011-05-08T07:56:30Z</time>
      </trkpt>
      <trkpt lat="44.73684" lon="-0.3126">
        <ele>115.09999847412</ele>
        <time>2011-05-08T07:56:33Z</time>
      </trkpt>
      <trkpt lat="44.73689" lon="-0.31264">
        <ele>115.59999847412</ele>
        <time>2011-05-08T07:56:35Z</time>
      </trkpt>
      <trkpt lat="44.73693" lon="-0.31267">
        <ele>118.09999847412</ele>
        <time>2011-05-08T07:56:38Z</time>
      </trkpt>
      <trkpt lat="44.73697" lon="-0.31276">
        <ele>120</ele>
        <time>2011-05-08T07:56:41Z</time>
      </trkpt>
      <trkpt lat="44.737" lon="-0.31284">
        <ele>121.40000152588</ele>
        <time>2011-05-08T07:56:44Z</time>
      </trkpt>
      <trkpt lat="44.73703" lon="-0.31289">
        <ele>121</ele>
        <time>2011-05-08T07:56:47Z</time>
      </trkpt>
      <trkpt lat="44.73708" lon="-0.31294">
        <ele>120.90000152588</ele>
        <time>2011-05-08T07:56:50Z</time>
      </trkpt>
      <trkpt lat="44.73713" lon="-0.31297">
        <ele>121.09999847412</ele>
        <time>2011-05-08T07:56:53Z</time>
      </trkpt>
      <trkpt lat="44.73717" lon="-0.31302">
        <ele>121.09999847412</ele>
        <time>2011-05-08T07:56:56Z</time>
      </trkpt>
      <trkpt lat="44.73722" lon="-0.31306">
        <ele>121.19999694824</ele>
        <time>2011-05-08T07:56:58Z</time>
      </trkpt>
      <trkpt lat="44.73726" lon="-0.3131">
        <ele>123.5</ele>
        <time>2011-05-08T07:57:01Z</time>
      </trkpt>
      <trkpt lat="44.7373" lon="-0.31315">
        <ele>124.69999694824</ele>
        <time>2011-05-08T07:57:04Z</time>
      </trkpt>
      <trkpt lat="44.73735" lon="-0.31318">
        <ele>124.80000305176</ele>
        <time>2011-05-08T07:57:07Z</time>
      </trkpt>
      <trkpt lat="44.73739" lon="-0.31322">
        <ele>123.5</ele>
        <time>2011-05-08T07:57:10Z</time>
      </trkpt>
      <trkpt lat="44.73743" lon="-0.31327">
        <ele>124.90000152588</ele>
        <time>2011-05-08T07:57:12Z</time>
      </trkpt>
      <trkpt lat="44.73748" lon="-0.3133">
        <ele>125.30000305176</ele>
        <time>2011-05-08T07:57:14Z</time>
      </trkpt>
      <trkpt lat="44.73754" lon="-0.31332">
        <ele>125.40000152588</ele>
        <time>2011-05-08T07:57:17Z</time>
      </trkpt>
      <trkpt lat="44.73758" lon="-0.31334">
        <ele>125.40000152588</ele>
        <time>2011-05-08T07:57:19Z</time>
      </trkpt>
      <trkpt lat="44.73762" lon="-0.31339">
        <ele>125.09999847412</ele>
        <time>2011-05-08T07:57:21Z</time>
      </trkpt>
      <trkpt lat="44.73767" lon="-0.31343">
        <ele>125.90000152588</ele>
        <time>2011-05-08T07:57:25Z</time>
      </trkpt>
      <trkpt lat="44.73771" lon="-0.31347">
        <ele>125.69999694824</ele>
        <time>2011-05-08T07:57:27Z</time>
      </trkpt>
      <trkpt lat="44.73776" lon="-0.31351">
        <ele>126.69999694824</ele>
        <time>2011-05-08T07:57:30Z</time>
      </trkpt>
      <trkpt lat="44.7378" lon="-0.31355">
        <ele>126.80000305176</ele>
        <time>2011-05-08T07:57:33Z</time>
      </trkpt>
      <trkpt lat="44.73784" lon="-0.31361">
        <ele>127.09999847412</ele>
        <time>2011-05-08T07:57:35Z</time>
      </trkpt>
      <trkpt lat="44.73787" lon="-0.31369">
        <ele>127.69999694824</ele>
        <time>2011-05-08T07:57:38Z</time>
      </trkpt>
      <trkpt lat="44.7379" lon="-0.31376">
        <ele>129.10000610352</ele>
        <time>2011-05-08T07:57:41Z</time>
      </trkpt>
      <trkpt lat="44.7379" lon="-0.31385">
        <ele>128.5</ele>
        <time>2011-05-08T07:57:44Z</time>
      </trkpt>
      <trkpt lat="44.73792" lon="-0.31391">
        <ele>128</ele>
        <time>2011-05-08T07:57:47Z</time>
      </trkpt>
      <trkpt lat="44.73791" lon="-0.31399">
        <ele>128.69999694824</ele>
        <time>2011-05-08T07:57:50Z</time>
      </trkpt>
      <trkpt lat="44.73791" lon="-0.31408">
        <ele>128.19999694824</ele>
        <time>2011-05-08T07:57:53Z</time>
      </trkpt>
      <trkpt lat="44.7379" lon="-0.31415">
        <ele>129.5</ele>
        <time>2011-05-08T07:57:55Z</time>
      </trkpt>
      <trkpt lat="44.73791" lon="-0.31423">
        <ele>129.80000305176</ele>
        <time>2011-05-08T07:57:58Z</time>
      </trkpt>
      <trkpt lat="44.73792" lon="-0.31431">
        <ele>130.80000305176</ele>
        <time>2011-05-08T07:58:01Z</time>
      </trkpt>
      <trkpt lat="44.73793" lon="-0.31441">
        <ele>131.5</ele>
        <time>2011-05-08T07:58:04Z</time>
      </trkpt>
      <trkpt lat="44.73794" lon="-0.31449">
        <ele>131.10000610352</ele>
        <time>2011-05-08T07:58:07Z</time>
      </trkpt>
      <trkpt lat="44.73797" lon="-0.31456">
        <ele>131.30000305176</ele>
        <time>2011-05-08T07:58:10Z</time>
      </trkpt>
      <trkpt lat="44.73798" lon="-0.31464">
        <ele>132.10000610352</ele>
        <time>2011-05-08T07:58:13Z</time>
      </trkpt>
      <trkpt lat="44.73797" lon="-0.31471">
        <ele>132.80000305176</ele>
        <time>2011-05-08T07:58:15Z</time>
      </trkpt>
      <trkpt lat="44.73796" lon="-0.31477">
        <ele>133.10000610352</ele>
        <time>2011-05-08T07:58:17Z</time>
      </trkpt>
      <trkpt lat="44.73797" lon="-0.31484">
        <ele>134.19999694824</ele>
        <time>2011-05-08T07:58:19Z</time>
      </trkpt>
      <trkpt lat="44.73796" lon="-0.31491">
        <ele>135.39999389648</ele>
        <time>2011-05-08T07:58:22Z</time>
      </trkpt>
      <trkpt lat="44.73796" lon="-0.31499">
        <ele>136</ele>
        <time>2011-05-08T07:58:25Z</time>
      </trkpt>
      <trkpt lat="44.73798" lon="-0.31506">
        <ele>136.69999694824</ele>
        <time>2011-05-08T07:58:28Z</time>
      </trkpt>
      <trkpt lat="44.73798" lon="-0.31512">
        <ele>137</ele>
        <time>2011-05-08T07:58:30Z</time>
      </trkpt>
      <trkpt lat="44.73799" lon="-0.31521">
        <ele>137.5</ele>
        <time>2011-05-08T07:58:33Z</time>
      </trkpt>
      <trkpt lat="44.73799" lon="-0.31528">
        <ele>137</ele>
        <time>2011-05-08T07:58:36Z</time>
      </trkpt>
      <trkpt lat="44.73802" lon="-0.31534">
        <ele>136.80000305176</ele>
        <time>2011-05-08T07:58:38Z</time>
      </trkpt>
      <trkpt lat="44.73801" lon="-0.3154">
        <ele>136.89999389648</ele>
        <time>2011-05-08T07:58:40Z</time>
      </trkpt>
      <trkpt lat="44.73804" lon="-0.3155">
        <ele>138.39999389648</ele>
        <time>2011-05-08T07:58:44Z</time>
      </trkpt>
      <trkpt lat="44.73806" lon="-0.31555">
        <ele>138.39999389648</ele>
        <time>2011-05-08T07:58:46Z</time>
      </trkpt>
      <trkpt lat="44.73808" lon="-0.31564">
        <ele>138.30000305176</ele>
        <time>2011-05-08T07:58:49Z</time>
      </trkpt>
      <trkpt lat="44.73809" lon="-0.31571">
        <ele>138.5</ele>
        <time>2011-05-08T07:58:52Z</time>
      </trkpt>
      <trkpt lat="44.73812" lon="-0.31576">
        <ele>140.5</ele>
        <time>2011-05-08T07:58:55Z</time>
      </trkpt>
      <trkpt lat="44.73815" lon="-0.31584">
        <ele>141.60000610352</ele>
        <time>2011-05-08T07:58:58Z</time>
      </trkpt>
      <trkpt lat="44.73816" lon="-0.3159">
        <ele>141.89999389648</ele>
        <time>2011-05-08T07:59:00Z</time>
      </trkpt>
      <trkpt lat="44.73819" lon="-0.31597">
        <ele>142</ele>
        <time>2011-05-08T07:59:03Z</time>
      </trkpt>
      <trkpt lat="44.73821" lon="-0.31602">
        <ele>143</ele>
        <time>2011-05-08T07:59:05Z</time>
      </trkpt>
      <trkpt lat="44.73825" lon="-0.31607">
        <ele>144</ele>
        <time>2011-05-08T07:59:07Z</time>
      </trkpt>
      <trkpt lat="44.73829" lon="-0.3161">
        <ele>144.10000610352</ele>
        <time>2011-05-08T07:59:09Z</time>
      </trkpt>
      <trkpt lat="44.73832" lon="-0.31615">
        <ele>144.30000305176</ele>
        <time>2011-05-08T07:59:12Z</time>
      </trkpt>
      <trkpt lat="44.73834" lon="-0.31621">
        <ele>144.39999389648</ele>
        <time>2011-05-08T07:59:14Z</time>
      </trkpt>
      <trkpt lat="44.73837" lon="-0.31627">
        <ele>144.39999389648</ele>
        <time>2011-05-08T07:59:16Z</time>
      </trkpt>
      <trkpt lat="44.73841" lon="-0.31632">
        <ele>144.80000305176</ele>
        <time>2011-05-08T07:59:18Z</time>
      </trkpt>
      <trkpt lat="44.73848" lon="-0.31639">
        <ele>144.39999389648</ele>
        <time>2011-05-08T07:59:20Z</time>
      </trkpt>
      <trkpt lat="44.73855" lon="-0.31647">
        <ele>144.69999694824</ele>
        <time>2011-05-08T07:59:22Z</time>
      </trkpt>
      <trkpt lat="44.73859" lon="-0.31651">
        <ele>144.5</ele>
        <time>2011-05-08T07:59:23Z</time>
      </trkpt>
      <trkpt lat="44.73866" lon="-0.31657">
        <ele>145.19999694824</ele>
        <time>2011-05-08T07:59:25Z</time>
      </trkpt>
      <trkpt lat="44.73871" lon="-0.3166">
        <ele>145.19999694824</ele>
        <time>2011-05-08T07:59:26Z</time>
      </trkpt>
      <trkpt lat="44.73878" lon="-0.3166">
        <ele>145.5</ele>
        <time>2011-05-08T07:59:28Z</time>
      </trkpt>
      <trkpt lat="44.73885" lon="-0.31659">
        <ele>146.10000610352</ele>
        <time>2011-05-08T07:59:30Z</time>
      </trkpt>
      <trkpt lat="44.73892" lon="-0.31657">
        <ele>146.60000610352</ele>
        <time>2011-05-08T07:59:32Z</time>
      </trkpt>
      <trkpt lat="44.73896" lon="-0.31653">
        <ele>146.60000610352</ele>
        <time>2011-05-08T07:59:33Z</time>
      </trkpt>
      <trkpt lat="44.739" lon="-0.31649">
        <ele>146.39999389648</ele>
        <time>2011-05-08T07:59:34Z</time>
      </trkpt>
      <trkpt lat="44.73905" lon="-0.31646">
        <ele>146.89999389648</ele>
        <time>2011-05-08T07:59:35Z</time>
      </trkpt>
      <trkpt lat="44.73908" lon="-0.31643">
        <ele>148.39999389648</ele>
        <time>2011-05-08T07:59:37Z</time>
      </trkpt>
      <trkpt lat="44.73913" lon="-0.31641">
        <ele>149.30000305176</ele>
        <time>2011-05-08T07:59:39Z</time>
      </trkpt>
      <trkpt lat="44.73918" lon="-0.31636">
        <ele>150.10000610352</ele>
        <time>2011-05-08T07:59:41Z</time>
      </trkpt>
      <trkpt lat="44.73924" lon="-0.31632">
        <ele>151.10000610352</ele>
        <time>2011-05-08T07:59:44Z</time>
      </trkpt>
      <trkpt lat="44.73928" lon="-0.3163">
        <ele>152.89999389648</ele>
        <time>2011-05-08T07:59:46Z</time>
      </trkpt>
      <trkpt lat="44.73932" lon="-0.31626">
        <ele>152.89999389648</ele>
        <time>2011-05-08T07:59:48Z</time>
      </trkpt>
      <trkpt lat="44.73938" lon="-0.31625">
        <ele>151.39999389648</ele>
        <time>2011-05-08T07:59:51Z</time>
      </trkpt>
      <trkpt lat="44.73944" lon="-0.31622">
        <ele>153.10000610352</ele>
        <time>2011-05-08T07:59:54Z</time>
      </trkpt>
      <trkpt lat="44.73949" lon="-0.31618">
        <ele>153.80000305176</ele>
        <time>2011-05-08T07:59:56Z</time>
      </trkpt>
      <trkpt lat="44.73956" lon="-0.31615">
        <ele>154.60000610352</ele>
        <time>2011-05-08T07:59:58Z</time>
      </trkpt>
      <trkpt lat="44.7396" lon="-0.31611">
        <ele>154.30000305176</ele>
        <time>2011-05-08T08:00:00Z</time>
      </trkpt>
      <trkpt lat="44.73964" lon="-0.31607">
        <ele>154.69999694824</ele>
        <time>2011-05-08T08:00:02Z</time>
      </trkpt>
      <trkpt lat="44.7397" lon="-0.31603">
        <ele>153.39999389648</ele>
        <time>2011-05-08T08:00:04Z</time>
      </trkpt>
      <trkpt lat="44.73977" lon="-0.316">
        <ele>153.60000610352</ele>
        <time>2011-05-08T08:00:06Z</time>
      </trkpt>
      <trkpt lat="44.73983" lon="-0.31597">
        <ele>154.60000610352</ele>
        <time>2011-05-08T08:00:08Z</time>
      </trkpt>
      <trkpt lat="44.73987" lon="-0.31597">
        <ele>154.69999694824</ele>
        <time>2011-05-08T08:00:09Z</time>
      </trkpt>
      <trkpt lat="44.73995" lon="-0.31595">
        <ele>154.80000305176</ele>
        <time>2011-05-08T08:00:11Z</time>
      </trkpt>
      <trkpt lat="44.74003" lon="-0.31593">
        <ele>154.30000305176</ele>
        <time>2011-05-08T08:00:13Z</time>
      </trkpt>
      <trkpt lat="44.74011" lon="-0.3159">
        <ele>155.10000610352</ele>
        <time>2011-05-08T08:00:15Z</time>
      </trkpt>
      <trkpt lat="44.74018" lon="-0.31588">
        <ele>155.30000305176</ele>
        <time>2011-05-08T08:00:17Z</time>
      </trkpt>
      <trkpt lat="44.74025" lon="-0.31584">
        <ele>156.60000610352</ele>
        <time>2011-05-08T08:00:19Z</time>
      </trkpt>
      <trkpt lat="44.74031" lon="-0.31584">
        <ele>156</ele>
        <time>2011-05-08T08:00:20Z</time>
      </trkpt>
      <trkpt lat="44.74036" lon="-0.31584">
        <ele>156.19999694824</ele>
        <time>2011-05-08T08:00:21Z</time>
      </trkpt>
      <trkpt lat="44.74043" lon="-0.31583">
        <ele>156.89999389648</ele>
        <time>2011-05-08T08:00:23Z</time>
      </trkpt>
      <trkpt lat="44.74048" lon="-0.31581">
        <ele>156.89999389648</ele>
        <time>2011-05-08T08:00:24Z</time>
      </trkpt>
      <trkpt lat="44.74057" lon="-0.31578">
        <ele>157.19999694824</ele>
        <time>2011-05-08T08:00:26Z</time>
      </trkpt>
      <trkpt lat="44.74066" lon="-0.31576">
        <ele>157.19999694824</ele>
        <time>2011-05-08T08:00:28Z</time>
      </trkpt>
      <trkpt lat="44.74075" lon="-0.31575">
        <ele>157.60000610352</ele>
        <time>2011-05-08T08:00:30Z</time>
      </trkpt>
      <trkpt lat="44.74081" lon="-0.31575">
        <ele>158</ele>
        <time>2011-05-08T08:00:31Z</time>
      </trkpt>
      <trkpt lat="44.74086" lon="-0.31575">
        <ele>158.19999694824</ele>
        <time>2011-05-08T08:00:32Z</time>
      </trkpt>
      <trkpt lat="44.74091" lon="-0.31574">
        <ele>157.89999389648</ele>
        <time>2011-05-08T08:00:33Z</time>
      </trkpt>
      <trkpt lat="44.74096" lon="-0.31575">
        <ele>157.30000305176</ele>
        <time>2011-05-08T08:00:34Z</time>
      </trkpt>
      <trkpt lat="44.74101" lon="-0.31574">
        <ele>157.19999694824</ele>
        <time>2011-05-08T08:00:35Z</time>
      </trkpt>
      <trkpt lat="44.74106" lon="-0.31574">
        <ele>156.89999389648</ele>
        <time>2011-05-08T08:00:36Z</time>
      </trkpt>
      <trkpt lat="44.74112" lon="-0.31572">
        <ele>156.80000305176</ele>
        <time>2011-05-08T08:00:37Z</time>
      </trkpt>
      <trkpt lat="44.74118" lon="-0.3157">
        <ele>157</ele>
        <time>2011-05-08T08:00:38Z</time>
      </trkpt>
      <trkpt lat="44.74122" lon="-0.3157">
        <ele>156.5</ele>
        <time>2011-05-08T08:00:39Z</time>
      </trkpt>
      <trkpt lat="44.74127" lon="-0.31569">
        <ele>156.30000305176</ele>
        <time>2011-05-08T08:00:40Z</time>
      </trkpt>
      <trkpt lat="44.74133" lon="-0.31569">
        <ele>156.5</ele>
        <time>2011-05-08T08:00:41Z</time>
      </trkpt>
      <trkpt lat="44.74138" lon="-0.31569">
        <ele>156.39999389648</ele>
        <time>2011-05-08T08:00:42Z</time>
      </trkpt>
      <trkpt lat="44.74148" lon="-0.31568">
        <ele>155.89999389648</ele>
        <time>2011-05-08T08:00:44Z</time>
      </trkpt>
      <trkpt lat="44.74154" lon="-0.31568">
        <ele>156.10000610352</ele>
        <time>2011-05-08T08:00:45Z</time>
      </trkpt>
      <trkpt lat="44.7416" lon="-0.31569">
        <ele>156.10000610352</ele>
        <time>2011-05-08T08:00:46Z</time>
      </trkpt>
      <trkpt lat="44.74165" lon="-0.31569">
        <ele>156.39999389648</ele>
        <time>2011-05-08T08:00:47Z</time>
      </trkpt>
      <trkpt lat="44.7417" lon="-0.31568">
        <ele>156.5</ele>
        <time>2011-05-08T08:00:48Z</time>
      </trkpt>
      <trkpt lat="44.74176" lon="-0.31566">
        <ele>156.39999389648</ele>
        <time>2011-05-08T08:00:49Z</time>
      </trkpt>
      <trkpt lat="44.74181" lon="-0.31567">
        <ele>156.10000610352</ele>
        <time>2011-05-08T08:00:50Z</time>
      </trkpt>
      <trkpt lat="44.74184" lon="-0.31571">
        <ele>155.10000610352</ele>
        <time>2011-05-08T08:00:51Z</time>
      </trkpt>
      <trkpt lat="44.74186" lon="-0.31583">
        <ele>155.5</ele>
        <time>2011-05-08T08:00:53Z</time>
      </trkpt>
      <trkpt lat="44.74187" lon="-0.3159">
        <ele>155.19999694824</ele>
        <time>2011-05-08T08:00:54Z</time>
      </trkpt>
      <trkpt lat="44.74188" lon="-0.31596">
        <ele>154.10000610352</ele>
        <time>2011-05-08T08:00:55Z</time>
      </trkpt>
      <trkpt lat="44.7419" lon="-0.31603">
        <ele>153.69999694824</ele>
        <time>2011-05-08T08:00:56Z</time>
      </trkpt>
      <trkpt lat="44.74191" lon="-0.31612">
        <ele>153.60000610352</ele>
        <time>2011-05-08T08:00:57Z</time>
      </trkpt>
      <trkpt lat="44.74192" lon="-0.31621">
        <ele>153.69999694824</ele>
        <time>2011-05-08T08:00:58Z</time>
      </trkpt>
      <trkpt lat="44.74192" lon="-0.31629">
        <ele>153.69999694824</ele>
        <time>2011-05-08T08:00:59Z</time>
      </trkpt>
      <trkpt lat="44.74193" lon="-0.31637">
        <ele>153.5</ele>
        <time>2011-05-08T08:01:00Z</time>
      </trkpt>
      <trkpt lat="44.74194" lon="-0.31646">
        <ele>153.30000305176</ele>
        <time>2011-05-08T08:01:01Z</time>
      </trkpt>
      <trkpt lat="44.74194" lon="-0.31657">
        <ele>154</ele>
        <time>2011-05-08T08:01:02Z</time>
      </trkpt>
      <trkpt lat="44.74196" lon="-0.31666">
        <ele>153.80000305176</ele>
        <time>2011-05-08T08:01:03Z</time>
      </trkpt>
      <trkpt lat="44.74196" lon="-0.31675">
        <ele>154.5</ele>
        <time>2011-05-08T08:01:04Z</time>
      </trkpt>
      <trkpt lat="44.74198" lon="-0.31683">
        <ele>154.19999694824</ele>
        <time>2011-05-08T08:01:05Z</time>
      </trkpt>
      <trkpt lat="44.74198" lon="-0.31692">
        <ele>153.89999389648</ele>
        <time>2011-05-08T08:01:06Z</time>
      </trkpt>
      <trkpt lat="44.74196" lon="-0.317">
        <ele>154.39999389648</ele>
        <time>2011-05-08T08:01:07Z</time>
      </trkpt>
      <trkpt lat="44.74195" lon="-0.31708">
        <ele>153.5</ele>
        <time>2011-05-08T08:01:08Z</time>
      </trkpt>
      <trkpt lat="44.74193" lon="-0.31718">
        <ele>153</ele>
        <time>2011-05-08T08:01:09Z</time>
      </trkpt>
      <trkpt lat="44.74195" lon="-0.31727">
        <ele>152.5</ele>
        <time>2011-05-08T08:01:10Z</time>
      </trkpt>
      <trkpt lat="44.74197" lon="-0.31737">
        <ele>152.10000610352</ele>
        <time>2011-05-08T08:01:11Z</time>
      </trkpt>
      <trkpt lat="44.74198" lon="-0.31747">
        <ele>152.19999694824</ele>
        <time>2011-05-08T08:01:12Z</time>
      </trkpt>
      <trkpt lat="44.742" lon="-0.31757">
        <ele>151.80000305176</ele>
        <time>2011-05-08T08:01:13Z</time>
      </trkpt>
      <trkpt lat="44.74201" lon="-0.31767">
        <ele>151.89999389648</ele>
        <time>2011-05-08T08:01:14Z</time>
      </trkpt>
      <trkpt lat="44.74203" lon="-0.31777">
        <ele>151.89999389648</ele>
        <time>2011-05-08T08:01:15Z</time>
      </trkpt>
      <trkpt lat="44.74203" lon="-0.31788">
        <ele>151.60000610352</ele>
        <time>2011-05-08T08:01:16Z</time>
      </trkpt>
      <trkpt lat="44.74204" lon="-0.31796">
        <ele>151.60000610352</ele>
        <time>2011-05-08T08:01:17Z</time>
      </trkpt>
      <trkpt lat="44.74206" lon="-0.31807">
        <ele>151.5</ele>
        <time>2011-05-08T08:01:18Z</time>
      </trkpt>
      <trkpt lat="44.74208" lon="-0.31817">
        <ele>151.69999694824</ele>
        <time>2011-05-08T08:01:19Z</time>
      </trkpt>
      <trkpt lat="44.74209" lon="-0.31827">
        <ele>151.39999389648</ele>
        <time>2011-05-08T08:01:20Z</time>
      </trkpt>
      <trkpt lat="44.7421" lon="-0.31837">
        <ele>150.5</ele>
        <time>2011-05-08T08:01:21Z</time>
      </trkpt>
      <trkpt lat="44.74212" lon="-0.31848">
        <ele>150.19999694824</ele>
        <time>2011-05-08T08:01:22Z</time>
      </trkpt>
      <trkpt lat="44.74214" lon="-0.31859">
        <ele>150.5</ele>
        <time>2011-05-08T08:01:23Z</time>
      </trkpt>
      <trkpt lat="44.74215" lon="-0.31869">
        <ele>150</ele>
        <time>2011-05-08T08:01:24Z</time>
      </trkpt>
      <trkpt lat="44.74217" lon="-0.31879">
        <ele>150.10000610352</ele>
        <time>2011-05-08T08:01:25Z</time>
      </trkpt>
      <trkpt lat="44.74218" lon="-0.3189">
        <ele>150.5</ele>
        <time>2011-05-08T08:01:26Z</time>
      </trkpt>
      <trkpt lat="44.7422" lon="-0.31899">
        <ele>149.69999694824</ele>
        <time>2011-05-08T08:01:27Z</time>
      </trkpt>
      <trkpt lat="44.74223" lon="-0.31907">
        <ele>149.10000610352</ele>
        <time>2011-05-08T08:01:28Z</time>
      </trkpt>
      <trkpt lat="44.74227" lon="-0.31914">
        <ele>148.69999694824</ele>
        <time>2011-05-08T08:01:29Z</time>
      </trkpt>
      <trkpt lat="44.74229" lon="-0.31923">
        <ele>148.39999389648</ele>
        <time>2011-05-08T08:01:30Z</time>
      </trkpt>
      <trkpt lat="44.74233" lon="-0.31931">
        <ele>148.10000610352</ele>
        <time>2011-05-08T08:01:31Z</time>
      </trkpt>
      <trkpt lat="44.74237" lon="-0.31942">
        <ele>148.60000610352</ele>
        <time>2011-05-08T08:01:32Z</time>
      </trkpt>
      <trkpt lat="44.7424" lon="-0.31951">
        <ele>148.10000610352</ele>
        <time>2011-05-08T08:01:33Z</time>
      </trkpt>
      <trkpt lat="44.74243" lon="-0.3196">
        <ele>147.60000610352</ele>
        <time>2011-05-08T08:01:34Z</time>
      </trkpt>
      <trkpt lat="44.74247" lon="-0.3197">
        <ele>146.69999694824</ele>
        <time>2011-05-08T08:01:35Z</time>
      </trkpt>
      <trkpt lat="44.74252" lon="-0.31981">
        <ele>145.5</ele>
        <time>2011-05-08T08:01:36Z</time>
      </trkpt>
      <trkpt lat="44.74256" lon="-0.31994">
        <ele>144.5</ele>
        <time>2011-05-08T08:01:37Z</time>
      </trkpt>
      <trkpt lat="44.74262" lon="-0.32007">
        <ele>143.30000305176</ele>
        <time>2011-05-08T08:01:38Z</time>
      </trkpt>
      <trkpt lat="44.74266" lon="-0.32022">
        <ele>141.89999389648</ele>
        <time>2011-05-08T08:01:39Z</time>
      </trkpt>
      <trkpt lat="44.7427" lon="-0.32035">
        <ele>141.10000610352</ele>
        <time>2011-05-08T08:01:40Z</time>
      </trkpt>
      <trkpt lat="44.74275" lon="-0.32048">
        <ele>140.69999694824</ele>
        <time>2011-05-08T08:01:41Z</time>
      </trkpt>
      <trkpt lat="44.74279" lon="-0.32061">
        <ele>139.39999389648</ele>
        <time>2011-05-08T08:01:42Z</time>
      </trkpt>
      <trkpt lat="44.7429" lon="-0.32088">
        <ele>136.39999389648</ele>
        <time>2011-05-08T08:01:44Z</time>
      </trkpt>
      <trkpt lat="44.74295" lon="-0.32101">
        <ele>135.19999694824</ele>
        <time>2011-05-08T08:01:45Z</time>
      </trkpt>
      <trkpt lat="44.74299" lon="-0.32112">
        <ele>134</ele>
        <time>2011-05-08T08:01:46Z</time>
      </trkpt>
      <trkpt lat="44.74302" lon="-0.32122">
        <ele>132.60000610352</ele>
        <time>2011-05-08T08:01:47Z</time>
      </trkpt>
      <trkpt lat="44.74305" lon="-0.32132">
        <ele>131.30000305176</ele>
        <time>2011-05-08T08:01:48Z</time>
      </trkpt>
      <trkpt lat="44.74308" lon="-0.32138">
        <ele>130.39999389648</ele>
        <time>2011-05-08T08:01:49Z</time>
      </trkpt>
      <trkpt lat="44.74314" lon="-0.32142">
        <ele>129.19999694824</ele>
        <time>2011-05-08T08:01:51Z</time>
      </trkpt>
      <trkpt lat="44.74319" lon="-0.3214">
        <ele>128.5</ele>
        <time>2011-05-08T08:01:52Z</time>
      </trkpt>
      <trkpt lat="44.74326" lon="-0.32136">
        <ele>128.5</ele>
        <time>2011-05-08T08:01:54Z</time>
      </trkpt>
      <trkpt lat="44.74331" lon="-0.32133">
        <ele>128</ele>
        <time>2011-05-08T08:01:55Z</time>
      </trkpt>
      <trkpt lat="44.74335" lon="-0.32129">
        <ele>127.59999847412</ele>
        <time>2011-05-08T08:01:56Z</time>
      </trkpt>
      <trkpt lat="44.74339" lon="-0.32126">
        <ele>127.69999694824</ele>
        <time>2011-05-08T08:01:57Z</time>
      </trkpt>
      <trkpt lat="44.74344" lon="-0.32123">
        <ele>127.30000305176</ele>
        <time>2011-05-08T08:01:58Z</time>
      </trkpt>
      <trkpt lat="44.7435" lon="-0.32119">
        <ele>127.09999847412</ele>
        <time>2011-05-08T08:02:00Z</time>
      </trkpt>
      <trkpt lat="44.74356" lon="-0.32116">
        <ele>126.69999694824</ele>
        <time>2011-05-08T08:02:02Z</time>
      </trkpt>
      <trkpt lat="44.74362" lon="-0.32113">
        <ele>126.30000305176</ele>
        <time>2011-05-08T08:02:04Z</time>
      </trkpt>
      <trkpt lat="44.74368" lon="-0.3211">
        <ele>125.69999694824</ele>
        <time>2011-05-08T08:02:06Z</time>
      </trkpt>
      <trkpt lat="44.74374" lon="-0.32105">
        <ele>124.09999847412</ele>
        <time>2011-05-08T08:02:09Z</time>
      </trkpt>
      <trkpt lat="44.7438" lon="-0.32098">
        <ele>123.40000152588</ele>
        <time>2011-05-08T08:02:11Z</time>
      </trkpt>
      <trkpt lat="44.74387" lon="-0.32092">
        <ele>123.19999694824</ele>
        <time>2011-05-08T08:02:13Z</time>
      </trkpt>
      <trkpt lat="44.74389" lon="-0.32087">
        <ele>123.09999847412</ele>
        <time>2011-05-08T08:02:14Z</time>
      </trkpt>
      <trkpt lat="44.74396" lon="-0.3208">
        <ele>122.59999847412</ele>
        <time>2011-05-08T08:02:16Z</time>
      </trkpt>
      <trkpt lat="44.74402" lon="-0.32076">
        <ele>122.30000305176</ele>
        <time>2011-05-08T08:02:18Z</time>
      </trkpt>
      <trkpt lat="44.74408" lon="-0.32079">
        <ele>121.5</ele>
        <time>2011-05-08T08:02:20Z</time>
      </trkpt>
      <trkpt lat="44.7441" lon="-0.32085">
        <ele>121.40000152588</ele>
        <time>2011-05-08T08:02:21Z</time>
      </trkpt>
      <trkpt lat="44.74409" lon="-0.32093">
        <ele>121.80000305176</ele>
        <time>2011-05-08T08:02:23Z</time>
      </trkpt>
      <trkpt lat="44.74409" lon="-0.32101">
        <ele>121.09999847412</ele>
        <time>2011-05-08T08:02:25Z</time>
      </trkpt>
      <trkpt lat="44.7441" lon="-0.3211">
        <ele>121</ele>
        <time>2011-05-08T08:02:27Z</time>
      </trkpt>
      <trkpt lat="44.74412" lon="-0.32121">
        <ele>120.69999694824</ele>
        <time>2011-05-08T08:02:29Z</time>
      </trkpt>
      <trkpt lat="44.74414" lon="-0.32131">
        <ele>120.5</ele>
        <time>2011-05-08T08:02:31Z</time>
      </trkpt>
      <trkpt lat="44.74418" lon="-0.32138">
        <ele>120.5</ele>
        <time>2011-05-08T08:02:33Z</time>
      </trkpt>
      <trkpt lat="44.74421" lon="-0.32145">
        <ele>121.40000152588</ele>
        <time>2011-05-08T08:02:37Z</time>
      </trkpt>
      <trkpt lat="44.74424" lon="-0.32151">
        <ele>121.19999694824</ele>
        <time>2011-05-08T08:02:45Z</time>
      </trkpt>
      <trkpt lat="44.74433" lon="-0.3215">
        <ele>121.90000152588</ele>
        <time>2011-05-08T08:02:49Z</time>
      </trkpt>
      <trkpt lat="44.7444" lon="-0.32145">
        <ele>122.59999847412</ele>
        <time>2011-05-08T08:02:52Z</time>
      </trkpt>
      <trkpt lat="44.74444" lon="-0.32141">
        <ele>123.40000152588</ele>
        <time>2011-05-08T08:02:54Z</time>
      </trkpt>
      <trkpt lat="44.74449" lon="-0.32138">
        <ele>123.59999847412</ele>
        <time>2011-05-08T08:02:56Z</time>
      </trkpt>
      <trkpt lat="44.74454" lon="-0.32135">
        <ele>124.5</ele>
        <time>2011-05-08T08:02:58Z</time>
      </trkpt>
      <trkpt lat="44.74458" lon="-0.32139">
        <ele>124.59999847412</ele>
        <time>2011-05-08T08:03:02Z</time>
      </trkpt>
      <trkpt lat="44.74464" lon="-0.32139">
        <ele>125</ele>
        <time>2011-05-08T08:03:04Z</time>
      </trkpt>
      <trkpt lat="44.74467" lon="-0.32145">
        <ele>124.69999694824</ele>
        <time>2011-05-08T08:03:07Z</time>
      </trkpt>
      <trkpt lat="44.74472" lon="-0.32149">
        <ele>124.19999694824</ele>
        <time>2011-05-08T08:03:10Z</time>
      </trkpt>
      <trkpt lat="44.74477" lon="-0.3215">
        <ele>122.30000305176</ele>
        <time>2011-05-08T08:03:14Z</time>
      </trkpt>
      <trkpt lat="44.7448" lon="-0.32154">
        <ele>121.30000305176</ele>
        <time>2011-05-08T08:03:27Z</time>
      </trkpt>
      <trkpt lat="44.74484" lon="-0.32149">
        <ele>120.80000305176</ele>
        <time>2011-05-08T08:03:50Z</time>
      </trkpt>
      <trkpt lat="44.7449" lon="-0.32146">
        <ele>121.09999847412</ele>
        <time>2011-05-08T08:03:52Z</time>
      </trkpt>
      <trkpt lat="44.74494" lon="-0.3214">
        <ele>121</ele>
        <time>2011-05-08T08:03:53Z</time>
      </trkpt>
      <trkpt lat="44.74497" lon="-0.32133">
        <ele>121.59999847412</ele>
        <time>2011-05-08T08:03:55Z</time>
      </trkpt>
      <trkpt lat="44.74503" lon="-0.32127">
        <ele>121.5</ele>
        <time>2011-05-08T08:03:57Z</time>
      </trkpt>
      <trkpt lat="44.74505" lon="-0.32122">
        <ele>120.59999847412</ele>
        <time>2011-05-08T08:03:58Z</time>
      </trkpt>
      <trkpt lat="44.7451" lon="-0.3211">
        <ele>119.5</ele>
        <time>2011-05-08T08:04:00Z</time>
      </trkpt>
      <trkpt lat="44.74512" lon="-0.32103">
        <ele>119.09999847412</ele>
        <time>2011-05-08T08:04:02Z</time>
      </trkpt>
      <trkpt lat="44.7452" lon="-0.32099">
        <ele>118.90000152588</ele>
        <time>2011-05-08T08:04:04Z</time>
      </trkpt>
      <trkpt lat="44.74526" lon="-0.32095">
        <ele>117.19999694824</ele>
        <time>2011-05-08T08:04:07Z</time>
      </trkpt>
      <trkpt lat="44.74532" lon="-0.3209">
        <ele>118.09999847412</ele>
        <time>2011-05-08T08:04:10Z</time>
      </trkpt>
      <trkpt lat="44.74537" lon="-0.32088">
        <ele>118.09999847412</ele>
        <time>2011-05-08T08:04:13Z</time>
      </trkpt>
      <trkpt lat="44.74541" lon="-0.32084">
        <ele>115.90000152588</ele>
        <time>2011-05-08T08:04:23Z</time>
      </trkpt>
      <trkpt lat="44.74546" lon="-0.32085">
        <ele>115.30000305176</ele>
        <time>2011-05-08T08:04:26Z</time>
      </trkpt>
      <trkpt lat="44.74551" lon="-0.32085">
        <ele>115.90000152588</ele>
        <time>2011-05-08T08:04:28Z</time>
      </trkpt>
      <trkpt lat="44.74555" lon="-0.32082">
        <ele>115.30000305176</ele>
        <time>2011-05-08T08:04:31Z</time>
      </trkpt>
      <trkpt lat="44.74559" lon="-0.32076">
        <ele>115.5</ele>
        <time>2011-05-08T08:04:34Z</time>
      </trkpt>
      <trkpt lat="44.74563" lon="-0.32072">
        <ele>115.19999694824</ele>
        <time>2011-05-08T08:04:36Z</time>
      </trkpt>
      <trkpt lat="44.74567" lon="-0.32069">
        <ele>115.5</ele>
        <time>2011-05-08T08:04:38Z</time>
      </trkpt>
      <trkpt lat="44.74568" lon="-0.32063">
        <ele>115.90000152588</ele>
        <time>2011-05-08T08:04:41Z</time>
      </trkpt>
      <trkpt lat="44.74568" lon="-0.32054">
        <ele>115</ele>
        <time>2011-05-08T08:04:44Z</time>
      </trkpt>
      <trkpt lat="44.7457" lon="-0.32048">
        <ele>115.69999694824</ele>
        <time>2011-05-08T08:04:47Z</time>
      </trkpt>
      <trkpt lat="44.74572" lon="-0.32042">
        <ele>116.69999694824</ele>
        <time>2011-05-08T08:04:49Z</time>
      </trkpt>
      <trkpt lat="44.74573" lon="-0.32035">
        <ele>116.69999694824</ele>
        <time>2011-05-08T08:04:51Z</time>
      </trkpt>
      <trkpt lat="44.74577" lon="-0.32029">
        <ele>116.80000305176</ele>
        <time>2011-05-08T08:04:53Z</time>
      </trkpt>
      <trkpt lat="44.7458" lon="-0.32023">
        <ele>116.09999847412</ele>
        <time>2011-05-08T08:04:55Z</time>
      </trkpt>
      <trkpt lat="44.74583" lon="-0.32016">
        <ele>116.90000152588</ele>
        <time>2011-05-08T08:04:57Z</time>
      </trkpt>
      <trkpt lat="44.74586" lon="-0.3201">
        <ele>116.69999694824</ele>
        <time>2011-05-08T08:04:59Z</time>
      </trkpt>
      <trkpt lat="44.74589" lon="-0.32003">
        <ele>116.80000305176</ele>
        <time>2011-05-08T08:05:01Z</time>
      </trkpt>
      <trkpt lat="44.74593" lon="-0.31997">
        <ele>117</ele>
        <time>2011-05-08T08:05:03Z</time>
      </trkpt>
      <trkpt lat="44.74597" lon="-0.3199">
        <ele>116.69999694824</ele>
        <time>2011-05-08T08:05:06Z</time>
      </trkpt>
      <trkpt lat="44.746" lon="-0.31982">
        <ele>117</ele>
        <time>2011-05-08T08:05:09Z</time>
      </trkpt>
      <trkpt lat="44.74604" lon="-0.31977">
        <ele>116.69999694824</ele>
        <time>2011-05-08T08:05:13Z</time>
      </trkpt>
      <trkpt lat="44.7461" lon="-0.31976">
        <ele>121.19999694824</ele>
        <time>2011-05-08T08:05:19Z</time>
      </trkpt>
      <trkpt lat="44.74616" lon="-0.31977">
        <ele>122.40000152588</ele>
        <time>2011-05-08T08:05:59Z</time>
      </trkpt>
      <trkpt lat="44.74619" lon="-0.31983">
        <ele>119.5</ele>
        <time>2011-05-08T08:07:48Z</time>
      </trkpt>
      <trkpt lat="44.74622" lon="-0.31984">
        <ele>118.69999694824</ele>
        <time>2011-05-08T08:10:11Z</time>
      </trkpt>
      <trkpt lat="44.74625" lon="-0.31982">
        <ele>119.59999847412</ele>
        <time>2011-05-08T08:12:45Z</time>
      </trkpt>
      <trkpt lat="44.74629" lon="-0.31979">
        <ele>120.19999694824</ele>
        <time>2011-05-08T08:12:46Z</time>
      </trkpt>
      <trkpt lat="44.74635" lon="-0.31979">
        <ele>121</ele>
        <time>2011-05-08T08:12:48Z</time>
      </trkpt>
      <trkpt lat="44.74641" lon="-0.31976">
        <ele>120.59999847412</ele>
        <time>2011-05-08T08:12:50Z</time>
      </trkpt>
      <trkpt lat="44.74646" lon="-0.31974">
        <ele>120</ele>
        <time>2011-05-08T08:12:51Z</time>
      </trkpt>
      <trkpt lat="44.7465" lon="-0.31971">
        <ele>120.09999847412</ele>
        <time>2011-05-08T08:12:53Z</time>
      </trkpt>
      <trkpt lat="44.74658" lon="-0.31971">
        <ele>120.40000152588</ele>
        <time>2011-05-08T08:12:55Z</time>
      </trkpt>
      <trkpt lat="44.74665" lon="-0.31971">
        <ele>121.5</ele>
        <time>2011-05-08T08:12:57Z</time>
      </trkpt>
      <trkpt lat="44.74672" lon="-0.31972">
        <ele>121.90000152588</ele>
        <time>2011-05-08T08:12:59Z</time>
      </trkpt>
      <trkpt lat="44.74678" lon="-0.31973">
        <ele>121.80000305176</ele>
        <time>2011-05-08T08:13:01Z</time>
      </trkpt>
      <trkpt lat="44.74682" lon="-0.31976">
        <ele>121.5</ele>
        <time>2011-05-08T08:13:02Z</time>
      </trkpt>
      <trkpt lat="44.74687" lon="-0.31978">
        <ele>120.5</ele>
        <time>2011-05-08T08:13:03Z</time>
      </trkpt>
      <trkpt lat="44.74695" lon="-0.31977">
        <ele>120</ele>
        <time>2011-05-08T08:13:05Z</time>
      </trkpt>
      <trkpt lat="44.747" lon="-0.3198">
        <ele>120.80000305176</ele>
        <time>2011-05-08T08:13:07Z</time>
      </trkpt>
      <trkpt lat="44.74704" lon="-0.31982">
        <ele>121.09999847412</ele>
        <time>2011-05-08T08:13:09Z</time>
      </trkpt>
      <trkpt lat="44.74709" lon="-0.31983">
        <ele>121.09999847412</ele>
        <time>2011-05-08T08:13:12Z</time>
      </trkpt>
      <trkpt lat="44.74715" lon="-0.31987">
        <ele>122.90000152588</ele>
        <time>2011-05-08T08:13:15Z</time>
      </trkpt>
      <trkpt lat="44.74721" lon="-0.31989">
        <ele>123.80000305176</ele>
        <time>2011-05-08T08:13:18Z</time>
      </trkpt>
      <trkpt lat="44.74726" lon="-0.31991">
        <ele>124.5</ele>
        <time>2011-05-08T08:13:20Z</time>
      </trkpt>
      <trkpt lat="44.74732" lon="-0.31994">
        <ele>125.80000305176</ele>
        <time>2011-05-08T08:13:23Z</time>
      </trkpt>
      <trkpt lat="44.74737" lon="-0.32001">
        <ele>127.69999694824</ele>
        <time>2011-05-08T08:13:28Z</time>
      </trkpt>
      <trkpt lat="44.74743" lon="-0.32008">
        <ele>128</ele>
        <time>2011-05-08T08:13:31Z</time>
      </trkpt>
      <trkpt lat="44.74747" lon="-0.32012">
        <ele>127.90000152588</ele>
        <time>2011-05-08T08:13:33Z</time>
      </trkpt>
      <trkpt lat="44.74751" lon="-0.32016">
        <ele>128.19999694824</ele>
        <time>2011-05-08T08:13:35Z</time>
      </trkpt>
      <trkpt lat="44.74756" lon="-0.32021">
        <ele>131.10000610352</ele>
        <time>2011-05-08T08:13:39Z</time>
      </trkpt>
      <trkpt lat="44.74763" lon="-0.32024">
        <ele>132.80000305176</ele>
        <time>2011-05-08T08:13:44Z</time>
      </trkpt>
      <trkpt lat="44.74767" lon="-0.32027">
        <ele>133.30000305176</ele>
        <time>2011-05-08T08:13:46Z</time>
      </trkpt>
      <trkpt lat="44.7477" lon="-0.32033">
        <ele>134.19999694824</ele>
        <time>2011-05-08T08:13:48Z</time>
      </trkpt>
      <trkpt lat="44.74773" lon="-0.32038">
        <ele>135</ele>
        <time>2011-05-08T08:13:51Z</time>
      </trkpt>
      <trkpt lat="44.74778" lon="-0.32043">
        <ele>135.30000305176</ele>
        <time>2011-05-08T08:13:54Z</time>
      </trkpt>
      <trkpt lat="44.74779" lon="-0.3205">
        <ele>135.89999389648</ele>
        <time>2011-05-08T08:13:59Z</time>
      </trkpt>
      <trkpt lat="44.7478" lon="-0.32059">
        <ele>137.19999694824</ele>
        <time>2011-05-08T08:14:02Z</time>
      </trkpt>
      <trkpt lat="44.74781" lon="-0.32066">
        <ele>137.89999389648</ele>
        <time>2011-05-08T08:14:06Z</time>
      </trkpt>
      <trkpt lat="44.74786" lon="-0.32068">
        <ele>137.19999694824</ele>
        <time>2011-05-08T08:14:09Z</time>
      </trkpt>
      <trkpt lat="44.7479" lon="-0.32071">
        <ele>138.30000305176</ele>
        <time>2011-05-08T08:14:12Z</time>
      </trkpt>
      <trkpt lat="44.74795" lon="-0.32075">
        <ele>139.30000305176</ele>
        <time>2011-05-08T08:14:17Z</time>
      </trkpt>
      <trkpt lat="44.74798" lon="-0.3208">
        <ele>138.5</ele>
        <time>2011-05-08T08:14:20Z</time>
      </trkpt>
      <trkpt lat="44.74804" lon="-0.32082">
        <ele>142.30000305176</ele>
        <time>2011-05-08T08:14:27Z</time>
      </trkpt>
      <trkpt lat="44.74809" lon="-0.32089">
        <ele>143.39999389648</ele>
        <time>2011-05-08T08:14:30Z</time>
      </trkpt>
      <trkpt lat="44.74815" lon="-0.32094">
        <ele>143.60000610352</ele>
        <time>2011-05-08T08:14:35Z</time>
      </trkpt>
      <trkpt lat="44.74821" lon="-0.32099">
        <ele>143.39999389648</ele>
        <time>2011-05-08T08:14:38Z</time>
      </trkpt>
      <trkpt lat="44.74826" lon="-0.32102">
        <ele>143.10000610352</ele>
        <time>2011-05-08T08:14:41Z</time>
      </trkpt>
      <trkpt lat="44.74829" lon="-0.32108">
        <ele>144.69999694824</ele>
        <time>2011-05-08T08:14:46Z</time>
      </trkpt>
      <trkpt lat="44.74836" lon="-0.32111">
        <ele>145.10000610352</ele>
        <time>2011-05-08T08:14:49Z</time>
      </trkpt>
      <trkpt lat="44.74841" lon="-0.32114">
        <ele>145.69999694824</ele>
        <time>2011-05-08T08:14:52Z</time>
      </trkpt>
      <trkpt lat="44.74846" lon="-0.32119">
        <ele>145.5</ele>
        <time>2011-05-08T08:14:55Z</time>
      </trkpt>
      <trkpt lat="44.74851" lon="-0.32125">
        <ele>145.5</ele>
        <time>2011-05-08T08:14:58Z</time>
      </trkpt>
      <trkpt lat="44.74855" lon="-0.32131">
        <ele>145.89999389648</ele>
        <time>2011-05-08T08:15:01Z</time>
      </trkpt>
      <trkpt lat="44.74861" lon="-0.32131">
        <ele>146.5</ele>
        <time>2011-05-08T08:15:04Z</time>
      </trkpt>
      <trkpt lat="44.74867" lon="-0.32135">
        <ele>147.69999694824</ele>
        <time>2011-05-08T08:15:07Z</time>
      </trkpt>
      <trkpt lat="44.74872" lon="-0.32139">
        <ele>147.80000305176</ele>
        <time>2011-05-08T08:15:10Z</time>
      </trkpt>
      <trkpt lat="44.74877" lon="-0.32143">
        <ele>147.5</ele>
        <time>2011-05-08T08:15:13Z</time>
      </trkpt>
      <trkpt lat="44.74881" lon="-0.32147">
        <ele>147.89999389648</ele>
        <time>2011-05-08T08:15:15Z</time>
      </trkpt>
      <trkpt lat="44.74885" lon="-0.32151">
        <ele>148.39999389648</ele>
        <time>2011-05-08T08:15:17Z</time>
      </trkpt>
      <trkpt lat="44.74889" lon="-0.32154">
        <ele>150.39999389648</ele>
        <time>2011-05-08T08:15:19Z</time>
      </trkpt>
      <trkpt lat="44.74893" lon="-0.32159">
        <ele>152.19999694824</ele>
        <time>2011-05-08T08:15:21Z</time>
      </trkpt>
      <trkpt lat="44.74897" lon="-0.32163">
        <ele>152.5</ele>
        <time>2011-05-08T08:15:23Z</time>
      </trkpt>
      <trkpt lat="44.74903" lon="-0.32167">
        <ele>154.10000610352</ele>
        <time>2011-05-08T08:15:26Z</time>
      </trkpt>
      <trkpt lat="44.74908" lon="-0.32172">
        <ele>154</ele>
        <time>2011-05-08T08:15:29Z</time>
      </trkpt>
      <trkpt lat="44.74914" lon="-0.32173">
        <ele>154.5</ele>
        <time>2011-05-08T08:15:31Z</time>
      </trkpt>
      <trkpt lat="44.74919" lon="-0.32178">
        <ele>153.89999389648</ele>
        <time>2011-05-08T08:15:33Z</time>
      </trkpt>
      <trkpt lat="44.74925" lon="-0.32182">
        <ele>153.89999389648</ele>
        <time>2011-05-08T08:15:35Z</time>
      </trkpt>
      <trkpt lat="44.74931" lon="-0.32188">
        <ele>153.60000610352</ele>
        <time>2011-05-08T08:15:37Z</time>
      </trkpt>
      <trkpt lat="44.7494" lon="-0.32195">
        <ele>154.19999694824</ele>
        <time>2011-05-08T08:15:39Z</time>
      </trkpt>
      <trkpt lat="44.74948" lon="-0.322">
        <ele>154.5</ele>
        <time>2011-05-08T08:15:41Z</time>
      </trkpt>
      <trkpt lat="44.74957" lon="-0.32207">
        <ele>155.19999694824</ele>
        <time>2011-05-08T08:15:44Z</time>
      </trkpt>
      <trkpt lat="44.74961" lon="-0.3221">
        <ele>155.10000610352</ele>
        <time>2011-05-08T08:15:45Z</time>
      </trkpt>
      <trkpt lat="44.74966" lon="-0.32214">
        <ele>155.5</ele>
        <time>2011-05-08T08:15:46Z</time>
      </trkpt>
      <trkpt lat="44.74973" lon="-0.32219">
        <ele>155.80000305176</ele>
        <time>2011-05-08T08:15:48Z</time>
      </trkpt>
      <trkpt lat="44.74978" lon="-0.32222">
        <ele>156.60000610352</ele>
        <time>2011-05-08T08:15:50Z</time>
      </trkpt>
      <trkpt lat="44.74984" lon="-0.32227">
        <ele>158.30000305176</ele>
        <time>2011-05-08T08:15:52Z</time>
      </trkpt>
      <trkpt lat="44.7499" lon="-0.3223">
        <ele>159.10000610352</ele>
        <time>2011-05-08T08:15:54Z</time>
      </trkpt>
      <trkpt lat="44.74996" lon="-0.32235">
        <ele>158.5</ele>
        <time>2011-05-08T08:15:56Z</time>
      </trkpt>
      <trkpt lat="44.75002" lon="-0.32238">
        <ele>158.10000610352</ele>
        <time>2011-05-08T08:15:58Z</time>
      </trkpt>
      <trkpt lat="44.75009" lon="-0.32243">
        <ele>157.80000305176</ele>
        <time>2011-05-08T08:16:00Z</time>
      </trkpt>
      <trkpt lat="44.75017" lon="-0.32248">
        <ele>158.5</ele>
        <time>2011-05-08T08:16:02Z</time>
      </trkpt>
      <trkpt lat="44.75021" lon="-0.32252">
        <ele>159.80000305176</ele>
        <time>2011-05-08T08:16:04Z</time>
      </trkpt>
      <trkpt lat="44.75028" lon="-0.32258">
        <ele>159.60000610352</ele>
        <time>2011-05-08T08:16:06Z</time>
      </trkpt>
      <trkpt lat="44.75033" lon="-0.32262">
        <ele>159.69999694824</ele>
        <time>2011-05-08T08:16:08Z</time>
      </trkpt>
      <trkpt lat="44.7504" lon="-0.32269">
        <ele>160.19999694824</ele>
        <time>2011-05-08T08:16:10Z</time>
      </trkpt>
      <trkpt lat="44.75046" lon="-0.32274">
        <ele>160.69999694824</ele>
        <time>2011-05-08T08:16:12Z</time>
      </trkpt>
      <trkpt lat="44.75051" lon="-0.32276">
        <ele>160.39999389648</ele>
        <time>2011-05-08T08:16:13Z</time>
      </trkpt>
      <trkpt lat="44.75055" lon="-0.32279">
        <ele>160.10000610352</ele>
        <time>2011-05-08T08:16:14Z</time>
      </trkpt>
      <trkpt lat="44.75062" lon="-0.32284">
        <ele>161</ele>
        <time>2011-05-08T08:16:16Z</time>
      </trkpt>
      <trkpt lat="44.75068" lon="-0.3229">
        <ele>160.89999389648</ele>
        <time>2011-05-08T08:16:18Z</time>
      </trkpt>
      <trkpt lat="44.75071" lon="-0.32294">
        <ele>161.10000610352</ele>
        <time>2011-05-08T08:16:19Z</time>
      </trkpt>
      <trkpt lat="44.75076" lon="-0.32297">
        <ele>161</ele>
        <time>2011-05-08T08:16:20Z</time>
      </trkpt>
      <trkpt lat="44.7508" lon="-0.32301">
        <ele>161</ele>
        <time>2011-05-08T08:16:21Z</time>
      </trkpt>
      <trkpt lat="44.75084" lon="-0.32304">
        <ele>160.80000305176</ele>
        <time>2011-05-08T08:16:22Z</time>
      </trkpt>
      <trkpt lat="44.75088" lon="-0.32307">
        <ele>161.10000610352</ele>
        <time>2011-05-08T08:16:23Z</time>
      </trkpt>
      <trkpt lat="44.75091" lon="-0.32311">
        <ele>162</ele>
        <time>2011-05-08T08:16:24Z</time>
      </trkpt>
      <trkpt lat="44.75098" lon="-0.32314">
        <ele>160.89999389648</ele>
        <time>2011-05-08T08:16:25Z</time>
      </trkpt>
      <trkpt lat="44.75104" lon="-0.3232">
        <ele>159.60000610352</ele>
        <time>2011-05-08T08:16:26Z</time>
      </trkpt>
      <trkpt lat="44.75108" lon="-0.32323">
        <ele>159.69999694824</ele>
        <time>2011-05-08T08:16:27Z</time>
      </trkpt>
      <trkpt lat="44.75114" lon="-0.32327">
        <ele>160.19999694824</ele>
        <time>2011-05-08T08:16:28Z</time>
      </trkpt>
      <trkpt lat="44.75117" lon="-0.32331">
        <ele>160.60000610352</ele>
        <time>2011-05-08T08:16:29Z</time>
      </trkpt>
      <trkpt lat="44.75121" lon="-0.32336">
        <ele>160.10000610352</ele>
        <time>2011-05-08T08:16:30Z</time>
      </trkpt>
      <trkpt lat="44.75126" lon="-0.3234">
        <ele>160.39999389648</ele>
        <time>2011-05-08T08:16:31Z</time>
      </trkpt>
      <trkpt lat="44.75131" lon="-0.32345">
        <ele>159.89999389648</ele>
        <time>2011-05-08T08:16:32Z</time>
      </trkpt>
      <trkpt lat="44.75136" lon="-0.32349">
        <ele>160</ele>
        <time>2011-05-08T08:16:33Z</time>
      </trkpt>
      <trkpt lat="44.7514" lon="-0.32352">
        <ele>160</ele>
        <time>2011-05-08T08:16:34Z</time>
      </trkpt>
      <trkpt lat="44.75147" lon="-0.32358">
        <ele>159.80000305176</ele>
        <time>2011-05-08T08:16:36Z</time>
      </trkpt>
      <trkpt lat="44.75154" lon="-0.32361">
        <ele>159.30000305176</ele>
        <time>2011-05-08T08:16:37Z</time>
      </trkpt>
      <trkpt lat="44.75159" lon="-0.32364">
        <ele>158.60000610352</ele>
        <time>2011-05-08T08:16:38Z</time>
      </trkpt>
      <trkpt lat="44.75163" lon="-0.32366">
        <ele>158.80000305176</ele>
        <time>2011-05-08T08:16:39Z</time>
      </trkpt>
      <trkpt lat="44.75167" lon="-0.3237">
        <ele>158.5</ele>
        <time>2011-05-08T08:16:40Z</time>
      </trkpt>
      <trkpt lat="44.75175" lon="-0.32375">
        <ele>159.30000305176</ele>
        <time>2011-05-08T08:16:42Z</time>
      </trkpt>
      <trkpt lat="44.75187" lon="-0.32385">
        <ele>160.69999694824</ele>
        <time>2011-05-08T08:16:45Z</time>
      </trkpt>
      <trkpt lat="44.75191" lon="-0.32389">
        <ele>160.30000305176</ele>
        <time>2011-05-08T08:16:46Z</time>
      </trkpt>
      <trkpt lat="44.75198" lon="-0.32392">
        <ele>160.69999694824</ele>
        <time>2011-05-08T08:16:48Z</time>
      </trkpt>
      <trkpt lat="44.75205" lon="-0.324">
        <ele>160</ele>
        <time>2011-05-08T08:16:50Z</time>
      </trkpt>
      <trkpt lat="44.75211" lon="-0.32405">
        <ele>160.5</ele>
        <time>2011-05-08T08:16:52Z</time>
      </trkpt>
      <trkpt lat="44.75215" lon="-0.32407">
        <ele>160.39999389648</ele>
        <time>2011-05-08T08:16:53Z</time>
      </trkpt>
      <trkpt lat="44.7522" lon="-0.3241">
        <ele>159.69999694824</ele>
        <time>2011-05-08T08:16:54Z</time>
      </trkpt>
      <trkpt lat="44.75226" lon="-0.32416">
        <ele>160</ele>
        <time>2011-05-08T08:16:56Z</time>
      </trkpt>
      <trkpt lat="44.75231" lon="-0.32419">
        <ele>159.60000610352</ele>
        <time>2011-05-08T08:16:57Z</time>
      </trkpt>
      <trkpt lat="44.75236" lon="-0.32426">
        <ele>160.5</ele>
        <time>2011-05-08T08:16:59Z</time>
      </trkpt>
      <trkpt lat="44.75245" lon="-0.32433">
        <ele>160</ele>
        <time>2011-05-08T08:17:01Z</time>
      </trkpt>
      <trkpt lat="44.75252" lon="-0.32437">
        <ele>159.60000610352</ele>
        <time>2011-05-08T08:17:03Z</time>
      </trkpt>
      <trkpt lat="44.75259" lon="-0.32444">
        <ele>160.19999694824</ele>
        <time>2011-05-08T08:17:05Z</time>
      </trkpt>
      <trkpt lat="44.75263" lon="-0.32448">
        <ele>160.60000610352</ele>
        <time>2011-05-08T08:17:06Z</time>
      </trkpt>
      <trkpt lat="44.7527" lon="-0.32453">
        <ele>160.89999389648</ele>
        <time>2011-05-08T08:17:08Z</time>
      </trkpt>
      <trkpt lat="44.75275" lon="-0.32457">
        <ele>159.69999694824</ele>
        <time>2011-05-08T08:17:09Z</time>
      </trkpt>
      <trkpt lat="44.75279" lon="-0.32461">
        <ele>160.19999694824</ele>
        <time>2011-05-08T08:17:10Z</time>
      </trkpt>
      <trkpt lat="44.75283" lon="-0.32464">
        <ele>159.89999389648</ele>
        <time>2011-05-08T08:17:11Z</time>
      </trkpt>
      <trkpt lat="44.75288" lon="-0.32468">
        <ele>159.60000610352</ele>
        <time>2011-05-08T08:17:12Z</time>
      </trkpt>
      <trkpt lat="44.75295" lon="-0.32476">
        <ele>159.39999389648</ele>
        <time>2011-05-08T08:17:14Z</time>
      </trkpt>
      <trkpt lat="44.753" lon="-0.32479">
        <ele>159.60000610352</ele>
        <time>2011-05-08T08:17:15Z</time>
      </trkpt>
      <trkpt lat="44.75308" lon="-0.32488">
        <ele>160.10000610352</ele>
        <time>2011-05-08T08:17:17Z</time>
      </trkpt>
      <trkpt lat="44.75318" lon="-0.32494">
        <ele>160.10000610352</ele>
        <time>2011-05-08T08:17:19Z</time>
      </trkpt>
      <trkpt lat="44.75322" lon="-0.32498">
        <ele>160.10000610352</ele>
        <time>2011-05-08T08:17:20Z</time>
      </trkpt>
      <trkpt lat="44.75326" lon="-0.32502">
        <ele>160.30000305176</ele>
        <time>2011-05-08T08:17:21Z</time>
      </trkpt>
      <trkpt lat="44.75332" lon="-0.32505">
        <ele>160.30000305176</ele>
        <time>2011-05-08T08:17:22Z</time>
      </trkpt>
      <trkpt lat="44.75336" lon="-0.32509">
        <ele>160.19999694824</ele>
        <time>2011-05-08T08:17:23Z</time>
      </trkpt>
      <trkpt lat="44.75344" lon="-0.32515">
        <ele>160.5</ele>
        <time>2011-05-08T08:17:25Z</time>
      </trkpt>
      <trkpt lat="44.75349" lon="-0.32519">
        <ele>161</ele>
        <time>2011-05-08T08:17:26Z</time>
      </trkpt>
      <trkpt lat="44.75353" lon="-0.32523">
        <ele>161</ele>
        <time>2011-05-08T08:17:27Z</time>
      </trkpt>
      <trkpt lat="44.75359" lon="-0.32528">
        <ele>161.39999389648</ele>
        <time>2011-05-08T08:17:29Z</time>
      </trkpt>
      <trkpt lat="44.75363" lon="-0.32532">
        <ele>161.69999694824</ele>
        <time>2011-05-08T08:17:30Z</time>
      </trkpt>
      <trkpt lat="44.7537" lon="-0.32538">
        <ele>161.89999389648</ele>
        <time>2011-05-08T08:17:32Z</time>
      </trkpt>
      <trkpt lat="44.75377" lon="-0.32543">
        <ele>161.80000305176</ele>
        <time>2011-05-08T08:17:33Z</time>
      </trkpt>
      <trkpt lat="44.75384" lon="-0.3255">
        <ele>162</ele>
        <time>2011-05-08T08:17:35Z</time>
      </trkpt>
      <trkpt lat="44.75388" lon="-0.32554">
        <ele>162</ele>
        <time>2011-05-08T08:17:36Z</time>
      </trkpt>
      <trkpt lat="44.75396" lon="-0.3256">
        <ele>162.5</ele>
        <time>2011-05-08T08:17:38Z</time>
      </trkpt>
      <trkpt lat="44.754" lon="-0.32565">
        <ele>162</ele>
        <time>2011-05-08T08:17:39Z</time>
      </trkpt>
      <trkpt lat="44.75404" lon="-0.32572">
        <ele>161.69999694824</ele>
        <time>2011-05-08T08:17:40Z</time>
      </trkpt>
      <trkpt lat="44.75408" lon="-0.32577">
        <ele>161.30000305176</ele>
        <time>2011-05-08T08:17:41Z</time>
      </trkpt>
      <trkpt lat="44.75412" lon="-0.32581">
        <ele>161.19999694824</ele>
        <time>2011-05-08T08:17:42Z</time>
      </trkpt>
      <trkpt lat="44.7542" lon="-0.32585">
        <ele>162</ele>
        <time>2011-05-08T08:17:44Z</time>
      </trkpt>
      <trkpt lat="44.75424" lon="-0.32588">
        <ele>162.10000610352</ele>
        <time>2011-05-08T08:17:45Z</time>
      </trkpt>
      <trkpt lat="44.75427" lon="-0.32593">
        <ele>161.89999389648</ele>
        <time>2011-05-08T08:17:46Z</time>
      </trkpt>
      <trkpt lat="44.75432" lon="-0.326">
        <ele>162.19999694824</ele>
        <time>2011-05-08T08:17:47Z</time>
      </trkpt>
      <trkpt lat="44.75437" lon="-0.32606">
        <ele>162.89999389648</ele>
        <time>2011-05-08T08:17:48Z</time>
      </trkpt>
      <trkpt lat="44.75443" lon="-0.3261">
        <ele>162.5</ele>
        <time>2011-05-08T08:17:49Z</time>
      </trkpt>
      <trkpt lat="44.7545" lon="-0.32619">
        <ele>162.5</ele>
        <time>2011-05-08T08:17:51Z</time>
      </trkpt>
      <trkpt lat="44.75456" lon="-0.32623">
        <ele>162.10000610352</ele>
        <time>2011-05-08T08:17:52Z</time>
      </trkpt>
      <trkpt lat="44.75464" lon="-0.32629">
        <ele>161.80000305176</ele>
        <time>2011-05-08T08:17:54Z</time>
      </trkpt>
      <trkpt lat="44.75472" lon="-0.32636">
        <ele>161.60000610352</ele>
        <time>2011-05-08T08:17:56Z</time>
      </trkpt>
      <trkpt lat="44.75476" lon="-0.3264">
        <ele>161.19999694824</ele>
        <time>2011-05-08T08:17:57Z</time>
      </trkpt>
      <trkpt lat="44.75483" lon="-0.32646">
        <ele>160.80000305176</ele>
        <time>2011-05-08T08:17:59Z</time>
      </trkpt>
      <trkpt lat="44.7549" lon="-0.32653">
        <ele>161.19999694824</ele>
        <time>2011-05-08T08:18:01Z</time>
      </trkpt>
      <trkpt lat="44.75494" lon="-0.32656">
        <ele>161.10000610352</ele>
        <time>2011-05-08T08:18:02Z</time>
      </trkpt>
      <trkpt lat="44.75499" lon="-0.3266">
        <ele>161</ele>
        <time>2011-05-08T08:18:03Z</time>
      </trkpt>
      <trkpt lat="44.75503" lon="-0.32664">
        <ele>161.10000610352</ele>
        <time>2011-05-08T08:18:04Z</time>
      </trkpt>
      <trkpt lat="44.75507" lon="-0.32668">
        <ele>160.89999389648</ele>
        <time>2011-05-08T08:18:05Z</time>
      </trkpt>
      <trkpt lat="44.75512" lon="-0.32671">
        <ele>160.80000305176</ele>
        <time>2011-05-08T08:18:06Z</time>
      </trkpt>
      <trkpt lat="44.75518" lon="-0.32677">
        <ele>160.89999389648</ele>
        <time>2011-05-08T08:18:08Z</time>
      </trkpt>
      <trkpt lat="44.75525" lon="-0.32683">
        <ele>159.69999694824</ele>
        <time>2011-05-08T08:18:10Z</time>
      </trkpt>
      <trkpt lat="44.75531" lon="-0.3269">
        <ele>159.19999694824</ele>
        <time>2011-05-08T08:18:12Z</time>
      </trkpt>
      <trkpt lat="44.7554" lon="-0.32695">
        <ele>159.19999694824</ele>
        <time>2011-05-08T08:18:14Z</time>
      </trkpt>
      <trkpt lat="44.75544" lon="-0.32698">
        <ele>159.19999694824</ele>
        <time>2011-05-08T08:18:15Z</time>
      </trkpt>
      <trkpt lat="44.7555" lon="-0.32704">
        <ele>158.80000305176</ele>
        <time>2011-05-08T08:18:17Z</time>
      </trkpt>
      <trkpt lat="44.75554" lon="-0.32707">
        <ele>158.69999694824</ele>
        <time>2011-05-08T08:18:18Z</time>
      </trkpt>
      <trkpt lat="44.75561" lon="-0.32714">
        <ele>159.30000305176</ele>
        <time>2011-05-08T08:18:20Z</time>
      </trkpt>
      <trkpt lat="44.75565" lon="-0.32718">
        <ele>159.60000610352</ele>
        <time>2011-05-08T08:18:21Z</time>
      </trkpt>
      <trkpt lat="44.75571" lon="-0.32724">
        <ele>161.10000610352</ele>
        <time>2011-05-08T08:18:23Z</time>
      </trkpt>
      <trkpt lat="44.75575" lon="-0.32728">
        <ele>161.89999389648</ele>
        <time>2011-05-08T08:18:24Z</time>
      </trkpt>
      <trkpt lat="44.75582" lon="-0.32736">
        <ele>162</ele>
        <time>2011-05-08T08:18:26Z</time>
      </trkpt>
      <trkpt lat="44.75587" lon="-0.3274">
        <ele>161</ele>
        <time>2011-05-08T08:18:27Z</time>
      </trkpt>
      <trkpt lat="44.75593" lon="-0.32748">
        <ele>161</ele>
        <time>2011-05-08T08:18:29Z</time>
      </trkpt>
      <trkpt lat="44.75596" lon="-0.32752">
        <ele>160.5</ele>
        <time>2011-05-08T08:18:30Z</time>
      </trkpt>
      <trkpt lat="44.756" lon="-0.32756">
        <ele>160.69999694824</ele>
        <time>2011-05-08T08:18:31Z</time>
      </trkpt>
      <trkpt lat="44.75605" lon="-0.3276">
        <ele>161.10000610352</ele>
        <time>2011-05-08T08:18:32Z</time>
      </trkpt>
      <trkpt lat="44.75609" lon="-0.32764">
        <ele>161.69999694824</ele>
        <time>2011-05-08T08:18:33Z</time>
      </trkpt>
      <trkpt lat="44.75613" lon="-0.3277">
        <ele>161.39999389648</ele>
        <time>2011-05-08T08:18:34Z</time>
      </trkpt>
      <trkpt lat="44.75618" lon="-0.32774">
        <ele>160.30000305176</ele>
        <time>2011-05-08T08:18:35Z</time>
      </trkpt>
      <trkpt lat="44.75621" lon="-0.32778">
        <ele>160.10000610352</ele>
        <time>2011-05-08T08:18:36Z</time>
      </trkpt>
      <trkpt lat="44.75626" lon="-0.32783">
        <ele>159.89999389648</ele>
        <time>2011-05-08T08:18:37Z</time>
      </trkpt>
      <trkpt lat="44.75631" lon="-0.32787">
        <ele>159.80000305176</ele>
        <time>2011-05-08T08:18:38Z</time>
      </trkpt>
      <trkpt lat="44.75636" lon="-0.32791">
        <ele>160</ele>
        <time>2011-05-08T08:18:39Z</time>
      </trkpt>
      <trkpt lat="44.7564" lon="-0.32796">
        <ele>159.10000610352</ele>
        <time>2011-05-08T08:18:40Z</time>
      </trkpt>
      <trkpt lat="44.75644" lon="-0.328">
        <ele>158.80000305176</ele>
        <time>2011-05-08T08:18:41Z</time>
      </trkpt>
      <trkpt lat="44.75649" lon="-0.32805">
        <ele>158</ele>
        <time>2011-05-08T08:18:42Z</time>
      </trkpt>
      <trkpt lat="44.75663" lon="-0.32819">
        <ele>157.60000610352</ele>
        <time>2011-05-08T08:18:45Z</time>
      </trkpt>
      <trkpt lat="44.75667" lon="-0.32823">
        <ele>157.39999389648</ele>
        <time>2011-05-08T08:18:47Z</time>
      </trkpt>
      <trkpt lat="44.75674" lon="-0.32823">
        <ele>156.39999389648</ele>
        <time>2011-05-08T08:18:50Z</time>
      </trkpt>
      <trkpt lat="44.75679" lon="-0.32819">
        <ele>155.89999389648</ele>
        <time>2011-05-08T08:18:52Z</time>
      </trkpt>
      <trkpt lat="44.75686" lon="-0.32814">
        <ele>155.89999389648</ele>
        <time>2011-05-08T08:18:54Z</time>
      </trkpt>
      <trkpt lat="44.75693" lon="-0.32807">
        <ele>155.69999694824</ele>
        <time>2011-05-08T08:18:56Z</time>
      </trkpt>
      <trkpt lat="44.757" lon="-0.32802">
        <ele>155.69999694824</ele>
        <time>2011-05-08T08:18:58Z</time>
      </trkpt>
      <trkpt lat="44.75705" lon="-0.32799">
        <ele>155.69999694824</ele>
        <time>2011-05-08T08:18:59Z</time>
      </trkpt>
      <trkpt lat="44.75709" lon="-0.32796">
        <ele>155.19999694824</ele>
        <time>2011-05-08T08:19:00Z</time>
      </trkpt>
      <trkpt lat="44.75714" lon="-0.32793">
        <ele>154.89999389648</ele>
        <time>2011-05-08T08:19:01Z</time>
      </trkpt>
      <trkpt lat="44.75718" lon="-0.32789">
        <ele>154.60000610352</ele>
        <time>2011-05-08T08:19:02Z</time>
      </trkpt>
      <trkpt lat="44.75722" lon="-0.32785">
        <ele>154.60000610352</ele>
        <time>2011-05-08T08:19:03Z</time>
      </trkpt>
      <trkpt lat="44.75725" lon="-0.32781">
        <ele>154.39999389648</ele>
        <time>2011-05-08T08:19:04Z</time>
      </trkpt>
      <trkpt lat="44.75729" lon="-0.32777">
        <ele>154.19999694824</ele>
        <time>2011-05-08T08:19:05Z</time>
      </trkpt>
      <trkpt lat="44.75733" lon="-0.32771">
        <ele>154.60000610352</ele>
        <time>2011-05-08T08:19:06Z</time>
      </trkpt>
      <trkpt lat="44.75736" lon="-0.32764">
        <ele>154.80000305176</ele>
        <time>2011-05-08T08:19:07Z</time>
      </trkpt>
      <trkpt lat="44.7574" lon="-0.3276">
        <ele>154.5</ele>
        <time>2011-05-08T08:19:08Z</time>
      </trkpt>
      <trkpt lat="44.75745" lon="-0.32755">
        <ele>153.60000610352</ele>
        <time>2011-05-08T08:19:09Z</time>
      </trkpt>
      <trkpt lat="44.75747" lon="-0.32748">
        <ele>153.19999694824</ele>
        <time>2011-05-08T08:19:10Z</time>
      </trkpt>
      <trkpt lat="44.7575" lon="-0.32742">
        <ele>153.19999694824</ele>
        <time>2011-05-08T08:19:11Z</time>
      </trkpt>
      <trkpt lat="44.75753" lon="-0.32735">
        <ele>153.60000610352</ele>
        <time>2011-05-08T08:19:12Z</time>
      </trkpt>
      <trkpt lat="44.75756" lon="-0.32729">
        <ele>153.39999389648</ele>
        <time>2011-05-08T08:19:13Z</time>
      </trkpt>
      <trkpt lat="44.75758" lon="-0.32723">
        <ele>153.19999694824</ele>
        <time>2011-05-08T08:19:14Z</time>
      </trkpt>
      <trkpt lat="44.7576" lon="-0.32717">
        <ele>153.10000610352</ele>
        <time>2011-05-08T08:19:15Z</time>
      </trkpt>
      <trkpt lat="44.75763" lon="-0.3271">
        <ele>153</ele>
        <time>2011-05-08T08:19:16Z</time>
      </trkpt>
      <trkpt lat="44.75765" lon="-0.32704">
        <ele>152.89999389648</ele>
        <time>2011-05-08T08:19:17Z</time>
      </trkpt>
      <trkpt lat="44.75767" lon="-0.32697">
        <ele>152.60000610352</ele>
        <time>2011-05-08T08:19:18Z</time>
      </trkpt>
      <trkpt lat="44.75769" lon="-0.32691">
        <ele>152.30000305176</ele>
        <time>2011-05-08T08:19:19Z</time>
      </trkpt>
      <trkpt lat="44.75771" lon="-0.32683">
        <ele>152.5</ele>
        <time>2011-05-08T08:19:20Z</time>
      </trkpt>
      <trkpt lat="44.75774" lon="-0.32677">
        <ele>152.10000610352</ele>
        <time>2011-05-08T08:19:21Z</time>
      </trkpt>
      <trkpt lat="44.75776" lon="-0.32671">
        <ele>152.30000305176</ele>
        <time>2011-05-08T08:19:22Z</time>
      </trkpt>
      <trkpt lat="44.75778" lon="-0.32664">
        <ele>152.39999389648</ele>
        <time>2011-05-08T08:19:23Z</time>
      </trkpt>
      <trkpt lat="44.75781" lon="-0.32657">
        <ele>152.60000610352</ele>
        <time>2011-05-08T08:19:24Z</time>
      </trkpt>
      <trkpt lat="44.75783" lon="-0.32651">
        <ele>152.5</ele>
        <time>2011-05-08T08:19:25Z</time>
      </trkpt>
      <trkpt lat="44.75785" lon="-0.32643">
        <ele>152.60000610352</ele>
        <time>2011-05-08T08:19:26Z</time>
      </trkpt>
      <trkpt lat="44.75786" lon="-0.32637">
        <ele>152.89999389648</ele>
        <time>2011-05-08T08:19:27Z</time>
      </trkpt>
      <trkpt lat="44.75789" lon="-0.32629">
        <ele>153.19999694824</ele>
        <time>2011-05-08T08:19:28Z</time>
      </trkpt>
      <trkpt lat="44.75793" lon="-0.32617">
        <ele>153</ele>
        <time>2011-05-08T08:19:30Z</time>
      </trkpt>
      <trkpt lat="44.75796" lon="-0.32608">
        <ele>154</ele>
        <time>2011-05-08T08:19:31Z</time>
      </trkpt>
      <trkpt lat="44.758" lon="-0.32597">
        <ele>153.89999389648</ele>
        <time>2011-05-08T08:19:33Z</time>
      </trkpt>
      <trkpt lat="44.75802" lon="-0.32591">
        <ele>153.60000610352</ele>
        <time>2011-05-08T08:19:34Z</time>
      </trkpt>
      <trkpt lat="44.75805" lon="-0.32586">
        <ele>153.10000610352</ele>
        <time>2011-05-08T08:19:35Z</time>
      </trkpt>
      <trkpt lat="44.75809" lon="-0.32575">
        <ele>152.80000305176</ele>
        <time>2011-05-08T08:19:37Z</time>
      </trkpt>
      <trkpt lat="44.75812" lon="-0.32568">
        <ele>153.19999694824</ele>
        <time>2011-05-08T08:19:38Z</time>
      </trkpt>
      <trkpt lat="44.75814" lon="-0.32562">
        <ele>153.10000610352</ele>
        <time>2011-05-08T08:19:39Z</time>
      </trkpt>
      <trkpt lat="44.75818" lon="-0.3255">
        <ele>153.10000610352</ele>
        <time>2011-05-08T08:19:41Z</time>
      </trkpt>
      <trkpt lat="44.75821" lon="-0.32545">
        <ele>152.5</ele>
        <time>2011-05-08T08:19:42Z</time>
      </trkpt>
      <trkpt lat="44.75825" lon="-0.3253">
        <ele>152.69999694824</ele>
        <time>2011-05-08T08:19:44Z</time>
      </trkpt>
      <trkpt lat="44.75829" lon="-0.32518">
        <ele>152.89999389648</ele>
        <time>2011-05-08T08:19:46Z</time>
      </trkpt>
      <trkpt lat="44.7583" lon="-0.32511">
        <ele>152.30000305176</ele>
        <time>2011-05-08T08:19:47Z</time>
      </trkpt>
      <trkpt lat="44.75832" lon="-0.32505">
        <ele>151.89999389648</ele>
        <time>2011-05-08T08:19:48Z</time>
      </trkpt>
      <trkpt lat="44.75833" lon="-0.32499">
        <ele>152</ele>
        <time>2011-05-08T08:19:49Z</time>
      </trkpt>
      <trkpt lat="44.75837" lon="-0.32488">
        <ele>152.5</ele>
        <time>2011-05-08T08:19:51Z</time>
      </trkpt>
      <trkpt lat="44.75838" lon="-0.3248">
        <ele>152.30000305176</ele>
        <time>2011-05-08T08:19:52Z</time>
      </trkpt>
      <trkpt lat="44.7584" lon="-0.32473">
        <ele>152.69999694824</ele>
        <time>2011-05-08T08:19:53Z</time>
      </trkpt>
      <trkpt lat="44.75844" lon="-0.3246">
        <ele>153.39999389648</ele>
        <time>2011-05-08T08:19:55Z</time>
      </trkpt>
      <trkpt lat="44.75846" lon="-0.32453">
        <ele>152.80000305176</ele>
        <time>2011-05-08T08:19:56Z</time>
      </trkpt>
      <trkpt lat="44.75848" lon="-0.32445">
        <ele>152.89999389648</ele>
        <time>2011-05-08T08:19:57Z</time>
      </trkpt>
      <trkpt lat="44.7585" lon="-0.32437">
        <ele>153</ele>
        <time>2011-05-08T08:19:58Z</time>
      </trkpt>
      <trkpt lat="44.75853" lon="-0.32428">
        <ele>153.19999694824</ele>
        <time>2011-05-08T08:19:59Z</time>
      </trkpt>
      <trkpt lat="44.75855" lon="-0.3242">
        <ele>153.60000610352</ele>
        <time>2011-05-08T08:20:00Z</time>
      </trkpt>
      <trkpt lat="44.75857" lon="-0.32413">
        <ele>153.19999694824</ele>
        <time>2011-05-08T08:20:01Z</time>
      </trkpt>
      <trkpt lat="44.75858" lon="-0.32406">
        <ele>153.19999694824</ele>
        <time>2011-05-08T08:20:02Z</time>
      </trkpt>
      <trkpt lat="44.7586" lon="-0.32398">
        <ele>153.39999389648</ele>
        <time>2011-05-08T08:20:03Z</time>
      </trkpt>
      <trkpt lat="44.7586" lon="-0.32391">
        <ele>153.89999389648</ele>
        <time>2011-05-08T08:20:04Z</time>
      </trkpt>
      <trkpt lat="44.75861" lon="-0.32384">
        <ele>154.10000610352</ele>
        <time>2011-05-08T08:20:05Z</time>
      </trkpt>
      <trkpt lat="44.75862" lon="-0.32376">
        <ele>153.89999389648</ele>
        <time>2011-05-08T08:20:06Z</time>
      </trkpt>
      <trkpt lat="44.75863" lon="-0.32367">
        <ele>153.19999694824</ele>
        <time>2011-05-08T08:20:07Z</time>
      </trkpt>
      <trkpt lat="44.75864" lon="-0.3236">
        <ele>152.89999389648</ele>
        <time>2011-05-08T08:20:08Z</time>
      </trkpt>
      <trkpt lat="44.75866" lon="-0.32353">
        <ele>152.60000610352</ele>
        <time>2011-05-08T08:20:09Z</time>
      </trkpt>
      <trkpt lat="44.75867" lon="-0.32345">
        <ele>152.60000610352</ele>
        <time>2011-05-08T08:20:10Z</time>
      </trkpt>
      <trkpt lat="44.75868" lon="-0.32336">
        <ele>152.19999694824</ele>
        <time>2011-05-08T08:20:11Z</time>
      </trkpt>
      <trkpt lat="44.7587" lon="-0.32329">
        <ele>152.69999694824</ele>
        <time>2011-05-08T08:20:12Z</time>
      </trkpt>
      <trkpt lat="44.75872" lon="-0.32322">
        <ele>152.69999694824</ele>
        <time>2011-05-08T08:20:13Z</time>
      </trkpt>
      <trkpt lat="44.75874" lon="-0.32315">
        <ele>153.19999694824</ele>
        <time>2011-05-08T08:20:14Z</time>
      </trkpt>
      <trkpt lat="44.75875" lon="-0.32307">
        <ele>153.69999694824</ele>
        <time>2011-05-08T08:20:15Z</time>
      </trkpt>
      <trkpt lat="44.75877" lon="-0.32299">
        <ele>153.5</ele>
        <time>2011-05-08T08:20:16Z</time>
      </trkpt>
      <trkpt lat="44.75879" lon="-0.32291">
        <ele>153.5</ele>
        <time>2011-05-08T08:20:17Z</time>
      </trkpt>
      <trkpt lat="44.7588" lon="-0.32284">
        <ele>153.60000610352</ele>
        <time>2011-05-08T08:20:18Z</time>
      </trkpt>
      <trkpt lat="44.75882" lon="-0.32277">
        <ele>153.39999389648</ele>
        <time>2011-05-08T08:20:19Z</time>
      </trkpt>
      <trkpt lat="44.75884" lon="-0.32269">
        <ele>153.19999694824</ele>
        <time>2011-05-08T08:20:20Z</time>
      </trkpt>
      <trkpt lat="44.75887" lon="-0.32263">
        <ele>153.5</ele>
        <time>2011-05-08T08:20:21Z</time>
      </trkpt>
      <trkpt lat="44.75889" lon="-0.32257">
        <ele>153.89999389648</ele>
        <time>2011-05-08T08:20:22Z</time>
      </trkpt>
      <trkpt lat="44.75892" lon="-0.32251">
        <ele>153.80000305176</ele>
        <time>2011-05-08T08:20:23Z</time>
      </trkpt>
      <trkpt lat="44.75894" lon="-0.32244">
        <ele>153.69999694824</ele>
        <time>2011-05-08T08:20:24Z</time>
      </trkpt>
      <trkpt lat="44.75898" lon="-0.32237">
        <ele>153.60000610352</ele>
        <time>2011-05-08T08:20:25Z</time>
      </trkpt>
      <trkpt lat="44.75901" lon="-0.3223">
        <ele>153.69999694824</ele>
        <time>2011-05-08T08:20:26Z</time>
      </trkpt>
      <trkpt lat="44.75904" lon="-0.32223">
        <ele>153.80000305176</ele>
        <time>2011-05-08T08:20:27Z</time>
      </trkpt>
      <trkpt lat="44.75906" lon="-0.32216">
        <ele>154</ele>
        <time>2011-05-08T08:20:28Z</time>
      </trkpt>
      <trkpt lat="44.75908" lon="-0.32209">
        <ele>153.80000305176</ele>
        <time>2011-05-08T08:20:29Z</time>
      </trkpt>
      <trkpt lat="44.75909" lon="-0.32202">
        <ele>154.19999694824</ele>
        <time>2011-05-08T08:20:30Z</time>
      </trkpt>
      <trkpt lat="44.75912" lon="-0.32194">
        <ele>154.89999389648</ele>
        <time>2011-05-08T08:20:31Z</time>
      </trkpt>
      <trkpt lat="44.75913" lon="-0.32187">
        <ele>154.89999389648</ele>
        <time>2011-05-08T08:20:32Z</time>
      </trkpt>
      <trkpt lat="44.75914" lon="-0.3218">
        <ele>155</ele>
        <time>2011-05-08T08:20:33Z</time>
      </trkpt>
      <trkpt lat="44.75916" lon="-0.32172">
        <ele>155.60000610352</ele>
        <time>2011-05-08T08:20:34Z</time>
      </trkpt>
      <trkpt lat="44.75919" lon="-0.3216">
        <ele>156.10000610352</ele>
        <time>2011-05-08T08:20:36Z</time>
      </trkpt>
      <trkpt lat="44.75922" lon="-0.32154">
        <ele>155.80000305176</ele>
        <time>2011-05-08T08:20:37Z</time>
      </trkpt>
      <trkpt lat="44.7593" lon="-0.32155">
        <ele>156.10000610352</ele>
        <time>2011-05-08T08:20:39Z</time>
      </trkpt>
      <trkpt lat="44.75934" lon="-0.32157">
        <ele>155.60000610352</ele>
        <time>2011-05-08T08:20:40Z</time>
      </trkpt>
      <trkpt lat="44.75938" lon="-0.32161">
        <ele>155.89999389648</ele>
        <time>2011-05-08T08:20:41Z</time>
      </trkpt>
      <trkpt lat="44.75952" lon="-0.32175">
        <ele>156.30000305176</ele>
        <time>2011-05-08T08:20:45Z</time>
      </trkpt>
      <trkpt lat="44.75956" lon="-0.32179">
        <ele>156.19999694824</ele>
        <time>2011-05-08T08:20:46Z</time>
      </trkpt>
      <trkpt lat="44.7596" lon="-0.32183">
        <ele>155.69999694824</ele>
        <time>2011-05-08T08:20:47Z</time>
      </trkpt>
      <trkpt lat="44.75965" lon="-0.32186">
        <ele>156.30000305176</ele>
        <time>2011-05-08T08:20:48Z</time>
      </trkpt>
      <trkpt lat="44.7597" lon="-0.3219">
        <ele>156.5</ele>
        <time>2011-05-08T08:20:49Z</time>
      </trkpt>
      <trkpt lat="44.75975" lon="-0.32192">
        <ele>156.89999389648</ele>
        <time>2011-05-08T08:20:50Z</time>
      </trkpt>
      <trkpt lat="44.7598" lon="-0.32195">
        <ele>156.60000610352</ele>
        <time>2011-05-08T08:20:51Z</time>
      </trkpt>
      <trkpt lat="44.75984" lon="-0.32199">
        <ele>156.5</ele>
        <time>2011-05-08T08:20:52Z</time>
      </trkpt>
      <trkpt lat="44.75988" lon="-0.32202">
        <ele>156.30000305176</ele>
        <time>2011-05-08T08:20:53Z</time>
      </trkpt>
      <trkpt lat="44.75997" lon="-0.32208">
        <ele>156.10000610352</ele>
        <time>2011-05-08T08:20:55Z</time>
      </trkpt>
      <trkpt lat="44.76001" lon="-0.32211">
        <ele>155.80000305176</ele>
        <time>2011-05-08T08:20:56Z</time>
      </trkpt>
      <trkpt lat="44.76007" lon="-0.32212">
        <ele>156</ele>
        <time>2011-05-08T08:20:57Z</time>
      </trkpt>
      <trkpt lat="44.76012" lon="-0.32213">
        <ele>156.19999694824</ele>
        <time>2011-05-08T08:20:58Z</time>
      </trkpt>
      <trkpt lat="44.76017" lon="-0.32214">
        <ele>156.5</ele>
        <time>2011-05-08T08:20:59Z</time>
      </trkpt>
      <trkpt lat="44.76027" lon="-0.32216">
        <ele>156.60000610352</ele>
        <time>2011-05-08T08:21:01Z</time>
      </trkpt>
      <trkpt lat="44.76032" lon="-0.32217">
        <ele>156.89999389648</ele>
        <time>2011-05-08T08:21:02Z</time>
      </trkpt>
      <trkpt lat="44.76036" lon="-0.32219">
        <ele>157</ele>
        <time>2011-05-08T08:21:03Z</time>
      </trkpt>
      <trkpt lat="44.76042" lon="-0.3222">
        <ele>157.19999694824</ele>
        <time>2011-05-08T08:21:04Z</time>
      </trkpt>
      <trkpt lat="44.76047" lon="-0.32221">
        <ele>157.5</ele>
        <time>2011-05-08T08:21:05Z</time>
      </trkpt>
      <trkpt lat="44.76052" lon="-0.32222">
        <ele>157.80000305176</ele>
        <time>2011-05-08T08:21:06Z</time>
      </trkpt>
      <trkpt lat="44.76057" lon="-0.32223">
        <ele>158.30000305176</ele>
        <time>2011-05-08T08:21:07Z</time>
      </trkpt>
      <trkpt lat="44.76062" lon="-0.32224">
        <ele>158</ele>
        <time>2011-05-08T08:21:08Z</time>
      </trkpt>
      <trkpt lat="44.76068" lon="-0.32227">
        <ele>157.30000305176</ele>
        <time>2011-05-08T08:21:09Z</time>
      </trkpt>
      <trkpt lat="44.76073" lon="-0.32228">
        <ele>157</ele>
        <time>2011-05-08T08:21:10Z</time>
      </trkpt>
      <trkpt lat="44.76079" lon="-0.3223">
        <ele>156.69999694824</ele>
        <time>2011-05-08T08:21:11Z</time>
      </trkpt>
      <trkpt lat="44.76084" lon="-0.32232">
        <ele>156.30000305176</ele>
        <time>2011-05-08T08:21:12Z</time>
      </trkpt>
      <trkpt lat="44.76089" lon="-0.32233">
        <ele>156</ele>
        <time>2011-05-08T08:21:13Z</time>
      </trkpt>
      <trkpt lat="44.76094" lon="-0.32234">
        <ele>156.10000610352</ele>
        <time>2011-05-08T08:21:14Z</time>
      </trkpt>
      <trkpt lat="44.76098" lon="-0.32235">
        <ele>156.10000610352</ele>
        <time>2011-05-08T08:21:15Z</time>
      </trkpt>
      <trkpt lat="44.76104" lon="-0.32235">
        <ele>156</ele>
        <time>2011-05-08T08:21:16Z</time>
      </trkpt>
      <trkpt lat="44.7611" lon="-0.32236">
        <ele>155.89999389648</ele>
        <time>2011-05-08T08:21:17Z</time>
      </trkpt>
      <trkpt lat="44.76114" lon="-0.32235">
        <ele>155.89999389648</ele>
        <time>2011-05-08T08:21:18Z</time>
      </trkpt>
      <trkpt lat="44.76119" lon="-0.32232">
        <ele>155.80000305176</ele>
        <time>2011-05-08T08:21:19Z</time>
      </trkpt>
      <trkpt lat="44.76122" lon="-0.32225">
        <ele>155.69999694824</ele>
        <time>2011-05-08T08:21:20Z</time>
      </trkpt>
      <trkpt lat="44.76125" lon="-0.32221">
        <ele>156</ele>
        <time>2011-05-08T08:21:21Z</time>
      </trkpt>
      <trkpt lat="44.76129" lon="-0.32211">
        <ele>156.39999389648</ele>
        <time>2011-05-08T08:21:23Z</time>
      </trkpt>
      <trkpt lat="44.76132" lon="-0.32205">
        <ele>156.80000305176</ele>
        <time>2011-05-08T08:21:24Z</time>
      </trkpt>
      <trkpt lat="44.76136" lon="-0.322">
        <ele>156.69999694824</ele>
        <time>2011-05-08T08:21:25Z</time>
      </trkpt>
      <trkpt lat="44.76139" lon="-0.32194">
        <ele>156.5</ele>
        <time>2011-05-08T08:21:26Z</time>
      </trkpt>
      <trkpt lat="44.76144" lon="-0.32188">
        <ele>156.69999694824</ele>
        <time>2011-05-08T08:21:27Z</time>
      </trkpt>
      <trkpt lat="44.76148" lon="-0.32183">
        <ele>156</ele>
        <time>2011-05-08T08:21:28Z</time>
      </trkpt>
      <trkpt lat="44.76151" lon="-0.32177">
        <ele>156</ele>
        <time>2011-05-08T08:21:29Z</time>
      </trkpt>
      <trkpt lat="44.76155" lon="-0.32172">
        <ele>156.19999694824</ele>
        <time>2011-05-08T08:21:30Z</time>
      </trkpt>
      <trkpt lat="44.76158" lon="-0.32167">
        <ele>156.5</ele>
        <time>2011-05-08T08:21:31Z</time>
      </trkpt>
      <trkpt lat="44.76163" lon="-0.32157">
        <ele>156.5</ele>
        <time>2011-05-08T08:21:33Z</time>
      </trkpt>
      <trkpt lat="44.76166" lon="-0.32153">
        <ele>156.19999694824</ele>
        <time>2011-05-08T08:21:34Z</time>
      </trkpt>
      <trkpt lat="44.76172" lon="-0.32144">
        <ele>156.60000610352</ele>
        <time>2011-05-08T08:21:36Z</time>
      </trkpt>
      <trkpt lat="44.76176" lon="-0.32139">
        <ele>156.30000305176</ele>
        <time>2011-05-08T08:21:37Z</time>
      </trkpt>
      <trkpt lat="44.76179" lon="-0.32133">
        <ele>156.5</ele>
        <time>2011-05-08T08:21:38Z</time>
      </trkpt>
      <trkpt lat="44.76182" lon="-0.32128">
        <ele>156.10000610352</ele>
        <time>2011-05-08T08:21:39Z</time>
      </trkpt>
      <trkpt lat="44.76186" lon="-0.32118">
        <ele>156.5</ele>
        <time>2011-05-08T08:21:41Z</time>
      </trkpt>
      <trkpt lat="44.76188" lon="-0.32112">
        <ele>156.60000610352</ele>
        <time>2011-05-08T08:21:42Z</time>
      </trkpt>
      <trkpt lat="44.76193" lon="-0.32101">
        <ele>157</ele>
        <time>2011-05-08T08:21:44Z</time>
      </trkpt>
      <trkpt lat="44.76195" lon="-0.32095">
        <ele>157</ele>
        <time>2011-05-08T08:21:45Z</time>
      </trkpt>
      <trkpt lat="44.76199" lon="-0.32082">
        <ele>157</ele>
        <time>2011-05-08T08:21:47Z</time>
      </trkpt>
      <trkpt lat="44.76203" lon="-0.32074">
        <ele>157.10000610352</ele>
        <time>2011-05-08T08:21:48Z</time>
      </trkpt>
      <trkpt lat="44.76206" lon="-0.3207">
        <ele>157.10000610352</ele>
        <time>2011-05-08T08:21:49Z</time>
      </trkpt>
      <trkpt lat="44.76211" lon="-0.32065">
        <ele>157</ele>
        <time>2011-05-08T08:21:50Z</time>
      </trkpt>
      <trkpt lat="44.76216" lon="-0.32062">
        <ele>157</ele>
        <time>2011-05-08T08:21:51Z</time>
      </trkpt>
      <trkpt lat="44.76222" lon="-0.32061">
        <ele>156.69999694824</ele>
        <time>2011-05-08T08:21:52Z</time>
      </trkpt>
      <trkpt lat="44.76232" lon="-0.32062">
        <ele>156.10000610352</ele>
        <time>2011-05-08T08:21:54Z</time>
      </trkpt>
      <trkpt lat="44.76238" lon="-0.32062">
        <ele>156.30000305176</ele>
        <time>2011-05-08T08:21:55Z</time>
      </trkpt>
      <trkpt lat="44.76245" lon="-0.32064">
        <ele>156.5</ele>
        <time>2011-05-08T08:21:56Z</time>
      </trkpt>
      <trkpt lat="44.76251" lon="-0.32064">
        <ele>156.5</ele>
        <time>2011-05-08T08:21:57Z</time>
      </trkpt>
      <trkpt lat="44.76257" lon="-0.32063">
        <ele>156.89999389648</ele>
        <time>2011-05-08T08:21:58Z</time>
      </trkpt>
      <trkpt lat="44.76261" lon="-0.32059">
        <ele>157.39999389648</ele>
        <time>2011-05-08T08:21:59Z</time>
      </trkpt>
      <trkpt lat="44.76266" lon="-0.32056">
        <ele>157.19999694824</ele>
        <time>2011-05-08T08:22:00Z</time>
      </trkpt>
      <trkpt lat="44.76272" lon="-0.32053">
        <ele>156.60000610352</ele>
        <time>2011-05-08T08:22:01Z</time>
      </trkpt>
      <trkpt lat="44.76277" lon="-0.3205">
        <ele>156.60000610352</ele>
        <time>2011-05-08T08:22:02Z</time>
      </trkpt>
      <trkpt lat="44.76282" lon="-0.32049">
        <ele>156.60000610352</ele>
        <time>2011-05-08T08:22:03Z</time>
      </trkpt>
      <trkpt lat="44.76288" lon="-0.32048">
        <ele>156.60000610352</ele>
        <time>2011-05-08T08:22:04Z</time>
      </trkpt>
      <trkpt lat="44.76293" lon="-0.32047">
        <ele>156.5</ele>
        <time>2011-05-08T08:22:05Z</time>
      </trkpt>
      <trkpt lat="44.76298" lon="-0.32047">
        <ele>156.89999389648</ele>
        <time>2011-05-08T08:22:06Z</time>
      </trkpt>
      <trkpt lat="44.76304" lon="-0.32048">
        <ele>156.89999389648</ele>
        <time>2011-05-08T08:22:07Z</time>
      </trkpt>
      <trkpt lat="44.76309" lon="-0.32048">
        <ele>157</ele>
        <time>2011-05-08T08:22:08Z</time>
      </trkpt>
      <trkpt lat="44.76315" lon="-0.3205">
        <ele>157.19999694824</ele>
        <time>2011-05-08T08:22:09Z</time>
      </trkpt>
      <trkpt lat="44.7632" lon="-0.32052">
        <ele>157.10000610352</ele>
        <time>2011-05-08T08:22:10Z</time>
      </trkpt>
      <trkpt lat="44.76326" lon="-0.32054">
        <ele>157.19999694824</ele>
        <time>2011-05-08T08:22:11Z</time>
      </trkpt>
      <trkpt lat="44.7633" lon="-0.32055">
        <ele>157.39999389648</ele>
        <time>2011-05-08T08:22:12Z</time>
      </trkpt>
      <trkpt lat="44.76336" lon="-0.32057">
        <ele>157.30000305176</ele>
        <time>2011-05-08T08:22:13Z</time>
      </trkpt>
      <trkpt lat="44.76341" lon="-0.3206">
        <ele>157.30000305176</ele>
        <time>2011-05-08T08:22:14Z</time>
      </trkpt>
      <trkpt lat="44.76347" lon="-0.32063">
        <ele>157.10000610352</ele>
        <time>2011-05-08T08:22:15Z</time>
      </trkpt>
      <trkpt lat="44.76353" lon="-0.32064">
        <ele>157.60000610352</ele>
        <time>2011-05-08T08:22:16Z</time>
      </trkpt>
      <trkpt lat="44.76359" lon="-0.32067">
        <ele>157.39999389648</ele>
        <time>2011-05-08T08:22:17Z</time>
      </trkpt>
      <trkpt lat="44.76364" lon="-0.32069">
        <ele>158</ele>
        <time>2011-05-08T08:22:18Z</time>
      </trkpt>
      <trkpt lat="44.76369" lon="-0.32071">
        <ele>157.69999694824</ele>
        <time>2011-05-08T08:22:19Z</time>
      </trkpt>
      <trkpt lat="44.76376" lon="-0.32073">
        <ele>157.39999389648</ele>
        <time>2011-05-08T08:22:20Z</time>
      </trkpt>
      <trkpt lat="44.76382" lon="-0.32076">
        <ele>157.10000610352</ele>
        <time>2011-05-08T08:22:21Z</time>
      </trkpt>
      <trkpt lat="44.76387" lon="-0.32078">
        <ele>157</ele>
        <time>2011-05-08T08:22:22Z</time>
      </trkpt>
      <trkpt lat="44.76393" lon="-0.32082">
        <ele>157</ele>
        <time>2011-05-08T08:22:23Z</time>
      </trkpt>
      <trkpt lat="44.764" lon="-0.32084">
        <ele>156.89999389648</ele>
        <time>2011-05-08T08:22:24Z</time>
      </trkpt>
      <trkpt lat="44.76406" lon="-0.32086">
        <ele>156.69999694824</ele>
        <time>2011-05-08T08:22:25Z</time>
      </trkpt>
      <trkpt lat="44.76413" lon="-0.32089">
        <ele>156.5</ele>
        <time>2011-05-08T08:22:26Z</time>
      </trkpt>
      <trkpt lat="44.7642" lon="-0.32091">
        <ele>156.19999694824</ele>
        <time>2011-05-08T08:22:27Z</time>
      </trkpt>
      <trkpt lat="44.76427" lon="-0.32093">
        <ele>156.19999694824</ele>
        <time>2011-05-08T08:22:28Z</time>
      </trkpt>
      <trkpt lat="44.76435" lon="-0.32096">
        <ele>155.5</ele>
        <time>2011-05-08T08:22:29Z</time>
      </trkpt>
      <trkpt lat="44.76442" lon="-0.32099">
        <ele>155.39999389648</ele>
        <time>2011-05-08T08:22:30Z</time>
      </trkpt>
      <trkpt lat="44.76449" lon="-0.32102">
        <ele>155.10000610352</ele>
        <time>2011-05-08T08:22:31Z</time>
      </trkpt>
      <trkpt lat="44.76456" lon="-0.32105">
        <ele>154.80000305176</ele>
        <time>2011-05-08T08:22:32Z</time>
      </trkpt>
      <trkpt lat="44.76464" lon="-0.32107">
        <ele>153.89999389648</ele>
        <time>2011-05-08T08:22:33Z</time>
      </trkpt>
      <trkpt lat="44.76471" lon="-0.32107">
        <ele>154.10000610352</ele>
        <time>2011-05-08T08:22:34Z</time>
      </trkpt>
      <trkpt lat="44.76478" lon="-0.32105">
        <ele>154.5</ele>
        <time>2011-05-08T08:22:35Z</time>
      </trkpt>
      <trkpt lat="44.76484" lon="-0.32105">
        <ele>155</ele>
        <time>2011-05-08T08:22:36Z</time>
      </trkpt>
      <trkpt lat="44.7649" lon="-0.32103">
        <ele>155.19999694824</ele>
        <time>2011-05-08T08:22:37Z</time>
      </trkpt>
      <trkpt lat="44.76495" lon="-0.32102">
        <ele>155.30000305176</ele>
        <time>2011-05-08T08:22:38Z</time>
      </trkpt>
      <trkpt lat="44.76502" lon="-0.32103">
        <ele>155</ele>
        <time>2011-05-08T08:22:39Z</time>
      </trkpt>
      <trkpt lat="44.76508" lon="-0.32103">
        <ele>154.39999389648</ele>
        <time>2011-05-08T08:22:40Z</time>
      </trkpt>
      <trkpt lat="44.76514" lon="-0.32103">
        <ele>154.30000305176</ele>
        <time>2011-05-08T08:22:41Z</time>
      </trkpt>
      <trkpt lat="44.76519" lon="-0.321">
        <ele>154.19999694824</ele>
        <time>2011-05-08T08:22:42Z</time>
      </trkpt>
      <trkpt lat="44.76527" lon="-0.32089">
        <ele>153.39999389648</ele>
        <time>2011-05-08T08:22:44Z</time>
      </trkpt>
      <trkpt lat="44.7653" lon="-0.32082">
        <ele>153.30000305176</ele>
        <time>2011-05-08T08:22:45Z</time>
      </trkpt>
      <trkpt lat="44.76532" lon="-0.32074">
        <ele>153.39999389648</ele>
        <time>2011-05-08T08:22:46Z</time>
      </trkpt>
      <trkpt lat="44.76534" lon="-0.32066">
        <ele>153.89999389648</ele>
        <time>2011-05-08T08:22:47Z</time>
      </trkpt>
      <trkpt lat="44.76536" lon="-0.32058">
        <ele>153.60000610352</ele>
        <time>2011-05-08T08:22:48Z</time>
      </trkpt>
      <trkpt lat="44.76538" lon="-0.32049">
        <ele>153.30000305176</ele>
        <time>2011-05-08T08:22:49Z</time>
      </trkpt>
      <trkpt lat="44.7654" lon="-0.3204">
        <ele>153.19999694824</ele>
        <time>2011-05-08T08:22:50Z</time>
      </trkpt>
      <trkpt lat="44.76542" lon="-0.32033">
        <ele>153.10000610352</ele>
        <time>2011-05-08T08:22:51Z</time>
      </trkpt>
      <trkpt lat="44.76546" lon="-0.32028">
        <ele>152.80000305176</ele>
        <time>2011-05-08T08:22:52Z</time>
      </trkpt>
      <trkpt lat="44.76551" lon="-0.32022">
        <ele>152.69999694824</ele>
        <time>2011-05-08T08:22:53Z</time>
      </trkpt>
      <trkpt lat="44.76556" lon="-0.32019">
        <ele>152.89999389648</ele>
        <time>2011-05-08T08:22:54Z</time>
      </trkpt>
      <trkpt lat="44.76562" lon="-0.32017">
        <ele>152.89999389648</ele>
        <time>2011-05-08T08:22:55Z</time>
      </trkpt>
      <trkpt lat="44.76567" lon="-0.32017">
        <ele>153</ele>
        <time>2011-05-08T08:22:56Z</time>
      </trkpt>
      <trkpt lat="44.76574" lon="-0.32016">
        <ele>152.89999389648</ele>
        <time>2011-05-08T08:22:57Z</time>
      </trkpt>
      <trkpt lat="44.7658" lon="-0.32014">
        <ele>152.5</ele>
        <time>2011-05-08T08:22:58Z</time>
      </trkpt>
      <trkpt lat="44.76589" lon="-0.3201">
        <ele>153</ele>
        <time>2011-05-08T08:23:00Z</time>
      </trkpt>
      <trkpt lat="44.76595" lon="-0.32009">
        <ele>153</ele>
        <time>2011-05-08T08:23:01Z</time>
      </trkpt>
      <trkpt lat="44.76602" lon="-0.3201">
        <ele>152.89999389648</ele>
        <time>2011-05-08T08:23:02Z</time>
      </trkpt>
      <trkpt lat="44.7661" lon="-0.32012">
        <ele>153.19999694824</ele>
        <time>2011-05-08T08:23:03Z</time>
      </trkpt>
      <trkpt lat="44.76615" lon="-0.32011">
        <ele>153.30000305176</ele>
        <time>2011-05-08T08:23:04Z</time>
      </trkpt>
      <trkpt lat="44.76621" lon="-0.3201">
        <ele>152.89999389648</ele>
        <time>2011-05-08T08:23:05Z</time>
      </trkpt>
      <trkpt lat="44.76628" lon="-0.32008">
        <ele>152.60000610352</ele>
        <time>2011-05-08T08:23:06Z</time>
      </trkpt>
      <trkpt lat="44.76633" lon="-0.32006">
        <ele>152.69999694824</ele>
        <time>2011-05-08T08:23:07Z</time>
      </trkpt>
      <trkpt lat="44.76639" lon="-0.32003">
        <ele>152.60000610352</ele>
        <time>2011-05-08T08:23:08Z</time>
      </trkpt>
      <trkpt lat="44.76643" lon="-0.31994">
        <ele>152.39999389648</ele>
        <time>2011-05-08T08:23:10Z</time>
      </trkpt>
      <trkpt lat="44.76649" lon="-0.31987">
        <ele>152.19999694824</ele>
        <time>2011-05-08T08:23:12Z</time>
      </trkpt>
      <trkpt lat="44.7665" lon="-0.31976">
        <ele>151.19999694824</ele>
        <time>2011-05-08T08:23:13Z</time>
      </trkpt>
      <trkpt lat="44.76652" lon="-0.31966">
        <ele>150.19999694824</ele>
        <time>2011-05-08T08:23:14Z</time>
      </trkpt>
      <trkpt lat="44.76655" lon="-0.31957">
        <ele>148.80000305176</ele>
        <time>2011-05-08T08:23:15Z</time>
      </trkpt>
      <trkpt lat="44.76658" lon="-0.31947">
        <ele>146.19999694824</ele>
        <time>2011-05-08T08:23:16Z</time>
      </trkpt>
      <trkpt lat="44.76659" lon="-0.31936">
        <ele>144.89999389648</ele>
        <time>2011-05-08T08:23:17Z</time>
      </trkpt>
      <trkpt lat="44.76662" lon="-0.31924">
        <ele>143.30000305176</ele>
        <time>2011-05-08T08:23:18Z</time>
      </trkpt>
      <trkpt lat="44.76667" lon="-0.31911">
        <ele>142.10000610352</ele>
        <time>2011-05-08T08:23:19Z</time>
      </trkpt>
      <trkpt lat="44.7667" lon="-0.31902">
        <ele>141.39999389648</ele>
        <time>2011-05-08T08:23:20Z</time>
      </trkpt>
      <trkpt lat="44.76674" lon="-0.31891">
        <ele>141.30000305176</ele>
        <time>2011-05-08T08:23:21Z</time>
      </trkpt>
      <trkpt lat="44.76678" lon="-0.31882">
        <ele>141.10000610352</ele>
        <time>2011-05-08T08:23:22Z</time>
      </trkpt>
      <trkpt lat="44.76678" lon="-0.31874">
        <ele>140.30000305176</ele>
        <time>2011-05-08T08:23:23Z</time>
      </trkpt>
      <trkpt lat="44.76681" lon="-0.31866">
        <ele>139.69999694824</ele>
        <time>2011-05-08T08:23:24Z</time>
      </trkpt>
      <trkpt lat="44.76685" lon="-0.31856">
        <ele>139.60000610352</ele>
        <time>2011-05-08T08:23:25Z</time>
      </trkpt>
      <trkpt lat="44.7669" lon="-0.31846">
        <ele>139.60000610352</ele>
        <time>2011-05-08T08:23:26Z</time>
      </trkpt>
      <trkpt lat="44.76696" lon="-0.31841">
        <ele>139.89999389648</ele>
        <time>2011-05-08T08:23:27Z</time>
      </trkpt>
      <trkpt lat="44.76703" lon="-0.31838">
        <ele>139.80000305176</ele>
        <time>2011-05-08T08:23:28Z</time>
      </trkpt>
      <trkpt lat="44.76709" lon="-0.31838">
        <ele>140</ele>
        <time>2011-05-08T08:23:29Z</time>
      </trkpt>
      <trkpt lat="44.76715" lon="-0.31838">
        <ele>139.89999389648</ele>
        <time>2011-05-08T08:23:30Z</time>
      </trkpt>
      <trkpt lat="44.76721" lon="-0.31836">
        <ele>139.89999389648</ele>
        <time>2011-05-08T08:23:31Z</time>
      </trkpt>
      <trkpt lat="44.76725" lon="-0.31836">
        <ele>140.39999389648</ele>
        <time>2011-05-08T08:23:32Z</time>
      </trkpt>
      <trkpt lat="44.7673" lon="-0.31834">
        <ele>140.39999389648</ele>
        <time>2011-05-08T08:23:33Z</time>
      </trkpt>
      <trkpt lat="44.76735" lon="-0.3183">
        <ele>140.89999389648</ele>
        <time>2011-05-08T08:23:35Z</time>
      </trkpt>
      <trkpt lat="44.76739" lon="-0.31823">
        <ele>141.19999694824</ele>
        <time>2011-05-08T08:23:37Z</time>
      </trkpt>
      <trkpt lat="44.76743" lon="-0.31819">
        <ele>139.89999389648</ele>
        <time>2011-05-08T08:23:39Z</time>
      </trkpt>
      <trkpt lat="44.76746" lon="-0.31813">
        <ele>139.10000610352</ele>
        <time>2011-05-08T08:23:41Z</time>
      </trkpt>
      <trkpt lat="44.76748" lon="-0.31806">
        <ele>139.80000305176</ele>
        <time>2011-05-08T08:23:44Z</time>
      </trkpt>
      <trkpt lat="44.76751" lon="-0.318">
        <ele>139.5</ele>
        <time>2011-05-08T08:23:46Z</time>
      </trkpt>
      <trkpt lat="44.76754" lon="-0.31793">
        <ele>139.19999694824</ele>
        <time>2011-05-08T08:23:50Z</time>
      </trkpt>
      <trkpt lat="44.76757" lon="-0.31788">
        <ele>139.10000610352</ele>
        <time>2011-05-08T08:23:52Z</time>
      </trkpt>
      <trkpt lat="44.76762" lon="-0.31779">
        <ele>139.39999389648</ele>
        <time>2011-05-08T08:23:55Z</time>
      </trkpt>
      <trkpt lat="44.76765" lon="-0.31773">
        <ele>139.39999389648</ele>
        <time>2011-05-08T08:23:57Z</time>
      </trkpt>
      <trkpt lat="44.76769" lon="-0.31766">
        <ele>139.80000305176</ele>
        <time>2011-05-08T08:24:00Z</time>
      </trkpt>
      <trkpt lat="44.76773" lon="-0.31761">
        <ele>140.60000610352</ele>
        <time>2011-05-08T08:24:02Z</time>
      </trkpt>
      <trkpt lat="44.76776" lon="-0.31754">
        <ele>141.80000305176</ele>
        <time>2011-05-08T08:24:05Z</time>
      </trkpt>
      <trkpt lat="44.76781" lon="-0.31749">
        <ele>142.5</ele>
        <time>2011-05-08T08:24:07Z</time>
      </trkpt>
      <trkpt lat="44.76785" lon="-0.31742">
        <ele>145.19999694824</ele>
        <time>2011-05-08T08:24:12Z</time>
      </trkpt>
      <trkpt lat="44.7679" lon="-0.31739">
        <ele>145.60000610352</ele>
        <time>2011-05-08T08:24:15Z</time>
      </trkpt>
      <trkpt lat="44.76793" lon="-0.31733">
        <ele>146.60000610352</ele>
        <time>2011-05-08T08:24:18Z</time>
      </trkpt>
      <trkpt lat="44.76796" lon="-0.31727">
        <ele>147.10000610352</ele>
        <time>2011-05-08T08:24:21Z</time>
      </trkpt>
      <trkpt lat="44.76801" lon="-0.31723">
        <ele>146.19999694824</ele>
        <time>2011-05-08T08:24:24Z</time>
      </trkpt>
      <trkpt lat="44.76807" lon="-0.31718">
        <ele>147.10000610352</ele>
        <time>2011-05-08T08:24:28Z</time>
      </trkpt>
      <trkpt lat="44.76811" lon="-0.31713">
        <ele>148.89999389648</ele>
        <time>2011-05-08T08:24:31Z</time>
      </trkpt>
      <trkpt lat="44.76816" lon="-0.31708">
        <ele>149</ele>
        <time>2011-05-08T08:24:34Z</time>
      </trkpt>
      <trkpt lat="44.7682" lon="-0.31707">
        <ele>149.30000305176</ele>
        <time>2011-05-08T08:24:36Z</time>
      </trkpt>
      <trkpt lat="44.76825" lon="-0.31707">
        <ele>150</ele>
        <time>2011-05-08T08:24:38Z</time>
      </trkpt>
      <trkpt lat="44.76832" lon="-0.31703">
        <ele>150.69999694824</ele>
        <time>2011-05-08T08:24:41Z</time>
      </trkpt>
      <trkpt lat="44.76838" lon="-0.31699">
        <ele>152.19999694824</ele>
        <time>2011-05-08T08:24:44Z</time>
      </trkpt>
      <trkpt lat="44.76843" lon="-0.31691">
        <ele>152.19999694824</ele>
        <time>2011-05-08T08:24:46Z</time>
      </trkpt>
      <trkpt lat="44.76849" lon="-0.31682">
        <ele>150.69999694824</ele>
        <time>2011-05-08T08:24:48Z</time>
      </trkpt>
      <trkpt lat="44.76851" lon="-0.31675">
        <ele>150.19999694824</ele>
        <time>2011-05-08T08:24:49Z</time>
      </trkpt>
      <trkpt lat="44.76853" lon="-0.31667">
        <ele>150</ele>
        <time>2011-05-08T08:24:50Z</time>
      </trkpt>
      <trkpt lat="44.76856" lon="-0.31658">
        <ele>150.30000305176</ele>
        <time>2011-05-08T08:24:51Z</time>
      </trkpt>
      <trkpt lat="44.76859" lon="-0.3165">
        <ele>150.10000610352</ele>
        <time>2011-05-08T08:24:52Z</time>
      </trkpt>
      <trkpt lat="44.76862" lon="-0.31638">
        <ele>150</ele>
        <time>2011-05-08T08:24:53Z</time>
      </trkpt>
      <trkpt lat="44.76865" lon="-0.31627">
        <ele>149.10000610352</ele>
        <time>2011-05-08T08:24:54Z</time>
      </trkpt>
      <trkpt lat="44.76868" lon="-0.31612">
        <ele>149.89999389648</ele>
        <time>2011-05-08T08:24:55Z</time>
      </trkpt>
      <trkpt lat="44.76868" lon="-0.316">
        <ele>149.69999694824</ele>
        <time>2011-05-08T08:24:56Z</time>
      </trkpt>
      <trkpt lat="44.76869" lon="-0.31588">
        <ele>149.39999389648</ele>
        <time>2011-05-08T08:24:57Z</time>
      </trkpt>
      <trkpt lat="44.76871" lon="-0.31575">
        <ele>148.89999389648</ele>
        <time>2011-05-08T08:24:58Z</time>
      </trkpt>
      <trkpt lat="44.76872" lon="-0.31562">
        <ele>148.39999389648</ele>
        <time>2011-05-08T08:24:59Z</time>
      </trkpt>
      <trkpt lat="44.76871" lon="-0.31551">
        <ele>148</ele>
        <time>2011-05-08T08:25:00Z</time>
      </trkpt>
      <trkpt lat="44.76871" lon="-0.31536">
        <ele>146.69999694824</ele>
        <time>2011-05-08T08:25:01Z</time>
      </trkpt>
      <trkpt lat="44.76874" lon="-0.31521">
        <ele>145.30000305176</ele>
        <time>2011-05-08T08:25:02Z</time>
      </trkpt>
      <trkpt lat="44.76875" lon="-0.31505">
        <ele>145</ele>
        <time>2011-05-08T08:25:03Z</time>
      </trkpt>
      <trkpt lat="44.76875" lon="-0.31489">
        <ele>144.60000610352</ele>
        <time>2011-05-08T08:25:04Z</time>
      </trkpt>
      <trkpt lat="44.76876" lon="-0.31472">
        <ele>144.69999694824</ele>
        <time>2011-05-08T08:25:05Z</time>
      </trkpt>
      <trkpt lat="44.76878" lon="-0.31455">
        <ele>144.10000610352</ele>
        <time>2011-05-08T08:25:06Z</time>
      </trkpt>
      <trkpt lat="44.76879" lon="-0.31438">
        <ele>143.69999694824</ele>
        <time>2011-05-08T08:25:07Z</time>
      </trkpt>
      <trkpt lat="44.76881" lon="-0.31422">
        <ele>143</ele>
        <time>2011-05-08T08:25:08Z</time>
      </trkpt>
      <trkpt lat="44.76882" lon="-0.31409">
        <ele>143</ele>
        <time>2011-05-08T08:25:09Z</time>
      </trkpt>
      <trkpt lat="44.76884" lon="-0.31396">
        <ele>142.69999694824</ele>
        <time>2011-05-08T08:25:10Z</time>
      </trkpt>
      <trkpt lat="44.76887" lon="-0.31389">
        <ele>142.19999694824</ele>
        <time>2011-05-08T08:25:11Z</time>
      </trkpt>
      <trkpt lat="44.76892" lon="-0.31384">
        <ele>141.89999389648</ele>
        <time>2011-05-08T08:25:12Z</time>
      </trkpt>
      <trkpt lat="44.76898" lon="-0.31381">
        <ele>141.39999389648</ele>
        <time>2011-05-08T08:25:13Z</time>
      </trkpt>
      <trkpt lat="44.76907" lon="-0.31384">
        <ele>141.19999694824</ele>
        <time>2011-05-08T08:25:15Z</time>
      </trkpt>
      <trkpt lat="44.76912" lon="-0.31387">
        <ele>140.89999389648</ele>
        <time>2011-05-08T08:25:16Z</time>
      </trkpt>
      <trkpt lat="44.76917" lon="-0.31389">
        <ele>140.69999694824</ele>
        <time>2011-05-08T08:25:17Z</time>
      </trkpt>
      <trkpt lat="44.76923" lon="-0.31392">
        <ele>140.69999694824</ele>
        <time>2011-05-08T08:25:18Z</time>
      </trkpt>
      <trkpt lat="44.76931" lon="-0.31394">
        <ele>140.60000610352</ele>
        <time>2011-05-08T08:25:19Z</time>
      </trkpt>
      <trkpt lat="44.76938" lon="-0.31396">
        <ele>141</ele>
        <time>2011-05-08T08:25:20Z</time>
      </trkpt>
      <trkpt lat="44.76945" lon="-0.31396">
        <ele>140.89999389648</ele>
        <time>2011-05-08T08:25:21Z</time>
      </trkpt>
      <trkpt lat="44.76951" lon="-0.31397">
        <ele>141</ele>
        <time>2011-05-08T08:25:22Z</time>
      </trkpt>
      <trkpt lat="44.76958" lon="-0.31396">
        <ele>141</ele>
        <time>2011-05-08T08:25:23Z</time>
      </trkpt>
      <trkpt lat="44.76966" lon="-0.31398">
        <ele>140.80000305176</ele>
        <time>2011-05-08T08:25:24Z</time>
      </trkpt>
      <trkpt lat="44.76971" lon="-0.31399">
        <ele>140.69999694824</ele>
        <time>2011-05-08T08:25:25Z</time>
      </trkpt>
      <trkpt lat="44.76979" lon="-0.314">
        <ele>140.60000610352</ele>
        <time>2011-05-08T08:25:26Z</time>
      </trkpt>
      <trkpt lat="44.76986" lon="-0.314">
        <ele>140.60000610352</ele>
        <time>2011-05-08T08:25:27Z</time>
      </trkpt>
      <trkpt lat="44.76993" lon="-0.31401">
        <ele>140.80000305176</ele>
        <time>2011-05-08T08:25:28Z</time>
      </trkpt>
      <trkpt lat="44.77" lon="-0.31402">
        <ele>140.80000305176</ele>
        <time>2011-05-08T08:25:29Z</time>
      </trkpt>
      <trkpt lat="44.77006" lon="-0.31403">
        <ele>140.80000305176</ele>
        <time>2011-05-08T08:25:30Z</time>
      </trkpt>
      <trkpt lat="44.77012" lon="-0.31403">
        <ele>140.89999389648</ele>
        <time>2011-05-08T08:25:31Z</time>
      </trkpt>
      <trkpt lat="44.77019" lon="-0.31404">
        <ele>140.69999694824</ele>
        <time>2011-05-08T08:25:32Z</time>
      </trkpt>
      <trkpt lat="44.77026" lon="-0.31404">
        <ele>140.19999694824</ele>
        <time>2011-05-08T08:25:33Z</time>
      </trkpt>
      <trkpt lat="44.77032" lon="-0.31405">
        <ele>139.69999694824</ele>
        <time>2011-05-08T08:25:34Z</time>
      </trkpt>
      <trkpt lat="44.77039" lon="-0.31405">
        <ele>139.39999389648</ele>
        <time>2011-05-08T08:25:35Z</time>
      </trkpt>
      <trkpt lat="44.77046" lon="-0.31403">
        <ele>139.10000610352</ele>
        <time>2011-05-08T08:25:36Z</time>
      </trkpt>
      <trkpt lat="44.7705" lon="-0.31398">
        <ele>139.69999694824</ele>
        <time>2011-05-08T08:25:37Z</time>
      </trkpt>
      <trkpt lat="44.77057" lon="-0.31395">
        <ele>139.10000610352</ele>
        <time>2011-05-08T08:25:38Z</time>
      </trkpt>
      <trkpt lat="44.77065" lon="-0.31393">
        <ele>139.19999694824</ele>
        <time>2011-05-08T08:25:39Z</time>
      </trkpt>
      <trkpt lat="44.7707" lon="-0.3139">
        <ele>139</ele>
        <time>2011-05-08T08:25:40Z</time>
      </trkpt>
      <trkpt lat="44.77077" lon="-0.31386">
        <ele>137.80000305176</ele>
        <time>2011-05-08T08:25:42Z</time>
      </trkpt>
      <trkpt lat="44.77082" lon="-0.31381">
        <ele>137.30000305176</ele>
        <time>2011-05-08T08:25:53Z</time>
      </trkpt>
      <trkpt lat="44.77088" lon="-0.31381">
        <ele>137.19999694824</ele>
        <time>2011-05-08T08:25:56Z</time>
      </trkpt>
      <trkpt lat="44.77096" lon="-0.31379">
        <ele>135.5</ele>
        <time>2011-05-08T08:25:58Z</time>
      </trkpt>
      <trkpt lat="44.77102" lon="-0.31377">
        <ele>135.10000610352</ele>
        <time>2011-05-08T08:25:59Z</time>
      </trkpt>
      <trkpt lat="44.77108" lon="-0.31376">
        <ele>135.10000610352</ele>
        <time>2011-05-08T08:26:00Z</time>
      </trkpt>
      <trkpt lat="44.77112" lon="-0.31374">
        <ele>134.10000610352</ele>
        <time>2011-05-08T08:26:01Z</time>
      </trkpt>
      <trkpt lat="44.77119" lon="-0.31371">
        <ele>134.19999694824</ele>
        <time>2011-05-08T08:26:02Z</time>
      </trkpt>
      <trkpt lat="44.77126" lon="-0.31369">
        <ele>134.19999694824</ele>
        <time>2011-05-08T08:26:03Z</time>
      </trkpt>
      <trkpt lat="44.77132" lon="-0.31367">
        <ele>133.69999694824</ele>
        <time>2011-05-08T08:26:04Z</time>
      </trkpt>
      <trkpt lat="44.77138" lon="-0.31363">
        <ele>133.30000305176</ele>
        <time>2011-05-08T08:26:05Z</time>
      </trkpt>
      <trkpt lat="44.77146" lon="-0.3136">
        <ele>133.10000610352</ele>
        <time>2011-05-08T08:26:06Z</time>
      </trkpt>
      <trkpt lat="44.77154" lon="-0.31357">
        <ele>132.80000305176</ele>
        <time>2011-05-08T08:26:07Z</time>
      </trkpt>
      <trkpt lat="44.77161" lon="-0.31353">
        <ele>133.10000610352</ele>
        <time>2011-05-08T08:26:08Z</time>
      </trkpt>
      <trkpt lat="44.77169" lon="-0.3135">
        <ele>132.80000305176</ele>
        <time>2011-05-08T08:26:09Z</time>
      </trkpt>
      <trkpt lat="44.77177" lon="-0.31346">
        <ele>132.69999694824</ele>
        <time>2011-05-08T08:26:10Z</time>
      </trkpt>
      <trkpt lat="44.77186" lon="-0.31344">
        <ele>131</ele>
        <time>2011-05-08T08:26:11Z</time>
      </trkpt>
      <trkpt lat="44.77192" lon="-0.31342">
        <ele>129.89999389648</ele>
        <time>2011-05-08T08:26:12Z</time>
      </trkpt>
      <trkpt lat="44.77198" lon="-0.31339">
        <ele>129.30000305176</ele>
        <time>2011-05-08T08:26:13Z</time>
      </trkpt>
      <trkpt lat="44.77203" lon="-0.31341">
        <ele>128.60000610352</ele>
        <time>2011-05-08T08:26:14Z</time>
      </trkpt>
      <trkpt lat="44.77209" lon="-0.3134">
        <ele>128.10000610352</ele>
        <time>2011-05-08T08:26:16Z</time>
      </trkpt>
      <trkpt lat="44.77214" lon="-0.31343">
        <ele>127.09999847412</ele>
        <time>2011-05-08T08:26:19Z</time>
      </trkpt>
      <trkpt lat="44.77206" lon="-0.31346">
        <ele>126.80000305176</ele>
        <time>2011-05-08T08:26:21Z</time>
      </trkpt>
      <trkpt lat="44.77211" lon="-0.31337">
        <ele>125.30000305176</ele>
        <time>2011-05-08T08:26:27Z</time>
      </trkpt>
      <trkpt lat="44.77218" lon="-0.31331">
        <ele>124.80000305176</ele>
        <time>2011-05-08T08:26:29Z</time>
      </trkpt>
      <trkpt lat="44.77222" lon="-0.3133">
        <ele>124.69999694824</ele>
        <time>2011-05-08T08:26:30Z</time>
      </trkpt>
      <trkpt lat="44.77231" lon="-0.31325">
        <ele>124.59999847412</ele>
        <time>2011-05-08T08:26:32Z</time>
      </trkpt>
      <trkpt lat="44.77236" lon="-0.31323">
        <ele>124.40000152588</ele>
        <time>2011-05-08T08:26:33Z</time>
      </trkpt>
      <trkpt lat="44.77241" lon="-0.31321">
        <ele>124.30000305176</ele>
        <time>2011-05-08T08:26:34Z</time>
      </trkpt>
      <trkpt lat="44.77247" lon="-0.31318">
        <ele>124.30000305176</ele>
        <time>2011-05-08T08:26:35Z</time>
      </trkpt>
      <trkpt lat="44.77252" lon="-0.31317">
        <ele>124.19999694824</ele>
        <time>2011-05-08T08:26:36Z</time>
      </trkpt>
      <trkpt lat="44.77257" lon="-0.31314">
        <ele>124.40000152588</ele>
        <time>2011-05-08T08:26:37Z</time>
      </trkpt>
      <trkpt lat="44.77262" lon="-0.31313">
        <ele>124.09999847412</ele>
        <time>2011-05-08T08:26:38Z</time>
      </trkpt>
      <trkpt lat="44.77268" lon="-0.31311">
        <ele>123.80000305176</ele>
        <time>2011-05-08T08:26:39Z</time>
      </trkpt>
      <trkpt lat="44.77273" lon="-0.31311">
        <ele>124.30000305176</ele>
        <time>2011-05-08T08:26:40Z</time>
      </trkpt>
      <trkpt lat="44.7728" lon="-0.31309">
        <ele>124.19999694824</ele>
        <time>2011-05-08T08:26:42Z</time>
      </trkpt>
      <trkpt lat="44.77291" lon="-0.31312">
        <ele>124</ele>
        <time>2011-05-08T08:26:44Z</time>
      </trkpt>
      <trkpt lat="44.77298" lon="-0.3132">
        <ele>122.80000305176</ele>
        <time>2011-05-08T08:26:45Z</time>
      </trkpt>
      <trkpt lat="44.77303" lon="-0.31327">
        <ele>122.90000152588</ele>
        <time>2011-05-08T08:26:46Z</time>
      </trkpt>
      <trkpt lat="44.77306" lon="-0.31336">
        <ele>122.5</ele>
        <time>2011-05-08T08:26:47Z</time>
      </trkpt>
      <trkpt lat="44.77308" lon="-0.31345">
        <ele>121.90000152588</ele>
        <time>2011-05-08T08:26:48Z</time>
      </trkpt>
      <trkpt lat="44.77311" lon="-0.31354">
        <ele>122.09999847412</ele>
        <time>2011-05-08T08:26:49Z</time>
      </trkpt>
      <trkpt lat="44.77312" lon="-0.31363">
        <ele>121.5</ele>
        <time>2011-05-08T08:26:50Z</time>
      </trkpt>
      <trkpt lat="44.77313" lon="-0.3137">
        <ele>121.19999694824</ele>
        <time>2011-05-08T08:26:51Z</time>
      </trkpt>
      <trkpt lat="44.77316" lon="-0.31378">
        <ele>120.90000152588</ele>
        <time>2011-05-08T08:26:52Z</time>
      </trkpt>
      <trkpt lat="44.77319" lon="-0.31384">
        <ele>121</ele>
        <time>2011-05-08T08:26:53Z</time>
      </trkpt>
      <trkpt lat="44.77322" lon="-0.31389">
        <ele>121.09999847412</ele>
        <time>2011-05-08T08:26:54Z</time>
      </trkpt>
      <trkpt lat="44.77325" lon="-0.31395">
        <ele>120.69999694824</ele>
        <time>2011-05-08T08:26:55Z</time>
      </trkpt>
      <trkpt lat="44.77327" lon="-0.31401">
        <ele>120.90000152588</ele>
        <time>2011-05-08T08:26:56Z</time>
      </trkpt>
      <trkpt lat="44.77331" lon="-0.31406">
        <ele>121.5</ele>
        <time>2011-05-08T08:26:57Z</time>
      </trkpt>
      <trkpt lat="44.77334" lon="-0.31421">
        <ele>120.90000152588</ele>
        <time>2011-05-08T08:26:59Z</time>
      </trkpt>
      <trkpt lat="44.77337" lon="-0.31429">
        <ele>120.5</ele>
        <time>2011-05-08T08:27:00Z</time>
      </trkpt>
      <trkpt lat="44.77337" lon="-0.31436">
        <ele>120.30000305176</ele>
        <time>2011-05-08T08:27:01Z</time>
      </trkpt>
      <trkpt lat="44.77338" lon="-0.31443">
        <ele>120.40000152588</ele>
        <time>2011-05-08T08:27:02Z</time>
      </trkpt>
      <trkpt lat="44.77341" lon="-0.3145">
        <ele>120.19999694824</ele>
        <time>2011-05-08T08:27:03Z</time>
      </trkpt>
      <trkpt lat="44.77344" lon="-0.31457">
        <ele>120.09999847412</ele>
        <time>2011-05-08T08:27:04Z</time>
      </trkpt>
      <trkpt lat="44.77347" lon="-0.31463">
        <ele>120.40000152588</ele>
        <time>2011-05-08T08:27:05Z</time>
      </trkpt>
      <trkpt lat="44.77352" lon="-0.3147">
        <ele>120.30000305176</ele>
        <time>2011-05-08T08:27:06Z</time>
      </trkpt>
      <trkpt lat="44.77356" lon="-0.31475">
        <ele>120.59999847412</ele>
        <time>2011-05-08T08:27:07Z</time>
      </trkpt>
      <trkpt lat="44.77358" lon="-0.31482">
        <ele>120.19999694824</ele>
        <time>2011-05-08T08:27:08Z</time>
      </trkpt>
      <trkpt lat="44.77362" lon="-0.31488">
        <ele>120.80000305176</ele>
        <time>2011-05-08T08:27:09Z</time>
      </trkpt>
      <trkpt lat="44.77364" lon="-0.31494">
        <ele>121.09999847412</ele>
        <time>2011-05-08T08:27:10Z</time>
      </trkpt>
      <trkpt lat="44.77368" lon="-0.31502">
        <ele>121.19999694824</ele>
        <time>2011-05-08T08:27:11Z</time>
      </trkpt>
      <trkpt lat="44.77372" lon="-0.31506">
        <ele>121.09999847412</ele>
        <time>2011-05-08T08:27:12Z</time>
      </trkpt>
      <trkpt lat="44.77379" lon="-0.3151">
        <ele>121.09999847412</ele>
        <time>2011-05-08T08:27:14Z</time>
      </trkpt>
      <trkpt lat="44.77384" lon="-0.31519">
        <ele>120.80000305176</ele>
        <time>2011-05-08T08:27:16Z</time>
      </trkpt>
      <trkpt lat="44.77391" lon="-0.31524">
        <ele>121.09999847412</ele>
        <time>2011-05-08T08:27:18Z</time>
      </trkpt>
      <trkpt lat="44.77398" lon="-0.31527">
        <ele>121.19999694824</ele>
        <time>2011-05-08T08:27:19Z</time>
      </trkpt>
      <trkpt lat="44.77405" lon="-0.31531">
        <ele>122.30000305176</ele>
        <time>2011-05-08T08:27:21Z</time>
      </trkpt>
      <trkpt lat="44.77409" lon="-0.31534">
        <ele>122.09999847412</ele>
        <time>2011-05-08T08:27:22Z</time>
      </trkpt>
      <trkpt lat="44.77417" lon="-0.3154">
        <ele>122.40000152588</ele>
        <time>2011-05-08T08:27:24Z</time>
      </trkpt>
      <trkpt lat="44.77422" lon="-0.3154">
        <ele>122.80000305176</ele>
        <time>2011-05-08T08:27:25Z</time>
      </trkpt>
      <trkpt lat="44.77426" lon="-0.31542">
        <ele>122.69999694824</ele>
        <time>2011-05-08T08:27:26Z</time>
      </trkpt>
      <trkpt lat="44.77433" lon="-0.31547">
        <ele>122.5</ele>
        <time>2011-05-08T08:27:28Z</time>
      </trkpt>
      <trkpt lat="44.7744" lon="-0.31549">
        <ele>123.09999847412</ele>
        <time>2011-05-08T08:27:30Z</time>
      </trkpt>
      <trkpt lat="44.77447" lon="-0.31552">
        <ele>124.30000305176</ele>
        <time>2011-05-08T08:27:32Z</time>
      </trkpt>
      <trkpt lat="44.77451" lon="-0.31555">
        <ele>124.19999694824</ele>
        <time>2011-05-08T08:27:33Z</time>
      </trkpt>
      <trkpt lat="44.77456" lon="-0.31558">
        <ele>124.30000305176</ele>
        <time>2011-05-08T08:27:34Z</time>
      </trkpt>
      <trkpt lat="44.77463" lon="-0.31565">
        <ele>125.59999847412</ele>
        <time>2011-05-08T08:27:36Z</time>
      </trkpt>
      <trkpt lat="44.77467" lon="-0.31569">
        <ele>125.19999694824</ele>
        <time>2011-05-08T08:27:37Z</time>
      </trkpt>
      <trkpt lat="44.77471" lon="-0.31573">
        <ele>125.30000305176</ele>
        <time>2011-05-08T08:27:38Z</time>
      </trkpt>
      <trkpt lat="44.77476" lon="-0.31579">
        <ele>124.90000152588</ele>
        <time>2011-05-08T08:27:39Z</time>
      </trkpt>
      <trkpt lat="44.77481" lon="-0.31584">
        <ele>125</ele>
        <time>2011-05-08T08:27:40Z</time>
      </trkpt>
      <trkpt lat="44.77484" lon="-0.31589">
        <ele>125</ele>
        <time>2011-05-08T08:27:41Z</time>
      </trkpt>
      <trkpt lat="44.77489" lon="-0.31595">
        <ele>124.90000152588</ele>
        <time>2011-05-08T08:27:42Z</time>
      </trkpt>
      <trkpt lat="44.775" lon="-0.31604">
        <ele>124.69999694824</ele>
        <time>2011-05-08T08:27:44Z</time>
      </trkpt>
      <trkpt lat="44.77505" lon="-0.31608">
        <ele>124.69999694824</ele>
        <time>2011-05-08T08:27:45Z</time>
      </trkpt>
      <trkpt lat="44.77511" lon="-0.31611">
        <ele>125.09999847412</ele>
        <time>2011-05-08T08:27:46Z</time>
      </trkpt>
      <trkpt lat="44.77515" lon="-0.31614">
        <ele>125</ele>
        <time>2011-05-08T08:27:47Z</time>
      </trkpt>
      <trkpt lat="44.77521" lon="-0.31618">
        <ele>125.80000305176</ele>
        <time>2011-05-08T08:27:49Z</time>
      </trkpt>
      <trkpt lat="44.77529" lon="-0.31618">
        <ele>126.40000152588</ele>
        <time>2011-05-08T08:27:51Z</time>
      </trkpt>
      <trkpt lat="44.77536" lon="-0.31621">
        <ele>127</ele>
        <time>2011-05-08T08:27:53Z</time>
      </trkpt>
      <trkpt lat="44.77544" lon="-0.31616">
        <ele>127.5</ele>
        <time>2011-05-08T08:27:55Z</time>
      </trkpt>
      <trkpt lat="44.77553" lon="-0.31614">
        <ele>127.59999847412</ele>
        <time>2011-05-08T08:27:57Z</time>
      </trkpt>
      <trkpt lat="44.77559" lon="-0.31612">
        <ele>128.60000610352</ele>
        <time>2011-05-08T08:27:59Z</time>
      </trkpt>
      <trkpt lat="44.77566" lon="-0.31607">
        <ele>129.69999694824</ele>
        <time>2011-05-08T08:28:01Z</time>
      </trkpt>
      <trkpt lat="44.77572" lon="-0.31609">
        <ele>128.89999389648</ele>
        <time>2011-05-08T08:28:02Z</time>
      </trkpt>
      <trkpt lat="44.77578" lon="-0.31611">
        <ele>128.89999389648</ele>
        <time>2011-05-08T08:28:03Z</time>
      </trkpt>
      <trkpt lat="44.77583" lon="-0.31612">
        <ele>129.10000610352</ele>
        <time>2011-05-08T08:28:04Z</time>
      </trkpt>
      <trkpt lat="44.7759" lon="-0.3161">
        <ele>129.30000305176</ele>
        <time>2011-05-08T08:28:06Z</time>
      </trkpt>
      <trkpt lat="44.77597" lon="-0.3161">
        <ele>128.60000610352</ele>
        <time>2011-05-08T08:28:08Z</time>
      </trkpt>
      <trkpt lat="44.77604" lon="-0.3161">
        <ele>127.69999694824</ele>
        <time>2011-05-08T08:28:10Z</time>
      </trkpt>
      <trkpt lat="44.77612" lon="-0.31612">
        <ele>127.69999694824</ele>
        <time>2011-05-08T08:28:12Z</time>
      </trkpt>
      <trkpt lat="44.77617" lon="-0.31612">
        <ele>126.80000305176</ele>
        <time>2011-05-08T08:28:13Z</time>
      </trkpt>
      <trkpt lat="44.77622" lon="-0.31612">
        <ele>127.59999847412</ele>
        <time>2011-05-08T08:28:15Z</time>
      </trkpt>
      <trkpt lat="44.77626" lon="-0.31612">
        <ele>127.80000305176</ele>
        <time>2011-05-08T08:28:16Z</time>
      </trkpt>
      <trkpt lat="44.77634" lon="-0.31612">
        <ele>128.60000610352</ele>
        <time>2011-05-08T08:28:18Z</time>
      </trkpt>
      <trkpt lat="44.77643" lon="-0.3161">
        <ele>129.30000305176</ele>
        <time>2011-05-08T08:28:20Z</time>
      </trkpt>
      <trkpt lat="44.77649" lon="-0.31612">
        <ele>130.10000610352</ele>
        <time>2011-05-08T08:28:21Z</time>
      </trkpt>
      <trkpt lat="44.77655" lon="-0.31611">
        <ele>130</ele>
        <time>2011-05-08T08:28:22Z</time>
      </trkpt>
      <trkpt lat="44.77661" lon="-0.31609">
        <ele>129.19999694824</ele>
        <time>2011-05-08T08:28:23Z</time>
      </trkpt>
      <trkpt lat="44.77668" lon="-0.3161">
        <ele>129.39999389648</ele>
        <time>2011-05-08T08:28:24Z</time>
      </trkpt>
      <trkpt lat="44.77676" lon="-0.3161">
        <ele>129.39999389648</ele>
        <time>2011-05-08T08:28:25Z</time>
      </trkpt>
      <trkpt lat="44.77683" lon="-0.3161">
        <ele>129.10000610352</ele>
        <time>2011-05-08T08:28:26Z</time>
      </trkpt>
      <trkpt lat="44.7769" lon="-0.3161">
        <ele>128.80000305176</ele>
        <time>2011-05-08T08:28:27Z</time>
      </trkpt>
      <trkpt lat="44.77694" lon="-0.31609">
        <ele>128.69999694824</ele>
        <time>2011-05-08T08:28:28Z</time>
      </trkpt>
      <trkpt lat="44.77699" lon="-0.31606">
        <ele>128.69999694824</ele>
        <time>2011-05-08T08:28:29Z</time>
      </trkpt>
      <trkpt lat="44.77705" lon="-0.31604">
        <ele>127.90000152588</ele>
        <time>2011-05-08T08:28:30Z</time>
      </trkpt>
      <trkpt lat="44.77711" lon="-0.31602">
        <ele>128.39999389648</ele>
        <time>2011-05-08T08:28:31Z</time>
      </trkpt>
      <trkpt lat="44.77716" lon="-0.31601">
        <ele>128.60000610352</ele>
        <time>2011-05-08T08:28:32Z</time>
      </trkpt>
      <trkpt lat="44.77722" lon="-0.31599">
        <ele>128.80000305176</ele>
        <time>2011-05-08T08:28:33Z</time>
      </trkpt>
      <trkpt lat="44.77731" lon="-0.31596">
        <ele>129.10000610352</ele>
        <time>2011-05-08T08:28:35Z</time>
      </trkpt>
      <trkpt lat="44.7774" lon="-0.31596">
        <ele>128.60000610352</ele>
        <time>2011-05-08T08:28:37Z</time>
      </trkpt>
      <trkpt lat="44.77746" lon="-0.31597">
        <ele>129.30000305176</ele>
        <time>2011-05-08T08:28:38Z</time>
      </trkpt>
      <trkpt lat="44.77752" lon="-0.31598">
        <ele>128.80000305176</ele>
        <time>2011-05-08T08:28:39Z</time>
      </trkpt>
      <trkpt lat="44.77758" lon="-0.31599">
        <ele>128.39999389648</ele>
        <time>2011-05-08T08:28:40Z</time>
      </trkpt>
      <trkpt lat="44.77763" lon="-0.316">
        <ele>128</ele>
        <time>2011-05-08T08:28:41Z</time>
      </trkpt>
      <trkpt lat="44.77777" lon="-0.31603">
        <ele>128.89999389648</ele>
        <time>2011-05-08T08:28:44Z</time>
      </trkpt>
      <trkpt lat="44.77785" lon="-0.31605">
        <ele>129.69999694824</ele>
        <time>2011-05-08T08:28:46Z</time>
      </trkpt>
      <trkpt lat="44.77789" lon="-0.31606">
        <ele>129.80000305176</ele>
        <time>2011-05-08T08:28:47Z</time>
      </trkpt>
      <trkpt lat="44.77798" lon="-0.31609">
        <ele>129.19999694824</ele>
        <time>2011-05-08T08:28:49Z</time>
      </trkpt>
      <trkpt lat="44.77805" lon="-0.3161">
        <ele>129.10000610352</ele>
        <time>2011-05-08T08:28:51Z</time>
      </trkpt>
      <trkpt lat="44.77811" lon="-0.31612">
        <ele>129.39999389648</ele>
        <time>2011-05-08T08:28:52Z</time>
      </trkpt>
      <trkpt lat="44.77817" lon="-0.31614">
        <ele>129.39999389648</ele>
        <time>2011-05-08T08:28:53Z</time>
      </trkpt>
      <trkpt lat="44.77823" lon="-0.31616">
        <ele>129.69999694824</ele>
        <time>2011-05-08T08:28:54Z</time>
      </trkpt>
      <trkpt lat="44.77828" lon="-0.31618">
        <ele>129.5</ele>
        <time>2011-05-08T08:28:55Z</time>
      </trkpt>
      <trkpt lat="44.77833" lon="-0.31621">
        <ele>129.69999694824</ele>
        <time>2011-05-08T08:28:56Z</time>
      </trkpt>
      <trkpt lat="44.77842" lon="-0.31625">
        <ele>129</ele>
        <time>2011-05-08T08:28:58Z</time>
      </trkpt>
      <trkpt lat="44.7785" lon="-0.31627">
        <ele>130</ele>
        <time>2011-05-08T08:29:00Z</time>
      </trkpt>
      <trkpt lat="44.77859" lon="-0.31629">
        <ele>130.10000610352</ele>
        <time>2011-05-08T08:29:02Z</time>
      </trkpt>
      <trkpt lat="44.77867" lon="-0.31631">
        <ele>130.39999389648</ele>
        <time>2011-05-08T08:29:04Z</time>
      </trkpt>
      <trkpt lat="44.77872" lon="-0.31632">
        <ele>130.5</ele>
        <time>2011-05-08T08:29:05Z</time>
      </trkpt>
      <trkpt lat="44.77876" lon="-0.31633">
        <ele>130.5</ele>
        <time>2011-05-08T08:29:06Z</time>
      </trkpt>
      <trkpt lat="44.77884" lon="-0.31633">
        <ele>130.80000305176</ele>
        <time>2011-05-08T08:29:08Z</time>
      </trkpt>
      <trkpt lat="44.7789" lon="-0.31635">
        <ele>130.69999694824</ele>
        <time>2011-05-08T08:29:09Z</time>
      </trkpt>
      <trkpt lat="44.779" lon="-0.31638">
        <ele>129.80000305176</ele>
        <time>2011-05-08T08:29:11Z</time>
      </trkpt>
      <trkpt lat="44.77904" lon="-0.31641">
        <ele>130</ele>
        <time>2011-05-08T08:29:12Z</time>
      </trkpt>
      <trkpt lat="44.77907" lon="-0.31646">
        <ele>130.19999694824</ele>
        <time>2011-05-08T08:29:13Z</time>
      </trkpt>
      <trkpt lat="44.77912" lon="-0.31648">
        <ele>130.10000610352</ele>
        <time>2011-05-08T08:29:14Z</time>
      </trkpt>
      <trkpt lat="44.77917" lon="-0.31651">
        <ele>130.30000305176</ele>
        <time>2011-05-08T08:29:15Z</time>
      </trkpt>
      <trkpt lat="44.77922" lon="-0.31654">
        <ele>130.39999389648</ele>
        <time>2011-05-08T08:29:16Z</time>
      </trkpt>
      <trkpt lat="44.77927" lon="-0.31656">
        <ele>130.69999694824</ele>
        <time>2011-05-08T08:29:17Z</time>
      </trkpt>
      <trkpt lat="44.77934" lon="-0.31657">
        <ele>129</ele>
        <time>2011-05-08T08:29:18Z</time>
      </trkpt>
      <trkpt lat="44.77939" lon="-0.31658">
        <ele>128.89999389648</ele>
        <time>2011-05-08T08:29:19Z</time>
      </trkpt>
      <trkpt lat="44.77944" lon="-0.3166">
        <ele>128.80000305176</ele>
        <time>2011-05-08T08:29:20Z</time>
      </trkpt>
      <trkpt lat="44.7795" lon="-0.31662">
        <ele>128.5</ele>
        <time>2011-05-08T08:29:21Z</time>
      </trkpt>
      <trkpt lat="44.77955" lon="-0.31664">
        <ele>128.30000305176</ele>
        <time>2011-05-08T08:29:22Z</time>
      </trkpt>
      <trkpt lat="44.77961" lon="-0.31667">
        <ele>128</ele>
        <time>2011-05-08T08:29:23Z</time>
      </trkpt>
      <trkpt lat="44.77967" lon="-0.31671">
        <ele>128.69999694824</ele>
        <time>2011-05-08T08:29:24Z</time>
      </trkpt>
      <trkpt lat="44.77973" lon="-0.31675">
        <ele>128.39999389648</ele>
        <time>2011-05-08T08:29:25Z</time>
      </trkpt>
      <trkpt lat="44.7798" lon="-0.31676">
        <ele>127.90000152588</ele>
        <time>2011-05-08T08:29:26Z</time>
      </trkpt>
      <trkpt lat="44.77987" lon="-0.3168">
        <ele>126.90000152588</ele>
        <time>2011-05-08T08:29:27Z</time>
      </trkpt>
      <trkpt lat="44.77993" lon="-0.31683">
        <ele>126.5</ele>
        <time>2011-05-08T08:29:28Z</time>
      </trkpt>
      <trkpt lat="44.77999" lon="-0.31687">
        <ele>126</ele>
        <time>2011-05-08T08:29:29Z</time>
      </trkpt>
      <trkpt lat="44.78006" lon="-0.3169">
        <ele>125.30000305176</ele>
        <time>2011-05-08T08:29:30Z</time>
      </trkpt>
      <trkpt lat="44.78012" lon="-0.31693">
        <ele>125.5</ele>
        <time>2011-05-08T08:29:31Z</time>
      </trkpt>
      <trkpt lat="44.78017" lon="-0.31696">
        <ele>125.90000152588</ele>
        <time>2011-05-08T08:29:32Z</time>
      </trkpt>
      <trkpt lat="44.78022" lon="-0.31699">
        <ele>125.5</ele>
        <time>2011-05-08T08:29:33Z</time>
      </trkpt>
      <trkpt lat="44.78029" lon="-0.31703">
        <ele>124.40000152588</ele>
        <time>2011-05-08T08:29:34Z</time>
      </trkpt>
      <trkpt lat="44.78034" lon="-0.31707">
        <ele>124.59999847412</ele>
        <time>2011-05-08T08:29:35Z</time>
      </trkpt>
      <trkpt lat="44.7804" lon="-0.31711">
        <ele>124.69999694824</ele>
        <time>2011-05-08T08:29:36Z</time>
      </trkpt>
      <trkpt lat="44.78047" lon="-0.31713">
        <ele>124.19999694824</ele>
        <time>2011-05-08T08:29:37Z</time>
      </trkpt>
      <trkpt lat="44.78051" lon="-0.31715">
        <ele>124.09999847412</ele>
        <time>2011-05-08T08:29:38Z</time>
      </trkpt>
      <trkpt lat="44.78056" lon="-0.31718">
        <ele>123.80000305176</ele>
        <time>2011-05-08T08:29:39Z</time>
      </trkpt>
      <trkpt lat="44.78062" lon="-0.31721">
        <ele>123.19999694824</ele>
        <time>2011-05-08T08:29:40Z</time>
      </trkpt>
      <trkpt lat="44.78066" lon="-0.31724">
        <ele>122.80000305176</ele>
        <time>2011-05-08T08:29:41Z</time>
      </trkpt>
      <trkpt lat="44.7808" lon="-0.31732">
        <ele>122.5</ele>
        <time>2011-05-08T08:29:44Z</time>
      </trkpt>
      <trkpt lat="44.78087" lon="-0.31736">
        <ele>122.30000305176</ele>
        <time>2011-05-08T08:29:46Z</time>
      </trkpt>
      <trkpt lat="44.78091" lon="-0.31737">
        <ele>122.09999847412</ele>
        <time>2011-05-08T08:29:47Z</time>
      </trkpt>
      <trkpt lat="44.78096" lon="-0.31738">
        <ele>122.5</ele>
        <time>2011-05-08T08:29:49Z</time>
      </trkpt>
      <trkpt lat="44.78103" lon="-0.31739">
        <ele>122.69999694824</ele>
        <time>2011-05-08T08:29:51Z</time>
      </trkpt>
      <trkpt lat="44.7811" lon="-0.31741">
        <ele>122.19999694824</ele>
        <time>2011-05-08T08:29:53Z</time>
      </trkpt>
      <trkpt lat="44.78117" lon="-0.3174">
        <ele>121.09999847412</ele>
        <time>2011-05-08T08:29:55Z</time>
      </trkpt>
      <trkpt lat="44.78124" lon="-0.31738">
        <ele>121.90000152588</ele>
        <time>2011-05-08T08:29:57Z</time>
      </trkpt>
      <trkpt lat="44.78133" lon="-0.31738">
        <ele>122.09999847412</ele>
        <time>2011-05-08T08:29:59Z</time>
      </trkpt>
      <trkpt lat="44.78141" lon="-0.31736">
        <ele>122.40000152588</ele>
        <time>2011-05-08T08:30:01Z</time>
      </trkpt>
      <trkpt lat="44.78148" lon="-0.31734">
        <ele>123.5</ele>
        <time>2011-05-08T08:30:03Z</time>
      </trkpt>
      <trkpt lat="44.78154" lon="-0.31734">
        <ele>123</ele>
        <time>2011-05-08T08:30:04Z</time>
      </trkpt>
      <trkpt lat="44.78161" lon="-0.31733">
        <ele>123.90000152588</ele>
        <time>2011-05-08T08:30:06Z</time>
      </trkpt>
      <trkpt lat="44.7817" lon="-0.31732">
        <ele>124.30000305176</ele>
        <time>2011-05-08T08:30:08Z</time>
      </trkpt>
      <trkpt lat="44.78175" lon="-0.31731">
        <ele>124.09999847412</ele>
        <time>2011-05-08T08:30:09Z</time>
      </trkpt>
      <trkpt lat="44.78179" lon="-0.31732">
        <ele>124</ele>
        <time>2011-05-08T08:30:10Z</time>
      </trkpt>
      <trkpt lat="44.78184" lon="-0.31732">
        <ele>124.69999694824</ele>
        <time>2011-05-08T08:30:11Z</time>
      </trkpt>
      <trkpt lat="44.7819" lon="-0.31733">
        <ele>124.80000305176</ele>
        <time>2011-05-08T08:30:12Z</time>
      </trkpt>
      <trkpt lat="44.78198" lon="-0.31737">
        <ele>124.5</ele>
        <time>2011-05-08T08:30:14Z</time>
      </trkpt>
      <trkpt lat="44.78206" lon="-0.31739">
        <ele>124</ele>
        <time>2011-05-08T08:30:16Z</time>
      </trkpt>
      <trkpt lat="44.78211" lon="-0.3174">
        <ele>124.5</ele>
        <time>2011-05-08T08:30:17Z</time>
      </trkpt>
      <trkpt lat="44.78219" lon="-0.31743">
        <ele>124.30000305176</ele>
        <time>2011-05-08T08:30:19Z</time>
      </trkpt>
      <trkpt lat="44.78226" lon="-0.31745">
        <ele>124.69999694824</ele>
        <time>2011-05-08T08:30:21Z</time>
      </trkpt>
      <trkpt lat="44.78231" lon="-0.31743">
        <ele>125.09999847412</ele>
        <time>2011-05-08T08:30:22Z</time>
      </trkpt>
      <trkpt lat="44.78237" lon="-0.31742">
        <ele>124.59999847412</ele>
        <time>2011-05-08T08:30:23Z</time>
      </trkpt>
      <trkpt lat="44.78243" lon="-0.31743">
        <ele>124.69999694824</ele>
        <time>2011-05-08T08:30:24Z</time>
      </trkpt>
      <trkpt lat="44.78249" lon="-0.31744">
        <ele>124.5</ele>
        <time>2011-05-08T08:30:25Z</time>
      </trkpt>
      <trkpt lat="44.78254" lon="-0.31745">
        <ele>124.90000152588</ele>
        <time>2011-05-08T08:30:26Z</time>
      </trkpt>
      <trkpt lat="44.78262" lon="-0.31746">
        <ele>124.40000152588</ele>
        <time>2011-05-08T08:30:27Z</time>
      </trkpt>
      <trkpt lat="44.7827" lon="-0.31747">
        <ele>123.90000152588</ele>
        <time>2011-05-08T08:30:28Z</time>
      </trkpt>
      <trkpt lat="44.78277" lon="-0.31747">
        <ele>124</ele>
        <time>2011-05-08T08:30:29Z</time>
      </trkpt>
      <trkpt lat="44.78283" lon="-0.31747">
        <ele>123.30000305176</ele>
        <time>2011-05-08T08:30:30Z</time>
      </trkpt>
      <trkpt lat="44.78289" lon="-0.31748">
        <ele>123.40000152588</ele>
        <time>2011-05-08T08:30:31Z</time>
      </trkpt>
      <trkpt lat="44.78295" lon="-0.3175">
        <ele>122.30000305176</ele>
        <time>2011-05-08T08:30:32Z</time>
      </trkpt>
      <trkpt lat="44.78301" lon="-0.31753">
        <ele>122.19999694824</ele>
        <time>2011-05-08T08:30:33Z</time>
      </trkpt>
      <trkpt lat="44.78307" lon="-0.31754">
        <ele>122.40000152588</ele>
        <time>2011-05-08T08:30:34Z</time>
      </trkpt>
      <trkpt lat="44.78314" lon="-0.31755">
        <ele>122.69999694824</ele>
        <time>2011-05-08T08:30:35Z</time>
      </trkpt>
      <trkpt lat="44.7832" lon="-0.31756">
        <ele>122.69999694824</ele>
        <time>2011-05-08T08:30:36Z</time>
      </trkpt>
      <trkpt lat="44.78326" lon="-0.31757">
        <ele>122.09999847412</ele>
        <time>2011-05-08T08:30:37Z</time>
      </trkpt>
      <trkpt lat="44.78332" lon="-0.31758">
        <ele>121.5</ele>
        <time>2011-05-08T08:30:38Z</time>
      </trkpt>
      <trkpt lat="44.78339" lon="-0.3176">
        <ele>121.19999694824</ele>
        <time>2011-05-08T08:30:39Z</time>
      </trkpt>
      <trkpt lat="44.78346" lon="-0.3176">
        <ele>121.19999694824</ele>
        <time>2011-05-08T08:30:40Z</time>
      </trkpt>
      <trkpt lat="44.78351" lon="-0.31758">
        <ele>121.30000305176</ele>
        <time>2011-05-08T08:30:41Z</time>
      </trkpt>
      <trkpt lat="44.78358" lon="-0.31758">
        <ele>121.40000152588</ele>
        <time>2011-05-08T08:30:42Z</time>
      </trkpt>
      <trkpt lat="44.7837" lon="-0.31754">
        <ele>121.19999694824</ele>
        <time>2011-05-08T08:30:44Z</time>
      </trkpt>
      <trkpt lat="44.78378" lon="-0.31755">
        <ele>120.90000152588</ele>
        <time>2011-05-08T08:30:45Z</time>
      </trkpt>
      <trkpt lat="44.78386" lon="-0.31754">
        <ele>120.59999847412</ele>
        <time>2011-05-08T08:30:46Z</time>
      </trkpt>
      <trkpt lat="44.78392" lon="-0.31752">
        <ele>120.30000305176</ele>
        <time>2011-05-08T08:30:47Z</time>
      </trkpt>
      <trkpt lat="44.78397" lon="-0.3175">
        <ele>119.80000305176</ele>
        <time>2011-05-08T08:30:48Z</time>
      </trkpt>
      <trkpt lat="44.78402" lon="-0.31748">
        <ele>120</ele>
        <time>2011-05-08T08:30:49Z</time>
      </trkpt>
      <trkpt lat="44.78407" lon="-0.31745">
        <ele>120.30000305176</ele>
        <time>2011-05-08T08:30:50Z</time>
      </trkpt>
      <trkpt lat="44.78411" lon="-0.31744">
        <ele>120.40000152588</ele>
        <time>2011-05-08T08:30:51Z</time>
      </trkpt>
      <trkpt lat="44.78418" lon="-0.31741">
        <ele>120.5</ele>
        <time>2011-05-08T08:30:52Z</time>
      </trkpt>
      <trkpt lat="44.78429" lon="-0.31738">
        <ele>119.80000305176</ele>
        <time>2011-05-08T08:30:53Z</time>
      </trkpt>
      <trkpt lat="44.78438" lon="-0.31741">
        <ele>119.59999847412</ele>
        <time>2011-05-08T08:30:54Z</time>
      </trkpt>
      <trkpt lat="44.78446" lon="-0.31743">
        <ele>119.19999694824</ele>
        <time>2011-05-08T08:30:55Z</time>
      </trkpt>
      <trkpt lat="44.78452" lon="-0.31745">
        <ele>119.40000152588</ele>
        <time>2011-05-08T08:30:56Z</time>
      </trkpt>
      <trkpt lat="44.78459" lon="-0.31747">
        <ele>119.30000305176</ele>
        <time>2011-05-08T08:30:57Z</time>
      </trkpt>
      <trkpt lat="44.78465" lon="-0.31749">
        <ele>118.69999694824</ele>
        <time>2011-05-08T08:30:58Z</time>
      </trkpt>
      <trkpt lat="44.78472" lon="-0.31751">
        <ele>118.80000305176</ele>
        <time>2011-05-08T08:30:59Z</time>
      </trkpt>
      <trkpt lat="44.78477" lon="-0.31753">
        <ele>118.80000305176</ele>
        <time>2011-05-08T08:31:00Z</time>
      </trkpt>
      <trkpt lat="44.78483" lon="-0.31754">
        <ele>118.5</ele>
        <time>2011-05-08T08:31:01Z</time>
      </trkpt>
      <trkpt lat="44.78488" lon="-0.31756">
        <ele>118.09999847412</ele>
        <time>2011-05-08T08:31:02Z</time>
      </trkpt>
      <trkpt lat="44.78498" lon="-0.31757">
        <ele>117.09999847412</ele>
        <time>2011-05-08T08:31:04Z</time>
      </trkpt>
      <trkpt lat="44.78504" lon="-0.31759">
        <ele>116.69999694824</ele>
        <time>2011-05-08T08:31:05Z</time>
      </trkpt>
      <trkpt lat="44.7851" lon="-0.31761">
        <ele>117.09999847412</ele>
        <time>2011-05-08T08:31:06Z</time>
      </trkpt>
      <trkpt lat="44.78516" lon="-0.31763">
        <ele>117.09999847412</ele>
        <time>2011-05-08T08:31:07Z</time>
      </trkpt>
      <trkpt lat="44.78521" lon="-0.31767">
        <ele>116.69999694824</ele>
        <time>2011-05-08T08:31:08Z</time>
      </trkpt>
      <trkpt lat="44.78527" lon="-0.3177">
        <ele>116.09999847412</ele>
        <time>2011-05-08T08:31:09Z</time>
      </trkpt>
      <trkpt lat="44.78533" lon="-0.31773">
        <ele>116.19999694824</ele>
        <time>2011-05-08T08:31:10Z</time>
      </trkpt>
      <trkpt lat="44.78538" lon="-0.31776">
        <ele>115.90000152588</ele>
        <time>2011-05-08T08:31:11Z</time>
      </trkpt>
      <trkpt lat="44.78544" lon="-0.31778">
        <ele>116.09999847412</ele>
        <time>2011-05-08T08:31:12Z</time>
      </trkpt>
      <trkpt lat="44.78549" lon="-0.31781">
        <ele>115.90000152588</ele>
        <time>2011-05-08T08:31:13Z</time>
      </trkpt>
      <trkpt lat="44.78555" lon="-0.31784">
        <ele>116.09999847412</ele>
        <time>2011-05-08T08:31:14Z</time>
      </trkpt>
      <trkpt lat="44.78559" lon="-0.31785">
        <ele>115.90000152588</ele>
        <time>2011-05-08T08:31:15Z</time>
      </trkpt>
      <trkpt lat="44.78565" lon="-0.31788">
        <ele>116</ele>
        <time>2011-05-08T08:31:16Z</time>
      </trkpt>
      <trkpt lat="44.78571" lon="-0.31791">
        <ele>115.90000152588</ele>
        <time>2011-05-08T08:31:17Z</time>
      </trkpt>
      <trkpt lat="44.78576" lon="-0.31794">
        <ele>116.40000152588</ele>
        <time>2011-05-08T08:31:18Z</time>
      </trkpt>
      <trkpt lat="44.78581" lon="-0.31795">
        <ele>117.30000305176</ele>
        <time>2011-05-08T08:31:19Z</time>
      </trkpt>
      <trkpt lat="44.78587" lon="-0.31795">
        <ele>118.40000152588</ele>
        <time>2011-05-08T08:31:20Z</time>
      </trkpt>
      <trkpt lat="44.78594" lon="-0.31798">
        <ele>117.80000305176</ele>
        <time>2011-05-08T08:31:21Z</time>
      </trkpt>
      <trkpt lat="44.78603" lon="-0.31797">
        <ele>119.30000305176</ele>
        <time>2011-05-08T08:31:23Z</time>
      </trkpt>
      <trkpt lat="44.78609" lon="-0.31798">
        <ele>119.80000305176</ele>
        <time>2011-05-08T08:31:24Z</time>
      </trkpt>
      <trkpt lat="44.78617" lon="-0.31797">
        <ele>119.19999694824</ele>
        <time>2011-05-08T08:31:26Z</time>
      </trkpt>
      <trkpt lat="44.78623" lon="-0.31798">
        <ele>118.80000305176</ele>
        <time>2011-05-08T08:31:27Z</time>
      </trkpt>
      <trkpt lat="44.78628" lon="-0.318">
        <ele>118.90000152588</ele>
        <time>2011-05-08T08:31:28Z</time>
      </trkpt>
      <trkpt lat="44.78632" lon="-0.31802">
        <ele>118.90000152588</ele>
        <time>2011-05-08T08:31:29Z</time>
      </trkpt>
      <trkpt lat="44.78639" lon="-0.31802">
        <ele>119.90000152588</ele>
        <time>2011-05-08T08:31:31Z</time>
      </trkpt>
      <trkpt lat="44.78646" lon="-0.31798">
        <ele>119.59999847412</ele>
        <time>2011-05-08T08:31:33Z</time>
      </trkpt>
      <trkpt lat="44.7865" lon="-0.31791">
        <ele>118</ele>
        <time>2011-05-08T08:31:35Z</time>
      </trkpt>
      <trkpt lat="44.78652" lon="-0.31779">
        <ele>116.80000305176</ele>
        <time>2011-05-08T08:31:37Z</time>
      </trkpt>
      <trkpt lat="44.78654" lon="-0.31773">
        <ele>117.30000305176</ele>
        <time>2011-05-08T08:31:38Z</time>
      </trkpt>
      <trkpt lat="44.78657" lon="-0.31762">
        <ele>116.90000152588</ele>
        <time>2011-05-08T08:31:40Z</time>
      </trkpt>
      <trkpt lat="44.7866" lon="-0.31751">
        <ele>117.19999694824</ele>
        <time>2011-05-08T08:31:42Z</time>
      </trkpt>
      <trkpt lat="44.78664" lon="-0.31741">
        <ele>117.5</ele>
        <time>2011-05-08T08:31:44Z</time>
      </trkpt>
      <trkpt lat="44.78666" lon="-0.3173">
        <ele>116.59999847412</ele>
        <time>2011-05-08T08:31:46Z</time>
      </trkpt>
      <trkpt lat="44.78668" lon="-0.31725">
        <ele>117.19999694824</ele>
        <time>2011-05-08T08:31:47Z</time>
      </trkpt>
      <trkpt lat="44.78671" lon="-0.31719">
        <ele>117.19999694824</ele>
        <time>2011-05-08T08:31:48Z</time>
      </trkpt>
      <trkpt lat="44.78673" lon="-0.31708">
        <ele>117.80000305176</ele>
        <time>2011-05-08T08:31:50Z</time>
      </trkpt>
      <trkpt lat="44.78673" lon="-0.317">
        <ele>117.40000152588</ele>
        <time>2011-05-08T08:31:51Z</time>
      </trkpt>
      <trkpt lat="44.78676" lon="-0.31689">
        <ele>117.80000305176</ele>
        <time>2011-05-08T08:31:53Z</time>
      </trkpt>
      <trkpt lat="44.78678" lon="-0.31679">
        <ele>117.40000152588</ele>
        <time>2011-05-08T08:31:55Z</time>
      </trkpt>
      <trkpt lat="44.78679" lon="-0.3167">
        <ele>117.30000305176</ele>
        <time>2011-05-08T08:31:57Z</time>
      </trkpt>
      <trkpt lat="44.78682" lon="-0.31658">
        <ele>117.5</ele>
        <time>2011-05-08T08:31:59Z</time>
      </trkpt>
      <trkpt lat="44.78681" lon="-0.31647">
        <ele>118.19999694824</ele>
        <time>2011-05-08T08:32:01Z</time>
      </trkpt>
      <trkpt lat="44.78682" lon="-0.31639">
        <ele>118.19999694824</ele>
        <time>2011-05-08T08:32:03Z</time>
      </trkpt>
      <trkpt lat="44.78684" lon="-0.31629">
        <ele>117.09999847412</ele>
        <time>2011-05-08T08:32:04Z</time>
      </trkpt>
      <trkpt lat="44.78684" lon="-0.3162">
        <ele>117.19999694824</ele>
        <time>2011-05-08T08:32:05Z</time>
      </trkpt>
      <trkpt lat="44.78685" lon="-0.31612">
        <ele>117.40000152588</ele>
        <time>2011-05-08T08:32:06Z</time>
      </trkpt>
      <trkpt lat="44.78685" lon="-0.31604">
        <ele>117.90000152588</ele>
        <time>2011-05-08T08:32:07Z</time>
      </trkpt>
      <trkpt lat="44.78686" lon="-0.31596">
        <ele>118.19999694824</ele>
        <time>2011-05-08T08:32:08Z</time>
      </trkpt>
      <trkpt lat="44.78688" lon="-0.31586">
        <ele>118.19999694824</ele>
        <time>2011-05-08T08:32:09Z</time>
      </trkpt>
      <trkpt lat="44.78688" lon="-0.31579">
        <ele>118.80000305176</ele>
        <time>2011-05-08T08:32:10Z</time>
      </trkpt>
      <trkpt lat="44.78688" lon="-0.31572">
        <ele>118.59999847412</ele>
        <time>2011-05-08T08:32:11Z</time>
      </trkpt>
      <trkpt lat="44.78689" lon="-0.31564">
        <ele>118.5</ele>
        <time>2011-05-08T08:32:12Z</time>
      </trkpt>
      <trkpt lat="44.78689" lon="-0.31558">
        <ele>118.30000305176</ele>
        <time>2011-05-08T08:32:13Z</time>
      </trkpt>
      <trkpt lat="44.78691" lon="-0.3155">
        <ele>117.69999694824</ele>
        <time>2011-05-08T08:32:14Z</time>
      </trkpt>
      <trkpt lat="44.7869" lon="-0.31544">
        <ele>118.59999847412</ele>
        <time>2011-05-08T08:32:15Z</time>
      </trkpt>
      <trkpt lat="44.78691" lon="-0.31536">
        <ele>118.19999694824</ele>
        <time>2011-05-08T08:32:16Z</time>
      </trkpt>
      <trkpt lat="44.78692" lon="-0.31529">
        <ele>118.5</ele>
        <time>2011-05-08T08:32:17Z</time>
      </trkpt>
      <trkpt lat="44.78693" lon="-0.31518">
        <ele>117.30000305176</ele>
        <time>2011-05-08T08:32:19Z</time>
      </trkpt>
      <trkpt lat="44.78693" lon="-0.31505">
        <ele>118.19999694824</ele>
        <time>2011-05-08T08:32:21Z</time>
      </trkpt>
      <trkpt lat="44.78693" lon="-0.31499">
        <ele>117.30000305176</ele>
        <time>2011-05-08T08:32:22Z</time>
      </trkpt>
      <trkpt lat="44.78693" lon="-0.31487">
        <ele>117.19999694824</ele>
        <time>2011-05-08T08:32:24Z</time>
      </trkpt>
      <trkpt lat="44.78693" lon="-0.31481">
        <ele>117.90000152588</ele>
        <time>2011-05-08T08:32:25Z</time>
      </trkpt>
      <trkpt lat="44.78691" lon="-0.31471">
        <ele>119.09999847412</ele>
        <time>2011-05-08T08:32:27Z</time>
      </trkpt>
      <trkpt lat="44.7869" lon="-0.3146">
        <ele>119.59999847412</ele>
        <time>2011-05-08T08:32:29Z</time>
      </trkpt>
      <trkpt lat="44.7869" lon="-0.31449">
        <ele>119.69999694824</ele>
        <time>2011-05-08T08:32:31Z</time>
      </trkpt>
      <trkpt lat="44.78689" lon="-0.31437">
        <ele>119.5</ele>
        <time>2011-05-08T08:32:33Z</time>
      </trkpt>
      <trkpt lat="44.78689" lon="-0.31426">
        <ele>119.40000152588</ele>
        <time>2011-05-08T08:32:35Z</time>
      </trkpt>
      <trkpt lat="44.78689" lon="-0.31412">
        <ele>119.59999847412</ele>
        <time>2011-05-08T08:32:37Z</time>
      </trkpt>
      <trkpt lat="44.78688" lon="-0.31405">
        <ele>120.30000305176</ele>
        <time>2011-05-08T08:32:38Z</time>
      </trkpt>
      <trkpt lat="44.78687" lon="-0.31399">
        <ele>120</ele>
        <time>2011-05-08T08:32:39Z</time>
      </trkpt>
      <trkpt lat="44.78687" lon="-0.31392">
        <ele>120.69999694824</ele>
        <time>2011-05-08T08:32:40Z</time>
      </trkpt>
      <trkpt lat="44.78687" lon="-0.31381">
        <ele>121.09999847412</ele>
        <time>2011-05-08T08:32:42Z</time>
      </trkpt>
      <trkpt lat="44.78685" lon="-0.31372">
        <ele>121.5</ele>
        <time>2011-05-08T08:32:44Z</time>
      </trkpt>
      <trkpt lat="44.78683" lon="-0.31361">
        <ele>121.69999694824</ele>
        <time>2011-05-08T08:32:46Z</time>
      </trkpt>
      <trkpt lat="44.78682" lon="-0.31349">
        <ele>120.90000152588</ele>
        <time>2011-05-08T08:32:48Z</time>
      </trkpt>
      <trkpt lat="44.78682" lon="-0.31341">
        <ele>120.90000152588</ele>
        <time>2011-05-08T08:32:49Z</time>
      </trkpt>
      <trkpt lat="44.78682" lon="-0.3133">
        <ele>121.40000152588</ele>
        <time>2011-05-08T08:32:51Z</time>
      </trkpt>
      <trkpt lat="44.78682" lon="-0.31318">
        <ele>120.30000305176</ele>
        <time>2011-05-08T08:32:53Z</time>
      </trkpt>
      <trkpt lat="44.78681" lon="-0.31311">
        <ele>120.19999694824</ele>
        <time>2011-05-08T08:32:54Z</time>
      </trkpt>
      <trkpt lat="44.78681" lon="-0.31305">
        <ele>120.90000152588</ele>
        <time>2011-05-08T08:32:55Z</time>
      </trkpt>
      <trkpt lat="44.78681" lon="-0.31292">
        <ele>121.80000305176</ele>
        <time>2011-05-08T08:32:57Z</time>
      </trkpt>
      <trkpt lat="44.78681" lon="-0.31283">
        <ele>122</ele>
        <time>2011-05-08T08:32:58Z</time>
      </trkpt>
      <trkpt lat="44.78682" lon="-0.31276">
        <ele>121.59999847412</ele>
        <time>2011-05-08T08:32:59Z</time>
      </trkpt>
      <trkpt lat="44.78682" lon="-0.31268">
        <ele>121.90000152588</ele>
        <time>2011-05-08T08:33:00Z</time>
      </trkpt>
      <trkpt lat="44.78683" lon="-0.31261">
        <ele>122.40000152588</ele>
        <time>2011-05-08T08:33:01Z</time>
      </trkpt>
      <trkpt lat="44.78683" lon="-0.31252">
        <ele>122.30000305176</ele>
        <time>2011-05-08T08:33:02Z</time>
      </trkpt>
      <trkpt lat="44.78683" lon="-0.31242">
        <ele>121.59999847412</ele>
        <time>2011-05-08T08:33:03Z</time>
      </trkpt>
      <trkpt lat="44.78684" lon="-0.31234">
        <ele>122.09999847412</ele>
        <time>2011-05-08T08:33:04Z</time>
      </trkpt>
      <trkpt lat="44.78685" lon="-0.31225">
        <ele>121.5</ele>
        <time>2011-05-08T08:33:05Z</time>
      </trkpt>
      <trkpt lat="44.78685" lon="-0.31216">
        <ele>121.5</ele>
        <time>2011-05-08T08:33:06Z</time>
      </trkpt>
      <trkpt lat="44.78685" lon="-0.31206">
        <ele>121.59999847412</ele>
        <time>2011-05-08T08:33:07Z</time>
      </trkpt>
      <trkpt lat="44.78685" lon="-0.31196">
        <ele>122.30000305176</ele>
        <time>2011-05-08T08:33:08Z</time>
      </trkpt>
      <trkpt lat="44.78686" lon="-0.31186">
        <ele>122.69999694824</ele>
        <time>2011-05-08T08:33:09Z</time>
      </trkpt>
      <trkpt lat="44.78686" lon="-0.31176">
        <ele>122.90000152588</ele>
        <time>2011-05-08T08:33:10Z</time>
      </trkpt>
      <trkpt lat="44.78686" lon="-0.31163">
        <ele>122.90000152588</ele>
        <time>2011-05-08T08:33:11Z</time>
      </trkpt>
      <trkpt lat="44.78687" lon="-0.31152">
        <ele>123.09999847412</ele>
        <time>2011-05-08T08:33:12Z</time>
      </trkpt>
      <trkpt lat="44.78688" lon="-0.31141">
        <ele>122.40000152588</ele>
        <time>2011-05-08T08:33:13Z</time>
      </trkpt>
      <trkpt lat="44.78688" lon="-0.31131">
        <ele>122.69999694824</ele>
        <time>2011-05-08T08:33:14Z</time>
      </trkpt>
      <trkpt lat="44.78689" lon="-0.3112">
        <ele>122.40000152588</ele>
        <time>2011-05-08T08:33:15Z</time>
      </trkpt>
      <trkpt lat="44.7869" lon="-0.31112">
        <ele>121.69999694824</ele>
        <time>2011-05-08T08:33:16Z</time>
      </trkpt>
      <trkpt lat="44.7869" lon="-0.31102">
        <ele>121.59999847412</ele>
        <time>2011-05-08T08:33:17Z</time>
      </trkpt>
      <trkpt lat="44.78691" lon="-0.31092">
        <ele>121.40000152588</ele>
        <time>2011-05-08T08:33:18Z</time>
      </trkpt>
      <trkpt lat="44.78692" lon="-0.31083">
        <ele>121.09999847412</ele>
        <time>2011-05-08T08:33:19Z</time>
      </trkpt>
      <trkpt lat="44.78692" lon="-0.31073">
        <ele>120.69999694824</ele>
        <time>2011-05-08T08:33:20Z</time>
      </trkpt>
      <trkpt lat="44.78694" lon="-0.31063">
        <ele>120.40000152588</ele>
        <time>2011-05-08T08:33:21Z</time>
      </trkpt>
      <trkpt lat="44.78695" lon="-0.31054">
        <ele>120.80000305176</ele>
        <time>2011-05-08T08:33:22Z</time>
      </trkpt>
      <trkpt lat="44.78696" lon="-0.31044">
        <ele>120.80000305176</ele>
        <time>2011-05-08T08:33:23Z</time>
      </trkpt>
      <trkpt lat="44.78697" lon="-0.31035">
        <ele>121.19999694824</ele>
        <time>2011-05-08T08:33:24Z</time>
      </trkpt>
      <trkpt lat="44.78697" lon="-0.31026">
        <ele>121.09999847412</ele>
        <time>2011-05-08T08:33:25Z</time>
      </trkpt>
      <trkpt lat="44.78698" lon="-0.31017">
        <ele>120.5</ele>
        <time>2011-05-08T08:33:26Z</time>
      </trkpt>
      <trkpt lat="44.78699" lon="-0.31008">
        <ele>120.5</ele>
        <time>2011-05-08T08:33:27Z</time>
      </trkpt>
      <trkpt lat="44.78699" lon="-0.30999">
        <ele>120.5</ele>
        <time>2011-05-08T08:33:28Z</time>
      </trkpt>
      <trkpt lat="44.78699" lon="-0.30992">
        <ele>120.59999847412</ele>
        <time>2011-05-08T08:33:29Z</time>
      </trkpt>
      <trkpt lat="44.78701" lon="-0.30984">
        <ele>120.19999694824</ele>
        <time>2011-05-08T08:33:30Z</time>
      </trkpt>
      <trkpt lat="44.78702" lon="-0.30978">
        <ele>120.19999694824</ele>
        <time>2011-05-08T08:33:31Z</time>
      </trkpt>
      <trkpt lat="44.78703" lon="-0.30969">
        <ele>119.5</ele>
        <time>2011-05-08T08:33:32Z</time>
      </trkpt>
      <trkpt lat="44.78704" lon="-0.30961">
        <ele>119.69999694824</ele>
        <time>2011-05-08T08:33:33Z</time>
      </trkpt>
      <trkpt lat="44.78704" lon="-0.30954">
        <ele>119.69999694824</ele>
        <time>2011-05-08T08:33:34Z</time>
      </trkpt>
      <trkpt lat="44.78704" lon="-0.30947">
        <ele>119.69999694824</ele>
        <time>2011-05-08T08:33:35Z</time>
      </trkpt>
      <trkpt lat="44.78703" lon="-0.3094">
        <ele>119.69999694824</ele>
        <time>2011-05-08T08:33:36Z</time>
      </trkpt>
      <trkpt lat="44.78703" lon="-0.30932">
        <ele>119.69999694824</ele>
        <time>2011-05-08T08:33:37Z</time>
      </trkpt>
      <trkpt lat="44.78704" lon="-0.30925">
        <ele>119.80000305176</ele>
        <time>2011-05-08T08:33:38Z</time>
      </trkpt>
      <trkpt lat="44.78705" lon="-0.30918">
        <ele>119.80000305176</ele>
        <time>2011-05-08T08:33:39Z</time>
      </trkpt>
      <trkpt lat="44.78705" lon="-0.3091">
        <ele>120.30000305176</ele>
        <time>2011-05-08T08:33:40Z</time>
      </trkpt>
      <trkpt lat="44.78707" lon="-0.30901">
        <ele>120.69999694824</ele>
        <time>2011-05-08T08:33:41Z</time>
      </trkpt>
      <trkpt lat="44.78706" lon="-0.30894">
        <ele>120.90000152588</ele>
        <time>2011-05-08T08:33:42Z</time>
      </trkpt>
      <trkpt lat="44.78708" lon="-0.30868">
        <ele>122</ele>
        <time>2011-05-08T08:33:45Z</time>
      </trkpt>
      <trkpt lat="44.78708" lon="-0.3086">
        <ele>121.40000152588</ele>
        <time>2011-05-08T08:33:46Z</time>
      </trkpt>
      <trkpt lat="44.78709" lon="-0.30853">
        <ele>121</ele>
        <time>2011-05-08T08:33:47Z</time>
      </trkpt>
      <trkpt lat="44.78709" lon="-0.30846">
        <ele>120.69999694824</ele>
        <time>2011-05-08T08:33:48Z</time>
      </trkpt>
      <trkpt lat="44.78711" lon="-0.30839">
        <ele>121.19999694824</ele>
        <time>2011-05-08T08:33:49Z</time>
      </trkpt>
      <trkpt lat="44.78712" lon="-0.30831">
        <ele>120.5</ele>
        <time>2011-05-08T08:33:50Z</time>
      </trkpt>
      <trkpt lat="44.78713" lon="-0.30823">
        <ele>121</ele>
        <time>2011-05-08T08:33:51Z</time>
      </trkpt>
      <trkpt lat="44.78712" lon="-0.30815">
        <ele>121.09999847412</ele>
        <time>2011-05-08T08:33:52Z</time>
      </trkpt>
      <trkpt lat="44.78711" lon="-0.30807">
        <ele>120.90000152588</ele>
        <time>2011-05-08T08:33:53Z</time>
      </trkpt>
      <trkpt lat="44.78712" lon="-0.30799">
        <ele>120.80000305176</ele>
        <time>2011-05-08T08:33:54Z</time>
      </trkpt>
      <trkpt lat="44.78713" lon="-0.30792">
        <ele>120.19999694824</ele>
        <time>2011-05-08T08:33:55Z</time>
      </trkpt>
      <trkpt lat="44.78713" lon="-0.30783">
        <ele>120.80000305176</ele>
        <time>2011-05-08T08:33:56Z</time>
      </trkpt>
      <trkpt lat="44.78714" lon="-0.30775">
        <ele>119.90000152588</ele>
        <time>2011-05-08T08:33:57Z</time>
      </trkpt>
      <trkpt lat="44.78715" lon="-0.30764">
        <ele>120.19999694824</ele>
        <time>2011-05-08T08:33:58Z</time>
      </trkpt>
      <trkpt lat="44.78717" lon="-0.30757">
        <ele>120.19999694824</ele>
        <time>2011-05-08T08:33:59Z</time>
      </trkpt>
      <trkpt lat="44.78717" lon="-0.30749">
        <ele>120.09999847412</ele>
        <time>2011-05-08T08:34:00Z</time>
      </trkpt>
      <trkpt lat="44.78718" lon="-0.30741">
        <ele>120.59999847412</ele>
        <time>2011-05-08T08:34:01Z</time>
      </trkpt>
      <trkpt lat="44.78719" lon="-0.30729">
        <ele>121.40000152588</ele>
        <time>2011-05-08T08:34:03Z</time>
      </trkpt>
      <trkpt lat="44.78718" lon="-0.30717">
        <ele>121.40000152588</ele>
        <time>2011-05-08T08:34:05Z</time>
      </trkpt>
      <trkpt lat="44.78719" lon="-0.30708">
        <ele>121.69999694824</ele>
        <time>2011-05-08T08:34:06Z</time>
      </trkpt>
      <trkpt lat="44.7872" lon="-0.30695">
        <ele>122.09999847412</ele>
        <time>2011-05-08T08:34:08Z</time>
      </trkpt>
      <trkpt lat="44.7872" lon="-0.30689">
        <ele>122.5</ele>
        <time>2011-05-08T08:34:09Z</time>
      </trkpt>
      <trkpt lat="44.7872" lon="-0.30681">
        <ele>122.90000152588</ele>
        <time>2011-05-08T08:34:10Z</time>
      </trkpt>
      <trkpt lat="44.78721" lon="-0.30675">
        <ele>122.30000305176</ele>
        <time>2011-05-08T08:34:11Z</time>
      </trkpt>
      <trkpt lat="44.7872" lon="-0.30668">
        <ele>123</ele>
        <time>2011-05-08T08:34:12Z</time>
      </trkpt>
      <trkpt lat="44.78722" lon="-0.3066">
        <ele>122.80000305176</ele>
        <time>2011-05-08T08:34:13Z</time>
      </trkpt>
      <trkpt lat="44.78722" lon="-0.30652">
        <ele>123.19999694824</ele>
        <time>2011-05-08T08:34:14Z</time>
      </trkpt>
      <trkpt lat="44.78723" lon="-0.30643">
        <ele>123.30000305176</ele>
        <time>2011-05-08T08:34:15Z</time>
      </trkpt>
      <trkpt lat="44.78724" lon="-0.30635">
        <ele>122.90000152588</ele>
        <time>2011-05-08T08:34:16Z</time>
      </trkpt>
      <trkpt lat="44.78724" lon="-0.30627">
        <ele>122.90000152588</ele>
        <time>2011-05-08T08:34:17Z</time>
      </trkpt>
      <trkpt lat="44.78726" lon="-0.30619">
        <ele>122.5</ele>
        <time>2011-05-08T08:34:18Z</time>
      </trkpt>
      <trkpt lat="44.78726" lon="-0.3061">
        <ele>122.59999847412</ele>
        <time>2011-05-08T08:34:19Z</time>
      </trkpt>
      <trkpt lat="44.78726" lon="-0.30602">
        <ele>122.19999694824</ele>
        <time>2011-05-08T08:34:20Z</time>
      </trkpt>
      <trkpt lat="44.78726" lon="-0.30593">
        <ele>121.59999847412</ele>
        <time>2011-05-08T08:34:21Z</time>
      </trkpt>
      <trkpt lat="44.78725" lon="-0.30587">
        <ele>121.59999847412</ele>
        <time>2011-05-08T08:34:22Z</time>
      </trkpt>
      <trkpt lat="44.78725" lon="-0.30579">
        <ele>121.40000152588</ele>
        <time>2011-05-08T08:34:23Z</time>
      </trkpt>
      <trkpt lat="44.78725" lon="-0.30572">
        <ele>121.80000305176</ele>
        <time>2011-05-08T08:34:24Z</time>
      </trkpt>
      <trkpt lat="44.78725" lon="-0.30559">
        <ele>121.59999847412</ele>
        <time>2011-05-08T08:34:26Z</time>
      </trkpt>
      <trkpt lat="44.78726" lon="-0.30552">
        <ele>121.5</ele>
        <time>2011-05-08T08:34:27Z</time>
      </trkpt>
      <trkpt lat="44.78725" lon="-0.30543">
        <ele>121.30000305176</ele>
        <time>2011-05-08T08:34:28Z</time>
      </trkpt>
      <trkpt lat="44.78726" lon="-0.30535">
        <ele>121.59999847412</ele>
        <time>2011-05-08T08:34:29Z</time>
      </trkpt>
      <trkpt lat="44.78726" lon="-0.30528">
        <ele>120.80000305176</ele>
        <time>2011-05-08T08:34:30Z</time>
      </trkpt>
      <trkpt lat="44.78727" lon="-0.3052">
        <ele>120.40000152588</ele>
        <time>2011-05-08T08:34:31Z</time>
      </trkpt>
      <trkpt lat="44.78729" lon="-0.30513">
        <ele>120.30000305176</ele>
        <time>2011-05-08T08:34:32Z</time>
      </trkpt>
      <trkpt lat="44.78729" lon="-0.30506">
        <ele>120.5</ele>
        <time>2011-05-08T08:34:33Z</time>
      </trkpt>
      <trkpt lat="44.78728" lon="-0.30493">
        <ele>120.5</ele>
        <time>2011-05-08T08:34:35Z</time>
      </trkpt>
      <trkpt lat="44.78728" lon="-0.30482">
        <ele>121.30000305176</ele>
        <time>2011-05-08T08:34:37Z</time>
      </trkpt>
      <trkpt lat="44.78729" lon="-0.30475">
        <ele>120.69999694824</ele>
        <time>2011-05-08T08:34:38Z</time>
      </trkpt>
      <trkpt lat="44.78728" lon="-0.30463">
        <ele>121</ele>
        <time>2011-05-08T08:34:40Z</time>
      </trkpt>
      <trkpt lat="44.78727" lon="-0.30452">
        <ele>121.30000305176</ele>
        <time>2011-05-08T08:34:42Z</time>
      </trkpt>
      <trkpt lat="44.78725" lon="-0.30434">
        <ele>121.5</ele>
        <time>2011-05-08T08:34:45Z</time>
      </trkpt>
      <trkpt lat="44.78726" lon="-0.30427">
        <ele>121.59999847412</ele>
        <time>2011-05-08T08:34:46Z</time>
      </trkpt>
      <trkpt lat="44.78725" lon="-0.30419">
        <ele>122</ele>
        <time>2011-05-08T08:34:47Z</time>
      </trkpt>
      <trkpt lat="44.78725" lon="-0.3041">
        <ele>121.90000152588</ele>
        <time>2011-05-08T08:34:48Z</time>
      </trkpt>
      <trkpt lat="44.78725" lon="-0.30402">
        <ele>121.69999694824</ele>
        <time>2011-05-08T08:34:49Z</time>
      </trkpt>
      <trkpt lat="44.78725" lon="-0.30396">
        <ele>121.69999694824</ele>
        <time>2011-05-08T08:34:50Z</time>
      </trkpt>
      <trkpt lat="44.78725" lon="-0.30389">
        <ele>121.59999847412</ele>
        <time>2011-05-08T08:34:51Z</time>
      </trkpt>
      <trkpt lat="44.78725" lon="-0.30382">
        <ele>121.09999847412</ele>
        <time>2011-05-08T08:34:52Z</time>
      </trkpt>
      <trkpt lat="44.78726" lon="-0.30374">
        <ele>121.19999694824</ele>
        <time>2011-05-08T08:34:53Z</time>
      </trkpt>
      <trkpt lat="44.78726" lon="-0.30367">
        <ele>121.19999694824</ele>
        <time>2011-05-08T08:34:54Z</time>
      </trkpt>
      <trkpt lat="44.78726" lon="-0.30355">
        <ele>121.59999847412</ele>
        <time>2011-05-08T08:34:56Z</time>
      </trkpt>
      <trkpt lat="44.78728" lon="-0.30348">
        <ele>122.19999694824</ele>
        <time>2011-05-08T08:34:58Z</time>
      </trkpt>
      <trkpt lat="44.78727" lon="-0.3034">
        <ele>122.09999847412</ele>
        <time>2011-05-08T08:35:00Z</time>
      </trkpt>
      <trkpt lat="44.78728" lon="-0.30333">
        <ele>121.5</ele>
        <time>2011-05-08T08:35:02Z</time>
      </trkpt>
      <trkpt lat="44.78725" lon="-0.30325">
        <ele>121.90000152588</ele>
        <time>2011-05-08T08:35:04Z</time>
      </trkpt>
      <trkpt lat="44.78726" lon="-0.30315">
        <ele>121.90000152588</ele>
        <time>2011-05-08T08:35:07Z</time>
      </trkpt>
      <trkpt lat="44.78724" lon="-0.30307">
        <ele>123.69999694824</ele>
        <time>2011-05-08T08:35:09Z</time>
      </trkpt>
      <trkpt lat="44.78722" lon="-0.30301">
        <ele>123.59999847412</ele>
        <time>2011-05-08T08:35:11Z</time>
      </trkpt>
      <trkpt lat="44.7872" lon="-0.30294">
        <ele>123.5</ele>
        <time>2011-05-08T08:35:13Z</time>
      </trkpt>
      <trkpt lat="44.78715" lon="-0.30289">
        <ele>123.40000152588</ele>
        <time>2011-05-08T08:35:15Z</time>
      </trkpt>
      <trkpt lat="44.78712" lon="-0.30283">
        <ele>123.59999847412</ele>
        <time>2011-05-08T08:35:17Z</time>
      </trkpt>
      <trkpt lat="44.7871" lon="-0.30276">
        <ele>124.40000152588</ele>
        <time>2011-05-08T08:35:19Z</time>
      </trkpt>
      <trkpt lat="44.78708" lon="-0.30266">
        <ele>125.30000305176</ele>
        <time>2011-05-08T08:35:21Z</time>
      </trkpt>
      <trkpt lat="44.78706" lon="-0.30256">
        <ele>124.59999847412</ele>
        <time>2011-05-08T08:35:23Z</time>
      </trkpt>
      <trkpt lat="44.78708" lon="-0.30244">
        <ele>124.40000152588</ele>
        <time>2011-05-08T08:35:25Z</time>
      </trkpt>
      <trkpt lat="44.78707" lon="-0.30237">
        <ele>124.09999847412</ele>
        <time>2011-05-08T08:35:27Z</time>
      </trkpt>
      <trkpt lat="44.78707" lon="-0.30226">
        <ele>124.40000152588</ele>
        <time>2011-05-08T08:35:29Z</time>
      </trkpt>
      <trkpt lat="44.78706" lon="-0.30213">
        <ele>123.90000152588</ele>
        <time>2011-05-08T08:35:31Z</time>
      </trkpt>
      <trkpt lat="44.78706" lon="-0.30202">
        <ele>122.80000305176</ele>
        <time>2011-05-08T08:35:33Z</time>
      </trkpt>
      <trkpt lat="44.78705" lon="-0.30195">
        <ele>122.30000305176</ele>
        <time>2011-05-08T08:35:34Z</time>
      </trkpt>
      <trkpt lat="44.78705" lon="-0.30184">
        <ele>123.30000305176</ele>
        <time>2011-05-08T08:35:36Z</time>
      </trkpt>
      <trkpt lat="44.78704" lon="-0.30176">
        <ele>124.40000152588</ele>
        <time>2011-05-08T08:35:38Z</time>
      </trkpt>
      <trkpt lat="44.78703" lon="-0.30169">
        <ele>125.59999847412</ele>
        <time>2011-05-08T08:35:40Z</time>
      </trkpt>
      <trkpt lat="44.78704" lon="-0.30162">
        <ele>126.40000152588</ele>
        <time>2011-05-08T08:35:42Z</time>
      </trkpt>
      <trkpt lat="44.78708" lon="-0.30156">
        <ele>127</ele>
        <time>2011-05-08T08:35:45Z</time>
      </trkpt>
      <trkpt lat="44.7871" lon="-0.30151">
        <ele>126.59999847412</ele>
        <time>2011-05-08T08:35:48Z</time>
      </trkpt>
      <trkpt lat="44.78708" lon="-0.30142">
        <ele>127.19999694824</ele>
        <time>2011-05-08T08:35:55Z</time>
      </trkpt>
      <trkpt lat="44.78709" lon="-0.30135">
        <ele>127.19999694824</ele>
        <time>2011-05-08T08:35:57Z</time>
      </trkpt>
      <trkpt lat="44.78709" lon="-0.30126">
        <ele>126.59999847412</ele>
        <time>2011-05-08T08:36:00Z</time>
      </trkpt>
      <trkpt lat="44.78709" lon="-0.30119">
        <ele>127.59999847412</ele>
        <time>2011-05-08T08:36:03Z</time>
      </trkpt>
      <trkpt lat="44.78707" lon="-0.30111">
        <ele>127.30000305176</ele>
        <time>2011-05-08T08:36:07Z</time>
      </trkpt>
      <trkpt lat="44.78705" lon="-0.30104">
        <ele>127.5</ele>
        <time>2011-05-08T08:36:10Z</time>
      </trkpt>
      <trkpt lat="44.78706" lon="-0.30096">
        <ele>128.30000305176</ele>
        <time>2011-05-08T08:36:12Z</time>
      </trkpt>
      <trkpt lat="44.78705" lon="-0.30088">
        <ele>126.80000305176</ele>
        <time>2011-05-08T08:36:15Z</time>
      </trkpt>
      <trkpt lat="44.78704" lon="-0.30081">
        <ele>127.5</ele>
        <time>2011-05-08T08:36:17Z</time>
      </trkpt>
      <trkpt lat="44.78702" lon="-0.30073">
        <ele>128</ele>
        <time>2011-05-08T08:36:20Z</time>
      </trkpt>
      <trkpt lat="44.78701" lon="-0.30066">
        <ele>129.30000305176</ele>
        <time>2011-05-08T08:36:23Z</time>
      </trkpt>
      <trkpt lat="44.787" lon="-0.30057">
        <ele>129</ele>
        <time>2011-05-08T08:36:26Z</time>
      </trkpt>
      <trkpt lat="44.787" lon="-0.30046">
        <ele>130.10000610352</ele>
        <time>2011-05-08T08:36:28Z</time>
      </trkpt>
      <trkpt lat="44.787" lon="-0.30038">
        <ele>130.89999389648</ele>
        <time>2011-05-08T08:36:30Z</time>
      </trkpt>
      <trkpt lat="44.78703" lon="-0.30029">
        <ele>131.5</ele>
        <time>2011-05-08T08:36:33Z</time>
      </trkpt>
      <trkpt lat="44.78704" lon="-0.3002">
        <ele>131.10000610352</ele>
        <time>2011-05-08T08:36:35Z</time>
      </trkpt>
      <trkpt lat="44.78706" lon="-0.30014">
        <ele>130.10000610352</ele>
        <time>2011-05-08T08:36:37Z</time>
      </trkpt>
      <trkpt lat="44.78707" lon="-0.30006">
        <ele>129.39999389648</ele>
        <time>2011-05-08T08:36:39Z</time>
      </trkpt>
      <trkpt lat="44.78706" lon="-0.29996">
        <ele>129.19999694824</ele>
        <time>2011-05-08T08:36:42Z</time>
      </trkpt>
      <trkpt lat="44.78704" lon="-0.29987">
        <ele>128.60000610352</ele>
        <time>2011-05-08T08:36:44Z</time>
      </trkpt>
      <trkpt lat="44.78703" lon="-0.29978">
        <ele>128.80000305176</ele>
        <time>2011-05-08T08:36:47Z</time>
      </trkpt>
      <trkpt lat="44.78701" lon="-0.29971">
        <ele>130.10000610352</ele>
        <time>2011-05-08T08:36:49Z</time>
      </trkpt>
      <trkpt lat="44.78703" lon="-0.29962">
        <ele>130.89999389648</ele>
        <time>2011-05-08T08:36:51Z</time>
      </trkpt>
      <trkpt lat="44.78703" lon="-0.29955">
        <ele>131.39999389648</ele>
        <time>2011-05-08T08:36:53Z</time>
      </trkpt>
      <trkpt lat="44.78701" lon="-0.29945">
        <ele>131.39999389648</ele>
        <time>2011-05-08T08:36:55Z</time>
      </trkpt>
      <trkpt lat="44.78701" lon="-0.29938">
        <ele>132.19999694824</ele>
        <time>2011-05-08T08:36:57Z</time>
      </trkpt>
      <trkpt lat="44.78701" lon="-0.29929">
        <ele>132.69999694824</ele>
        <time>2011-05-08T08:36:59Z</time>
      </trkpt>
      <trkpt lat="44.78701" lon="-0.29922">
        <ele>133.19999694824</ele>
        <time>2011-05-08T08:37:01Z</time>
      </trkpt>
      <trkpt lat="44.78701" lon="-0.29915">
        <ele>132.10000610352</ele>
        <time>2011-05-08T08:37:02Z</time>
      </trkpt>
      <trkpt lat="44.78701" lon="-0.29905">
        <ele>132.10000610352</ele>
        <time>2011-05-08T08:37:04Z</time>
      </trkpt>
      <trkpt lat="44.78701" lon="-0.29894">
        <ele>132.19999694824</ele>
        <time>2011-05-08T08:37:06Z</time>
      </trkpt>
      <trkpt lat="44.78701" lon="-0.29886">
        <ele>132.10000610352</ele>
        <time>2011-05-08T08:37:08Z</time>
      </trkpt>
      <trkpt lat="44.78701" lon="-0.29875">
        <ele>131.89999389648</ele>
        <time>2011-05-08T08:37:10Z</time>
      </trkpt>
      <trkpt lat="44.787" lon="-0.29868">
        <ele>131.89999389648</ele>
        <time>2011-05-08T08:37:12Z</time>
      </trkpt>
      <trkpt lat="44.78698" lon="-0.29858">
        <ele>132.69999694824</ele>
        <time>2011-05-08T08:37:14Z</time>
      </trkpt>
      <trkpt lat="44.78696" lon="-0.29847">
        <ele>132.39999389648</ele>
        <time>2011-05-08T08:37:16Z</time>
      </trkpt>
      <trkpt lat="44.78693" lon="-0.29839">
        <ele>132.5</ele>
        <time>2011-05-08T08:37:18Z</time>
      </trkpt>
      <trkpt lat="44.78692" lon="-0.29828">
        <ele>132.19999694824</ele>
        <time>2011-05-08T08:37:20Z</time>
      </trkpt>
      <trkpt lat="44.78691" lon="-0.29818">
        <ele>131.39999389648</ele>
        <time>2011-05-08T08:37:22Z</time>
      </trkpt>
      <trkpt lat="44.78689" lon="-0.29809">
        <ele>132.19999694824</ele>
        <time>2011-05-08T08:37:24Z</time>
      </trkpt>
      <trkpt lat="44.78689" lon="-0.29798">
        <ele>132.10000610352</ele>
        <time>2011-05-08T08:37:26Z</time>
      </trkpt>
      <trkpt lat="44.78689" lon="-0.29791">
        <ele>132.60000610352</ele>
        <time>2011-05-08T08:37:27Z</time>
      </trkpt>
      <trkpt lat="44.78688" lon="-0.2978">
        <ele>133.89999389648</ele>
        <time>2011-05-08T08:37:29Z</time>
      </trkpt>
      <trkpt lat="44.78687" lon="-0.29769">
        <ele>133.89999389648</ele>
        <time>2011-05-08T08:37:31Z</time>
      </trkpt>
      <trkpt lat="44.78686" lon="-0.29759">
        <ele>134.89999389648</ele>
        <time>2011-05-08T08:37:33Z</time>
      </trkpt>
      <trkpt lat="44.78687" lon="-0.29752">
        <ele>133.89999389648</ele>
        <time>2011-05-08T08:37:35Z</time>
      </trkpt>
      <trkpt lat="44.78684" lon="-0.29744">
        <ele>133.60000610352</ele>
        <time>2011-05-08T08:37:37Z</time>
      </trkpt>
      <trkpt lat="44.78682" lon="-0.29738">
        <ele>132.89999389648</ele>
        <time>2011-05-08T08:37:39Z</time>
      </trkpt>
      <trkpt lat="44.78678" lon="-0.2973">
        <ele>134.19999694824</ele>
        <time>2011-05-08T08:37:42Z</time>
      </trkpt>
      <trkpt lat="44.78674" lon="-0.29723">
        <ele>133.69999694824</ele>
        <time>2011-05-08T08:37:45Z</time>
      </trkpt>
      <trkpt lat="44.7867" lon="-0.29716">
        <ele>133.69999694824</ele>
        <time>2011-05-08T08:37:47Z</time>
      </trkpt>
      <trkpt lat="44.78667" lon="-0.2971">
        <ele>133.89999389648</ele>
        <time>2011-05-08T08:37:48Z</time>
      </trkpt>
      <trkpt lat="44.78662" lon="-0.29704">
        <ele>135.19999694824</ele>
        <time>2011-05-08T08:37:50Z</time>
      </trkpt>
      <trkpt lat="44.78659" lon="-0.29698">
        <ele>134.30000305176</ele>
        <time>2011-05-08T08:37:51Z</time>
      </trkpt>
      <trkpt lat="44.78657" lon="-0.29691">
        <ele>133.89999389648</ele>
        <time>2011-05-08T08:37:52Z</time>
      </trkpt>
      <trkpt lat="44.78654" lon="-0.29683">
        <ele>133.5</ele>
        <time>2011-05-08T08:37:53Z</time>
      </trkpt>
      <trkpt lat="44.78649" lon="-0.29677">
        <ele>133.60000610352</ele>
        <time>2011-05-08T08:37:54Z</time>
      </trkpt>
      <trkpt lat="44.78645" lon="-0.29672">
        <ele>134.5</ele>
        <time>2011-05-08T08:37:55Z</time>
      </trkpt>
      <trkpt lat="44.78641" lon="-0.29668">
        <ele>134.10000610352</ele>
        <time>2011-05-08T08:37:56Z</time>
      </trkpt>
      <trkpt lat="44.78637" lon="-0.29662">
        <ele>134.19999694824</ele>
        <time>2011-05-08T08:37:57Z</time>
      </trkpt>
      <trkpt lat="44.78633" lon="-0.29657">
        <ele>133.80000305176</ele>
        <time>2011-05-08T08:37:58Z</time>
      </trkpt>
      <trkpt lat="44.78629" lon="-0.29649">
        <ele>134.10000610352</ele>
        <time>2011-05-08T08:37:59Z</time>
      </trkpt>
      <trkpt lat="44.78625" lon="-0.29644">
        <ele>134.69999694824</ele>
        <time>2011-05-08T08:38:00Z</time>
      </trkpt>
      <trkpt lat="44.7862" lon="-0.29638">
        <ele>134.30000305176</ele>
        <time>2011-05-08T08:38:01Z</time>
      </trkpt>
      <trkpt lat="44.78615" lon="-0.29632">
        <ele>134.30000305176</ele>
        <time>2011-05-08T08:38:02Z</time>
      </trkpt>
      <trkpt lat="44.78611" lon="-0.29626">
        <ele>133.80000305176</ele>
        <time>2011-05-08T08:38:03Z</time>
      </trkpt>
      <trkpt lat="44.78606" lon="-0.29621">
        <ele>134</ele>
        <time>2011-05-08T08:38:04Z</time>
      </trkpt>
      <trkpt lat="44.78601" lon="-0.29616">
        <ele>134.19999694824</ele>
        <time>2011-05-08T08:38:05Z</time>
      </trkpt>
      <trkpt lat="44.78596" lon="-0.29611">
        <ele>134.60000610352</ele>
        <time>2011-05-08T08:38:06Z</time>
      </trkpt>
      <trkpt lat="44.7859" lon="-0.29604">
        <ele>134.19999694824</ele>
        <time>2011-05-08T08:38:07Z</time>
      </trkpt>
      <trkpt lat="44.78585" lon="-0.29597">
        <ele>133.60000610352</ele>
        <time>2011-05-08T08:38:08Z</time>
      </trkpt>
      <trkpt lat="44.78581" lon="-0.2959">
        <ele>133.60000610352</ele>
        <time>2011-05-08T08:38:09Z</time>
      </trkpt>
      <trkpt lat="44.78576" lon="-0.29582">
        <ele>134.5</ele>
        <time>2011-05-08T08:38:10Z</time>
      </trkpt>
      <trkpt lat="44.7857" lon="-0.29575">
        <ele>134.30000305176</ele>
        <time>2011-05-08T08:38:11Z</time>
      </trkpt>
      <trkpt lat="44.78566" lon="-0.29568">
        <ele>133.69999694824</ele>
        <time>2011-05-08T08:38:12Z</time>
      </trkpt>
      <trkpt lat="44.78561" lon="-0.29562">
        <ele>133.30000305176</ele>
        <time>2011-05-08T08:38:13Z</time>
      </trkpt>
      <trkpt lat="44.78557" lon="-0.29554">
        <ele>133.5</ele>
        <time>2011-05-08T08:38:14Z</time>
      </trkpt>
      <trkpt lat="44.78554" lon="-0.29548">
        <ele>133.39999389648</ele>
        <time>2011-05-08T08:38:15Z</time>
      </trkpt>
      <trkpt lat="44.78552" lon="-0.2954">
        <ele>133.69999694824</ele>
        <time>2011-05-08T08:38:16Z</time>
      </trkpt>
      <trkpt lat="44.78549" lon="-0.29531">
        <ele>133.10000610352</ele>
        <time>2011-05-08T08:38:17Z</time>
      </trkpt>
      <trkpt lat="44.78545" lon="-0.29521">
        <ele>132.5</ele>
        <time>2011-05-08T08:38:18Z</time>
      </trkpt>
      <trkpt lat="44.78542" lon="-0.29517">
        <ele>132.30000305176</ele>
        <time>2011-05-08T08:38:19Z</time>
      </trkpt>
      <trkpt lat="44.78538" lon="-0.2951">
        <ele>132.39999389648</ele>
        <time>2011-05-08T08:38:20Z</time>
      </trkpt>
      <trkpt lat="44.78536" lon="-0.29503">
        <ele>132</ele>
        <time>2011-05-08T08:38:21Z</time>
      </trkpt>
      <trkpt lat="44.78531" lon="-0.29495">
        <ele>131.80000305176</ele>
        <time>2011-05-08T08:38:22Z</time>
      </trkpt>
      <trkpt lat="44.78526" lon="-0.29488">
        <ele>131.30000305176</ele>
        <time>2011-05-08T08:38:23Z</time>
      </trkpt>
      <trkpt lat="44.78521" lon="-0.29481">
        <ele>131</ele>
        <time>2011-05-08T08:38:24Z</time>
      </trkpt>
      <trkpt lat="44.78518" lon="-0.29472">
        <ele>131.10000610352</ele>
        <time>2011-05-08T08:38:25Z</time>
      </trkpt>
      <trkpt lat="44.78513" lon="-0.29464">
        <ele>130.89999389648</ele>
        <time>2011-05-08T08:38:26Z</time>
      </trkpt>
      <trkpt lat="44.7851" lon="-0.29459">
        <ele>131</ele>
        <time>2011-05-08T08:38:27Z</time>
      </trkpt>
      <trkpt lat="44.78505" lon="-0.29454">
        <ele>131</ele>
        <time>2011-05-08T08:38:28Z</time>
      </trkpt>
      <trkpt lat="44.785" lon="-0.29446">
        <ele>130.80000305176</ele>
        <time>2011-05-08T08:38:29Z</time>
      </trkpt>
      <trkpt lat="44.78496" lon="-0.29437">
        <ele>130.69999694824</ele>
        <time>2011-05-08T08:38:30Z</time>
      </trkpt>
      <trkpt lat="44.78492" lon="-0.2943">
        <ele>130.89999389648</ele>
        <time>2011-05-08T08:38:31Z</time>
      </trkpt>
      <trkpt lat="44.78488" lon="-0.29422">
        <ele>131.30000305176</ele>
        <time>2011-05-08T08:38:32Z</time>
      </trkpt>
      <trkpt lat="44.78485" lon="-0.29413">
        <ele>131.60000610352</ele>
        <time>2011-05-08T08:38:33Z</time>
      </trkpt>
      <trkpt lat="44.78482" lon="-0.29407">
        <ele>131.39999389648</ele>
        <time>2011-05-08T08:38:34Z</time>
      </trkpt>
      <trkpt lat="44.78478" lon="-0.29399">
        <ele>130.60000610352</ele>
        <time>2011-05-08T08:38:35Z</time>
      </trkpt>
      <trkpt lat="44.78474" lon="-0.29392">
        <ele>129.69999694824</ele>
        <time>2011-05-08T08:38:36Z</time>
      </trkpt>
      <trkpt lat="44.7847" lon="-0.29386">
        <ele>129.10000610352</ele>
        <time>2011-05-08T08:38:37Z</time>
      </trkpt>
      <trkpt lat="44.78466" lon="-0.29381">
        <ele>129.19999694824</ele>
        <time>2011-05-08T08:38:38Z</time>
      </trkpt>
      <trkpt lat="44.78463" lon="-0.29375">
        <ele>129.19999694824</ele>
        <time>2011-05-08T08:38:39Z</time>
      </trkpt>
      <trkpt lat="44.78463" lon="-0.29363">
        <ele>129</ele>
        <time>2011-05-08T08:38:41Z</time>
      </trkpt>
      <trkpt lat="44.78462" lon="-0.29353">
        <ele>128.69999694824</ele>
        <time>2011-05-08T08:38:44Z</time>
      </trkpt>
      <trkpt lat="44.78458" lon="-0.29344">
        <ele>128.69999694824</ele>
        <time>2011-05-08T08:38:46Z</time>
      </trkpt>
      <trkpt lat="44.78459" lon="-0.29336">
        <ele>128</ele>
        <time>2011-05-08T08:38:48Z</time>
      </trkpt>
      <trkpt lat="44.78459" lon="-0.29328">
        <ele>127.30000305176</ele>
        <time>2011-05-08T08:38:50Z</time>
      </trkpt>
      <trkpt lat="44.78462" lon="-0.29319">
        <ele>126.40000152588</ele>
        <time>2011-05-08T08:38:52Z</time>
      </trkpt>
      <trkpt lat="44.78464" lon="-0.29311">
        <ele>126.5</ele>
        <time>2011-05-08T08:38:54Z</time>
      </trkpt>
      <trkpt lat="44.78464" lon="-0.29304">
        <ele>125.59999847412</ele>
        <time>2011-05-08T08:38:55Z</time>
      </trkpt>
      <trkpt lat="44.78467" lon="-0.29295">
        <ele>125.19999694824</ele>
        <time>2011-05-08T08:38:57Z</time>
      </trkpt>
      <trkpt lat="44.78471" lon="-0.2929">
        <ele>125.19999694824</ele>
        <time>2011-05-08T08:38:58Z</time>
      </trkpt>
      <trkpt lat="44.78475" lon="-0.29282">
        <ele>125</ele>
        <time>2011-05-08T08:39:00Z</time>
      </trkpt>
      <trkpt lat="44.7848" lon="-0.29273">
        <ele>124.30000305176</ele>
        <time>2011-05-08T08:39:02Z</time>
      </trkpt>
      <trkpt lat="44.78485" lon="-0.29263">
        <ele>123.90000152588</ele>
        <time>2011-05-08T08:39:04Z</time>
      </trkpt>
      <trkpt lat="44.78489" lon="-0.29257">
        <ele>123.80000305176</ele>
        <time>2011-05-08T08:39:05Z</time>
      </trkpt>
      <trkpt lat="44.78492" lon="-0.29251">
        <ele>124.80000305176</ele>
        <time>2011-05-08T08:39:06Z</time>
      </trkpt>
      <trkpt lat="44.78495" lon="-0.29245">
        <ele>124.80000305176</ele>
        <time>2011-05-08T08:39:07Z</time>
      </trkpt>
      <trkpt lat="44.785" lon="-0.29237">
        <ele>125</ele>
        <time>2011-05-08T08:39:09Z</time>
      </trkpt>
      <trkpt lat="44.78504" lon="-0.29234">
        <ele>124.5</ele>
        <time>2011-05-08T08:39:10Z</time>
      </trkpt>
      <trkpt lat="44.78508" lon="-0.29229">
        <ele>125.19999694824</ele>
        <time>2011-05-08T08:39:11Z</time>
      </trkpt>
      <trkpt lat="44.78514" lon="-0.29222">
        <ele>125.09999847412</ele>
        <time>2011-05-08T08:39:13Z</time>
      </trkpt>
      <trkpt lat="44.78521" lon="-0.29215">
        <ele>124.5</ele>
        <time>2011-05-08T08:39:15Z</time>
      </trkpt>
      <trkpt lat="44.78527" lon="-0.29208">
        <ele>124.80000305176</ele>
        <time>2011-05-08T08:39:17Z</time>
      </trkpt>
      <trkpt lat="44.78533" lon="-0.292">
        <ele>125.5</ele>
        <time>2011-05-08T08:39:19Z</time>
      </trkpt>
      <trkpt lat="44.78539" lon="-0.29193">
        <ele>126.30000305176</ele>
        <time>2011-05-08T08:39:21Z</time>
      </trkpt>
      <trkpt lat="44.78544" lon="-0.29185">
        <ele>126.5</ele>
        <time>2011-05-08T08:39:23Z</time>
      </trkpt>
      <trkpt lat="44.78549" lon="-0.29176">
        <ele>126.59999847412</ele>
        <time>2011-05-08T08:39:25Z</time>
      </trkpt>
      <trkpt lat="44.78553" lon="-0.29171">
        <ele>126.80000305176</ele>
        <time>2011-05-08T08:39:26Z</time>
      </trkpt>
      <trkpt lat="44.78558" lon="-0.29168">
        <ele>126.69999694824</ele>
        <time>2011-05-08T08:39:27Z</time>
      </trkpt>
      <trkpt lat="44.78562" lon="-0.29164">
        <ele>127</ele>
        <time>2011-05-08T08:39:28Z</time>
      </trkpt>
      <trkpt lat="44.78567" lon="-0.2916">
        <ele>126.80000305176</ele>
        <time>2011-05-08T08:39:29Z</time>
      </trkpt>
      <trkpt lat="44.78572" lon="-0.29157">
        <ele>126.80000305176</ele>
        <time>2011-05-08T08:39:30Z</time>
      </trkpt>
      <trkpt lat="44.78576" lon="-0.29152">
        <ele>126.90000152588</ele>
        <time>2011-05-08T08:39:31Z</time>
      </trkpt>
      <trkpt lat="44.7858" lon="-0.29148">
        <ele>126.80000305176</ele>
        <time>2011-05-08T08:39:32Z</time>
      </trkpt>
      <trkpt lat="44.78584" lon="-0.29145">
        <ele>126.69999694824</ele>
        <time>2011-05-08T08:39:33Z</time>
      </trkpt>
      <trkpt lat="44.78588" lon="-0.2914">
        <ele>126.80000305176</ele>
        <time>2011-05-08T08:39:34Z</time>
      </trkpt>
      <trkpt lat="44.78592" lon="-0.29135">
        <ele>127.19999694824</ele>
        <time>2011-05-08T08:39:35Z</time>
      </trkpt>
      <trkpt lat="44.78597" lon="-0.2913">
        <ele>127.59999847412</ele>
        <time>2011-05-08T08:39:36Z</time>
      </trkpt>
      <trkpt lat="44.78602" lon="-0.29124">
        <ele>127.40000152588</ele>
        <time>2011-05-08T08:39:37Z</time>
      </trkpt>
      <trkpt lat="44.78606" lon="-0.29119">
        <ele>127.30000305176</ele>
        <time>2011-05-08T08:39:38Z</time>
      </trkpt>
      <trkpt lat="44.78611" lon="-0.29114">
        <ele>127.09999847412</ele>
        <time>2011-05-08T08:39:39Z</time>
      </trkpt>
      <trkpt lat="44.78616" lon="-0.2911">
        <ele>127.09999847412</ele>
        <time>2011-05-08T08:39:40Z</time>
      </trkpt>
      <trkpt lat="44.78621" lon="-0.29106">
        <ele>126.59999847412</ele>
        <time>2011-05-08T08:39:41Z</time>
      </trkpt>
      <trkpt lat="44.78626" lon="-0.29102">
        <ele>126.30000305176</ele>
        <time>2011-05-08T08:39:42Z</time>
      </trkpt>
      <trkpt lat="44.78636" lon="-0.29094">
        <ele>127.19999694824</ele>
        <time>2011-05-08T08:39:44Z</time>
      </trkpt>
      <trkpt lat="44.78643" lon="-0.29089">
        <ele>127.40000152588</ele>
        <time>2011-05-08T08:39:45Z</time>
      </trkpt>
      <trkpt lat="44.78648" lon="-0.29085">
        <ele>127.19999694824</ele>
        <time>2011-05-08T08:39:46Z</time>
      </trkpt>
      <trkpt lat="44.78652" lon="-0.2908">
        <ele>127.30000305176</ele>
        <time>2011-05-08T08:39:47Z</time>
      </trkpt>
      <trkpt lat="44.78658" lon="-0.29076">
        <ele>127.40000152588</ele>
        <time>2011-05-08T08:39:48Z</time>
      </trkpt>
      <trkpt lat="44.78664" lon="-0.29071">
        <ele>126.5</ele>
        <time>2011-05-08T08:39:49Z</time>
      </trkpt>
      <trkpt lat="44.7867" lon="-0.29067">
        <ele>125.69999694824</ele>
        <time>2011-05-08T08:39:50Z</time>
      </trkpt>
      <trkpt lat="44.78676" lon="-0.29061">
        <ele>125.90000152588</ele>
        <time>2011-05-08T08:39:51Z</time>
      </trkpt>
      <trkpt lat="44.78681" lon="-0.29058">
        <ele>125.80000305176</ele>
        <time>2011-05-08T08:39:52Z</time>
      </trkpt>
      <trkpt lat="44.78687" lon="-0.29054">
        <ele>125.80000305176</ele>
        <time>2011-05-08T08:39:53Z</time>
      </trkpt>
      <trkpt lat="44.78693" lon="-0.2905">
        <ele>125.90000152588</ele>
        <time>2011-05-08T08:39:54Z</time>
      </trkpt>
      <trkpt lat="44.78699" lon="-0.29045">
        <ele>126.09999847412</ele>
        <time>2011-05-08T08:39:55Z</time>
      </trkpt>
      <trkpt lat="44.78703" lon="-0.29041">
        <ele>125.59999847412</ele>
        <time>2011-05-08T08:39:56Z</time>
      </trkpt>
      <trkpt lat="44.78707" lon="-0.29036">
        <ele>125.59999847412</ele>
        <time>2011-05-08T08:39:57Z</time>
      </trkpt>
      <trkpt lat="44.78711" lon="-0.29031">
        <ele>125.30000305176</ele>
        <time>2011-05-08T08:39:58Z</time>
      </trkpt>
      <trkpt lat="44.78716" lon="-0.29028">
        <ele>125.09999847412</ele>
        <time>2011-05-08T08:39:59Z</time>
      </trkpt>
      <trkpt lat="44.78721" lon="-0.29024">
        <ele>125.09999847412</ele>
        <time>2011-05-08T08:40:00Z</time>
      </trkpt>
      <trkpt lat="44.78725" lon="-0.2902">
        <ele>124.5</ele>
        <time>2011-05-08T08:40:01Z</time>
      </trkpt>
      <trkpt lat="44.7873" lon="-0.29016">
        <ele>124.59999847412</ele>
        <time>2011-05-08T08:40:02Z</time>
      </trkpt>
      <trkpt lat="44.78735" lon="-0.29011">
        <ele>125.19999694824</ele>
        <time>2011-05-08T08:40:03Z</time>
      </trkpt>
      <trkpt lat="44.7874" lon="-0.29007">
        <ele>125.09999847412</ele>
        <time>2011-05-08T08:40:04Z</time>
      </trkpt>
      <trkpt lat="44.78745" lon="-0.29004">
        <ele>124.69999694824</ele>
        <time>2011-05-08T08:40:05Z</time>
      </trkpt>
      <trkpt lat="44.7875" lon="-0.29">
        <ele>124</ele>
        <time>2011-05-08T08:40:06Z</time>
      </trkpt>
      <trkpt lat="44.78758" lon="-0.28989">
        <ele>123.09999847412</ele>
        <time>2011-05-08T08:40:08Z</time>
      </trkpt>
      <trkpt lat="44.78762" lon="-0.28982">
        <ele>122.5</ele>
        <time>2011-05-08T08:40:09Z</time>
      </trkpt>
      <trkpt lat="44.78768" lon="-0.28976">
        <ele>122</ele>
        <time>2011-05-08T08:40:10Z</time>
      </trkpt>
      <trkpt lat="44.78772" lon="-0.28969">
        <ele>121.40000152588</ele>
        <time>2011-05-08T08:40:11Z</time>
      </trkpt>
      <trkpt lat="44.78777" lon="-0.28963">
        <ele>121.59999847412</ele>
        <time>2011-05-08T08:40:12Z</time>
      </trkpt>
      <trkpt lat="44.78782" lon="-0.28956">
        <ele>121.59999847412</ele>
        <time>2011-05-08T08:40:13Z</time>
      </trkpt>
      <trkpt lat="44.78787" lon="-0.28951">
        <ele>121.80000305176</ele>
        <time>2011-05-08T08:40:14Z</time>
      </trkpt>
      <trkpt lat="44.78791" lon="-0.28945">
        <ele>121.59999847412</ele>
        <time>2011-05-08T08:40:15Z</time>
      </trkpt>
      <trkpt lat="44.78796" lon="-0.28938">
        <ele>122.09999847412</ele>
        <time>2011-05-08T08:40:16Z</time>
      </trkpt>
      <trkpt lat="44.78801" lon="-0.28932">
        <ele>122.19999694824</ele>
        <time>2011-05-08T08:40:17Z</time>
      </trkpt>
      <trkpt lat="44.78806" lon="-0.28925">
        <ele>121.90000152588</ele>
        <time>2011-05-08T08:40:18Z</time>
      </trkpt>
      <trkpt lat="44.7881" lon="-0.28918">
        <ele>121.19999694824</ele>
        <time>2011-05-08T08:40:19Z</time>
      </trkpt>
      <trkpt lat="44.78814" lon="-0.28909">
        <ele>120.90000152588</ele>
        <time>2011-05-08T08:40:20Z</time>
      </trkpt>
      <trkpt lat="44.78819" lon="-0.28902">
        <ele>121.30000305176</ele>
        <time>2011-05-08T08:40:21Z</time>
      </trkpt>
      <trkpt lat="44.78825" lon="-0.28895">
        <ele>121.09999847412</ele>
        <time>2011-05-08T08:40:22Z</time>
      </trkpt>
      <trkpt lat="44.7883" lon="-0.28889">
        <ele>120.90000152588</ele>
        <time>2011-05-08T08:40:23Z</time>
      </trkpt>
      <trkpt lat="44.78837" lon="-0.28885">
        <ele>120.80000305176</ele>
        <time>2011-05-08T08:40:24Z</time>
      </trkpt>
      <trkpt lat="44.78843" lon="-0.2888">
        <ele>120.59999847412</ele>
        <time>2011-05-08T08:40:25Z</time>
      </trkpt>
      <trkpt lat="44.78848" lon="-0.28876">
        <ele>120.80000305176</ele>
        <time>2011-05-08T08:40:26Z</time>
      </trkpt>
      <trkpt lat="44.78853" lon="-0.28873">
        <ele>121.30000305176</ele>
        <time>2011-05-08T08:40:27Z</time>
      </trkpt>
      <trkpt lat="44.78858" lon="-0.28867">
        <ele>121.80000305176</ele>
        <time>2011-05-08T08:40:28Z</time>
      </trkpt>
      <trkpt lat="44.78864" lon="-0.28863">
        <ele>121.80000305176</ele>
        <time>2011-05-08T08:40:29Z</time>
      </trkpt>
      <trkpt lat="44.78868" lon="-0.28857">
        <ele>121.90000152588</ele>
        <time>2011-05-08T08:40:30Z</time>
      </trkpt>
      <trkpt lat="44.78873" lon="-0.28852">
        <ele>122</ele>
        <time>2011-05-08T08:40:31Z</time>
      </trkpt>
      <trkpt lat="44.78877" lon="-0.28848">
        <ele>122.09999847412</ele>
        <time>2011-05-08T08:40:32Z</time>
      </trkpt>
      <trkpt lat="44.7888" lon="-0.28841">
        <ele>121.40000152588</ele>
        <time>2011-05-08T08:40:33Z</time>
      </trkpt>
      <trkpt lat="44.78882" lon="-0.2883">
        <ele>119.80000305176</ele>
        <time>2011-05-08T08:40:35Z</time>
      </trkpt>
      <trkpt lat="44.7888" lon="-0.28824">
        <ele>119.69999694824</ele>
        <time>2011-05-08T08:40:36Z</time>
      </trkpt>
      <trkpt lat="44.78879" lon="-0.28817">
        <ele>119.40000152588</ele>
        <time>2011-05-08T08:40:37Z</time>
      </trkpt>
      <trkpt lat="44.78877" lon="-0.28811">
        <ele>119.59999847412</ele>
        <time>2011-05-08T08:40:38Z</time>
      </trkpt>
      <trkpt lat="44.78875" lon="-0.28804">
        <ele>119.90000152588</ele>
        <time>2011-05-08T08:40:39Z</time>
      </trkpt>
      <trkpt lat="44.78874" lon="-0.28795">
        <ele>120</ele>
        <time>2011-05-08T08:40:40Z</time>
      </trkpt>
      <trkpt lat="44.78872" lon="-0.28788">
        <ele>119.40000152588</ele>
        <time>2011-05-08T08:40:41Z</time>
      </trkpt>
      <trkpt lat="44.7887" lon="-0.2878">
        <ele>119.5</ele>
        <time>2011-05-08T08:40:42Z</time>
      </trkpt>
      <trkpt lat="44.78866" lon="-0.28763">
        <ele>118.40000152588</ele>
        <time>2011-05-08T08:40:44Z</time>
      </trkpt>
      <trkpt lat="44.78864" lon="-0.28755">
        <ele>117.19999694824</ele>
        <time>2011-05-08T08:40:45Z</time>
      </trkpt>
      <trkpt lat="44.78862" lon="-0.28746">
        <ele>116.80000305176</ele>
        <time>2011-05-08T08:40:46Z</time>
      </trkpt>
      <trkpt lat="44.7886" lon="-0.28738">
        <ele>116.90000152588</ele>
        <time>2011-05-08T08:40:47Z</time>
      </trkpt>
      <trkpt lat="44.78858" lon="-0.28732">
        <ele>116.90000152588</ele>
        <time>2011-05-08T08:40:48Z</time>
      </trkpt>
      <trkpt lat="44.78857" lon="-0.28726">
        <ele>116.40000152588</ele>
        <time>2011-05-08T08:40:49Z</time>
      </trkpt>
      <trkpt lat="44.78855" lon="-0.28719">
        <ele>116.5</ele>
        <time>2011-05-08T08:40:50Z</time>
      </trkpt>
      <trkpt lat="44.78854" lon="-0.28709">
        <ele>116.5</ele>
        <time>2011-05-08T08:40:52Z</time>
      </trkpt>
      <trkpt lat="44.78851" lon="-0.28695">
        <ele>115.90000152588</ele>
        <time>2011-05-08T08:40:54Z</time>
      </trkpt>
      <trkpt lat="44.7885" lon="-0.28687">
        <ele>115.5</ele>
        <time>2011-05-08T08:40:55Z</time>
      </trkpt>
      <trkpt lat="44.78849" lon="-0.28678">
        <ele>115.5</ele>
        <time>2011-05-08T08:40:56Z</time>
      </trkpt>
      <trkpt lat="44.78847" lon="-0.28669">
        <ele>115.09999847412</ele>
        <time>2011-05-08T08:40:57Z</time>
      </trkpt>
      <trkpt lat="44.78846" lon="-0.2866">
        <ele>114.40000152588</ele>
        <time>2011-05-08T08:40:58Z</time>
      </trkpt>
      <trkpt lat="44.78846" lon="-0.28652">
        <ele>112.80000305176</ele>
        <time>2011-05-08T08:40:59Z</time>
      </trkpt>
      <trkpt lat="44.78844" lon="-0.28643">
        <ele>112.5</ele>
        <time>2011-05-08T08:41:00Z</time>
      </trkpt>
      <trkpt lat="44.78842" lon="-0.28635">
        <ele>112.19999694824</ele>
        <time>2011-05-08T08:41:01Z</time>
      </trkpt>
      <trkpt lat="44.7884" lon="-0.28628">
        <ele>111.90000152588</ele>
        <time>2011-05-08T08:41:02Z</time>
      </trkpt>
      <trkpt lat="44.7884" lon="-0.28621">
        <ele>111.19999694824</ele>
        <time>2011-05-08T08:41:03Z</time>
      </trkpt>
      <trkpt lat="44.78838" lon="-0.28614">
        <ele>111.5</ele>
        <time>2011-05-08T08:41:04Z</time>
      </trkpt>
      <trkpt lat="44.78838" lon="-0.28605">
        <ele>111.30000305176</ele>
        <time>2011-05-08T08:41:05Z</time>
      </trkpt>
      <trkpt lat="44.78837" lon="-0.28599">
        <ele>111.90000152588</ele>
        <time>2011-05-08T08:41:06Z</time>
      </trkpt>
      <trkpt lat="44.78836" lon="-0.28592">
        <ele>112.69999694824</ele>
        <time>2011-05-08T08:41:07Z</time>
      </trkpt>
      <trkpt lat="44.78835" lon="-0.28585">
        <ele>112.80000305176</ele>
        <time>2011-05-08T08:41:08Z</time>
      </trkpt>
      <trkpt lat="44.78835" lon="-0.28572">
        <ele>112.59999847412</ele>
        <time>2011-05-08T08:41:10Z</time>
      </trkpt>
      <trkpt lat="44.78834" lon="-0.28561">
        <ele>111.80000305176</ele>
        <time>2011-05-08T08:41:12Z</time>
      </trkpt>
      <trkpt lat="44.78832" lon="-0.28549">
        <ele>112.19999694824</ele>
        <time>2011-05-08T08:41:14Z</time>
      </trkpt>
      <trkpt lat="44.78831" lon="-0.28538">
        <ele>111.59999847412</ele>
        <time>2011-05-08T08:41:16Z</time>
      </trkpt>
      <trkpt lat="44.7883" lon="-0.28532">
        <ele>110.90000152588</ele>
        <time>2011-05-08T08:41:17Z</time>
      </trkpt>
      <trkpt lat="44.78829" lon="-0.28525">
        <ele>110.30000305176</ele>
        <time>2011-05-08T08:41:18Z</time>
      </trkpt>
      <trkpt lat="44.78828" lon="-0.28518">
        <ele>110</ele>
        <time>2011-05-08T08:41:19Z</time>
      </trkpt>
      <trkpt lat="44.78828" lon="-0.28511">
        <ele>110</ele>
        <time>2011-05-08T08:41:20Z</time>
      </trkpt>
      <trkpt lat="44.78826" lon="-0.28503">
        <ele>109.19999694824</ele>
        <time>2011-05-08T08:41:21Z</time>
      </trkpt>
      <trkpt lat="44.78824" lon="-0.28494">
        <ele>108.90000152588</ele>
        <time>2011-05-08T08:41:22Z</time>
      </trkpt>
      <trkpt lat="44.78822" lon="-0.28485">
        <ele>109</ele>
        <time>2011-05-08T08:41:23Z</time>
      </trkpt>
      <trkpt lat="44.78821" lon="-0.28475">
        <ele>108</ele>
        <time>2011-05-08T08:41:24Z</time>
      </trkpt>
      <trkpt lat="44.78818" lon="-0.28467">
        <ele>108.19999694824</ele>
        <time>2011-05-08T08:41:25Z</time>
      </trkpt>
      <trkpt lat="44.78815" lon="-0.28457">
        <ele>107.90000152588</ele>
        <time>2011-05-08T08:41:26Z</time>
      </trkpt>
      <trkpt lat="44.78813" lon="-0.28448">
        <ele>107</ele>
        <time>2011-05-08T08:41:27Z</time>
      </trkpt>
      <trkpt lat="44.7881" lon="-0.28441">
        <ele>107</ele>
        <time>2011-05-08T08:41:28Z</time>
      </trkpt>
      <trkpt lat="44.78807" lon="-0.28433">
        <ele>107.5</ele>
        <time>2011-05-08T08:41:29Z</time>
      </trkpt>
      <trkpt lat="44.78805" lon="-0.28421">
        <ele>107.40000152588</ele>
        <time>2011-05-08T08:41:31Z</time>
      </trkpt>
      <trkpt lat="44.78812" lon="-0.28415">
        <ele>107.69999694824</ele>
        <time>2011-05-08T08:41:33Z</time>
      </trkpt>
      <trkpt lat="44.78819" lon="-0.28412">
        <ele>107.80000305176</ele>
        <time>2011-05-08T08:41:35Z</time>
      </trkpt>
      <trkpt lat="44.78825" lon="-0.28411">
        <ele>108.09999847412</ele>
        <time>2011-05-08T08:41:37Z</time>
      </trkpt>
      <trkpt lat="44.78831" lon="-0.28406">
        <ele>108.5</ele>
        <time>2011-05-08T08:41:39Z</time>
      </trkpt>
      <trkpt lat="44.78838" lon="-0.28402">
        <ele>108.40000152588</ele>
        <time>2011-05-08T08:41:41Z</time>
      </trkpt>
      <trkpt lat="44.78848" lon="-0.28393">
        <ele>108.5</ele>
        <time>2011-05-08T08:41:44Z</time>
      </trkpt>
      <trkpt lat="44.78854" lon="-0.28388">
        <ele>108.59999847412</ele>
        <time>2011-05-08T08:41:46Z</time>
      </trkpt>
      <trkpt lat="44.78859" lon="-0.2838">
        <ele>108.69999694824</ele>
        <time>2011-05-08T08:41:48Z</time>
      </trkpt>
      <trkpt lat="44.78864" lon="-0.28376">
        <ele>108.59999847412</ele>
        <time>2011-05-08T08:41:49Z</time>
      </trkpt>
      <trkpt lat="44.78869" lon="-0.28371">
        <ele>108.5</ele>
        <time>2011-05-08T08:41:51Z</time>
      </trkpt>
      <trkpt lat="44.78875" lon="-0.28363">
        <ele>107.59999847412</ele>
        <time>2011-05-08T08:41:53Z</time>
      </trkpt>
      <trkpt lat="44.78879" lon="-0.28357">
        <ele>107.80000305176</ele>
        <time>2011-05-08T08:41:55Z</time>
      </trkpt>
      <trkpt lat="44.78881" lon="-0.28351">
        <ele>106.90000152588</ele>
        <time>2011-05-08T08:41:56Z</time>
      </trkpt>
      <trkpt lat="44.78886" lon="-0.28347">
        <ele>108.09999847412</ele>
        <time>2011-05-08T08:41:57Z</time>
      </trkpt>
      <trkpt lat="44.7889" lon="-0.28341">
        <ele>107.90000152588</ele>
        <time>2011-05-08T08:41:58Z</time>
      </trkpt>
      <trkpt lat="44.78893" lon="-0.28336">
        <ele>108.59999847412</ele>
        <time>2011-05-08T08:41:59Z</time>
      </trkpt>
      <trkpt lat="44.78898" lon="-0.28329">
        <ele>109</ele>
        <time>2011-05-08T08:42:01Z</time>
      </trkpt>
      <trkpt lat="44.78903" lon="-0.28324">
        <ele>108.59999847412</ele>
        <time>2011-05-08T08:42:02Z</time>
      </trkpt>
      <trkpt lat="44.78907" lon="-0.2832">
        <ele>108.80000305176</ele>
        <time>2011-05-08T08:42:03Z</time>
      </trkpt>
      <trkpt lat="44.78914" lon="-0.28313">
        <ele>108.19999694824</ele>
        <time>2011-05-08T08:42:05Z</time>
      </trkpt>
      <trkpt lat="44.78918" lon="-0.28309">
        <ele>108.69999694824</ele>
        <time>2011-05-08T08:42:06Z</time>
      </trkpt>
      <trkpt lat="44.78925" lon="-0.28304">
        <ele>108.59999847412</ele>
        <time>2011-05-08T08:42:08Z</time>
      </trkpt>
      <trkpt lat="44.7893" lon="-0.28302">
        <ele>107.69999694824</ele>
        <time>2011-05-08T08:42:09Z</time>
      </trkpt>
      <trkpt lat="44.78933" lon="-0.28298">
        <ele>107.90000152588</ele>
        <time>2011-05-08T08:42:10Z</time>
      </trkpt>
      <trkpt lat="44.7894" lon="-0.28292">
        <ele>108.30000305176</ele>
        <time>2011-05-08T08:42:12Z</time>
      </trkpt>
      <trkpt lat="44.78944" lon="-0.28289">
        <ele>107.69999694824</ele>
        <time>2011-05-08T08:42:13Z</time>
      </trkpt>
      <trkpt lat="44.78953" lon="-0.28282">
        <ele>108</ele>
        <time>2011-05-08T08:42:15Z</time>
      </trkpt>
      <trkpt lat="44.78957" lon="-0.28278">
        <ele>107.80000305176</ele>
        <time>2011-05-08T08:42:16Z</time>
      </trkpt>
      <trkpt lat="44.78964" lon="-0.28272">
        <ele>107.30000305176</ele>
        <time>2011-05-08T08:42:18Z</time>
      </trkpt>
      <trkpt lat="44.78972" lon="-0.28266">
        <ele>107.59999847412</ele>
        <time>2011-05-08T08:42:20Z</time>
      </trkpt>
      <trkpt lat="44.78975" lon="-0.28261">
        <ele>107</ele>
        <time>2011-05-08T08:42:21Z</time>
      </trkpt>
      <trkpt lat="44.7898" lon="-0.28257">
        <ele>106.90000152588</ele>
        <time>2011-05-08T08:42:22Z</time>
      </trkpt>
      <trkpt lat="44.78987" lon="-0.28252">
        <ele>106.09999847412</ele>
        <time>2011-05-08T08:42:24Z</time>
      </trkpt>
      <trkpt lat="44.78991" lon="-0.28248">
        <ele>106.59999847412</ele>
        <time>2011-05-08T08:42:25Z</time>
      </trkpt>
      <trkpt lat="44.78999" lon="-0.28242">
        <ele>106.80000305176</ele>
        <time>2011-05-08T08:42:27Z</time>
      </trkpt>
      <trkpt lat="44.79006" lon="-0.28237">
        <ele>107</ele>
        <time>2011-05-08T08:42:29Z</time>
      </trkpt>
      <trkpt lat="44.79012" lon="-0.28232">
        <ele>108.80000305176</ele>
        <time>2011-05-08T08:42:31Z</time>
      </trkpt>
      <trkpt lat="44.79017" lon="-0.28229">
        <ele>109.5</ele>
        <time>2011-05-08T08:42:32Z</time>
      </trkpt>
      <trkpt lat="44.79021" lon="-0.28227">
        <ele>109.30000305176</ele>
        <time>2011-05-08T08:42:33Z</time>
      </trkpt>
      <trkpt lat="44.79026" lon="-0.28225">
        <ele>110</ele>
        <time>2011-05-08T08:42:34Z</time>
      </trkpt>
      <trkpt lat="44.79034" lon="-0.28222">
        <ele>111.09999847412</ele>
        <time>2011-05-08T08:42:36Z</time>
      </trkpt>
      <trkpt lat="44.7904" lon="-0.28222">
        <ele>110.90000152588</ele>
        <time>2011-05-08T08:42:37Z</time>
      </trkpt>
      <trkpt lat="44.79046" lon="-0.28222">
        <ele>110.5</ele>
        <time>2011-05-08T08:42:38Z</time>
      </trkpt>
      <trkpt lat="44.79052" lon="-0.28224">
        <ele>110.5</ele>
        <time>2011-05-08T08:42:39Z</time>
      </trkpt>
      <trkpt lat="44.79057" lon="-0.28226">
        <ele>110.69999694824</ele>
        <time>2011-05-08T08:42:40Z</time>
      </trkpt>
      <trkpt lat="44.79062" lon="-0.28229">
        <ele>111.19999694824</ele>
        <time>2011-05-08T08:42:41Z</time>
      </trkpt>
      <trkpt lat="44.79068" lon="-0.28232">
        <ele>110.80000305176</ele>
        <time>2011-05-08T08:42:42Z</time>
      </trkpt>
      <trkpt lat="44.7908" lon="-0.28234">
        <ele>110.59999847412</ele>
        <time>2011-05-08T08:42:44Z</time>
      </trkpt>
      <trkpt lat="44.79087" lon="-0.28237">
        <ele>110.09999847412</ele>
        <time>2011-05-08T08:42:45Z</time>
      </trkpt>
      <trkpt lat="44.79093" lon="-0.28236">
        <ele>109.80000305176</ele>
        <time>2011-05-08T08:42:46Z</time>
      </trkpt>
      <trkpt lat="44.79099" lon="-0.28235">
        <ele>110.19999694824</ele>
        <time>2011-05-08T08:42:47Z</time>
      </trkpt>
      <trkpt lat="44.79104" lon="-0.28235">
        <ele>109.90000152588</ele>
        <time>2011-05-08T08:42:48Z</time>
      </trkpt>
      <trkpt lat="44.79108" lon="-0.28233">
        <ele>110.09999847412</ele>
        <time>2011-05-08T08:42:49Z</time>
      </trkpt>
      <trkpt lat="44.79114" lon="-0.28232">
        <ele>109.80000305176</ele>
        <time>2011-05-08T08:42:50Z</time>
      </trkpt>
      <trkpt lat="44.79119" lon="-0.28231">
        <ele>110.19999694824</ele>
        <time>2011-05-08T08:42:51Z</time>
      </trkpt>
      <trkpt lat="44.79125" lon="-0.2823">
        <ele>110.30000305176</ele>
        <time>2011-05-08T08:42:52Z</time>
      </trkpt>
      <trkpt lat="44.7913" lon="-0.28227">
        <ele>110</ele>
        <time>2011-05-08T08:42:53Z</time>
      </trkpt>
      <trkpt lat="44.79135" lon="-0.28225">
        <ele>110.09999847412</ele>
        <time>2011-05-08T08:42:54Z</time>
      </trkpt>
      <trkpt lat="44.79139" lon="-0.28222">
        <ele>110</ele>
        <time>2011-05-08T08:42:55Z</time>
      </trkpt>
      <trkpt lat="44.79144" lon="-0.28219">
        <ele>110.19999694824</ele>
        <time>2011-05-08T08:42:56Z</time>
      </trkpt>
      <trkpt lat="44.79149" lon="-0.28216">
        <ele>110.09999847412</ele>
        <time>2011-05-08T08:42:57Z</time>
      </trkpt>
      <trkpt lat="44.79153" lon="-0.28212">
        <ele>110.30000305176</ele>
        <time>2011-05-08T08:42:58Z</time>
      </trkpt>
      <trkpt lat="44.79158" lon="-0.28208">
        <ele>109.69999694824</ele>
        <time>2011-05-08T08:42:59Z</time>
      </trkpt>
      <trkpt lat="44.79165" lon="-0.28201">
        <ele>110.09999847412</ele>
        <time>2011-05-08T08:43:01Z</time>
      </trkpt>
      <trkpt lat="44.79171" lon="-0.28195">
        <ele>110.19999694824</ele>
        <time>2011-05-08T08:43:03Z</time>
      </trkpt>
      <trkpt lat="44.79178" lon="-0.2819">
        <ele>110.5</ele>
        <time>2011-05-08T08:43:05Z</time>
      </trkpt>
      <trkpt lat="44.79184" lon="-0.28184">
        <ele>110.90000152588</ele>
        <time>2011-05-08T08:43:07Z</time>
      </trkpt>
      <trkpt lat="44.79187" lon="-0.28177">
        <ele>112.09999847412</ele>
        <time>2011-05-08T08:43:09Z</time>
      </trkpt>
      <trkpt lat="44.79192" lon="-0.2817">
        <ele>113.30000305176</ele>
        <time>2011-05-08T08:43:11Z</time>
      </trkpt>
      <trkpt lat="44.79196" lon="-0.28163">
        <ele>114.30000305176</ele>
        <time>2011-05-08T08:43:13Z</time>
      </trkpt>
      <trkpt lat="44.79201" lon="-0.28155">
        <ele>114.40000152588</ele>
        <time>2011-05-08T08:43:15Z</time>
      </trkpt>
      <trkpt lat="44.79206" lon="-0.28146">
        <ele>114.90000152588</ele>
        <time>2011-05-08T08:43:17Z</time>
      </trkpt>
      <trkpt lat="44.7921" lon="-0.28139">
        <ele>114.5</ele>
        <time>2011-05-08T08:43:19Z</time>
      </trkpt>
      <trkpt lat="44.79214" lon="-0.2813">
        <ele>114.90000152588</ele>
        <time>2011-05-08T08:43:21Z</time>
      </trkpt>
      <trkpt lat="44.79219" lon="-0.28123">
        <ele>115</ele>
        <time>2011-05-08T08:43:23Z</time>
      </trkpt>
      <trkpt lat="44.79224" lon="-0.28114">
        <ele>114.90000152588</ele>
        <time>2011-05-08T08:43:25Z</time>
      </trkpt>
      <trkpt lat="44.79228" lon="-0.2811">
        <ele>114.19999694824</ele>
        <time>2011-05-08T08:43:26Z</time>
      </trkpt>
      <trkpt lat="44.79234" lon="-0.28101">
        <ele>114.19999694824</ele>
        <time>2011-05-08T08:43:28Z</time>
      </trkpt>
      <trkpt lat="44.79238" lon="-0.28089">
        <ele>114.09999847412</ele>
        <time>2011-05-08T08:43:30Z</time>
      </trkpt>
      <trkpt lat="44.7924" lon="-0.28078">
        <ele>115.40000152588</ele>
        <time>2011-05-08T08:43:32Z</time>
      </trkpt>
      <trkpt lat="44.79242" lon="-0.28072">
        <ele>115.80000305176</ele>
        <time>2011-05-08T08:43:33Z</time>
      </trkpt>
      <trkpt lat="44.79246" lon="-0.28065">
        <ele>115.69999694824</ele>
        <time>2011-05-08T08:43:34Z</time>
      </trkpt>
      <trkpt lat="44.79249" lon="-0.28058">
        <ele>116.5</ele>
        <time>2011-05-08T08:43:35Z</time>
      </trkpt>
      <trkpt lat="44.79254" lon="-0.28051">
        <ele>116.09999847412</ele>
        <time>2011-05-08T08:43:36Z</time>
      </trkpt>
      <trkpt lat="44.79258" lon="-0.28043">
        <ele>115.09999847412</ele>
        <time>2011-05-08T08:43:37Z</time>
      </trkpt>
      <trkpt lat="44.79264" lon="-0.28036">
        <ele>115.19999694824</ele>
        <time>2011-05-08T08:43:38Z</time>
      </trkpt>
      <trkpt lat="44.7927" lon="-0.28027">
        <ele>114.5</ele>
        <time>2011-05-08T08:43:39Z</time>
      </trkpt>
      <trkpt lat="44.79275" lon="-0.28019">
        <ele>113.19999694824</ele>
        <time>2011-05-08T08:43:40Z</time>
      </trkpt>
      <trkpt lat="44.7928" lon="-0.28009">
        <ele>112.59999847412</ele>
        <time>2011-05-08T08:43:41Z</time>
      </trkpt>
      <trkpt lat="44.79287" lon="-0.28001">
        <ele>113.19999694824</ele>
        <time>2011-05-08T08:43:42Z</time>
      </trkpt>
      <trkpt lat="44.793" lon="-0.27991">
        <ele>113</ele>
        <time>2011-05-08T08:43:44Z</time>
      </trkpt>
      <trkpt lat="44.79307" lon="-0.27984">
        <ele>113.5</ele>
        <time>2011-05-08T08:43:45Z</time>
      </trkpt>
      <trkpt lat="44.79314" lon="-0.27977">
        <ele>113.90000152588</ele>
        <time>2011-05-08T08:43:46Z</time>
      </trkpt>
      <trkpt lat="44.79321" lon="-0.27968">
        <ele>115</ele>
        <time>2011-05-08T08:43:47Z</time>
      </trkpt>
      <trkpt lat="44.79328" lon="-0.27961">
        <ele>114.5</ele>
        <time>2011-05-08T08:43:48Z</time>
      </trkpt>
      <trkpt lat="44.79335" lon="-0.27952">
        <ele>114.40000152588</ele>
        <time>2011-05-08T08:43:49Z</time>
      </trkpt>
      <trkpt lat="44.79342" lon="-0.27943">
        <ele>114.80000305176</ele>
        <time>2011-05-08T08:43:50Z</time>
      </trkpt>
      <trkpt lat="44.79348" lon="-0.27935">
        <ele>114.30000305176</ele>
        <time>2011-05-08T08:43:51Z</time>
      </trkpt>
      <trkpt lat="44.79353" lon="-0.27927">
        <ele>114.19999694824</ele>
        <time>2011-05-08T08:43:52Z</time>
      </trkpt>
      <trkpt lat="44.7936" lon="-0.2792">
        <ele>113.59999847412</ele>
        <time>2011-05-08T08:43:53Z</time>
      </trkpt>
      <trkpt lat="44.79366" lon="-0.27913">
        <ele>113.09999847412</ele>
        <time>2011-05-08T08:43:54Z</time>
      </trkpt>
      <trkpt lat="44.79371" lon="-0.27905">
        <ele>113.69999694824</ele>
        <time>2011-05-08T08:43:55Z</time>
      </trkpt>
      <trkpt lat="44.79376" lon="-0.27897">
        <ele>114</ele>
        <time>2011-05-08T08:43:56Z</time>
      </trkpt>
      <trkpt lat="44.79382" lon="-0.27888">
        <ele>114.90000152588</ele>
        <time>2011-05-08T08:43:57Z</time>
      </trkpt>
      <trkpt lat="44.79389" lon="-0.27882">
        <ele>114.80000305176</ele>
        <time>2011-05-08T08:43:58Z</time>
      </trkpt>
      <trkpt lat="44.79395" lon="-0.27875">
        <ele>114.59999847412</ele>
        <time>2011-05-08T08:43:59Z</time>
      </trkpt>
      <trkpt lat="44.79401" lon="-0.27867">
        <ele>114.69999694824</ele>
        <time>2011-05-08T08:44:00Z</time>
      </trkpt>
      <trkpt lat="44.79408" lon="-0.2786">
        <ele>114.80000305176</ele>
        <time>2011-05-08T08:44:01Z</time>
      </trkpt>
      <trkpt lat="44.79416" lon="-0.27853">
        <ele>114.90000152588</ele>
        <time>2011-05-08T08:44:02Z</time>
      </trkpt>
      <trkpt lat="44.79421" lon="-0.27845">
        <ele>114.69999694824</ele>
        <time>2011-05-08T08:44:03Z</time>
      </trkpt>
      <trkpt lat="44.79427" lon="-0.27836">
        <ele>114.40000152588</ele>
        <time>2011-05-08T08:44:04Z</time>
      </trkpt>
      <trkpt lat="44.79433" lon="-0.27827">
        <ele>113.90000152588</ele>
        <time>2011-05-08T08:44:05Z</time>
      </trkpt>
      <trkpt lat="44.79439" lon="-0.27819">
        <ele>113.90000152588</ele>
        <time>2011-05-08T08:44:06Z</time>
      </trkpt>
      <trkpt lat="44.79445" lon="-0.2781">
        <ele>113.5</ele>
        <time>2011-05-08T08:44:07Z</time>
      </trkpt>
      <trkpt lat="44.7945" lon="-0.278">
        <ele>112.90000152588</ele>
        <time>2011-05-08T08:44:08Z</time>
      </trkpt>
      <trkpt lat="44.79455" lon="-0.27789">
        <ele>113.80000305176</ele>
        <time>2011-05-08T08:44:09Z</time>
      </trkpt>
      <trkpt lat="44.79458" lon="-0.27778">
        <ele>114</ele>
        <time>2011-05-08T08:44:10Z</time>
      </trkpt>
      <trkpt lat="44.79463" lon="-0.27769">
        <ele>113.80000305176</ele>
        <time>2011-05-08T08:44:11Z</time>
      </trkpt>
      <trkpt lat="44.79467" lon="-0.27757">
        <ele>113.90000152588</ele>
        <time>2011-05-08T08:44:12Z</time>
      </trkpt>
      <trkpt lat="44.79471" lon="-0.27745">
        <ele>113.30000305176</ele>
        <time>2011-05-08T08:44:13Z</time>
      </trkpt>
      <trkpt lat="44.79475" lon="-0.27734">
        <ele>113.59999847412</ele>
        <time>2011-05-08T08:44:14Z</time>
      </trkpt>
      <trkpt lat="44.79479" lon="-0.27721">
        <ele>113</ele>
        <time>2011-05-08T08:44:15Z</time>
      </trkpt>
      <trkpt lat="44.79483" lon="-0.27708">
        <ele>112.40000152588</ele>
        <time>2011-05-08T08:44:16Z</time>
      </trkpt>
      <trkpt lat="44.79487" lon="-0.27695">
        <ele>112.19999694824</ele>
        <time>2011-05-08T08:44:17Z</time>
      </trkpt>
      <trkpt lat="44.79488" lon="-0.27683">
        <ele>112</ele>
        <time>2011-05-08T08:44:18Z</time>
      </trkpt>
      <trkpt lat="44.79489" lon="-0.27669">
        <ele>111.90000152588</ele>
        <time>2011-05-08T08:44:19Z</time>
      </trkpt>
      <trkpt lat="44.7949" lon="-0.27655">
        <ele>111</ele>
        <time>2011-05-08T08:44:20Z</time>
      </trkpt>
      <trkpt lat="44.79488" lon="-0.27641">
        <ele>110.40000152588</ele>
        <time>2011-05-08T08:44:21Z</time>
      </trkpt>
      <trkpt lat="44.79486" lon="-0.27629">
        <ele>110.19999694824</ele>
        <time>2011-05-08T08:44:22Z</time>
      </trkpt>
      <trkpt lat="44.79484" lon="-0.27616">
        <ele>109.59999847412</ele>
        <time>2011-05-08T08:44:23Z</time>
      </trkpt>
      <trkpt lat="44.7948" lon="-0.27604">
        <ele>109.40000152588</ele>
        <time>2011-05-08T08:44:24Z</time>
      </trkpt>
      <trkpt lat="44.79478" lon="-0.2759">
        <ele>108.90000152588</ele>
        <time>2011-05-08T08:44:25Z</time>
      </trkpt>
      <trkpt lat="44.79477" lon="-0.27578">
        <ele>109</ele>
        <time>2011-05-08T08:44:26Z</time>
      </trkpt>
      <trkpt lat="44.79477" lon="-0.27563">
        <ele>109</ele>
        <time>2011-05-08T08:44:27Z</time>
      </trkpt>
      <trkpt lat="44.79477" lon="-0.27552">
        <ele>108.90000152588</ele>
        <time>2011-05-08T08:44:28Z</time>
      </trkpt>
      <trkpt lat="44.79478" lon="-0.27542">
        <ele>108.69999694824</ele>
        <time>2011-05-08T08:44:29Z</time>
      </trkpt>
      <trkpt lat="44.7948" lon="-0.27533">
        <ele>109</ele>
        <time>2011-05-08T08:44:30Z</time>
      </trkpt>
      <trkpt lat="44.79485" lon="-0.2753">
        <ele>109</ele>
        <time>2011-05-08T08:44:31Z</time>
      </trkpt>
      <trkpt lat="44.79492" lon="-0.27531">
        <ele>108.59999847412</ele>
        <time>2011-05-08T08:44:32Z</time>
      </trkpt>
      <trkpt lat="44.795" lon="-0.27536">
        <ele>108.69999694824</ele>
        <time>2011-05-08T08:44:33Z</time>
      </trkpt>
      <trkpt lat="44.79507" lon="-0.27539">
        <ele>108.40000152588</ele>
        <time>2011-05-08T08:44:34Z</time>
      </trkpt>
      <trkpt lat="44.79513" lon="-0.27542">
        <ele>108.30000305176</ele>
        <time>2011-05-08T08:44:35Z</time>
      </trkpt>
      <trkpt lat="44.79522" lon="-0.27544">
        <ele>108.30000305176</ele>
        <time>2011-05-08T08:44:36Z</time>
      </trkpt>
      <trkpt lat="44.79529" lon="-0.27547">
        <ele>108.19999694824</ele>
        <time>2011-05-08T08:44:37Z</time>
      </trkpt>
      <trkpt lat="44.79536" lon="-0.2755">
        <ele>108.19999694824</ele>
        <time>2011-05-08T08:44:38Z</time>
      </trkpt>
      <trkpt lat="44.79544" lon="-0.2755">
        <ele>108.09999847412</ele>
        <time>2011-05-08T08:44:39Z</time>
      </trkpt>
      <trkpt lat="44.79552" lon="-0.27553">
        <ele>107.5</ele>
        <time>2011-05-08T08:44:40Z</time>
      </trkpt>
      <trkpt lat="44.79559" lon="-0.27551">
        <ele>107.5</ele>
        <time>2011-05-08T08:44:41Z</time>
      </trkpt>
      <trkpt lat="44.79565" lon="-0.27551">
        <ele>106.90000152588</ele>
        <time>2011-05-08T08:44:42Z</time>
      </trkpt>
      <trkpt lat="44.79579" lon="-0.2755">
        <ele>106.69999694824</ele>
        <time>2011-05-08T08:44:44Z</time>
      </trkpt>
      <trkpt lat="44.79585" lon="-0.27548">
        <ele>106.69999694824</ele>
        <time>2011-05-08T08:44:45Z</time>
      </trkpt>
      <trkpt lat="44.79591" lon="-0.27545">
        <ele>106.80000305176</ele>
        <time>2011-05-08T08:44:46Z</time>
      </trkpt>
      <trkpt lat="44.79597" lon="-0.27544">
        <ele>106.5</ele>
        <time>2011-05-08T08:44:47Z</time>
      </trkpt>
      <trkpt lat="44.79603" lon="-0.27543">
        <ele>106.90000152588</ele>
        <time>2011-05-08T08:44:48Z</time>
      </trkpt>
      <trkpt lat="44.79609" lon="-0.27542">
        <ele>106.80000305176</ele>
        <time>2011-05-08T08:44:49Z</time>
      </trkpt>
      <trkpt lat="44.79614" lon="-0.27541">
        <ele>106.80000305176</ele>
        <time>2011-05-08T08:44:50Z</time>
      </trkpt>
      <trkpt lat="44.79619" lon="-0.2754">
        <ele>106.69999694824</ele>
        <time>2011-05-08T08:44:51Z</time>
      </trkpt>
      <trkpt lat="44.79625" lon="-0.27538">
        <ele>106.30000305176</ele>
        <time>2011-05-08T08:44:52Z</time>
      </trkpt>
      <trkpt lat="44.79634" lon="-0.27536">
        <ele>106.40000152588</ele>
        <time>2011-05-08T08:44:54Z</time>
      </trkpt>
      <trkpt lat="44.79639" lon="-0.27536">
        <ele>106.5</ele>
        <time>2011-05-08T08:44:55Z</time>
      </trkpt>
      <trkpt lat="44.79644" lon="-0.27538">
        <ele>106.40000152588</ele>
        <time>2011-05-08T08:44:56Z</time>
      </trkpt>
      <trkpt lat="44.79651" lon="-0.27546">
        <ele>107</ele>
        <time>2011-05-08T08:44:58Z</time>
      </trkpt>
      <trkpt lat="44.79654" lon="-0.27551">
        <ele>106.5</ele>
        <time>2011-05-08T08:44:59Z</time>
      </trkpt>
      <trkpt lat="44.79658" lon="-0.27557">
        <ele>106.69999694824</ele>
        <time>2011-05-08T08:45:00Z</time>
      </trkpt>
      <trkpt lat="44.79661" lon="-0.27567">
        <ele>106.5</ele>
        <time>2011-05-08T08:45:02Z</time>
      </trkpt>
      <trkpt lat="44.79663" lon="-0.27573">
        <ele>106.40000152588</ele>
        <time>2011-05-08T08:45:03Z</time>
      </trkpt>
      <trkpt lat="44.79665" lon="-0.27579">
        <ele>106</ele>
        <time>2011-05-08T08:45:04Z</time>
      </trkpt>
      <trkpt lat="44.7967" lon="-0.27589">
        <ele>105.69999694824</ele>
        <time>2011-05-08T08:45:06Z</time>
      </trkpt>
      <trkpt lat="44.79673" lon="-0.276">
        <ele>105.5</ele>
        <time>2011-05-08T08:45:08Z</time>
      </trkpt>
      <trkpt lat="44.79677" lon="-0.2761">
        <ele>105.59999847412</ele>
        <time>2011-05-08T08:45:10Z</time>
      </trkpt>
      <trkpt lat="44.79679" lon="-0.27617">
        <ele>105.5</ele>
        <time>2011-05-08T08:45:11Z</time>
      </trkpt>
      <trkpt lat="44.79681" lon="-0.27628">
        <ele>105.09999847412</ele>
        <time>2011-05-08T08:45:13Z</time>
      </trkpt>
      <trkpt lat="44.79684" lon="-0.27636">
        <ele>105.30000305176</ele>
        <time>2011-05-08T08:45:15Z</time>
      </trkpt>
      <trkpt lat="44.79688" lon="-0.27645">
        <ele>105.69999694824</ele>
        <time>2011-05-08T08:45:17Z</time>
      </trkpt>
      <trkpt lat="44.79691" lon="-0.27655">
        <ele>107</ele>
        <time>2011-05-08T08:45:19Z</time>
      </trkpt>
      <trkpt lat="44.79695" lon="-0.27663">
        <ele>107.59999847412</ele>
        <time>2011-05-08T08:45:21Z</time>
      </trkpt>
      <trkpt lat="44.79697" lon="-0.27674">
        <ele>108</ele>
        <time>2011-05-08T08:45:23Z</time>
      </trkpt>
      <trkpt lat="44.79699" lon="-0.27682">
        <ele>108.69999694824</ele>
        <time>2011-05-08T08:45:25Z</time>
      </trkpt>
      <trkpt lat="44.79704" lon="-0.27687">
        <ele>108.90000152588</ele>
        <time>2011-05-08T08:45:27Z</time>
      </trkpt>
      <trkpt lat="44.79709" lon="-0.27692">
        <ele>109.19999694824</ele>
        <time>2011-05-08T08:45:30Z</time>
      </trkpt>
      <trkpt lat="44.79713" lon="-0.277">
        <ele>108.5</ele>
        <time>2011-05-08T08:45:32Z</time>
      </trkpt>
      <trkpt lat="44.79718" lon="-0.27709">
        <ele>108.69999694824</ele>
        <time>2011-05-08T08:45:34Z</time>
      </trkpt>
      <trkpt lat="44.79721" lon="-0.27714">
        <ele>108.19999694824</ele>
        <time>2011-05-08T08:45:35Z</time>
      </trkpt>
      <trkpt lat="44.79725" lon="-0.27723">
        <ele>108.09999847412</ele>
        <time>2011-05-08T08:45:37Z</time>
      </trkpt>
      <trkpt lat="44.79728" lon="-0.27731">
        <ele>108.80000305176</ele>
        <time>2011-05-08T08:45:39Z</time>
      </trkpt>
      <trkpt lat="44.79732" lon="-0.27738">
        <ele>108.80000305176</ele>
        <time>2011-05-08T08:45:41Z</time>
      </trkpt>
      <trkpt lat="44.79735" lon="-0.27747">
        <ele>108.90000152588</ele>
        <time>2011-05-08T08:45:44Z</time>
      </trkpt>
      <trkpt lat="44.79738" lon="-0.27754">
        <ele>109.30000305176</ele>
        <time>2011-05-08T08:45:46Z</time>
      </trkpt>
      <trkpt lat="44.79741" lon="-0.27762">
        <ele>109.19999694824</ele>
        <time>2011-05-08T08:45:48Z</time>
      </trkpt>
      <trkpt lat="44.79745" lon="-0.27771">
        <ele>108.5</ele>
        <time>2011-05-08T08:45:50Z</time>
      </trkpt>
      <trkpt lat="44.79748" lon="-0.27779">
        <ele>108.90000152588</ele>
        <time>2011-05-08T08:45:52Z</time>
      </trkpt>
      <trkpt lat="44.79753" lon="-0.27784">
        <ele>110.5</ele>
        <time>2011-05-08T08:45:55Z</time>
      </trkpt>
      <trkpt lat="44.79759" lon="-0.27785">
        <ele>109.40000152588</ele>
        <time>2011-05-08T08:45:57Z</time>
      </trkpt>
      <trkpt lat="44.79766" lon="-0.2778">
        <ele>109.80000305176</ele>
        <time>2011-05-08T08:45:59Z</time>
      </trkpt>
      <trkpt lat="44.79773" lon="-0.27776">
        <ele>110.5</ele>
        <time>2011-05-08T08:46:01Z</time>
      </trkpt>
      <trkpt lat="44.79779" lon="-0.2777">
        <ele>111.5</ele>
        <time>2011-05-08T08:46:03Z</time>
      </trkpt>
      <trkpt lat="44.79786" lon="-0.27765">
        <ele>111.40000152588</ele>
        <time>2011-05-08T08:46:05Z</time>
      </trkpt>
      <trkpt lat="44.7979" lon="-0.27759">
        <ele>112.40000152588</ele>
        <time>2011-05-08T08:46:06Z</time>
      </trkpt>
      <trkpt lat="44.79797" lon="-0.27751">
        <ele>113.09999847412</ele>
        <time>2011-05-08T08:46:08Z</time>
      </trkpt>
      <trkpt lat="44.79804" lon="-0.27744">
        <ele>112</ele>
        <time>2011-05-08T08:46:10Z</time>
      </trkpt>
      <trkpt lat="44.79809" lon="-0.2774">
        <ele>112.09999847412</ele>
        <time>2011-05-08T08:46:11Z</time>
      </trkpt>
      <trkpt lat="44.79812" lon="-0.27735">
        <ele>112.09999847412</ele>
        <time>2011-05-08T08:46:12Z</time>
      </trkpt>
      <trkpt lat="44.79816" lon="-0.27732">
        <ele>112.30000305176</ele>
        <time>2011-05-08T08:46:13Z</time>
      </trkpt>
      <trkpt lat="44.7982" lon="-0.27728">
        <ele>112.59999847412</ele>
        <time>2011-05-08T08:46:14Z</time>
      </trkpt>
      <trkpt lat="44.79824" lon="-0.27724">
        <ele>112.09999847412</ele>
        <time>2011-05-08T08:46:15Z</time>
      </trkpt>
      <trkpt lat="44.79828" lon="-0.27719">
        <ele>112.09999847412</ele>
        <time>2011-05-08T08:46:16Z</time>
      </trkpt>
      <trkpt lat="44.79834" lon="-0.27713">
        <ele>111.80000305176</ele>
        <time>2011-05-08T08:46:17Z</time>
      </trkpt>
      <trkpt lat="44.79839" lon="-0.27708">
        <ele>112.5</ele>
        <time>2011-05-08T08:46:18Z</time>
      </trkpt>
      <trkpt lat="44.79844" lon="-0.27703">
        <ele>112.09999847412</ele>
        <time>2011-05-08T08:46:19Z</time>
      </trkpt>
      <trkpt lat="44.7985" lon="-0.277">
        <ele>112.19999694824</ele>
        <time>2011-05-08T08:46:20Z</time>
      </trkpt>
      <trkpt lat="44.79855" lon="-0.27697">
        <ele>112.19999694824</ele>
        <time>2011-05-08T08:46:21Z</time>
      </trkpt>
      <trkpt lat="44.7986" lon="-0.27694">
        <ele>112.30000305176</ele>
        <time>2011-05-08T08:46:22Z</time>
      </trkpt>
      <trkpt lat="44.79865" lon="-0.27688">
        <ele>111.69999694824</ele>
        <time>2011-05-08T08:46:23Z</time>
      </trkpt>
      <trkpt lat="44.79871" lon="-0.27686">
        <ele>112</ele>
        <time>2011-05-08T08:46:24Z</time>
      </trkpt>
      <trkpt lat="44.79876" lon="-0.27684">
        <ele>111</ele>
        <time>2011-05-08T08:46:25Z</time>
      </trkpt>
      <trkpt lat="44.79881" lon="-0.27682">
        <ele>111.19999694824</ele>
        <time>2011-05-08T08:46:26Z</time>
      </trkpt>
      <trkpt lat="44.79886" lon="-0.2768">
        <ele>111.69999694824</ele>
        <time>2011-05-08T08:46:27Z</time>
      </trkpt>
      <trkpt lat="44.79891" lon="-0.27677">
        <ele>111.59999847412</ele>
        <time>2011-05-08T08:46:28Z</time>
      </trkpt>
      <trkpt lat="44.79896" lon="-0.27673">
        <ele>111.40000152588</ele>
        <time>2011-05-08T08:46:29Z</time>
      </trkpt>
      <trkpt lat="44.79901" lon="-0.27671">
        <ele>111.69999694824</ele>
        <time>2011-05-08T08:46:30Z</time>
      </trkpt>
      <trkpt lat="44.79905" lon="-0.27668">
        <ele>111.5</ele>
        <time>2011-05-08T08:46:31Z</time>
      </trkpt>
      <trkpt lat="44.7991" lon="-0.27666">
        <ele>111.40000152588</ele>
        <time>2011-05-08T08:46:32Z</time>
      </trkpt>
      <trkpt lat="44.79918" lon="-0.27661">
        <ele>111.80000305176</ele>
        <time>2011-05-08T08:46:34Z</time>
      </trkpt>
      <trkpt lat="44.79922" lon="-0.27658">
        <ele>111.40000152588</ele>
        <time>2011-05-08T08:46:35Z</time>
      </trkpt>
      <trkpt lat="44.79926" lon="-0.27655">
        <ele>111</ele>
        <time>2011-05-08T08:46:36Z</time>
      </trkpt>
      <trkpt lat="44.79931" lon="-0.27652">
        <ele>110.90000152588</ele>
        <time>2011-05-08T08:46:37Z</time>
      </trkpt>
      <trkpt lat="44.79939" lon="-0.27649">
        <ele>111.59999847412</ele>
        <time>2011-05-08T08:46:39Z</time>
      </trkpt>
      <trkpt lat="44.79943" lon="-0.27646">
        <ele>111.59999847412</ele>
        <time>2011-05-08T08:46:40Z</time>
      </trkpt>
      <trkpt lat="44.79947" lon="-0.27643">
        <ele>111.40000152588</ele>
        <time>2011-05-08T08:46:41Z</time>
      </trkpt>
      <trkpt lat="44.79952" lon="-0.27641">
        <ele>111.40000152588</ele>
        <time>2011-05-08T08:46:42Z</time>
      </trkpt>
      <trkpt lat="44.79961" lon="-0.27636">
        <ele>111.90000152588</ele>
        <time>2011-05-08T08:46:44Z</time>
      </trkpt>
      <trkpt lat="44.79966" lon="-0.27633">
        <ele>111.19999694824</ele>
        <time>2011-05-08T08:46:45Z</time>
      </trkpt>
      <trkpt lat="44.79971" lon="-0.2763">
        <ele>111</ele>
        <time>2011-05-08T08:46:46Z</time>
      </trkpt>
      <trkpt lat="44.79975" lon="-0.27628">
        <ele>110.90000152588</ele>
        <time>2011-05-08T08:46:47Z</time>
      </trkpt>
      <trkpt lat="44.7998" lon="-0.27626">
        <ele>111.09999847412</ele>
        <time>2011-05-08T08:46:48Z</time>
      </trkpt>
      <trkpt lat="44.79985" lon="-0.27623">
        <ele>111.40000152588</ele>
        <time>2011-05-08T08:46:49Z</time>
      </trkpt>
      <trkpt lat="44.7999" lon="-0.27622">
        <ele>111.09999847412</ele>
        <time>2011-05-08T08:46:50Z</time>
      </trkpt>
      <trkpt lat="44.79996" lon="-0.27619">
        <ele>110.69999694824</ele>
        <time>2011-05-08T08:46:51Z</time>
      </trkpt>
      <trkpt lat="44.8" lon="-0.27615">
        <ele>110.5</ele>
        <time>2011-05-08T08:46:52Z</time>
      </trkpt>
      <trkpt lat="44.80006" lon="-0.27612">
        <ele>110.69999694824</ele>
        <time>2011-05-08T08:46:53Z</time>
      </trkpt>
      <trkpt lat="44.80011" lon="-0.2761">
        <ele>110.90000152588</ele>
        <time>2011-05-08T08:46:54Z</time>
      </trkpt>
      <trkpt lat="44.80017" lon="-0.27608">
        <ele>110.80000305176</ele>
        <time>2011-05-08T08:46:55Z</time>
      </trkpt>
      <trkpt lat="44.80023" lon="-0.27605">
        <ele>110.69999694824</ele>
        <time>2011-05-08T08:46:56Z</time>
      </trkpt>
      <trkpt lat="44.80029" lon="-0.27603">
        <ele>110.69999694824</ele>
        <time>2011-05-08T08:46:57Z</time>
      </trkpt>
      <trkpt lat="44.80034" lon="-0.276">
        <ele>110.59999847412</ele>
        <time>2011-05-08T08:46:58Z</time>
      </trkpt>
      <trkpt lat="44.8004" lon="-0.27597">
        <ele>110.09999847412</ele>
        <time>2011-05-08T08:46:59Z</time>
      </trkpt>
      <trkpt lat="44.80046" lon="-0.27594">
        <ele>110.09999847412</ele>
        <time>2011-05-08T08:47:00Z</time>
      </trkpt>
      <trkpt lat="44.80052" lon="-0.27591">
        <ele>110.30000305176</ele>
        <time>2011-05-08T08:47:01Z</time>
      </trkpt>
      <trkpt lat="44.80058" lon="-0.27587">
        <ele>110.19999694824</ele>
        <time>2011-05-08T08:47:02Z</time>
      </trkpt>
      <trkpt lat="44.80064" lon="-0.27584">
        <ele>109.80000305176</ele>
        <time>2011-05-08T08:47:03Z</time>
      </trkpt>
      <trkpt lat="44.80069" lon="-0.27582">
        <ele>110.09999847412</ele>
        <time>2011-05-08T08:47:04Z</time>
      </trkpt>
      <trkpt lat="44.80075" lon="-0.27579">
        <ele>110.09999847412</ele>
        <time>2011-05-08T08:47:05Z</time>
      </trkpt>
      <trkpt lat="44.80079" lon="-0.27577">
        <ele>110.09999847412</ele>
        <time>2011-05-08T08:47:06Z</time>
      </trkpt>
      <trkpt lat="44.80085" lon="-0.27573">
        <ele>109.80000305176</ele>
        <time>2011-05-08T08:47:07Z</time>
      </trkpt>
      <trkpt lat="44.80089" lon="-0.2757">
        <ele>109.69999694824</ele>
        <time>2011-05-08T08:47:08Z</time>
      </trkpt>
      <trkpt lat="44.80098" lon="-0.27566">
        <ele>110.09999847412</ele>
        <time>2011-05-08T08:47:10Z</time>
      </trkpt>
      <trkpt lat="44.80102" lon="-0.27563">
        <ele>110.09999847412</ele>
        <time>2011-05-08T08:47:11Z</time>
      </trkpt>
      <trkpt lat="44.80106" lon="-0.27559">
        <ele>110.59999847412</ele>
        <time>2011-05-08T08:47:12Z</time>
      </trkpt>
      <trkpt lat="44.8011" lon="-0.27554">
        <ele>110.90000152588</ele>
        <time>2011-05-08T08:47:13Z</time>
      </trkpt>
      <trkpt lat="44.80114" lon="-0.2755">
        <ele>110.90000152588</ele>
        <time>2011-05-08T08:47:14Z</time>
      </trkpt>
      <trkpt lat="44.80119" lon="-0.27547">
        <ele>110.59999847412</ele>
        <time>2011-05-08T08:47:15Z</time>
      </trkpt>
      <trkpt lat="44.80124" lon="-0.27544">
        <ele>110.80000305176</ele>
        <time>2011-05-08T08:47:16Z</time>
      </trkpt>
      <trkpt lat="44.80131" lon="-0.27542">
        <ele>110.5</ele>
        <time>2011-05-08T08:47:17Z</time>
      </trkpt>
      <trkpt lat="44.80136" lon="-0.27538">
        <ele>110.19999694824</ele>
        <time>2011-05-08T08:47:18Z</time>
      </trkpt>
      <trkpt lat="44.80141" lon="-0.27534">
        <ele>110.30000305176</ele>
        <time>2011-05-08T08:47:19Z</time>
      </trkpt>
      <trkpt lat="44.80146" lon="-0.27529">
        <ele>110.69999694824</ele>
        <time>2011-05-08T08:47:20Z</time>
      </trkpt>
      <trkpt lat="44.8015" lon="-0.27524">
        <ele>110.5</ele>
        <time>2011-05-08T08:47:21Z</time>
      </trkpt>
      <trkpt lat="44.80154" lon="-0.27517">
        <ele>110</ele>
        <time>2011-05-08T08:47:22Z</time>
      </trkpt>
      <trkpt lat="44.80158" lon="-0.2751">
        <ele>109.59999847412</ele>
        <time>2011-05-08T08:47:23Z</time>
      </trkpt>
      <trkpt lat="44.8016" lon="-0.27503">
        <ele>109.30000305176</ele>
        <time>2011-05-08T08:47:24Z</time>
      </trkpt>
      <trkpt lat="44.80163" lon="-0.27497">
        <ele>108.90000152588</ele>
        <time>2011-05-08T08:47:25Z</time>
      </trkpt>
      <trkpt lat="44.80165" lon="-0.27491">
        <ele>109</ele>
        <time>2011-05-08T08:47:26Z</time>
      </trkpt>
      <trkpt lat="44.80167" lon="-0.27484">
        <ele>108.69999694824</ele>
        <time>2011-05-08T08:47:27Z</time>
      </trkpt>
      <trkpt lat="44.80169" lon="-0.27476">
        <ele>107.90000152588</ele>
        <time>2011-05-08T08:47:28Z</time>
      </trkpt>
      <trkpt lat="44.80171" lon="-0.27469">
        <ele>108</ele>
        <time>2011-05-08T08:47:29Z</time>
      </trkpt>
      <trkpt lat="44.80172" lon="-0.27462">
        <ele>108.19999694824</ele>
        <time>2011-05-08T08:47:30Z</time>
      </trkpt>
      <trkpt lat="44.80174" lon="-0.27455">
        <ele>108.09999847412</ele>
        <time>2011-05-08T08:47:31Z</time>
      </trkpt>
      <trkpt lat="44.80176" lon="-0.27447">
        <ele>108.09999847412</ele>
        <time>2011-05-08T08:47:32Z</time>
      </trkpt>
      <trkpt lat="44.80178" lon="-0.2744">
        <ele>107.59999847412</ele>
        <time>2011-05-08T08:47:33Z</time>
      </trkpt>
      <trkpt lat="44.8018" lon="-0.27433">
        <ele>107.30000305176</ele>
        <time>2011-05-08T08:47:34Z</time>
      </trkpt>
      <trkpt lat="44.80183" lon="-0.27427">
        <ele>107.5</ele>
        <time>2011-05-08T08:47:35Z</time>
      </trkpt>
      <trkpt lat="44.80185" lon="-0.2742">
        <ele>106.69999694824</ele>
        <time>2011-05-08T08:47:36Z</time>
      </trkpt>
      <trkpt lat="44.80186" lon="-0.27411">
        <ele>106</ele>
        <time>2011-05-08T08:47:37Z</time>
      </trkpt>
      <trkpt lat="44.80189" lon="-0.27404">
        <ele>106.19999694824</ele>
        <time>2011-05-08T08:47:38Z</time>
      </trkpt>
      <trkpt lat="44.80192" lon="-0.27397">
        <ele>106.19999694824</ele>
        <time>2011-05-08T08:47:39Z</time>
      </trkpt>
      <trkpt lat="44.80194" lon="-0.27389">
        <ele>105.59999847412</ele>
        <time>2011-05-08T08:47:40Z</time>
      </trkpt>
      <trkpt lat="44.80196" lon="-0.27379">
        <ele>105.69999694824</ele>
        <time>2011-05-08T08:47:41Z</time>
      </trkpt>
      <trkpt lat="44.80198" lon="-0.27372">
        <ele>106.19999694824</ele>
        <time>2011-05-08T08:47:42Z</time>
      </trkpt>
      <trkpt lat="44.80201" lon="-0.27362">
        <ele>106.40000152588</ele>
        <time>2011-05-08T08:47:44Z</time>
      </trkpt>
      <trkpt lat="44.80205" lon="-0.27357">
        <ele>106.19999694824</ele>
        <time>2011-05-08T08:47:45Z</time>
      </trkpt>
      <trkpt lat="44.80209" lon="-0.27352">
        <ele>106.90000152588</ele>
        <time>2011-05-08T08:47:46Z</time>
      </trkpt>
      <trkpt lat="44.80214" lon="-0.27349">
        <ele>107.80000305176</ele>
        <time>2011-05-08T08:47:47Z</time>
      </trkpt>
      <trkpt lat="44.80219" lon="-0.27345">
        <ele>108.09999847412</ele>
        <time>2011-05-08T08:47:48Z</time>
      </trkpt>
      <trkpt lat="44.80224" lon="-0.27341">
        <ele>107.90000152588</ele>
        <time>2011-05-08T08:47:49Z</time>
      </trkpt>
      <trkpt lat="44.80231" lon="-0.27336">
        <ele>107.30000305176</ele>
        <time>2011-05-08T08:47:50Z</time>
      </trkpt>
      <trkpt lat="44.80236" lon="-0.2733">
        <ele>107.5</ele>
        <time>2011-05-08T08:47:51Z</time>
      </trkpt>
      <trkpt lat="44.80243" lon="-0.27326">
        <ele>108.80000305176</ele>
        <time>2011-05-08T08:47:52Z</time>
      </trkpt>
      <trkpt lat="44.8025" lon="-0.2732">
        <ele>107.90000152588</ele>
        <time>2011-05-08T08:47:53Z</time>
      </trkpt>
      <trkpt lat="44.80257" lon="-0.27315">
        <ele>106.90000152588</ele>
        <time>2011-05-08T08:47:54Z</time>
      </trkpt>
      <trkpt lat="44.80265" lon="-0.2731">
        <ele>106.40000152588</ele>
        <time>2011-05-08T08:47:55Z</time>
      </trkpt>
      <trkpt lat="44.80272" lon="-0.27307">
        <ele>106.90000152588</ele>
        <time>2011-05-08T08:47:56Z</time>
      </trkpt>
      <trkpt lat="44.8028" lon="-0.27303">
        <ele>106.59999847412</ele>
        <time>2011-05-08T08:47:57Z</time>
      </trkpt>
      <trkpt lat="44.80288" lon="-0.27302">
        <ele>105.90000152588</ele>
        <time>2011-05-08T08:47:58Z</time>
      </trkpt>
      <trkpt lat="44.80296" lon="-0.27298">
        <ele>105.30000305176</ele>
        <time>2011-05-08T08:47:59Z</time>
      </trkpt>
      <trkpt lat="44.80304" lon="-0.27293">
        <ele>105.69999694824</ele>
        <time>2011-05-08T08:48:00Z</time>
      </trkpt>
      <trkpt lat="44.80311" lon="-0.27289">
        <ele>105</ele>
        <time>2011-05-08T08:48:01Z</time>
      </trkpt>
      <trkpt lat="44.8032" lon="-0.27284">
        <ele>104.5</ele>
        <time>2011-05-08T08:48:02Z</time>
      </trkpt>
      <trkpt lat="44.80326" lon="-0.27279">
        <ele>104.69999694824</ele>
        <time>2011-05-08T08:48:03Z</time>
      </trkpt>
      <trkpt lat="44.80332" lon="-0.2728">
        <ele>104.59999847412</ele>
        <time>2011-05-08T08:48:04Z</time>
      </trkpt>
      <trkpt lat="44.80338" lon="-0.27284">
        <ele>104.09999847412</ele>
        <time>2011-05-08T08:48:05Z</time>
      </trkpt>
      <trkpt lat="44.80342" lon="-0.27289">
        <ele>103.90000152588</ele>
        <time>2011-05-08T08:48:06Z</time>
      </trkpt>
      <trkpt lat="44.80344" lon="-0.27296">
        <ele>104.09999847412</ele>
        <time>2011-05-08T08:48:07Z</time>
      </trkpt>
      <trkpt lat="44.80347" lon="-0.27301">
        <ele>104.5</ele>
        <time>2011-05-08T08:48:08Z</time>
      </trkpt>
      <trkpt lat="44.8035" lon="-0.27307">
        <ele>104.19999694824</ele>
        <time>2011-05-08T08:48:09Z</time>
      </trkpt>
      <trkpt lat="44.80354" lon="-0.27312">
        <ele>104.30000305176</ele>
        <time>2011-05-08T08:48:11Z</time>
      </trkpt>
      <trkpt lat="44.8036" lon="-0.27308">
        <ele>103.59999847412</ele>
        <time>2011-05-08T08:48:13Z</time>
      </trkpt>
      <trkpt lat="44.80364" lon="-0.273">
        <ele>102.5</ele>
        <time>2011-05-08T08:48:15Z</time>
      </trkpt>
      <trkpt lat="44.80365" lon="-0.27292">
        <ele>102.5</ele>
        <time>2011-05-08T08:48:16Z</time>
      </trkpt>
      <trkpt lat="44.80367" lon="-0.27284">
        <ele>102.09999847412</ele>
        <time>2011-05-08T08:48:17Z</time>
      </trkpt>
      <trkpt lat="44.8037" lon="-0.27276">
        <ele>101.09999847412</ele>
        <time>2011-05-08T08:48:18Z</time>
      </trkpt>
      <trkpt lat="44.80372" lon="-0.27266">
        <ele>100.5</ele>
        <time>2011-05-08T08:48:19Z</time>
      </trkpt>
      <trkpt lat="44.80374" lon="-0.27254">
        <ele>99.900001525879</ele>
        <time>2011-05-08T08:48:20Z</time>
      </trkpt>
      <trkpt lat="44.80376" lon="-0.27246">
        <ele>99.400001525879</ele>
        <time>2011-05-08T08:48:21Z</time>
      </trkpt>
      <trkpt lat="44.80379" lon="-0.27238">
        <ele>98.800003051758</ele>
        <time>2011-05-08T08:48:22Z</time>
      </trkpt>
      <trkpt lat="44.80383" lon="-0.27231">
        <ele>98.199996948242</ele>
        <time>2011-05-08T08:48:23Z</time>
      </trkpt>
      <trkpt lat="44.80388" lon="-0.27229">
        <ele>97.900001525879</ele>
        <time>2011-05-08T08:48:24Z</time>
      </trkpt>
      <trkpt lat="44.80394" lon="-0.27227">
        <ele>97.599998474121</ele>
        <time>2011-05-08T08:48:25Z</time>
      </trkpt>
      <trkpt lat="44.80399" lon="-0.27226">
        <ele>97.400001525879</ele>
        <time>2011-05-08T08:48:26Z</time>
      </trkpt>
      <trkpt lat="44.80405" lon="-0.27226">
        <ele>97.099998474121</ele>
        <time>2011-05-08T08:48:27Z</time>
      </trkpt>
      <trkpt lat="44.80411" lon="-0.27226">
        <ele>97.099998474121</ele>
        <time>2011-05-08T08:48:28Z</time>
      </trkpt>
      <trkpt lat="44.80416" lon="-0.27226">
        <ele>96.900001525879</ele>
        <time>2011-05-08T08:48:29Z</time>
      </trkpt>
      <trkpt lat="44.80422" lon="-0.27226">
        <ele>97.300003051758</ele>
        <time>2011-05-08T08:48:30Z</time>
      </trkpt>
      <trkpt lat="44.80428" lon="-0.27227">
        <ele>97.400001525879</ele>
        <time>2011-05-08T08:48:31Z</time>
      </trkpt>
      <trkpt lat="44.80434" lon="-0.27228">
        <ele>97.199996948242</ele>
        <time>2011-05-08T08:48:32Z</time>
      </trkpt>
      <trkpt lat="44.80439" lon="-0.27229">
        <ele>96.900001525879</ele>
        <time>2011-05-08T08:48:33Z</time>
      </trkpt>
      <trkpt lat="44.80445" lon="-0.2723">
        <ele>96.599998474121</ele>
        <time>2011-05-08T08:48:34Z</time>
      </trkpt>
      <trkpt lat="44.8045" lon="-0.2723">
        <ele>96.599998474121</ele>
        <time>2011-05-08T08:48:35Z</time>
      </trkpt>
      <trkpt lat="44.80456" lon="-0.27229">
        <ele>96.199996948242</ele>
        <time>2011-05-08T08:48:36Z</time>
      </trkpt>
      <trkpt lat="44.80461" lon="-0.27231">
        <ele>97.199996948242</ele>
        <time>2011-05-08T08:48:37Z</time>
      </trkpt>
      <trkpt lat="44.80466" lon="-0.2723">
        <ele>97</ele>
        <time>2011-05-08T08:48:38Z</time>
      </trkpt>
      <trkpt lat="44.80471" lon="-0.2723">
        <ele>97.199996948242</ele>
        <time>2011-05-08T08:48:39Z</time>
      </trkpt>
      <trkpt lat="44.80477" lon="-0.27229">
        <ele>97.199996948242</ele>
        <time>2011-05-08T08:48:40Z</time>
      </trkpt>
      <trkpt lat="44.80483" lon="-0.27232">
        <ele>96.900001525879</ele>
        <time>2011-05-08T08:48:41Z</time>
      </trkpt>
      <trkpt lat="44.80489" lon="-0.27235">
        <ele>96.400001525879</ele>
        <time>2011-05-08T08:48:42Z</time>
      </trkpt>
      <trkpt lat="44.80494" lon="-0.27239">
        <ele>95.800003051758</ele>
        <time>2011-05-08T08:48:43Z</time>
      </trkpt>
      <trkpt lat="44.80504" lon="-0.27248">
        <ele>95.800003051758</ele>
        <time>2011-05-08T08:48:45Z</time>
      </trkpt>
      <trkpt lat="44.80508" lon="-0.27252">
        <ele>95.699996948242</ele>
        <time>2011-05-08T08:48:46Z</time>
      </trkpt>
      <trkpt lat="44.80512" lon="-0.27255">
        <ele>96</ele>
        <time>2011-05-08T08:48:47Z</time>
      </trkpt>
      <trkpt lat="44.80517" lon="-0.27261">
        <ele>96</ele>
        <time>2011-05-08T08:48:48Z</time>
      </trkpt>
      <trkpt lat="44.80521" lon="-0.27265">
        <ele>96.300003051758</ele>
        <time>2011-05-08T08:48:49Z</time>
      </trkpt>
      <trkpt lat="44.80525" lon="-0.2727">
        <ele>96.599998474121</ele>
        <time>2011-05-08T08:48:50Z</time>
      </trkpt>
      <trkpt lat="44.80529" lon="-0.27276">
        <ele>96.5</ele>
        <time>2011-05-08T08:48:51Z</time>
      </trkpt>
      <trkpt lat="44.80532" lon="-0.27282">
        <ele>96.099998474121</ele>
        <time>2011-05-08T08:48:52Z</time>
      </trkpt>
      <trkpt lat="44.80535" lon="-0.27287">
        <ele>96.300003051758</ele>
        <time>2011-05-08T08:48:53Z</time>
      </trkpt>
      <trkpt lat="44.8054" lon="-0.27283">
        <ele>95.800003051758</ele>
        <time>2011-05-08T08:48:57Z</time>
      </trkpt>
      <trkpt lat="44.80539" lon="-0.27273">
        <ele>95.199996948242</ele>
        <time>2011-05-08T08:48:59Z</time>
      </trkpt>
      <trkpt lat="44.80535" lon="-0.27264">
        <ele>95.099998474121</ele>
        <time>2011-05-08T08:49:01Z</time>
      </trkpt>
      <trkpt lat="44.80534" lon="-0.27253">
        <ele>94.599998474121</ele>
        <time>2011-05-08T08:49:03Z</time>
      </trkpt>
      <trkpt lat="44.80538" lon="-0.27243">
        <ele>94.800003051758</ele>
        <time>2011-05-08T08:49:05Z</time>
      </trkpt>
      <trkpt lat="44.80537" lon="-0.27235">
        <ele>94.300003051758</ele>
        <time>2011-05-08T08:49:06Z</time>
      </trkpt>
      <trkpt lat="44.80539" lon="-0.27224">
        <ele>94.400001525879</ele>
        <time>2011-05-08T08:49:07Z</time>
      </trkpt>
      <trkpt lat="44.8054" lon="-0.27216">
        <ele>94.099998474121</ele>
        <time>2011-05-08T08:49:08Z</time>
      </trkpt>
      <trkpt lat="44.8054" lon="-0.27207">
        <ele>93.300003051758</ele>
        <time>2011-05-08T08:49:09Z</time>
      </trkpt>
      <trkpt lat="44.8054" lon="-0.272">
        <ele>92.900001525879</ele>
        <time>2011-05-08T08:49:10Z</time>
      </trkpt>
      <trkpt lat="44.8054" lon="-0.27192">
        <ele>92.800003051758</ele>
        <time>2011-05-08T08:49:11Z</time>
      </trkpt>
      <trkpt lat="44.80541" lon="-0.27186">
        <ele>92.5</ele>
        <time>2011-05-08T08:49:12Z</time>
      </trkpt>
      <trkpt lat="44.80543" lon="-0.27176">
        <ele>92.300003051758</ele>
        <time>2011-05-08T08:49:13Z</time>
      </trkpt>
      <trkpt lat="44.80545" lon="-0.27168">
        <ele>92.400001525879</ele>
        <time>2011-05-08T08:49:14Z</time>
      </trkpt>
      <trkpt lat="44.80551" lon="-0.2715">
        <ele>91.599998474121</ele>
        <time>2011-05-08T08:49:16Z</time>
      </trkpt>
      <trkpt lat="44.80553" lon="-0.27143">
        <ele>91.5</ele>
        <time>2011-05-08T08:49:17Z</time>
      </trkpt>
      <trkpt lat="44.80556" lon="-0.27137">
        <ele>91.599998474121</ele>
        <time>2011-05-08T08:49:18Z</time>
      </trkpt>
      <trkpt lat="44.80559" lon="-0.2713">
        <ele>91.400001525879</ele>
        <time>2011-05-08T08:49:19Z</time>
      </trkpt>
      <trkpt lat="44.80567" lon="-0.2712">
        <ele>91.199996948242</ele>
        <time>2011-05-08T08:49:20Z</time>
      </trkpt>
      <trkpt lat="44.80572" lon="-0.27115">
        <ele>91.699996948242</ele>
        <time>2011-05-08T08:49:21Z</time>
      </trkpt>
      <trkpt lat="44.80578" lon="-0.27104">
        <ele>91.599998474121</ele>
        <time>2011-05-08T08:49:23Z</time>
      </trkpt>
      <trkpt lat="44.80581" lon="-0.27095">
        <ele>91</ele>
        <time>2011-05-08T08:49:25Z</time>
      </trkpt>
      <trkpt lat="44.80585" lon="-0.27085">
        <ele>90.400001525879</ele>
        <time>2011-05-08T08:49:26Z</time>
      </trkpt>
      <trkpt lat="44.80586" lon="-0.27078">
        <ele>89.900001525879</ele>
        <time>2011-05-08T08:49:27Z</time>
      </trkpt>
      <trkpt lat="44.80588" lon="-0.27069">
        <ele>90.5</ele>
        <time>2011-05-08T08:49:29Z</time>
      </trkpt>
      <trkpt lat="44.80591" lon="-0.27063">
        <ele>89.900001525879</ele>
        <time>2011-05-08T08:49:30Z</time>
      </trkpt>
      <trkpt lat="44.80593" lon="-0.27055">
        <ele>89.900001525879</ele>
        <time>2011-05-08T08:49:32Z</time>
      </trkpt>
      <trkpt lat="44.80596" lon="-0.27048">
        <ele>89.699996948242</ele>
        <time>2011-05-08T08:49:33Z</time>
      </trkpt>
      <trkpt lat="44.80599" lon="-0.27041">
        <ele>89.400001525879</ele>
        <time>2011-05-08T08:49:34Z</time>
      </trkpt>
      <trkpt lat="44.80605" lon="-0.27033">
        <ele>89.599998474121</ele>
        <time>2011-05-08T08:49:35Z</time>
      </trkpt>
      <trkpt lat="44.8061" lon="-0.27025">
        <ele>89.599998474121</ele>
        <time>2011-05-08T08:49:36Z</time>
      </trkpt>
      <trkpt lat="44.80616" lon="-0.27017">
        <ele>89.599998474121</ele>
        <time>2011-05-08T08:49:37Z</time>
      </trkpt>
      <trkpt lat="44.80624" lon="-0.27009">
        <ele>89.099998474121</ele>
        <time>2011-05-08T08:49:38Z</time>
      </trkpt>
      <trkpt lat="44.80632" lon="-0.27005">
        <ele>88.900001525879</ele>
        <time>2011-05-08T08:49:39Z</time>
      </trkpt>
      <trkpt lat="44.80641" lon="-0.27001">
        <ele>88.900001525879</ele>
        <time>2011-05-08T08:49:40Z</time>
      </trkpt>
      <trkpt lat="44.80647" lon="-0.27">
        <ele>88.800003051758</ele>
        <time>2011-05-08T08:49:41Z</time>
      </trkpt>
      <trkpt lat="44.80652" lon="-0.27001">
        <ele>88.900001525879</ele>
        <time>2011-05-08T08:49:42Z</time>
      </trkpt>
      <trkpt lat="44.80657" lon="-0.27004">
        <ele>89</ele>
        <time>2011-05-08T08:49:43Z</time>
      </trkpt>
      <trkpt lat="44.80667" lon="-0.27003">
        <ele>88.900001525879</ele>
        <time>2011-05-08T08:49:45Z</time>
      </trkpt>
      <trkpt lat="44.80672" lon="-0.27003">
        <ele>88.900001525879</ele>
        <time>2011-05-08T08:49:46Z</time>
      </trkpt>
      <trkpt lat="44.80678" lon="-0.27002">
        <ele>88.400001525879</ele>
        <time>2011-05-08T08:49:47Z</time>
      </trkpt>
      <trkpt lat="44.80683" lon="-0.27">
        <ele>88.599998474121</ele>
        <time>2011-05-08T08:49:48Z</time>
      </trkpt>
      <trkpt lat="44.80688" lon="-0.26999">
        <ele>88.5</ele>
        <time>2011-05-08T08:49:49Z</time>
      </trkpt>
      <trkpt lat="44.80694" lon="-0.26999">
        <ele>88.699996948242</ele>
        <time>2011-05-08T08:49:50Z</time>
      </trkpt>
      <trkpt lat="44.80701" lon="-0.26993">
        <ele>88.900001525879</ele>
        <time>2011-05-08T08:49:52Z</time>
      </trkpt>
      <trkpt lat="44.80708" lon="-0.26991">
        <ele>88.599998474121</ele>
        <time>2011-05-08T08:49:54Z</time>
      </trkpt>
      <trkpt lat="44.80713" lon="-0.26989">
        <ele>88.800003051758</ele>
        <time>2011-05-08T08:49:55Z</time>
      </trkpt>
      <trkpt lat="44.80722" lon="-0.26989">
        <ele>88.800003051758</ele>
        <time>2011-05-08T08:49:57Z</time>
      </trkpt>
      <trkpt lat="44.80726" lon="-0.26988">
        <ele>89.5</ele>
        <time>2011-05-08T08:49:58Z</time>
      </trkpt>
      <trkpt lat="44.80732" lon="-0.26987">
        <ele>89.300003051758</ele>
        <time>2011-05-08T08:50:00Z</time>
      </trkpt>
      <trkpt lat="44.8074" lon="-0.26987">
        <ele>89.300003051758</ele>
        <time>2011-05-08T08:50:02Z</time>
      </trkpt>
      <trkpt lat="44.80749" lon="-0.26989">
        <ele>90.300003051758</ele>
        <time>2011-05-08T08:50:04Z</time>
      </trkpt>
      <trkpt lat="44.80757" lon="-0.26992">
        <ele>90.099998474121</ele>
        <time>2011-05-08T08:50:06Z</time>
      </trkpt>
      <trkpt lat="44.80762" lon="-0.26993">
        <ele>90.099998474121</ele>
        <time>2011-05-08T08:50:07Z</time>
      </trkpt>
      <trkpt lat="44.80766" lon="-0.26993">
        <ele>91</ele>
        <time>2011-05-08T08:50:08Z</time>
      </trkpt>
      <trkpt lat="44.80777" lon="-0.26995">
        <ele>91.400001525879</ele>
        <time>2011-05-08T08:50:10Z</time>
      </trkpt>
      <trkpt lat="44.80782" lon="-0.26997">
        <ele>91.400001525879</ele>
        <time>2011-05-08T08:50:11Z</time>
      </trkpt>
      <trkpt lat="44.80787" lon="-0.26997">
        <ele>91.199996948242</ele>
        <time>2011-05-08T08:50:12Z</time>
      </trkpt>
      <trkpt lat="44.80793" lon="-0.26998">
        <ele>90.900001525879</ele>
        <time>2011-05-08T08:50:13Z</time>
      </trkpt>
      <trkpt lat="44.80798" lon="-0.27">
        <ele>91.199996948242</ele>
        <time>2011-05-08T08:50:14Z</time>
      </trkpt>
      <trkpt lat="44.80803" lon="-0.27001">
        <ele>91.5</ele>
        <time>2011-05-08T08:50:15Z</time>
      </trkpt>
      <trkpt lat="44.80809" lon="-0.27">
        <ele>91.699996948242</ele>
        <time>2011-05-08T08:50:16Z</time>
      </trkpt>
      <trkpt lat="44.80815" lon="-0.27009">
        <ele>91.699996948242</ele>
        <time>2011-05-08T08:50:17Z</time>
      </trkpt>
      <trkpt lat="44.80821" lon="-0.2701">
        <ele>92.099998474121</ele>
        <time>2011-05-08T08:50:18Z</time>
      </trkpt>
      <trkpt lat="44.80828" lon="-0.27014">
        <ele>91.900001525879</ele>
        <time>2011-05-08T08:50:19Z</time>
      </trkpt>
      <trkpt lat="44.80834" lon="-0.27018">
        <ele>92.5</ele>
        <time>2011-05-08T08:50:20Z</time>
      </trkpt>
      <trkpt lat="44.80839" lon="-0.27022">
        <ele>92.400001525879</ele>
        <time>2011-05-08T08:50:21Z</time>
      </trkpt>
      <trkpt lat="44.80843" lon="-0.27027">
        <ele>92.800003051758</ele>
        <time>2011-05-08T08:50:22Z</time>
      </trkpt>
      <trkpt lat="44.80849" lon="-0.27034">
        <ele>92.5</ele>
        <time>2011-05-08T08:50:23Z</time>
      </trkpt>
      <trkpt lat="44.80854" lon="-0.27037">
        <ele>92.699996948242</ele>
        <time>2011-05-08T08:50:24Z</time>
      </trkpt>
      <trkpt lat="44.8086" lon="-0.2704">
        <ele>92.599998474121</ele>
        <time>2011-05-08T08:50:25Z</time>
      </trkpt>
      <trkpt lat="44.80865" lon="-0.27042">
        <ele>92.800003051758</ele>
        <time>2011-05-08T08:50:26Z</time>
      </trkpt>
      <trkpt lat="44.8087" lon="-0.27044">
        <ele>92.699996948242</ele>
        <time>2011-05-08T08:50:27Z</time>
      </trkpt>
      <trkpt lat="44.80876" lon="-0.27044">
        <ele>93.300003051758</ele>
        <time>2011-05-08T08:50:29Z</time>
      </trkpt>
      <trkpt lat="44.8088" lon="-0.27051">
        <ele>94.400001525879</ele>
        <time>2011-05-08T08:50:31Z</time>
      </trkpt>
      <trkpt lat="44.80883" lon="-0.27056">
        <ele>93</ele>
        <time>2011-05-08T08:50:32Z</time>
      </trkpt>
      <trkpt lat="44.80888" lon="-0.27064">
        <ele>91.599998474121</ele>
        <time>2011-05-08T08:50:34Z</time>
      </trkpt>
      <trkpt lat="44.8089" lon="-0.27073">
        <ele>91.900001525879</ele>
        <time>2011-05-08T08:50:36Z</time>
      </trkpt>
      <trkpt lat="44.80894" lon="-0.2708">
        <ele>90</ele>
        <time>2011-05-08T08:50:38Z</time>
      </trkpt>
      <trkpt lat="44.80898" lon="-0.27086">
        <ele>88.900001525879</ele>
        <time>2011-05-08T08:50:41Z</time>
      </trkpt>
      <trkpt lat="44.80904" lon="-0.27088">
        <ele>88.099998474121</ele>
        <time>2011-05-08T08:50:43Z</time>
      </trkpt>
      <trkpt lat="44.80911" lon="-0.27087">
        <ele>87.5</ele>
        <time>2011-05-08T08:50:45Z</time>
      </trkpt>
      <trkpt lat="44.80917" lon="-0.27085">
        <ele>89.199996948242</ele>
        <time>2011-05-08T08:50:47Z</time>
      </trkpt>
      <trkpt lat="44.80924" lon="-0.27084">
        <ele>88.300003051758</ele>
        <time>2011-05-08T08:50:49Z</time>
      </trkpt>
      <trkpt lat="44.8093" lon="-0.27081">
        <ele>89.599998474121</ele>
        <time>2011-05-08T08:50:51Z</time>
      </trkpt>
      <trkpt lat="44.80936" lon="-0.27077">
        <ele>90.800003051758</ele>
        <time>2011-05-08T08:50:53Z</time>
      </trkpt>
      <trkpt lat="44.80944" lon="-0.27071">
        <ele>91.599998474121</ele>
        <time>2011-05-08T08:50:55Z</time>
      </trkpt>
      <trkpt lat="44.80947" lon="-0.27065">
        <ele>91.699996948242</ele>
        <time>2011-05-08T08:50:56Z</time>
      </trkpt>
      <trkpt lat="44.80952" lon="-0.2706">
        <ele>92.199996948242</ele>
        <time>2011-05-08T08:50:57Z</time>
      </trkpt>
      <trkpt lat="44.80957" lon="-0.27055">
        <ele>92</ele>
        <time>2011-05-08T08:50:58Z</time>
      </trkpt>
      <trkpt lat="44.80962" lon="-0.2705">
        <ele>91.900001525879</ele>
        <time>2011-05-08T08:50:59Z</time>
      </trkpt>
      <trkpt lat="44.80969" lon="-0.27046">
        <ele>91.599998474121</ele>
        <time>2011-05-08T08:51:00Z</time>
      </trkpt>
      <trkpt lat="44.80975" lon="-0.27045">
        <ele>91.900001525879</ele>
        <time>2011-05-08T08:51:01Z</time>
      </trkpt>
      <trkpt lat="44.80981" lon="-0.27044">
        <ele>91.800003051758</ele>
        <time>2011-05-08T08:51:02Z</time>
      </trkpt>
      <trkpt lat="44.80987" lon="-0.27046">
        <ele>91.800003051758</ele>
        <time>2011-05-08T08:51:03Z</time>
      </trkpt>
      <trkpt lat="44.80994" lon="-0.27048">
        <ele>91.800003051758</ele>
        <time>2011-05-08T08:51:04Z</time>
      </trkpt>
      <trkpt lat="44.81002" lon="-0.27049">
        <ele>91.099998474121</ele>
        <time>2011-05-08T08:51:05Z</time>
      </trkpt>
      <trkpt lat="44.81007" lon="-0.27048">
        <ele>90.800003051758</ele>
        <time>2011-05-08T08:51:06Z</time>
      </trkpt>
      <trkpt lat="44.81012" lon="-0.27043">
        <ele>90.699996948242</ele>
        <time>2011-05-08T08:51:07Z</time>
      </trkpt>
      <trkpt lat="44.81019" lon="-0.27038">
        <ele>90.699996948242</ele>
        <time>2011-05-08T08:51:09Z</time>
      </trkpt>
      <trkpt lat="44.81027" lon="-0.27034">
        <ele>90.5</ele>
        <time>2011-05-08T08:51:11Z</time>
      </trkpt>
      <trkpt lat="44.81034" lon="-0.27033">
        <ele>90.699996948242</ele>
        <time>2011-05-08T08:51:13Z</time>
      </trkpt>
      <trkpt lat="44.8104" lon="-0.27028">
        <ele>90.400001525879</ele>
        <time>2011-05-08T08:51:15Z</time>
      </trkpt>
      <trkpt lat="44.81041" lon="-0.2702">
        <ele>89.900001525879</ele>
        <time>2011-05-08T08:51:17Z</time>
      </trkpt>
      <trkpt lat="44.81045" lon="-0.27011">
        <ele>89.300003051758</ele>
        <time>2011-05-08T08:51:19Z</time>
      </trkpt>
      <trkpt lat="44.81048" lon="-0.27004">
        <ele>89.199996948242</ele>
        <time>2011-05-08T08:51:20Z</time>
      </trkpt>
      <trkpt lat="44.81051" lon="-0.26994">
        <ele>89.400001525879</ele>
        <time>2011-05-08T08:51:22Z</time>
      </trkpt>
      <trkpt lat="44.81055" lon="-0.26981">
        <ele>89.400001525879</ele>
        <time>2011-05-08T08:51:24Z</time>
      </trkpt>
      <trkpt lat="44.81058" lon="-0.26973">
        <ele>89.599998474121</ele>
        <time>2011-05-08T08:51:25Z</time>
      </trkpt>
      <trkpt lat="44.81062" lon="-0.26964">
        <ele>88.300003051758</ele>
        <time>2011-05-08T08:51:26Z</time>
      </trkpt>
      <trkpt lat="44.81065" lon="-0.26955">
        <ele>87.400001525879</ele>
        <time>2011-05-08T08:51:27Z</time>
      </trkpt>
      <trkpt lat="44.81067" lon="-0.26948">
        <ele>87.5</ele>
        <time>2011-05-08T08:51:28Z</time>
      </trkpt>
      <trkpt lat="44.81069" lon="-0.26939">
        <ele>87.300003051758</ele>
        <time>2011-05-08T08:51:29Z</time>
      </trkpt>
      <trkpt lat="44.81072" lon="-0.26932">
        <ele>87.400001525879</ele>
        <time>2011-05-08T08:51:30Z</time>
      </trkpt>
      <trkpt lat="44.81074" lon="-0.26926">
        <ele>87.5</ele>
        <time>2011-05-08T08:51:31Z</time>
      </trkpt>
      <trkpt lat="44.81077" lon="-0.2692">
        <ele>87.599998474121</ele>
        <time>2011-05-08T08:51:32Z</time>
      </trkpt>
      <trkpt lat="44.81081" lon="-0.26913">
        <ele>86.400001525879</ele>
        <time>2011-05-08T08:51:34Z</time>
      </trkpt>
      <trkpt lat="44.81082" lon="-0.26906">
        <ele>85.800003051758</ele>
        <time>2011-05-08T08:51:36Z</time>
      </trkpt>
      <trkpt lat="44.81086" lon="-0.26897">
        <ele>86.300003051758</ele>
        <time>2011-05-08T08:51:38Z</time>
      </trkpt>
      <trkpt lat="44.81088" lon="-0.26891">
        <ele>86.599998474121</ele>
        <time>2011-05-08T08:51:39Z</time>
      </trkpt>
      <trkpt lat="44.81092" lon="-0.26883">
        <ele>86.400001525879</ele>
        <time>2011-05-08T08:51:41Z</time>
      </trkpt>
      <trkpt lat="44.81097" lon="-0.26879">
        <ele>83.699996948242</ele>
        <time>2011-05-08T08:51:45Z</time>
      </trkpt>
      <trkpt lat="44.81105" lon="-0.26872">
        <ele>83.400001525879</ele>
        <time>2011-05-08T08:52:08Z</time>
      </trkpt>
      <trkpt lat="44.81113" lon="-0.26865">
        <ele>84.199996948242</ele>
        <time>2011-05-08T08:52:09Z</time>
      </trkpt>
      <trkpt lat="44.81119" lon="-0.2686">
        <ele>83.699996948242</ele>
        <time>2011-05-08T08:52:10Z</time>
      </trkpt>
      <trkpt lat="44.81124" lon="-0.26857">
        <ele>84.5</ele>
        <time>2011-05-08T08:52:11Z</time>
      </trkpt>
      <trkpt lat="44.81129" lon="-0.26854">
        <ele>84.300003051758</ele>
        <time>2011-05-08T08:52:12Z</time>
      </trkpt>
      <trkpt lat="44.81135" lon="-0.26853">
        <ele>84.699996948242</ele>
        <time>2011-05-08T08:52:14Z</time>
      </trkpt>
      <trkpt lat="44.81141" lon="-0.26854">
        <ele>85</ele>
        <time>2011-05-08T08:52:16Z</time>
      </trkpt>
      <trkpt lat="44.81149" lon="-0.26853">
        <ele>84.5</ele>
        <time>2011-05-08T08:52:19Z</time>
      </trkpt>
      <trkpt lat="44.81154" lon="-0.26852">
        <ele>85.400001525879</ele>
        <time>2011-05-08T08:52:21Z</time>
      </trkpt>
      <trkpt lat="44.81159" lon="-0.26855">
        <ele>86.199996948242</ele>
        <time>2011-05-08T08:52:24Z</time>
      </trkpt>
      <trkpt lat="44.81164" lon="-0.26856">
        <ele>87.300003051758</ele>
        <time>2011-05-08T08:52:27Z</time>
      </trkpt>
      <trkpt lat="44.81167" lon="-0.2686">
        <ele>87.099998474121</ele>
        <time>2011-05-08T08:52:30Z</time>
      </trkpt>
      <trkpt lat="44.81171" lon="-0.26865">
        <ele>88.199996948242</ele>
        <time>2011-05-08T08:52:33Z</time>
      </trkpt>
      <trkpt lat="44.81175" lon="-0.26871">
        <ele>87.099998474121</ele>
        <time>2011-05-08T08:52:35Z</time>
      </trkpt>
      <trkpt lat="44.81178" lon="-0.26876">
        <ele>86.099998474121</ele>
        <time>2011-05-08T08:52:37Z</time>
      </trkpt>
      <trkpt lat="44.81182" lon="-0.26882">
        <ele>86.5</ele>
        <time>2011-05-08T08:52:41Z</time>
      </trkpt>
      <trkpt lat="44.8119" lon="-0.26888">
        <ele>87.699996948242</ele>
        <time>2011-05-08T08:52:45Z</time>
      </trkpt>
      <trkpt lat="44.81196" lon="-0.26888">
        <ele>87.800003051758</ele>
        <time>2011-05-08T08:52:48Z</time>
      </trkpt>
      <trkpt lat="44.81201" lon="-0.26893">
        <ele>89</ele>
        <time>2011-05-08T08:52:53Z</time>
      </trkpt>
      <trkpt lat="44.81205" lon="-0.26901">
        <ele>88</ele>
        <time>2011-05-08T08:52:56Z</time>
      </trkpt>
      <trkpt lat="44.81211" lon="-0.26903">
        <ele>87.800003051758</ele>
        <time>2011-05-08T08:52:59Z</time>
      </trkpt>
      <trkpt lat="44.81217" lon="-0.26908">
        <ele>90.099998474121</ele>
        <time>2011-05-08T08:53:02Z</time>
      </trkpt>
      <trkpt lat="44.81224" lon="-0.26912">
        <ele>90.5</ele>
        <time>2011-05-08T08:53:04Z</time>
      </trkpt>
      <trkpt lat="44.81229" lon="-0.26918">
        <ele>91.400001525879</ele>
        <time>2011-05-08T08:53:06Z</time>
      </trkpt>
      <trkpt lat="44.81234" lon="-0.26922">
        <ele>91</ele>
        <time>2011-05-08T08:53:08Z</time>
      </trkpt>
      <trkpt lat="44.81239" lon="-0.26924">
        <ele>93</ele>
        <time>2011-05-08T08:53:10Z</time>
      </trkpt>
      <trkpt lat="44.81245" lon="-0.26925">
        <ele>94.699996948242</ele>
        <time>2011-05-08T08:53:12Z</time>
      </trkpt>
      <trkpt lat="44.81252" lon="-0.26928">
        <ele>95.400001525879</ele>
        <time>2011-05-08T08:53:15Z</time>
      </trkpt>
      <trkpt lat="44.81258" lon="-0.26932">
        <ele>95.199996948242</ele>
        <time>2011-05-08T08:53:17Z</time>
      </trkpt>
      <trkpt lat="44.81262" lon="-0.26934">
        <ele>95.5</ele>
        <time>2011-05-08T08:53:19Z</time>
      </trkpt>
      <trkpt lat="44.81267" lon="-0.26937">
        <ele>96.599998474121</ele>
        <time>2011-05-08T08:53:21Z</time>
      </trkpt>
      <trkpt lat="44.81272" lon="-0.26941">
        <ele>96.099998474121</ele>
        <time>2011-05-08T08:53:23Z</time>
      </trkpt>
      <trkpt lat="44.81277" lon="-0.26943">
        <ele>97.400001525879</ele>
        <time>2011-05-08T08:53:25Z</time>
      </trkpt>
      <trkpt lat="44.81284" lon="-0.26947">
        <ele>96.699996948242</ele>
        <time>2011-05-08T08:53:27Z</time>
      </trkpt>
      <trkpt lat="44.81289" lon="-0.26947">
        <ele>96.300003051758</ele>
        <time>2011-05-08T08:53:29Z</time>
      </trkpt>
      <trkpt lat="44.81293" lon="-0.26951">
        <ele>96.599998474121</ele>
        <time>2011-05-08T08:53:32Z</time>
      </trkpt>
      <trkpt lat="44.81297" lon="-0.26954">
        <ele>97.300003051758</ele>
        <time>2011-05-08T08:53:35Z</time>
      </trkpt>
      <trkpt lat="44.81303" lon="-0.26956">
        <ele>97.400001525879</ele>
        <time>2011-05-08T08:53:38Z</time>
      </trkpt>
      <trkpt lat="44.81307" lon="-0.26959">
        <ele>97.5</ele>
        <time>2011-05-08T08:53:40Z</time>
      </trkpt>
      <trkpt lat="44.81312" lon="-0.26962">
        <ele>97.800003051758</ele>
        <time>2011-05-08T08:53:42Z</time>
      </trkpt>
      <trkpt lat="44.8132" lon="-0.26967">
        <ele>96.599998474121</ele>
        <time>2011-05-08T08:53:45Z</time>
      </trkpt>
      <trkpt lat="44.81327" lon="-0.26972">
        <ele>96.800003051758</ele>
        <time>2011-05-08T08:53:48Z</time>
      </trkpt>
      <trkpt lat="44.81332" lon="-0.26976">
        <ele>97.300003051758</ele>
        <time>2011-05-08T08:53:50Z</time>
      </trkpt>
      <trkpt lat="44.81338" lon="-0.26979">
        <ele>97.699996948242</ele>
        <time>2011-05-08T08:53:52Z</time>
      </trkpt>
      <trkpt lat="44.81344" lon="-0.26983">
        <ele>97.199996948242</ele>
        <time>2011-05-08T08:53:54Z</time>
      </trkpt>
      <trkpt lat="44.81349" lon="-0.26985">
        <ele>97.300003051758</ele>
        <time>2011-05-08T08:53:56Z</time>
      </trkpt>
      <trkpt lat="44.81355" lon="-0.26988">
        <ele>97</ele>
        <time>2011-05-08T08:53:58Z</time>
      </trkpt>
      <trkpt lat="44.81361" lon="-0.26991">
        <ele>98.5</ele>
        <time>2011-05-08T08:54:00Z</time>
      </trkpt>
      <trkpt lat="44.81366" lon="-0.26991">
        <ele>98.900001525879</ele>
        <time>2011-05-08T08:54:02Z</time>
      </trkpt>
      <trkpt lat="44.81371" lon="-0.26988">
        <ele>99.199996948242</ele>
        <time>2011-05-08T08:54:04Z</time>
      </trkpt>
      <trkpt lat="44.81378" lon="-0.26988">
        <ele>99</ele>
        <time>2011-05-08T08:54:06Z</time>
      </trkpt>
      <trkpt lat="44.81384" lon="-0.26995">
        <ele>99.599998474121</ele>
        <time>2011-05-08T08:54:09Z</time>
      </trkpt>
      <trkpt lat="44.81388" lon="-0.27001">
        <ele>99.599998474121</ele>
        <time>2011-05-08T08:54:12Z</time>
      </trkpt>
      <trkpt lat="44.81392" lon="-0.27006">
        <ele>99.699996948242</ele>
        <time>2011-05-08T08:54:14Z</time>
      </trkpt>
      <trkpt lat="44.81398" lon="-0.27013">
        <ele>100.40000152588</ele>
        <time>2011-05-08T08:54:17Z</time>
      </trkpt>
      <trkpt lat="44.814" lon="-0.27018">
        <ele>100.09999847412</ele>
        <time>2011-05-08T08:54:19Z</time>
      </trkpt>
      <trkpt lat="44.81403" lon="-0.27025">
        <ele>100.80000305176</ele>
        <time>2011-05-08T08:54:21Z</time>
      </trkpt>
      <trkpt lat="44.81407" lon="-0.27032">
        <ele>100.80000305176</ele>
        <time>2011-05-08T08:54:23Z</time>
      </trkpt>
      <trkpt lat="44.8141" lon="-0.27041">
        <ele>102</ele>
        <time>2011-05-08T08:54:26Z</time>
      </trkpt>
      <trkpt lat="44.81412" lon="-0.27047">
        <ele>102.30000305176</ele>
        <time>2011-05-08T08:54:28Z</time>
      </trkpt>
      <trkpt lat="44.81414" lon="-0.27055">
        <ele>103.69999694824</ele>
        <time>2011-05-08T08:54:32Z</time>
      </trkpt>
      <trkpt lat="44.81417" lon="-0.27064">
        <ele>104.09999847412</ele>
        <time>2011-05-08T08:54:34Z</time>
      </trkpt>
      <trkpt lat="44.81421" lon="-0.27073">
        <ele>104.40000152588</ele>
        <time>2011-05-08T08:54:36Z</time>
      </trkpt>
      <trkpt lat="44.81425" lon="-0.27079">
        <ele>104.69999694824</ele>
        <time>2011-05-08T08:54:38Z</time>
      </trkpt>
      <trkpt lat="44.81428" lon="-0.27086">
        <ele>105.80000305176</ele>
        <time>2011-05-08T08:54:40Z</time>
      </trkpt>
      <trkpt lat="44.81431" lon="-0.27092">
        <ele>106</ele>
        <time>2011-05-08T08:54:42Z</time>
      </trkpt>
      <trkpt lat="44.81435" lon="-0.27101">
        <ele>107.09999847412</ele>
        <time>2011-05-08T08:54:45Z</time>
      </trkpt>
      <trkpt lat="44.81437" lon="-0.27109">
        <ele>107.30000305176</ele>
        <time>2011-05-08T08:54:47Z</time>
      </trkpt>
      <trkpt lat="44.8144" lon="-0.27117">
        <ele>107.80000305176</ele>
        <time>2011-05-08T08:54:49Z</time>
      </trkpt>
      <trkpt lat="44.81443" lon="-0.27125">
        <ele>108</ele>
        <time>2011-05-08T08:54:51Z</time>
      </trkpt>
      <trkpt lat="44.81447" lon="-0.2713">
        <ele>108.30000305176</ele>
        <time>2011-05-08T08:54:53Z</time>
      </trkpt>
      <trkpt lat="44.81452" lon="-0.27135">
        <ele>109.40000152588</ele>
        <time>2011-05-08T08:54:55Z</time>
      </trkpt>
      <trkpt lat="44.81457" lon="-0.2714">
        <ele>109.19999694824</ele>
        <time>2011-05-08T08:54:57Z</time>
      </trkpt>
      <trkpt lat="44.8146" lon="-0.27149">
        <ele>108.80000305176</ele>
        <time>2011-05-08T08:54:59Z</time>
      </trkpt>
      <trkpt lat="44.81462" lon="-0.27155">
        <ele>108.40000152588</ele>
        <time>2011-05-08T08:55:01Z</time>
      </trkpt>
      <trkpt lat="44.81466" lon="-0.2716">
        <ele>108</ele>
        <time>2011-05-08T08:55:03Z</time>
      </trkpt>
      <trkpt lat="44.8147" lon="-0.27169">
        <ele>107.80000305176</ele>
        <time>2011-05-08T08:55:05Z</time>
      </trkpt>
      <trkpt lat="44.81473" lon="-0.27178">
        <ele>107.80000305176</ele>
        <time>2011-05-08T08:55:07Z</time>
      </trkpt>
      <trkpt lat="44.81477" lon="-0.27183">
        <ele>107.80000305176</ele>
        <time>2011-05-08T08:55:09Z</time>
      </trkpt>
      <trkpt lat="44.81479" lon="-0.27191">
        <ele>108.80000305176</ele>
        <time>2011-05-08T08:55:11Z</time>
      </trkpt>
      <trkpt lat="44.81483" lon="-0.27197">
        <ele>109.69999694824</ele>
        <time>2011-05-08T08:55:13Z</time>
      </trkpt>
      <trkpt lat="44.81486" lon="-0.27205">
        <ele>109.90000152588</ele>
        <time>2011-05-08T08:55:15Z</time>
      </trkpt>
      <trkpt lat="44.81489" lon="-0.27214">
        <ele>109.69999694824</ele>
        <time>2011-05-08T08:55:17Z</time>
      </trkpt>
      <trkpt lat="44.81492" lon="-0.27223">
        <ele>109.40000152588</ele>
        <time>2011-05-08T08:55:19Z</time>
      </trkpt>
      <trkpt lat="44.81494" lon="-0.27231">
        <ele>109</ele>
        <time>2011-05-08T08:55:21Z</time>
      </trkpt>
      <trkpt lat="44.81496" lon="-0.27239">
        <ele>109.69999694824</ele>
        <time>2011-05-08T08:55:23Z</time>
      </trkpt>
      <trkpt lat="44.81497" lon="-0.2725">
        <ele>110.40000152588</ele>
        <time>2011-05-08T08:55:25Z</time>
      </trkpt>
      <trkpt lat="44.81498" lon="-0.27257">
        <ele>111</ele>
        <time>2011-05-08T08:55:26Z</time>
      </trkpt>
      <trkpt lat="44.81501" lon="-0.27266">
        <ele>109.90000152588</ele>
        <time>2011-05-08T08:55:27Z</time>
      </trkpt>
      <trkpt lat="44.81503" lon="-0.27278">
        <ele>110</ele>
        <time>2011-05-08T08:55:29Z</time>
      </trkpt>
      <trkpt lat="44.81506" lon="-0.27285">
        <ele>110.59999847412</ele>
        <time>2011-05-08T08:55:30Z</time>
      </trkpt>
      <trkpt lat="44.81508" lon="-0.27296">
        <ele>110.40000152588</ele>
        <time>2011-05-08T08:55:32Z</time>
      </trkpt>
      <trkpt lat="44.81508" lon="-0.27303">
        <ele>109.90000152588</ele>
        <time>2011-05-08T08:55:33Z</time>
      </trkpt>
      <trkpt lat="44.81509" lon="-0.2731">
        <ele>109.80000305176</ele>
        <time>2011-05-08T08:55:34Z</time>
      </trkpt>
      <trkpt lat="44.8151" lon="-0.27315">
        <ele>109.80000305176</ele>
        <time>2011-05-08T08:55:35Z</time>
      </trkpt>
      <trkpt lat="44.81512" lon="-0.27324">
        <ele>110</ele>
        <time>2011-05-08T08:55:36Z</time>
      </trkpt>
      <trkpt lat="44.81513" lon="-0.27331">
        <ele>109.5</ele>
        <time>2011-05-08T08:55:37Z</time>
      </trkpt>
      <trkpt lat="44.81514" lon="-0.27338">
        <ele>108.59999847412</ele>
        <time>2011-05-08T08:55:38Z</time>
      </trkpt>
      <trkpt lat="44.81515" lon="-0.27345">
        <ele>108.30000305176</ele>
        <time>2011-05-08T08:55:39Z</time>
      </trkpt>
      <trkpt lat="44.81514" lon="-0.27355">
        <ele>107.90000152588</ele>
        <time>2011-05-08T08:55:41Z</time>
      </trkpt>
      <trkpt lat="44.81515" lon="-0.27364">
        <ele>107.40000152588</ele>
        <time>2011-05-08T08:55:42Z</time>
      </trkpt>
      <trkpt lat="44.81517" lon="-0.27373">
        <ele>107</ele>
        <time>2011-05-08T08:55:43Z</time>
      </trkpt>
      <trkpt lat="44.8152" lon="-0.27387">
        <ele>106.40000152588</ele>
        <time>2011-05-08T08:55:45Z</time>
      </trkpt>
      <trkpt lat="44.81522" lon="-0.27395">
        <ele>106.30000305176</ele>
        <time>2011-05-08T08:55:46Z</time>
      </trkpt>
      <trkpt lat="44.81523" lon="-0.27403">
        <ele>106.5</ele>
        <time>2011-05-08T08:55:47Z</time>
      </trkpt>
      <trkpt lat="44.81524" lon="-0.2741">
        <ele>106.5</ele>
        <time>2011-05-08T08:55:48Z</time>
      </trkpt>
      <trkpt lat="44.81527" lon="-0.27415">
        <ele>106.09999847412</ele>
        <time>2011-05-08T08:55:49Z</time>
      </trkpt>
      <trkpt lat="44.81528" lon="-0.27422">
        <ele>105.40000152588</ele>
        <time>2011-05-08T08:55:50Z</time>
      </trkpt>
      <trkpt lat="44.81529" lon="-0.27429">
        <ele>105.69999694824</ele>
        <time>2011-05-08T08:55:51Z</time>
      </trkpt>
      <trkpt lat="44.81531" lon="-0.27436">
        <ele>105.59999847412</ele>
        <time>2011-05-08T08:55:52Z</time>
      </trkpt>
      <trkpt lat="44.81532" lon="-0.27443">
        <ele>106.09999847412</ele>
        <time>2011-05-08T08:55:53Z</time>
      </trkpt>
      <trkpt lat="44.81533" lon="-0.2745">
        <ele>106.59999847412</ele>
        <time>2011-05-08T08:55:54Z</time>
      </trkpt>
      <trkpt lat="44.81534" lon="-0.27457">
        <ele>105.90000152588</ele>
        <time>2011-05-08T08:55:55Z</time>
      </trkpt>
      <trkpt lat="44.81535" lon="-0.27464">
        <ele>105.90000152588</ele>
        <time>2011-05-08T08:55:56Z</time>
      </trkpt>
      <trkpt lat="44.81536" lon="-0.2747">
        <ele>106.5</ele>
        <time>2011-05-08T08:55:57Z</time>
      </trkpt>
      <trkpt lat="44.81538" lon="-0.27482">
        <ele>107.5</ele>
        <time>2011-05-08T08:55:59Z</time>
      </trkpt>
      <trkpt lat="44.8154" lon="-0.27495">
        <ele>107.19999694824</ele>
        <time>2011-05-08T08:56:01Z</time>
      </trkpt>
      <trkpt lat="44.8154" lon="-0.27502">
        <ele>107.19999694824</ele>
        <time>2011-05-08T08:56:02Z</time>
      </trkpt>
      <trkpt lat="44.81542" lon="-0.27509">
        <ele>106.40000152588</ele>
        <time>2011-05-08T08:56:03Z</time>
      </trkpt>
      <trkpt lat="44.81544" lon="-0.27516">
        <ele>105.80000305176</ele>
        <time>2011-05-08T08:56:04Z</time>
      </trkpt>
      <trkpt lat="44.81546" lon="-0.27525">
        <ele>106.5</ele>
        <time>2011-05-08T08:56:05Z</time>
      </trkpt>
      <trkpt lat="44.81547" lon="-0.27532">
        <ele>106.59999847412</ele>
        <time>2011-05-08T08:56:06Z</time>
      </trkpt>
      <trkpt lat="44.81549" lon="-0.2754">
        <ele>105.90000152588</ele>
        <time>2011-05-08T08:56:07Z</time>
      </trkpt>
      <trkpt lat="44.8155" lon="-0.27547">
        <ele>105.80000305176</ele>
        <time>2011-05-08T08:56:08Z</time>
      </trkpt>
      <trkpt lat="44.81551" lon="-0.27554">
        <ele>104.80000305176</ele>
        <time>2011-05-08T08:56:09Z</time>
      </trkpt>
      <trkpt lat="44.81554" lon="-0.2756">
        <ele>104.40000152588</ele>
        <time>2011-05-08T08:56:10Z</time>
      </trkpt>
      <trkpt lat="44.81559" lon="-0.2757">
        <ele>103.90000152588</ele>
        <time>2011-05-08T08:56:12Z</time>
      </trkpt>
      <trkpt lat="44.81561" lon="-0.27576">
        <ele>103.80000305176</ele>
        <time>2011-05-08T08:56:13Z</time>
      </trkpt>
      <trkpt lat="44.81566" lon="-0.27587">
        <ele>104</ele>
        <time>2011-05-08T08:56:15Z</time>
      </trkpt>
      <trkpt lat="44.81567" lon="-0.27593">
        <ele>104</ele>
        <time>2011-05-08T08:56:16Z</time>
      </trkpt>
      <trkpt lat="44.81569" lon="-0.276">
        <ele>104.09999847412</ele>
        <time>2011-05-08T08:56:17Z</time>
      </trkpt>
      <trkpt lat="44.81571" lon="-0.27607">
        <ele>104.80000305176</ele>
        <time>2011-05-08T08:56:18Z</time>
      </trkpt>
      <trkpt lat="44.81573" lon="-0.27614">
        <ele>104.59999847412</ele>
        <time>2011-05-08T08:56:19Z</time>
      </trkpt>
      <trkpt lat="44.81574" lon="-0.27621">
        <ele>104.19999694824</ele>
        <time>2011-05-08T08:56:20Z</time>
      </trkpt>
      <trkpt lat="44.81575" lon="-0.27628">
        <ele>104.40000152588</ele>
        <time>2011-05-08T08:56:21Z</time>
      </trkpt>
      <trkpt lat="44.81578" lon="-0.27639">
        <ele>104.30000305176</ele>
        <time>2011-05-08T08:56:23Z</time>
      </trkpt>
      <trkpt lat="44.81579" lon="-0.27646">
        <ele>104.30000305176</ele>
        <time>2011-05-08T08:56:24Z</time>
      </trkpt>
      <trkpt lat="44.8158" lon="-0.27653">
        <ele>104.09999847412</ele>
        <time>2011-05-08T08:56:25Z</time>
      </trkpt>
      <trkpt lat="44.81581" lon="-0.27666">
        <ele>103.59999847412</ele>
        <time>2011-05-08T08:56:27Z</time>
      </trkpt>
      <trkpt lat="44.81582" lon="-0.27673">
        <ele>103.69999694824</ele>
        <time>2011-05-08T08:56:28Z</time>
      </trkpt>
      <trkpt lat="44.81583" lon="-0.27682">
        <ele>103.69999694824</ele>
        <time>2011-05-08T08:56:29Z</time>
      </trkpt>
      <trkpt lat="44.81584" lon="-0.27688">
        <ele>103.69999694824</ele>
        <time>2011-05-08T08:56:30Z</time>
      </trkpt>
      <trkpt lat="44.81584" lon="-0.27695">
        <ele>103.90000152588</ele>
        <time>2011-05-08T08:56:31Z</time>
      </trkpt>
      <trkpt lat="44.81584" lon="-0.27702">
        <ele>103.80000305176</ele>
        <time>2011-05-08T08:56:32Z</time>
      </trkpt>
      <trkpt lat="44.81584" lon="-0.27709">
        <ele>103</ele>
        <time>2011-05-08T08:56:33Z</time>
      </trkpt>
      <trkpt lat="44.81584" lon="-0.27717">
        <ele>103.09999847412</ele>
        <time>2011-05-08T08:56:34Z</time>
      </trkpt>
      <trkpt lat="44.81585" lon="-0.27728">
        <ele>103.90000152588</ele>
        <time>2011-05-08T08:56:36Z</time>
      </trkpt>
      <trkpt lat="44.81586" lon="-0.27741">
        <ele>104.09999847412</ele>
        <time>2011-05-08T08:56:38Z</time>
      </trkpt>
      <trkpt lat="44.81588" lon="-0.27747">
        <ele>104.19999694824</ele>
        <time>2011-05-08T08:56:39Z</time>
      </trkpt>
      <trkpt lat="44.81588" lon="-0.27754">
        <ele>103.5</ele>
        <time>2011-05-08T08:56:40Z</time>
      </trkpt>
      <trkpt lat="44.81588" lon="-0.2776">
        <ele>103.80000305176</ele>
        <time>2011-05-08T08:56:41Z</time>
      </trkpt>
      <trkpt lat="44.81589" lon="-0.27767">
        <ele>103.59999847412</ele>
        <time>2011-05-08T08:56:42Z</time>
      </trkpt>
      <trkpt lat="44.81592" lon="-0.27784">
        <ele>103.59999847412</ele>
        <time>2011-05-08T08:56:45Z</time>
      </trkpt>
      <trkpt lat="44.81594" lon="-0.27794">
        <ele>104.69999694824</ele>
        <time>2011-05-08T08:56:47Z</time>
      </trkpt>
      <trkpt lat="44.81597" lon="-0.27804">
        <ele>104</ele>
        <time>2011-05-08T08:56:49Z</time>
      </trkpt>
      <trkpt lat="44.81599" lon="-0.27813">
        <ele>104.5</ele>
        <time>2011-05-08T08:56:51Z</time>
      </trkpt>
      <trkpt lat="44.81601" lon="-0.27819">
        <ele>104.09999847412</ele>
        <time>2011-05-08T08:56:52Z</time>
      </trkpt>
      <trkpt lat="44.81604" lon="-0.2783">
        <ele>104.69999694824</ele>
        <time>2011-05-08T08:56:54Z</time>
      </trkpt>
      <trkpt lat="44.81607" lon="-0.27841">
        <ele>104.59999847412</ele>
        <time>2011-05-08T08:56:56Z</time>
      </trkpt>
      <trkpt lat="44.81608" lon="-0.27851">
        <ele>103.80000305176</ele>
        <time>2011-05-08T08:56:58Z</time>
      </trkpt>
      <trkpt lat="44.81609" lon="-0.27863">
        <ele>104.19999694824</ele>
        <time>2011-05-08T08:57:00Z</time>
      </trkpt>
      <trkpt lat="44.8161" lon="-0.27869">
        <ele>103.5</ele>
        <time>2011-05-08T08:57:01Z</time>
      </trkpt>
      <trkpt lat="44.81611" lon="-0.27877">
        <ele>103.19999694824</ele>
        <time>2011-05-08T08:57:02Z</time>
      </trkpt>
      <trkpt lat="44.8161" lon="-0.27887">
        <ele>103.59999847412</ele>
        <time>2011-05-08T08:57:04Z</time>
      </trkpt>
      <trkpt lat="44.81611" lon="-0.27893">
        <ele>103.69999694824</ele>
        <time>2011-05-08T08:57:05Z</time>
      </trkpt>
      <trkpt lat="44.81612" lon="-0.27905">
        <ele>104.09999847412</ele>
        <time>2011-05-08T08:57:07Z</time>
      </trkpt>
      <trkpt lat="44.81612" lon="-0.27914">
        <ele>104.5</ele>
        <time>2011-05-08T08:57:09Z</time>
      </trkpt>
      <trkpt lat="44.81612" lon="-0.27924">
        <ele>105.09999847412</ele>
        <time>2011-05-08T08:57:11Z</time>
      </trkpt>
      <trkpt lat="44.81613" lon="-0.2793">
        <ele>104.90000152588</ele>
        <time>2011-05-08T08:57:12Z</time>
      </trkpt>
      <trkpt lat="44.81615" lon="-0.27939">
        <ele>104.19999694824</ele>
        <time>2011-05-08T08:57:14Z</time>
      </trkpt>
      <trkpt lat="44.81618" lon="-0.27948">
        <ele>103.40000152588</ele>
        <time>2011-05-08T08:57:16Z</time>
      </trkpt>
      <trkpt lat="44.81617" lon="-0.27955">
        <ele>103</ele>
        <time>2011-05-08T08:57:17Z</time>
      </trkpt>
      <trkpt lat="44.81619" lon="-0.27963">
        <ele>103.30000305176</ele>
        <time>2011-05-08T08:57:19Z</time>
      </trkpt>
      <trkpt lat="44.81622" lon="-0.27972">
        <ele>103.5</ele>
        <time>2011-05-08T08:57:21Z</time>
      </trkpt>
      <trkpt lat="44.81624" lon="-0.27979">
        <ele>103.30000305176</ele>
        <time>2011-05-08T08:57:23Z</time>
      </trkpt>
      <trkpt lat="44.81625" lon="-0.2799">
        <ele>104.5</ele>
        <time>2011-05-08T08:57:25Z</time>
      </trkpt>
      <trkpt lat="44.81628" lon="-0.28">
        <ele>105.30000305176</ele>
        <time>2011-05-08T08:57:27Z</time>
      </trkpt>
      <trkpt lat="44.81632" lon="-0.28008">
        <ele>104.90000152588</ele>
        <time>2011-05-08T08:57:29Z</time>
      </trkpt>
      <trkpt lat="44.81635" lon="-0.28015">
        <ele>106.69999694824</ele>
        <time>2011-05-08T08:57:31Z</time>
      </trkpt>
      <trkpt lat="44.81638" lon="-0.2802">
        <ele>107.19999694824</ele>
        <time>2011-05-08T08:57:33Z</time>
      </trkpt>
      <trkpt lat="44.81642" lon="-0.2803">
        <ele>108</ele>
        <time>2011-05-08T08:57:35Z</time>
      </trkpt>
      <trkpt lat="44.81645" lon="-0.2804">
        <ele>108.19999694824</ele>
        <time>2011-05-08T08:57:37Z</time>
      </trkpt>
      <trkpt lat="44.81647" lon="-0.28049">
        <ele>107.40000152588</ele>
        <time>2011-05-08T08:57:39Z</time>
      </trkpt>
      <trkpt lat="44.81648" lon="-0.2806">
        <ele>107.69999694824</ele>
        <time>2011-05-08T08:57:41Z</time>
      </trkpt>
      <trkpt lat="44.81648" lon="-0.28069">
        <ele>107.90000152588</ele>
        <time>2011-05-08T08:57:43Z</time>
      </trkpt>
      <trkpt lat="44.81646" lon="-0.28078">
        <ele>108.09999847412</ele>
        <time>2011-05-08T08:57:45Z</time>
      </trkpt>
      <trkpt lat="44.81643" lon="-0.28084">
        <ele>106.80000305176</ele>
        <time>2011-05-08T08:57:47Z</time>
      </trkpt>
      <trkpt lat="44.81638" lon="-0.28091">
        <ele>106.19999694824</ele>
        <time>2011-05-08T08:57:49Z</time>
      </trkpt>
      <trkpt lat="44.81634" lon="-0.28099">
        <ele>105.59999847412</ele>
        <time>2011-05-08T08:57:51Z</time>
      </trkpt>
      <trkpt lat="44.81629" lon="-0.28104">
        <ele>105.59999847412</ele>
        <time>2011-05-08T08:57:53Z</time>
      </trkpt>
      <trkpt lat="44.81624" lon="-0.28109">
        <ele>105.90000152588</ele>
        <time>2011-05-08T08:57:55Z</time>
      </trkpt>
      <trkpt lat="44.81619" lon="-0.28114">
        <ele>106.19999694824</ele>
        <time>2011-05-08T08:57:57Z</time>
      </trkpt>
      <trkpt lat="44.81613" lon="-0.28118">
        <ele>106.09999847412</ele>
        <time>2011-05-08T08:57:59Z</time>
      </trkpt>
      <trkpt lat="44.81607" lon="-0.28122">
        <ele>105.90000152588</ele>
        <time>2011-05-08T08:58:01Z</time>
      </trkpt>
      <trkpt lat="44.81603" lon="-0.28127">
        <ele>105.59999847412</ele>
        <time>2011-05-08T08:58:03Z</time>
      </trkpt>
      <trkpt lat="44.81599" lon="-0.28131">
        <ele>104.40000152588</ele>
        <time>2011-05-08T08:58:05Z</time>
      </trkpt>
      <trkpt lat="44.81595" lon="-0.28135">
        <ele>104.59999847412</ele>
        <time>2011-05-08T08:58:07Z</time>
      </trkpt>
      <trkpt lat="44.81589" lon="-0.28139">
        <ele>105.09999847412</ele>
        <time>2011-05-08T08:58:10Z</time>
      </trkpt>
      <trkpt lat="44.81583" lon="-0.28142">
        <ele>105.90000152588</ele>
        <time>2011-05-08T08:58:13Z</time>
      </trkpt>
      <trkpt lat="44.81579" lon="-0.28148">
        <ele>105.5</ele>
        <time>2011-05-08T08:58:15Z</time>
      </trkpt>
      <trkpt lat="44.81576" lon="-0.28154">
        <ele>104</ele>
        <time>2011-05-08T08:58:17Z</time>
      </trkpt>
      <trkpt lat="44.81576" lon="-0.28163">
        <ele>105.80000305176</ele>
        <time>2011-05-08T08:58:20Z</time>
      </trkpt>
      <trkpt lat="44.81576" lon="-0.28171">
        <ele>107.09999847412</ele>
        <time>2011-05-08T08:58:22Z</time>
      </trkpt>
      <trkpt lat="44.81578" lon="-0.28179">
        <ele>108.5</ele>
        <time>2011-05-08T08:58:24Z</time>
      </trkpt>
      <trkpt lat="44.8158" lon="-0.28187">
        <ele>109</ele>
        <time>2011-05-08T08:58:26Z</time>
      </trkpt>
      <trkpt lat="44.81581" lon="-0.28195">
        <ele>109.69999694824</ele>
        <time>2011-05-08T08:58:28Z</time>
      </trkpt>
      <trkpt lat="44.81582" lon="-0.28202">
        <ele>110.69999694824</ele>
        <time>2011-05-08T08:58:30Z</time>
      </trkpt>
      <trkpt lat="44.81582" lon="-0.28209">
        <ele>110.80000305176</ele>
        <time>2011-05-08T08:58:32Z</time>
      </trkpt>
      <trkpt lat="44.81584" lon="-0.28218">
        <ele>110.69999694824</ele>
        <time>2011-05-08T08:58:34Z</time>
      </trkpt>
      <trkpt lat="44.81586" lon="-0.28225">
        <ele>111.69999694824</ele>
        <time>2011-05-08T08:58:36Z</time>
      </trkpt>
      <trkpt lat="44.81588" lon="-0.28234">
        <ele>111</ele>
        <time>2011-05-08T08:58:38Z</time>
      </trkpt>
      <trkpt lat="44.8159" lon="-0.28243">
        <ele>110.09999847412</ele>
        <time>2011-05-08T08:58:40Z</time>
      </trkpt>
      <trkpt lat="44.81592" lon="-0.28252">
        <ele>110.69999694824</ele>
        <time>2011-05-08T08:58:42Z</time>
      </trkpt>
      <trkpt lat="44.81597" lon="-0.28266">
        <ele>112.80000305176</ele>
        <time>2011-05-08T08:58:45Z</time>
      </trkpt>
      <trkpt lat="44.81602" lon="-0.28271">
        <ele>113.90000152588</ele>
        <time>2011-05-08T08:58:47Z</time>
      </trkpt>
      <trkpt lat="44.81606" lon="-0.28277">
        <ele>113.5</ele>
        <time>2011-05-08T08:58:49Z</time>
      </trkpt>
      <trkpt lat="44.8161" lon="-0.28285">
        <ele>115.30000305176</ele>
        <time>2011-05-08T08:58:51Z</time>
      </trkpt>
      <trkpt lat="44.81615" lon="-0.28292">
        <ele>114.5</ele>
        <time>2011-05-08T08:58:53Z</time>
      </trkpt>
      <trkpt lat="44.81617" lon="-0.28299">
        <ele>114.19999694824</ele>
        <time>2011-05-08T08:58:55Z</time>
      </trkpt>
      <trkpt lat="44.81618" lon="-0.28307">
        <ele>114.80000305176</ele>
        <time>2011-05-08T08:58:57Z</time>
      </trkpt>
      <trkpt lat="44.81622" lon="-0.28317">
        <ele>115.59999847412</ele>
        <time>2011-05-08T08:58:59Z</time>
      </trkpt>
      <trkpt lat="44.81626" lon="-0.28329">
        <ele>115.40000152588</ele>
        <time>2011-05-08T08:59:01Z</time>
      </trkpt>
      <trkpt lat="44.81628" lon="-0.28335">
        <ele>115.40000152588</ele>
        <time>2011-05-08T08:59:02Z</time>
      </trkpt>
      <trkpt lat="44.81629" lon="-0.28343">
        <ele>115.40000152588</ele>
        <time>2011-05-08T08:59:03Z</time>
      </trkpt>
      <trkpt lat="44.8163" lon="-0.28349">
        <ele>114.80000305176</ele>
        <time>2011-05-08T08:59:04Z</time>
      </trkpt>
      <trkpt lat="44.81633" lon="-0.2836">
        <ele>114.19999694824</ele>
        <time>2011-05-08T08:59:06Z</time>
      </trkpt>
      <trkpt lat="44.81635" lon="-0.28366">
        <ele>114.09999847412</ele>
        <time>2011-05-08T08:59:07Z</time>
      </trkpt>
      <trkpt lat="44.81635" lon="-0.28379">
        <ele>114.19999694824</ele>
        <time>2011-05-08T08:59:09Z</time>
      </trkpt>
      <trkpt lat="44.81637" lon="-0.28385">
        <ele>114.5</ele>
        <time>2011-05-08T08:59:10Z</time>
      </trkpt>
      <trkpt lat="44.81641" lon="-0.28395">
        <ele>114.80000305176</ele>
        <time>2011-05-08T08:59:12Z</time>
      </trkpt>
      <trkpt lat="44.81644" lon="-0.284">
        <ele>115.5</ele>
        <time>2011-05-08T08:59:13Z</time>
      </trkpt>
      <trkpt lat="44.81651" lon="-0.28408">
        <ele>115.59999847412</ele>
        <time>2011-05-08T08:59:15Z</time>
      </trkpt>
      <trkpt lat="44.81657" lon="-0.28415">
        <ele>115.80000305176</ele>
        <time>2011-05-08T08:59:17Z</time>
      </trkpt>
      <trkpt lat="44.81662" lon="-0.28415">
        <ele>115.90000152588</ele>
        <time>2011-05-08T08:59:18Z</time>
      </trkpt>
      <trkpt lat="44.81668" lon="-0.28415">
        <ele>116</ele>
        <time>2011-05-08T08:59:19Z</time>
      </trkpt>
      <trkpt lat="44.81677" lon="-0.28419">
        <ele>116</ele>
        <time>2011-05-08T08:59:21Z</time>
      </trkpt>
      <trkpt lat="44.81687" lon="-0.28421">
        <ele>116.69999694824</ele>
        <time>2011-05-08T08:59:23Z</time>
      </trkpt>
      <trkpt lat="44.81696" lon="-0.28422">
        <ele>116.40000152588</ele>
        <time>2011-05-08T08:59:25Z</time>
      </trkpt>
      <trkpt lat="44.81703" lon="-0.28424">
        <ele>117.09999847412</ele>
        <time>2011-05-08T08:59:27Z</time>
      </trkpt>
      <trkpt lat="44.81712" lon="-0.28427">
        <ele>116.80000305176</ele>
        <time>2011-05-08T08:59:29Z</time>
      </trkpt>
      <trkpt lat="44.81717" lon="-0.28437">
        <ele>116.30000305176</ele>
        <time>2011-05-08T08:59:31Z</time>
      </trkpt>
      <trkpt lat="44.81717" lon="-0.28444">
        <ele>115.80000305176</ele>
        <time>2011-05-08T08:59:32Z</time>
      </trkpt>
      <trkpt lat="44.81718" lon="-0.28451">
        <ele>115.90000152588</ele>
        <time>2011-05-08T08:59:33Z</time>
      </trkpt>
      <trkpt lat="44.81719" lon="-0.2846">
        <ele>113.5</ele>
        <time>2011-05-08T08:59:34Z</time>
      </trkpt>
      <trkpt lat="44.8172" lon="-0.28468">
        <ele>112.90000152588</ele>
        <time>2011-05-08T08:59:35Z</time>
      </trkpt>
      <trkpt lat="44.81721" lon="-0.28475">
        <ele>112.90000152588</ele>
        <time>2011-05-08T08:59:36Z</time>
      </trkpt>
      <trkpt lat="44.81721" lon="-0.28482">
        <ele>112.59999847412</ele>
        <time>2011-05-08T08:59:37Z</time>
      </trkpt>
      <trkpt lat="44.81723" lon="-0.28488">
        <ele>112.90000152588</ele>
        <time>2011-05-08T08:59:38Z</time>
      </trkpt>
      <trkpt lat="44.81724" lon="-0.28496">
        <ele>113</ele>
        <time>2011-05-08T08:59:39Z</time>
      </trkpt>
      <trkpt lat="44.81725" lon="-0.28502">
        <ele>112.69999694824</ele>
        <time>2011-05-08T08:59:40Z</time>
      </trkpt>
      <trkpt lat="44.81726" lon="-0.2851">
        <ele>112.69999694824</ele>
        <time>2011-05-08T08:59:41Z</time>
      </trkpt>
      <trkpt lat="44.81728" lon="-0.28518">
        <ele>112.59999847412</ele>
        <time>2011-05-08T08:59:42Z</time>
      </trkpt>
      <trkpt lat="44.8173" lon="-0.28525">
        <ele>112.09999847412</ele>
        <time>2011-05-08T08:59:43Z</time>
      </trkpt>
      <trkpt lat="44.81735" lon="-0.28539">
        <ele>112.69999694824</ele>
        <time>2011-05-08T08:59:45Z</time>
      </trkpt>
      <trkpt lat="44.81739" lon="-0.28545">
        <ele>112.59999847412</ele>
        <time>2011-05-08T08:59:46Z</time>
      </trkpt>
      <trkpt lat="44.81745" lon="-0.28554">
        <ele>112.90000152588</ele>
        <time>2011-05-08T08:59:48Z</time>
      </trkpt>
      <trkpt lat="44.81748" lon="-0.2856">
        <ele>113.19999694824</ele>
        <time>2011-05-08T08:59:49Z</time>
      </trkpt>
      <trkpt lat="44.81751" lon="-0.28566">
        <ele>112.90000152588</ele>
        <time>2011-05-08T08:59:50Z</time>
      </trkpt>
      <trkpt lat="44.81756" lon="-0.28577">
        <ele>112.59999847412</ele>
        <time>2011-05-08T08:59:52Z</time>
      </trkpt>
      <trkpt lat="44.81759" lon="-0.28584">
        <ele>112.5</ele>
        <time>2011-05-08T08:59:53Z</time>
      </trkpt>
      <trkpt lat="44.81763" lon="-0.28592">
        <ele>112.40000152588</ele>
        <time>2011-05-08T08:59:54Z</time>
      </trkpt>
      <trkpt lat="44.81767" lon="-0.28601">
        <ele>112.40000152588</ele>
        <time>2011-05-08T08:59:55Z</time>
      </trkpt>
      <trkpt lat="44.8177" lon="-0.28608">
        <ele>112.5</ele>
        <time>2011-05-08T08:59:56Z</time>
      </trkpt>
      <trkpt lat="44.81774" lon="-0.28617">
        <ele>112.5</ele>
        <time>2011-05-08T08:59:57Z</time>
      </trkpt>
      <trkpt lat="44.81778" lon="-0.28624">
        <ele>111.69999694824</ele>
        <time>2011-05-08T08:59:58Z</time>
      </trkpt>
      <trkpt lat="44.81782" lon="-0.28633">
        <ele>111.09999847412</ele>
        <time>2011-05-08T08:59:59Z</time>
      </trkpt>
      <trkpt lat="44.81786" lon="-0.28643">
        <ele>110.19999694824</ele>
        <time>2011-05-08T09:00:00Z</time>
      </trkpt>
      <trkpt lat="44.8179" lon="-0.28655">
        <ele>106.5</ele>
        <time>2011-05-08T09:00:01Z</time>
      </trkpt>
      <trkpt lat="44.81792" lon="-0.28664">
        <ele>106.69999694824</ele>
        <time>2011-05-08T09:00:02Z</time>
      </trkpt>
      <trkpt lat="44.81795" lon="-0.28676">
        <ele>106.09999847412</ele>
        <time>2011-05-08T09:00:03Z</time>
      </trkpt>
      <trkpt lat="44.81798" lon="-0.28686">
        <ele>106.19999694824</ele>
        <time>2011-05-08T09:00:04Z</time>
      </trkpt>
      <trkpt lat="44.81799" lon="-0.28695">
        <ele>106.19999694824</ele>
        <time>2011-05-08T09:00:05Z</time>
      </trkpt>
      <trkpt lat="44.81802" lon="-0.28703">
        <ele>105.90000152588</ele>
        <time>2011-05-08T09:00:06Z</time>
      </trkpt>
      <trkpt lat="44.81806" lon="-0.28713">
        <ele>106.5</ele>
        <time>2011-05-08T09:00:07Z</time>
      </trkpt>
      <trkpt lat="44.8181" lon="-0.28718">
        <ele>106.30000305176</ele>
        <time>2011-05-08T09:00:08Z</time>
      </trkpt>
      <trkpt lat="44.81816" lon="-0.28723">
        <ele>106.40000152588</ele>
        <time>2011-05-08T09:00:09Z</time>
      </trkpt>
      <trkpt lat="44.81822" lon="-0.28726">
        <ele>106.5</ele>
        <time>2011-05-08T09:00:10Z</time>
      </trkpt>
      <trkpt lat="44.81828" lon="-0.28725">
        <ele>106.5</ele>
        <time>2011-05-08T09:00:11Z</time>
      </trkpt>
      <trkpt lat="44.81833" lon="-0.28725">
        <ele>107.5</ele>
        <time>2011-05-08T09:00:12Z</time>
      </trkpt>
      <trkpt lat="44.81838" lon="-0.28725">
        <ele>107.59999847412</ele>
        <time>2011-05-08T09:00:13Z</time>
      </trkpt>
      <trkpt lat="44.81845" lon="-0.28726">
        <ele>107.90000152588</ele>
        <time>2011-05-08T09:00:15Z</time>
      </trkpt>
      <trkpt lat="44.8185" lon="-0.28727">
        <ele>108.30000305176</ele>
        <time>2011-05-08T09:00:17Z</time>
      </trkpt>
      <trkpt lat="44.81854" lon="-0.28731">
        <ele>108.90000152588</ele>
        <time>2011-05-08T09:00:39Z</time>
      </trkpt>
      <trkpt lat="44.81858" lon="-0.28734">
        <ele>110.30000305176</ele>
        <time>2011-05-08T09:01:07Z</time>
      </trkpt>
      <trkpt lat="44.81863" lon="-0.28735">
        <ele>109.90000152588</ele>
        <time>2011-05-08T09:01:47Z</time>
      </trkpt>
      <trkpt lat="44.81858" lon="-0.28735">
        <ele>109.5</ele>
        <time>2011-05-08T09:03:01Z</time>
      </trkpt>
      <trkpt lat="44.81854" lon="-0.28734">
        <ele>108.90000152588</ele>
        <time>2011-05-08T09:04:32Z</time>
      </trkpt>
      <trkpt lat="44.81849" lon="-0.28731">
        <ele>105.40000152588</ele>
        <time>2011-05-08T09:04:58Z</time>
      </trkpt>
      <trkpt lat="44.81854" lon="-0.28727">
        <ele>105.30000305176</ele>
        <time>2011-05-08T09:05:24Z</time>
      </trkpt>
      <trkpt lat="44.81858" lon="-0.28728">
        <ele>106.30000305176</ele>
        <time>2011-05-08T09:06:28Z</time>
      </trkpt>
      <trkpt lat="44.81858" lon="-0.28736">
        <ele>108</ele>
        <time>2011-05-08T09:06:32Z</time>
      </trkpt>
      <trkpt lat="44.81857" lon="-0.28746">
        <ele>107.59999847412</ele>
        <time>2011-05-08T09:06:35Z</time>
      </trkpt>
      <trkpt lat="44.81857" lon="-0.28754">
        <ele>106.69999694824</ele>
        <time>2011-05-08T09:06:37Z</time>
      </trkpt>
      <trkpt lat="44.81856" lon="-0.28765">
        <ele>106.09999847412</ele>
        <time>2011-05-08T09:06:39Z</time>
      </trkpt>
      <trkpt lat="44.81855" lon="-0.28772">
        <ele>106.40000152588</ele>
        <time>2011-05-08T09:06:40Z</time>
      </trkpt>
      <trkpt lat="44.81855" lon="-0.28779">
        <ele>106.30000305176</ele>
        <time>2011-05-08T09:06:41Z</time>
      </trkpt>
      <trkpt lat="44.81855" lon="-0.28786">
        <ele>106.90000152588</ele>
        <time>2011-05-08T09:06:42Z</time>
      </trkpt>
      <trkpt lat="44.81855" lon="-0.28793">
        <ele>105.69999694824</ele>
        <time>2011-05-08T09:06:43Z</time>
      </trkpt>
      <trkpt lat="44.81856" lon="-0.28806">
        <ele>107.69999694824</ele>
        <time>2011-05-08T09:06:45Z</time>
      </trkpt>
      <trkpt lat="44.81855" lon="-0.28813">
        <ele>107.09999847412</ele>
        <time>2011-05-08T09:06:46Z</time>
      </trkpt>
      <trkpt lat="44.81854" lon="-0.2882">
        <ele>106.59999847412</ele>
        <time>2011-05-08T09:06:47Z</time>
      </trkpt>
      <trkpt lat="44.8185" lon="-0.28833">
        <ele>105.5</ele>
        <time>2011-05-08T09:06:49Z</time>
      </trkpt>
      <trkpt lat="44.81847" lon="-0.2884">
        <ele>105.19999694824</ele>
        <time>2011-05-08T09:06:50Z</time>
      </trkpt>
      <trkpt lat="44.81843" lon="-0.28847">
        <ele>105.19999694824</ele>
        <time>2011-05-08T09:06:51Z</time>
      </trkpt>
      <trkpt lat="44.8184" lon="-0.28854">
        <ele>104.69999694824</ele>
        <time>2011-05-08T09:06:52Z</time>
      </trkpt>
      <trkpt lat="44.81837" lon="-0.28862">
        <ele>104.30000305176</ele>
        <time>2011-05-08T09:06:53Z</time>
      </trkpt>
      <trkpt lat="44.81833" lon="-0.28869">
        <ele>103.90000152588</ele>
        <time>2011-05-08T09:06:54Z</time>
      </trkpt>
      <trkpt lat="44.8183" lon="-0.28876">
        <ele>102.80000305176</ele>
        <time>2011-05-08T09:06:55Z</time>
      </trkpt>
      <trkpt lat="44.81826" lon="-0.28884">
        <ele>101.69999694824</ele>
        <time>2011-05-08T09:06:56Z</time>
      </trkpt>
      <trkpt lat="44.81821" lon="-0.28892">
        <ele>101.5</ele>
        <time>2011-05-08T09:06:57Z</time>
      </trkpt>
      <trkpt lat="44.81818" lon="-0.28899">
        <ele>101</ele>
        <time>2011-05-08T09:06:58Z</time>
      </trkpt>
      <trkpt lat="44.81815" lon="-0.28905">
        <ele>100.30000305176</ele>
        <time>2011-05-08T09:06:59Z</time>
      </trkpt>
      <trkpt lat="44.8181" lon="-0.28909">
        <ele>100.09999847412</ele>
        <time>2011-05-08T09:07:00Z</time>
      </trkpt>
      <trkpt lat="44.81805" lon="-0.2891">
        <ele>100.30000305176</ele>
        <time>2011-05-08T09:07:01Z</time>
      </trkpt>
      <trkpt lat="44.81799" lon="-0.2891">
        <ele>100.59999847412</ele>
        <time>2011-05-08T09:07:02Z</time>
      </trkpt>
      <trkpt lat="44.81793" lon="-0.28911">
        <ele>100.40000152588</ele>
        <time>2011-05-08T09:07:03Z</time>
      </trkpt>
      <trkpt lat="44.81787" lon="-0.28911">
        <ele>100.30000305176</ele>
        <time>2011-05-08T09:07:04Z</time>
      </trkpt>
      <trkpt lat="44.81781" lon="-0.28912">
        <ele>100.30000305176</ele>
        <time>2011-05-08T09:07:05Z</time>
      </trkpt>
      <trkpt lat="44.81774" lon="-0.28912">
        <ele>100.19999694824</ele>
        <time>2011-05-08T09:07:06Z</time>
      </trkpt>
      <trkpt lat="44.81767" lon="-0.28913">
        <ele>99.900001525879</ele>
        <time>2011-05-08T09:07:07Z</time>
      </trkpt>
      <trkpt lat="44.81761" lon="-0.28914">
        <ele>99.5</ele>
        <time>2011-05-08T09:07:08Z</time>
      </trkpt>
      <trkpt lat="44.81755" lon="-0.28915">
        <ele>99.099998474121</ele>
        <time>2011-05-08T09:07:09Z</time>
      </trkpt>
      <trkpt lat="44.8175" lon="-0.28914">
        <ele>99</ele>
        <time>2011-05-08T09:07:10Z</time>
      </trkpt>
      <trkpt lat="44.81744" lon="-0.28915">
        <ele>98.900001525879</ele>
        <time>2011-05-08T09:07:11Z</time>
      </trkpt>
      <trkpt lat="44.81739" lon="-0.28916">
        <ele>98.900001525879</ele>
        <time>2011-05-08T09:07:12Z</time>
      </trkpt>
      <trkpt lat="44.81732" lon="-0.28917">
        <ele>99.199996948242</ele>
        <time>2011-05-08T09:07:13Z</time>
      </trkpt>
      <trkpt lat="44.81727" lon="-0.28918">
        <ele>99.099998474121</ele>
        <time>2011-05-08T09:07:14Z</time>
      </trkpt>
      <trkpt lat="44.81723" lon="-0.28922">
        <ele>98.800003051758</ele>
        <time>2011-05-08T09:07:15Z</time>
      </trkpt>
      <trkpt lat="44.81721" lon="-0.28927">
        <ele>98.300003051758</ele>
        <time>2011-05-08T09:07:16Z</time>
      </trkpt>
      <trkpt lat="44.81718" lon="-0.28935">
        <ele>97.099998474121</ele>
        <time>2011-05-08T09:07:18Z</time>
      </trkpt>
      <trkpt lat="44.81716" lon="-0.28946">
        <ele>94.400001525879</ele>
        <time>2011-05-08T09:07:20Z</time>
      </trkpt>
      <trkpt lat="44.81716" lon="-0.28958">
        <ele>94.300003051758</ele>
        <time>2011-05-08T09:07:22Z</time>
      </trkpt>
      <trkpt lat="44.81716" lon="-0.2897">
        <ele>93.5</ele>
        <time>2011-05-08T09:07:24Z</time>
      </trkpt>
      <trkpt lat="44.81715" lon="-0.2898">
        <ele>92.900001525879</ele>
        <time>2011-05-08T09:07:26Z</time>
      </trkpt>
      <trkpt lat="44.81713" lon="-0.28988">
        <ele>92.699996948242</ele>
        <time>2011-05-08T09:07:28Z</time>
      </trkpt>
      <trkpt lat="44.81711" lon="-0.28998">
        <ele>92.199996948242</ele>
        <time>2011-05-08T09:07:30Z</time>
      </trkpt>
      <trkpt lat="44.81711" lon="-0.29008">
        <ele>93</ele>
        <time>2011-05-08T09:07:32Z</time>
      </trkpt>
      <trkpt lat="44.8171" lon="-0.29016">
        <ele>92.400001525879</ele>
        <time>2011-05-08T09:07:34Z</time>
      </trkpt>
      <trkpt lat="44.81709" lon="-0.29024">
        <ele>93</ele>
        <time>2011-05-08T09:07:36Z</time>
      </trkpt>
      <trkpt lat="44.81709" lon="-0.29032">
        <ele>94.099998474121</ele>
        <time>2011-05-08T09:07:38Z</time>
      </trkpt>
      <trkpt lat="44.81708" lon="-0.29041">
        <ele>94</ele>
        <time>2011-05-08T09:07:40Z</time>
      </trkpt>
      <trkpt lat="44.81708" lon="-0.29048">
        <ele>94.900001525879</ele>
        <time>2011-05-08T09:07:42Z</time>
      </trkpt>
      <trkpt lat="44.81708" lon="-0.29057">
        <ele>95.599998474121</ele>
        <time>2011-05-08T09:07:45Z</time>
      </trkpt>
      <trkpt lat="44.81707" lon="-0.29065">
        <ele>95.5</ele>
        <time>2011-05-08T09:07:47Z</time>
      </trkpt>
      <trkpt lat="44.81706" lon="-0.29072">
        <ele>96</ele>
        <time>2011-05-08T09:07:49Z</time>
      </trkpt>
      <trkpt lat="44.81706" lon="-0.29079">
        <ele>96.5</ele>
        <time>2011-05-08T09:07:51Z</time>
      </trkpt>
      <trkpt lat="44.81705" lon="-0.29086">
        <ele>96.800003051758</ele>
        <time>2011-05-08T09:07:53Z</time>
      </trkpt>
      <trkpt lat="44.81704" lon="-0.29094">
        <ele>97.099998474121</ele>
        <time>2011-05-08T09:07:55Z</time>
      </trkpt>
      <trkpt lat="44.81702" lon="-0.29102">
        <ele>97.300003051758</ele>
        <time>2011-05-08T09:07:57Z</time>
      </trkpt>
      <trkpt lat="44.817" lon="-0.29109">
        <ele>97.099998474121</ele>
        <time>2011-05-08T09:07:59Z</time>
      </trkpt>
      <trkpt lat="44.81699" lon="-0.29116">
        <ele>97.099998474121</ele>
        <time>2011-05-08T09:08:01Z</time>
      </trkpt>
      <trkpt lat="44.81696" lon="-0.29122">
        <ele>98.300003051758</ele>
        <time>2011-05-08T09:08:03Z</time>
      </trkpt>
      <trkpt lat="44.81695" lon="-0.29129">
        <ele>99</ele>
        <time>2011-05-08T09:08:05Z</time>
      </trkpt>
      <trkpt lat="44.81693" lon="-0.29136">
        <ele>99.199996948242</ele>
        <time>2011-05-08T09:08:07Z</time>
      </trkpt>
      <trkpt lat="44.81691" lon="-0.29144">
        <ele>99.099998474121</ele>
        <time>2011-05-08T09:08:09Z</time>
      </trkpt>
      <trkpt lat="44.81688" lon="-0.29152">
        <ele>98.5</ele>
        <time>2011-05-08T09:08:11Z</time>
      </trkpt>
      <trkpt lat="44.81685" lon="-0.29159">
        <ele>98.800003051758</ele>
        <time>2011-05-08T09:08:13Z</time>
      </trkpt>
      <trkpt lat="44.81682" lon="-0.29165">
        <ele>98.5</ele>
        <time>2011-05-08T09:08:15Z</time>
      </trkpt>
      <trkpt lat="44.8168" lon="-0.29171">
        <ele>98</ele>
        <time>2011-05-08T09:08:17Z</time>
      </trkpt>
      <trkpt lat="44.81676" lon="-0.29178">
        <ele>98.900001525879</ele>
        <time>2011-05-08T09:08:19Z</time>
      </trkpt>
      <trkpt lat="44.81674" lon="-0.29185">
        <ele>97.400001525879</ele>
        <time>2011-05-08T09:08:21Z</time>
      </trkpt>
      <trkpt lat="44.81674" lon="-0.29194">
        <ele>97.300003051758</ele>
        <time>2011-05-08T09:08:24Z</time>
      </trkpt>
      <trkpt lat="44.81675" lon="-0.29202">
        <ele>98.5</ele>
        <time>2011-05-08T09:08:27Z</time>
      </trkpt>
      <trkpt lat="44.81673" lon="-0.29211">
        <ele>99.699996948242</ele>
        <time>2011-05-08T09:08:30Z</time>
      </trkpt>
      <trkpt lat="44.81674" lon="-0.29219">
        <ele>99.699996948242</ele>
        <time>2011-05-08T09:08:32Z</time>
      </trkpt>
      <trkpt lat="44.81675" lon="-0.29226">
        <ele>99.5</ele>
        <time>2011-05-08T09:08:34Z</time>
      </trkpt>
      <trkpt lat="44.81676" lon="-0.29233">
        <ele>99.699996948242</ele>
        <time>2011-05-08T09:08:36Z</time>
      </trkpt>
      <trkpt lat="44.81677" lon="-0.2924">
        <ele>99.900001525879</ele>
        <time>2011-05-08T09:08:38Z</time>
      </trkpt>
      <trkpt lat="44.81678" lon="-0.29247">
        <ele>100.69999694824</ele>
        <time>2011-05-08T09:08:40Z</time>
      </trkpt>
      <trkpt lat="44.8168" lon="-0.29256">
        <ele>101.5</ele>
        <time>2011-05-08T09:08:42Z</time>
      </trkpt>
      <trkpt lat="44.81682" lon="-0.29268">
        <ele>102</ele>
        <time>2011-05-08T09:08:45Z</time>
      </trkpt>
      <trkpt lat="44.81683" lon="-0.29275">
        <ele>101.80000305176</ele>
        <time>2011-05-08T09:08:47Z</time>
      </trkpt>
      <trkpt lat="44.81687" lon="-0.29283">
        <ele>102.40000152588</ele>
        <time>2011-05-08T09:08:49Z</time>
      </trkpt>
      <trkpt lat="44.81689" lon="-0.29289">
        <ele>101.40000152588</ele>
        <time>2011-05-08T09:08:51Z</time>
      </trkpt>
      <trkpt lat="44.81691" lon="-0.29296">
        <ele>101.90000152588</ele>
        <time>2011-05-08T09:08:53Z</time>
      </trkpt>
      <trkpt lat="44.81694" lon="-0.29303">
        <ele>102.30000305176</ele>
        <time>2011-05-08T09:08:55Z</time>
      </trkpt>
      <trkpt lat="44.81696" lon="-0.29311">
        <ele>103.59999847412</ele>
        <time>2011-05-08T09:08:57Z</time>
      </trkpt>
      <trkpt lat="44.81698" lon="-0.29318">
        <ele>103.80000305176</ele>
        <time>2011-05-08T09:08:59Z</time>
      </trkpt>
      <trkpt lat="44.817" lon="-0.29328">
        <ele>103.90000152588</ele>
        <time>2011-05-08T09:09:02Z</time>
      </trkpt>
      <trkpt lat="44.81702" lon="-0.29335">
        <ele>102.90000152588</ele>
        <time>2011-05-08T09:09:04Z</time>
      </trkpt>
      <trkpt lat="44.81704" lon="-0.29343">
        <ele>102.69999694824</ele>
        <time>2011-05-08T09:09:06Z</time>
      </trkpt>
      <trkpt lat="44.81707" lon="-0.2935">
        <ele>103.30000305176</ele>
        <time>2011-05-08T09:09:08Z</time>
      </trkpt>
      <trkpt lat="44.81709" lon="-0.29358">
        <ele>103.69999694824</ele>
        <time>2011-05-08T09:09:10Z</time>
      </trkpt>
      <trkpt lat="44.81711" lon="-0.29365">
        <ele>104</ele>
        <time>2011-05-08T09:09:12Z</time>
      </trkpt>
      <trkpt lat="44.81712" lon="-0.29372">
        <ele>103.80000305176</ele>
        <time>2011-05-08T09:09:14Z</time>
      </trkpt>
      <trkpt lat="44.81713" lon="-0.29381">
        <ele>104.30000305176</ele>
        <time>2011-05-08T09:09:16Z</time>
      </trkpt>
      <trkpt lat="44.81716" lon="-0.2939">
        <ele>103.30000305176</ele>
        <time>2011-05-08T09:09:18Z</time>
      </trkpt>
      <trkpt lat="44.81717" lon="-0.29398">
        <ele>104.30000305176</ele>
        <time>2011-05-08T09:09:20Z</time>
      </trkpt>
      <trkpt lat="44.81719" lon="-0.29406">
        <ele>105</ele>
        <time>2011-05-08T09:09:22Z</time>
      </trkpt>
      <trkpt lat="44.81721" lon="-0.29414">
        <ele>106.09999847412</ele>
        <time>2011-05-08T09:09:24Z</time>
      </trkpt>
      <trkpt lat="44.81722" lon="-0.29423">
        <ele>106</ele>
        <time>2011-05-08T09:09:26Z</time>
      </trkpt>
      <trkpt lat="44.81724" lon="-0.2943">
        <ele>105.80000305176</ele>
        <time>2011-05-08T09:09:28Z</time>
      </trkpt>
      <trkpt lat="44.81726" lon="-0.29437">
        <ele>106.09999847412</ele>
        <time>2011-05-08T09:09:30Z</time>
      </trkpt>
      <trkpt lat="44.81728" lon="-0.29445">
        <ele>106.69999694824</ele>
        <time>2011-05-08T09:09:32Z</time>
      </trkpt>
      <trkpt lat="44.81729" lon="-0.29453">
        <ele>105.69999694824</ele>
        <time>2011-05-08T09:09:34Z</time>
      </trkpt>
      <trkpt lat="44.8173" lon="-0.29462">
        <ele>105.69999694824</ele>
        <time>2011-05-08T09:09:36Z</time>
      </trkpt>
      <trkpt lat="44.81732" lon="-0.29469">
        <ele>106.59999847412</ele>
        <time>2011-05-08T09:09:38Z</time>
      </trkpt>
      <trkpt lat="44.81734" lon="-0.29476">
        <ele>107.90000152588</ele>
        <time>2011-05-08T09:09:40Z</time>
      </trkpt>
      <trkpt lat="44.81735" lon="-0.29483">
        <ele>109.19999694824</ele>
        <time>2011-05-08T09:09:42Z</time>
      </trkpt>
      <trkpt lat="44.81738" lon="-0.29492">
        <ele>109.69999694824</ele>
        <time>2011-05-08T09:09:45Z</time>
      </trkpt>
      <trkpt lat="44.81742" lon="-0.29494">
        <ele>110.80000305176</ele>
        <time>2011-05-08T09:09:47Z</time>
      </trkpt>
      <trkpt lat="44.81747" lon="-0.29498">
        <ele>111.5</ele>
        <time>2011-05-08T09:09:49Z</time>
      </trkpt>
      <trkpt lat="44.81752" lon="-0.29502">
        <ele>113.40000152588</ele>
        <time>2011-05-08T09:09:51Z</time>
      </trkpt>
      <trkpt lat="44.81758" lon="-0.29506">
        <ele>112.80000305176</ele>
        <time>2011-05-08T09:09:53Z</time>
      </trkpt>
      <trkpt lat="44.81765" lon="-0.29511">
        <ele>113.19999694824</ele>
        <time>2011-05-08T09:09:55Z</time>
      </trkpt>
      <trkpt lat="44.81771" lon="-0.29514">
        <ele>112.90000152588</ele>
        <time>2011-05-08T09:09:57Z</time>
      </trkpt>
      <trkpt lat="44.81778" lon="-0.2952">
        <ele>112.59999847412</ele>
        <time>2011-05-08T09:09:59Z</time>
      </trkpt>
      <trkpt lat="44.81784" lon="-0.29523">
        <ele>113</ele>
        <time>2011-05-08T09:10:01Z</time>
      </trkpt>
      <trkpt lat="44.81791" lon="-0.29527">
        <ele>114.09999847412</ele>
        <time>2011-05-08T09:10:03Z</time>
      </trkpt>
      <trkpt lat="44.81798" lon="-0.29532">
        <ele>114.80000305176</ele>
        <time>2011-05-08T09:10:05Z</time>
      </trkpt>
      <trkpt lat="44.81803" lon="-0.29536">
        <ele>114.5</ele>
        <time>2011-05-08T09:10:07Z</time>
      </trkpt>
      <trkpt lat="44.81807" lon="-0.29541">
        <ele>115.40000152588</ele>
        <time>2011-05-08T09:10:09Z</time>
      </trkpt>
      <trkpt lat="44.81811" lon="-0.29546">
        <ele>115.5</ele>
        <time>2011-05-08T09:10:11Z</time>
      </trkpt>
      <trkpt lat="44.81816" lon="-0.29552">
        <ele>115.40000152588</ele>
        <time>2011-05-08T09:10:13Z</time>
      </trkpt>
      <trkpt lat="44.81821" lon="-0.29559">
        <ele>116</ele>
        <time>2011-05-08T09:10:15Z</time>
      </trkpt>
      <trkpt lat="44.81824" lon="-0.29564">
        <ele>115.40000152588</ele>
        <time>2011-05-08T09:10:17Z</time>
      </trkpt>
      <trkpt lat="44.81828" lon="-0.29568">
        <ele>115.30000305176</ele>
        <time>2011-05-08T09:10:20Z</time>
      </trkpt>
      <trkpt lat="44.81831" lon="-0.29574">
        <ele>115</ele>
        <time>2011-05-08T09:10:22Z</time>
      </trkpt>
      <trkpt lat="44.81835" lon="-0.29582">
        <ele>114.80000305176</ele>
        <time>2011-05-08T09:10:24Z</time>
      </trkpt>
      <trkpt lat="44.81838" lon="-0.29587">
        <ele>114.90000152588</ele>
        <time>2011-05-08T09:10:26Z</time>
      </trkpt>
      <trkpt lat="44.81842" lon="-0.29595">
        <ele>115.30000305176</ele>
        <time>2011-05-08T09:10:28Z</time>
      </trkpt>
      <trkpt lat="44.81845" lon="-0.29604">
        <ele>116</ele>
        <time>2011-05-08T09:10:30Z</time>
      </trkpt>
      <trkpt lat="44.8185" lon="-0.29611">
        <ele>116.90000152588</ele>
        <time>2011-05-08T09:10:32Z</time>
      </trkpt>
      <trkpt lat="44.81854" lon="-0.29615">
        <ele>116.59999847412</ele>
        <time>2011-05-08T09:10:33Z</time>
      </trkpt>
      <trkpt lat="44.81858" lon="-0.2962">
        <ele>116.5</ele>
        <time>2011-05-08T09:10:34Z</time>
      </trkpt>
      <trkpt lat="44.81863" lon="-0.29623">
        <ele>117.59999847412</ele>
        <time>2011-05-08T09:10:35Z</time>
      </trkpt>
      <trkpt lat="44.81867" lon="-0.29626">
        <ele>117.59999847412</ele>
        <time>2011-05-08T09:10:36Z</time>
      </trkpt>
      <trkpt lat="44.81871" lon="-0.29632">
        <ele>117.59999847412</ele>
        <time>2011-05-08T09:10:37Z</time>
      </trkpt>
      <trkpt lat="44.81874" lon="-0.29638">
        <ele>117.09999847412</ele>
        <time>2011-05-08T09:10:38Z</time>
      </trkpt>
      <trkpt lat="44.81876" lon="-0.29645">
        <ele>116.90000152588</ele>
        <time>2011-05-08T09:10:39Z</time>
      </trkpt>
      <trkpt lat="44.81878" lon="-0.29652">
        <ele>116.40000152588</ele>
        <time>2011-05-08T09:10:40Z</time>
      </trkpt>
      <trkpt lat="44.81879" lon="-0.29659">
        <ele>114.80000305176</ele>
        <time>2011-05-08T09:10:41Z</time>
      </trkpt>
      <trkpt lat="44.8188" lon="-0.29666">
        <ele>114.69999694824</ele>
        <time>2011-05-08T09:10:42Z</time>
      </trkpt>
      <trkpt lat="44.81881" lon="-0.29674">
        <ele>113.5</ele>
        <time>2011-05-08T09:10:43Z</time>
      </trkpt>
      <trkpt lat="44.81882" lon="-0.29689">
        <ele>112.80000305176</ele>
        <time>2011-05-08T09:10:45Z</time>
      </trkpt>
      <trkpt lat="44.81883" lon="-0.29695">
        <ele>113</ele>
        <time>2011-05-08T09:10:46Z</time>
      </trkpt>
      <trkpt lat="44.81882" lon="-0.29708">
        <ele>113.09999847412</ele>
        <time>2011-05-08T09:10:48Z</time>
      </trkpt>
      <trkpt lat="44.81882" lon="-0.2972">
        <ele>113.40000152588</ele>
        <time>2011-05-08T09:10:50Z</time>
      </trkpt>
      <trkpt lat="44.81884" lon="-0.29731">
        <ele>113.30000305176</ele>
        <time>2011-05-08T09:10:52Z</time>
      </trkpt>
      <trkpt lat="44.81885" lon="-0.29743">
        <ele>114.19999694824</ele>
        <time>2011-05-08T09:10:54Z</time>
      </trkpt>
      <trkpt lat="44.81886" lon="-0.29755">
        <ele>113.90000152588</ele>
        <time>2011-05-08T09:10:56Z</time>
      </trkpt>
      <trkpt lat="44.81886" lon="-0.29762">
        <ele>114.59999847412</ele>
        <time>2011-05-08T09:10:57Z</time>
      </trkpt>
      <trkpt lat="44.81886" lon="-0.2977">
        <ele>114.80000305176</ele>
        <time>2011-05-08T09:10:58Z</time>
      </trkpt>
      <trkpt lat="44.81886" lon="-0.29777">
        <ele>114.59999847412</ele>
        <time>2011-05-08T09:10:59Z</time>
      </trkpt>
      <trkpt lat="44.81887" lon="-0.29784">
        <ele>114.09999847412</ele>
        <time>2011-05-08T09:11:00Z</time>
      </trkpt>
      <trkpt lat="44.81887" lon="-0.29792">
        <ele>114</ele>
        <time>2011-05-08T09:11:01Z</time>
      </trkpt>
      <trkpt lat="44.81887" lon="-0.29799">
        <ele>113.30000305176</ele>
        <time>2011-05-08T09:11:02Z</time>
      </trkpt>
      <trkpt lat="44.81888" lon="-0.29807">
        <ele>113.30000305176</ele>
        <time>2011-05-08T09:11:03Z</time>
      </trkpt>
      <trkpt lat="44.81888" lon="-0.29814">
        <ele>112.80000305176</ele>
        <time>2011-05-08T09:11:04Z</time>
      </trkpt>
      <trkpt lat="44.81889" lon="-0.29822">
        <ele>113</ele>
        <time>2011-05-08T09:11:05Z</time>
      </trkpt>
      <trkpt lat="44.81888" lon="-0.29828">
        <ele>112.59999847412</ele>
        <time>2011-05-08T09:11:06Z</time>
      </trkpt>
      <trkpt lat="44.81888" lon="-0.29835">
        <ele>112.69999694824</ele>
        <time>2011-05-08T09:11:07Z</time>
      </trkpt>
      <trkpt lat="44.81888" lon="-0.29844">
        <ele>112.90000152588</ele>
        <time>2011-05-08T09:11:08Z</time>
      </trkpt>
      <trkpt lat="44.81889" lon="-0.29851">
        <ele>112.80000305176</ele>
        <time>2011-05-08T09:11:09Z</time>
      </trkpt>
      <trkpt lat="44.8189" lon="-0.29858">
        <ele>113.19999694824</ele>
        <time>2011-05-08T09:11:10Z</time>
      </trkpt>
      <trkpt lat="44.81889" lon="-0.29865">
        <ele>113.19999694824</ele>
        <time>2011-05-08T09:11:11Z</time>
      </trkpt>
      <trkpt lat="44.81889" lon="-0.29872">
        <ele>113.5</ele>
        <time>2011-05-08T09:11:12Z</time>
      </trkpt>
      <trkpt lat="44.81889" lon="-0.29879">
        <ele>113.30000305176</ele>
        <time>2011-05-08T09:11:13Z</time>
      </trkpt>
      <trkpt lat="44.81885" lon="-0.29884">
        <ele>112.69999694824</ele>
        <time>2011-05-08T09:11:14Z</time>
      </trkpt>
      <trkpt lat="44.81878" lon="-0.29884">
        <ele>112.69999694824</ele>
        <time>2011-05-08T09:11:16Z</time>
      </trkpt>
      <trkpt lat="44.81869" lon="-0.29885">
        <ele>112.19999694824</ele>
        <time>2011-05-08T09:11:18Z</time>
      </trkpt>
      <trkpt lat="44.8186" lon="-0.29885">
        <ele>112.80000305176</ele>
        <time>2011-05-08T09:11:20Z</time>
      </trkpt>
      <trkpt lat="44.81856" lon="-0.29885">
        <ele>113.19999694824</ele>
        <time>2011-05-08T09:11:21Z</time>
      </trkpt>
      <trkpt lat="44.81847" lon="-0.29884">
        <ele>114.19999694824</ele>
        <time>2011-05-08T09:11:23Z</time>
      </trkpt>
      <trkpt lat="44.81838" lon="-0.29883">
        <ele>114.90000152588</ele>
        <time>2011-05-08T09:11:25Z</time>
      </trkpt>
      <trkpt lat="44.8183" lon="-0.2988">
        <ele>114.90000152588</ele>
        <time>2011-05-08T09:11:27Z</time>
      </trkpt>
      <trkpt lat="44.81826" lon="-0.29879">
        <ele>115.5</ele>
        <time>2011-05-08T09:11:28Z</time>
      </trkpt>
      <trkpt lat="44.81817" lon="-0.29875">
        <ele>115.90000152588</ele>
        <time>2011-05-08T09:11:30Z</time>
      </trkpt>
      <trkpt lat="44.81811" lon="-0.29871">
        <ele>115.5</ele>
        <time>2011-05-08T09:11:32Z</time>
      </trkpt>
      <trkpt lat="44.81804" lon="-0.29868">
        <ele>116.19999694824</ele>
        <time>2011-05-08T09:11:34Z</time>
      </trkpt>
      <trkpt lat="44.81798" lon="-0.29865">
        <ele>115.90000152588</ele>
        <time>2011-05-08T09:11:36Z</time>
      </trkpt>
      <trkpt lat="44.81792" lon="-0.29863">
        <ele>115.69999694824</ele>
        <time>2011-05-08T09:11:38Z</time>
      </trkpt>
      <trkpt lat="44.81786" lon="-0.29863">
        <ele>115</ele>
        <time>2011-05-08T09:11:40Z</time>
      </trkpt>
      <trkpt lat="44.81779" lon="-0.29862">
        <ele>116.09999847412</ele>
        <time>2011-05-08T09:11:42Z</time>
      </trkpt>
      <trkpt lat="44.81771" lon="-0.2986">
        <ele>116.19999694824</ele>
        <time>2011-05-08T09:11:45Z</time>
      </trkpt>
      <trkpt lat="44.81765" lon="-0.29858">
        <ele>116.80000305176</ele>
        <time>2011-05-08T09:11:47Z</time>
      </trkpt>
      <trkpt lat="44.8176" lon="-0.29856">
        <ele>116.30000305176</ele>
        <time>2011-05-08T09:11:49Z</time>
      </trkpt>
      <trkpt lat="44.81754" lon="-0.29854">
        <ele>116.09999847412</ele>
        <time>2011-05-08T09:11:51Z</time>
      </trkpt>
      <trkpt lat="44.81746" lon="-0.29853">
        <ele>115.69999694824</ele>
        <time>2011-05-08T09:11:53Z</time>
      </trkpt>
      <trkpt lat="44.81739" lon="-0.29852">
        <ele>116.19999694824</ele>
        <time>2011-05-08T09:11:55Z</time>
      </trkpt>
      <trkpt lat="44.81732" lon="-0.2985">
        <ele>115.59999847412</ele>
        <time>2011-05-08T09:11:57Z</time>
      </trkpt>
      <trkpt lat="44.81724" lon="-0.29847">
        <ele>115.80000305176</ele>
        <time>2011-05-08T09:11:59Z</time>
      </trkpt>
      <trkpt lat="44.81718" lon="-0.29846">
        <ele>117.19999694824</ele>
        <time>2011-05-08T09:12:01Z</time>
      </trkpt>
      <trkpt lat="44.8171" lon="-0.29844">
        <ele>117</ele>
        <time>2011-05-08T09:12:03Z</time>
      </trkpt>
      <trkpt lat="44.81704" lon="-0.29843">
        <ele>116.90000152588</ele>
        <time>2011-05-08T09:12:05Z</time>
      </trkpt>
      <trkpt lat="44.81698" lon="-0.29841">
        <ele>118.09999847412</ele>
        <time>2011-05-08T09:12:07Z</time>
      </trkpt>
      <trkpt lat="44.81694" lon="-0.29839">
        <ele>118.19999694824</ele>
        <time>2011-05-08T09:12:09Z</time>
      </trkpt>
      <trkpt lat="44.81687" lon="-0.29838">
        <ele>118.19999694824</ele>
        <time>2011-05-08T09:12:11Z</time>
      </trkpt>
      <trkpt lat="44.81681" lon="-0.29837">
        <ele>117.19999694824</ele>
        <time>2011-05-08T09:12:13Z</time>
      </trkpt>
      <trkpt lat="44.81674" lon="-0.29832">
        <ele>116.59999847412</ele>
        <time>2011-05-08T09:12:15Z</time>
      </trkpt>
      <trkpt lat="44.81668" lon="-0.29825">
        <ele>115.80000305176</ele>
        <time>2011-05-08T09:12:17Z</time>
      </trkpt>
      <trkpt lat="44.81662" lon="-0.2982">
        <ele>116.30000305176</ele>
        <time>2011-05-08T09:12:19Z</time>
      </trkpt>
      <trkpt lat="44.81654" lon="-0.29817">
        <ele>117.09999847412</ele>
        <time>2011-05-08T09:12:21Z</time>
      </trkpt>
      <trkpt lat="44.81644" lon="-0.29815">
        <ele>117</ele>
        <time>2011-05-08T09:12:23Z</time>
      </trkpt>
      <trkpt lat="44.81636" lon="-0.29813">
        <ele>117</ele>
        <time>2011-05-08T09:12:25Z</time>
      </trkpt>
      <trkpt lat="44.81631" lon="-0.29813">
        <ele>117</ele>
        <time>2011-05-08T09:12:26Z</time>
      </trkpt>
      <trkpt lat="44.81621" lon="-0.29812">
        <ele>116.80000305176</ele>
        <time>2011-05-08T09:12:28Z</time>
      </trkpt>
      <trkpt lat="44.81616" lon="-0.29812">
        <ele>116.40000152588</ele>
        <time>2011-05-08T09:12:29Z</time>
      </trkpt>
      <trkpt lat="44.81611" lon="-0.29812">
        <ele>116.80000305176</ele>
        <time>2011-05-08T09:12:30Z</time>
      </trkpt>
      <trkpt lat="44.81606" lon="-0.29812">
        <ele>116.19999694824</ele>
        <time>2011-05-08T09:12:31Z</time>
      </trkpt>
      <trkpt lat="44.81601" lon="-0.29812">
        <ele>115.40000152588</ele>
        <time>2011-05-08T09:12:32Z</time>
      </trkpt>
      <trkpt lat="44.81596" lon="-0.29812">
        <ele>115.59999847412</ele>
        <time>2011-05-08T09:12:33Z</time>
      </trkpt>
      <trkpt lat="44.81586" lon="-0.29811">
        <ele>115.19999694824</ele>
        <time>2011-05-08T09:12:35Z</time>
      </trkpt>
      <trkpt lat="44.81582" lon="-0.29811">
        <ele>115.40000152588</ele>
        <time>2011-05-08T09:12:36Z</time>
      </trkpt>
      <trkpt lat="44.81575" lon="-0.29811">
        <ele>114.69999694824</ele>
        <time>2011-05-08T09:12:38Z</time>
      </trkpt>
      <trkpt lat="44.81568" lon="-0.29811">
        <ele>115.40000152588</ele>
        <time>2011-05-08T09:12:40Z</time>
      </trkpt>
      <trkpt lat="44.81561" lon="-0.29811">
        <ele>115.19999694824</ele>
        <time>2011-05-08T09:12:42Z</time>
      </trkpt>
      <trkpt lat="44.81555" lon="-0.29818">
        <ele>115</ele>
        <time>2011-05-08T09:12:45Z</time>
      </trkpt>
      <trkpt lat="44.81551" lon="-0.29828">
        <ele>113.30000305176</ele>
        <time>2011-05-08T09:12:47Z</time>
      </trkpt>
      <trkpt lat="44.81548" lon="-0.29838">
        <ele>113.5</ele>
        <time>2011-05-08T09:12:49Z</time>
      </trkpt>
      <trkpt lat="44.81547" lon="-0.29852">
        <ele>113.69999694824</ele>
        <time>2011-05-08T09:12:51Z</time>
      </trkpt>
      <trkpt lat="44.81546" lon="-0.29859">
        <ele>113.59999847412</ele>
        <time>2011-05-08T09:12:52Z</time>
      </trkpt>
      <trkpt lat="44.81546" lon="-0.29867">
        <ele>113.69999694824</ele>
        <time>2011-05-08T09:12:53Z</time>
      </trkpt>
      <trkpt lat="44.81545" lon="-0.29874">
        <ele>113.40000152588</ele>
        <time>2011-05-08T09:12:54Z</time>
      </trkpt>
      <trkpt lat="44.81542" lon="-0.29886">
        <ele>113.09999847412</ele>
        <time>2011-05-08T09:12:56Z</time>
      </trkpt>
      <trkpt lat="44.8154" lon="-0.29893">
        <ele>114.09999847412</ele>
        <time>2011-05-08T09:12:57Z</time>
      </trkpt>
      <trkpt lat="44.81539" lon="-0.29899">
        <ele>114.09999847412</ele>
        <time>2011-05-08T09:12:58Z</time>
      </trkpt>
      <trkpt lat="44.81537" lon="-0.29906">
        <ele>114</ele>
        <time>2011-05-08T09:12:59Z</time>
      </trkpt>
      <trkpt lat="44.81535" lon="-0.29912">
        <ele>113.69999694824</ele>
        <time>2011-05-08T09:13:00Z</time>
      </trkpt>
      <trkpt lat="44.81532" lon="-0.29924">
        <ele>113</ele>
        <time>2011-05-08T09:13:02Z</time>
      </trkpt>
      <trkpt lat="44.8153" lon="-0.29931">
        <ele>112.19999694824</ele>
        <time>2011-05-08T09:13:03Z</time>
      </trkpt>
      <trkpt lat="44.81528" lon="-0.29937">
        <ele>112.69999694824</ele>
        <time>2011-05-08T09:13:04Z</time>
      </trkpt>
      <trkpt lat="44.81526" lon="-0.29944">
        <ele>113.19999694824</ele>
        <time>2011-05-08T09:13:05Z</time>
      </trkpt>
      <trkpt lat="44.81523" lon="-0.29956">
        <ele>112.90000152588</ele>
        <time>2011-05-08T09:13:07Z</time>
      </trkpt>
      <trkpt lat="44.81521" lon="-0.29962">
        <ele>113</ele>
        <time>2011-05-08T09:13:08Z</time>
      </trkpt>
      <trkpt lat="44.81519" lon="-0.29969">
        <ele>112.40000152588</ele>
        <time>2011-05-08T09:13:09Z</time>
      </trkpt>
      <trkpt lat="44.81516" lon="-0.29975">
        <ele>112.30000305176</ele>
        <time>2011-05-08T09:13:10Z</time>
      </trkpt>
      <trkpt lat="44.81513" lon="-0.29981">
        <ele>112</ele>
        <time>2011-05-08T09:13:11Z</time>
      </trkpt>
      <trkpt lat="44.8151" lon="-0.29987">
        <ele>111.90000152588</ele>
        <time>2011-05-08T09:13:12Z</time>
      </trkpt>
      <trkpt lat="44.81507" lon="-0.29992">
        <ele>111.80000305176</ele>
        <time>2011-05-08T09:13:13Z</time>
      </trkpt>
      <trkpt lat="44.81504" lon="-0.29998">
        <ele>112.69999694824</ele>
        <time>2011-05-08T09:13:14Z</time>
      </trkpt>
      <trkpt lat="44.81503" lon="-0.30004">
        <ele>112.59999847412</ele>
        <time>2011-05-08T09:13:15Z</time>
      </trkpt>
      <trkpt lat="44.815" lon="-0.3001">
        <ele>112.69999694824</ele>
        <time>2011-05-08T09:13:16Z</time>
      </trkpt>
      <trkpt lat="44.81498" lon="-0.30016">
        <ele>112.5</ele>
        <time>2011-05-08T09:13:17Z</time>
      </trkpt>
      <trkpt lat="44.81495" lon="-0.30022">
        <ele>112.30000305176</ele>
        <time>2011-05-08T09:13:18Z</time>
      </trkpt>
      <trkpt lat="44.81493" lon="-0.30028">
        <ele>112.30000305176</ele>
        <time>2011-05-08T09:13:19Z</time>
      </trkpt>
      <trkpt lat="44.8149" lon="-0.30034">
        <ele>112.19999694824</ele>
        <time>2011-05-08T09:13:20Z</time>
      </trkpt>
      <trkpt lat="44.81485" lon="-0.30045">
        <ele>111.59999847412</ele>
        <time>2011-05-08T09:13:22Z</time>
      </trkpt>
      <trkpt lat="44.81483" lon="-0.30051">
        <ele>111.19999694824</ele>
        <time>2011-05-08T09:13:23Z</time>
      </trkpt>
      <trkpt lat="44.81481" lon="-0.30059">
        <ele>111.19999694824</ele>
        <time>2011-05-08T09:13:24Z</time>
      </trkpt>
      <trkpt lat="44.81479" lon="-0.30065">
        <ele>111.59999847412</ele>
        <time>2011-05-08T09:13:25Z</time>
      </trkpt>
      <trkpt lat="44.81477" lon="-0.30071">
        <ele>112.09999847412</ele>
        <time>2011-05-08T09:13:26Z</time>
      </trkpt>
      <trkpt lat="44.81476" lon="-0.30078">
        <ele>112.59999847412</ele>
        <time>2011-05-08T09:13:27Z</time>
      </trkpt>
      <trkpt lat="44.81472" lon="-0.30084">
        <ele>112.30000305176</ele>
        <time>2011-05-08T09:13:28Z</time>
      </trkpt>
      <trkpt lat="44.81472" lon="-0.3009">
        <ele>112.09999847412</ele>
        <time>2011-05-08T09:13:29Z</time>
      </trkpt>
      <trkpt lat="44.8147" lon="-0.30097">
        <ele>111.90000152588</ele>
        <time>2011-05-08T09:13:30Z</time>
      </trkpt>
      <trkpt lat="44.81469" lon="-0.30104">
        <ele>112.09999847412</ele>
        <time>2011-05-08T09:13:31Z</time>
      </trkpt>
      <trkpt lat="44.81467" lon="-0.30111">
        <ele>112.40000152588</ele>
        <time>2011-05-08T09:13:32Z</time>
      </trkpt>
      <trkpt lat="44.81466" lon="-0.30123">
        <ele>112.59999847412</ele>
        <time>2011-05-08T09:13:34Z</time>
      </trkpt>
      <trkpt lat="44.81464" lon="-0.30135">
        <ele>113.40000152588</ele>
        <time>2011-05-08T09:13:36Z</time>
      </trkpt>
      <trkpt lat="44.81463" lon="-0.30141">
        <ele>113.90000152588</ele>
        <time>2011-05-08T09:13:37Z</time>
      </trkpt>
      <trkpt lat="44.81462" lon="-0.30153">
        <ele>114.30000305176</ele>
        <time>2011-05-08T09:13:39Z</time>
      </trkpt>
      <trkpt lat="44.81461" lon="-0.3016">
        <ele>114.09999847412</ele>
        <time>2011-05-08T09:13:40Z</time>
      </trkpt>
      <trkpt lat="44.81461" lon="-0.30167">
        <ele>114</ele>
        <time>2011-05-08T09:13:41Z</time>
      </trkpt>
      <trkpt lat="44.8146" lon="-0.30174">
        <ele>114</ele>
        <time>2011-05-08T09:13:42Z</time>
      </trkpt>
      <trkpt lat="44.81458" lon="-0.30181">
        <ele>114.59999847412</ele>
        <time>2011-05-08T09:13:43Z</time>
      </trkpt>
      <trkpt lat="44.81457" lon="-0.30197">
        <ele>114.40000152588</ele>
        <time>2011-05-08T09:13:45Z</time>
      </trkpt>
      <trkpt lat="44.81456" lon="-0.30205">
        <ele>114.59999847412</ele>
        <time>2011-05-08T09:13:46Z</time>
      </trkpt>
      <trkpt lat="44.81455" lon="-0.30213">
        <ele>114.30000305176</ele>
        <time>2011-05-08T09:13:47Z</time>
      </trkpt>
      <trkpt lat="44.81455" lon="-0.3022">
        <ele>114.09999847412</ele>
        <time>2011-05-08T09:13:48Z</time>
      </trkpt>
      <trkpt lat="44.81454" lon="-0.30229">
        <ele>113.69999694824</ele>
        <time>2011-05-08T09:13:49Z</time>
      </trkpt>
      <trkpt lat="44.81452" lon="-0.30239">
        <ele>113.59999847412</ele>
        <time>2011-05-08T09:13:50Z</time>
      </trkpt>
      <trkpt lat="44.8145" lon="-0.30247">
        <ele>113.80000305176</ele>
        <time>2011-05-08T09:13:51Z</time>
      </trkpt>
      <trkpt lat="44.81449" lon="-0.30254">
        <ele>113.19999694824</ele>
        <time>2011-05-08T09:13:52Z</time>
      </trkpt>
      <trkpt lat="44.81447" lon="-0.30263">
        <ele>113.69999694824</ele>
        <time>2011-05-08T09:13:53Z</time>
      </trkpt>
      <trkpt lat="44.81446" lon="-0.30272">
        <ele>114</ele>
        <time>2011-05-08T09:13:54Z</time>
      </trkpt>
      <trkpt lat="44.81444" lon="-0.30279">
        <ele>114.09999847412</ele>
        <time>2011-05-08T09:13:55Z</time>
      </trkpt>
      <trkpt lat="44.81442" lon="-0.30287">
        <ele>114.30000305176</ele>
        <time>2011-05-08T09:13:56Z</time>
      </trkpt>
      <trkpt lat="44.81439" lon="-0.30293">
        <ele>114</ele>
        <time>2011-05-08T09:13:57Z</time>
      </trkpt>
      <trkpt lat="44.81437" lon="-0.303">
        <ele>113.69999694824</ele>
        <time>2011-05-08T09:13:58Z</time>
      </trkpt>
      <trkpt lat="44.81434" lon="-0.30307">
        <ele>113.19999694824</ele>
        <time>2011-05-08T09:13:59Z</time>
      </trkpt>
      <trkpt lat="44.81431" lon="-0.30314">
        <ele>113.09999847412</ele>
        <time>2011-05-08T09:14:00Z</time>
      </trkpt>
      <trkpt lat="44.81428" lon="-0.30321">
        <ele>113.30000305176</ele>
        <time>2011-05-08T09:14:01Z</time>
      </trkpt>
      <trkpt lat="44.81425" lon="-0.30327">
        <ele>113.19999694824</ele>
        <time>2011-05-08T09:14:02Z</time>
      </trkpt>
      <trkpt lat="44.81421" lon="-0.30333">
        <ele>113.30000305176</ele>
        <time>2011-05-08T09:14:03Z</time>
      </trkpt>
      <trkpt lat="44.81418" lon="-0.30338">
        <ele>113.40000152588</ele>
        <time>2011-05-08T09:14:04Z</time>
      </trkpt>
      <trkpt lat="44.81414" lon="-0.30344">
        <ele>113.59999847412</ele>
        <time>2011-05-08T09:14:05Z</time>
      </trkpt>
      <trkpt lat="44.8141" lon="-0.30349">
        <ele>113.5</ele>
        <time>2011-05-08T09:14:06Z</time>
      </trkpt>
      <trkpt lat="44.81403" lon="-0.30359">
        <ele>114.80000305176</ele>
        <time>2011-05-08T09:14:08Z</time>
      </trkpt>
      <trkpt lat="44.814" lon="-0.30364">
        <ele>114.30000305176</ele>
        <time>2011-05-08T09:14:09Z</time>
      </trkpt>
      <trkpt lat="44.81396" lon="-0.30369">
        <ele>114.80000305176</ele>
        <time>2011-05-08T09:14:10Z</time>
      </trkpt>
      <trkpt lat="44.81392" lon="-0.30373">
        <ele>115.09999847412</ele>
        <time>2011-05-08T09:14:11Z</time>
      </trkpt>
      <trkpt lat="44.81387" lon="-0.30379">
        <ele>115.40000152588</ele>
        <time>2011-05-08T09:14:12Z</time>
      </trkpt>
      <trkpt lat="44.81383" lon="-0.30384">
        <ele>115.40000152588</ele>
        <time>2011-05-08T09:14:13Z</time>
      </trkpt>
      <trkpt lat="44.81379" lon="-0.30389">
        <ele>115.40000152588</ele>
        <time>2011-05-08T09:14:14Z</time>
      </trkpt>
      <trkpt lat="44.81375" lon="-0.30394">
        <ele>114.80000305176</ele>
        <time>2011-05-08T09:14:15Z</time>
      </trkpt>
      <trkpt lat="44.8137" lon="-0.30399">
        <ele>114.90000152588</ele>
        <time>2011-05-08T09:14:16Z</time>
      </trkpt>
      <trkpt lat="44.81366" lon="-0.30405">
        <ele>114.80000305176</ele>
        <time>2011-05-08T09:14:17Z</time>
      </trkpt>
      <trkpt lat="44.8136" lon="-0.30414">
        <ele>114.69999694824</ele>
        <time>2011-05-08T09:14:19Z</time>
      </trkpt>
      <trkpt lat="44.81353" lon="-0.30419">
        <ele>114.19999694824</ele>
        <time>2011-05-08T09:14:21Z</time>
      </trkpt>
      <trkpt lat="44.81349" lon="-0.3042">
        <ele>114.40000152588</ele>
        <time>2011-05-08T09:14:22Z</time>
      </trkpt>
      <trkpt lat="44.81344" lon="-0.30423">
        <ele>114.5</ele>
        <time>2011-05-08T09:14:23Z</time>
      </trkpt>
      <trkpt lat="44.81335" lon="-0.30426">
        <ele>114.19999694824</ele>
        <time>2011-05-08T09:14:25Z</time>
      </trkpt>
      <trkpt lat="44.81326" lon="-0.30429">
        <ele>114.19999694824</ele>
        <time>2011-05-08T09:14:27Z</time>
      </trkpt>
      <trkpt lat="44.81321" lon="-0.3043">
        <ele>114.69999694824</ele>
        <time>2011-05-08T09:14:28Z</time>
      </trkpt>
      <trkpt lat="44.81316" lon="-0.30431">
        <ele>114.40000152588</ele>
        <time>2011-05-08T09:14:29Z</time>
      </trkpt>
      <trkpt lat="44.81307" lon="-0.30433">
        <ele>113.90000152588</ele>
        <time>2011-05-08T09:14:31Z</time>
      </trkpt>
      <trkpt lat="44.81298" lon="-0.30435">
        <ele>113.80000305176</ele>
        <time>2011-05-08T09:14:33Z</time>
      </trkpt>
      <trkpt lat="44.81292" lon="-0.30436">
        <ele>113.09999847412</ele>
        <time>2011-05-08T09:14:34Z</time>
      </trkpt>
      <trkpt lat="44.81286" lon="-0.30437">
        <ele>112.80000305176</ele>
        <time>2011-05-08T09:14:35Z</time>
      </trkpt>
      <trkpt lat="44.8128" lon="-0.30438">
        <ele>112.80000305176</ele>
        <time>2011-05-08T09:14:36Z</time>
      </trkpt>
      <trkpt lat="44.81275" lon="-0.30439">
        <ele>112.69999694824</ele>
        <time>2011-05-08T09:14:37Z</time>
      </trkpt>
      <trkpt lat="44.8127" lon="-0.3044">
        <ele>112.80000305176</ele>
        <time>2011-05-08T09:14:38Z</time>
      </trkpt>
      <trkpt lat="44.81265" lon="-0.30441">
        <ele>112.80000305176</ele>
        <time>2011-05-08T09:14:39Z</time>
      </trkpt>
      <trkpt lat="44.8126" lon="-0.30443">
        <ele>112.5</ele>
        <time>2011-05-08T09:14:40Z</time>
      </trkpt>
      <trkpt lat="44.81255" lon="-0.30445">
        <ele>112.69999694824</ele>
        <time>2011-05-08T09:14:41Z</time>
      </trkpt>
      <trkpt lat="44.81249" lon="-0.30446">
        <ele>112.69999694824</ele>
        <time>2011-05-08T09:14:42Z</time>
      </trkpt>
      <trkpt lat="44.81243" lon="-0.30447">
        <ele>112.40000152588</ele>
        <time>2011-05-08T09:14:43Z</time>
      </trkpt>
      <trkpt lat="44.81235" lon="-0.30449">
        <ele>112.59999847412</ele>
        <time>2011-05-08T09:14:45Z</time>
      </trkpt>
      <trkpt lat="44.81228" lon="-0.30449">
        <ele>112.80000305176</ele>
        <time>2011-05-08T09:14:46Z</time>
      </trkpt>
      <trkpt lat="44.81223" lon="-0.30451">
        <ele>112.90000152588</ele>
        <time>2011-05-08T09:14:47Z</time>
      </trkpt>
      <trkpt lat="44.81216" lon="-0.30452">
        <ele>112.69999694824</ele>
        <time>2011-05-08T09:14:48Z</time>
      </trkpt>
      <trkpt lat="44.8121" lon="-0.30453">
        <ele>112.30000305176</ele>
        <time>2011-05-08T09:14:49Z</time>
      </trkpt>
      <trkpt lat="44.81205" lon="-0.30453">
        <ele>112.90000152588</ele>
        <time>2011-05-08T09:14:50Z</time>
      </trkpt>
      <trkpt lat="44.81196" lon="-0.30457">
        <ele>113.30000305176</ele>
        <time>2011-05-08T09:14:52Z</time>
      </trkpt>
      <trkpt lat="44.81187" lon="-0.30461">
        <ele>113.59999847412</ele>
        <time>2011-05-08T09:14:54Z</time>
      </trkpt>
      <trkpt lat="44.8118" lon="-0.30467">
        <ele>113.5</ele>
        <time>2011-05-08T09:14:56Z</time>
      </trkpt>
      <trkpt lat="44.81171" lon="-0.30471">
        <ele>113.40000152588</ele>
        <time>2011-05-08T09:14:58Z</time>
      </trkpt>
      <trkpt lat="44.81166" lon="-0.30474">
        <ele>113.40000152588</ele>
        <time>2011-05-08T09:14:59Z</time>
      </trkpt>
      <trkpt lat="44.81161" lon="-0.30477">
        <ele>112.80000305176</ele>
        <time>2011-05-08T09:15:00Z</time>
      </trkpt>
      <trkpt lat="44.81156" lon="-0.30479">
        <ele>112.80000305176</ele>
        <time>2011-05-08T09:15:01Z</time>
      </trkpt>
      <trkpt lat="44.81152" lon="-0.3048">
        <ele>112.40000152588</ele>
        <time>2011-05-08T09:15:02Z</time>
      </trkpt>
      <trkpt lat="44.81142" lon="-0.30483">
        <ele>112.59999847412</ele>
        <time>2011-05-08T09:15:04Z</time>
      </trkpt>
      <trkpt lat="44.81138" lon="-0.30484">
        <ele>112.59999847412</ele>
        <time>2011-05-08T09:15:05Z</time>
      </trkpt>
      <trkpt lat="44.81133" lon="-0.30485">
        <ele>112.59999847412</ele>
        <time>2011-05-08T09:15:06Z</time>
      </trkpt>
      <trkpt lat="44.81128" lon="-0.30487">
        <ele>112.40000152588</ele>
        <time>2011-05-08T09:15:07Z</time>
      </trkpt>
      <trkpt lat="44.81123" lon="-0.30489">
        <ele>112.40000152588</ele>
        <time>2011-05-08T09:15:08Z</time>
      </trkpt>
      <trkpt lat="44.81118" lon="-0.30491">
        <ele>112.19999694824</ele>
        <time>2011-05-08T09:15:09Z</time>
      </trkpt>
      <trkpt lat="44.81113" lon="-0.30493">
        <ele>111.90000152588</ele>
        <time>2011-05-08T09:15:10Z</time>
      </trkpt>
      <trkpt lat="44.81108" lon="-0.30495">
        <ele>111.90000152588</ele>
        <time>2011-05-08T09:15:11Z</time>
      </trkpt>
      <trkpt lat="44.81101" lon="-0.30498">
        <ele>112</ele>
        <time>2011-05-08T09:15:13Z</time>
      </trkpt>
      <trkpt lat="44.81096" lon="-0.30501">
        <ele>111.90000152588</ele>
        <time>2011-05-08T09:15:14Z</time>
      </trkpt>
      <trkpt lat="44.81091" lon="-0.30503">
        <ele>112</ele>
        <time>2011-05-08T09:15:15Z</time>
      </trkpt>
      <trkpt lat="44.81083" lon="-0.30506">
        <ele>112.40000152588</ele>
        <time>2011-05-08T09:15:17Z</time>
      </trkpt>
      <trkpt lat="44.81076" lon="-0.30511">
        <ele>111.59999847412</ele>
        <time>2011-05-08T09:15:19Z</time>
      </trkpt>
      <trkpt lat="44.81068" lon="-0.30515">
        <ele>111.80000305176</ele>
        <time>2011-05-08T09:15:21Z</time>
      </trkpt>
      <trkpt lat="44.81061" lon="-0.30519">
        <ele>111.90000152588</ele>
        <time>2011-05-08T09:15:23Z</time>
      </trkpt>
      <trkpt lat="44.81054" lon="-0.30522">
        <ele>111.09999847412</ele>
        <time>2011-05-08T09:15:25Z</time>
      </trkpt>
      <trkpt lat="44.81047" lon="-0.30526">
        <ele>111.30000305176</ele>
        <time>2011-05-08T09:15:27Z</time>
      </trkpt>
      <trkpt lat="44.81039" lon="-0.30529">
        <ele>110.59999847412</ele>
        <time>2011-05-08T09:15:29Z</time>
      </trkpt>
      <trkpt lat="44.81033" lon="-0.30531">
        <ele>110.40000152588</ele>
        <time>2011-05-08T09:15:31Z</time>
      </trkpt>
      <trkpt lat="44.81026" lon="-0.30534">
        <ele>110.40000152588</ele>
        <time>2011-05-08T09:15:33Z</time>
      </trkpt>
      <trkpt lat="44.8102" lon="-0.30537">
        <ele>110.69999694824</ele>
        <time>2011-05-08T09:15:35Z</time>
      </trkpt>
      <trkpt lat="44.81014" lon="-0.3054">
        <ele>111</ele>
        <time>2011-05-08T09:15:37Z</time>
      </trkpt>
      <trkpt lat="44.81007" lon="-0.30543">
        <ele>111.59999847412</ele>
        <time>2011-05-08T09:15:39Z</time>
      </trkpt>
      <trkpt lat="44.81" lon="-0.30545">
        <ele>112.30000305176</ele>
        <time>2011-05-08T09:15:41Z</time>
      </trkpt>
      <trkpt lat="44.80994" lon="-0.30548">
        <ele>112.09999847412</ele>
        <time>2011-05-08T09:15:43Z</time>
      </trkpt>
      <trkpt lat="44.80986" lon="-0.30551">
        <ele>111.69999694824</ele>
        <time>2011-05-08T09:15:45Z</time>
      </trkpt>
      <trkpt lat="44.80979" lon="-0.30554">
        <ele>112.30000305176</ele>
        <time>2011-05-08T09:15:47Z</time>
      </trkpt>
      <trkpt lat="44.80972" lon="-0.30557">
        <ele>112.69999694824</ele>
        <time>2011-05-08T09:15:49Z</time>
      </trkpt>
      <trkpt lat="44.80965" lon="-0.30559">
        <ele>112.90000152588</ele>
        <time>2011-05-08T09:15:51Z</time>
      </trkpt>
      <trkpt lat="44.80959" lon="-0.30564">
        <ele>112.80000305176</ele>
        <time>2011-05-08T09:15:53Z</time>
      </trkpt>
      <trkpt lat="44.80951" lon="-0.30566">
        <ele>113.09999847412</ele>
        <time>2011-05-08T09:15:55Z</time>
      </trkpt>
      <trkpt lat="44.80944" lon="-0.3057">
        <ele>113.09999847412</ele>
        <time>2011-05-08T09:15:57Z</time>
      </trkpt>
      <trkpt lat="44.80937" lon="-0.30573">
        <ele>113.59999847412</ele>
        <time>2011-05-08T09:15:59Z</time>
      </trkpt>
      <trkpt lat="44.8093" lon="-0.30577">
        <ele>113.09999847412</ele>
        <time>2011-05-08T09:16:01Z</time>
      </trkpt>
      <trkpt lat="44.80923" lon="-0.3058">
        <ele>113.30000305176</ele>
        <time>2011-05-08T09:16:03Z</time>
      </trkpt>
      <trkpt lat="44.80916" lon="-0.30584">
        <ele>113</ele>
        <time>2011-05-08T09:16:05Z</time>
      </trkpt>
      <trkpt lat="44.80908" lon="-0.30586">
        <ele>113.80000305176</ele>
        <time>2011-05-08T09:16:07Z</time>
      </trkpt>
      <trkpt lat="44.80901" lon="-0.30589">
        <ele>114.19999694824</ele>
        <time>2011-05-08T09:16:09Z</time>
      </trkpt>
      <trkpt lat="44.80895" lon="-0.30593">
        <ele>115</ele>
        <time>2011-05-08T09:16:11Z</time>
      </trkpt>
      <trkpt lat="44.80888" lon="-0.30596">
        <ele>114.69999694824</ele>
        <time>2011-05-08T09:16:13Z</time>
      </trkpt>
      <trkpt lat="44.80881" lon="-0.306">
        <ele>114.5</ele>
        <time>2011-05-08T09:16:15Z</time>
      </trkpt>
      <trkpt lat="44.80874" lon="-0.30603">
        <ele>114.30000305176</ele>
        <time>2011-05-08T09:16:17Z</time>
      </trkpt>
      <trkpt lat="44.80866" lon="-0.30606">
        <ele>114</ele>
        <time>2011-05-08T09:16:19Z</time>
      </trkpt>
      <trkpt lat="44.80861" lon="-0.3061">
        <ele>114.69999694824</ele>
        <time>2011-05-08T09:16:21Z</time>
      </trkpt>
      <trkpt lat="44.80855" lon="-0.30615">
        <ele>116.09999847412</ele>
        <time>2011-05-08T09:16:23Z</time>
      </trkpt>
      <trkpt lat="44.80851" lon="-0.30622">
        <ele>116.19999694824</ele>
        <time>2011-05-08T09:16:25Z</time>
      </trkpt>
      <trkpt lat="44.80848" lon="-0.30628">
        <ele>115.40000152588</ele>
        <time>2011-05-08T09:16:27Z</time>
      </trkpt>
      <trkpt lat="44.80845" lon="-0.30635">
        <ele>116.69999694824</ele>
        <time>2011-05-08T09:16:29Z</time>
      </trkpt>
      <trkpt lat="44.80841" lon="-0.30642">
        <ele>117</ele>
        <time>2011-05-08T09:16:31Z</time>
      </trkpt>
      <trkpt lat="44.80839" lon="-0.30648">
        <ele>117.40000152588</ele>
        <time>2011-05-08T09:16:33Z</time>
      </trkpt>
      <trkpt lat="44.80834" lon="-0.30654">
        <ele>116.90000152588</ele>
        <time>2011-05-08T09:16:35Z</time>
      </trkpt>
      <trkpt lat="44.8083" lon="-0.30658">
        <ele>116.69999694824</ele>
        <time>2011-05-08T09:16:36Z</time>
      </trkpt>
      <trkpt lat="44.80824" lon="-0.30666">
        <ele>116.80000305176</ele>
        <time>2011-05-08T09:16:38Z</time>
      </trkpt>
      <trkpt lat="44.80818" lon="-0.30674">
        <ele>116.40000152588</ele>
        <time>2011-05-08T09:16:39Z</time>
      </trkpt>
      <trkpt lat="44.80813" lon="-0.3068">
        <ele>116.19999694824</ele>
        <time>2011-05-08T09:16:40Z</time>
      </trkpt>
      <trkpt lat="44.8081" lon="-0.30688">
        <ele>116.09999847412</ele>
        <time>2011-05-08T09:16:41Z</time>
      </trkpt>
      <trkpt lat="44.80804" lon="-0.30695">
        <ele>116.09999847412</ele>
        <time>2011-05-08T09:16:42Z</time>
      </trkpt>
      <trkpt lat="44.808" lon="-0.30702">
        <ele>115.80000305176</ele>
        <time>2011-05-08T09:16:43Z</time>
      </trkpt>
      <trkpt lat="44.8079" lon="-0.30713">
        <ele>116.09999847412</ele>
        <time>2011-05-08T09:16:45Z</time>
      </trkpt>
      <trkpt lat="44.80784" lon="-0.30718">
        <ele>116</ele>
        <time>2011-05-08T09:16:46Z</time>
      </trkpt>
      <trkpt lat="44.80779" lon="-0.30725">
        <ele>115.90000152588</ele>
        <time>2011-05-08T09:16:47Z</time>
      </trkpt>
      <trkpt lat="44.80774" lon="-0.30731">
        <ele>116</ele>
        <time>2011-05-08T09:16:48Z</time>
      </trkpt>
      <trkpt lat="44.80771" lon="-0.30739">
        <ele>116.09999847412</ele>
        <time>2011-05-08T09:16:49Z</time>
      </trkpt>
      <trkpt lat="44.80767" lon="-0.30745">
        <ele>115.80000305176</ele>
        <time>2011-05-08T09:16:50Z</time>
      </trkpt>
      <trkpt lat="44.80761" lon="-0.30751">
        <ele>115.5</ele>
        <time>2011-05-08T09:16:51Z</time>
      </trkpt>
      <trkpt lat="44.80756" lon="-0.30754">
        <ele>115</ele>
        <time>2011-05-08T09:16:52Z</time>
      </trkpt>
      <trkpt lat="44.8075" lon="-0.30757">
        <ele>114.90000152588</ele>
        <time>2011-05-08T09:16:53Z</time>
      </trkpt>
      <trkpt lat="44.80744" lon="-0.3076">
        <ele>114.09999847412</ele>
        <time>2011-05-08T09:16:54Z</time>
      </trkpt>
      <trkpt lat="44.80739" lon="-0.30763">
        <ele>113.80000305176</ele>
        <time>2011-05-08T09:16:55Z</time>
      </trkpt>
      <trkpt lat="44.80734" lon="-0.30767">
        <ele>113.59999847412</ele>
        <time>2011-05-08T09:16:56Z</time>
      </trkpt>
      <trkpt lat="44.80728" lon="-0.3077">
        <ele>113.80000305176</ele>
        <time>2011-05-08T09:16:57Z</time>
      </trkpt>
      <trkpt lat="44.80724" lon="-0.30772">
        <ele>113.69999694824</ele>
        <time>2011-05-08T09:16:58Z</time>
      </trkpt>
      <trkpt lat="44.80719" lon="-0.30776">
        <ele>114</ele>
        <time>2011-05-08T09:16:59Z</time>
      </trkpt>
      <trkpt lat="44.80714" lon="-0.3078">
        <ele>113.30000305176</ele>
        <time>2011-05-08T09:17:00Z</time>
      </trkpt>
      <trkpt lat="44.80709" lon="-0.30782">
        <ele>112.90000152588</ele>
        <time>2011-05-08T09:17:01Z</time>
      </trkpt>
      <trkpt lat="44.80704" lon="-0.30785">
        <ele>112.69999694824</ele>
        <time>2011-05-08T09:17:02Z</time>
      </trkpt>
      <trkpt lat="44.807" lon="-0.30788">
        <ele>112.80000305176</ele>
        <time>2011-05-08T09:17:03Z</time>
      </trkpt>
      <trkpt lat="44.80696" lon="-0.30791">
        <ele>112.90000152588</ele>
        <time>2011-05-08T09:17:04Z</time>
      </trkpt>
      <trkpt lat="44.80688" lon="-0.30797">
        <ele>112.59999847412</ele>
        <time>2011-05-08T09:17:06Z</time>
      </trkpt>
      <trkpt lat="44.80684" lon="-0.308">
        <ele>112.80000305176</ele>
        <time>2011-05-08T09:17:07Z</time>
      </trkpt>
      <trkpt lat="44.80677" lon="-0.30807">
        <ele>112.30000305176</ele>
        <time>2011-05-08T09:17:09Z</time>
      </trkpt>
      <trkpt lat="44.80673" lon="-0.3081">
        <ele>112.30000305176</ele>
        <time>2011-05-08T09:17:10Z</time>
      </trkpt>
      <trkpt lat="44.80666" lon="-0.30816">
        <ele>112.19999694824</ele>
        <time>2011-05-08T09:17:12Z</time>
      </trkpt>
      <trkpt lat="44.80658" lon="-0.30821">
        <ele>111.59999847412</ele>
        <time>2011-05-08T09:17:14Z</time>
      </trkpt>
      <trkpt lat="44.80651" lon="-0.30826">
        <ele>111</ele>
        <time>2011-05-08T09:17:16Z</time>
      </trkpt>
      <trkpt lat="44.80645" lon="-0.30833">
        <ele>112</ele>
        <time>2011-05-08T09:17:18Z</time>
      </trkpt>
      <trkpt lat="44.80641" lon="-0.30836">
        <ele>112.09999847412</ele>
        <time>2011-05-08T09:17:19Z</time>
      </trkpt>
      <trkpt lat="44.80637" lon="-0.30839">
        <ele>111.19999694824</ele>
        <time>2011-05-08T09:17:20Z</time>
      </trkpt>
      <trkpt lat="44.8063" lon="-0.30847">
        <ele>110.5</ele>
        <time>2011-05-08T09:17:22Z</time>
      </trkpt>
      <trkpt lat="44.80624" lon="-0.30853">
        <ele>110.30000305176</ele>
        <time>2011-05-08T09:17:24Z</time>
      </trkpt>
      <trkpt lat="44.8062" lon="-0.30857">
        <ele>109.69999694824</ele>
        <time>2011-05-08T09:17:25Z</time>
      </trkpt>
      <trkpt lat="44.80613" lon="-0.30863">
        <ele>110</ele>
        <time>2011-05-08T09:17:27Z</time>
      </trkpt>
      <trkpt lat="44.80607" lon="-0.30869">
        <ele>111</ele>
        <time>2011-05-08T09:17:29Z</time>
      </trkpt>
      <trkpt lat="44.80599" lon="-0.30876">
        <ele>110.19999694824</ele>
        <time>2011-05-08T09:17:31Z</time>
      </trkpt>
      <trkpt lat="44.80596" lon="-0.30879">
        <ele>109.69999694824</ele>
        <time>2011-05-08T09:17:32Z</time>
      </trkpt>
      <trkpt lat="44.80589" lon="-0.30887">
        <ele>109.59999847412</ele>
        <time>2011-05-08T09:17:34Z</time>
      </trkpt>
      <trkpt lat="44.80586" lon="-0.30891">
        <ele>109</ele>
        <time>2011-05-08T09:17:35Z</time>
      </trkpt>
      <trkpt lat="44.80579" lon="-0.30898">
        <ele>109.5</ele>
        <time>2011-05-08T09:17:37Z</time>
      </trkpt>
      <trkpt lat="44.80573" lon="-0.30905">
        <ele>110.40000152588</ele>
        <time>2011-05-08T09:17:39Z</time>
      </trkpt>
      <trkpt lat="44.80567" lon="-0.30911">
        <ele>110.5</ele>
        <time>2011-05-08T09:17:41Z</time>
      </trkpt>
      <trkpt lat="44.80563" lon="-0.30914">
        <ele>110.30000305176</ele>
        <time>2011-05-08T09:17:42Z</time>
      </trkpt>
      <trkpt lat="44.80556" lon="-0.30923">
        <ele>110.09999847412</ele>
        <time>2011-05-08T09:17:45Z</time>
      </trkpt>
      <trkpt lat="44.80555" lon="-0.30929">
        <ele>110.69999694824</ele>
        <time>2011-05-08T09:17:47Z</time>
      </trkpt>
      <trkpt lat="44.80553" lon="-0.30936">
        <ele>110.19999694824</ele>
        <time>2011-05-08T09:17:49Z</time>
      </trkpt>
      <trkpt lat="44.80553" lon="-0.30943">
        <ele>110.80000305176</ele>
        <time>2011-05-08T09:17:51Z</time>
      </trkpt>
      <trkpt lat="44.8055" lon="-0.30951">
        <ele>111.30000305176</ele>
        <time>2011-05-08T09:17:53Z</time>
      </trkpt>
      <trkpt lat="44.80548" lon="-0.30957">
        <ele>112.90000152588</ele>
        <time>2011-05-08T09:17:55Z</time>
      </trkpt>
      <trkpt lat="44.80546" lon="-0.30965">
        <ele>112.09999847412</ele>
        <time>2011-05-08T09:17:58Z</time>
      </trkpt>
      <trkpt lat="44.80541" lon="-0.30966">
        <ele>111.59999847412</ele>
        <time>2011-05-08T09:18:02Z</time>
      </trkpt>
      <trkpt lat="44.80535" lon="-0.30969">
        <ele>112</ele>
        <time>2011-05-08T09:18:06Z</time>
      </trkpt>
      <trkpt lat="44.8053" lon="-0.30974">
        <ele>111.69999694824</ele>
        <time>2011-05-08T09:18:09Z</time>
      </trkpt>
      <trkpt lat="44.80524" lon="-0.30976">
        <ele>111.90000152588</ele>
        <time>2011-05-08T09:18:13Z</time>
      </trkpt>
      <trkpt lat="44.8052" lon="-0.30981">
        <ele>112</ele>
        <time>2011-05-08T09:18:15Z</time>
      </trkpt>
      <trkpt lat="44.80515" lon="-0.30984">
        <ele>112.30000305176</ele>
        <time>2011-05-08T09:18:17Z</time>
      </trkpt>
      <trkpt lat="44.80509" lon="-0.30988">
        <ele>113.5</ele>
        <time>2011-05-08T09:18:20Z</time>
      </trkpt>
      <trkpt lat="44.80507" lon="-0.30995">
        <ele>115.09999847412</ele>
        <time>2011-05-08T09:18:22Z</time>
      </trkpt>
      <trkpt lat="44.805" lon="-0.31">
        <ele>115.30000305176</ele>
        <time>2011-05-08T09:18:24Z</time>
      </trkpt>
      <trkpt lat="44.80495" lon="-0.31006">
        <ele>115.69999694824</ele>
        <time>2011-05-08T09:18:26Z</time>
      </trkpt>
      <trkpt lat="44.80491" lon="-0.31013">
        <ele>115.30000305176</ele>
        <time>2011-05-08T09:18:28Z</time>
      </trkpt>
      <trkpt lat="44.80487" lon="-0.31017">
        <ele>116.09999847412</ele>
        <time>2011-05-08T09:18:30Z</time>
      </trkpt>
      <trkpt lat="44.80483" lon="-0.31021">
        <ele>117.09999847412</ele>
        <time>2011-05-08T09:18:32Z</time>
      </trkpt>
      <trkpt lat="44.80477" lon="-0.31023">
        <ele>117.40000152588</ele>
        <time>2011-05-08T09:18:35Z</time>
      </trkpt>
      <trkpt lat="44.80472" lon="-0.31023">
        <ele>117</ele>
        <time>2011-05-08T09:18:37Z</time>
      </trkpt>
      <trkpt lat="44.80467" lon="-0.31023">
        <ele>117</ele>
        <time>2011-05-08T09:18:39Z</time>
      </trkpt>
      <trkpt lat="44.8046" lon="-0.31029">
        <ele>117.30000305176</ele>
        <time>2011-05-08T09:18:42Z</time>
      </trkpt>
      <trkpt lat="44.80454" lon="-0.31035">
        <ele>117.40000152588</ele>
        <time>2011-05-08T09:18:45Z</time>
      </trkpt>
      <trkpt lat="44.80451" lon="-0.3104">
        <ele>117.30000305176</ele>
        <time>2011-05-08T09:18:47Z</time>
      </trkpt>
      <trkpt lat="44.80446" lon="-0.31047">
        <ele>118.30000305176</ele>
        <time>2011-05-08T09:18:49Z</time>
      </trkpt>
      <trkpt lat="44.80441" lon="-0.31054">
        <ele>118.90000152588</ele>
        <time>2011-05-08T09:18:52Z</time>
      </trkpt>
      <trkpt lat="44.80435" lon="-0.31058">
        <ele>119.19999694824</ele>
        <time>2011-05-08T09:18:54Z</time>
      </trkpt>
      <trkpt lat="44.8043" lon="-0.31065">
        <ele>121.80000305176</ele>
        <time>2011-05-08T09:18:57Z</time>
      </trkpt>
      <trkpt lat="44.80428" lon="-0.31072">
        <ele>121.59999847412</ele>
        <time>2011-05-08T09:18:59Z</time>
      </trkpt>
      <trkpt lat="44.80425" lon="-0.31078">
        <ele>121.90000152588</ele>
        <time>2011-05-08T09:19:01Z</time>
      </trkpt>
      <trkpt lat="44.80423" lon="-0.31084">
        <ele>121.09999847412</ele>
        <time>2011-05-08T09:19:02Z</time>
      </trkpt>
      <trkpt lat="44.80417" lon="-0.3109">
        <ele>122</ele>
        <time>2011-05-08T09:19:04Z</time>
      </trkpt>
      <trkpt lat="44.80416" lon="-0.31097">
        <ele>122.40000152588</ele>
        <time>2011-05-08T09:19:06Z</time>
      </trkpt>
      <trkpt lat="44.80412" lon="-0.31102">
        <ele>123.69999694824</ele>
        <time>2011-05-08T09:19:09Z</time>
      </trkpt>
      <trkpt lat="44.80408" lon="-0.31105">
        <ele>124</ele>
        <time>2011-05-08T09:19:11Z</time>
      </trkpt>
      <trkpt lat="44.80403" lon="-0.3111">
        <ele>123.19999694824</ele>
        <time>2011-05-08T09:19:14Z</time>
      </trkpt>
      <trkpt lat="44.80398" lon="-0.31112">
        <ele>124.09999847412</ele>
        <time>2011-05-08T09:19:16Z</time>
      </trkpt>
      <trkpt lat="44.80393" lon="-0.31114">
        <ele>124.09999847412</ele>
        <time>2011-05-08T09:19:19Z</time>
      </trkpt>
      <trkpt lat="44.80388" lon="-0.31116">
        <ele>124.19999694824</ele>
        <time>2011-05-08T09:19:21Z</time>
      </trkpt>
      <trkpt lat="44.80382" lon="-0.31115">
        <ele>124.09999847412</ele>
        <time>2011-05-08T09:19:23Z</time>
      </trkpt>
      <trkpt lat="44.80377" lon="-0.31114">
        <ele>124.59999847412</ele>
        <time>2011-05-08T09:19:25Z</time>
      </trkpt>
      <trkpt lat="44.80372" lon="-0.31112">
        <ele>124.5</ele>
        <time>2011-05-08T09:19:27Z</time>
      </trkpt>
      <trkpt lat="44.80367" lon="-0.31108">
        <ele>125.19999694824</ele>
        <time>2011-05-08T09:19:29Z</time>
      </trkpt>
      <trkpt lat="44.80361" lon="-0.31106">
        <ele>125</ele>
        <time>2011-05-08T09:19:31Z</time>
      </trkpt>
      <trkpt lat="44.80357" lon="-0.31104">
        <ele>125.80000305176</ele>
        <time>2011-05-08T09:19:33Z</time>
      </trkpt>
      <trkpt lat="44.80353" lon="-0.31099">
        <ele>126.19999694824</ele>
        <time>2011-05-08T09:19:36Z</time>
      </trkpt>
      <trkpt lat="44.8035" lon="-0.31093">
        <ele>126.30000305176</ele>
        <time>2011-05-08T09:19:39Z</time>
      </trkpt>
      <trkpt lat="44.80348" lon="-0.31085">
        <ele>128.10000610352</ele>
        <time>2011-05-08T09:19:42Z</time>
      </trkpt>
      <trkpt lat="44.80345" lon="-0.3108">
        <ele>129</ele>
        <time>2011-05-08T09:19:45Z</time>
      </trkpt>
      <trkpt lat="44.8034" lon="-0.31079">
        <ele>128.69999694824</ele>
        <time>2011-05-08T09:19:47Z</time>
      </trkpt>
      <trkpt lat="44.80337" lon="-0.31071">
        <ele>129.60000610352</ele>
        <time>2011-05-08T09:19:50Z</time>
      </trkpt>
      <trkpt lat="44.80335" lon="-0.31065">
        <ele>130.60000610352</ele>
        <time>2011-05-08T09:19:53Z</time>
      </trkpt>
      <trkpt lat="44.8033" lon="-0.3106">
        <ele>130.80000305176</ele>
        <time>2011-05-08T09:19:56Z</time>
      </trkpt>
      <trkpt lat="44.80325" lon="-0.31056">
        <ele>130.39999389648</ele>
        <time>2011-05-08T09:19:58Z</time>
      </trkpt>
      <trkpt lat="44.80321" lon="-0.31051">
        <ele>129.69999694824</ele>
        <time>2011-05-08T09:20:01Z</time>
      </trkpt>
      <trkpt lat="44.80317" lon="-0.31047">
        <ele>129.89999389648</ele>
        <time>2011-05-08T09:20:03Z</time>
      </trkpt>
      <trkpt lat="44.80314" lon="-0.31041">
        <ele>130</ele>
        <time>2011-05-08T09:20:06Z</time>
      </trkpt>
      <trkpt lat="44.8031" lon="-0.3104">
        <ele>129.19999694824</ele>
        <time>2011-05-08T09:20:10Z</time>
      </trkpt>
      <trkpt lat="44.80314" lon="-0.31038">
        <ele>129</ele>
        <time>2011-05-08T09:20:16Z</time>
      </trkpt>
      <trkpt lat="44.80315" lon="-0.31045">
        <ele>129.89999389648</ele>
        <time>2011-05-08T09:20:19Z</time>
      </trkpt>
      <trkpt lat="44.8032" lon="-0.31051">
        <ele>130.10000610352</ele>
        <time>2011-05-08T09:20:22Z</time>
      </trkpt>
      <trkpt lat="44.80324" lon="-0.31057">
        <ele>130.39999389648</ele>
        <time>2011-05-08T09:20:24Z</time>
      </trkpt>
      <trkpt lat="44.80326" lon="-0.31064">
        <ele>132</ele>
        <time>2011-05-08T09:20:27Z</time>
      </trkpt>
      <trkpt lat="44.8033" lon="-0.31071">
        <ele>133.39999389648</ele>
        <time>2011-05-08T09:20:30Z</time>
      </trkpt>
      <trkpt lat="44.80336" lon="-0.31075">
        <ele>134.69999694824</ele>
        <time>2011-05-08T09:20:33Z</time>
      </trkpt>
      <trkpt lat="44.80338" lon="-0.31081">
        <ele>134.5</ele>
        <time>2011-05-08T09:20:34Z</time>
      </trkpt>
      <trkpt lat="44.8034" lon="-0.31087">
        <ele>134.69999694824</ele>
        <time>2011-05-08T09:20:35Z</time>
      </trkpt>
      <trkpt lat="44.80343" lon="-0.31093">
        <ele>135.39999389648</ele>
        <time>2011-05-08T09:20:36Z</time>
      </trkpt>
      <trkpt lat="44.80349" lon="-0.31102">
        <ele>135.80000305176</ele>
        <time>2011-05-08T09:20:38Z</time>
      </trkpt>
      <trkpt lat="44.80351" lon="-0.31111">
        <ele>135.89999389648</ele>
        <time>2011-05-08T09:20:40Z</time>
      </trkpt>
      <trkpt lat="44.80354" lon="-0.31117">
        <ele>135.39999389648</ele>
        <time>2011-05-08T09:20:42Z</time>
      </trkpt>
      <trkpt lat="44.80356" lon="-0.31135">
        <ele>134.19999694824</ele>
        <time>2011-05-08T09:20:45Z</time>
      </trkpt>
      <trkpt lat="44.80357" lon="-0.31142">
        <ele>132.89999389648</ele>
        <time>2011-05-08T09:20:46Z</time>
      </trkpt>
      <trkpt lat="44.80357" lon="-0.31149">
        <ele>132.80000305176</ele>
        <time>2011-05-08T09:20:47Z</time>
      </trkpt>
      <trkpt lat="44.80357" lon="-0.31159">
        <ele>131.80000305176</ele>
        <time>2011-05-08T09:20:49Z</time>
      </trkpt>
      <trkpt lat="44.80355" lon="-0.31167">
        <ele>131.30000305176</ele>
        <time>2011-05-08T09:20:51Z</time>
      </trkpt>
      <trkpt lat="44.80355" lon="-0.31174">
        <ele>131</ele>
        <time>2011-05-08T09:20:53Z</time>
      </trkpt>
      <trkpt lat="44.80352" lon="-0.31182">
        <ele>131.30000305176</ele>
        <time>2011-05-08T09:20:55Z</time>
      </trkpt>
      <trkpt lat="44.80351" lon="-0.31189">
        <ele>131.19999694824</ele>
        <time>2011-05-08T09:20:56Z</time>
      </trkpt>
      <trkpt lat="44.80348" lon="-0.31196">
        <ele>130.19999694824</ele>
        <time>2011-05-08T09:20:58Z</time>
      </trkpt>
      <trkpt lat="44.80342" lon="-0.31198">
        <ele>130.80000305176</ele>
        <time>2011-05-08T09:21:01Z</time>
      </trkpt>
      <trkpt lat="44.80337" lon="-0.31203">
        <ele>130.10000610352</ele>
        <time>2011-05-08T09:21:04Z</time>
      </trkpt>
      <trkpt lat="44.80332" lon="-0.31208">
        <ele>130.19999694824</ele>
        <time>2011-05-08T09:21:07Z</time>
      </trkpt>
      <trkpt lat="44.80329" lon="-0.31212">
        <ele>129.80000305176</ele>
        <time>2011-05-08T09:21:09Z</time>
      </trkpt>
      <trkpt lat="44.80324" lon="-0.31219">
        <ele>130.39999389648</ele>
        <time>2011-05-08T09:21:11Z</time>
      </trkpt>
      <trkpt lat="44.80318" lon="-0.31222">
        <ele>129.69999694824</ele>
        <time>2011-05-08T09:21:13Z</time>
      </trkpt>
      <trkpt lat="44.80316" lon="-0.31228">
        <ele>129.80000305176</ele>
        <time>2011-05-08T09:21:15Z</time>
      </trkpt>
      <trkpt lat="44.80311" lon="-0.31236">
        <ele>128.30000305176</ele>
        <time>2011-05-08T09:21:18Z</time>
      </trkpt>
      <trkpt lat="44.80306" lon="-0.31239">
        <ele>128.30000305176</ele>
        <time>2011-05-08T09:21:20Z</time>
      </trkpt>
      <trkpt lat="44.80299" lon="-0.3124">
        <ele>128.5</ele>
        <time>2011-05-08T09:21:22Z</time>
      </trkpt>
      <trkpt lat="44.80296" lon="-0.31244">
        <ele>128.39999389648</ele>
        <time>2011-05-08T09:21:25Z</time>
      </trkpt>
      <trkpt lat="44.8029" lon="-0.31245">
        <ele>129.19999694824</ele>
        <time>2011-05-08T09:21:29Z</time>
      </trkpt>
      <trkpt lat="44.80285" lon="-0.31249">
        <ele>129.39999389648</ele>
        <time>2011-05-08T09:21:31Z</time>
      </trkpt>
      <trkpt lat="44.8028" lon="-0.3125">
        <ele>129.69999694824</ele>
        <time>2011-05-08T09:21:33Z</time>
      </trkpt>
      <trkpt lat="44.80275" lon="-0.3125">
        <ele>130.19999694824</ele>
        <time>2011-05-08T09:21:34Z</time>
      </trkpt>
      <trkpt lat="44.80269" lon="-0.31245">
        <ele>130</ele>
        <time>2011-05-08T09:21:37Z</time>
      </trkpt>
      <trkpt lat="44.80264" lon="-0.31243">
        <ele>132.39999389648</ele>
        <time>2011-05-08T09:21:41Z</time>
      </trkpt>
      <trkpt lat="44.80256" lon="-0.31244">
        <ele>132.10000610352</ele>
        <time>2011-05-08T09:21:45Z</time>
      </trkpt>
      <trkpt lat="44.8025" lon="-0.31248">
        <ele>133.80000305176</ele>
        <time>2011-05-08T09:21:48Z</time>
      </trkpt>
      <trkpt lat="44.80244" lon="-0.31248">
        <ele>134.60000610352</ele>
        <time>2011-05-08T09:21:52Z</time>
      </trkpt>
      <trkpt lat="44.80239" lon="-0.3125">
        <ele>134.69999694824</ele>
        <time>2011-05-08T09:21:56Z</time>
      </trkpt>
      <trkpt lat="44.80234" lon="-0.31251">
        <ele>135.39999389648</ele>
        <time>2011-05-08T09:21:59Z</time>
      </trkpt>
      <trkpt lat="44.80229" lon="-0.31253">
        <ele>135.60000610352</ele>
        <time>2011-05-08T09:22:00Z</time>
      </trkpt>
      <trkpt lat="44.80224" lon="-0.31253">
        <ele>134.30000305176</ele>
        <time>2011-05-08T09:22:02Z</time>
      </trkpt>
      <trkpt lat="44.8022" lon="-0.31258">
        <ele>133.5</ele>
        <time>2011-05-08T09:22:04Z</time>
      </trkpt>
      <trkpt lat="44.80217" lon="-0.31263">
        <ele>134.10000610352</ele>
        <time>2011-05-08T09:22:06Z</time>
      </trkpt>
      <trkpt lat="44.80213" lon="-0.31267">
        <ele>133.69999694824</ele>
        <time>2011-05-08T09:22:09Z</time>
      </trkpt>
      <trkpt lat="44.80209" lon="-0.31273">
        <ele>133.69999694824</ele>
        <time>2011-05-08T09:22:12Z</time>
      </trkpt>
      <trkpt lat="44.80207" lon="-0.31282">
        <ele>133.80000305176</ele>
        <time>2011-05-08T09:22:15Z</time>
      </trkpt>
      <trkpt lat="44.80205" lon="-0.3129">
        <ele>134.39999389648</ele>
        <time>2011-05-08T09:22:18Z</time>
      </trkpt>
      <trkpt lat="44.80207" lon="-0.31299">
        <ele>135.69999694824</ele>
        <time>2011-05-08T09:22:21Z</time>
      </trkpt>
      <trkpt lat="44.8021" lon="-0.31304">
        <ele>136.10000610352</ele>
        <time>2011-05-08T09:22:23Z</time>
      </trkpt>
      <trkpt lat="44.80214" lon="-0.31312">
        <ele>135.89999389648</ele>
        <time>2011-05-08T09:22:25Z</time>
      </trkpt>
      <trkpt lat="44.80214" lon="-0.31319">
        <ele>135.39999389648</ele>
        <time>2011-05-08T09:22:26Z</time>
      </trkpt>
      <trkpt lat="44.80212" lon="-0.31327">
        <ele>135.30000305176</ele>
        <time>2011-05-08T09:22:28Z</time>
      </trkpt>
      <trkpt lat="44.8021" lon="-0.31335">
        <ele>134.30000305176</ele>
        <time>2011-05-08T09:22:30Z</time>
      </trkpt>
      <trkpt lat="44.8021" lon="-0.31344">
        <ele>134.10000610352</ele>
        <time>2011-05-08T09:22:32Z</time>
      </trkpt>
      <trkpt lat="44.80213" lon="-0.31353">
        <ele>134.89999389648</ele>
        <time>2011-05-08T09:22:36Z</time>
      </trkpt>
      <trkpt lat="44.80217" lon="-0.31358">
        <ele>134.5</ele>
        <time>2011-05-08T09:22:38Z</time>
      </trkpt>
      <trkpt lat="44.80221" lon="-0.31365">
        <ele>135.39999389648</ele>
        <time>2011-05-08T09:22:41Z</time>
      </trkpt>
      <trkpt lat="44.80222" lon="-0.3138">
        <ele>134.80000305176</ele>
        <time>2011-05-08T09:22:45Z</time>
      </trkpt>
      <trkpt lat="44.80223" lon="-0.31391">
        <ele>134.5</ele>
        <time>2011-05-08T09:22:48Z</time>
      </trkpt>
      <trkpt lat="44.80227" lon="-0.31399">
        <ele>135</ele>
        <time>2011-05-08T09:22:51Z</time>
      </trkpt>
      <trkpt lat="44.80231" lon="-0.31405">
        <ele>134.5</ele>
        <time>2011-05-08T09:22:54Z</time>
      </trkpt>
      <trkpt lat="44.80236" lon="-0.31406">
        <ele>134.80000305176</ele>
        <time>2011-05-08T09:22:57Z</time>
      </trkpt>
      <trkpt lat="44.80243" lon="-0.31409">
        <ele>134</ele>
        <time>2011-05-08T09:23:00Z</time>
      </trkpt>
      <trkpt lat="44.80245" lon="-0.31416">
        <ele>133.89999389648</ele>
        <time>2011-05-08T09:23:03Z</time>
      </trkpt>
      <trkpt lat="44.80243" lon="-0.31423">
        <ele>133.60000610352</ele>
        <time>2011-05-08T09:23:06Z</time>
      </trkpt>
      <trkpt lat="44.80242" lon="-0.31432">
        <ele>135.19999694824</ele>
        <time>2011-05-08T09:23:10Z</time>
      </trkpt>
      <trkpt lat="44.80245" lon="-0.31438">
        <ele>135.19999694824</ele>
        <time>2011-05-08T09:23:12Z</time>
      </trkpt>
      <trkpt lat="44.80245" lon="-0.31446">
        <ele>134.80000305176</ele>
        <time>2011-05-08T09:23:14Z</time>
      </trkpt>
      <trkpt lat="44.80246" lon="-0.31453">
        <ele>134.19999694824</ele>
        <time>2011-05-08T09:23:16Z</time>
      </trkpt>
      <trkpt lat="44.80249" lon="-0.31459">
        <ele>134.10000610352</ele>
        <time>2011-05-08T09:23:20Z</time>
      </trkpt>
      <trkpt lat="44.80254" lon="-0.31463">
        <ele>134.19999694824</ele>
        <time>2011-05-08T09:23:23Z</time>
      </trkpt>
      <trkpt lat="44.80258" lon="-0.31468">
        <ele>134.10000610352</ele>
        <time>2011-05-08T09:23:25Z</time>
      </trkpt>
      <trkpt lat="44.8026" lon="-0.31476">
        <ele>134.10000610352</ele>
        <time>2011-05-08T09:23:27Z</time>
      </trkpt>
      <trkpt lat="44.80263" lon="-0.31484">
        <ele>134.30000305176</ele>
        <time>2011-05-08T09:23:29Z</time>
      </trkpt>
      <trkpt lat="44.80265" lon="-0.31491">
        <ele>135.5</ele>
        <time>2011-05-08T09:23:31Z</time>
      </trkpt>
      <trkpt lat="44.80267" lon="-0.31498">
        <ele>135.10000610352</ele>
        <time>2011-05-08T09:23:32Z</time>
      </trkpt>
      <trkpt lat="44.80269" lon="-0.31507">
        <ele>134.10000610352</ele>
        <time>2011-05-08T09:23:34Z</time>
      </trkpt>
      <trkpt lat="44.80271" lon="-0.31514">
        <ele>134</ele>
        <time>2011-05-08T09:23:36Z</time>
      </trkpt>
      <trkpt lat="44.80269" lon="-0.31522">
        <ele>134.80000305176</ele>
        <time>2011-05-08T09:23:38Z</time>
      </trkpt>
      <trkpt lat="44.80266" lon="-0.31531">
        <ele>134.60000610352</ele>
        <time>2011-05-08T09:23:40Z</time>
      </trkpt>
      <trkpt lat="44.80267" lon="-0.31538">
        <ele>134.30000305176</ele>
        <time>2011-05-08T09:23:42Z</time>
      </trkpt>
      <trkpt lat="44.80272" lon="-0.31552">
        <ele>133.69999694824</ele>
        <time>2011-05-08T09:23:45Z</time>
      </trkpt>
      <trkpt lat="44.80272" lon="-0.31561">
        <ele>133.10000610352</ele>
        <time>2011-05-08T09:23:47Z</time>
      </trkpt>
      <trkpt lat="44.80272" lon="-0.31569">
        <ele>133.10000610352</ele>
        <time>2011-05-08T09:23:49Z</time>
      </trkpt>
      <trkpt lat="44.80273" lon="-0.31579">
        <ele>131.89999389648</ele>
        <time>2011-05-08T09:23:51Z</time>
      </trkpt>
      <trkpt lat="44.80272" lon="-0.31589">
        <ele>132.89999389648</ele>
        <time>2011-05-08T09:23:53Z</time>
      </trkpt>
      <trkpt lat="44.80271" lon="-0.31595">
        <ele>133.39999389648</ele>
        <time>2011-05-08T09:23:55Z</time>
      </trkpt>
      <trkpt lat="44.80272" lon="-0.31603">
        <ele>131.5</ele>
        <time>2011-05-08T09:23:57Z</time>
      </trkpt>
      <trkpt lat="44.80274" lon="-0.31609">
        <ele>132.10000610352</ele>
        <time>2011-05-08T09:23:59Z</time>
      </trkpt>
      <trkpt lat="44.80277" lon="-0.31622">
        <ele>132.5</ele>
        <time>2011-05-08T09:24:01Z</time>
      </trkpt>
      <trkpt lat="44.80277" lon="-0.3163">
        <ele>132.69999694824</ele>
        <time>2011-05-08T09:24:03Z</time>
      </trkpt>
      <trkpt lat="44.80276" lon="-0.31638">
        <ele>133.30000305176</ele>
        <time>2011-05-08T09:24:05Z</time>
      </trkpt>
      <trkpt lat="44.80275" lon="-0.31646">
        <ele>134.10000610352</ele>
        <time>2011-05-08T09:24:08Z</time>
      </trkpt>
      <trkpt lat="44.80274" lon="-0.31653">
        <ele>132.60000610352</ele>
        <time>2011-05-08T09:24:09Z</time>
      </trkpt>
      <trkpt lat="44.80273" lon="-0.31661">
        <ele>130.89999389648</ele>
        <time>2011-05-08T09:24:11Z</time>
      </trkpt>
      <trkpt lat="44.80271" lon="-0.31669">
        <ele>131</ele>
        <time>2011-05-08T09:24:13Z</time>
      </trkpt>
      <trkpt lat="44.80269" lon="-0.31676">
        <ele>131.69999694824</ele>
        <time>2011-05-08T09:24:15Z</time>
      </trkpt>
      <trkpt lat="44.80267" lon="-0.31685">
        <ele>131.39999389648</ele>
        <time>2011-05-08T09:24:17Z</time>
      </trkpt>
      <trkpt lat="44.80264" lon="-0.31691">
        <ele>129.60000610352</ele>
        <time>2011-05-08T09:24:19Z</time>
      </trkpt>
      <trkpt lat="44.80261" lon="-0.31698">
        <ele>130</ele>
        <time>2011-05-08T09:24:22Z</time>
      </trkpt>
      <trkpt lat="44.8026" lon="-0.31708">
        <ele>130.89999389648</ele>
        <time>2011-05-08T09:24:25Z</time>
      </trkpt>
      <trkpt lat="44.80258" lon="-0.31714">
        <ele>130.5</ele>
        <time>2011-05-08T09:24:28Z</time>
      </trkpt>
      <trkpt lat="44.80254" lon="-0.31719">
        <ele>129.69999694824</ele>
        <time>2011-05-08T09:24:30Z</time>
      </trkpt>
      <trkpt lat="44.80251" lon="-0.31726">
        <ele>130</ele>
        <time>2011-05-08T09:24:33Z</time>
      </trkpt>
      <trkpt lat="44.80247" lon="-0.3173">
        <ele>130.69999694824</ele>
        <time>2011-05-08T09:24:35Z</time>
      </trkpt>
      <trkpt lat="44.80244" lon="-0.31736">
        <ele>132.69999694824</ele>
        <time>2011-05-08T09:24:38Z</time>
      </trkpt>
      <trkpt lat="44.80239" lon="-0.31741">
        <ele>134</ele>
        <time>2011-05-08T09:24:41Z</time>
      </trkpt>
      <trkpt lat="44.80234" lon="-0.3175">
        <ele>134.5</ele>
        <time>2011-05-08T09:24:45Z</time>
      </trkpt>
      <trkpt lat="44.80234" lon="-0.31757">
        <ele>135</ele>
        <time>2011-05-08T09:24:47Z</time>
      </trkpt>
      <trkpt lat="44.80234" lon="-0.31763">
        <ele>136</ele>
        <time>2011-05-08T09:24:52Z</time>
      </trkpt>
      <trkpt lat="44.8023" lon="-0.31766">
        <ele>135.69999694824</ele>
        <time>2011-05-08T09:24:56Z</time>
      </trkpt>
      <trkpt lat="44.80225" lon="-0.3177">
        <ele>137.10000610352</ele>
        <time>2011-05-08T09:25:01Z</time>
      </trkpt>
      <trkpt lat="44.80223" lon="-0.31778">
        <ele>136</ele>
        <time>2011-05-08T09:25:05Z</time>
      </trkpt>
      <trkpt lat="44.80222" lon="-0.31784">
        <ele>137</ele>
        <time>2011-05-08T09:25:08Z</time>
      </trkpt>
      <trkpt lat="44.80217" lon="-0.31787">
        <ele>138.10000610352</ele>
        <time>2011-05-08T09:25:12Z</time>
      </trkpt>
      <trkpt lat="44.80213" lon="-0.31792">
        <ele>138.80000305176</ele>
        <time>2011-05-08T09:25:15Z</time>
      </trkpt>
      <trkpt lat="44.80208" lon="-0.31793">
        <ele>141</ele>
        <time>2011-05-08T09:25:23Z</time>
      </trkpt>
      <trkpt lat="44.80203" lon="-0.31793">
        <ele>140.80000305176</ele>
        <time>2011-05-08T09:25:26Z</time>
      </trkpt>
      <trkpt lat="44.80199" lon="-0.31795">
        <ele>140.60000610352</ele>
        <time>2011-05-08T09:25:29Z</time>
      </trkpt>
      <trkpt lat="44.80194" lon="-0.31799">
        <ele>142.60000610352</ele>
        <time>2011-05-08T09:25:34Z</time>
      </trkpt>
      <trkpt lat="44.80189" lon="-0.31801">
        <ele>144.10000610352</ele>
        <time>2011-05-08T09:25:40Z</time>
      </trkpt>
      <trkpt lat="44.80184" lon="-0.31802">
        <ele>143.10000610352</ele>
        <time>2011-05-08T09:25:53Z</time>
      </trkpt>
      <trkpt lat="44.8018" lon="-0.31809">
        <ele>145.30000305176</ele>
        <time>2011-05-08T09:25:57Z</time>
      </trkpt>
      <trkpt lat="44.80174" lon="-0.31809">
        <ele>145.39999389648</ele>
        <time>2011-05-08T09:26:00Z</time>
      </trkpt>
      <trkpt lat="44.80177" lon="-0.31814">
        <ele>145.30000305176</ele>
        <time>2011-05-08T09:26:05Z</time>
      </trkpt>
      <trkpt lat="44.80183" lon="-0.31813">
        <ele>146.30000305176</ele>
        <time>2011-05-08T09:26:09Z</time>
      </trkpt>
      <trkpt lat="44.80188" lon="-0.31809">
        <ele>145.39999389648</ele>
        <time>2011-05-08T09:26:12Z</time>
      </trkpt>
      <trkpt lat="44.80193" lon="-0.31805">
        <ele>146.60000610352</ele>
        <time>2011-05-08T09:26:15Z</time>
      </trkpt>
      <trkpt lat="44.80198" lon="-0.31802">
        <ele>147.19999694824</ele>
        <time>2011-05-08T09:26:19Z</time>
      </trkpt>
      <trkpt lat="44.80203" lon="-0.31799">
        <ele>147.10000610352</ele>
        <time>2011-05-08T09:26:20Z</time>
      </trkpt>
      <trkpt lat="44.80206" lon="-0.31793">
        <ele>148.30000305176</ele>
        <time>2011-05-08T09:26:25Z</time>
      </trkpt>
      <trkpt lat="44.80212" lon="-0.31792">
        <ele>148.89999389648</ele>
        <time>2011-05-08T09:26:28Z</time>
      </trkpt>
      <trkpt lat="44.80216" lon="-0.31795">
        <ele>149.39999389648</ele>
        <time>2011-05-08T09:26:33Z</time>
      </trkpt>
      <trkpt lat="44.80217" lon="-0.31802">
        <ele>148.5</ele>
        <time>2011-05-08T09:26:39Z</time>
      </trkpt>
      <trkpt lat="44.80215" lon="-0.3181">
        <ele>147.60000610352</ele>
        <time>2011-05-08T09:26:45Z</time>
      </trkpt>
      <trkpt lat="44.80213" lon="-0.31818">
        <ele>146.19999694824</ele>
        <time>2011-05-08T09:27:13Z</time>
      </trkpt>
      <trkpt lat="44.80216" lon="-0.31822">
        <ele>146.69999694824</ele>
        <time>2011-05-08T09:27:20Z</time>
      </trkpt>
      <trkpt lat="44.80222" lon="-0.31817">
        <ele>145.69999694824</ele>
        <time>2011-05-08T09:27:26Z</time>
      </trkpt>
      <trkpt lat="44.80227" lon="-0.31813">
        <ele>145.30000305176</ele>
        <time>2011-05-08T09:27:39Z</time>
      </trkpt>
      <trkpt lat="44.80231" lon="-0.31808">
        <ele>146.19999694824</ele>
        <time>2011-05-08T09:27:40Z</time>
      </trkpt>
      <trkpt lat="44.80237" lon="-0.31801">
        <ele>143.80000305176</ele>
        <time>2011-05-08T09:27:41Z</time>
      </trkpt>
      <trkpt lat="44.80241" lon="-0.31799">
        <ele>143.30000305176</ele>
        <time>2011-05-08T09:27:42Z</time>
      </trkpt>
      <trkpt lat="44.8025" lon="-0.31795">
        <ele>143.10000610352</ele>
        <time>2011-05-08T09:27:45Z</time>
      </trkpt>
      <trkpt lat="44.80254" lon="-0.31792">
        <ele>142.69999694824</ele>
        <time>2011-05-08T09:27:47Z</time>
      </trkpt>
      <trkpt lat="44.80258" lon="-0.31796">
        <ele>143</ele>
        <time>2011-05-08T09:27:51Z</time>
      </trkpt>
      <trkpt lat="44.80261" lon="-0.31801">
        <ele>143.10000610352</ele>
        <time>2011-05-08T09:27:55Z</time>
      </trkpt>
      <trkpt lat="44.80264" lon="-0.31806">
        <ele>144.10000610352</ele>
        <time>2011-05-08T09:27:58Z</time>
      </trkpt>
      <trkpt lat="44.80268" lon="-0.31812">
        <ele>143.30000305176</ele>
        <time>2011-05-08T09:28:02Z</time>
      </trkpt>
      <trkpt lat="44.8027" lon="-0.3182">
        <ele>141.89999389648</ele>
        <time>2011-05-08T09:28:05Z</time>
      </trkpt>
      <trkpt lat="44.80273" lon="-0.31828">
        <ele>140.80000305176</ele>
        <time>2011-05-08T09:28:08Z</time>
      </trkpt>
      <trkpt lat="44.80274" lon="-0.31835">
        <ele>138.89999389648</ele>
        <time>2011-05-08T09:28:10Z</time>
      </trkpt>
      <trkpt lat="44.80274" lon="-0.31843">
        <ele>138.30000305176</ele>
        <time>2011-05-08T09:28:13Z</time>
      </trkpt>
      <trkpt lat="44.80275" lon="-0.31849">
        <ele>138.5</ele>
        <time>2011-05-08T09:28:17Z</time>
      </trkpt>
      <trkpt lat="44.80276" lon="-0.31855">
        <ele>138.39999389648</ele>
        <time>2011-05-08T09:28:20Z</time>
      </trkpt>
      <trkpt lat="44.80279" lon="-0.31861">
        <ele>138.10000610352</ele>
        <time>2011-05-08T09:28:22Z</time>
      </trkpt>
      <trkpt lat="44.80282" lon="-0.31868">
        <ele>138</ele>
        <time>2011-05-08T09:28:24Z</time>
      </trkpt>
      <trkpt lat="44.80287" lon="-0.31875">
        <ele>139.39999389648</ele>
        <time>2011-05-08T09:28:26Z</time>
      </trkpt>
      <trkpt lat="44.80294" lon="-0.31878">
        <ele>138.10000610352</ele>
        <time>2011-05-08T09:28:28Z</time>
      </trkpt>
      <trkpt lat="44.80301" lon="-0.31882">
        <ele>138</ele>
        <time>2011-05-08T09:28:30Z</time>
      </trkpt>
      <trkpt lat="44.80307" lon="-0.31885">
        <ele>138.89999389648</ele>
        <time>2011-05-08T09:28:32Z</time>
      </trkpt>
      <trkpt lat="44.80313" lon="-0.31891">
        <ele>135.39999389648</ele>
        <time>2011-05-08T09:28:35Z</time>
      </trkpt>
      <trkpt lat="44.80315" lon="-0.31885">
        <ele>135.10000610352</ele>
        <time>2011-05-08T09:28:41Z</time>
      </trkpt>
      <trkpt lat="44.8032" lon="-0.3188">
        <ele>135.80000305176</ele>
        <time>2011-05-08T09:28:45Z</time>
      </trkpt>
      <trkpt lat="44.80323" lon="-0.31873">
        <ele>134.80000305176</ele>
        <time>2011-05-08T09:28:48Z</time>
      </trkpt>
      <trkpt lat="44.80326" lon="-0.31868">
        <ele>134</ele>
        <time>2011-05-08T09:28:50Z</time>
      </trkpt>
      <trkpt lat="44.80329" lon="-0.31863">
        <ele>133.39999389648</ele>
        <time>2011-05-08T09:28:51Z</time>
      </trkpt>
      <trkpt lat="44.80336" lon="-0.31857">
        <ele>133.10000610352</ele>
        <time>2011-05-08T09:28:53Z</time>
      </trkpt>
      <trkpt lat="44.80341" lon="-0.31853">
        <ele>131.39999389648</ele>
        <time>2011-05-08T09:28:55Z</time>
      </trkpt>
      <trkpt lat="44.80345" lon="-0.31849">
        <ele>129.30000305176</ele>
        <time>2011-05-08T09:28:56Z</time>
      </trkpt>
      <trkpt lat="44.80351" lon="-0.31846">
        <ele>127.59999847412</ele>
        <time>2011-05-08T09:28:57Z</time>
      </trkpt>
      <trkpt lat="44.80356" lon="-0.31845">
        <ele>125.19999694824</ele>
        <time>2011-05-08T09:28:58Z</time>
      </trkpt>
      <trkpt lat="44.8036" lon="-0.31843">
        <ele>125.19999694824</ele>
        <time>2011-05-08T09:28:59Z</time>
      </trkpt>
      <trkpt lat="44.80369" lon="-0.31841">
        <ele>126.40000152588</ele>
        <time>2011-05-08T09:29:01Z</time>
      </trkpt>
      <trkpt lat="44.80373" lon="-0.31842">
        <ele>125.80000305176</ele>
        <time>2011-05-08T09:29:02Z</time>
      </trkpt>
      <trkpt lat="44.80381" lon="-0.31841">
        <ele>125.09999847412</ele>
        <time>2011-05-08T09:29:04Z</time>
      </trkpt>
      <trkpt lat="44.80389" lon="-0.3184">
        <ele>126.5</ele>
        <time>2011-05-08T09:29:06Z</time>
      </trkpt>
      <trkpt lat="44.80397" lon="-0.3184">
        <ele>126.5</ele>
        <time>2011-05-08T09:29:08Z</time>
      </trkpt>
      <trkpt lat="44.80405" lon="-0.31838">
        <ele>127.19999694824</ele>
        <time>2011-05-08T09:29:10Z</time>
      </trkpt>
      <trkpt lat="44.80414" lon="-0.31837">
        <ele>127</ele>
        <time>2011-05-08T09:29:12Z</time>
      </trkpt>
      <trkpt lat="44.80422" lon="-0.31835">
        <ele>126</ele>
        <time>2011-05-08T09:29:14Z</time>
      </trkpt>
      <trkpt lat="44.80427" lon="-0.31833">
        <ele>125.19999694824</ele>
        <time>2011-05-08T09:29:15Z</time>
      </trkpt>
      <trkpt lat="44.80435" lon="-0.3183">
        <ele>124.5</ele>
        <time>2011-05-08T09:29:17Z</time>
      </trkpt>
      <trkpt lat="44.80444" lon="-0.31827">
        <ele>124</ele>
        <time>2011-05-08T09:29:19Z</time>
      </trkpt>
      <trkpt lat="44.80448" lon="-0.31826">
        <ele>123.80000305176</ele>
        <time>2011-05-08T09:29:20Z</time>
      </trkpt>
      <trkpt lat="44.80454" lon="-0.31824">
        <ele>123.19999694824</ele>
        <time>2011-05-08T09:29:21Z</time>
      </trkpt>
      <trkpt lat="44.8046" lon="-0.31823">
        <ele>122.5</ele>
        <time>2011-05-08T09:29:22Z</time>
      </trkpt>
      <trkpt lat="44.80466" lon="-0.31822">
        <ele>122.90000152588</ele>
        <time>2011-05-08T09:29:23Z</time>
      </trkpt>
      <trkpt lat="44.8047" lon="-0.3182">
        <ele>123.30000305176</ele>
        <time>2011-05-08T09:29:24Z</time>
      </trkpt>
      <trkpt lat="44.80475" lon="-0.31819">
        <ele>123.59999847412</ele>
        <time>2011-05-08T09:29:25Z</time>
      </trkpt>
      <trkpt lat="44.80483" lon="-0.31818">
        <ele>123.30000305176</ele>
        <time>2011-05-08T09:29:27Z</time>
      </trkpt>
      <trkpt lat="44.8049" lon="-0.31818">
        <ele>124</ele>
        <time>2011-05-08T09:29:29Z</time>
      </trkpt>
      <trkpt lat="44.80494" lon="-0.31821">
        <ele>123.69999694824</ele>
        <time>2011-05-08T09:29:30Z</time>
      </trkpt>
      <trkpt lat="44.80497" lon="-0.31831">
        <ele>122.90000152588</ele>
        <time>2011-05-08T09:29:32Z</time>
      </trkpt>
      <trkpt lat="44.80498" lon="-0.31842">
        <ele>122.69999694824</ele>
        <time>2011-05-08T09:29:34Z</time>
      </trkpt>
      <trkpt lat="44.80498" lon="-0.31852">
        <ele>121.19999694824</ele>
        <time>2011-05-08T09:29:36Z</time>
      </trkpt>
      <trkpt lat="44.80499" lon="-0.31862">
        <ele>121.19999694824</ele>
        <time>2011-05-08T09:29:38Z</time>
      </trkpt>
      <trkpt lat="44.80502" lon="-0.31871">
        <ele>120.80000305176</ele>
        <time>2011-05-08T09:29:40Z</time>
      </trkpt>
      <trkpt lat="44.80504" lon="-0.31881">
        <ele>121.19999694824</ele>
        <time>2011-05-08T09:29:42Z</time>
      </trkpt>
      <trkpt lat="44.80508" lon="-0.31899">
        <ele>120.40000152588</ele>
        <time>2011-05-08T09:29:45Z</time>
      </trkpt>
      <trkpt lat="44.80509" lon="-0.31905">
        <ele>120.19999694824</ele>
        <time>2011-05-08T09:29:46Z</time>
      </trkpt>
      <trkpt lat="44.8051" lon="-0.31912">
        <ele>120</ele>
        <time>2011-05-08T09:29:47Z</time>
      </trkpt>
      <trkpt lat="44.80512" lon="-0.31919">
        <ele>120.30000305176</ele>
        <time>2011-05-08T09:29:48Z</time>
      </trkpt>
      <trkpt lat="44.80513" lon="-0.31925">
        <ele>120.19999694824</ele>
        <time>2011-05-08T09:29:49Z</time>
      </trkpt>
      <trkpt lat="44.80514" lon="-0.31932">
        <ele>119.30000305176</ele>
        <time>2011-05-08T09:29:50Z</time>
      </trkpt>
      <trkpt lat="44.80515" lon="-0.31938">
        <ele>119.19999694824</ele>
        <time>2011-05-08T09:29:51Z</time>
      </trkpt>
      <trkpt lat="44.80516" lon="-0.31945">
        <ele>119.09999847412</ele>
        <time>2011-05-08T09:29:52Z</time>
      </trkpt>
      <trkpt lat="44.80516" lon="-0.31958">
        <ele>119.09999847412</ele>
        <time>2011-05-08T09:29:54Z</time>
      </trkpt>
      <trkpt lat="44.80516" lon="-0.31965">
        <ele>119.80000305176</ele>
        <time>2011-05-08T09:29:55Z</time>
      </trkpt>
      <trkpt lat="44.80517" lon="-0.31975">
        <ele>119.19999694824</ele>
        <time>2011-05-08T09:29:57Z</time>
      </trkpt>
      <trkpt lat="44.80519" lon="-0.31984">
        <ele>120.09999847412</ele>
        <time>2011-05-08T09:29:59Z</time>
      </trkpt>
      <trkpt lat="44.8052" lon="-0.3199">
        <ele>120.09999847412</ele>
        <time>2011-05-08T09:30:00Z</time>
      </trkpt>
      <trkpt lat="44.80521" lon="-0.32002">
        <ele>119.69999694824</ele>
        <time>2011-05-08T09:30:02Z</time>
      </trkpt>
      <trkpt lat="44.80525" lon="-0.32013">
        <ele>119.59999847412</ele>
        <time>2011-05-08T09:30:04Z</time>
      </trkpt>
      <trkpt lat="44.80528" lon="-0.32024">
        <ele>119.80000305176</ele>
        <time>2011-05-08T09:30:06Z</time>
      </trkpt>
      <trkpt lat="44.8053" lon="-0.32036">
        <ele>119.5</ele>
        <time>2011-05-08T09:30:08Z</time>
      </trkpt>
      <trkpt lat="44.80532" lon="-0.32046">
        <ele>120.19999694824</ele>
        <time>2011-05-08T09:30:10Z</time>
      </trkpt>
      <trkpt lat="44.80531" lon="-0.32055">
        <ele>120.80000305176</ele>
        <time>2011-05-08T09:30:12Z</time>
      </trkpt>
      <trkpt lat="44.8053" lon="-0.32064">
        <ele>121.19999694824</ele>
        <time>2011-05-08T09:30:14Z</time>
      </trkpt>
      <trkpt lat="44.80529" lon="-0.32071">
        <ele>121.40000152588</ele>
        <time>2011-05-08T09:30:16Z</time>
      </trkpt>
      <trkpt lat="44.80532" lon="-0.32082">
        <ele>122.90000152588</ele>
        <time>2011-05-08T09:30:18Z</time>
      </trkpt>
      <trkpt lat="44.80535" lon="-0.32088">
        <ele>122.80000305176</ele>
        <time>2011-05-08T09:30:19Z</time>
      </trkpt>
      <trkpt lat="44.80538" lon="-0.32095">
        <ele>123.40000152588</ele>
        <time>2011-05-08T09:30:21Z</time>
      </trkpt>
      <trkpt lat="44.8054" lon="-0.32103">
        <ele>123.40000152588</ele>
        <time>2011-05-08T09:30:23Z</time>
      </trkpt>
      <trkpt lat="44.80541" lon="-0.32111">
        <ele>123.80000305176</ele>
        <time>2011-05-08T09:30:25Z</time>
      </trkpt>
      <trkpt lat="44.80544" lon="-0.32117">
        <ele>124</ele>
        <time>2011-05-08T09:30:27Z</time>
      </trkpt>
      <trkpt lat="44.80547" lon="-0.32124">
        <ele>124</ele>
        <time>2011-05-08T09:30:29Z</time>
      </trkpt>
      <trkpt lat="44.8055" lon="-0.32131">
        <ele>123.90000152588</ele>
        <time>2011-05-08T09:30:31Z</time>
      </trkpt>
      <trkpt lat="44.80554" lon="-0.32139">
        <ele>125.09999847412</ele>
        <time>2011-05-08T09:30:33Z</time>
      </trkpt>
      <trkpt lat="44.80558" lon="-0.32148">
        <ele>125.59999847412</ele>
        <time>2011-05-08T09:30:35Z</time>
      </trkpt>
      <trkpt lat="44.80563" lon="-0.32155">
        <ele>125.5</ele>
        <time>2011-05-08T09:30:37Z</time>
      </trkpt>
      <trkpt lat="44.80568" lon="-0.32158">
        <ele>126</ele>
        <time>2011-05-08T09:30:38Z</time>
      </trkpt>
      <trkpt lat="44.80573" lon="-0.32158">
        <ele>126.30000305176</ele>
        <time>2011-05-08T09:30:39Z</time>
      </trkpt>
      <trkpt lat="44.80579" lon="-0.32161">
        <ele>126.69999694824</ele>
        <time>2011-05-08T09:30:40Z</time>
      </trkpt>
      <trkpt lat="44.80586" lon="-0.32162">
        <ele>127.80000305176</ele>
        <time>2011-05-08T09:30:41Z</time>
      </trkpt>
      <trkpt lat="44.80592" lon="-0.32161">
        <ele>127.59999847412</ele>
        <time>2011-05-08T09:30:42Z</time>
      </trkpt>
      <trkpt lat="44.80598" lon="-0.3216">
        <ele>127.19999694824</ele>
        <time>2011-05-08T09:30:43Z</time>
      </trkpt>
      <trkpt lat="44.80604" lon="-0.32158">
        <ele>127.30000305176</ele>
        <time>2011-05-08T09:30:44Z</time>
      </trkpt>
      <trkpt lat="44.80616" lon="-0.32151">
        <ele>127.59999847412</ele>
        <time>2011-05-08T09:30:46Z</time>
      </trkpt>
      <trkpt lat="44.80623" lon="-0.32148">
        <ele>127.30000305176</ele>
        <time>2011-05-08T09:30:47Z</time>
      </trkpt>
      <trkpt lat="44.8063" lon="-0.32143">
        <ele>127.5</ele>
        <time>2011-05-08T09:30:48Z</time>
      </trkpt>
      <trkpt lat="44.80636" lon="-0.32139">
        <ele>127.5</ele>
        <time>2011-05-08T09:30:49Z</time>
      </trkpt>
      <trkpt lat="44.80643" lon="-0.32134">
        <ele>127.69999694824</ele>
        <time>2011-05-08T09:30:50Z</time>
      </trkpt>
      <trkpt lat="44.80649" lon="-0.32128">
        <ele>127.19999694824</ele>
        <time>2011-05-08T09:30:51Z</time>
      </trkpt>
      <trkpt lat="44.80656" lon="-0.32125">
        <ele>127.30000305176</ele>
        <time>2011-05-08T09:30:52Z</time>
      </trkpt>
      <trkpt lat="44.80663" lon="-0.3212">
        <ele>127.40000152588</ele>
        <time>2011-05-08T09:30:53Z</time>
      </trkpt>
      <trkpt lat="44.80669" lon="-0.32116">
        <ele>127</ele>
        <time>2011-05-08T09:30:54Z</time>
      </trkpt>
      <trkpt lat="44.80676" lon="-0.32112">
        <ele>126.40000152588</ele>
        <time>2011-05-08T09:30:55Z</time>
      </trkpt>
      <trkpt lat="44.80683" lon="-0.32107">
        <ele>125.19999694824</ele>
        <time>2011-05-08T09:30:56Z</time>
      </trkpt>
      <trkpt lat="44.8069" lon="-0.32102">
        <ele>124.40000152588</ele>
        <time>2011-05-08T09:30:57Z</time>
      </trkpt>
      <trkpt lat="44.80697" lon="-0.32098">
        <ele>124.5</ele>
        <time>2011-05-08T09:30:58Z</time>
      </trkpt>
      <trkpt lat="44.80704" lon="-0.32094">
        <ele>125.09999847412</ele>
        <time>2011-05-08T09:30:59Z</time>
      </trkpt>
      <trkpt lat="44.80711" lon="-0.32092">
        <ele>124.40000152588</ele>
        <time>2011-05-08T09:31:00Z</time>
      </trkpt>
      <trkpt lat="44.80718" lon="-0.32091">
        <ele>124.09999847412</ele>
        <time>2011-05-08T09:31:01Z</time>
      </trkpt>
      <trkpt lat="44.80724" lon="-0.32091">
        <ele>124</ele>
        <time>2011-05-08T09:31:02Z</time>
      </trkpt>
      <trkpt lat="44.80732" lon="-0.32091">
        <ele>123.30000305176</ele>
        <time>2011-05-08T09:31:03Z</time>
      </trkpt>
      <trkpt lat="44.80738" lon="-0.32093">
        <ele>122.59999847412</ele>
        <time>2011-05-08T09:31:04Z</time>
      </trkpt>
      <trkpt lat="44.80744" lon="-0.32095">
        <ele>122.69999694824</ele>
        <time>2011-05-08T09:31:05Z</time>
      </trkpt>
      <trkpt lat="44.80751" lon="-0.32096">
        <ele>122.59999847412</ele>
        <time>2011-05-08T09:31:06Z</time>
      </trkpt>
      <trkpt lat="44.80756" lon="-0.32097">
        <ele>122.5</ele>
        <time>2011-05-08T09:31:07Z</time>
      </trkpt>
      <trkpt lat="44.80763" lon="-0.32099">
        <ele>122.30000305176</ele>
        <time>2011-05-08T09:31:08Z</time>
      </trkpt>
      <trkpt lat="44.80768" lon="-0.32101">
        <ele>122.30000305176</ele>
        <time>2011-05-08T09:31:09Z</time>
      </trkpt>
      <trkpt lat="44.80774" lon="-0.32104">
        <ele>122.69999694824</ele>
        <time>2011-05-08T09:31:10Z</time>
      </trkpt>
      <trkpt lat="44.80783" lon="-0.32107">
        <ele>123.30000305176</ele>
        <time>2011-05-08T09:31:12Z</time>
      </trkpt>
      <trkpt lat="44.80792" lon="-0.32112">
        <ele>123.09999847412</ele>
        <time>2011-05-08T09:31:14Z</time>
      </trkpt>
      <trkpt lat="44.80797" lon="-0.32115">
        <ele>123.19999694824</ele>
        <time>2011-05-08T09:31:15Z</time>
      </trkpt>
      <trkpt lat="44.80805" lon="-0.32119">
        <ele>123.09999847412</ele>
        <time>2011-05-08T09:31:17Z</time>
      </trkpt>
      <trkpt lat="44.8081" lon="-0.32121">
        <ele>122.69999694824</ele>
        <time>2011-05-08T09:31:18Z</time>
      </trkpt>
      <trkpt lat="44.80814" lon="-0.32125">
        <ele>122.19999694824</ele>
        <time>2011-05-08T09:31:19Z</time>
      </trkpt>
      <trkpt lat="44.80818" lon="-0.32128">
        <ele>122.19999694824</ele>
        <time>2011-05-08T09:31:20Z</time>
      </trkpt>
      <trkpt lat="44.80826" lon="-0.32133">
        <ele>122.30000305176</ele>
        <time>2011-05-08T09:31:22Z</time>
      </trkpt>
      <trkpt lat="44.80832" lon="-0.32136">
        <ele>122.80000305176</ele>
        <time>2011-05-08T09:31:24Z</time>
      </trkpt>
      <trkpt lat="44.80839" lon="-0.3214">
        <ele>122.69999694824</ele>
        <time>2011-05-08T09:31:26Z</time>
      </trkpt>
      <trkpt lat="44.80845" lon="-0.32146">
        <ele>122.19999694824</ele>
        <time>2011-05-08T09:31:28Z</time>
      </trkpt>
      <trkpt lat="44.80849" lon="-0.32151">
        <ele>121.80000305176</ele>
        <time>2011-05-08T09:31:29Z</time>
      </trkpt>
      <trkpt lat="44.80853" lon="-0.32157">
        <ele>122.40000152588</ele>
        <time>2011-05-08T09:31:31Z</time>
      </trkpt>
      <trkpt lat="44.80858" lon="-0.32164">
        <ele>122.30000305176</ele>
        <time>2011-05-08T09:31:33Z</time>
      </trkpt>
      <trkpt lat="44.80863" lon="-0.32174">
        <ele>122.19999694824</ele>
        <time>2011-05-08T09:31:35Z</time>
      </trkpt>
      <trkpt lat="44.80867" lon="-0.3218">
        <ele>122.19999694824</ele>
        <time>2011-05-08T09:31:37Z</time>
      </trkpt>
      <trkpt lat="44.80871" lon="-0.32184">
        <ele>122.30000305176</ele>
        <time>2011-05-08T09:31:38Z</time>
      </trkpt>
      <trkpt lat="44.80875" lon="-0.32187">
        <ele>122.19999694824</ele>
        <time>2011-05-08T09:31:39Z</time>
      </trkpt>
      <trkpt lat="44.80881" lon="-0.32186">
        <ele>122.80000305176</ele>
        <time>2011-05-08T09:31:40Z</time>
      </trkpt>
      <trkpt lat="44.80885" lon="-0.32185">
        <ele>123.59999847412</ele>
        <time>2011-05-08T09:31:41Z</time>
      </trkpt>
      <trkpt lat="44.8089" lon="-0.32184">
        <ele>123.90000152588</ele>
        <time>2011-05-08T09:31:42Z</time>
      </trkpt>
      <trkpt lat="44.80895" lon="-0.32182">
        <ele>124.09999847412</ele>
        <time>2011-05-08T09:31:43Z</time>
      </trkpt>
      <trkpt lat="44.80901" lon="-0.32178">
        <ele>124.30000305176</ele>
        <time>2011-05-08T09:31:44Z</time>
      </trkpt>
      <trkpt lat="44.80911" lon="-0.32173">
        <ele>123.90000152588</ele>
        <time>2011-05-08T09:31:46Z</time>
      </trkpt>
      <trkpt lat="44.80917" lon="-0.32169">
        <ele>124</ele>
        <time>2011-05-08T09:31:47Z</time>
      </trkpt>
      <trkpt lat="44.80922" lon="-0.32164">
        <ele>123.90000152588</ele>
        <time>2011-05-08T09:31:48Z</time>
      </trkpt>
      <trkpt lat="44.80927" lon="-0.32159">
        <ele>124.40000152588</ele>
        <time>2011-05-08T09:31:49Z</time>
      </trkpt>
      <trkpt lat="44.80932" lon="-0.32153">
        <ele>124.80000305176</ele>
        <time>2011-05-08T09:31:50Z</time>
      </trkpt>
      <trkpt lat="44.80937" lon="-0.32147">
        <ele>124.90000152588</ele>
        <time>2011-05-08T09:31:51Z</time>
      </trkpt>
      <trkpt lat="44.8094" lon="-0.3214">
        <ele>124.80000305176</ele>
        <time>2011-05-08T09:31:52Z</time>
      </trkpt>
      <trkpt lat="44.80945" lon="-0.32133">
        <ele>124.80000305176</ele>
        <time>2011-05-08T09:31:53Z</time>
      </trkpt>
      <trkpt lat="44.8095" lon="-0.32126">
        <ele>125.09999847412</ele>
        <time>2011-05-08T09:31:54Z</time>
      </trkpt>
      <trkpt lat="44.80954" lon="-0.32119">
        <ele>125.09999847412</ele>
        <time>2011-05-08T09:31:55Z</time>
      </trkpt>
      <trkpt lat="44.80958" lon="-0.32113">
        <ele>124.30000305176</ele>
        <time>2011-05-08T09:31:56Z</time>
      </trkpt>
      <trkpt lat="44.80962" lon="-0.32105">
        <ele>124.40000152588</ele>
        <time>2011-05-08T09:31:57Z</time>
      </trkpt>
      <trkpt lat="44.80967" lon="-0.32099">
        <ele>124.09999847412</ele>
        <time>2011-05-08T09:31:58Z</time>
      </trkpt>
      <trkpt lat="44.80971" lon="-0.32092">
        <ele>124.80000305176</ele>
        <time>2011-05-08T09:31:59Z</time>
      </trkpt>
      <trkpt lat="44.80976" lon="-0.32085">
        <ele>124.80000305176</ele>
        <time>2011-05-08T09:32:00Z</time>
      </trkpt>
      <trkpt lat="44.80981" lon="-0.32078">
        <ele>124.69999694824</ele>
        <time>2011-05-08T09:32:01Z</time>
      </trkpt>
      <trkpt lat="44.80986" lon="-0.32071">
        <ele>125</ele>
        <time>2011-05-08T09:32:02Z</time>
      </trkpt>
      <trkpt lat="44.8099" lon="-0.32062">
        <ele>125.59999847412</ele>
        <time>2011-05-08T09:32:03Z</time>
      </trkpt>
      <trkpt lat="44.80997" lon="-0.32055">
        <ele>124.90000152588</ele>
        <time>2011-05-08T09:32:04Z</time>
      </trkpt>
      <trkpt lat="44.81002" lon="-0.32047">
        <ele>124.40000152588</ele>
        <time>2011-05-08T09:32:05Z</time>
      </trkpt>
      <trkpt lat="44.81005" lon="-0.3204">
        <ele>124.80000305176</ele>
        <time>2011-05-08T09:32:06Z</time>
      </trkpt>
      <trkpt lat="44.81009" lon="-0.32031">
        <ele>125.40000152588</ele>
        <time>2011-05-08T09:32:07Z</time>
      </trkpt>
      <trkpt lat="44.81014" lon="-0.32024">
        <ele>125.30000305176</ele>
        <time>2011-05-08T09:32:08Z</time>
      </trkpt>
      <trkpt lat="44.81019" lon="-0.32017">
        <ele>125</ele>
        <time>2011-05-08T09:32:09Z</time>
      </trkpt>
      <trkpt lat="44.81023" lon="-0.32012">
        <ele>125</ele>
        <time>2011-05-08T09:32:10Z</time>
      </trkpt>
      <trkpt lat="44.81028" lon="-0.32006">
        <ele>125.40000152588</ele>
        <time>2011-05-08T09:32:12Z</time>
      </trkpt>
      <trkpt lat="44.81031" lon="-0.31999">
        <ele>125.5</ele>
        <time>2011-05-08T09:32:14Z</time>
      </trkpt>
      <trkpt lat="44.81036" lon="-0.32002">
        <ele>125.09999847412</ele>
        <time>2011-05-08T09:32:16Z</time>
      </trkpt>
      <trkpt lat="44.81038" lon="-0.3201">
        <ele>125.40000152588</ele>
        <time>2011-05-08T09:32:18Z</time>
      </trkpt>
      <trkpt lat="44.81042" lon="-0.32019">
        <ele>125.40000152588</ele>
        <time>2011-05-08T09:32:20Z</time>
      </trkpt>
      <trkpt lat="44.81044" lon="-0.32025">
        <ele>125.09999847412</ele>
        <time>2011-05-08T09:32:21Z</time>
      </trkpt>
      <trkpt lat="44.81046" lon="-0.32031">
        <ele>125.40000152588</ele>
        <time>2011-05-08T09:32:22Z</time>
      </trkpt>
      <trkpt lat="44.8105" lon="-0.32039">
        <ele>125.19999694824</ele>
        <time>2011-05-08T09:32:24Z</time>
      </trkpt>
      <trkpt lat="44.81053" lon="-0.32048">
        <ele>125.80000305176</ele>
        <time>2011-05-08T09:32:26Z</time>
      </trkpt>
      <trkpt lat="44.81057" lon="-0.32061">
        <ele>124.80000305176</ele>
        <time>2011-05-08T09:32:28Z</time>
      </trkpt>
      <trkpt lat="44.81058" lon="-0.32068">
        <ele>124.09999847412</ele>
        <time>2011-05-08T09:32:29Z</time>
      </trkpt>
      <trkpt lat="44.81061" lon="-0.32077">
        <ele>123</ele>
        <time>2011-05-08T09:32:30Z</time>
      </trkpt>
      <trkpt lat="44.81063" lon="-0.3209">
        <ele>122.09999847412</ele>
        <time>2011-05-08T09:32:32Z</time>
      </trkpt>
      <trkpt lat="44.81063" lon="-0.321">
        <ele>121.30000305176</ele>
        <time>2011-05-08T09:32:34Z</time>
      </trkpt>
      <trkpt lat="44.81063" lon="-0.32108">
        <ele>121.09999847412</ele>
        <time>2011-05-08T09:32:35Z</time>
      </trkpt>
      <trkpt lat="44.81064" lon="-0.32121">
        <ele>120.30000305176</ele>
        <time>2011-05-08T09:32:37Z</time>
      </trkpt>
      <trkpt lat="44.81064" lon="-0.32128">
        <ele>120</ele>
        <time>2011-05-08T09:32:38Z</time>
      </trkpt>
      <trkpt lat="44.81063" lon="-0.3214">
        <ele>120.59999847412</ele>
        <time>2011-05-08T09:32:40Z</time>
      </trkpt>
      <trkpt lat="44.81063" lon="-0.32152">
        <ele>121.40000152588</ele>
        <time>2011-05-08T09:32:42Z</time>
      </trkpt>
      <trkpt lat="44.81063" lon="-0.32159">
        <ele>121.40000152588</ele>
        <time>2011-05-08T09:32:43Z</time>
      </trkpt>
      <trkpt lat="44.81061" lon="-0.32165">
        <ele>121.90000152588</ele>
        <time>2011-05-08T09:32:44Z</time>
      </trkpt>
      <trkpt lat="44.81061" lon="-0.32179">
        <ele>122.80000305176</ele>
        <time>2011-05-08T09:32:46Z</time>
      </trkpt>
      <trkpt lat="44.8106" lon="-0.32187">
        <ele>122.90000152588</ele>
        <time>2011-05-08T09:32:47Z</time>
      </trkpt>
      <trkpt lat="44.81058" lon="-0.32194">
        <ele>122.40000152588</ele>
        <time>2011-05-08T09:32:48Z</time>
      </trkpt>
      <trkpt lat="44.81054" lon="-0.32202">
        <ele>122.09999847412</ele>
        <time>2011-05-08T09:32:49Z</time>
      </trkpt>
      <trkpt lat="44.81054" lon="-0.32208">
        <ele>122.30000305176</ele>
        <time>2011-05-08T09:32:50Z</time>
      </trkpt>
      <trkpt lat="44.81051" lon="-0.32215">
        <ele>122.40000152588</ele>
        <time>2011-05-08T09:32:51Z</time>
      </trkpt>
      <trkpt lat="44.81049" lon="-0.32224">
        <ele>122.90000152588</ele>
        <time>2011-05-08T09:32:52Z</time>
      </trkpt>
      <trkpt lat="44.81049" lon="-0.32233">
        <ele>123.09999847412</ele>
        <time>2011-05-08T09:32:53Z</time>
      </trkpt>
      <trkpt lat="44.81048" lon="-0.3224">
        <ele>123.40000152588</ele>
        <time>2011-05-08T09:32:54Z</time>
      </trkpt>
      <trkpt lat="44.81045" lon="-0.3225">
        <ele>123</ele>
        <time>2011-05-08T09:32:56Z</time>
      </trkpt>
      <trkpt lat="44.81043" lon="-0.32263">
        <ele>123.40000152588</ele>
        <time>2011-05-08T09:32:58Z</time>
      </trkpt>
      <trkpt lat="44.81043" lon="-0.32274">
        <ele>124.30000305176</ele>
        <time>2011-05-08T09:33:00Z</time>
      </trkpt>
      <trkpt lat="44.81044" lon="-0.32281">
        <ele>124.40000152588</ele>
        <time>2011-05-08T09:33:01Z</time>
      </trkpt>
      <trkpt lat="44.81045" lon="-0.32289">
        <ele>123.90000152588</ele>
        <time>2011-05-08T09:33:02Z</time>
      </trkpt>
      <trkpt lat="44.81047" lon="-0.32296">
        <ele>124.09999847412</ele>
        <time>2011-05-08T09:33:03Z</time>
      </trkpt>
      <trkpt lat="44.81047" lon="-0.32304">
        <ele>124.19999694824</ele>
        <time>2011-05-08T09:33:05Z</time>
      </trkpt>
      <trkpt lat="44.81048" lon="-0.32311">
        <ele>123.90000152588</ele>
        <time>2011-05-08T09:33:07Z</time>
      </trkpt>
      <trkpt lat="44.81049" lon="-0.32322">
        <ele>124.19999694824</ele>
        <time>2011-05-08T09:33:09Z</time>
      </trkpt>
      <trkpt lat="44.81052" lon="-0.3233">
        <ele>125.69999694824</ele>
        <time>2011-05-08T09:33:11Z</time>
      </trkpt>
      <trkpt lat="44.81054" lon="-0.32337">
        <ele>125.80000305176</ele>
        <time>2011-05-08T09:33:13Z</time>
      </trkpt>
      <trkpt lat="44.81056" lon="-0.32344">
        <ele>126.40000152588</ele>
        <time>2011-05-08T09:33:15Z</time>
      </trkpt>
      <trkpt lat="44.81059" lon="-0.32349">
        <ele>127</ele>
        <time>2011-05-08T09:33:17Z</time>
      </trkpt>
      <trkpt lat="44.81061" lon="-0.32358">
        <ele>128</ele>
        <time>2011-05-08T09:33:19Z</time>
      </trkpt>
      <trkpt lat="44.81064" lon="-0.32365">
        <ele>129.19999694824</ele>
        <time>2011-05-08T09:33:21Z</time>
      </trkpt>
      <trkpt lat="44.81067" lon="-0.3237">
        <ele>129.19999694824</ele>
        <time>2011-05-08T09:33:22Z</time>
      </trkpt>
      <trkpt lat="44.81069" lon="-0.32377">
        <ele>129.19999694824</ele>
        <time>2011-05-08T09:33:24Z</time>
      </trkpt>
      <trkpt lat="44.8107" lon="-0.32385">
        <ele>129.5</ele>
        <time>2011-05-08T09:33:27Z</time>
      </trkpt>
      <trkpt lat="44.81074" lon="-0.32398">
        <ele>127.30000305176</ele>
        <time>2011-05-08T09:33:29Z</time>
      </trkpt>
      <trkpt lat="44.81075" lon="-0.32405">
        <ele>125.80000305176</ele>
        <time>2011-05-08T09:33:31Z</time>
      </trkpt>
      <trkpt lat="44.81077" lon="-0.32413">
        <ele>125.5</ele>
        <time>2011-05-08T09:33:34Z</time>
      </trkpt>
      <trkpt lat="44.81081" lon="-0.32418">
        <ele>126.19999694824</ele>
        <time>2011-05-08T09:33:37Z</time>
      </trkpt>
      <trkpt lat="44.81083" lon="-0.32425">
        <ele>127.09999847412</ele>
        <time>2011-05-08T09:33:39Z</time>
      </trkpt>
      <trkpt lat="44.81087" lon="-0.32429">
        <ele>127.69999694824</ele>
        <time>2011-05-08T09:33:43Z</time>
      </trkpt>
      <trkpt lat="44.81091" lon="-0.32433">
        <ele>128.89999389648</ele>
        <time>2011-05-08T09:33:46Z</time>
      </trkpt>
      <trkpt lat="44.81094" lon="-0.32436">
        <ele>128.5</ele>
        <time>2011-05-08T09:34:17Z</time>
      </trkpt>
      <trkpt lat="44.81098" lon="-0.3244">
        <ele>127</ele>
        <time>2011-05-08T09:34:49Z</time>
      </trkpt>
      <trkpt lat="44.81099" lon="-0.3244">
        <ele>127.90000152588</ele>
        <time>2011-05-08T09:34:50Z</time>
      </trkpt>
      <trkpt lat="44.81102" lon="-0.32446">
        <ele>129.89999389648</ele>
        <time>2011-05-08T09:34:53Z</time>
      </trkpt>
      <trkpt lat="44.81106" lon="-0.32453">
        <ele>133.60000610352</ele>
        <time>2011-05-08T09:35:01Z</time>
      </trkpt>
      <trkpt lat="44.81108" lon="-0.32459">
        <ele>135.19999694824</ele>
        <time>2011-05-08T09:35:09Z</time>
      </trkpt>
      <trkpt lat="44.8111" lon="-0.32466">
        <ele>135.60000610352</ele>
        <time>2011-05-08T09:35:13Z</time>
      </trkpt>
      <trkpt lat="44.81113" lon="-0.32472">
        <ele>135.5</ele>
        <time>2011-05-08T09:35:16Z</time>
      </trkpt>
      <trkpt lat="44.81118" lon="-0.32472">
        <ele>135.10000610352</ele>
        <time>2011-05-08T09:35:21Z</time>
      </trkpt>
      <trkpt lat="44.81122" lon="-0.32477">
        <ele>135.5</ele>
        <time>2011-05-08T09:35:24Z</time>
      </trkpt>
      <trkpt lat="44.81125" lon="-0.32482">
        <ele>134.60000610352</ele>
        <time>2011-05-08T09:35:26Z</time>
      </trkpt>
      <trkpt lat="44.81129" lon="-0.32488">
        <ele>134.80000305176</ele>
        <time>2011-05-08T09:35:30Z</time>
      </trkpt>
      <trkpt lat="44.81132" lon="-0.32494">
        <ele>134.5</ele>
        <time>2011-05-08T09:35:33Z</time>
      </trkpt>
      <trkpt lat="44.81136" lon="-0.32499">
        <ele>135.60000610352</ele>
        <time>2011-05-08T09:35:40Z</time>
      </trkpt>
      <trkpt lat="44.81138" lon="-0.32505">
        <ele>135.89999389648</ele>
        <time>2011-05-08T09:35:43Z</time>
      </trkpt>
      <trkpt lat="44.81141" lon="-0.32513">
        <ele>137.10000610352</ele>
        <time>2011-05-08T09:35:47Z</time>
      </trkpt>
      <trkpt lat="44.81145" lon="-0.32518">
        <ele>138</ele>
        <time>2011-05-08T09:35:51Z</time>
      </trkpt>
      <trkpt lat="44.81146" lon="-0.32525">
        <ele>138.30000305176</ele>
        <time>2011-05-08T09:35:54Z</time>
      </trkpt>
      <trkpt lat="44.81149" lon="-0.32532">
        <ele>138.80000305176</ele>
        <time>2011-05-08T09:35:57Z</time>
      </trkpt>
      <trkpt lat="44.81151" lon="-0.32538">
        <ele>139.80000305176</ele>
        <time>2011-05-08T09:36:00Z</time>
      </trkpt>
      <trkpt lat="44.81155" lon="-0.32544">
        <ele>140.89999389648</ele>
        <time>2011-05-08T09:36:04Z</time>
      </trkpt>
      <trkpt lat="44.81158" lon="-0.3255">
        <ele>140.60000610352</ele>
        <time>2011-05-08T09:36:07Z</time>
      </trkpt>
      <trkpt lat="44.81159" lon="-0.32559">
        <ele>139.60000610352</ele>
        <time>2011-05-08T09:36:09Z</time>
      </trkpt>
      <trkpt lat="44.8116" lon="-0.32566">
        <ele>141.19999694824</ele>
        <time>2011-05-08T09:36:13Z</time>
      </trkpt>
      <trkpt lat="44.81159" lon="-0.32574">
        <ele>140.5</ele>
        <time>2011-05-08T09:36:17Z</time>
      </trkpt>
      <trkpt lat="44.81157" lon="-0.32581">
        <ele>141</ele>
        <time>2011-05-08T09:36:22Z</time>
      </trkpt>
      <trkpt lat="44.81155" lon="-0.32587">
        <ele>140.39999389648</ele>
        <time>2011-05-08T09:36:35Z</time>
      </trkpt>
      <trkpt lat="44.81153" lon="-0.32594">
        <ele>140.30000305176</ele>
        <time>2011-05-08T09:36:39Z</time>
      </trkpt>
      <trkpt lat="44.81147" lon="-0.32596">
        <ele>141</ele>
        <time>2011-05-08T09:36:42Z</time>
      </trkpt>
      <trkpt lat="44.81141" lon="-0.32603">
        <ele>141.89999389648</ele>
        <time>2011-05-08T09:36:46Z</time>
      </trkpt>
      <trkpt lat="44.81138" lon="-0.32607">
        <ele>141.39999389648</ele>
        <time>2011-05-08T09:36:48Z</time>
      </trkpt>
      <trkpt lat="44.81132" lon="-0.32608">
        <ele>141.39999389648</ele>
        <time>2011-05-08T09:36:51Z</time>
      </trkpt>
      <trkpt lat="44.81127" lon="-0.32608">
        <ele>141.80000305176</ele>
        <time>2011-05-08T09:36:53Z</time>
      </trkpt>
      <trkpt lat="44.81124" lon="-0.32612">
        <ele>142.10000610352</ele>
        <time>2011-05-08T09:36:56Z</time>
      </trkpt>
      <trkpt lat="44.81118" lon="-0.32613">
        <ele>142.5</ele>
        <time>2011-05-08T09:36:58Z</time>
      </trkpt>
      <trkpt lat="44.81114" lon="-0.32616">
        <ele>142</ele>
        <time>2011-05-08T09:37:00Z</time>
      </trkpt>
      <trkpt lat="44.81107" lon="-0.32618">
        <ele>142.5</ele>
        <time>2011-05-08T09:37:04Z</time>
      </trkpt>
      <trkpt lat="44.81102" lon="-0.32622">
        <ele>142.30000305176</ele>
        <time>2011-05-08T09:37:07Z</time>
      </trkpt>
      <trkpt lat="44.81097" lon="-0.32626">
        <ele>143.89999389648</ele>
        <time>2011-05-08T09:37:11Z</time>
      </trkpt>
      <trkpt lat="44.81092" lon="-0.32629">
        <ele>144.60000610352</ele>
        <time>2011-05-08T09:37:13Z</time>
      </trkpt>
      <trkpt lat="44.81087" lon="-0.32632">
        <ele>144.69999694824</ele>
        <time>2011-05-08T09:37:16Z</time>
      </trkpt>
      <trkpt lat="44.8108" lon="-0.32632">
        <ele>145.39999389648</ele>
        <time>2011-05-08T09:37:19Z</time>
      </trkpt>
      <trkpt lat="44.81076" lon="-0.32635">
        <ele>148.5</ele>
        <time>2011-05-08T09:37:25Z</time>
      </trkpt>
      <trkpt lat="44.81076" lon="-0.32643">
        <ele>148.10000610352</ele>
        <time>2011-05-08T09:37:29Z</time>
      </trkpt>
      <trkpt lat="44.81077" lon="-0.32649">
        <ele>148.89999389648</ele>
        <time>2011-05-08T09:37:33Z</time>
      </trkpt>
      <trkpt lat="44.81075" lon="-0.32657">
        <ele>148.5</ele>
        <time>2011-05-08T09:37:37Z</time>
      </trkpt>
      <trkpt lat="44.81073" lon="-0.32664">
        <ele>150.10000610352</ele>
        <time>2011-05-08T09:37:40Z</time>
      </trkpt>
      <trkpt lat="44.81076" lon="-0.3267">
        <ele>149.60000610352</ele>
        <time>2011-05-08T09:37:43Z</time>
      </trkpt>
      <trkpt lat="44.81077" lon="-0.32678">
        <ele>151.80000305176</ele>
        <time>2011-05-08T09:37:48Z</time>
      </trkpt>
      <trkpt lat="44.8108" lon="-0.32685">
        <ele>150.89999389648</ele>
        <time>2011-05-08T09:37:50Z</time>
      </trkpt>
      <trkpt lat="44.81082" lon="-0.32699">
        <ele>148.89999389648</ele>
        <time>2011-05-08T09:37:52Z</time>
      </trkpt>
      <trkpt lat="44.81082" lon="-0.32706">
        <ele>150.19999694824</ele>
        <time>2011-05-08T09:37:54Z</time>
      </trkpt>
      <trkpt lat="44.81081" lon="-0.32717">
        <ele>150.19999694824</ele>
        <time>2011-05-08T09:37:57Z</time>
      </trkpt>
      <trkpt lat="44.81081" lon="-0.32726">
        <ele>150.5</ele>
        <time>2011-05-08T09:38:00Z</time>
      </trkpt>
      <trkpt lat="44.81082" lon="-0.32737">
        <ele>151.30000305176</ele>
        <time>2011-05-08T09:38:02Z</time>
      </trkpt>
      <trkpt lat="44.81082" lon="-0.32746">
        <ele>149.69999694824</ele>
        <time>2011-05-08T09:38:04Z</time>
      </trkpt>
      <trkpt lat="44.8108" lon="-0.32753">
        <ele>150.19999694824</ele>
        <time>2011-05-08T09:38:06Z</time>
      </trkpt>
      <trkpt lat="44.81081" lon="-0.32759">
        <ele>148.69999694824</ele>
        <time>2011-05-08T09:38:07Z</time>
      </trkpt>
      <trkpt lat="44.81082" lon="-0.32768">
        <ele>147.69999694824</ele>
        <time>2011-05-08T09:38:08Z</time>
      </trkpt>
      <trkpt lat="44.81082" lon="-0.32774">
        <ele>146.89999389648</ele>
        <time>2011-05-08T09:38:09Z</time>
      </trkpt>
      <trkpt lat="44.81078" lon="-0.32779">
        <ele>146.5</ele>
        <time>2011-05-08T09:38:22Z</time>
      </trkpt>
      <trkpt lat="44.81082" lon="-0.32782">
        <ele>149.10000610352</ele>
        <time>2011-05-08T09:38:42Z</time>
      </trkpt>
      <trkpt lat="44.81088" lon="-0.32781">
        <ele>149.60000610352</ele>
        <time>2011-05-08T09:38:45Z</time>
      </trkpt>
      <trkpt lat="44.81095" lon="-0.32779">
        <ele>150.80000305176</ele>
        <time>2011-05-08T09:38:47Z</time>
      </trkpt>
      <trkpt lat="44.81103" lon="-0.32779">
        <ele>151.60000610352</ele>
        <time>2011-05-08T09:38:49Z</time>
      </trkpt>
      <trkpt lat="44.8111" lon="-0.32778">
        <ele>152.39999389648</ele>
        <time>2011-05-08T09:38:51Z</time>
      </trkpt>
      <trkpt lat="44.81117" lon="-0.32777">
        <ele>154.19999694824</ele>
        <time>2011-05-08T09:38:53Z</time>
      </trkpt>
      <trkpt lat="44.81125" lon="-0.32775">
        <ele>153.39999389648</ele>
        <time>2011-05-08T09:38:55Z</time>
      </trkpt>
      <trkpt lat="44.81132" lon="-0.32773">
        <ele>154.60000610352</ele>
        <time>2011-05-08T09:38:57Z</time>
      </trkpt>
      <trkpt lat="44.81136" lon="-0.3277">
        <ele>154.39999389648</ele>
        <time>2011-05-08T09:38:58Z</time>
      </trkpt>
      <trkpt lat="44.81143" lon="-0.32769">
        <ele>153.69999694824</ele>
        <time>2011-05-08T09:39:00Z</time>
      </trkpt>
      <trkpt lat="44.81151" lon="-0.32768">
        <ele>153.10000610352</ele>
        <time>2011-05-08T09:39:02Z</time>
      </trkpt>
      <trkpt lat="44.81156" lon="-0.32763">
        <ele>151.39999389648</ele>
        <time>2011-05-08T09:39:04Z</time>
      </trkpt>
      <trkpt lat="44.81158" lon="-0.32753">
        <ele>149.60000610352</ele>
        <time>2011-05-08T09:39:06Z</time>
      </trkpt>
      <trkpt lat="44.8116" lon="-0.32743">
        <ele>148.60000610352</ele>
        <time>2011-05-08T09:39:08Z</time>
      </trkpt>
      <trkpt lat="44.81161" lon="-0.32736">
        <ele>149</ele>
        <time>2011-05-08T09:39:09Z</time>
      </trkpt>
      <trkpt lat="44.81164" lon="-0.32724">
        <ele>148.80000305176</ele>
        <time>2011-05-08T09:39:11Z</time>
      </trkpt>
      <trkpt lat="44.81165" lon="-0.32717">
        <ele>148.60000610352</ele>
        <time>2011-05-08T09:39:12Z</time>
      </trkpt>
      <trkpt lat="44.81166" lon="-0.32711">
        <ele>148.60000610352</ele>
        <time>2011-05-08T09:39:13Z</time>
      </trkpt>
      <trkpt lat="44.81168" lon="-0.32705">
        <ele>148.69999694824</ele>
        <time>2011-05-08T09:39:14Z</time>
      </trkpt>
      <trkpt lat="44.8117" lon="-0.32699">
        <ele>148.5</ele>
        <time>2011-05-08T09:39:15Z</time>
      </trkpt>
      <trkpt lat="44.81175" lon="-0.32694">
        <ele>148.80000305176</ele>
        <time>2011-05-08T09:39:16Z</time>
      </trkpt>
      <trkpt lat="44.8118" lon="-0.32692">
        <ele>148.89999389648</ele>
        <time>2011-05-08T09:39:17Z</time>
      </trkpt>
      <trkpt lat="44.81185" lon="-0.32691">
        <ele>149.10000610352</ele>
        <time>2011-05-08T09:39:18Z</time>
      </trkpt>
      <trkpt lat="44.81191" lon="-0.32691">
        <ele>150</ele>
        <time>2011-05-08T09:39:19Z</time>
      </trkpt>
      <trkpt lat="44.81198" lon="-0.32693">
        <ele>150.39999389648</ele>
        <time>2011-05-08T09:39:20Z</time>
      </trkpt>
      <trkpt lat="44.81205" lon="-0.32693">
        <ele>150.5</ele>
        <time>2011-05-08T09:39:21Z</time>
      </trkpt>
      <trkpt lat="44.81211" lon="-0.32694">
        <ele>150.69999694824</ele>
        <time>2011-05-08T09:39:22Z</time>
      </trkpt>
      <trkpt lat="44.81218" lon="-0.32695">
        <ele>150.80000305176</ele>
        <time>2011-05-08T09:39:23Z</time>
      </trkpt>
      <trkpt lat="44.81223" lon="-0.32696">
        <ele>151</ele>
        <time>2011-05-08T09:39:24Z</time>
      </trkpt>
      <trkpt lat="44.81228" lon="-0.32699">
        <ele>151</ele>
        <time>2011-05-08T09:39:25Z</time>
      </trkpt>
      <trkpt lat="44.81233" lon="-0.32698">
        <ele>150.5</ele>
        <time>2011-05-08T09:39:26Z</time>
      </trkpt>
      <trkpt lat="44.81237" lon="-0.327">
        <ele>150.10000610352</ele>
        <time>2011-05-08T09:39:27Z</time>
      </trkpt>
      <trkpt lat="44.81246" lon="-0.32702">
        <ele>149.5</ele>
        <time>2011-05-08T09:39:29Z</time>
      </trkpt>
      <trkpt lat="44.81251" lon="-0.32702">
        <ele>149.60000610352</ele>
        <time>2011-05-08T09:39:30Z</time>
      </trkpt>
      <trkpt lat="44.81256" lon="-0.32704">
        <ele>149.80000305176</ele>
        <time>2011-05-08T09:39:31Z</time>
      </trkpt>
      <trkpt lat="44.81264" lon="-0.32706">
        <ele>149.80000305176</ele>
        <time>2011-05-08T09:39:33Z</time>
      </trkpt>
      <trkpt lat="44.81269" lon="-0.32707">
        <ele>149.80000305176</ele>
        <time>2011-05-08T09:39:34Z</time>
      </trkpt>
      <trkpt lat="44.81273" lon="-0.32708">
        <ele>149.80000305176</ele>
        <time>2011-05-08T09:39:35Z</time>
      </trkpt>
      <trkpt lat="44.81282" lon="-0.32709">
        <ele>149.80000305176</ele>
        <time>2011-05-08T09:39:37Z</time>
      </trkpt>
      <trkpt lat="44.8129" lon="-0.32709">
        <ele>151.80000305176</ele>
        <time>2011-05-08T09:39:39Z</time>
      </trkpt>
      <trkpt lat="44.81296" lon="-0.3271">
        <ele>152.30000305176</ele>
        <time>2011-05-08T09:39:41Z</time>
      </trkpt>
      <trkpt lat="44.81303" lon="-0.3271">
        <ele>152.10000610352</ele>
        <time>2011-05-08T09:39:43Z</time>
      </trkpt>
      <trkpt lat="44.81309" lon="-0.3271">
        <ele>153</ele>
        <time>2011-05-08T09:39:45Z</time>
      </trkpt>
      <trkpt lat="44.81315" lon="-0.32712">
        <ele>153.5</ele>
        <time>2011-05-08T09:39:47Z</time>
      </trkpt>
      <trkpt lat="44.8132" lon="-0.32714">
        <ele>154.19999694824</ele>
        <time>2011-05-08T09:39:49Z</time>
      </trkpt>
      <trkpt lat="44.81326" lon="-0.32715">
        <ele>154.60000610352</ele>
        <time>2011-05-08T09:39:51Z</time>
      </trkpt>
      <trkpt lat="44.81334" lon="-0.32718">
        <ele>155.5</ele>
        <time>2011-05-08T09:39:53Z</time>
      </trkpt>
      <trkpt lat="44.81341" lon="-0.32716">
        <ele>156.30000305176</ele>
        <time>2011-05-08T09:39:55Z</time>
      </trkpt>
      <trkpt lat="44.81345" lon="-0.32717">
        <ele>156.19999694824</ele>
        <time>2011-05-08T09:39:56Z</time>
      </trkpt>
      <trkpt lat="44.8135" lon="-0.32718">
        <ele>155.5</ele>
        <time>2011-05-08T09:39:57Z</time>
      </trkpt>
      <trkpt lat="44.81353" lon="-0.32724">
        <ele>155.10000610352</ele>
        <time>2011-05-08T09:39:59Z</time>
      </trkpt>
      <trkpt lat="44.81353" lon="-0.32731">
        <ele>155</ele>
        <time>2011-05-08T09:40:01Z</time>
      </trkpt>
      <trkpt lat="44.81352" lon="-0.32741">
        <ele>155</ele>
        <time>2011-05-08T09:40:04Z</time>
      </trkpt>
      <trkpt lat="44.81351" lon="-0.32749">
        <ele>154.30000305176</ele>
        <time>2011-05-08T09:40:06Z</time>
      </trkpt>
      <trkpt lat="44.81349" lon="-0.32756">
        <ele>154.5</ele>
        <time>2011-05-08T09:40:08Z</time>
      </trkpt>
      <trkpt lat="44.81348" lon="-0.32762">
        <ele>154.39999389648</ele>
        <time>2011-05-08T09:40:10Z</time>
      </trkpt>
      <trkpt lat="44.81347" lon="-0.32772">
        <ele>154.60000610352</ele>
        <time>2011-05-08T09:40:12Z</time>
      </trkpt>
      <trkpt lat="44.81346" lon="-0.3278">
        <ele>154.10000610352</ele>
        <time>2011-05-08T09:40:14Z</time>
      </trkpt>
      <trkpt lat="44.81347" lon="-0.3279">
        <ele>152.30000305176</ele>
        <time>2011-05-08T09:40:16Z</time>
      </trkpt>
      <trkpt lat="44.81349" lon="-0.328">
        <ele>152.19999694824</ele>
        <time>2011-05-08T09:40:18Z</time>
      </trkpt>
      <trkpt lat="44.81352" lon="-0.32807">
        <ele>151.39999389648</ele>
        <time>2011-05-08T09:40:20Z</time>
      </trkpt>
      <trkpt lat="44.81357" lon="-0.3281">
        <ele>152.39999389648</ele>
        <time>2011-05-08T09:40:22Z</time>
      </trkpt>
      <trkpt lat="44.81361" lon="-0.32811">
        <ele>152.30000305176</ele>
        <time>2011-05-08T09:40:24Z</time>
      </trkpt>
      <trkpt lat="44.81368" lon="-0.32814">
        <ele>151.60000610352</ele>
        <time>2011-05-08T09:40:26Z</time>
      </trkpt>
      <trkpt lat="44.81374" lon="-0.32818">
        <ele>152.39999389648</ele>
        <time>2011-05-08T09:40:28Z</time>
      </trkpt>
      <trkpt lat="44.8138" lon="-0.32818">
        <ele>152.19999694824</ele>
        <time>2011-05-08T09:40:30Z</time>
      </trkpt>
      <trkpt lat="44.81389" lon="-0.32821">
        <ele>152.60000610352</ele>
        <time>2011-05-08T09:40:32Z</time>
      </trkpt>
      <trkpt lat="44.81396" lon="-0.32822">
        <ele>153.69999694824</ele>
        <time>2011-05-08T09:40:34Z</time>
      </trkpt>
      <trkpt lat="44.81401" lon="-0.32823">
        <ele>153.69999694824</ele>
        <time>2011-05-08T09:40:35Z</time>
      </trkpt>
      <trkpt lat="44.81409" lon="-0.32825">
        <ele>154.60000610352</ele>
        <time>2011-05-08T09:40:37Z</time>
      </trkpt>
      <trkpt lat="44.81416" lon="-0.32826">
        <ele>154.39999389648</ele>
        <time>2011-05-08T09:40:39Z</time>
      </trkpt>
      <trkpt lat="44.81422" lon="-0.32827">
        <ele>154.30000305176</ele>
        <time>2011-05-08T09:40:41Z</time>
      </trkpt>
      <trkpt lat="44.8143" lon="-0.32827">
        <ele>153.30000305176</ele>
        <time>2011-05-08T09:40:43Z</time>
      </trkpt>
      <trkpt lat="44.81436" lon="-0.32821">
        <ele>149.69999694824</ele>
        <time>2011-05-08T09:40:45Z</time>
      </trkpt>
      <trkpt lat="44.81444" lon="-0.32815">
        <ele>150.69999694824</ele>
        <time>2011-05-08T09:40:47Z</time>
      </trkpt>
      <trkpt lat="44.81452" lon="-0.32813">
        <ele>151.39999389648</ele>
        <time>2011-05-08T09:40:49Z</time>
      </trkpt>
      <trkpt lat="44.81458" lon="-0.32814">
        <ele>152.10000610352</ele>
        <time>2011-05-08T09:40:51Z</time>
      </trkpt>
      <trkpt lat="44.81464" lon="-0.32816">
        <ele>153.19999694824</ele>
        <time>2011-05-08T09:40:53Z</time>
      </trkpt>
      <trkpt lat="44.81469" lon="-0.32815">
        <ele>153.60000610352</ele>
        <time>2011-05-08T09:40:55Z</time>
      </trkpt>
      <trkpt lat="44.81477" lon="-0.32815">
        <ele>153.39999389648</ele>
        <time>2011-05-08T09:40:57Z</time>
      </trkpt>
      <trkpt lat="44.81484" lon="-0.32816">
        <ele>153.5</ele>
        <time>2011-05-08T09:41:00Z</time>
      </trkpt>
      <trkpt lat="44.8149" lon="-0.32816">
        <ele>154.5</ele>
        <time>2011-05-08T09:41:02Z</time>
      </trkpt>
      <trkpt lat="44.81496" lon="-0.32817">
        <ele>154</ele>
        <time>2011-05-08T09:41:04Z</time>
      </trkpt>
      <trkpt lat="44.81503" lon="-0.32817">
        <ele>153.80000305176</ele>
        <time>2011-05-08T09:41:06Z</time>
      </trkpt>
      <trkpt lat="44.81511" lon="-0.32817">
        <ele>153.69999694824</ele>
        <time>2011-05-08T09:41:08Z</time>
      </trkpt>
      <trkpt lat="44.81518" lon="-0.32819">
        <ele>153.19999694824</ele>
        <time>2011-05-08T09:41:10Z</time>
      </trkpt>
      <trkpt lat="44.81522" lon="-0.32822">
        <ele>152.60000610352</ele>
        <time>2011-05-08T09:41:11Z</time>
      </trkpt>
      <trkpt lat="44.81529" lon="-0.32825">
        <ele>152.80000305176</ele>
        <time>2011-05-08T09:41:13Z</time>
      </trkpt>
      <trkpt lat="44.81532" lon="-0.32831">
        <ele>151.5</ele>
        <time>2011-05-08T09:41:15Z</time>
      </trkpt>
      <trkpt lat="44.8153" lon="-0.32837">
        <ele>151.30000305176</ele>
        <time>2011-05-08T09:41:17Z</time>
      </trkpt>
      <trkpt lat="44.81528" lon="-0.32843">
        <ele>151.89999389648</ele>
        <time>2011-05-08T09:41:19Z</time>
      </trkpt>
      <trkpt lat="44.81526" lon="-0.3285">
        <ele>151.80000305176</ele>
        <time>2011-05-08T09:41:21Z</time>
      </trkpt>
      <trkpt lat="44.81525" lon="-0.32862">
        <ele>151.5</ele>
        <time>2011-05-08T09:41:23Z</time>
      </trkpt>
      <trkpt lat="44.81524" lon="-0.3287">
        <ele>152.10000610352</ele>
        <time>2011-05-08T09:41:25Z</time>
      </trkpt>
      <trkpt lat="44.81522" lon="-0.3288">
        <ele>152.30000305176</ele>
        <time>2011-05-08T09:41:27Z</time>
      </trkpt>
      <trkpt lat="44.81522" lon="-0.32889">
        <ele>151.60000610352</ele>
        <time>2011-05-08T09:41:28Z</time>
      </trkpt>
      <trkpt lat="44.8152" lon="-0.32897">
        <ele>151.89999389648</ele>
        <time>2011-05-08T09:41:30Z</time>
      </trkpt>
      <trkpt lat="44.81519" lon="-0.32906">
        <ele>151.69999694824</ele>
        <time>2011-05-08T09:41:32Z</time>
      </trkpt>
      <trkpt lat="44.81519" lon="-0.32916">
        <ele>151.5</ele>
        <time>2011-05-08T09:41:34Z</time>
      </trkpt>
      <trkpt lat="44.81519" lon="-0.32925">
        <ele>152.80000305176</ele>
        <time>2011-05-08T09:41:36Z</time>
      </trkpt>
      <trkpt lat="44.81516" lon="-0.32934">
        <ele>155.39999389648</ele>
        <time>2011-05-08T09:41:38Z</time>
      </trkpt>
      <trkpt lat="44.81514" lon="-0.32943">
        <ele>154.89999389648</ele>
        <time>2011-05-08T09:41:40Z</time>
      </trkpt>
      <trkpt lat="44.81513" lon="-0.32952">
        <ele>155.5</ele>
        <time>2011-05-08T09:41:42Z</time>
      </trkpt>
      <trkpt lat="44.81512" lon="-0.3296">
        <ele>152.89999389648</ele>
        <time>2011-05-08T09:41:44Z</time>
      </trkpt>
      <trkpt lat="44.81511" lon="-0.32972">
        <ele>151.60000610352</ele>
        <time>2011-05-08T09:41:47Z</time>
      </trkpt>
      <trkpt lat="44.81511" lon="-0.32979">
        <ele>150.80000305176</ele>
        <time>2011-05-08T09:41:49Z</time>
      </trkpt>
      <trkpt lat="44.81505" lon="-0.32983">
        <ele>149.89999389648</ele>
        <time>2011-05-08T09:41:51Z</time>
      </trkpt>
      <trkpt lat="44.81499" lon="-0.32982">
        <ele>149</ele>
        <time>2011-05-08T09:41:53Z</time>
      </trkpt>
      <trkpt lat="44.81492" lon="-0.3298">
        <ele>148.89999389648</ele>
        <time>2011-05-08T09:41:55Z</time>
      </trkpt>
      <trkpt lat="44.81487" lon="-0.32982">
        <ele>148.69999694824</ele>
        <time>2011-05-08T09:41:57Z</time>
      </trkpt>
      <trkpt lat="44.81484" lon="-0.32991">
        <ele>148.30000305176</ele>
        <time>2011-05-08T09:42:00Z</time>
      </trkpt>
      <trkpt lat="44.81482" lon="-0.33002">
        <ele>147.89999389648</ele>
        <time>2011-05-08T09:42:02Z</time>
      </trkpt>
      <trkpt lat="44.81481" lon="-0.33012">
        <ele>148.5</ele>
        <time>2011-05-08T09:42:04Z</time>
      </trkpt>
      <trkpt lat="44.81479" lon="-0.33019">
        <ele>148.30000305176</ele>
        <time>2011-05-08T09:42:05Z</time>
      </trkpt>
      <trkpt lat="44.81477" lon="-0.33032">
        <ele>147.60000610352</ele>
        <time>2011-05-08T09:42:07Z</time>
      </trkpt>
      <trkpt lat="44.81475" lon="-0.33039">
        <ele>148.10000610352</ele>
        <time>2011-05-08T09:42:08Z</time>
      </trkpt>
      <trkpt lat="44.81475" lon="-0.33046">
        <ele>147.69999694824</ele>
        <time>2011-05-08T09:42:09Z</time>
      </trkpt>
      <trkpt lat="44.81474" lon="-0.33053">
        <ele>147.80000305176</ele>
        <time>2011-05-08T09:42:10Z</time>
      </trkpt>
      <trkpt lat="44.81473" lon="-0.3306">
        <ele>148.30000305176</ele>
        <time>2011-05-08T09:42:11Z</time>
      </trkpt>
      <trkpt lat="44.81472" lon="-0.33068">
        <ele>147.89999389648</ele>
        <time>2011-05-08T09:42:12Z</time>
      </trkpt>
      <trkpt lat="44.81471" lon="-0.33076">
        <ele>147.89999389648</ele>
        <time>2011-05-08T09:42:13Z</time>
      </trkpt>
      <trkpt lat="44.8147" lon="-0.33084">
        <ele>147.69999694824</ele>
        <time>2011-05-08T09:42:14Z</time>
      </trkpt>
      <trkpt lat="44.81468" lon="-0.33091">
        <ele>147.60000610352</ele>
        <time>2011-05-08T09:42:15Z</time>
      </trkpt>
      <trkpt lat="44.81467" lon="-0.33099">
        <ele>147.10000610352</ele>
        <time>2011-05-08T09:42:16Z</time>
      </trkpt>
      <trkpt lat="44.81465" lon="-0.33108">
        <ele>147</ele>
        <time>2011-05-08T09:42:17Z</time>
      </trkpt>
      <trkpt lat="44.81464" lon="-0.33116">
        <ele>146.89999389648</ele>
        <time>2011-05-08T09:42:18Z</time>
      </trkpt>
      <trkpt lat="44.81463" lon="-0.33124">
        <ele>146.69999694824</ele>
        <time>2011-05-08T09:42:19Z</time>
      </trkpt>
      <trkpt lat="44.81461" lon="-0.33133">
        <ele>145.89999389648</ele>
        <time>2011-05-08T09:42:20Z</time>
      </trkpt>
      <trkpt lat="44.8146" lon="-0.3314">
        <ele>145.60000610352</ele>
        <time>2011-05-08T09:42:21Z</time>
      </trkpt>
      <trkpt lat="44.81459" lon="-0.33148">
        <ele>144.60000610352</ele>
        <time>2011-05-08T09:42:22Z</time>
      </trkpt>
      <trkpt lat="44.81458" lon="-0.33155">
        <ele>144</ele>
        <time>2011-05-08T09:42:23Z</time>
      </trkpt>
      <trkpt lat="44.81457" lon="-0.33162">
        <ele>144</ele>
        <time>2011-05-08T09:42:24Z</time>
      </trkpt>
      <trkpt lat="44.81454" lon="-0.3317">
        <ele>144.10000610352</ele>
        <time>2011-05-08T09:42:25Z</time>
      </trkpt>
      <trkpt lat="44.81453" lon="-0.33178">
        <ele>144</ele>
        <time>2011-05-08T09:42:26Z</time>
      </trkpt>
      <trkpt lat="44.8145" lon="-0.33184">
        <ele>144.10000610352</ele>
        <time>2011-05-08T09:42:27Z</time>
      </trkpt>
      <trkpt lat="44.81446" lon="-0.33188">
        <ele>144.10000610352</ele>
        <time>2011-05-08T09:42:28Z</time>
      </trkpt>
      <trkpt lat="44.81441" lon="-0.33193">
        <ele>143.80000305176</ele>
        <time>2011-05-08T09:42:29Z</time>
      </trkpt>
      <trkpt lat="44.81436" lon="-0.33199">
        <ele>143.5</ele>
        <time>2011-05-08T09:42:30Z</time>
      </trkpt>
      <trkpt lat="44.81432" lon="-0.33206">
        <ele>143.10000610352</ele>
        <time>2011-05-08T09:42:31Z</time>
      </trkpt>
      <trkpt lat="44.81428" lon="-0.33211">
        <ele>143</ele>
        <time>2011-05-08T09:42:32Z</time>
      </trkpt>
      <trkpt lat="44.81425" lon="-0.33218">
        <ele>142.80000305176</ele>
        <time>2011-05-08T09:42:33Z</time>
      </trkpt>
      <trkpt lat="44.81424" lon="-0.33226">
        <ele>142.30000305176</ele>
        <time>2011-05-08T09:42:34Z</time>
      </trkpt>
      <trkpt lat="44.81424" lon="-0.33234">
        <ele>142.30000305176</ele>
        <time>2011-05-08T09:42:35Z</time>
      </trkpt>
      <trkpt lat="44.81425" lon="-0.33243">
        <ele>141.80000305176</ele>
        <time>2011-05-08T09:42:36Z</time>
      </trkpt>
      <trkpt lat="44.81427" lon="-0.33249">
        <ele>141.5</ele>
        <time>2011-05-08T09:42:37Z</time>
      </trkpt>
      <trkpt lat="44.81429" lon="-0.33255">
        <ele>141.39999389648</ele>
        <time>2011-05-08T09:42:38Z</time>
      </trkpt>
      <trkpt lat="44.81432" lon="-0.33268">
        <ele>140.39999389648</ele>
        <time>2011-05-08T09:42:40Z</time>
      </trkpt>
      <trkpt lat="44.81434" lon="-0.33281">
        <ele>139.5</ele>
        <time>2011-05-08T09:42:42Z</time>
      </trkpt>
      <trkpt lat="44.81435" lon="-0.33294">
        <ele>137.69999694824</ele>
        <time>2011-05-08T09:42:44Z</time>
      </trkpt>
      <trkpt lat="44.81436" lon="-0.33303">
        <ele>136.69999694824</ele>
        <time>2011-05-08T09:42:45Z</time>
      </trkpt>
      <trkpt lat="44.81437" lon="-0.33325">
        <ele>136.30000305176</ele>
        <time>2011-05-08T09:42:47Z</time>
      </trkpt>
      <trkpt lat="44.81437" lon="-0.33337">
        <ele>135.89999389648</ele>
        <time>2011-05-08T09:42:48Z</time>
      </trkpt>
      <trkpt lat="44.81437" lon="-0.33347">
        <ele>134.89999389648</ele>
        <time>2011-05-08T09:42:49Z</time>
      </trkpt>
      <trkpt lat="44.81441" lon="-0.33354">
        <ele>134.80000305176</ele>
        <time>2011-05-08T09:42:50Z</time>
      </trkpt>
      <trkpt lat="44.81448" lon="-0.33358">
        <ele>134.80000305176</ele>
        <time>2011-05-08T09:42:52Z</time>
      </trkpt>
      <trkpt lat="44.81452" lon="-0.33355">
        <ele>134.30000305176</ele>
        <time>2011-05-08T09:42:53Z</time>
      </trkpt>
      <trkpt lat="44.8146" lon="-0.33355">
        <ele>134</ele>
        <time>2011-05-08T09:42:55Z</time>
      </trkpt>
      <trkpt lat="44.81469" lon="-0.33355">
        <ele>133.60000610352</ele>
        <time>2011-05-08T09:42:57Z</time>
      </trkpt>
      <trkpt lat="44.81474" lon="-0.33355">
        <ele>133.69999694824</ele>
        <time>2011-05-08T09:42:58Z</time>
      </trkpt>
      <trkpt lat="44.81479" lon="-0.33356">
        <ele>133.19999694824</ele>
        <time>2011-05-08T09:42:59Z</time>
      </trkpt>
      <trkpt lat="44.81484" lon="-0.33356">
        <ele>133.30000305176</ele>
        <time>2011-05-08T09:43:00Z</time>
      </trkpt>
      <trkpt lat="44.81489" lon="-0.33357">
        <ele>133.10000610352</ele>
        <time>2011-05-08T09:43:01Z</time>
      </trkpt>
      <trkpt lat="44.81494" lon="-0.33357">
        <ele>133</ele>
        <time>2011-05-08T09:43:02Z</time>
      </trkpt>
      <trkpt lat="44.81499" lon="-0.33357">
        <ele>132.80000305176</ele>
        <time>2011-05-08T09:43:03Z</time>
      </trkpt>
      <trkpt lat="44.81505" lon="-0.33357">
        <ele>132.19999694824</ele>
        <time>2011-05-08T09:43:04Z</time>
      </trkpt>
      <trkpt lat="44.81511" lon="-0.33357">
        <ele>131.89999389648</ele>
        <time>2011-05-08T09:43:05Z</time>
      </trkpt>
      <trkpt lat="44.81517" lon="-0.33358">
        <ele>131.19999694824</ele>
        <time>2011-05-08T09:43:06Z</time>
      </trkpt>
      <trkpt lat="44.81523" lon="-0.33359">
        <ele>130.5</ele>
        <time>2011-05-08T09:43:07Z</time>
      </trkpt>
      <trkpt lat="44.81529" lon="-0.33361">
        <ele>129.69999694824</ele>
        <time>2011-05-08T09:43:08Z</time>
      </trkpt>
      <trkpt lat="44.81536" lon="-0.33362">
        <ele>129.19999694824</ele>
        <time>2011-05-08T09:43:09Z</time>
      </trkpt>
      <trkpt lat="44.81542" lon="-0.33361">
        <ele>129.30000305176</ele>
        <time>2011-05-08T09:43:10Z</time>
      </trkpt>
      <trkpt lat="44.81547" lon="-0.33362">
        <ele>128.69999694824</ele>
        <time>2011-05-08T09:43:11Z</time>
      </trkpt>
      <trkpt lat="44.81553" lon="-0.33362">
        <ele>128.60000610352</ele>
        <time>2011-05-08T09:43:12Z</time>
      </trkpt>
      <trkpt lat="44.81553" lon="-0.33355">
        <ele>128.30000305176</ele>
        <time>2011-05-08T09:43:15Z</time>
      </trkpt>
      <trkpt lat="44.8155" lon="-0.33349">
        <ele>127.80000305176</ele>
        <time>2011-05-08T09:43:17Z</time>
      </trkpt>
      <trkpt lat="44.81547" lon="-0.33342">
        <ele>126.80000305176</ele>
        <time>2011-05-08T09:43:20Z</time>
      </trkpt>
      <trkpt lat="44.81543" lon="-0.33335">
        <ele>127.5</ele>
        <time>2011-05-08T09:43:23Z</time>
      </trkpt>
      <trkpt lat="44.8154" lon="-0.33327">
        <ele>127.69999694824</ele>
        <time>2011-05-08T09:43:26Z</time>
      </trkpt>
      <trkpt lat="44.81535" lon="-0.33323">
        <ele>126.40000152588</ele>
        <time>2011-05-08T09:43:29Z</time>
      </trkpt>
      <trkpt lat="44.81534" lon="-0.33314">
        <ele>126.40000152588</ele>
        <time>2011-05-08T09:43:33Z</time>
      </trkpt>
      <trkpt lat="44.81532" lon="-0.33306">
        <ele>126.19999694824</ele>
        <time>2011-05-08T09:43:36Z</time>
      </trkpt>
      <trkpt lat="44.81529" lon="-0.33299">
        <ele>126</ele>
        <time>2011-05-08T09:43:40Z</time>
      </trkpt>
      <trkpt lat="44.81525" lon="-0.33293">
        <ele>126.30000305176</ele>
        <time>2011-05-08T09:43:45Z</time>
      </trkpt>
      <trkpt lat="44.81523" lon="-0.33286">
        <ele>125.69999694824</ele>
        <time>2011-05-08T09:43:49Z</time>
      </trkpt>
      <trkpt lat="44.81522" lon="-0.3328">
        <ele>126.09999847412</ele>
        <time>2011-05-08T09:43:52Z</time>
      </trkpt>
      <trkpt lat="44.81521" lon="-0.33272">
        <ele>126</ele>
        <time>2011-05-08T09:43:56Z</time>
      </trkpt>
      <trkpt lat="44.81517" lon="-0.33268">
        <ele>126.40000152588</ele>
        <time>2011-05-08T09:44:00Z</time>
      </trkpt>
      <trkpt lat="44.81512" lon="-0.3327">
        <ele>126.59999847412</ele>
        <time>2011-05-08T09:44:04Z</time>
      </trkpt>
      <trkpt lat="44.81506" lon="-0.33269">
        <ele>127.5</ele>
        <time>2011-05-08T09:44:07Z</time>
      </trkpt>
      <trkpt lat="44.81501" lon="-0.3327">
        <ele>127.80000305176</ele>
        <time>2011-05-08T09:44:10Z</time>
      </trkpt>
      <trkpt lat="44.81495" lon="-0.3327">
        <ele>128.89999389648</ele>
        <time>2011-05-08T09:44:14Z</time>
      </trkpt>
      <trkpt lat="44.81488" lon="-0.33269">
        <ele>129.89999389648</ele>
        <time>2011-05-08T09:44:17Z</time>
      </trkpt>
      <trkpt lat="44.81482" lon="-0.33267">
        <ele>131.60000610352</ele>
        <time>2011-05-08T09:44:20Z</time>
      </trkpt>
      <trkpt lat="44.81475" lon="-0.33265">
        <ele>131.5</ele>
        <time>2011-05-08T09:44:24Z</time>
      </trkpt>
      <trkpt lat="44.81469" lon="-0.33263">
        <ele>131.69999694824</ele>
        <time>2011-05-08T09:44:27Z</time>
      </trkpt>
      <trkpt lat="44.81463" lon="-0.33264">
        <ele>131.60000610352</ele>
        <time>2011-05-08T09:44:30Z</time>
      </trkpt>
      <trkpt lat="44.81458" lon="-0.33264">
        <ele>132</ele>
        <time>2011-05-08T09:44:32Z</time>
      </trkpt>
      <trkpt lat="44.81452" lon="-0.33263">
        <ele>132.69999694824</ele>
        <time>2011-05-08T09:44:34Z</time>
      </trkpt>
      <trkpt lat="44.81447" lon="-0.33263">
        <ele>132.89999389648</ele>
        <time>2011-05-08T09:44:36Z</time>
      </trkpt>
      <trkpt lat="44.8144" lon="-0.33261">
        <ele>132.89999389648</ele>
        <time>2011-05-08T09:44:38Z</time>
      </trkpt>
      <trkpt lat="44.81434" lon="-0.33261">
        <ele>132.69999694824</ele>
        <time>2011-05-08T09:44:40Z</time>
      </trkpt>
      <trkpt lat="44.81429" lon="-0.3326">
        <ele>133.10000610352</ele>
        <time>2011-05-08T09:44:42Z</time>
      </trkpt>
      <trkpt lat="44.81424" lon="-0.33256">
        <ele>132.89999389648</ele>
        <time>2011-05-08T09:44:45Z</time>
      </trkpt>
      <trkpt lat="44.81422" lon="-0.33251">
        <ele>133</ele>
        <time>2011-05-08T09:44:49Z</time>
      </trkpt>
      <trkpt lat="44.81425" lon="-0.33257">
        <ele>132.60000610352</ele>
        <time>2011-05-08T09:44:57Z</time>
      </trkpt>
      <trkpt lat="44.81426" lon="-0.33264">
        <ele>132.10000610352</ele>
        <time>2011-05-08T09:45:00Z</time>
      </trkpt>
      <trkpt lat="44.81428" lon="-0.33271">
        <ele>131.5</ele>
        <time>2011-05-08T09:45:03Z</time>
      </trkpt>
      <trkpt lat="44.81431" lon="-0.33279">
        <ele>130.89999389648</ele>
        <time>2011-05-08T09:45:06Z</time>
      </trkpt>
      <trkpt lat="44.81433" lon="-0.33285">
        <ele>129.5</ele>
        <time>2011-05-08T09:45:12Z</time>
      </trkpt>
      <trkpt lat="44.81429" lon="-0.33281">
        <ele>127</ele>
        <time>2011-05-08T09:45:27Z</time>
      </trkpt>
      <trkpt lat="44.81428" lon="-0.33275">
        <ele>126.59999847412</ele>
        <time>2011-05-08T09:45:32Z</time>
      </trkpt>
      <trkpt lat="44.81426" lon="-0.33269">
        <ele>128.19999694824</ele>
        <time>2011-05-08T09:45:36Z</time>
      </trkpt>
      <trkpt lat="44.81423" lon="-0.33262">
        <ele>128.80000305176</ele>
        <time>2011-05-08T09:45:40Z</time>
      </trkpt>
      <trkpt lat="44.81421" lon="-0.33254">
        <ele>129.10000610352</ele>
        <time>2011-05-08T09:45:43Z</time>
      </trkpt>
      <trkpt lat="44.81417" lon="-0.33245">
        <ele>129.80000305176</ele>
        <time>2011-05-08T09:45:47Z</time>
      </trkpt>
      <trkpt lat="44.81416" lon="-0.33237">
        <ele>130</ele>
        <time>2011-05-08T09:45:50Z</time>
      </trkpt>
      <trkpt lat="44.81415" lon="-0.33228">
        <ele>130.30000305176</ele>
        <time>2011-05-08T09:45:53Z</time>
      </trkpt>
      <trkpt lat="44.81416" lon="-0.33222">
        <ele>130.5</ele>
        <time>2011-05-08T09:45:57Z</time>
      </trkpt>
      <trkpt lat="44.81418" lon="-0.33215">
        <ele>130.19999694824</ele>
        <time>2011-05-08T09:46:01Z</time>
      </trkpt>
      <trkpt lat="44.81421" lon="-0.33209">
        <ele>130.89999389648</ele>
        <time>2011-05-08T09:46:04Z</time>
      </trkpt>
      <trkpt lat="44.81425" lon="-0.33204">
        <ele>131</ele>
        <time>2011-05-08T09:46:07Z</time>
      </trkpt>
      <trkpt lat="44.81431" lon="-0.33198">
        <ele>132</ele>
        <time>2011-05-08T09:46:09Z</time>
      </trkpt>
      <trkpt lat="44.81436" lon="-0.33194">
        <ele>134.19999694824</ele>
        <time>2011-05-08T09:46:12Z</time>
      </trkpt>
      <trkpt lat="44.8144" lon="-0.33189">
        <ele>134.80000305176</ele>
        <time>2011-05-08T09:46:15Z</time>
      </trkpt>
      <trkpt lat="44.81444" lon="-0.33183">
        <ele>135.60000610352</ele>
        <time>2011-05-08T09:46:18Z</time>
      </trkpt>
      <trkpt lat="44.81447" lon="-0.33178">
        <ele>134.5</ele>
        <time>2011-05-08T09:46:21Z</time>
      </trkpt>
      <trkpt lat="44.81448" lon="-0.33171">
        <ele>134.5</ele>
        <time>2011-05-08T09:46:26Z</time>
      </trkpt>
      <trkpt lat="44.81451" lon="-0.33165">
        <ele>135.19999694824</ele>
        <time>2011-05-08T09:46:29Z</time>
      </trkpt>
      <trkpt lat="44.81451" lon="-0.33159">
        <ele>137</ele>
        <time>2011-05-08T09:46:32Z</time>
      </trkpt>
      <trkpt lat="44.81453" lon="-0.33153">
        <ele>137.10000610352</ele>
        <time>2011-05-08T09:46:35Z</time>
      </trkpt>
      <trkpt lat="44.81454" lon="-0.33145">
        <ele>138.19999694824</ele>
        <time>2011-05-08T09:46:38Z</time>
      </trkpt>
      <trkpt lat="44.81456" lon="-0.33137">
        <ele>138.5</ele>
        <time>2011-05-08T09:46:42Z</time>
      </trkpt>
      <trkpt lat="44.81456" lon="-0.3313">
        <ele>138.60000610352</ele>
        <time>2011-05-08T09:46:44Z</time>
      </trkpt>
      <trkpt lat="44.81457" lon="-0.33123">
        <ele>140.19999694824</ele>
        <time>2011-05-08T09:46:47Z</time>
      </trkpt>
      <trkpt lat="44.81458" lon="-0.33116">
        <ele>141.19999694824</ele>
        <time>2011-05-08T09:46:49Z</time>
      </trkpt>
      <trkpt lat="44.81455" lon="-0.33109">
        <ele>142.10000610352</ele>
        <time>2011-05-08T09:46:52Z</time>
      </trkpt>
      <trkpt lat="44.81451" lon="-0.33105">
        <ele>142.89999389648</ele>
        <time>2011-05-08T09:46:54Z</time>
      </trkpt>
      <trkpt lat="44.81446" lon="-0.33103">
        <ele>143</ele>
        <time>2011-05-08T09:46:56Z</time>
      </trkpt>
      <trkpt lat="44.8144" lon="-0.33099">
        <ele>142.60000610352</ele>
        <time>2011-05-08T09:46:58Z</time>
      </trkpt>
      <trkpt lat="44.81436" lon="-0.33096">
        <ele>143.30000305176</ele>
        <time>2011-05-08T09:47:00Z</time>
      </trkpt>
      <trkpt lat="44.8143" lon="-0.33094">
        <ele>142.60000610352</ele>
        <time>2011-05-08T09:47:02Z</time>
      </trkpt>
      <trkpt lat="44.81424" lon="-0.33089">
        <ele>142.60000610352</ele>
        <time>2011-05-08T09:47:04Z</time>
      </trkpt>
      <trkpt lat="44.81418" lon="-0.33086">
        <ele>141.60000610352</ele>
        <time>2011-05-08T09:47:06Z</time>
      </trkpt>
      <trkpt lat="44.81412" lon="-0.33083">
        <ele>141.60000610352</ele>
        <time>2011-05-08T09:47:08Z</time>
      </trkpt>
      <trkpt lat="44.81407" lon="-0.33079">
        <ele>141.60000610352</ele>
        <time>2011-05-08T09:47:10Z</time>
      </trkpt>
      <trkpt lat="44.81403" lon="-0.33076">
        <ele>141.39999389648</ele>
        <time>2011-05-08T09:47:11Z</time>
      </trkpt>
      <trkpt lat="44.81399" lon="-0.33071">
        <ele>142.30000305176</ele>
        <time>2011-05-08T09:47:13Z</time>
      </trkpt>
      <trkpt lat="44.81394" lon="-0.33067">
        <ele>142.5</ele>
        <time>2011-05-08T09:47:15Z</time>
      </trkpt>
      <trkpt lat="44.81388" lon="-0.33059">
        <ele>142.5</ele>
        <time>2011-05-08T09:47:17Z</time>
      </trkpt>
      <trkpt lat="44.81382" lon="-0.33058">
        <ele>142.80000305176</ele>
        <time>2011-05-08T09:47:20Z</time>
      </trkpt>
      <trkpt lat="44.81376" lon="-0.33067">
        <ele>143.5</ele>
        <time>2011-05-08T09:47:22Z</time>
      </trkpt>
      <trkpt lat="44.81374" lon="-0.33073">
        <ele>143.19999694824</ele>
        <time>2011-05-08T09:47:23Z</time>
      </trkpt>
      <trkpt lat="44.81371" lon="-0.3308">
        <ele>143.19999694824</ele>
        <time>2011-05-08T09:47:24Z</time>
      </trkpt>
      <trkpt lat="44.81369" lon="-0.33094">
        <ele>142.69999694824</ele>
        <time>2011-05-08T09:47:26Z</time>
      </trkpt>
      <trkpt lat="44.81368" lon="-0.33101">
        <ele>142.10000610352</ele>
        <time>2011-05-08T09:47:27Z</time>
      </trkpt>
      <trkpt lat="44.81367" lon="-0.3311">
        <ele>142.10000610352</ele>
        <time>2011-05-08T09:47:28Z</time>
      </trkpt>
      <trkpt lat="44.81365" lon="-0.33119">
        <ele>141.5</ele>
        <time>2011-05-08T09:47:29Z</time>
      </trkpt>
      <trkpt lat="44.81363" lon="-0.33128">
        <ele>141.19999694824</ele>
        <time>2011-05-08T09:47:30Z</time>
      </trkpt>
      <trkpt lat="44.81363" lon="-0.33135">
        <ele>140.60000610352</ele>
        <time>2011-05-08T09:47:31Z</time>
      </trkpt>
      <trkpt lat="44.8136" lon="-0.33142">
        <ele>140.60000610352</ele>
        <time>2011-05-08T09:47:32Z</time>
      </trkpt>
      <trkpt lat="44.81357" lon="-0.33148">
        <ele>140.10000610352</ele>
        <time>2011-05-08T09:47:33Z</time>
      </trkpt>
      <trkpt lat="44.81356" lon="-0.33154">
        <ele>139.69999694824</ele>
        <time>2011-05-08T09:47:34Z</time>
      </trkpt>
      <trkpt lat="44.81354" lon="-0.33162">
        <ele>139.5</ele>
        <time>2011-05-08T09:47:35Z</time>
      </trkpt>
      <trkpt lat="44.81351" lon="-0.33167">
        <ele>139.10000610352</ele>
        <time>2011-05-08T09:47:36Z</time>
      </trkpt>
      <trkpt lat="44.81349" lon="-0.33176">
        <ele>138.80000305176</ele>
        <time>2011-05-08T09:47:37Z</time>
      </trkpt>
      <trkpt lat="44.81348" lon="-0.33184">
        <ele>138.69999694824</ele>
        <time>2011-05-08T09:47:38Z</time>
      </trkpt>
      <trkpt lat="44.81347" lon="-0.33192">
        <ele>138.5</ele>
        <time>2011-05-08T09:47:39Z</time>
      </trkpt>
      <trkpt lat="44.81343" lon="-0.33203">
        <ele>138.10000610352</ele>
        <time>2011-05-08T09:47:41Z</time>
      </trkpt>
      <trkpt lat="44.81337" lon="-0.33213">
        <ele>138.5</ele>
        <time>2011-05-08T09:47:43Z</time>
      </trkpt>
      <trkpt lat="44.81336" lon="-0.3322">
        <ele>139</ele>
        <time>2011-05-08T09:47:44Z</time>
      </trkpt>
      <trkpt lat="44.81334" lon="-0.33226">
        <ele>139.39999389648</ele>
        <time>2011-05-08T09:47:45Z</time>
      </trkpt>
      <trkpt lat="44.81328" lon="-0.33238">
        <ele>139.30000305176</ele>
        <time>2011-05-08T09:47:47Z</time>
      </trkpt>
      <trkpt lat="44.81325" lon="-0.33246">
        <ele>138.80000305176</ele>
        <time>2011-05-08T09:47:49Z</time>
      </trkpt>
      <trkpt lat="44.81324" lon="-0.33255">
        <ele>139</ele>
        <time>2011-05-08T09:47:52Z</time>
      </trkpt>
      <trkpt lat="44.81323" lon="-0.33265">
        <ele>138.10000610352</ele>
        <time>2011-05-08T09:47:54Z</time>
      </trkpt>
      <trkpt lat="44.81322" lon="-0.33275">
        <ele>137.39999389648</ele>
        <time>2011-05-08T09:47:56Z</time>
      </trkpt>
      <trkpt lat="44.81319" lon="-0.33282">
        <ele>137.69999694824</ele>
        <time>2011-05-08T09:47:58Z</time>
      </trkpt>
      <trkpt lat="44.81319" lon="-0.33294">
        <ele>137.60000610352</ele>
        <time>2011-05-08T09:48:00Z</time>
      </trkpt>
      <trkpt lat="44.8132" lon="-0.33303">
        <ele>137.10000610352</ele>
        <time>2011-05-08T09:48:02Z</time>
      </trkpt>
      <trkpt lat="44.81319" lon="-0.33313">
        <ele>136.10000610352</ele>
        <time>2011-05-08T09:48:04Z</time>
      </trkpt>
      <trkpt lat="44.81318" lon="-0.33323">
        <ele>135.80000305176</ele>
        <time>2011-05-08T09:48:07Z</time>
      </trkpt>
      <trkpt lat="44.81317" lon="-0.33331">
        <ele>135.69999694824</ele>
        <time>2011-05-08T09:48:09Z</time>
      </trkpt>
      <trkpt lat="44.81318" lon="-0.33337">
        <ele>135.69999694824</ele>
        <time>2011-05-08T09:48:10Z</time>
      </trkpt>
      <trkpt lat="44.81318" lon="-0.33347">
        <ele>135.39999389648</ele>
        <time>2011-05-08T09:48:13Z</time>
      </trkpt>
      <trkpt lat="44.81322" lon="-0.33354">
        <ele>134.30000305176</ele>
        <time>2011-05-08T09:48:15Z</time>
      </trkpt>
      <trkpt lat="44.81322" lon="-0.33361">
        <ele>133.60000610352</ele>
        <time>2011-05-08T09:48:17Z</time>
      </trkpt>
      <trkpt lat="44.81322" lon="-0.33371">
        <ele>132.5</ele>
        <time>2011-05-08T09:48:19Z</time>
      </trkpt>
      <trkpt lat="44.81322" lon="-0.33378">
        <ele>133</ele>
        <time>2011-05-08T09:48:20Z</time>
      </trkpt>
      <trkpt lat="44.81322" lon="-0.33389">
        <ele>133</ele>
        <time>2011-05-08T09:48:22Z</time>
      </trkpt>
      <trkpt lat="44.81321" lon="-0.33398">
        <ele>132.89999389648</ele>
        <time>2011-05-08T09:48:24Z</time>
      </trkpt>
      <trkpt lat="44.81321" lon="-0.33409">
        <ele>133.19999694824</ele>
        <time>2011-05-08T09:48:26Z</time>
      </trkpt>
      <trkpt lat="44.81321" lon="-0.33417">
        <ele>133</ele>
        <time>2011-05-08T09:48:27Z</time>
      </trkpt>
      <trkpt lat="44.81324" lon="-0.33429">
        <ele>132</ele>
        <time>2011-05-08T09:48:29Z</time>
      </trkpt>
      <trkpt lat="44.81323" lon="-0.33436">
        <ele>131.60000610352</ele>
        <time>2011-05-08T09:48:31Z</time>
      </trkpt>
      <trkpt lat="44.81322" lon="-0.33442">
        <ele>130.5</ele>
        <time>2011-05-08T09:48:33Z</time>
      </trkpt>
      <trkpt lat="44.8132" lon="-0.3345">
        <ele>128.39999389648</ele>
        <time>2011-05-08T09:48:36Z</time>
      </trkpt>
      <trkpt lat="44.81319" lon="-0.33458">
        <ele>126.30000305176</ele>
        <time>2011-05-08T09:48:38Z</time>
      </trkpt>
      <trkpt lat="44.81317" lon="-0.33465">
        <ele>125</ele>
        <time>2011-05-08T09:48:42Z</time>
      </trkpt>
      <trkpt lat="44.81315" lon="-0.33472">
        <ele>124.59999847412</ele>
        <time>2011-05-08T09:48:44Z</time>
      </trkpt>
      <trkpt lat="44.8131" lon="-0.33482">
        <ele>124.5</ele>
        <time>2011-05-08T09:48:47Z</time>
      </trkpt>
      <trkpt lat="44.81308" lon="-0.33494">
        <ele>125.59999847412</ele>
        <time>2011-05-08T09:48:49Z</time>
      </trkpt>
      <trkpt lat="44.81306" lon="-0.33504">
        <ele>125.30000305176</ele>
        <time>2011-05-08T09:48:51Z</time>
      </trkpt>
      <trkpt lat="44.81305" lon="-0.33515">
        <ele>126.30000305176</ele>
        <time>2011-05-08T09:48:53Z</time>
      </trkpt>
      <trkpt lat="44.81302" lon="-0.33522">
        <ele>126.30000305176</ele>
        <time>2011-05-08T09:48:55Z</time>
      </trkpt>
      <trkpt lat="44.81298" lon="-0.33526">
        <ele>126.09999847412</ele>
        <time>2011-05-08T09:48:58Z</time>
      </trkpt>
      <trkpt lat="44.81296" lon="-0.33532">
        <ele>125.09999847412</ele>
        <time>2011-05-08T09:49:02Z</time>
      </trkpt>
      <trkpt lat="44.81293" lon="-0.33537">
        <ele>125.69999694824</ele>
        <time>2011-05-08T09:49:07Z</time>
      </trkpt>
      <trkpt lat="44.81293" lon="-0.33544">
        <ele>125.5</ele>
        <time>2011-05-08T09:49:13Z</time>
      </trkpt>
      <trkpt lat="44.81293" lon="-0.33551">
        <ele>125.80000305176</ele>
        <time>2011-05-08T09:49:21Z</time>
      </trkpt>
      <trkpt lat="44.81294" lon="-0.33557">
        <ele>125.59999847412</ele>
        <time>2011-05-08T09:49:30Z</time>
      </trkpt>
      <trkpt lat="44.81285" lon="-0.33568">
        <ele>125.59999847412</ele>
        <time>2011-05-08T09:49:47Z</time>
      </trkpt>
      <trkpt lat="44.81279" lon="-0.33571">
        <ele>125.69999694824</ele>
        <time>2011-05-08T09:49:49Z</time>
      </trkpt>
      <trkpt lat="44.81274" lon="-0.33574">
        <ele>123.90000152588</ele>
        <time>2011-05-08T09:49:51Z</time>
      </trkpt>
      <trkpt lat="44.81267" lon="-0.33579">
        <ele>122.80000305176</ele>
        <time>2011-05-08T09:49:53Z</time>
      </trkpt>
      <trkpt lat="44.81262" lon="-0.33579">
        <ele>122</ele>
        <time>2011-05-08T09:49:54Z</time>
      </trkpt>
      <trkpt lat="44.8126" lon="-0.33585">
        <ele>121.40000152588</ele>
        <time>2011-05-08T09:49:56Z</time>
      </trkpt>
      <trkpt lat="44.8126" lon="-0.33593">
        <ele>119.90000152588</ele>
        <time>2011-05-08T09:49:58Z</time>
      </trkpt>
      <trkpt lat="44.8126" lon="-0.33599">
        <ele>119.30000305176</ele>
        <time>2011-05-08T09:50:00Z</time>
      </trkpt>
      <trkpt lat="44.81257" lon="-0.33604">
        <ele>118.40000152588</ele>
        <time>2011-05-08T09:50:02Z</time>
      </trkpt>
      <trkpt lat="44.81255" lon="-0.33611">
        <ele>118.90000152588</ele>
        <time>2011-05-08T09:50:04Z</time>
      </trkpt>
      <trkpt lat="44.81253" lon="-0.33618">
        <ele>117.40000152588</ele>
        <time>2011-05-08T09:50:06Z</time>
      </trkpt>
      <trkpt lat="44.81251" lon="-0.33625">
        <ele>118.30000305176</ele>
        <time>2011-05-08T09:50:08Z</time>
      </trkpt>
      <trkpt lat="44.81249" lon="-0.33632">
        <ele>119.59999847412</ele>
        <time>2011-05-08T09:50:10Z</time>
      </trkpt>
      <trkpt lat="44.81247" lon="-0.3364">
        <ele>121.40000152588</ele>
        <time>2011-05-08T09:50:12Z</time>
      </trkpt>
      <trkpt lat="44.81245" lon="-0.33646">
        <ele>122.09999847412</ele>
        <time>2011-05-08T09:50:14Z</time>
      </trkpt>
      <trkpt lat="44.81243" lon="-0.33652">
        <ele>117.59999847412</ele>
        <time>2011-05-08T09:50:16Z</time>
      </trkpt>
      <trkpt lat="44.81239" lon="-0.33661">
        <ele>117.09999847412</ele>
        <time>2011-05-08T09:50:19Z</time>
      </trkpt>
      <trkpt lat="44.81236" lon="-0.33666">
        <ele>119.69999694824</ele>
        <time>2011-05-08T09:50:22Z</time>
      </trkpt>
      <trkpt lat="44.81234" lon="-0.33674">
        <ele>121.30000305176</ele>
        <time>2011-05-08T09:50:25Z</time>
      </trkpt>
      <trkpt lat="44.81233" lon="-0.33682">
        <ele>121.19999694824</ele>
        <time>2011-05-08T09:50:28Z</time>
      </trkpt>
      <trkpt lat="44.8123" lon="-0.3369">
        <ele>121.80000305176</ele>
        <time>2011-05-08T09:50:30Z</time>
      </trkpt>
      <trkpt lat="44.81228" lon="-0.33696">
        <ele>122.19999694824</ele>
        <time>2011-05-08T09:50:33Z</time>
      </trkpt>
      <trkpt lat="44.81227" lon="-0.33703">
        <ele>122.19999694824</ele>
        <time>2011-05-08T09:50:35Z</time>
      </trkpt>
      <trkpt lat="44.81224" lon="-0.33709">
        <ele>121.59999847412</ele>
        <time>2011-05-08T09:50:37Z</time>
      </trkpt>
      <trkpt lat="44.8122" lon="-0.33715">
        <ele>120.59999847412</ele>
        <time>2011-05-08T09:50:39Z</time>
      </trkpt>
      <trkpt lat="44.81218" lon="-0.33724">
        <ele>119.5</ele>
        <time>2011-05-08T09:50:41Z</time>
      </trkpt>
      <trkpt lat="44.81216" lon="-0.33729">
        <ele>120.09999847412</ele>
        <time>2011-05-08T09:50:43Z</time>
      </trkpt>
      <trkpt lat="44.81214" lon="-0.33737">
        <ele>118.59999847412</ele>
        <time>2011-05-08T09:50:45Z</time>
      </trkpt>
      <trkpt lat="44.81214" lon="-0.33745">
        <ele>118.90000152588</ele>
        <time>2011-05-08T09:50:48Z</time>
      </trkpt>
      <trkpt lat="44.81215" lon="-0.33752">
        <ele>118.90000152588</ele>
        <time>2011-05-08T09:50:50Z</time>
      </trkpt>
      <trkpt lat="44.81215" lon="-0.3376">
        <ele>120</ele>
        <time>2011-05-08T09:50:53Z</time>
      </trkpt>
      <trkpt lat="44.81216" lon="-0.33768">
        <ele>122.59999847412</ele>
        <time>2011-05-08T09:50:56Z</time>
      </trkpt>
      <trkpt lat="44.81216" lon="-0.33776">
        <ele>120.80000305176</ele>
        <time>2011-05-08T09:51:00Z</time>
      </trkpt>
      <trkpt lat="44.81217" lon="-0.33782">
        <ele>121.80000305176</ele>
        <time>2011-05-08T09:51:02Z</time>
      </trkpt>
      <trkpt lat="44.81216" lon="-0.33791">
        <ele>121.80000305176</ele>
        <time>2011-05-08T09:51:05Z</time>
      </trkpt>
      <trkpt lat="44.81217" lon="-0.33798">
        <ele>121</ele>
        <time>2011-05-08T09:51:07Z</time>
      </trkpt>
      <trkpt lat="44.81217" lon="-0.33805">
        <ele>121.30000305176</ele>
        <time>2011-05-08T09:51:10Z</time>
      </trkpt>
      <trkpt lat="44.81216" lon="-0.33813">
        <ele>121</ele>
        <time>2011-05-08T09:51:13Z</time>
      </trkpt>
      <trkpt lat="44.81215" lon="-0.3382">
        <ele>120.90000152588</ele>
        <time>2011-05-08T09:51:16Z</time>
      </trkpt>
      <trkpt lat="44.81215" lon="-0.33827">
        <ele>121.5</ele>
        <time>2011-05-08T09:51:20Z</time>
      </trkpt>
      <trkpt lat="44.81215" lon="-0.33834">
        <ele>120.69999694824</ele>
        <time>2011-05-08T09:51:23Z</time>
      </trkpt>
      <trkpt lat="44.81217" lon="-0.33842">
        <ele>120.69999694824</ele>
        <time>2011-05-08T09:51:26Z</time>
      </trkpt>
      <trkpt lat="44.81219" lon="-0.33849">
        <ele>123.30000305176</ele>
        <time>2011-05-08T09:51:29Z</time>
      </trkpt>
      <trkpt lat="44.8122" lon="-0.33856">
        <ele>125.59999847412</ele>
        <time>2011-05-08T09:51:32Z</time>
      </trkpt>
      <trkpt lat="44.8122" lon="-0.33863">
        <ele>127</ele>
        <time>2011-05-08T09:51:36Z</time>
      </trkpt>
      <trkpt lat="44.81217" lon="-0.3387">
        <ele>128.89999389648</ele>
        <time>2011-05-08T09:51:39Z</time>
      </trkpt>
      <trkpt lat="44.81214" lon="-0.33876">
        <ele>128.19999694824</ele>
        <time>2011-05-08T09:51:42Z</time>
      </trkpt>
      <trkpt lat="44.81211" lon="-0.33883">
        <ele>127.19999694824</ele>
        <time>2011-05-08T09:51:45Z</time>
      </trkpt>
      <trkpt lat="44.81207" lon="-0.33889">
        <ele>127.5</ele>
        <time>2011-05-08T09:51:49Z</time>
      </trkpt>
      <trkpt lat="44.81205" lon="-0.33898">
        <ele>126.90000152588</ele>
        <time>2011-05-08T09:51:53Z</time>
      </trkpt>
      <trkpt lat="44.81202" lon="-0.33905">
        <ele>127.90000152588</ele>
        <time>2011-05-08T09:51:57Z</time>
      </trkpt>
      <trkpt lat="44.81202" lon="-0.33913">
        <ele>129.5</ele>
        <time>2011-05-08T09:52:01Z</time>
      </trkpt>
      <trkpt lat="44.812" lon="-0.33921">
        <ele>129.69999694824</ele>
        <time>2011-05-08T09:52:04Z</time>
      </trkpt>
      <trkpt lat="44.81198" lon="-0.33927">
        <ele>130.19999694824</ele>
        <time>2011-05-08T09:52:08Z</time>
      </trkpt>
      <trkpt lat="44.81197" lon="-0.33934">
        <ele>130.80000305176</ele>
        <time>2011-05-08T09:52:12Z</time>
      </trkpt>
      <trkpt lat="44.81195" lon="-0.33942">
        <ele>130.39999389648</ele>
        <time>2011-05-08T09:52:16Z</time>
      </trkpt>
      <trkpt lat="44.81196" lon="-0.33948">
        <ele>131.5</ele>
        <time>2011-05-08T09:52:19Z</time>
      </trkpt>
      <trkpt lat="44.81195" lon="-0.33955">
        <ele>131.69999694824</ele>
        <time>2011-05-08T09:52:22Z</time>
      </trkpt>
      <trkpt lat="44.81193" lon="-0.33963">
        <ele>131.69999694824</ele>
        <time>2011-05-08T09:52:26Z</time>
      </trkpt>
      <trkpt lat="44.81193" lon="-0.33969">
        <ele>132.19999694824</ele>
        <time>2011-05-08T09:52:30Z</time>
      </trkpt>
      <trkpt lat="44.81191" lon="-0.33977">
        <ele>132.60000610352</ele>
        <time>2011-05-08T09:52:34Z</time>
      </trkpt>
      <trkpt lat="44.81189" lon="-0.33986">
        <ele>133.69999694824</ele>
        <time>2011-05-08T09:52:38Z</time>
      </trkpt>
      <trkpt lat="44.81188" lon="-0.33992">
        <ele>135.60000610352</ele>
        <time>2011-05-08T09:52:41Z</time>
      </trkpt>
      <trkpt lat="44.81188" lon="-0.34">
        <ele>135.69999694824</ele>
        <time>2011-05-08T09:52:44Z</time>
      </trkpt>
      <trkpt lat="44.81188" lon="-0.34006">
        <ele>135.5</ele>
        <time>2011-05-08T09:52:47Z</time>
      </trkpt>
      <trkpt lat="44.81187" lon="-0.34015">
        <ele>136.60000610352</ele>
        <time>2011-05-08T09:52:50Z</time>
      </trkpt>
      <trkpt lat="44.81187" lon="-0.34023">
        <ele>137.39999389648</ele>
        <time>2011-05-08T09:52:53Z</time>
      </trkpt>
      <trkpt lat="44.81186" lon="-0.34029">
        <ele>137.19999694824</ele>
        <time>2011-05-08T09:52:55Z</time>
      </trkpt>
      <trkpt lat="44.81184" lon="-0.34036">
        <ele>138.80000305176</ele>
        <time>2011-05-08T09:52:58Z</time>
      </trkpt>
      <trkpt lat="44.81182" lon="-0.34043">
        <ele>138.5</ele>
        <time>2011-05-08T09:53:01Z</time>
      </trkpt>
      <trkpt lat="44.81176" lon="-0.34041">
        <ele>138.69999694824</ele>
        <time>2011-05-08T09:53:04Z</time>
      </trkpt>
      <trkpt lat="44.81172" lon="-0.34035">
        <ele>138.10000610352</ele>
        <time>2011-05-08T09:53:06Z</time>
      </trkpt>
      <trkpt lat="44.81167" lon="-0.3403">
        <ele>138.10000610352</ele>
        <time>2011-05-08T09:53:09Z</time>
      </trkpt>
      <trkpt lat="44.81162" lon="-0.34024">
        <ele>138.69999694824</ele>
        <time>2011-05-08T09:53:12Z</time>
      </trkpt>
      <trkpt lat="44.81159" lon="-0.34019">
        <ele>140</ele>
        <time>2011-05-08T09:53:15Z</time>
      </trkpt>
      <trkpt lat="44.81154" lon="-0.34014">
        <ele>140.39999389648</ele>
        <time>2011-05-08T09:53:18Z</time>
      </trkpt>
      <trkpt lat="44.81148" lon="-0.34009">
        <ele>139.89999389648</ele>
        <time>2011-05-08T09:53:20Z</time>
      </trkpt>
      <trkpt lat="44.81144" lon="-0.34007">
        <ele>140.10000610352</ele>
        <time>2011-05-08T09:53:22Z</time>
      </trkpt>
      <trkpt lat="44.8114" lon="-0.34003">
        <ele>140</ele>
        <time>2011-05-08T09:53:24Z</time>
      </trkpt>
      <trkpt lat="44.81133" lon="-0.33997">
        <ele>141.5</ele>
        <time>2011-05-08T09:53:27Z</time>
      </trkpt>
      <trkpt lat="44.81127" lon="-0.33994">
        <ele>141.60000610352</ele>
        <time>2011-05-08T09:53:29Z</time>
      </trkpt>
      <trkpt lat="44.8112" lon="-0.33991">
        <ele>140.69999694824</ele>
        <time>2011-05-08T09:53:31Z</time>
      </trkpt>
      <trkpt lat="44.81116" lon="-0.33988">
        <ele>140</ele>
        <time>2011-05-08T09:53:32Z</time>
      </trkpt>
      <trkpt lat="44.8111" lon="-0.33984">
        <ele>139.89999389648</ele>
        <time>2011-05-08T09:53:34Z</time>
      </trkpt>
      <trkpt lat="44.81104" lon="-0.3398">
        <ele>139.89999389648</ele>
        <time>2011-05-08T09:53:36Z</time>
      </trkpt>
      <trkpt lat="44.81098" lon="-0.33977">
        <ele>139.60000610352</ele>
        <time>2011-05-08T09:53:38Z</time>
      </trkpt>
      <trkpt lat="44.8109" lon="-0.33973">
        <ele>141</ele>
        <time>2011-05-08T09:53:40Z</time>
      </trkpt>
      <trkpt lat="44.81084" lon="-0.33969">
        <ele>140.39999389648</ele>
        <time>2011-05-08T09:53:42Z</time>
      </trkpt>
      <trkpt lat="44.81077" lon="-0.33963">
        <ele>141.10000610352</ele>
        <time>2011-05-08T09:53:44Z</time>
      </trkpt>
      <trkpt lat="44.81065" lon="-0.33954">
        <ele>141.5</ele>
        <time>2011-05-08T09:53:47Z</time>
      </trkpt>
      <trkpt lat="44.81057" lon="-0.3395">
        <ele>141.60000610352</ele>
        <time>2011-05-08T09:53:49Z</time>
      </trkpt>
      <trkpt lat="44.8105" lon="-0.33946">
        <ele>141.10000610352</ele>
        <time>2011-05-08T09:53:51Z</time>
      </trkpt>
      <trkpt lat="44.81043" lon="-0.33944">
        <ele>140.10000610352</ele>
        <time>2011-05-08T09:53:53Z</time>
      </trkpt>
      <trkpt lat="44.81036" lon="-0.3394">
        <ele>140.69999694824</ele>
        <time>2011-05-08T09:53:55Z</time>
      </trkpt>
      <trkpt lat="44.81028" lon="-0.33938">
        <ele>140.5</ele>
        <time>2011-05-08T09:53:57Z</time>
      </trkpt>
      <trkpt lat="44.8102" lon="-0.33937">
        <ele>140.19999694824</ele>
        <time>2011-05-08T09:53:59Z</time>
      </trkpt>
      <trkpt lat="44.81014" lon="-0.33936">
        <ele>140.30000305176</ele>
        <time>2011-05-08T09:54:00Z</time>
      </trkpt>
      <trkpt lat="44.81007" lon="-0.33934">
        <ele>140</ele>
        <time>2011-05-08T09:54:02Z</time>
      </trkpt>
      <trkpt lat="44.81" lon="-0.33933">
        <ele>140</ele>
        <time>2011-05-08T09:54:04Z</time>
      </trkpt>
      <trkpt lat="44.80993" lon="-0.33932">
        <ele>140.5</ele>
        <time>2011-05-08T09:54:06Z</time>
      </trkpt>
      <trkpt lat="44.80987" lon="-0.33932">
        <ele>140.30000305176</ele>
        <time>2011-05-08T09:54:08Z</time>
      </trkpt>
      <trkpt lat="44.80981" lon="-0.3393">
        <ele>141</ele>
        <time>2011-05-08T09:54:10Z</time>
      </trkpt>
      <trkpt lat="44.80976" lon="-0.33931">
        <ele>140.39999389648</ele>
        <time>2011-05-08T09:54:13Z</time>
      </trkpt>
      <trkpt lat="44.80972" lon="-0.33926">
        <ele>142.10000610352</ele>
        <time>2011-05-08T09:54:30Z</time>
      </trkpt>
      <trkpt lat="44.80973" lon="-0.33928">
        <ele>142.30000305176</ele>
        <time>2011-05-08T09:54:59Z</time>
      </trkpt>
      <trkpt lat="44.80969" lon="-0.3393">
        <ele>142.10000610352</ele>
        <time>2011-05-08T09:55:21Z</time>
      </trkpt>
      <trkpt lat="44.80966" lon="-0.3393">
        <ele>142.30000305176</ele>
        <time>2011-05-08T09:55:22Z</time>
      </trkpt>
      <trkpt lat="44.80959" lon="-0.33929">
        <ele>141.80000305176</ele>
        <time>2011-05-08T09:55:24Z</time>
      </trkpt>
      <trkpt lat="44.80953" lon="-0.33929">
        <ele>141.60000610352</ele>
        <time>2011-05-08T09:55:27Z</time>
      </trkpt>
      <trkpt lat="44.80947" lon="-0.33931">
        <ele>142.69999694824</ele>
        <time>2011-05-08T09:55:29Z</time>
      </trkpt>
      <trkpt lat="44.80941" lon="-0.33934">
        <ele>143.89999389648</ele>
        <time>2011-05-08T09:55:31Z</time>
      </trkpt>
      <trkpt lat="44.80932" lon="-0.33936">
        <ele>143.69999694824</ele>
        <time>2011-05-08T09:55:33Z</time>
      </trkpt>
      <trkpt lat="44.80927" lon="-0.33936">
        <ele>142.60000610352</ele>
        <time>2011-05-08T09:55:34Z</time>
      </trkpt>
      <trkpt lat="44.80919" lon="-0.33937">
        <ele>141.10000610352</ele>
        <time>2011-05-08T09:55:36Z</time>
      </trkpt>
      <trkpt lat="44.80911" lon="-0.33935">
        <ele>140.89999389648</ele>
        <time>2011-05-08T09:55:38Z</time>
      </trkpt>
      <trkpt lat="44.80906" lon="-0.33931">
        <ele>140.60000610352</ele>
        <time>2011-05-08T09:55:40Z</time>
      </trkpt>
      <trkpt lat="44.80897" lon="-0.33926">
        <ele>140.10000610352</ele>
        <time>2011-05-08T09:55:42Z</time>
      </trkpt>
      <trkpt lat="44.80889" lon="-0.33923">
        <ele>139</ele>
        <time>2011-05-08T09:55:44Z</time>
      </trkpt>
      <trkpt lat="44.80877" lon="-0.33916">
        <ele>138.80000305176</ele>
        <time>2011-05-08T09:55:47Z</time>
      </trkpt>
      <trkpt lat="44.8087" lon="-0.3391">
        <ele>138.30000305176</ele>
        <time>2011-05-08T09:55:49Z</time>
      </trkpt>
      <trkpt lat="44.80863" lon="-0.33908">
        <ele>138.10000610352</ele>
        <time>2011-05-08T09:55:51Z</time>
      </trkpt>
      <trkpt lat="44.80858" lon="-0.33906">
        <ele>137.39999389648</ele>
        <time>2011-05-08T09:55:52Z</time>
      </trkpt>
      <trkpt lat="44.80853" lon="-0.33904">
        <ele>137.60000610352</ele>
        <time>2011-05-08T09:55:53Z</time>
      </trkpt>
      <trkpt lat="44.80846" lon="-0.33904">
        <ele>137.60000610352</ele>
        <time>2011-05-08T09:55:55Z</time>
      </trkpt>
      <trkpt lat="44.80837" lon="-0.33906">
        <ele>137.80000305176</ele>
        <time>2011-05-08T09:55:57Z</time>
      </trkpt>
      <trkpt lat="44.8083" lon="-0.33912">
        <ele>137.19999694824</ele>
        <time>2011-05-08T09:55:59Z</time>
      </trkpt>
      <trkpt lat="44.80823" lon="-0.3392">
        <ele>136.80000305176</ele>
        <time>2011-05-08T09:56:01Z</time>
      </trkpt>
      <trkpt lat="44.8082" lon="-0.33926">
        <ele>136.5</ele>
        <time>2011-05-08T09:56:02Z</time>
      </trkpt>
      <trkpt lat="44.80817" lon="-0.33933">
        <ele>136.60000610352</ele>
        <time>2011-05-08T09:56:03Z</time>
      </trkpt>
      <trkpt lat="44.80815" lon="-0.3394">
        <ele>136.69999694824</ele>
        <time>2011-05-08T09:56:04Z</time>
      </trkpt>
      <trkpt lat="44.80809" lon="-0.33948">
        <ele>136.30000305176</ele>
        <time>2011-05-08T09:56:05Z</time>
      </trkpt>
      <trkpt lat="44.80805" lon="-0.33957">
        <ele>135.80000305176</ele>
        <time>2011-05-08T09:56:06Z</time>
      </trkpt>
      <trkpt lat="44.80803" lon="-0.33965">
        <ele>136.19999694824</ele>
        <time>2011-05-08T09:56:07Z</time>
      </trkpt>
      <trkpt lat="44.80797" lon="-0.33974">
        <ele>135.80000305176</ele>
        <time>2011-05-08T09:56:09Z</time>
      </trkpt>
      <trkpt lat="44.80794" lon="-0.33979">
        <ele>135.60000610352</ele>
        <time>2011-05-08T09:56:10Z</time>
      </trkpt>
      <trkpt lat="44.80792" lon="-0.3399">
        <ele>135.89999389648</ele>
        <time>2011-05-08T09:56:12Z</time>
      </trkpt>
      <trkpt lat="44.80787" lon="-0.33997">
        <ele>135.89999389648</ele>
        <time>2011-05-08T09:56:14Z</time>
      </trkpt>
      <trkpt lat="44.8078" lon="-0.34007">
        <ele>135.19999694824</ele>
        <time>2011-05-08T09:56:16Z</time>
      </trkpt>
      <trkpt lat="44.80777" lon="-0.34011">
        <ele>134.89999389648</ele>
        <time>2011-05-08T09:56:17Z</time>
      </trkpt>
      <trkpt lat="44.8077" lon="-0.34017">
        <ele>134.69999694824</ele>
        <time>2011-05-08T09:56:19Z</time>
      </trkpt>
      <trkpt lat="44.80767" lon="-0.34021">
        <ele>134.39999389648</ele>
        <time>2011-05-08T09:56:20Z</time>
      </trkpt>
      <trkpt lat="44.80765" lon="-0.34035">
        <ele>133.19999694824</ele>
        <time>2011-05-08T09:56:22Z</time>
      </trkpt>
      <trkpt lat="44.80764" lon="-0.34041">
        <ele>132.5</ele>
        <time>2011-05-08T09:56:23Z</time>
      </trkpt>
      <trkpt lat="44.80761" lon="-0.34049">
        <ele>131.80000305176</ele>
        <time>2011-05-08T09:56:24Z</time>
      </trkpt>
      <trkpt lat="44.80758" lon="-0.34055">
        <ele>132.30000305176</ele>
        <time>2011-05-08T09:56:25Z</time>
      </trkpt>
      <trkpt lat="44.80755" lon="-0.34061">
        <ele>132.30000305176</ele>
        <time>2011-05-08T09:56:26Z</time>
      </trkpt>
      <trkpt lat="44.80751" lon="-0.34066">
        <ele>132.69999694824</ele>
        <time>2011-05-08T09:56:27Z</time>
      </trkpt>
      <trkpt lat="44.80748" lon="-0.34071">
        <ele>132.39999389648</ele>
        <time>2011-05-08T09:56:28Z</time>
      </trkpt>
      <trkpt lat="44.80744" lon="-0.34078">
        <ele>132.60000610352</ele>
        <time>2011-05-08T09:56:29Z</time>
      </trkpt>
      <trkpt lat="44.80739" lon="-0.34085">
        <ele>132.69999694824</ele>
        <time>2011-05-08T09:56:30Z</time>
      </trkpt>
      <trkpt lat="44.80735" lon="-0.34092">
        <ele>132.5</ele>
        <time>2011-05-08T09:56:31Z</time>
      </trkpt>
      <trkpt lat="44.8073" lon="-0.341">
        <ele>132.39999389648</ele>
        <time>2011-05-08T09:56:32Z</time>
      </trkpt>
      <trkpt lat="44.80725" lon="-0.34107">
        <ele>132.30000305176</ele>
        <time>2011-05-08T09:56:33Z</time>
      </trkpt>
      <trkpt lat="44.80718" lon="-0.34115">
        <ele>132.30000305176</ele>
        <time>2011-05-08T09:56:34Z</time>
      </trkpt>
      <trkpt lat="44.80713" lon="-0.34123">
        <ele>132.19999694824</ele>
        <time>2011-05-08T09:56:35Z</time>
      </trkpt>
      <trkpt lat="44.80709" lon="-0.3413">
        <ele>132</ele>
        <time>2011-05-08T09:56:36Z</time>
      </trkpt>
      <trkpt lat="44.80706" lon="-0.34139">
        <ele>131.5</ele>
        <time>2011-05-08T09:56:37Z</time>
      </trkpt>
      <trkpt lat="44.80701" lon="-0.34147">
        <ele>131.30000305176</ele>
        <time>2011-05-08T09:56:38Z</time>
      </trkpt>
      <trkpt lat="44.80697" lon="-0.34158">
        <ele>132.30000305176</ele>
        <time>2011-05-08T09:56:39Z</time>
      </trkpt>
      <trkpt lat="44.80694" lon="-0.34169">
        <ele>130.80000305176</ele>
        <time>2011-05-08T09:56:40Z</time>
      </trkpt>
      <trkpt lat="44.80692" lon="-0.3418">
        <ele>131</ele>
        <time>2011-05-08T09:56:41Z</time>
      </trkpt>
      <trkpt lat="44.8069" lon="-0.3419">
        <ele>131.89999389648</ele>
        <time>2011-05-08T09:56:42Z</time>
      </trkpt>
      <trkpt lat="44.80687" lon="-0.342">
        <ele>131.5</ele>
        <time>2011-05-08T09:56:43Z</time>
      </trkpt>
      <trkpt lat="44.80683" lon="-0.3421">
        <ele>131.5</ele>
        <time>2011-05-08T09:56:44Z</time>
      </trkpt>
      <trkpt lat="44.80677" lon="-0.34219">
        <ele>129.80000305176</ele>
        <time>2011-05-08T09:56:45Z</time>
      </trkpt>
      <trkpt lat="44.8067" lon="-0.3424">
        <ele>127.69999694824</ele>
        <time>2011-05-08T09:56:47Z</time>
      </trkpt>
      <trkpt lat="44.80665" lon="-0.34248">
        <ele>126.90000152588</ele>
        <time>2011-05-08T09:56:48Z</time>
      </trkpt>
      <trkpt lat="44.80661" lon="-0.34258">
        <ele>125.19999694824</ele>
        <time>2011-05-08T09:56:49Z</time>
      </trkpt>
      <trkpt lat="44.80657" lon="-0.34265">
        <ele>125.09999847412</ele>
        <time>2011-05-08T09:56:50Z</time>
      </trkpt>
      <trkpt lat="44.80655" lon="-0.34272">
        <ele>124.80000305176</ele>
        <time>2011-05-08T09:56:51Z</time>
      </trkpt>
      <trkpt lat="44.80652" lon="-0.34281">
        <ele>124</ele>
        <time>2011-05-08T09:56:52Z</time>
      </trkpt>
      <trkpt lat="44.80651" lon="-0.34287">
        <ele>123.59999847412</ele>
        <time>2011-05-08T09:56:53Z</time>
      </trkpt>
      <trkpt lat="44.80648" lon="-0.34295">
        <ele>123.5</ele>
        <time>2011-05-08T09:56:54Z</time>
      </trkpt>
      <trkpt lat="44.80645" lon="-0.34303">
        <ele>122.30000305176</ele>
        <time>2011-05-08T09:56:55Z</time>
      </trkpt>
      <trkpt lat="44.80642" lon="-0.34309">
        <ele>121.5</ele>
        <time>2011-05-08T09:56:56Z</time>
      </trkpt>
      <trkpt lat="44.80639" lon="-0.34316">
        <ele>120.80000305176</ele>
        <time>2011-05-08T09:56:57Z</time>
      </trkpt>
      <trkpt lat="44.80635" lon="-0.34321">
        <ele>120.80000305176</ele>
        <time>2011-05-08T09:56:58Z</time>
      </trkpt>
      <trkpt lat="44.80632" lon="-0.34326">
        <ele>120.80000305176</ele>
        <time>2011-05-08T09:56:59Z</time>
      </trkpt>
      <trkpt lat="44.80624" lon="-0.34333">
        <ele>120.09999847412</ele>
        <time>2011-05-08T09:57:01Z</time>
      </trkpt>
      <trkpt lat="44.80619" lon="-0.34338">
        <ele>119.80000305176</ele>
        <time>2011-05-08T09:57:03Z</time>
      </trkpt>
      <trkpt lat="44.80609" lon="-0.34341">
        <ele>119.09999847412</ele>
        <time>2011-05-08T09:57:05Z</time>
      </trkpt>
      <trkpt lat="44.80605" lon="-0.34344">
        <ele>118.59999847412</ele>
        <time>2011-05-08T09:57:06Z</time>
      </trkpt>
      <trkpt lat="44.80604" lon="-0.3435">
        <ele>118.5</ele>
        <time>2011-05-08T09:57:07Z</time>
      </trkpt>
      <trkpt lat="44.806" lon="-0.34357">
        <ele>118.69999694824</ele>
        <time>2011-05-08T09:57:08Z</time>
      </trkpt>
      <trkpt lat="44.80602" lon="-0.34367">
        <ele>119.09999847412</ele>
        <time>2011-05-08T09:57:10Z</time>
      </trkpt>
      <trkpt lat="44.806" lon="-0.34377">
        <ele>119</ele>
        <time>2011-05-08T09:57:11Z</time>
      </trkpt>
      <trkpt lat="44.80601" lon="-0.34383">
        <ele>119.09999847412</ele>
        <time>2011-05-08T09:57:12Z</time>
      </trkpt>
      <trkpt lat="44.80594" lon="-0.34396">
        <ele>118.69999694824</ele>
        <time>2011-05-08T09:57:14Z</time>
      </trkpt>
      <trkpt lat="44.80587" lon="-0.34406">
        <ele>118.80000305176</ele>
        <time>2011-05-08T09:57:15Z</time>
      </trkpt>
      <trkpt lat="44.80581" lon="-0.34419">
        <ele>118.69999694824</ele>
        <time>2011-05-08T09:57:16Z</time>
      </trkpt>
      <trkpt lat="44.80573" lon="-0.34428">
        <ele>118.59999847412</ele>
        <time>2011-05-08T09:57:17Z</time>
      </trkpt>
      <trkpt lat="44.80562" lon="-0.34437">
        <ele>117.80000305176</ele>
        <time>2011-05-08T09:57:18Z</time>
      </trkpt>
      <trkpt lat="44.80554" lon="-0.34444">
        <ele>115.90000152588</ele>
        <time>2011-05-08T09:57:19Z</time>
      </trkpt>
      <trkpt lat="44.80547" lon="-0.34451">
        <ele>112.80000305176</ele>
        <time>2011-05-08T09:57:20Z</time>
      </trkpt>
      <trkpt lat="44.80542" lon="-0.34461">
        <ele>111.59999847412</ele>
        <time>2011-05-08T09:57:21Z</time>
      </trkpt>
      <trkpt lat="44.8054" lon="-0.34471">
        <ele>109.90000152588</ele>
        <time>2011-05-08T09:57:22Z</time>
      </trkpt>
      <trkpt lat="44.80535" lon="-0.34478">
        <ele>108.90000152588</ele>
        <time>2011-05-08T09:57:23Z</time>
      </trkpt>
      <trkpt lat="44.80531" lon="-0.34486">
        <ele>108.30000305176</ele>
        <time>2011-05-08T09:57:24Z</time>
      </trkpt>
      <trkpt lat="44.80528" lon="-0.34492">
        <ele>108.09999847412</ele>
        <time>2011-05-08T09:57:25Z</time>
      </trkpt>
      <trkpt lat="44.80525" lon="-0.34498">
        <ele>108</ele>
        <time>2011-05-08T09:57:26Z</time>
      </trkpt>
      <trkpt lat="44.80521" lon="-0.34507">
        <ele>106.80000305176</ele>
        <time>2011-05-08T09:57:28Z</time>
      </trkpt>
      <trkpt lat="44.80516" lon="-0.34513">
        <ele>106</ele>
        <time>2011-05-08T09:57:31Z</time>
      </trkpt>
      <trkpt lat="44.80513" lon="-0.3452">
        <ele>104.30000305176</ele>
        <time>2011-05-08T09:57:34Z</time>
      </trkpt>
      <trkpt lat="44.80507" lon="-0.34526">
        <ele>104.59999847412</ele>
        <time>2011-05-08T09:57:39Z</time>
      </trkpt>
      <trkpt lat="44.80505" lon="-0.34533">
        <ele>104</ele>
        <time>2011-05-08T09:57:41Z</time>
      </trkpt>
      <trkpt lat="44.80501" lon="-0.34538">
        <ele>104</ele>
        <time>2011-05-08T09:57:43Z</time>
      </trkpt>
      <trkpt lat="44.80496" lon="-0.34544">
        <ele>103.59999847412</ele>
        <time>2011-05-08T09:57:45Z</time>
      </trkpt>
      <trkpt lat="44.8049" lon="-0.34549">
        <ele>103.19999694824</ele>
        <time>2011-05-08T09:57:47Z</time>
      </trkpt>
      <trkpt lat="44.80486" lon="-0.34553">
        <ele>103.19999694824</ele>
        <time>2011-05-08T09:57:48Z</time>
      </trkpt>
      <trkpt lat="44.80482" lon="-0.34561">
        <ele>103.90000152588</ele>
        <time>2011-05-08T09:57:50Z</time>
      </trkpt>
      <trkpt lat="44.80477" lon="-0.34564">
        <ele>103.69999694824</ele>
        <time>2011-05-08T09:57:51Z</time>
      </trkpt>
      <trkpt lat="44.80472" lon="-0.34569">
        <ele>103.40000152588</ele>
        <time>2011-05-08T09:57:53Z</time>
      </trkpt>
      <trkpt lat="44.80467" lon="-0.34575">
        <ele>103.09999847412</ele>
        <time>2011-05-08T09:57:55Z</time>
      </trkpt>
      <trkpt lat="44.80462" lon="-0.34579">
        <ele>102.59999847412</ele>
        <time>2011-05-08T09:57:56Z</time>
      </trkpt>
      <trkpt lat="44.80456" lon="-0.34582">
        <ele>102.40000152588</ele>
        <time>2011-05-08T09:57:58Z</time>
      </trkpt>
      <trkpt lat="44.80452" lon="-0.34585">
        <ele>103.5</ele>
        <time>2011-05-08T09:58:00Z</time>
      </trkpt>
      <trkpt lat="44.80447" lon="-0.34586">
        <ele>103.40000152588</ele>
        <time>2011-05-08T09:58:02Z</time>
      </trkpt>
      <trkpt lat="44.80444" lon="-0.34592">
        <ele>102</ele>
        <time>2011-05-08T09:58:05Z</time>
      </trkpt>
      <trkpt lat="44.80445" lon="-0.34603">
        <ele>101.19999694824</ele>
        <time>2011-05-08T09:58:08Z</time>
      </trkpt>
      <trkpt lat="44.80446" lon="-0.34612">
        <ele>101.5</ele>
        <time>2011-05-08T09:58:10Z</time>
      </trkpt>
      <trkpt lat="44.80449" lon="-0.34621">
        <ele>101.40000152588</ele>
        <time>2011-05-08T09:58:12Z</time>
      </trkpt>
      <trkpt lat="44.80452" lon="-0.3463">
        <ele>100.59999847412</ele>
        <time>2011-05-08T09:58:14Z</time>
      </trkpt>
      <trkpt lat="44.80455" lon="-0.34636">
        <ele>100.5</ele>
        <time>2011-05-08T09:58:16Z</time>
      </trkpt>
      <trkpt lat="44.80459" lon="-0.34645">
        <ele>100.30000305176</ele>
        <time>2011-05-08T09:58:18Z</time>
      </trkpt>
      <trkpt lat="44.80461" lon="-0.34651">
        <ele>100.69999694824</ele>
        <time>2011-05-08T09:58:19Z</time>
      </trkpt>
      <trkpt lat="44.80465" lon="-0.3466">
        <ele>99.5</ele>
        <time>2011-05-08T09:58:21Z</time>
      </trkpt>
      <trkpt lat="44.80468" lon="-0.34669">
        <ele>99.099998474121</ele>
        <time>2011-05-08T09:58:23Z</time>
      </trkpt>
      <trkpt lat="44.80471" lon="-0.34678">
        <ele>99.099998474121</ele>
        <time>2011-05-08T09:58:25Z</time>
      </trkpt>
      <trkpt lat="44.80474" lon="-0.34689">
        <ele>98.900001525879</ele>
        <time>2011-05-08T09:58:27Z</time>
      </trkpt>
      <trkpt lat="44.80476" lon="-0.34695">
        <ele>98.800003051758</ele>
        <time>2011-05-08T09:58:28Z</time>
      </trkpt>
      <trkpt lat="44.8048" lon="-0.34705">
        <ele>98.699996948242</ele>
        <time>2011-05-08T09:58:30Z</time>
      </trkpt>
      <trkpt lat="44.80483" lon="-0.34714">
        <ele>98.800003051758</ele>
        <time>2011-05-08T09:58:32Z</time>
      </trkpt>
      <trkpt lat="44.80488" lon="-0.34722">
        <ele>98.900001525879</ele>
        <time>2011-05-08T09:58:34Z</time>
      </trkpt>
      <trkpt lat="44.80491" lon="-0.34728">
        <ele>99</ele>
        <time>2011-05-08T09:58:35Z</time>
      </trkpt>
      <trkpt lat="44.80495" lon="-0.3474">
        <ele>97.900001525879</ele>
        <time>2011-05-08T09:58:36Z</time>
      </trkpt>
      <trkpt lat="44.80497" lon="-0.34749">
        <ele>97.199996948242</ele>
        <time>2011-05-08T09:58:37Z</time>
      </trkpt>
      <trkpt lat="44.80497" lon="-0.34756">
        <ele>96.900001525879</ele>
        <time>2011-05-08T09:58:38Z</time>
      </trkpt>
      <trkpt lat="44.80496" lon="-0.34764">
        <ele>96.5</ele>
        <time>2011-05-08T09:58:40Z</time>
      </trkpt>
      <trkpt lat="44.80494" lon="-0.34771">
        <ele>96.5</ele>
        <time>2011-05-08T09:58:42Z</time>
      </trkpt>
      <trkpt lat="44.80491" lon="-0.34778">
        <ele>96.5</ele>
        <time>2011-05-08T09:58:44Z</time>
      </trkpt>
      <trkpt lat="44.80486" lon="-0.34789">
        <ele>95.900001525879</ele>
        <time>2011-05-08T09:58:47Z</time>
      </trkpt>
      <trkpt lat="44.80481" lon="-0.34795">
        <ele>96.400001525879</ele>
        <time>2011-05-08T09:58:49Z</time>
      </trkpt>
      <trkpt lat="44.80478" lon="-0.34799">
        <ele>96.300003051758</ele>
        <time>2011-05-08T09:58:50Z</time>
      </trkpt>
      <trkpt lat="44.80473" lon="-0.34805">
        <ele>96.300003051758</ele>
        <time>2011-05-08T09:58:52Z</time>
      </trkpt>
      <trkpt lat="44.80468" lon="-0.34812">
        <ele>95.900001525879</ele>
        <time>2011-05-08T09:58:55Z</time>
      </trkpt>
      <trkpt lat="44.80464" lon="-0.34814">
        <ele>96.599998474121</ele>
        <time>2011-05-08T09:58:59Z</time>
      </trkpt>
      <trkpt lat="44.8046" lon="-0.3482">
        <ele>96.099998474121</ele>
        <time>2011-05-08T09:59:02Z</time>
      </trkpt>
      <trkpt lat="44.80455" lon="-0.34821">
        <ele>97.099998474121</ele>
        <time>2011-05-08T09:59:03Z</time>
      </trkpt>
      <trkpt lat="44.8045" lon="-0.34825">
        <ele>97.599998474121</ele>
        <time>2011-05-08T09:59:05Z</time>
      </trkpt>
      <trkpt lat="44.80448" lon="-0.34832">
        <ele>98.099998474121</ele>
        <time>2011-05-08T09:59:07Z</time>
      </trkpt>
      <trkpt lat="44.80447" lon="-0.34841">
        <ele>98.099998474121</ele>
        <time>2011-05-08T09:59:09Z</time>
      </trkpt>
      <trkpt lat="44.80446" lon="-0.34848">
        <ele>99.699996948242</ele>
        <time>2011-05-08T09:59:11Z</time>
      </trkpt>
      <trkpt lat="44.80445" lon="-0.34856">
        <ele>99.5</ele>
        <time>2011-05-08T09:59:13Z</time>
      </trkpt>
      <trkpt lat="44.80443" lon="-0.34863">
        <ele>100.30000305176</ele>
        <time>2011-05-08T09:59:15Z</time>
      </trkpt>
      <trkpt lat="44.80442" lon="-0.3487">
        <ele>99.800003051758</ele>
        <time>2011-05-08T09:59:17Z</time>
      </trkpt>
      <trkpt lat="44.80439" lon="-0.34878">
        <ele>98.800003051758</ele>
        <time>2011-05-08T09:59:19Z</time>
      </trkpt>
      <trkpt lat="44.80435" lon="-0.34884">
        <ele>98.900001525879</ele>
        <time>2011-05-08T09:59:21Z</time>
      </trkpt>
      <trkpt lat="44.80434" lon="-0.34892">
        <ele>98.800003051758</ele>
        <time>2011-05-08T09:59:23Z</time>
      </trkpt>
      <trkpt lat="44.80432" lon="-0.349">
        <ele>98.699996948242</ele>
        <time>2011-05-08T09:59:25Z</time>
      </trkpt>
      <trkpt lat="44.80428" lon="-0.34905">
        <ele>98.300003051758</ele>
        <time>2011-05-08T09:59:27Z</time>
      </trkpt>
      <trkpt lat="44.80427" lon="-0.34912">
        <ele>98.5</ele>
        <time>2011-05-08T09:59:29Z</time>
      </trkpt>
      <trkpt lat="44.80426" lon="-0.3492">
        <ele>98.699996948242</ele>
        <time>2011-05-08T09:59:31Z</time>
      </trkpt>
      <trkpt lat="44.80422" lon="-0.34927">
        <ele>98.400001525879</ele>
        <time>2011-05-08T09:59:33Z</time>
      </trkpt>
      <trkpt lat="44.80417" lon="-0.34934">
        <ele>97.599998474121</ele>
        <time>2011-05-08T09:59:36Z</time>
      </trkpt>
      <trkpt lat="44.80414" lon="-0.34941">
        <ele>96.099998474121</ele>
        <time>2011-05-08T09:59:38Z</time>
      </trkpt>
      <trkpt lat="44.80409" lon="-0.34946">
        <ele>95.599998474121</ele>
        <time>2011-05-08T09:59:40Z</time>
      </trkpt>
      <trkpt lat="44.80403" lon="-0.34951">
        <ele>95.400001525879</ele>
        <time>2011-05-08T09:59:43Z</time>
      </trkpt>
      <trkpt lat="44.804" lon="-0.34957">
        <ele>95.699996948242</ele>
        <time>2011-05-08T09:59:45Z</time>
      </trkpt>
      <trkpt lat="44.804" lon="-0.34964">
        <ele>96.400001525879</ele>
        <time>2011-05-08T09:59:48Z</time>
      </trkpt>
      <trkpt lat="44.80398" lon="-0.34971">
        <ele>97.099998474121</ele>
        <time>2011-05-08T09:59:51Z</time>
      </trkpt>
      <trkpt lat="44.80398" lon="-0.34979">
        <ele>96.400001525879</ele>
        <time>2011-05-08T09:59:54Z</time>
      </trkpt>
      <trkpt lat="44.80394" lon="-0.34983">
        <ele>98.5</ele>
        <time>2011-05-08T10:00:02Z</time>
      </trkpt>
      <trkpt lat="44.80391" lon="-0.3499">
        <ele>98.5</ele>
        <time>2011-05-08T10:00:19Z</time>
      </trkpt>
      <trkpt lat="44.80389" lon="-0.34997">
        <ele>97.900001525879</ele>
        <time>2011-05-08T10:00:20Z</time>
      </trkpt>
      <trkpt lat="44.80388" lon="-0.35004">
        <ele>97.800003051758</ele>
        <time>2011-05-08T10:00:22Z</time>
      </trkpt>
      <trkpt lat="44.80383" lon="-0.35004">
        <ele>95.199996948242</ele>
        <time>2011-05-08T10:00:28Z</time>
      </trkpt>
      <trkpt lat="44.8038" lon="-0.35011">
        <ele>96.699996948242</ele>
        <time>2011-05-08T10:00:57Z</time>
      </trkpt>
      <trkpt lat="44.8038" lon="-0.35017">
        <ele>97.099998474121</ele>
        <time>2011-05-08T10:01:01Z</time>
      </trkpt>
      <trkpt lat="44.8038" lon="-0.35024">
        <ele>97.800003051758</ele>
        <time>2011-05-08T10:01:05Z</time>
      </trkpt>
      <trkpt lat="44.80376" lon="-0.35028">
        <ele>96.699996948242</ele>
        <time>2011-05-08T10:01:07Z</time>
      </trkpt>
      <trkpt lat="44.80373" lon="-0.35036">
        <ele>101.09999847412</ele>
        <time>2011-05-08T10:01:37Z</time>
      </trkpt>
      <trkpt lat="44.80368" lon="-0.35038">
        <ele>108.69999694824</ele>
        <time>2011-05-08T10:01:54Z</time>
      </trkpt>
      <trkpt lat="44.80365" lon="-0.35048">
        <ele>108.19999694824</ele>
        <time>2011-05-08T10:01:58Z</time>
      </trkpt>
      <trkpt lat="44.80364" lon="-0.35057">
        <ele>109</ele>
        <time>2011-05-08T10:02:01Z</time>
      </trkpt>
      <trkpt lat="44.80362" lon="-0.35063">
        <ele>109.5</ele>
        <time>2011-05-08T10:02:03Z</time>
      </trkpt>
      <trkpt lat="44.80359" lon="-0.3507">
        <ele>110.40000152588</ele>
        <time>2011-05-08T10:02:05Z</time>
      </trkpt>
      <trkpt lat="44.80355" lon="-0.35077">
        <ele>111.69999694824</ele>
        <time>2011-05-08T10:02:08Z</time>
      </trkpt>
      <trkpt lat="44.80354" lon="-0.35084">
        <ele>111.5</ele>
        <time>2011-05-08T10:02:11Z</time>
      </trkpt>
      <trkpt lat="44.80349" lon="-0.35093">
        <ele>110.19999694824</ele>
        <time>2011-05-08T10:02:14Z</time>
      </trkpt>
      <trkpt lat="44.80346" lon="-0.35101">
        <ele>109.09999847412</ele>
        <time>2011-05-08T10:02:17Z</time>
      </trkpt>
      <trkpt lat="44.80343" lon="-0.35105">
        <ele>109.30000305176</ele>
        <time>2011-05-08T10:02:19Z</time>
      </trkpt>
      <trkpt lat="44.80338" lon="-0.35109">
        <ele>109.59999847412</ele>
        <time>2011-05-08T10:02:21Z</time>
      </trkpt>
      <trkpt lat="44.80337" lon="-0.35116">
        <ele>109</ele>
        <time>2011-05-08T10:02:23Z</time>
      </trkpt>
      <trkpt lat="44.80334" lon="-0.35124">
        <ele>108.5</ele>
        <time>2011-05-08T10:02:26Z</time>
      </trkpt>
      <trkpt lat="44.80331" lon="-0.35129">
        <ele>108.80000305176</ele>
        <time>2011-05-08T10:02:28Z</time>
      </trkpt>
      <trkpt lat="44.80326" lon="-0.35135">
        <ele>109</ele>
        <time>2011-05-08T10:02:31Z</time>
      </trkpt>
      <trkpt lat="44.80323" lon="-0.3514">
        <ele>108.40000152588</ele>
        <time>2011-05-08T10:02:33Z</time>
      </trkpt>
      <trkpt lat="44.80319" lon="-0.35146">
        <ele>108.5</ele>
        <time>2011-05-08T10:02:36Z</time>
      </trkpt>
      <trkpt lat="44.80319" lon="-0.35153">
        <ele>108.69999694824</ele>
        <time>2011-05-08T10:02:38Z</time>
      </trkpt>
      <trkpt lat="44.80317" lon="-0.3516">
        <ele>109.30000305176</ele>
        <time>2011-05-08T10:02:41Z</time>
      </trkpt>
      <trkpt lat="44.80313" lon="-0.35167">
        <ele>110.5</ele>
        <time>2011-05-08T10:02:44Z</time>
      </trkpt>
      <trkpt lat="44.80307" lon="-0.35171">
        <ele>111.19999694824</ele>
        <time>2011-05-08T10:02:47Z</time>
      </trkpt>
      <trkpt lat="44.80302" lon="-0.35175">
        <ele>111</ele>
        <time>2011-05-08T10:02:50Z</time>
      </trkpt>
      <trkpt lat="44.803" lon="-0.35181">
        <ele>113.30000305176</ele>
        <time>2011-05-08T10:02:57Z</time>
      </trkpt>
      <trkpt lat="44.80294" lon="-0.35183">
        <ele>114</ele>
        <time>2011-05-08T10:03:27Z</time>
      </trkpt>
      <trkpt lat="44.80298" lon="-0.3519">
        <ele>114.40000152588</ele>
        <time>2011-05-08T10:03:31Z</time>
      </trkpt>
      <trkpt lat="44.80303" lon="-0.35196">
        <ele>113.59999847412</ele>
        <time>2011-05-08T10:03:33Z</time>
      </trkpt>
      <trkpt lat="44.80299" lon="-0.35192">
        <ele>114.30000305176</ele>
        <time>2011-05-08T10:03:35Z</time>
      </trkpt>
      <trkpt lat="44.80299" lon="-0.35199">
        <ele>111.30000305176</ele>
        <time>2011-05-08T10:04:55Z</time>
      </trkpt>
      <trkpt lat="44.80297" lon="-0.35205">
        <ele>111.59999847412</ele>
        <time>2011-05-08T10:05:35Z</time>
      </trkpt>
      <trkpt lat="44.80297" lon="-0.35205">
        <ele>111.80000305176</ele>
        <time>2011-05-08T10:07:53Z</time>
      </trkpt>
      <trkpt lat="44.80294" lon="-0.35207">
        <ele>107.69999694824</ele>
        <time>2011-05-08T10:10:30Z</time>
      </trkpt>
      <trkpt lat="44.80293" lon="-0.35206">
        <ele>107.69999694824</ele>
        <time>2011-05-08T10:10:31Z</time>
      </trkpt>
      <trkpt lat="44.80297" lon="-0.35203">
        <ele>111.19999694824</ele>
        <time>2011-05-08T10:10:58Z</time>
      </trkpt>
      <trkpt lat="44.80296" lon="-0.35201">
        <ele>113.5</ele>
        <time>2011-05-08T10:13:29Z</time>
      </trkpt>
      <trkpt lat="44.803" lon="-0.35203">
        <ele>114.40000152588</ele>
        <time>2011-05-08T10:15:01Z</time>
      </trkpt>
      <trkpt lat="44.803" lon="-0.35203">
        <ele>114.5</ele>
        <time>2011-05-08T10:15:02Z</time>
      </trkpt>
      <trkpt lat="44.803" lon="-0.35212">
        <ele>116.69999694824</ele>
        <time>2011-05-08T10:15:15Z</time>
      </trkpt>
      <trkpt lat="44.80299" lon="-0.35221">
        <ele>117.59999847412</ele>
        <time>2011-05-08T10:15:17Z</time>
      </trkpt>
      <trkpt lat="44.803" lon="-0.3523">
        <ele>116.80000305176</ele>
        <time>2011-05-08T10:15:19Z</time>
      </trkpt>
      <trkpt lat="44.80298" lon="-0.35237">
        <ele>115.19999694824</ele>
        <time>2011-05-08T10:15:21Z</time>
      </trkpt>
      <trkpt lat="44.80295" lon="-0.35243">
        <ele>113.80000305176</ele>
        <time>2011-05-08T10:15:24Z</time>
      </trkpt>
      <trkpt lat="44.80295" lon="-0.3525">
        <ele>115.69999694824</ele>
        <time>2011-05-08T10:15:31Z</time>
      </trkpt>
      <trkpt lat="44.80295" lon="-0.35257">
        <ele>118.19999694824</ele>
        <time>2011-05-08T10:15:38Z</time>
      </trkpt>
      <trkpt lat="44.80299" lon="-0.35267">
        <ele>118.40000152588</ele>
        <time>2011-05-08T10:15:40Z</time>
      </trkpt>
      <trkpt lat="44.80302" lon="-0.35276">
        <ele>118.30000305176</ele>
        <time>2011-05-08T10:15:42Z</time>
      </trkpt>
      <trkpt lat="44.80302" lon="-0.35282">
        <ele>118.59999847412</ele>
        <time>2011-05-08T10:15:45Z</time>
      </trkpt>
      <trkpt lat="44.80301" lon="-0.3529">
        <ele>120.30000305176</ele>
        <time>2011-05-08T10:15:53Z</time>
      </trkpt>
      <trkpt lat="44.80296" lon="-0.35294">
        <ele>123.30000305176</ele>
        <time>2011-05-08T10:15:59Z</time>
      </trkpt>
      <trkpt lat="44.80294" lon="-0.353">
        <ele>124.09999847412</ele>
        <time>2011-05-08T10:16:33Z</time>
      </trkpt>
      <trkpt lat="44.80292" lon="-0.35305">
        <ele>123.5</ele>
        <time>2011-05-08T10:16:40Z</time>
      </trkpt>
      <trkpt lat="44.80288" lon="-0.35311">
        <ele>125.59999847412</ele>
        <time>2011-05-08T10:16:52Z</time>
      </trkpt>
      <trkpt lat="44.80287" lon="-0.35318">
        <ele>127.30000305176</ele>
        <time>2011-05-08T10:16:55Z</time>
      </trkpt>
      <trkpt lat="44.80284" lon="-0.35324">
        <ele>127</ele>
        <time>2011-05-08T10:16:57Z</time>
      </trkpt>
      <trkpt lat="44.80282" lon="-0.35332">
        <ele>129.19999694824</ele>
        <time>2011-05-08T10:17:01Z</time>
      </trkpt>
      <trkpt lat="44.80282" lon="-0.3534">
        <ele>132.60000610352</ele>
        <time>2011-05-08T10:17:04Z</time>
      </trkpt>
      <trkpt lat="44.80282" lon="-0.35347">
        <ele>131.39999389648</ele>
        <time>2011-05-08T10:17:07Z</time>
      </trkpt>
      <trkpt lat="44.80282" lon="-0.35355">
        <ele>135.69999694824</ele>
        <time>2011-05-08T10:17:13Z</time>
      </trkpt>
      <trkpt lat="44.80283" lon="-0.35361">
        <ele>134.69999694824</ele>
        <time>2011-05-08T10:17:16Z</time>
      </trkpt>
      <trkpt lat="44.80286" lon="-0.35371">
        <ele>135.5</ele>
        <time>2011-05-08T10:17:18Z</time>
      </trkpt>
      <trkpt lat="44.80287" lon="-0.35378">
        <ele>135.60000610352</ele>
        <time>2011-05-08T10:17:20Z</time>
      </trkpt>
      <trkpt lat="44.80286" lon="-0.35384">
        <ele>135.60000610352</ele>
        <time>2011-05-08T10:17:23Z</time>
      </trkpt>
      <trkpt lat="44.80284" lon="-0.3539">
        <ele>134.5</ele>
        <time>2011-05-08T10:17:27Z</time>
      </trkpt>
      <trkpt lat="44.80278" lon="-0.35393">
        <ele>135.60000610352</ele>
        <time>2011-05-08T10:17:33Z</time>
      </trkpt>
      <trkpt lat="44.80274" lon="-0.35398">
        <ele>135.30000305176</ele>
        <time>2011-05-08T10:17:37Z</time>
      </trkpt>
      <trkpt lat="44.80271" lon="-0.35403">
        <ele>135.60000610352</ele>
        <time>2011-05-08T10:17:42Z</time>
      </trkpt>
      <trkpt lat="44.80267" lon="-0.35409">
        <ele>136.10000610352</ele>
        <time>2011-05-08T10:17:46Z</time>
      </trkpt>
      <trkpt lat="44.80262" lon="-0.35409">
        <ele>135.69999694824</ele>
        <time>2011-05-08T10:17:50Z</time>
      </trkpt>
      <trkpt lat="44.80257" lon="-0.35413">
        <ele>136.60000610352</ele>
        <time>2011-05-08T10:17:53Z</time>
      </trkpt>
      <trkpt lat="44.80253" lon="-0.35417">
        <ele>136.39999389648</ele>
        <time>2011-05-08T10:17:59Z</time>
      </trkpt>
      <trkpt lat="44.8025" lon="-0.35425">
        <ele>138.80000305176</ele>
        <time>2011-05-08T10:18:05Z</time>
      </trkpt>
      <trkpt lat="44.80246" lon="-0.35429">
        <ele>138.80000305176</ele>
        <time>2011-05-08T10:18:10Z</time>
      </trkpt>
      <trkpt lat="44.80243" lon="-0.35436">
        <ele>139.10000610352</ele>
        <time>2011-05-08T10:18:14Z</time>
      </trkpt>
      <trkpt lat="44.80241" lon="-0.35443">
        <ele>141.10000610352</ele>
        <time>2011-05-08T10:18:21Z</time>
      </trkpt>
      <trkpt lat="44.80239" lon="-0.3545">
        <ele>140.89999389648</ele>
        <time>2011-05-08T10:18:25Z</time>
      </trkpt>
      <trkpt lat="44.80235" lon="-0.35452">
        <ele>141.10000610352</ele>
        <time>2011-05-08T10:18:28Z</time>
      </trkpt>
      <trkpt lat="44.80231" lon="-0.35458">
        <ele>140</ele>
        <time>2011-05-08T10:18:31Z</time>
      </trkpt>
      <trkpt lat="44.80228" lon="-0.35464">
        <ele>139.69999694824</ele>
        <time>2011-05-08T10:18:36Z</time>
      </trkpt>
      <trkpt lat="44.80225" lon="-0.35471">
        <ele>138</ele>
        <time>2011-05-08T10:18:41Z</time>
      </trkpt>
      <trkpt lat="44.8022" lon="-0.35475">
        <ele>138.60000610352</ele>
        <time>2011-05-08T10:18:46Z</time>
      </trkpt>
      <trkpt lat="44.80219" lon="-0.35481">
        <ele>138.60000610352</ele>
        <time>2011-05-08T10:18:49Z</time>
      </trkpt>
      <trkpt lat="44.80214" lon="-0.35486">
        <ele>138.80000305176</ele>
        <time>2011-05-08T10:18:54Z</time>
      </trkpt>
      <trkpt lat="44.8021" lon="-0.35489">
        <ele>138.30000305176</ele>
        <time>2011-05-08T10:18:58Z</time>
      </trkpt>
      <trkpt lat="44.80204" lon="-0.35495">
        <ele>136.69999694824</ele>
        <time>2011-05-08T10:19:02Z</time>
      </trkpt>
      <trkpt lat="44.802" lon="-0.35498">
        <ele>136.30000305176</ele>
        <time>2011-05-08T10:19:07Z</time>
      </trkpt>
      <trkpt lat="44.80196" lon="-0.35503">
        <ele>138.39999389648</ele>
        <time>2011-05-08T10:19:11Z</time>
      </trkpt>
      <trkpt lat="44.80194" lon="-0.35509">
        <ele>138.69999694824</ele>
        <time>2011-05-08T10:19:14Z</time>
      </trkpt>
      <trkpt lat="44.80191" lon="-0.35514">
        <ele>138.30000305176</ele>
        <time>2011-05-08T10:19:18Z</time>
      </trkpt>
      <trkpt lat="44.80186" lon="-0.35514">
        <ele>138</ele>
        <time>2011-05-08T10:19:21Z</time>
      </trkpt>
      <trkpt lat="44.80185" lon="-0.35521">
        <ele>138.69999694824</ele>
        <time>2011-05-08T10:19:26Z</time>
      </trkpt>
      <trkpt lat="44.80181" lon="-0.35525">
        <ele>138.60000610352</ele>
        <time>2011-05-08T10:19:32Z</time>
      </trkpt>
      <trkpt lat="44.80176" lon="-0.35526">
        <ele>137.39999389648</ele>
        <time>2011-05-08T10:19:34Z</time>
      </trkpt>
      <trkpt lat="44.80178" lon="-0.35533">
        <ele>136.89999389648</ele>
        <time>2011-05-08T10:19:37Z</time>
      </trkpt>
      <trkpt lat="44.80174" lon="-0.35538">
        <ele>137.89999389648</ele>
        <time>2011-05-08T10:19:41Z</time>
      </trkpt>
      <trkpt lat="44.80171" lon="-0.35544">
        <ele>138.69999694824</ele>
        <time>2011-05-08T10:19:45Z</time>
      </trkpt>
      <trkpt lat="44.80171" lon="-0.35553">
        <ele>138.80000305176</ele>
        <time>2011-05-08T10:19:49Z</time>
      </trkpt>
      <trkpt lat="44.80167" lon="-0.35556">
        <ele>138</ele>
        <time>2011-05-08T10:19:52Z</time>
      </trkpt>
      <trkpt lat="44.80161" lon="-0.35557">
        <ele>137</ele>
        <time>2011-05-08T10:19:55Z</time>
      </trkpt>
      <trkpt lat="44.80158" lon="-0.35563">
        <ele>137.80000305176</ele>
        <time>2011-05-08T10:19:59Z</time>
      </trkpt>
      <trkpt lat="44.80155" lon="-0.35569">
        <ele>137.30000305176</ele>
        <time>2011-05-08T10:20:04Z</time>
      </trkpt>
      <trkpt lat="44.80151" lon="-0.35572">
        <ele>137.80000305176</ele>
        <time>2011-05-08T10:20:09Z</time>
      </trkpt>
      <trkpt lat="44.80146" lon="-0.35577">
        <ele>138.60000610352</ele>
        <time>2011-05-08T10:20:14Z</time>
      </trkpt>
      <trkpt lat="44.80142" lon="-0.35582">
        <ele>137.89999389648</ele>
        <time>2011-05-08T10:20:17Z</time>
      </trkpt>
      <trkpt lat="44.80138" lon="-0.35585">
        <ele>138</ele>
        <time>2011-05-08T10:20:20Z</time>
      </trkpt>
      <trkpt lat="44.80133" lon="-0.35589">
        <ele>139</ele>
        <time>2011-05-08T10:20:24Z</time>
      </trkpt>
      <trkpt lat="44.8013" lon="-0.35594">
        <ele>139.30000305176</ele>
        <time>2011-05-08T10:20:30Z</time>
      </trkpt>
      <trkpt lat="44.80126" lon="-0.35599">
        <ele>140.89999389648</ele>
        <time>2011-05-08T10:20:34Z</time>
      </trkpt>
      <trkpt lat="44.80122" lon="-0.35602">
        <ele>139.5</ele>
        <time>2011-05-08T10:20:38Z</time>
      </trkpt>
      <trkpt lat="44.80117" lon="-0.35604">
        <ele>139.30000305176</ele>
        <time>2011-05-08T10:20:41Z</time>
      </trkpt>
      <trkpt lat="44.80112" lon="-0.35609">
        <ele>140.5</ele>
        <time>2011-05-08T10:20:45Z</time>
      </trkpt>
      <trkpt lat="44.80107" lon="-0.35611">
        <ele>142</ele>
        <time>2011-05-08T10:20:49Z</time>
      </trkpt>
      <trkpt lat="44.80102" lon="-0.35614">
        <ele>141.60000610352</ele>
        <time>2011-05-08T10:20:52Z</time>
      </trkpt>
      <trkpt lat="44.80097" lon="-0.35618">
        <ele>139</ele>
        <time>2011-05-08T10:20:55Z</time>
      </trkpt>
      <trkpt lat="44.80094" lon="-0.35624">
        <ele>139.80000305176</ele>
        <time>2011-05-08T10:21:00Z</time>
      </trkpt>
      <trkpt lat="44.80093" lon="-0.3563">
        <ele>140.80000305176</ele>
        <time>2011-05-08T10:21:06Z</time>
      </trkpt>
      <trkpt lat="44.80088" lon="-0.35634">
        <ele>140.60000610352</ele>
        <time>2011-05-08T10:21:09Z</time>
      </trkpt>
      <trkpt lat="44.80082" lon="-0.35636">
        <ele>141.89999389648</ele>
        <time>2011-05-08T10:21:13Z</time>
      </trkpt>
      <trkpt lat="44.80078" lon="-0.3564">
        <ele>142.19999694824</ele>
        <time>2011-05-08T10:21:15Z</time>
      </trkpt>
      <trkpt lat="44.80076" lon="-0.35646">
        <ele>143</ele>
        <time>2011-05-08T10:21:21Z</time>
      </trkpt>
      <trkpt lat="44.80071" lon="-0.3565">
        <ele>143.89999389648</ele>
        <time>2011-05-08T10:21:25Z</time>
      </trkpt>
      <trkpt lat="44.80068" lon="-0.35654">
        <ele>144.19999694824</ele>
        <time>2011-05-08T10:21:29Z</time>
      </trkpt>
      <trkpt lat="44.80065" lon="-0.35659">
        <ele>144.10000610352</ele>
        <time>2011-05-08T10:21:33Z</time>
      </trkpt>
      <trkpt lat="44.80061" lon="-0.35664">
        <ele>146.5</ele>
        <time>2011-05-08T10:21:38Z</time>
      </trkpt>
      <trkpt lat="44.80056" lon="-0.35668">
        <ele>146.60000610352</ele>
        <time>2011-05-08T10:21:41Z</time>
      </trkpt>
      <trkpt lat="44.80052" lon="-0.35671">
        <ele>145.39999389648</ele>
        <time>2011-05-08T10:21:44Z</time>
      </trkpt>
      <trkpt lat="44.80048" lon="-0.35675">
        <ele>145.5</ele>
        <time>2011-05-08T10:21:48Z</time>
      </trkpt>
      <trkpt lat="44.80043" lon="-0.35678">
        <ele>145.5</ele>
        <time>2011-05-08T10:21:52Z</time>
      </trkpt>
      <trkpt lat="44.80039" lon="-0.35683">
        <ele>147.60000610352</ele>
        <time>2011-05-08T10:21:57Z</time>
      </trkpt>
      <trkpt lat="44.80034" lon="-0.35688">
        <ele>147.39999389648</ele>
        <time>2011-05-08T10:22:04Z</time>
      </trkpt>
      <trkpt lat="44.8003" lon="-0.35693">
        <ele>147.69999694824</ele>
        <time>2011-05-08T10:22:08Z</time>
      </trkpt>
      <trkpt lat="44.80028" lon="-0.35698">
        <ele>148</ele>
        <time>2011-05-08T10:22:14Z</time>
      </trkpt>
      <trkpt lat="44.80022" lon="-0.357">
        <ele>149.19999694824</ele>
        <time>2011-05-08T10:22:18Z</time>
      </trkpt>
      <trkpt lat="44.80021" lon="-0.35706">
        <ele>148.60000610352</ele>
        <time>2011-05-08T10:22:23Z</time>
      </trkpt>
      <trkpt lat="44.80014" lon="-0.3571">
        <ele>148</ele>
        <time>2011-05-08T10:22:26Z</time>
      </trkpt>
      <trkpt lat="44.80008" lon="-0.35711">
        <ele>149.80000305176</ele>
        <time>2011-05-08T10:22:29Z</time>
      </trkpt>
      <trkpt lat="44.80003" lon="-0.35713">
        <ele>149.69999694824</ele>
        <time>2011-05-08T10:22:32Z</time>
      </trkpt>
      <trkpt lat="44.80002" lon="-0.3572">
        <ele>151.80000305176</ele>
        <time>2011-05-08T10:22:36Z</time>
      </trkpt>
      <trkpt lat="44.79999" lon="-0.35726">
        <ele>151.80000305176</ele>
        <time>2011-05-08T10:22:40Z</time>
      </trkpt>
      <trkpt lat="44.79996" lon="-0.3573">
        <ele>150.39999389648</ele>
        <time>2011-05-08T10:22:44Z</time>
      </trkpt>
      <trkpt lat="44.79991" lon="-0.35736">
        <ele>150.80000305176</ele>
        <time>2011-05-08T10:22:49Z</time>
      </trkpt>
      <trkpt lat="44.7999" lon="-0.35743">
        <ele>150.80000305176</ele>
        <time>2011-05-08T10:22:53Z</time>
      </trkpt>
      <trkpt lat="44.79985" lon="-0.35746">
        <ele>151.80000305176</ele>
        <time>2011-05-08T10:22:57Z</time>
      </trkpt>
      <trkpt lat="44.79981" lon="-0.35753">
        <ele>151.30000305176</ele>
        <time>2011-05-08T10:23:01Z</time>
      </trkpt>
      <trkpt lat="44.79978" lon="-0.35758">
        <ele>153.10000610352</ele>
        <time>2011-05-08T10:23:04Z</time>
      </trkpt>
      <trkpt lat="44.79975" lon="-0.35763">
        <ele>154</ele>
        <time>2011-05-08T10:23:08Z</time>
      </trkpt>
      <trkpt lat="44.79971" lon="-0.35767">
        <ele>155.10000610352</ele>
        <time>2011-05-08T10:23:14Z</time>
      </trkpt>
      <trkpt lat="44.79968" lon="-0.35773">
        <ele>155.80000305176</ele>
        <time>2011-05-08T10:23:20Z</time>
      </trkpt>
      <trkpt lat="44.79964" lon="-0.35775">
        <ele>155</ele>
        <time>2011-05-08T10:23:24Z</time>
      </trkpt>
      <trkpt lat="44.79959" lon="-0.35779">
        <ele>154</ele>
        <time>2011-05-08T10:23:27Z</time>
      </trkpt>
      <trkpt lat="44.79953" lon="-0.35781">
        <ele>153.19999694824</ele>
        <time>2011-05-08T10:23:30Z</time>
      </trkpt>
      <trkpt lat="44.79948" lon="-0.35784">
        <ele>151.89999389648</ele>
        <time>2011-05-08T10:23:34Z</time>
      </trkpt>
      <trkpt lat="44.79945" lon="-0.35788">
        <ele>152.10000610352</ele>
        <time>2011-05-08T10:23:37Z</time>
      </trkpt>
      <trkpt lat="44.79939" lon="-0.3579">
        <ele>151.60000610352</ele>
        <time>2011-05-08T10:23:40Z</time>
      </trkpt>
      <trkpt lat="44.79935" lon="-0.35795">
        <ele>153.19999694824</ele>
        <time>2011-05-08T10:23:44Z</time>
      </trkpt>
      <trkpt lat="44.7993" lon="-0.35798">
        <ele>153.30000305176</ele>
        <time>2011-05-08T10:23:49Z</time>
      </trkpt>
      <trkpt lat="44.79926" lon="-0.35804">
        <ele>151</ele>
        <time>2011-05-08T10:23:57Z</time>
      </trkpt>
      <trkpt lat="44.79922" lon="-0.3581">
        <ele>151.60000610352</ele>
        <time>2011-05-08T10:24:03Z</time>
      </trkpt>
      <trkpt lat="44.79917" lon="-0.35814">
        <ele>153.10000610352</ele>
        <time>2011-05-08T10:24:06Z</time>
      </trkpt>
      <trkpt lat="44.79913" lon="-0.3582">
        <ele>154.80000305176</ele>
        <time>2011-05-08T10:24:12Z</time>
      </trkpt>
      <trkpt lat="44.79911" lon="-0.35826">
        <ele>153</ele>
        <time>2011-05-08T10:24:17Z</time>
      </trkpt>
      <trkpt lat="44.7991" lon="-0.35832">
        <ele>152.10000610352</ele>
        <time>2011-05-08T10:24:27Z</time>
      </trkpt>
      <trkpt lat="44.79913" lon="-0.35842">
        <ele>152.39999389648</ele>
        <time>2011-05-08T10:24:34Z</time>
      </trkpt>
      <trkpt lat="44.79915" lon="-0.35849">
        <ele>153.19999694824</ele>
        <time>2011-05-08T10:25:34Z</time>
      </trkpt>
      <trkpt lat="44.7992" lon="-0.35849">
        <ele>152.30000305176</ele>
        <time>2011-05-08T10:26:11Z</time>
      </trkpt>
      <trkpt lat="44.79924" lon="-0.35855">
        <ele>145.80000305176</ele>
        <time>2011-05-08T10:28:17Z</time>
      </trkpt>
      <trkpt lat="44.79929" lon="-0.35866">
        <ele>145.60000610352</ele>
        <time>2011-05-08T10:28:20Z</time>
      </trkpt>
      <trkpt lat="44.79932" lon="-0.35873">
        <ele>144.80000305176</ele>
        <time>2011-05-08T10:28:21Z</time>
      </trkpt>
      <trkpt lat="44.79935" lon="-0.35885">
        <ele>147.10000610352</ele>
        <time>2011-05-08T10:28:23Z</time>
      </trkpt>
      <trkpt lat="44.79938" lon="-0.35891">
        <ele>145.89999389648</ele>
        <time>2011-05-08T10:28:24Z</time>
      </trkpt>
      <trkpt lat="44.79941" lon="-0.35898">
        <ele>146.80000305176</ele>
        <time>2011-05-08T10:28:25Z</time>
      </trkpt>
      <trkpt lat="44.79943" lon="-0.35907">
        <ele>147.69999694824</ele>
        <time>2011-05-08T10:28:27Z</time>
      </trkpt>
      <trkpt lat="44.79942" lon="-0.35916">
        <ele>146.89999389648</ele>
        <time>2011-05-08T10:28:29Z</time>
      </trkpt>
      <trkpt lat="44.79937" lon="-0.35924">
        <ele>147.19999694824</ele>
        <time>2011-05-08T10:28:31Z</time>
      </trkpt>
      <trkpt lat="44.79928" lon="-0.35928">
        <ele>147.80000305176</ele>
        <time>2011-05-08T10:28:33Z</time>
      </trkpt>
      <trkpt lat="44.79923" lon="-0.3593">
        <ele>147.39999389648</ele>
        <time>2011-05-08T10:28:34Z</time>
      </trkpt>
      <trkpt lat="44.79919" lon="-0.35932">
        <ele>146.69999694824</ele>
        <time>2011-05-08T10:28:35Z</time>
      </trkpt>
      <trkpt lat="44.79913" lon="-0.35935">
        <ele>145.60000610352</ele>
        <time>2011-05-08T10:28:36Z</time>
      </trkpt>
      <trkpt lat="44.79909" lon="-0.35936">
        <ele>145.60000610352</ele>
        <time>2011-05-08T10:28:37Z</time>
      </trkpt>
      <trkpt lat="44.79904" lon="-0.35938">
        <ele>145.39999389648</ele>
        <time>2011-05-08T10:28:38Z</time>
      </trkpt>
      <trkpt lat="44.79898" lon="-0.3594">
        <ele>145</ele>
        <time>2011-05-08T10:28:39Z</time>
      </trkpt>
      <trkpt lat="44.79892" lon="-0.35942">
        <ele>145.19999694824</ele>
        <time>2011-05-08T10:28:40Z</time>
      </trkpt>
      <trkpt lat="44.79887" lon="-0.35944">
        <ele>145.5</ele>
        <time>2011-05-08T10:28:41Z</time>
      </trkpt>
      <trkpt lat="44.79882" lon="-0.35946">
        <ele>145.60000610352</ele>
        <time>2011-05-08T10:28:42Z</time>
      </trkpt>
      <trkpt lat="44.79877" lon="-0.35948">
        <ele>145.89999389648</ele>
        <time>2011-05-08T10:28:43Z</time>
      </trkpt>
      <trkpt lat="44.7987" lon="-0.3595">
        <ele>145.89999389648</ele>
        <time>2011-05-08T10:28:44Z</time>
      </trkpt>
      <trkpt lat="44.79865" lon="-0.35952">
        <ele>145.19999694824</ele>
        <time>2011-05-08T10:28:45Z</time>
      </trkpt>
      <trkpt lat="44.7986" lon="-0.35953">
        <ele>144.80000305176</ele>
        <time>2011-05-08T10:28:46Z</time>
      </trkpt>
      <trkpt lat="44.79849" lon="-0.35955">
        <ele>145.19999694824</ele>
        <time>2011-05-08T10:28:48Z</time>
      </trkpt>
      <trkpt lat="44.79844" lon="-0.35957">
        <ele>145.10000610352</ele>
        <time>2011-05-08T10:28:49Z</time>
      </trkpt>
      <trkpt lat="44.79839" lon="-0.35959">
        <ele>144.60000610352</ele>
        <time>2011-05-08T10:28:50Z</time>
      </trkpt>
      <trkpt lat="44.79833" lon="-0.3596">
        <ele>145.39999389648</ele>
        <time>2011-05-08T10:28:51Z</time>
      </trkpt>
      <trkpt lat="44.79827" lon="-0.35961">
        <ele>145.69999694824</ele>
        <time>2011-05-08T10:28:52Z</time>
      </trkpt>
      <trkpt lat="44.79821" lon="-0.35962">
        <ele>144.89999389648</ele>
        <time>2011-05-08T10:28:53Z</time>
      </trkpt>
      <trkpt lat="44.79815" lon="-0.35963">
        <ele>144.5</ele>
        <time>2011-05-08T10:28:54Z</time>
      </trkpt>
      <trkpt lat="44.79808" lon="-0.35964">
        <ele>144.19999694824</ele>
        <time>2011-05-08T10:28:55Z</time>
      </trkpt>
      <trkpt lat="44.79802" lon="-0.35966">
        <ele>144.30000305176</ele>
        <time>2011-05-08T10:28:56Z</time>
      </trkpt>
      <trkpt lat="44.79796" lon="-0.35968">
        <ele>144.89999389648</ele>
        <time>2011-05-08T10:28:57Z</time>
      </trkpt>
      <trkpt lat="44.79791" lon="-0.35969">
        <ele>145.19999694824</ele>
        <time>2011-05-08T10:28:58Z</time>
      </trkpt>
      <trkpt lat="44.79785" lon="-0.35971">
        <ele>144.69999694824</ele>
        <time>2011-05-08T10:28:59Z</time>
      </trkpt>
      <trkpt lat="44.79779" lon="-0.35971">
        <ele>145.10000610352</ele>
        <time>2011-05-08T10:29:00Z</time>
      </trkpt>
      <trkpt lat="44.79775" lon="-0.35973">
        <ele>145.39999389648</ele>
        <time>2011-05-08T10:29:01Z</time>
      </trkpt>
      <trkpt lat="44.79769" lon="-0.35975">
        <ele>146.19999694824</ele>
        <time>2011-05-08T10:29:02Z</time>
      </trkpt>
      <trkpt lat="44.79764" lon="-0.35975">
        <ele>145.5</ele>
        <time>2011-05-08T10:29:03Z</time>
      </trkpt>
      <trkpt lat="44.79758" lon="-0.35976">
        <ele>145.10000610352</ele>
        <time>2011-05-08T10:29:04Z</time>
      </trkpt>
      <trkpt lat="44.79752" lon="-0.35977">
        <ele>144.60000610352</ele>
        <time>2011-05-08T10:29:05Z</time>
      </trkpt>
      <trkpt lat="44.79746" lon="-0.35978">
        <ele>144.89999389648</ele>
        <time>2011-05-08T10:29:06Z</time>
      </trkpt>
      <trkpt lat="44.79739" lon="-0.35979">
        <ele>144.69999694824</ele>
        <time>2011-05-08T10:29:07Z</time>
      </trkpt>
      <trkpt lat="44.79734" lon="-0.35981">
        <ele>144.69999694824</ele>
        <time>2011-05-08T10:29:08Z</time>
      </trkpt>
      <trkpt lat="44.79729" lon="-0.35983">
        <ele>144.5</ele>
        <time>2011-05-08T10:29:09Z</time>
      </trkpt>
      <trkpt lat="44.79722" lon="-0.35985">
        <ele>144.60000610352</ele>
        <time>2011-05-08T10:29:10Z</time>
      </trkpt>
      <trkpt lat="44.79717" lon="-0.35987">
        <ele>145.10000610352</ele>
        <time>2011-05-08T10:29:11Z</time>
      </trkpt>
      <trkpt lat="44.79712" lon="-0.3599">
        <ele>145</ele>
        <time>2011-05-08T10:29:12Z</time>
      </trkpt>
      <trkpt lat="44.79706" lon="-0.35993">
        <ele>145.10000610352</ele>
        <time>2011-05-08T10:29:13Z</time>
      </trkpt>
      <trkpt lat="44.79701" lon="-0.35994">
        <ele>145.69999694824</ele>
        <time>2011-05-08T10:29:14Z</time>
      </trkpt>
      <trkpt lat="44.79696" lon="-0.35998">
        <ele>146</ele>
        <time>2011-05-08T10:29:15Z</time>
      </trkpt>
      <trkpt lat="44.79691" lon="-0.36">
        <ele>145.60000610352</ele>
        <time>2011-05-08T10:29:16Z</time>
      </trkpt>
      <trkpt lat="44.79685" lon="-0.36002">
        <ele>145.30000305176</ele>
        <time>2011-05-08T10:29:17Z</time>
      </trkpt>
      <trkpt lat="44.79679" lon="-0.36004">
        <ele>145.69999694824</ele>
        <time>2011-05-08T10:29:18Z</time>
      </trkpt>
      <trkpt lat="44.79674" lon="-0.36007">
        <ele>145.89999389648</ele>
        <time>2011-05-08T10:29:19Z</time>
      </trkpt>
      <trkpt lat="44.79669" lon="-0.3601">
        <ele>145.80000305176</ele>
        <time>2011-05-08T10:29:20Z</time>
      </trkpt>
      <trkpt lat="44.79664" lon="-0.36012">
        <ele>145.60000610352</ele>
        <time>2011-05-08T10:29:21Z</time>
      </trkpt>
      <trkpt lat="44.79658" lon="-0.36015">
        <ele>146.60000610352</ele>
        <time>2011-05-08T10:29:22Z</time>
      </trkpt>
      <trkpt lat="44.79653" lon="-0.36017">
        <ele>147.10000610352</ele>
        <time>2011-05-08T10:29:23Z</time>
      </trkpt>
      <trkpt lat="44.79647" lon="-0.3602">
        <ele>146.69999694824</ele>
        <time>2011-05-08T10:29:24Z</time>
      </trkpt>
      <trkpt lat="44.79642" lon="-0.36022">
        <ele>146.5</ele>
        <time>2011-05-08T10:29:25Z</time>
      </trkpt>
      <trkpt lat="44.79637" lon="-0.36024">
        <ele>146.60000610352</ele>
        <time>2011-05-08T10:29:26Z</time>
      </trkpt>
      <trkpt lat="44.79632" lon="-0.36025">
        <ele>147.10000610352</ele>
        <time>2011-05-08T10:29:27Z</time>
      </trkpt>
      <trkpt lat="44.79625" lon="-0.36028">
        <ele>146.89999389648</ele>
        <time>2011-05-08T10:29:28Z</time>
      </trkpt>
      <trkpt lat="44.7962" lon="-0.3603">
        <ele>146.80000305176</ele>
        <time>2011-05-08T10:29:29Z</time>
      </trkpt>
      <trkpt lat="44.79615" lon="-0.36031">
        <ele>146.69999694824</ele>
        <time>2011-05-08T10:29:30Z</time>
      </trkpt>
      <trkpt lat="44.7961" lon="-0.36032">
        <ele>146.69999694824</ele>
        <time>2011-05-08T10:29:31Z</time>
      </trkpt>
      <trkpt lat="44.79604" lon="-0.36034">
        <ele>145.89999389648</ele>
        <time>2011-05-08T10:29:32Z</time>
      </trkpt>
      <trkpt lat="44.79598" lon="-0.36036">
        <ele>145.80000305176</ele>
        <time>2011-05-08T10:29:33Z</time>
      </trkpt>
      <trkpt lat="44.79593" lon="-0.36037">
        <ele>146</ele>
        <time>2011-05-08T10:29:34Z</time>
      </trkpt>
      <trkpt lat="44.79587" lon="-0.36039">
        <ele>145.69999694824</ele>
        <time>2011-05-08T10:29:35Z</time>
      </trkpt>
      <trkpt lat="44.79582" lon="-0.36041">
        <ele>146.19999694824</ele>
        <time>2011-05-08T10:29:36Z</time>
      </trkpt>
      <trkpt lat="44.79576" lon="-0.36042">
        <ele>145.39999389648</ele>
        <time>2011-05-08T10:29:37Z</time>
      </trkpt>
      <trkpt lat="44.7957" lon="-0.36042">
        <ele>145.5</ele>
        <time>2011-05-08T10:29:38Z</time>
      </trkpt>
      <trkpt lat="44.79565" lon="-0.36043">
        <ele>145.10000610352</ele>
        <time>2011-05-08T10:29:39Z</time>
      </trkpt>
      <trkpt lat="44.79559" lon="-0.36044">
        <ele>145.10000610352</ele>
        <time>2011-05-08T10:29:40Z</time>
      </trkpt>
      <trkpt lat="44.79552" lon="-0.36044">
        <ele>144.39999389648</ele>
        <time>2011-05-08T10:29:41Z</time>
      </trkpt>
      <trkpt lat="44.79548" lon="-0.36042">
        <ele>144.69999694824</ele>
        <time>2011-05-08T10:29:42Z</time>
      </trkpt>
      <trkpt lat="44.79543" lon="-0.36044">
        <ele>144.69999694824</ele>
        <time>2011-05-08T10:29:43Z</time>
      </trkpt>
      <trkpt lat="44.79538" lon="-0.36044">
        <ele>144.39999389648</ele>
        <time>2011-05-08T10:29:44Z</time>
      </trkpt>
      <trkpt lat="44.79532" lon="-0.36044">
        <ele>144.60000610352</ele>
        <time>2011-05-08T10:29:45Z</time>
      </trkpt>
      <trkpt lat="44.79517" lon="-0.36044">
        <ele>144.39999389648</ele>
        <time>2011-05-08T10:29:48Z</time>
      </trkpt>
      <trkpt lat="44.79507" lon="-0.36046">
        <ele>145.69999694824</ele>
        <time>2011-05-08T10:29:50Z</time>
      </trkpt>
      <trkpt lat="44.79497" lon="-0.36046">
        <ele>145.39999389648</ele>
        <time>2011-05-08T10:29:52Z</time>
      </trkpt>
      <trkpt lat="44.79492" lon="-0.36046">
        <ele>145.5</ele>
        <time>2011-05-08T10:29:53Z</time>
      </trkpt>
      <trkpt lat="44.79486" lon="-0.36046">
        <ele>146.19999694824</ele>
        <time>2011-05-08T10:29:54Z</time>
      </trkpt>
      <trkpt lat="44.79481" lon="-0.36046">
        <ele>146.39999389648</ele>
        <time>2011-05-08T10:29:55Z</time>
      </trkpt>
      <trkpt lat="44.79476" lon="-0.36047">
        <ele>146.5</ele>
        <time>2011-05-08T10:29:56Z</time>
      </trkpt>
      <trkpt lat="44.7947" lon="-0.36048">
        <ele>146.30000305176</ele>
        <time>2011-05-08T10:29:57Z</time>
      </trkpt>
      <trkpt lat="44.79465" lon="-0.36048">
        <ele>146.69999694824</ele>
        <time>2011-05-08T10:29:58Z</time>
      </trkpt>
      <trkpt lat="44.7946" lon="-0.36047">
        <ele>146.89999389648</ele>
        <time>2011-05-08T10:29:59Z</time>
      </trkpt>
      <trkpt lat="44.79455" lon="-0.36046">
        <ele>146.89999389648</ele>
        <time>2011-05-08T10:30:00Z</time>
      </trkpt>
      <trkpt lat="44.79449" lon="-0.36046">
        <ele>146.30000305176</ele>
        <time>2011-05-08T10:30:01Z</time>
      </trkpt>
      <trkpt lat="44.79444" lon="-0.36045">
        <ele>146.89999389648</ele>
        <time>2011-05-08T10:30:02Z</time>
      </trkpt>
      <trkpt lat="44.79439" lon="-0.36044">
        <ele>147.60000610352</ele>
        <time>2011-05-08T10:30:03Z</time>
      </trkpt>
      <trkpt lat="44.79435" lon="-0.36044">
        <ele>147.89999389648</ele>
        <time>2011-05-08T10:30:04Z</time>
      </trkpt>
      <trkpt lat="44.7943" lon="-0.36042">
        <ele>147.60000610352</ele>
        <time>2011-05-08T10:30:05Z</time>
      </trkpt>
      <trkpt lat="44.79426" lon="-0.36041">
        <ele>147.60000610352</ele>
        <time>2011-05-08T10:30:06Z</time>
      </trkpt>
      <trkpt lat="44.79417" lon="-0.3604">
        <ele>148.19999694824</ele>
        <time>2011-05-08T10:30:08Z</time>
      </trkpt>
      <trkpt lat="44.79409" lon="-0.36038">
        <ele>148.10000610352</ele>
        <time>2011-05-08T10:30:10Z</time>
      </trkpt>
      <trkpt lat="44.79404" lon="-0.36036">
        <ele>148.19999694824</ele>
        <time>2011-05-08T10:30:11Z</time>
      </trkpt>
      <trkpt lat="44.79397" lon="-0.36032">
        <ele>148.89999389648</ele>
        <time>2011-05-08T10:30:13Z</time>
      </trkpt>
      <trkpt lat="44.79393" lon="-0.36027">
        <ele>149.89999389648</ele>
        <time>2011-05-08T10:30:15Z</time>
      </trkpt>
      <trkpt lat="44.7939" lon="-0.36015">
        <ele>149.69999694824</ele>
        <time>2011-05-08T10:30:17Z</time>
      </trkpt>
      <trkpt lat="44.7939" lon="-0.36008">
        <ele>149.69999694824</ele>
        <time>2011-05-08T10:30:18Z</time>
      </trkpt>
      <trkpt lat="44.79391" lon="-0.35997">
        <ele>149.5</ele>
        <time>2011-05-08T10:30:20Z</time>
      </trkpt>
      <trkpt lat="44.79394" lon="-0.35985">
        <ele>149.5</ele>
        <time>2011-05-08T10:30:22Z</time>
      </trkpt>
      <trkpt lat="44.79396" lon="-0.35979">
        <ele>149.69999694824</ele>
        <time>2011-05-08T10:30:23Z</time>
      </trkpt>
      <trkpt lat="44.79398" lon="-0.35966">
        <ele>149.5</ele>
        <time>2011-05-08T10:30:25Z</time>
      </trkpt>
      <trkpt lat="44.794" lon="-0.35953">
        <ele>148.89999389648</ele>
        <time>2011-05-08T10:30:27Z</time>
      </trkpt>
      <trkpt lat="44.79401" lon="-0.35946">
        <ele>148.89999389648</ele>
        <time>2011-05-08T10:30:28Z</time>
      </trkpt>
      <trkpt lat="44.79403" lon="-0.35939">
        <ele>148.39999389648</ele>
        <time>2011-05-08T10:30:29Z</time>
      </trkpt>
      <trkpt lat="44.79404" lon="-0.35932">
        <ele>148.60000610352</ele>
        <time>2011-05-08T10:30:30Z</time>
      </trkpt>
      <trkpt lat="44.79406" lon="-0.35925">
        <ele>148.5</ele>
        <time>2011-05-08T10:30:31Z</time>
      </trkpt>
      <trkpt lat="44.79408" lon="-0.35917">
        <ele>148.5</ele>
        <time>2011-05-08T10:30:32Z</time>
      </trkpt>
      <trkpt lat="44.79409" lon="-0.35908">
        <ele>148</ele>
        <time>2011-05-08T10:30:33Z</time>
      </trkpt>
      <trkpt lat="44.79411" lon="-0.35899">
        <ele>148.39999389648</ele>
        <time>2011-05-08T10:30:34Z</time>
      </trkpt>
      <trkpt lat="44.79412" lon="-0.3589">
        <ele>148.5</ele>
        <time>2011-05-08T10:30:35Z</time>
      </trkpt>
      <trkpt lat="44.79413" lon="-0.35883">
        <ele>148.80000305176</ele>
        <time>2011-05-08T10:30:36Z</time>
      </trkpt>
      <trkpt lat="44.79414" lon="-0.35874">
        <ele>149</ele>
        <time>2011-05-08T10:30:37Z</time>
      </trkpt>
      <trkpt lat="44.79416" lon="-0.35865">
        <ele>149.10000610352</ele>
        <time>2011-05-08T10:30:38Z</time>
      </trkpt>
      <trkpt lat="44.79418" lon="-0.35855">
        <ele>148.89999389648</ele>
        <time>2011-05-08T10:30:39Z</time>
      </trkpt>
      <trkpt lat="44.7942" lon="-0.35846">
        <ele>149.19999694824</ele>
        <time>2011-05-08T10:30:40Z</time>
      </trkpt>
      <trkpt lat="44.79422" lon="-0.35837">
        <ele>148.69999694824</ele>
        <time>2011-05-08T10:30:41Z</time>
      </trkpt>
      <trkpt lat="44.79423" lon="-0.35829">
        <ele>148.89999389648</ele>
        <time>2011-05-08T10:30:42Z</time>
      </trkpt>
      <trkpt lat="44.79425" lon="-0.35818">
        <ele>148.30000305176</ele>
        <time>2011-05-08T10:30:43Z</time>
      </trkpt>
      <trkpt lat="44.79426" lon="-0.35808">
        <ele>147.80000305176</ele>
        <time>2011-05-08T10:30:44Z</time>
      </trkpt>
      <trkpt lat="44.79428" lon="-0.35798">
        <ele>148.30000305176</ele>
        <time>2011-05-08T10:30:45Z</time>
      </trkpt>
      <trkpt lat="44.7943" lon="-0.35788">
        <ele>147.30000305176</ele>
        <time>2011-05-08T10:30:46Z</time>
      </trkpt>
      <trkpt lat="44.79436" lon="-0.35769">
        <ele>146.30000305176</ele>
        <time>2011-05-08T10:30:48Z</time>
      </trkpt>
      <trkpt lat="44.79438" lon="-0.3576">
        <ele>145.89999389648</ele>
        <time>2011-05-08T10:30:49Z</time>
      </trkpt>
      <trkpt lat="44.79439" lon="-0.3575">
        <ele>147.19999694824</ele>
        <time>2011-05-08T10:30:50Z</time>
      </trkpt>
      <trkpt lat="44.79442" lon="-0.3574">
        <ele>146.80000305176</ele>
        <time>2011-05-08T10:30:51Z</time>
      </trkpt>
      <trkpt lat="44.79445" lon="-0.3573">
        <ele>146.10000610352</ele>
        <time>2011-05-08T10:30:52Z</time>
      </trkpt>
      <trkpt lat="44.79447" lon="-0.35722">
        <ele>146.39999389648</ele>
        <time>2011-05-08T10:30:53Z</time>
      </trkpt>
      <trkpt lat="44.7945" lon="-0.35712">
        <ele>146.39999389648</ele>
        <time>2011-05-08T10:30:54Z</time>
      </trkpt>
      <trkpt lat="44.79453" lon="-0.357">
        <ele>146</ele>
        <time>2011-05-08T10:30:55Z</time>
      </trkpt>
      <trkpt lat="44.79456" lon="-0.35689">
        <ele>145.89999389648</ele>
        <time>2011-05-08T10:30:56Z</time>
      </trkpt>
      <trkpt lat="44.79458" lon="-0.35678">
        <ele>144.89999389648</ele>
        <time>2011-05-08T10:30:57Z</time>
      </trkpt>
      <trkpt lat="44.79461" lon="-0.35669">
        <ele>145.69999694824</ele>
        <time>2011-05-08T10:30:58Z</time>
      </trkpt>
      <trkpt lat="44.79463" lon="-0.3566">
        <ele>145.80000305176</ele>
        <time>2011-05-08T10:30:59Z</time>
      </trkpt>
      <trkpt lat="44.79465" lon="-0.35651">
        <ele>146.10000610352</ele>
        <time>2011-05-08T10:31:00Z</time>
      </trkpt>
      <trkpt lat="44.79467" lon="-0.35641">
        <ele>146</ele>
        <time>2011-05-08T10:31:01Z</time>
      </trkpt>
      <trkpt lat="44.7947" lon="-0.35632">
        <ele>146.39999389648</ele>
        <time>2011-05-08T10:31:02Z</time>
      </trkpt>
      <trkpt lat="44.79471" lon="-0.35621">
        <ele>146.80000305176</ele>
        <time>2011-05-08T10:31:03Z</time>
      </trkpt>
      <trkpt lat="44.79471" lon="-0.35611">
        <ele>146.39999389648</ele>
        <time>2011-05-08T10:31:04Z</time>
      </trkpt>
      <trkpt lat="44.79473" lon="-0.35601">
        <ele>146.19999694824</ele>
        <time>2011-05-08T10:31:05Z</time>
      </trkpt>
      <trkpt lat="44.79473" lon="-0.35591">
        <ele>146.19999694824</ele>
        <time>2011-05-08T10:31:06Z</time>
      </trkpt>
      <trkpt lat="44.79474" lon="-0.35581">
        <ele>145.80000305176</ele>
        <time>2011-05-08T10:31:07Z</time>
      </trkpt>
      <trkpt lat="44.79474" lon="-0.35572">
        <ele>146.19999694824</ele>
        <time>2011-05-08T10:31:08Z</time>
      </trkpt>
      <trkpt lat="44.79475" lon="-0.35561">
        <ele>146</ele>
        <time>2011-05-08T10:31:09Z</time>
      </trkpt>
      <trkpt lat="44.79476" lon="-0.35552">
        <ele>146.30000305176</ele>
        <time>2011-05-08T10:31:10Z</time>
      </trkpt>
      <trkpt lat="44.79477" lon="-0.35543">
        <ele>146.5</ele>
        <time>2011-05-08T10:31:11Z</time>
      </trkpt>
      <trkpt lat="44.79477" lon="-0.35533">
        <ele>146.60000610352</ele>
        <time>2011-05-08T10:31:12Z</time>
      </trkpt>
      <trkpt lat="44.79477" lon="-0.35523">
        <ele>145.89999389648</ele>
        <time>2011-05-08T10:31:13Z</time>
      </trkpt>
      <trkpt lat="44.79478" lon="-0.35514">
        <ele>146.80000305176</ele>
        <time>2011-05-08T10:31:14Z</time>
      </trkpt>
      <trkpt lat="44.79478" lon="-0.35503">
        <ele>146.60000610352</ele>
        <time>2011-05-08T10:31:15Z</time>
      </trkpt>
      <trkpt lat="44.79479" lon="-0.35494">
        <ele>145.39999389648</ele>
        <time>2011-05-08T10:31:16Z</time>
      </trkpt>
      <trkpt lat="44.79479" lon="-0.35484">
        <ele>145.60000610352</ele>
        <time>2011-05-08T10:31:17Z</time>
      </trkpt>
      <trkpt lat="44.79479" lon="-0.35476">
        <ele>145.39999389648</ele>
        <time>2011-05-08T10:31:18Z</time>
      </trkpt>
      <trkpt lat="44.7948" lon="-0.35468">
        <ele>145</ele>
        <time>2011-05-08T10:31:19Z</time>
      </trkpt>
      <trkpt lat="44.7948" lon="-0.35461">
        <ele>145.30000305176</ele>
        <time>2011-05-08T10:31:20Z</time>
      </trkpt>
      <trkpt lat="44.79479" lon="-0.35454">
        <ele>145.10000610352</ele>
        <time>2011-05-08T10:31:21Z</time>
      </trkpt>
      <trkpt lat="44.79475" lon="-0.35449">
        <ele>145.69999694824</ele>
        <time>2011-05-08T10:31:22Z</time>
      </trkpt>
      <trkpt lat="44.79471" lon="-0.35449">
        <ele>145.69999694824</ele>
        <time>2011-05-08T10:31:23Z</time>
      </trkpt>
      <trkpt lat="44.79461" lon="-0.35453">
        <ele>146.19999694824</ele>
        <time>2011-05-08T10:31:25Z</time>
      </trkpt>
      <trkpt lat="44.79452" lon="-0.35457">
        <ele>146.39999389648</ele>
        <time>2011-05-08T10:31:27Z</time>
      </trkpt>
      <trkpt lat="44.79448" lon="-0.3546">
        <ele>146.30000305176</ele>
        <time>2011-05-08T10:31:28Z</time>
      </trkpt>
      <trkpt lat="44.79442" lon="-0.35462">
        <ele>146.60000610352</ele>
        <time>2011-05-08T10:31:29Z</time>
      </trkpt>
      <trkpt lat="44.79438" lon="-0.35465">
        <ele>146.80000305176</ele>
        <time>2011-05-08T10:31:30Z</time>
      </trkpt>
      <trkpt lat="44.79433" lon="-0.35466">
        <ele>146.69999694824</ele>
        <time>2011-05-08T10:31:31Z</time>
      </trkpt>
      <trkpt lat="44.79427" lon="-0.35468">
        <ele>147.19999694824</ele>
        <time>2011-05-08T10:31:32Z</time>
      </trkpt>
      <trkpt lat="44.79421" lon="-0.35469">
        <ele>147.89999389648</ele>
        <time>2011-05-08T10:31:33Z</time>
      </trkpt>
      <trkpt lat="44.79416" lon="-0.35471">
        <ele>148.30000305176</ele>
        <time>2011-05-08T10:31:34Z</time>
      </trkpt>
      <trkpt lat="44.7941" lon="-0.35472">
        <ele>147.39999389648</ele>
        <time>2011-05-08T10:31:35Z</time>
      </trkpt>
      <trkpt lat="44.79403" lon="-0.35475">
        <ele>147.19999694824</ele>
        <time>2011-05-08T10:31:36Z</time>
      </trkpt>
      <trkpt lat="44.79398" lon="-0.35479">
        <ele>147.69999694824</ele>
        <time>2011-05-08T10:31:37Z</time>
      </trkpt>
      <trkpt lat="44.79393" lon="-0.35482">
        <ele>147.69999694824</ele>
        <time>2011-05-08T10:31:38Z</time>
      </trkpt>
      <trkpt lat="44.79387" lon="-0.35484">
        <ele>147.89999389648</ele>
        <time>2011-05-08T10:31:39Z</time>
      </trkpt>
      <trkpt lat="44.79382" lon="-0.35486">
        <ele>147.60000610352</ele>
        <time>2011-05-08T10:31:40Z</time>
      </trkpt>
      <trkpt lat="44.79376" lon="-0.35489">
        <ele>148</ele>
        <time>2011-05-08T10:31:41Z</time>
      </trkpt>
      <trkpt lat="44.7937" lon="-0.35492">
        <ele>148</ele>
        <time>2011-05-08T10:31:42Z</time>
      </trkpt>
      <trkpt lat="44.79364" lon="-0.35493">
        <ele>147.39999389648</ele>
        <time>2011-05-08T10:31:43Z</time>
      </trkpt>
      <trkpt lat="44.79357" lon="-0.35494">
        <ele>147.10000610352</ele>
        <time>2011-05-08T10:31:44Z</time>
      </trkpt>
      <trkpt lat="44.79348" lon="-0.35498">
        <ele>147.19999694824</ele>
        <time>2011-05-08T10:31:46Z</time>
      </trkpt>
      <trkpt lat="44.79336" lon="-0.35503">
        <ele>147.10000610352</ele>
        <time>2011-05-08T10:31:48Z</time>
      </trkpt>
      <trkpt lat="44.79329" lon="-0.35505">
        <ele>146.80000305176</ele>
        <time>2011-05-08T10:31:49Z</time>
      </trkpt>
      <trkpt lat="44.79322" lon="-0.35506">
        <ele>146.89999389648</ele>
        <time>2011-05-08T10:31:50Z</time>
      </trkpt>
      <trkpt lat="44.79317" lon="-0.35509">
        <ele>147.39999389648</ele>
        <time>2011-05-08T10:31:51Z</time>
      </trkpt>
      <trkpt lat="44.79311" lon="-0.35512">
        <ele>147.69999694824</ele>
        <time>2011-05-08T10:31:52Z</time>
      </trkpt>
      <trkpt lat="44.79305" lon="-0.35513">
        <ele>149.19999694824</ele>
        <time>2011-05-08T10:31:53Z</time>
      </trkpt>
      <trkpt lat="44.79298" lon="-0.35515">
        <ele>149.39999389648</ele>
        <time>2011-05-08T10:31:54Z</time>
      </trkpt>
      <trkpt lat="44.79292" lon="-0.35517">
        <ele>149.80000305176</ele>
        <time>2011-05-08T10:31:55Z</time>
      </trkpt>
      <trkpt lat="44.79287" lon="-0.3552">
        <ele>149.69999694824</ele>
        <time>2011-05-08T10:31:56Z</time>
      </trkpt>
      <trkpt lat="44.79281" lon="-0.35521">
        <ele>149.39999389648</ele>
        <time>2011-05-08T10:31:57Z</time>
      </trkpt>
      <trkpt lat="44.79276" lon="-0.35524">
        <ele>148.89999389648</ele>
        <time>2011-05-08T10:31:58Z</time>
      </trkpt>
      <trkpt lat="44.79269" lon="-0.35526">
        <ele>148.80000305176</ele>
        <time>2011-05-08T10:31:59Z</time>
      </trkpt>
      <trkpt lat="44.79264" lon="-0.35528">
        <ele>147.69999694824</ele>
        <time>2011-05-08T10:32:00Z</time>
      </trkpt>
      <trkpt lat="44.79258" lon="-0.3553">
        <ele>147.60000610352</ele>
        <time>2011-05-08T10:32:01Z</time>
      </trkpt>
      <trkpt lat="44.79253" lon="-0.35532">
        <ele>147.60000610352</ele>
        <time>2011-05-08T10:32:02Z</time>
      </trkpt>
      <trkpt lat="44.79247" lon="-0.35534">
        <ele>147.69999694824</ele>
        <time>2011-05-08T10:32:03Z</time>
      </trkpt>
      <trkpt lat="44.79241" lon="-0.35535">
        <ele>147.69999694824</ele>
        <time>2011-05-08T10:32:04Z</time>
      </trkpt>
      <trkpt lat="44.79235" lon="-0.35538">
        <ele>148.10000610352</ele>
        <time>2011-05-08T10:32:05Z</time>
      </trkpt>
      <trkpt lat="44.7923" lon="-0.3554">
        <ele>148.69999694824</ele>
        <time>2011-05-08T10:32:06Z</time>
      </trkpt>
      <trkpt lat="44.79223" lon="-0.35541">
        <ele>148.19999694824</ele>
        <time>2011-05-08T10:32:07Z</time>
      </trkpt>
      <trkpt lat="44.79217" lon="-0.35543">
        <ele>149</ele>
        <time>2011-05-08T10:32:08Z</time>
      </trkpt>
      <trkpt lat="44.79211" lon="-0.35546">
        <ele>148.30000305176</ele>
        <time>2011-05-08T10:32:09Z</time>
      </trkpt>
      <trkpt lat="44.79205" lon="-0.35547">
        <ele>147.5</ele>
        <time>2011-05-08T10:32:10Z</time>
      </trkpt>
      <trkpt lat="44.792" lon="-0.35548">
        <ele>148</ele>
        <time>2011-05-08T10:32:11Z</time>
      </trkpt>
      <trkpt lat="44.79194" lon="-0.35549">
        <ele>147.89999389648</ele>
        <time>2011-05-08T10:32:12Z</time>
      </trkpt>
      <trkpt lat="44.79188" lon="-0.3555">
        <ele>147.89999389648</ele>
        <time>2011-05-08T10:32:13Z</time>
      </trkpt>
      <trkpt lat="44.79181" lon="-0.35551">
        <ele>147.69999694824</ele>
        <time>2011-05-08T10:32:14Z</time>
      </trkpt>
      <trkpt lat="44.79175" lon="-0.35552">
        <ele>147.69999694824</ele>
        <time>2011-05-08T10:32:15Z</time>
      </trkpt>
      <trkpt lat="44.7917" lon="-0.35554">
        <ele>148.10000610352</ele>
        <time>2011-05-08T10:32:16Z</time>
      </trkpt>
      <trkpt lat="44.79164" lon="-0.35554">
        <ele>148.30000305176</ele>
        <time>2011-05-08T10:32:17Z</time>
      </trkpt>
      <trkpt lat="44.79157" lon="-0.35555">
        <ele>148.39999389648</ele>
        <time>2011-05-08T10:32:18Z</time>
      </trkpt>
      <trkpt lat="44.7915" lon="-0.35555">
        <ele>148.89999389648</ele>
        <time>2011-05-08T10:32:19Z</time>
      </trkpt>
      <trkpt lat="44.79144" lon="-0.35555">
        <ele>149.19999694824</ele>
        <time>2011-05-08T10:32:20Z</time>
      </trkpt>
      <trkpt lat="44.79138" lon="-0.35554">
        <ele>149.10000610352</ele>
        <time>2011-05-08T10:32:21Z</time>
      </trkpt>
      <trkpt lat="44.7913" lon="-0.35554">
        <ele>149.39999389648</ele>
        <time>2011-05-08T10:32:22Z</time>
      </trkpt>
      <trkpt lat="44.79124" lon="-0.35556">
        <ele>149.10000610352</ele>
        <time>2011-05-08T10:32:23Z</time>
      </trkpt>
      <trkpt lat="44.79117" lon="-0.35556">
        <ele>148.10000610352</ele>
        <time>2011-05-08T10:32:24Z</time>
      </trkpt>
      <trkpt lat="44.79112" lon="-0.35557">
        <ele>148.10000610352</ele>
        <time>2011-05-08T10:32:25Z</time>
      </trkpt>
      <trkpt lat="44.79106" lon="-0.35558">
        <ele>147.89999389648</ele>
        <time>2011-05-08T10:32:26Z</time>
      </trkpt>
      <trkpt lat="44.791" lon="-0.35559">
        <ele>147.89999389648</ele>
        <time>2011-05-08T10:32:27Z</time>
      </trkpt>
      <trkpt lat="44.79093" lon="-0.3556">
        <ele>147</ele>
        <time>2011-05-08T10:32:28Z</time>
      </trkpt>
      <trkpt lat="44.79088" lon="-0.35562">
        <ele>147.39999389648</ele>
        <time>2011-05-08T10:32:29Z</time>
      </trkpt>
      <trkpt lat="44.79082" lon="-0.35563">
        <ele>147.19999694824</ele>
        <time>2011-05-08T10:32:30Z</time>
      </trkpt>
      <trkpt lat="44.79077" lon="-0.35564">
        <ele>147.19999694824</ele>
        <time>2011-05-08T10:32:31Z</time>
      </trkpt>
      <trkpt lat="44.79072" lon="-0.35565">
        <ele>147.5</ele>
        <time>2011-05-08T10:32:32Z</time>
      </trkpt>
      <trkpt lat="44.79066" lon="-0.35565">
        <ele>147.19999694824</ele>
        <time>2011-05-08T10:32:33Z</time>
      </trkpt>
      <trkpt lat="44.79061" lon="-0.35566">
        <ele>146.80000305176</ele>
        <time>2011-05-08T10:32:34Z</time>
      </trkpt>
      <trkpt lat="44.79056" lon="-0.35568">
        <ele>146.39999389648</ele>
        <time>2011-05-08T10:32:35Z</time>
      </trkpt>
      <trkpt lat="44.79049" lon="-0.35563">
        <ele>146.69999694824</ele>
        <time>2011-05-08T10:32:37Z</time>
      </trkpt>
      <trkpt lat="44.79042" lon="-0.35554">
        <ele>146.80000305176</ele>
        <time>2011-05-08T10:32:39Z</time>
      </trkpt>
      <trkpt lat="44.79036" lon="-0.35552">
        <ele>146.69999694824</ele>
        <time>2011-05-08T10:32:41Z</time>
      </trkpt>
      <trkpt lat="44.79029" lon="-0.35555">
        <ele>146.80000305176</ele>
        <time>2011-05-08T10:32:43Z</time>
      </trkpt>
      <trkpt lat="44.79022" lon="-0.35556">
        <ele>148</ele>
        <time>2011-05-08T10:32:45Z</time>
      </trkpt>
      <trkpt lat="44.79011" lon="-0.35551">
        <ele>148.39999389648</ele>
        <time>2011-05-08T10:32:48Z</time>
      </trkpt>
      <trkpt lat="44.79006" lon="-0.35554">
        <ele>149.10000610352</ele>
        <time>2011-05-08T10:32:50Z</time>
      </trkpt>
      <trkpt lat="44.79001" lon="-0.35557">
        <ele>149.19999694824</ele>
        <time>2011-05-08T10:32:51Z</time>
      </trkpt>
      <trkpt lat="44.78996" lon="-0.35556">
        <ele>149.10000610352</ele>
        <time>2011-05-08T10:32:52Z</time>
      </trkpt>
      <trkpt lat="44.78987" lon="-0.35552">
        <ele>149</ele>
        <time>2011-05-08T10:32:54Z</time>
      </trkpt>
      <trkpt lat="44.78982" lon="-0.35549">
        <ele>148.69999694824</ele>
        <time>2011-05-08T10:32:55Z</time>
      </trkpt>
      <trkpt lat="44.78977" lon="-0.35546">
        <ele>148.60000610352</ele>
        <time>2011-05-08T10:32:56Z</time>
      </trkpt>
      <trkpt lat="44.78973" lon="-0.35542">
        <ele>148.60000610352</ele>
        <time>2011-05-08T10:32:57Z</time>
      </trkpt>
      <trkpt lat="44.78969" lon="-0.35537">
        <ele>148.39999389648</ele>
        <time>2011-05-08T10:32:58Z</time>
      </trkpt>
      <trkpt lat="44.78963" lon="-0.3553">
        <ele>147.60000610352</ele>
        <time>2011-05-08T10:32:59Z</time>
      </trkpt>
      <trkpt lat="44.7896" lon="-0.35522">
        <ele>147.60000610352</ele>
        <time>2011-05-08T10:33:00Z</time>
      </trkpt>
      <trkpt lat="44.78956" lon="-0.35511">
        <ele>147</ele>
        <time>2011-05-08T10:33:02Z</time>
      </trkpt>
      <trkpt lat="44.7895" lon="-0.35501">
        <ele>147.30000305176</ele>
        <time>2011-05-08T10:33:04Z</time>
      </trkpt>
      <trkpt lat="44.78947" lon="-0.35494">
        <ele>147.5</ele>
        <time>2011-05-08T10:33:05Z</time>
      </trkpt>
      <trkpt lat="44.78944" lon="-0.35482">
        <ele>147.89999389648</ele>
        <time>2011-05-08T10:33:07Z</time>
      </trkpt>
      <trkpt lat="44.78939" lon="-0.35474">
        <ele>147.89999389648</ele>
        <time>2011-05-08T10:33:09Z</time>
      </trkpt>
      <trkpt lat="44.78936" lon="-0.35468">
        <ele>148.19999694824</ele>
        <time>2011-05-08T10:33:10Z</time>
      </trkpt>
      <trkpt lat="44.78934" lon="-0.35462">
        <ele>148</ele>
        <time>2011-05-08T10:33:11Z</time>
      </trkpt>
      <trkpt lat="44.78929" lon="-0.35451">
        <ele>148.30000305176</ele>
        <time>2011-05-08T10:33:13Z</time>
      </trkpt>
      <trkpt lat="44.78925" lon="-0.35439">
        <ele>149.39999389648</ele>
        <time>2011-05-08T10:33:15Z</time>
      </trkpt>
      <trkpt lat="44.78924" lon="-0.35427">
        <ele>149.30000305176</ele>
        <time>2011-05-08T10:33:17Z</time>
      </trkpt>
      <trkpt lat="44.78921" lon="-0.3542">
        <ele>148.39999389648</ele>
        <time>2011-05-08T10:33:19Z</time>
      </trkpt>
      <trkpt lat="44.78915" lon="-0.35425">
        <ele>144.60000610352</ele>
        <time>2011-05-08T10:33:24Z</time>
      </trkpt>
      <trkpt lat="44.7891" lon="-0.35433">
        <ele>142.39999389648</ele>
        <time>2011-05-08T10:33:26Z</time>
      </trkpt>
      <trkpt lat="44.78903" lon="-0.35431">
        <ele>142.39999389648</ele>
        <time>2011-05-08T10:33:28Z</time>
      </trkpt>
      <trkpt lat="44.78899" lon="-0.35427">
        <ele>142.89999389648</ele>
        <time>2011-05-08T10:33:29Z</time>
      </trkpt>
      <trkpt lat="44.7889" lon="-0.35421">
        <ele>143</ele>
        <time>2011-05-08T10:33:31Z</time>
      </trkpt>
      <trkpt lat="44.78885" lon="-0.35417">
        <ele>143.19999694824</ele>
        <time>2011-05-08T10:33:32Z</time>
      </trkpt>
      <trkpt lat="44.7888" lon="-0.35413">
        <ele>143.30000305176</ele>
        <time>2011-05-08T10:33:33Z</time>
      </trkpt>
      <trkpt lat="44.78875" lon="-0.3541">
        <ele>142.5</ele>
        <time>2011-05-08T10:33:34Z</time>
      </trkpt>
      <trkpt lat="44.78868" lon="-0.35402">
        <ele>143.39999389648</ele>
        <time>2011-05-08T10:33:36Z</time>
      </trkpt>
      <trkpt lat="44.78863" lon="-0.35397">
        <ele>143.10000610352</ele>
        <time>2011-05-08T10:33:37Z</time>
      </trkpt>
      <trkpt lat="44.7886" lon="-0.35391">
        <ele>143.39999389648</ele>
        <time>2011-05-08T10:33:38Z</time>
      </trkpt>
      <trkpt lat="44.78855" lon="-0.35386">
        <ele>143.60000610352</ele>
        <time>2011-05-08T10:33:39Z</time>
      </trkpt>
      <trkpt lat="44.78851" lon="-0.3538">
        <ele>143.69999694824</ele>
        <time>2011-05-08T10:33:40Z</time>
      </trkpt>
      <trkpt lat="44.78848" lon="-0.35374">
        <ele>143.80000305176</ele>
        <time>2011-05-08T10:33:41Z</time>
      </trkpt>
      <trkpt lat="44.78846" lon="-0.35366">
        <ele>144.60000610352</ele>
        <time>2011-05-08T10:33:42Z</time>
      </trkpt>
      <trkpt lat="44.78842" lon="-0.35358">
        <ele>144.5</ele>
        <time>2011-05-08T10:33:43Z</time>
      </trkpt>
      <trkpt lat="44.78838" lon="-0.35349">
        <ele>145</ele>
        <time>2011-05-08T10:33:44Z</time>
      </trkpt>
      <trkpt lat="44.78834" lon="-0.3534">
        <ele>144.80000305176</ele>
        <time>2011-05-08T10:33:45Z</time>
      </trkpt>
      <trkpt lat="44.7883" lon="-0.35331">
        <ele>144.69999694824</ele>
        <time>2011-05-08T10:33:46Z</time>
      </trkpt>
      <trkpt lat="44.78821" lon="-0.35315">
        <ele>143.30000305176</ele>
        <time>2011-05-08T10:33:48Z</time>
      </trkpt>
      <trkpt lat="44.78818" lon="-0.35308">
        <ele>143.60000610352</ele>
        <time>2011-05-08T10:33:49Z</time>
      </trkpt>
      <trkpt lat="44.78813" lon="-0.35302">
        <ele>143.80000305176</ele>
        <time>2011-05-08T10:33:50Z</time>
      </trkpt>
      <trkpt lat="44.78807" lon="-0.35295">
        <ele>144.30000305176</ele>
        <time>2011-05-08T10:33:51Z</time>
      </trkpt>
      <trkpt lat="44.78801" lon="-0.35288">
        <ele>144.69999694824</ele>
        <time>2011-05-08T10:33:52Z</time>
      </trkpt>
      <trkpt lat="44.78794" lon="-0.3528">
        <ele>144.19999694824</ele>
        <time>2011-05-08T10:33:53Z</time>
      </trkpt>
      <trkpt lat="44.78788" lon="-0.35272">
        <ele>144.19999694824</ele>
        <time>2011-05-08T10:33:54Z</time>
      </trkpt>
      <trkpt lat="44.78781" lon="-0.35264">
        <ele>144.80000305176</ele>
        <time>2011-05-08T10:33:55Z</time>
      </trkpt>
      <trkpt lat="44.78774" lon="-0.35255">
        <ele>144.69999694824</ele>
        <time>2011-05-08T10:33:56Z</time>
      </trkpt>
      <trkpt lat="44.78767" lon="-0.35246">
        <ele>145</ele>
        <time>2011-05-08T10:33:57Z</time>
      </trkpt>
      <trkpt lat="44.78759" lon="-0.35238">
        <ele>146.19999694824</ele>
        <time>2011-05-08T10:33:58Z</time>
      </trkpt>
      <trkpt lat="44.78752" lon="-0.35231">
        <ele>145.80000305176</ele>
        <time>2011-05-08T10:33:59Z</time>
      </trkpt>
      <trkpt lat="44.78745" lon="-0.35225">
        <ele>146.5</ele>
        <time>2011-05-08T10:34:00Z</time>
      </trkpt>
      <trkpt lat="44.78739" lon="-0.35222">
        <ele>146.10000610352</ele>
        <time>2011-05-08T10:34:01Z</time>
      </trkpt>
      <trkpt lat="44.78733" lon="-0.35215">
        <ele>145.80000305176</ele>
        <time>2011-05-08T10:34:02Z</time>
      </trkpt>
      <trkpt lat="44.78727" lon="-0.35209">
        <ele>144</ele>
        <time>2011-05-08T10:34:03Z</time>
      </trkpt>
      <trkpt lat="44.78719" lon="-0.35203">
        <ele>141.80000305176</ele>
        <time>2011-05-08T10:34:04Z</time>
      </trkpt>
      <trkpt lat="44.78713" lon="-0.35194">
        <ele>140.39999389648</ele>
        <time>2011-05-08T10:34:05Z</time>
      </trkpt>
      <trkpt lat="44.78708" lon="-0.35186">
        <ele>138.80000305176</ele>
        <time>2011-05-08T10:34:06Z</time>
      </trkpt>
      <trkpt lat="44.78701" lon="-0.35179">
        <ele>137.89999389648</ele>
        <time>2011-05-08T10:34:07Z</time>
      </trkpt>
      <trkpt lat="44.78696" lon="-0.3517">
        <ele>136.80000305176</ele>
        <time>2011-05-08T10:34:08Z</time>
      </trkpt>
      <trkpt lat="44.78692" lon="-0.35161">
        <ele>136.30000305176</ele>
        <time>2011-05-08T10:34:09Z</time>
      </trkpt>
      <trkpt lat="44.78687" lon="-0.35156">
        <ele>135.10000610352</ele>
        <time>2011-05-08T10:34:10Z</time>
      </trkpt>
      <trkpt lat="44.78683" lon="-0.35153">
        <ele>135.10000610352</ele>
        <time>2011-05-08T10:34:11Z</time>
      </trkpt>
      <trkpt lat="44.78678" lon="-0.35155">
        <ele>134.80000305176</ele>
        <time>2011-05-08T10:34:15Z</time>
      </trkpt>
      <trkpt lat="44.78672" lon="-0.35154">
        <ele>133.80000305176</ele>
        <time>2011-05-08T10:34:20Z</time>
      </trkpt>
      <trkpt lat="44.78668" lon="-0.35149">
        <ele>132.10000610352</ele>
        <time>2011-05-08T10:34:23Z</time>
      </trkpt>
      <trkpt lat="44.78663" lon="-0.35146">
        <ele>132.30000305176</ele>
        <time>2011-05-08T10:34:26Z</time>
      </trkpt>
      <trkpt lat="44.78658" lon="-0.3514">
        <ele>133.5</ele>
        <time>2011-05-08T10:34:29Z</time>
      </trkpt>
      <trkpt lat="44.78654" lon="-0.35136">
        <ele>133.5</ele>
        <time>2011-05-08T10:34:31Z</time>
      </trkpt>
      <trkpt lat="44.78649" lon="-0.35133">
        <ele>133.5</ele>
        <time>2011-05-08T10:34:33Z</time>
      </trkpt>
      <trkpt lat="44.78645" lon="-0.35129">
        <ele>133.10000610352</ele>
        <time>2011-05-08T10:34:35Z</time>
      </trkpt>
      <trkpt lat="44.7864" lon="-0.35126">
        <ele>132.80000305176</ele>
        <time>2011-05-08T10:34:37Z</time>
      </trkpt>
      <trkpt lat="44.78635" lon="-0.35123">
        <ele>132.5</ele>
        <time>2011-05-08T10:34:38Z</time>
      </trkpt>
      <trkpt lat="44.7863" lon="-0.35121">
        <ele>132.30000305176</ele>
        <time>2011-05-08T10:34:40Z</time>
      </trkpt>
      <trkpt lat="44.78624" lon="-0.35117">
        <ele>132.10000610352</ele>
        <time>2011-05-08T10:34:44Z</time>
      </trkpt>
      <trkpt lat="44.78621" lon="-0.35113">
        <ele>131.80000305176</ele>
        <time>2011-05-08T10:34:46Z</time>
      </trkpt>
      <trkpt lat="44.78615" lon="-0.35111">
        <ele>131.69999694824</ele>
        <time>2011-05-08T10:34:50Z</time>
      </trkpt>
      <trkpt lat="44.78609" lon="-0.35105">
        <ele>131.39999389648</ele>
        <time>2011-05-08T10:34:53Z</time>
      </trkpt>
      <trkpt lat="44.78607" lon="-0.35098">
        <ele>132.69999694824</ele>
        <time>2011-05-08T10:34:55Z</time>
      </trkpt>
      <trkpt lat="44.78603" lon="-0.35093">
        <ele>132.89999389648</ele>
        <time>2011-05-08T10:34:59Z</time>
      </trkpt>
      <trkpt lat="44.786" lon="-0.35087">
        <ele>132.19999694824</ele>
        <time>2011-05-08T10:35:03Z</time>
      </trkpt>
      <trkpt lat="44.78596" lon="-0.35084">
        <ele>132.89999389648</ele>
        <time>2011-05-08T10:35:06Z</time>
      </trkpt>
      <trkpt lat="44.78591" lon="-0.35079">
        <ele>133.19999694824</ele>
        <time>2011-05-08T10:35:09Z</time>
      </trkpt>
      <trkpt lat="44.78588" lon="-0.35074">
        <ele>133.80000305176</ele>
        <time>2011-05-08T10:35:11Z</time>
      </trkpt>
      <trkpt lat="44.78584" lon="-0.35068">
        <ele>133.89999389648</ele>
        <time>2011-05-08T10:35:14Z</time>
      </trkpt>
      <trkpt lat="44.78579" lon="-0.35065">
        <ele>132.60000610352</ele>
        <time>2011-05-08T10:35:18Z</time>
      </trkpt>
      <trkpt lat="44.78574" lon="-0.35059">
        <ele>133.39999389648</ele>
        <time>2011-05-08T10:35:23Z</time>
      </trkpt>
      <trkpt lat="44.78569" lon="-0.35056">
        <ele>133.39999389648</ele>
        <time>2011-05-08T10:35:27Z</time>
      </trkpt>
      <trkpt lat="44.78564" lon="-0.35049">
        <ele>134.10000610352</ele>
        <time>2011-05-08T10:35:31Z</time>
      </trkpt>
      <trkpt lat="44.78559" lon="-0.35046">
        <ele>134.5</ele>
        <time>2011-05-08T10:35:33Z</time>
      </trkpt>
      <trkpt lat="44.78554" lon="-0.35043">
        <ele>132.60000610352</ele>
        <time>2011-05-08T10:35:36Z</time>
      </trkpt>
      <trkpt lat="44.78548" lon="-0.35038">
        <ele>133.30000305176</ele>
        <time>2011-05-08T10:35:40Z</time>
      </trkpt>
      <trkpt lat="44.78543" lon="-0.35031">
        <ele>132.69999694824</ele>
        <time>2011-05-08T10:35:43Z</time>
      </trkpt>
      <trkpt lat="44.78539" lon="-0.35025">
        <ele>132.10000610352</ele>
        <time>2011-05-08T10:35:46Z</time>
      </trkpt>
      <trkpt lat="44.78535" lon="-0.35018">
        <ele>131.60000610352</ele>
        <time>2011-05-08T10:35:49Z</time>
      </trkpt>
      <trkpt lat="44.78531" lon="-0.35011">
        <ele>132.10000610352</ele>
        <time>2011-05-08T10:35:52Z</time>
      </trkpt>
      <trkpt lat="44.78528" lon="-0.35005">
        <ele>132.80000305176</ele>
        <time>2011-05-08T10:35:54Z</time>
      </trkpt>
      <trkpt lat="44.78525" lon="-0.34999">
        <ele>132.89999389648</ele>
        <time>2011-05-08T10:35:57Z</time>
      </trkpt>
      <trkpt lat="44.7852" lon="-0.34994">
        <ele>134.10000610352</ele>
        <time>2011-05-08T10:36:00Z</time>
      </trkpt>
      <trkpt lat="44.78516" lon="-0.3499">
        <ele>135</ele>
        <time>2011-05-08T10:36:03Z</time>
      </trkpt>
      <trkpt lat="44.7851" lon="-0.34987">
        <ele>135.60000610352</ele>
        <time>2011-05-08T10:36:06Z</time>
      </trkpt>
      <trkpt lat="44.78505" lon="-0.34982">
        <ele>137.5</ele>
        <time>2011-05-08T10:36:08Z</time>
      </trkpt>
      <trkpt lat="44.78501" lon="-0.34977">
        <ele>138.19999694824</ele>
        <time>2011-05-08T10:36:10Z</time>
      </trkpt>
      <trkpt lat="44.78495" lon="-0.34972">
        <ele>138.80000305176</ele>
        <time>2011-05-08T10:36:12Z</time>
      </trkpt>
      <trkpt lat="44.78491" lon="-0.34965">
        <ele>139.19999694824</ele>
        <time>2011-05-08T10:36:14Z</time>
      </trkpt>
      <trkpt lat="44.78486" lon="-0.34958">
        <ele>138.60000610352</ele>
        <time>2011-05-08T10:36:16Z</time>
      </trkpt>
      <trkpt lat="44.78481" lon="-0.34956">
        <ele>138.19999694824</ele>
        <time>2011-05-08T10:36:18Z</time>
      </trkpt>
      <trkpt lat="44.78476" lon="-0.34952">
        <ele>139.39999389648</ele>
        <time>2011-05-08T10:36:21Z</time>
      </trkpt>
      <trkpt lat="44.78471" lon="-0.34948">
        <ele>139.19999694824</ele>
        <time>2011-05-08T10:36:23Z</time>
      </trkpt>
      <trkpt lat="44.78466" lon="-0.34946">
        <ele>139.69999694824</ele>
        <time>2011-05-08T10:36:25Z</time>
      </trkpt>
      <trkpt lat="44.78461" lon="-0.34941">
        <ele>140.19999694824</ele>
        <time>2011-05-08T10:36:28Z</time>
      </trkpt>
      <trkpt lat="44.78455" lon="-0.34938">
        <ele>140.19999694824</ele>
        <time>2011-05-08T10:36:30Z</time>
      </trkpt>
      <trkpt lat="44.78448" lon="-0.34934">
        <ele>140.69999694824</ele>
        <time>2011-05-08T10:36:32Z</time>
      </trkpt>
      <trkpt lat="44.78441" lon="-0.34934">
        <ele>139.60000610352</ele>
        <time>2011-05-08T10:36:34Z</time>
      </trkpt>
      <trkpt lat="44.78432" lon="-0.34933">
        <ele>139.69999694824</ele>
        <time>2011-05-08T10:36:36Z</time>
      </trkpt>
      <trkpt lat="44.78428" lon="-0.34929">
        <ele>140.19999694824</ele>
        <time>2011-05-08T10:36:37Z</time>
      </trkpt>
      <trkpt lat="44.78421" lon="-0.34926">
        <ele>140.5</ele>
        <time>2011-05-08T10:36:39Z</time>
      </trkpt>
      <trkpt lat="44.78414" lon="-0.34923">
        <ele>140.19999694824</ele>
        <time>2011-05-08T10:36:41Z</time>
      </trkpt>
      <trkpt lat="44.78407" lon="-0.34921">
        <ele>141.5</ele>
        <time>2011-05-08T10:36:43Z</time>
      </trkpt>
      <trkpt lat="44.78401" lon="-0.3492">
        <ele>141.80000305176</ele>
        <time>2011-05-08T10:36:45Z</time>
      </trkpt>
      <trkpt lat="44.78396" lon="-0.34918">
        <ele>141.89999389648</ele>
        <time>2011-05-08T10:36:47Z</time>
      </trkpt>
      <trkpt lat="44.78389" lon="-0.34916">
        <ele>142.80000305176</ele>
        <time>2011-05-08T10:36:49Z</time>
      </trkpt>
      <trkpt lat="44.78382" lon="-0.34915">
        <ele>141.80000305176</ele>
        <time>2011-05-08T10:36:51Z</time>
      </trkpt>
      <trkpt lat="44.78376" lon="-0.34912">
        <ele>142</ele>
        <time>2011-05-08T10:36:53Z</time>
      </trkpt>
      <trkpt lat="44.78369" lon="-0.34911">
        <ele>143.10000610352</ele>
        <time>2011-05-08T10:36:55Z</time>
      </trkpt>
      <trkpt lat="44.78363" lon="-0.34909">
        <ele>143.80000305176</ele>
        <time>2011-05-08T10:36:57Z</time>
      </trkpt>
      <trkpt lat="44.78356" lon="-0.34906">
        <ele>144.80000305176</ele>
        <time>2011-05-08T10:36:59Z</time>
      </trkpt>
      <trkpt lat="44.7835" lon="-0.34905">
        <ele>144.80000305176</ele>
        <time>2011-05-08T10:37:01Z</time>
      </trkpt>
      <trkpt lat="44.78343" lon="-0.34902">
        <ele>145.19999694824</ele>
        <time>2011-05-08T10:37:03Z</time>
      </trkpt>
      <trkpt lat="44.78334" lon="-0.349">
        <ele>144.80000305176</ele>
        <time>2011-05-08T10:37:05Z</time>
      </trkpt>
      <trkpt lat="44.78326" lon="-0.34895">
        <ele>145.19999694824</ele>
        <time>2011-05-08T10:37:07Z</time>
      </trkpt>
      <trkpt lat="44.7832" lon="-0.34891">
        <ele>144.30000305176</ele>
        <time>2011-05-08T10:37:09Z</time>
      </trkpt>
      <trkpt lat="44.78313" lon="-0.34887">
        <ele>143.89999389648</ele>
        <time>2011-05-08T10:37:11Z</time>
      </trkpt>
      <trkpt lat="44.78305" lon="-0.34883">
        <ele>143.69999694824</ele>
        <time>2011-05-08T10:37:13Z</time>
      </trkpt>
      <trkpt lat="44.78297" lon="-0.34879">
        <ele>142.69999694824</ele>
        <time>2011-05-08T10:37:15Z</time>
      </trkpt>
      <trkpt lat="44.7829" lon="-0.34874">
        <ele>141.69999694824</ele>
        <time>2011-05-08T10:37:17Z</time>
      </trkpt>
      <trkpt lat="44.78285" lon="-0.34871">
        <ele>141.89999389648</ele>
        <time>2011-05-08T10:37:18Z</time>
      </trkpt>
      <trkpt lat="44.78277" lon="-0.34867">
        <ele>142.60000610352</ele>
        <time>2011-05-08T10:37:20Z</time>
      </trkpt>
      <trkpt lat="44.78268" lon="-0.34863">
        <ele>143.5</ele>
        <time>2011-05-08T10:37:22Z</time>
      </trkpt>
      <trkpt lat="44.7826" lon="-0.34858">
        <ele>143.39999389648</ele>
        <time>2011-05-08T10:37:24Z</time>
      </trkpt>
      <trkpt lat="44.78253" lon="-0.34853">
        <ele>143.10000610352</ele>
        <time>2011-05-08T10:37:26Z</time>
      </trkpt>
      <trkpt lat="44.78247" lon="-0.34849">
        <ele>142.5</ele>
        <time>2011-05-08T10:37:28Z</time>
      </trkpt>
      <trkpt lat="44.7824" lon="-0.34847">
        <ele>142.5</ele>
        <time>2011-05-08T10:37:30Z</time>
      </trkpt>
      <trkpt lat="44.78233" lon="-0.34851">
        <ele>142.39999389648</ele>
        <time>2011-05-08T10:37:32Z</time>
      </trkpt>
      <trkpt lat="44.78229" lon="-0.34855">
        <ele>142.39999389648</ele>
        <time>2011-05-08T10:37:33Z</time>
      </trkpt>
      <trkpt lat="44.78221" lon="-0.3486">
        <ele>142.30000305176</ele>
        <time>2011-05-08T10:37:35Z</time>
      </trkpt>
      <trkpt lat="44.78213" lon="-0.34867">
        <ele>142.60000610352</ele>
        <time>2011-05-08T10:37:37Z</time>
      </trkpt>
      <trkpt lat="44.78206" lon="-0.34871">
        <ele>143.69999694824</ele>
        <time>2011-05-08T10:37:39Z</time>
      </trkpt>
      <trkpt lat="44.78201" lon="-0.34873">
        <ele>143.80000305176</ele>
        <time>2011-05-08T10:37:40Z</time>
      </trkpt>
      <trkpt lat="44.78197" lon="-0.34876">
        <ele>143.69999694824</ele>
        <time>2011-05-08T10:37:41Z</time>
      </trkpt>
      <trkpt lat="44.78193" lon="-0.3488">
        <ele>144.10000610352</ele>
        <time>2011-05-08T10:37:42Z</time>
      </trkpt>
      <trkpt lat="44.78185" lon="-0.34885">
        <ele>143.19999694824</ele>
        <time>2011-05-08T10:37:44Z</time>
      </trkpt>
      <trkpt lat="44.7818" lon="-0.34888">
        <ele>143.19999694824</ele>
        <time>2011-05-08T10:37:45Z</time>
      </trkpt>
      <trkpt lat="44.78173" lon="-0.34894">
        <ele>143.60000610352</ele>
        <time>2011-05-08T10:37:47Z</time>
      </trkpt>
      <trkpt lat="44.78165" lon="-0.34898">
        <ele>143.60000610352</ele>
        <time>2011-05-08T10:37:49Z</time>
      </trkpt>
      <trkpt lat="44.78161" lon="-0.34901">
        <ele>144.30000305176</ele>
        <time>2011-05-08T10:37:50Z</time>
      </trkpt>
      <trkpt lat="44.78152" lon="-0.34907">
        <ele>144.5</ele>
        <time>2011-05-08T10:37:52Z</time>
      </trkpt>
      <trkpt lat="44.78148" lon="-0.3491">
        <ele>144.30000305176</ele>
        <time>2011-05-08T10:37:53Z</time>
      </trkpt>
      <trkpt lat="44.78144" lon="-0.34913">
        <ele>144.19999694824</ele>
        <time>2011-05-08T10:37:54Z</time>
      </trkpt>
      <trkpt lat="44.7814" lon="-0.34916">
        <ele>144.19999694824</ele>
        <time>2011-05-08T10:37:55Z</time>
      </trkpt>
      <trkpt lat="44.78131" lon="-0.34922">
        <ele>144.5</ele>
        <time>2011-05-08T10:37:57Z</time>
      </trkpt>
      <trkpt lat="44.78122" lon="-0.34927">
        <ele>144.89999389648</ele>
        <time>2011-05-08T10:37:59Z</time>
      </trkpt>
      <trkpt lat="44.78118" lon="-0.34931">
        <ele>144.30000305176</ele>
        <time>2011-05-08T10:38:00Z</time>
      </trkpt>
      <trkpt lat="44.78113" lon="-0.34934">
        <ele>144.30000305176</ele>
        <time>2011-05-08T10:38:01Z</time>
      </trkpt>
      <trkpt lat="44.78108" lon="-0.34936">
        <ele>144.39999389648</ele>
        <time>2011-05-08T10:38:02Z</time>
      </trkpt>
      <trkpt lat="44.78104" lon="-0.34939">
        <ele>145</ele>
        <time>2011-05-08T10:38:03Z</time>
      </trkpt>
      <trkpt lat="44.78096" lon="-0.34945">
        <ele>145.39999389648</ele>
        <time>2011-05-08T10:38:05Z</time>
      </trkpt>
      <trkpt lat="44.78091" lon="-0.34947">
        <ele>145.89999389648</ele>
        <time>2011-05-08T10:38:06Z</time>
      </trkpt>
      <trkpt lat="44.78085" lon="-0.34949">
        <ele>146</ele>
        <time>2011-05-08T10:38:07Z</time>
      </trkpt>
      <trkpt lat="44.7808" lon="-0.34951">
        <ele>145.60000610352</ele>
        <time>2011-05-08T10:38:08Z</time>
      </trkpt>
      <trkpt lat="44.78075" lon="-0.34952">
        <ele>146.39999389648</ele>
        <time>2011-05-08T10:38:09Z</time>
      </trkpt>
      <trkpt lat="44.7807" lon="-0.34956">
        <ele>146.69999694824</ele>
        <time>2011-05-08T10:38:10Z</time>
      </trkpt>
      <trkpt lat="44.78066" lon="-0.34959">
        <ele>146.80000305176</ele>
        <time>2011-05-08T10:38:11Z</time>
      </trkpt>
      <trkpt lat="44.78061" lon="-0.34961">
        <ele>146.69999694824</ele>
        <time>2011-05-08T10:38:12Z</time>
      </trkpt>
      <trkpt lat="44.78056" lon="-0.34963">
        <ele>147</ele>
        <time>2011-05-08T10:38:13Z</time>
      </trkpt>
      <trkpt lat="44.78047" lon="-0.34966">
        <ele>146.89999389648</ele>
        <time>2011-05-08T10:38:15Z</time>
      </trkpt>
      <trkpt lat="44.78042" lon="-0.34968">
        <ele>146.80000305176</ele>
        <time>2011-05-08T10:38:16Z</time>
      </trkpt>
      <trkpt lat="44.78037" lon="-0.34969">
        <ele>146.69999694824</ele>
        <time>2011-05-08T10:38:17Z</time>
      </trkpt>
      <trkpt lat="44.78031" lon="-0.3497">
        <ele>146.60000610352</ele>
        <time>2011-05-08T10:38:18Z</time>
      </trkpt>
      <trkpt lat="44.78026" lon="-0.34971">
        <ele>146.69999694824</ele>
        <time>2011-05-08T10:38:19Z</time>
      </trkpt>
      <trkpt lat="44.78021" lon="-0.34972">
        <ele>146.80000305176</ele>
        <time>2011-05-08T10:38:20Z</time>
      </trkpt>
      <trkpt lat="44.78016" lon="-0.34974">
        <ele>147.69999694824</ele>
        <time>2011-05-08T10:38:21Z</time>
      </trkpt>
      <trkpt lat="44.78011" lon="-0.34976">
        <ele>148.19999694824</ele>
        <time>2011-05-08T10:38:22Z</time>
      </trkpt>
      <trkpt lat="44.78001" lon="-0.34979">
        <ele>148.5</ele>
        <time>2011-05-08T10:38:24Z</time>
      </trkpt>
      <trkpt lat="44.77997" lon="-0.3498">
        <ele>148.60000610352</ele>
        <time>2011-05-08T10:38:25Z</time>
      </trkpt>
      <trkpt lat="44.77987" lon="-0.34982">
        <ele>148.89999389648</ele>
        <time>2011-05-08T10:38:27Z</time>
      </trkpt>
      <trkpt lat="44.77983" lon="-0.34983">
        <ele>149.10000610352</ele>
        <time>2011-05-08T10:38:28Z</time>
      </trkpt>
      <trkpt lat="44.77977" lon="-0.34983">
        <ele>148.89999389648</ele>
        <time>2011-05-08T10:38:29Z</time>
      </trkpt>
      <trkpt lat="44.77972" lon="-0.34984">
        <ele>149</ele>
        <time>2011-05-08T10:38:30Z</time>
      </trkpt>
      <trkpt lat="44.77963" lon="-0.34988">
        <ele>150.30000305176</ele>
        <time>2011-05-08T10:38:32Z</time>
      </trkpt>
      <trkpt lat="44.77955" lon="-0.34993">
        <ele>149.89999389648</ele>
        <time>2011-05-08T10:38:34Z</time>
      </trkpt>
      <trkpt lat="44.77951" lon="-0.34997">
        <ele>149.89999389648</ele>
        <time>2011-05-08T10:38:35Z</time>
      </trkpt>
      <trkpt lat="44.77947" lon="-0.35">
        <ele>149.30000305176</ele>
        <time>2011-05-08T10:38:36Z</time>
      </trkpt>
      <trkpt lat="44.77943" lon="-0.35005">
        <ele>149.5</ele>
        <time>2011-05-08T10:38:37Z</time>
      </trkpt>
      <trkpt lat="44.7794" lon="-0.3501">
        <ele>150.30000305176</ele>
        <time>2011-05-08T10:38:38Z</time>
      </trkpt>
      <trkpt lat="44.77938" lon="-0.35015">
        <ele>150.10000610352</ele>
        <time>2011-05-08T10:38:39Z</time>
      </trkpt>
      <trkpt lat="44.77935" lon="-0.35021">
        <ele>150.39999389648</ele>
        <time>2011-05-08T10:38:40Z</time>
      </trkpt>
      <trkpt lat="44.77931" lon="-0.35031">
        <ele>150.89999389648</ele>
        <time>2011-05-08T10:38:42Z</time>
      </trkpt>
      <trkpt lat="44.77928" lon="-0.35036">
        <ele>150.60000610352</ele>
        <time>2011-05-08T10:38:43Z</time>
      </trkpt>
      <trkpt lat="44.77925" lon="-0.35041">
        <ele>150.19999694824</ele>
        <time>2011-05-08T10:38:44Z</time>
      </trkpt>
      <trkpt lat="44.77922" lon="-0.35046">
        <ele>149.30000305176</ele>
        <time>2011-05-08T10:38:45Z</time>
      </trkpt>
      <trkpt lat="44.77918" lon="-0.35052">
        <ele>148.80000305176</ele>
        <time>2011-05-08T10:38:46Z</time>
      </trkpt>
      <trkpt lat="44.77914" lon="-0.35053">
        <ele>149.19999694824</ele>
        <time>2011-05-08T10:38:47Z</time>
      </trkpt>
      <trkpt lat="44.77904" lon="-0.35056">
        <ele>148.60000610352</ele>
        <time>2011-05-08T10:38:49Z</time>
      </trkpt>
      <trkpt lat="44.77899" lon="-0.35056">
        <ele>148.30000305176</ele>
        <time>2011-05-08T10:38:50Z</time>
      </trkpt>
      <trkpt lat="44.77895" lon="-0.35055">
        <ele>148.39999389648</ele>
        <time>2011-05-08T10:38:51Z</time>
      </trkpt>
      <trkpt lat="44.7789" lon="-0.35054">
        <ele>148.19999694824</ele>
        <time>2011-05-08T10:38:52Z</time>
      </trkpt>
      <trkpt lat="44.77879" lon="-0.35051">
        <ele>150</ele>
        <time>2011-05-08T10:38:54Z</time>
      </trkpt>
      <trkpt lat="44.77875" lon="-0.3505">
        <ele>149.89999389648</ele>
        <time>2011-05-08T10:38:55Z</time>
      </trkpt>
      <trkpt lat="44.77869" lon="-0.35048">
        <ele>150.19999694824</ele>
        <time>2011-05-08T10:38:56Z</time>
      </trkpt>
      <trkpt lat="44.77864" lon="-0.35046">
        <ele>150.30000305176</ele>
        <time>2011-05-08T10:38:57Z</time>
      </trkpt>
      <trkpt lat="44.77859" lon="-0.35044">
        <ele>149.89999389648</ele>
        <time>2011-05-08T10:38:58Z</time>
      </trkpt>
      <trkpt lat="44.77853" lon="-0.35043">
        <ele>150</ele>
        <time>2011-05-08T10:38:59Z</time>
      </trkpt>
      <trkpt lat="44.77848" lon="-0.35041">
        <ele>150</ele>
        <time>2011-05-08T10:39:00Z</time>
      </trkpt>
      <trkpt lat="44.77842" lon="-0.3504">
        <ele>150.19999694824</ele>
        <time>2011-05-08T10:39:01Z</time>
      </trkpt>
      <trkpt lat="44.77837" lon="-0.35039">
        <ele>150.69999694824</ele>
        <time>2011-05-08T10:39:02Z</time>
      </trkpt>
      <trkpt lat="44.77831" lon="-0.35037">
        <ele>150.60000610352</ele>
        <time>2011-05-08T10:39:03Z</time>
      </trkpt>
      <trkpt lat="44.77826" lon="-0.35038">
        <ele>151</ele>
        <time>2011-05-08T10:39:04Z</time>
      </trkpt>
      <trkpt lat="44.7782" lon="-0.35038">
        <ele>151.39999389648</ele>
        <time>2011-05-08T10:39:05Z</time>
      </trkpt>
      <trkpt lat="44.77814" lon="-0.35038">
        <ele>151.5</ele>
        <time>2011-05-08T10:39:06Z</time>
      </trkpt>
      <trkpt lat="44.77809" lon="-0.35038">
        <ele>150.80000305176</ele>
        <time>2011-05-08T10:39:07Z</time>
      </trkpt>
      <trkpt lat="44.77804" lon="-0.35038">
        <ele>151.30000305176</ele>
        <time>2011-05-08T10:39:08Z</time>
      </trkpt>
      <trkpt lat="44.77798" lon="-0.35037">
        <ele>151.30000305176</ele>
        <time>2011-05-08T10:39:09Z</time>
      </trkpt>
      <trkpt lat="44.77792" lon="-0.35038">
        <ele>151.5</ele>
        <time>2011-05-08T10:39:10Z</time>
      </trkpt>
      <trkpt lat="44.77787" lon="-0.35039">
        <ele>152</ele>
        <time>2011-05-08T10:39:11Z</time>
      </trkpt>
      <trkpt lat="44.77781" lon="-0.35039">
        <ele>151.89999389648</ele>
        <time>2011-05-08T10:39:12Z</time>
      </trkpt>
      <trkpt lat="44.77776" lon="-0.35041">
        <ele>151.89999389648</ele>
        <time>2011-05-08T10:39:13Z</time>
      </trkpt>
      <trkpt lat="44.77768" lon="-0.35045">
        <ele>151.30000305176</ele>
        <time>2011-05-08T10:39:15Z</time>
      </trkpt>
      <trkpt lat="44.77764" lon="-0.35049">
        <ele>151.19999694824</ele>
        <time>2011-05-08T10:39:17Z</time>
      </trkpt>
      <trkpt lat="44.77755" lon="-0.35047">
        <ele>149.5</ele>
        <time>2011-05-08T10:39:19Z</time>
      </trkpt>
      <trkpt lat="44.7775" lon="-0.35045">
        <ele>149.10000610352</ele>
        <time>2011-05-08T10:39:20Z</time>
      </trkpt>
      <trkpt lat="44.77746" lon="-0.35042">
        <ele>149.19999694824</ele>
        <time>2011-05-08T10:39:21Z</time>
      </trkpt>
      <trkpt lat="44.7774" lon="-0.35038">
        <ele>149.19999694824</ele>
        <time>2011-05-08T10:39:22Z</time>
      </trkpt>
      <trkpt lat="44.77735" lon="-0.35035">
        <ele>148.80000305176</ele>
        <time>2011-05-08T10:39:23Z</time>
      </trkpt>
      <trkpt lat="44.77729" lon="-0.35031">
        <ele>148.89999389648</ele>
        <time>2011-05-08T10:39:24Z</time>
      </trkpt>
      <trkpt lat="44.77724" lon="-0.35027">
        <ele>149</ele>
        <time>2011-05-08T10:39:25Z</time>
      </trkpt>
      <trkpt lat="44.77718" lon="-0.35023">
        <ele>148.89999389648</ele>
        <time>2011-05-08T10:39:26Z</time>
      </trkpt>
      <trkpt lat="44.77713" lon="-0.35018">
        <ele>148.89999389648</ele>
        <time>2011-05-08T10:39:27Z</time>
      </trkpt>
      <trkpt lat="44.77708" lon="-0.35014">
        <ele>149</ele>
        <time>2011-05-08T10:39:28Z</time>
      </trkpt>
      <trkpt lat="44.77703" lon="-0.35009">
        <ele>148.89999389648</ele>
        <time>2011-05-08T10:39:29Z</time>
      </trkpt>
      <trkpt lat="44.77698" lon="-0.35005">
        <ele>148.80000305176</ele>
        <time>2011-05-08T10:39:30Z</time>
      </trkpt>
      <trkpt lat="44.77692" lon="-0.35002">
        <ele>148.89999389648</ele>
        <time>2011-05-08T10:39:31Z</time>
      </trkpt>
      <trkpt lat="44.77686" lon="-0.34998">
        <ele>149</ele>
        <time>2011-05-08T10:39:32Z</time>
      </trkpt>
      <trkpt lat="44.7768" lon="-0.34994">
        <ele>149.5</ele>
        <time>2011-05-08T10:39:33Z</time>
      </trkpt>
      <trkpt lat="44.77674" lon="-0.34993">
        <ele>150</ele>
        <time>2011-05-08T10:39:34Z</time>
      </trkpt>
      <trkpt lat="44.77668" lon="-0.34994">
        <ele>151</ele>
        <time>2011-05-08T10:39:35Z</time>
      </trkpt>
      <trkpt lat="44.77663" lon="-0.34992">
        <ele>151.30000305176</ele>
        <time>2011-05-08T10:39:36Z</time>
      </trkpt>
      <trkpt lat="44.77656" lon="-0.34985">
        <ele>151.69999694824</ele>
        <time>2011-05-08T10:39:38Z</time>
      </trkpt>
      <trkpt lat="44.77653" lon="-0.34978">
        <ele>151.60000610352</ele>
        <time>2011-05-08T10:39:39Z</time>
      </trkpt>
      <trkpt lat="44.77654" lon="-0.3497">
        <ele>152.5</ele>
        <time>2011-05-08T10:39:40Z</time>
      </trkpt>
      <trkpt lat="44.77655" lon="-0.34962">
        <ele>152.89999389648</ele>
        <time>2011-05-08T10:39:41Z</time>
      </trkpt>
      <trkpt lat="44.77657" lon="-0.34955">
        <ele>152.5</ele>
        <time>2011-05-08T10:39:42Z</time>
      </trkpt>
      <trkpt lat="44.77657" lon="-0.34946">
        <ele>152.19999694824</ele>
        <time>2011-05-08T10:39:43Z</time>
      </trkpt>
      <trkpt lat="44.77658" lon="-0.34938">
        <ele>152.10000610352</ele>
        <time>2011-05-08T10:39:44Z</time>
      </trkpt>
      <trkpt lat="44.7766" lon="-0.34931">
        <ele>152.39999389648</ele>
        <time>2011-05-08T10:39:45Z</time>
      </trkpt>
      <trkpt lat="44.77662" lon="-0.34923">
        <ele>152.30000305176</ele>
        <time>2011-05-08T10:39:47Z</time>
      </trkpt>
      <trkpt lat="44.77665" lon="-0.34919">
        <ele>152</ele>
        <time>2011-05-08T10:39:59Z</time>
      </trkpt>
      <trkpt lat="44.7767" lon="-0.34916">
        <ele>152.19999694824</ele>
        <time>2011-05-08T10:40:44Z</time>
      </trkpt>
      <trkpt lat="44.77665" lon="-0.34918">
        <ele>148.30000305176</ele>
        <time>2011-05-08T10:40:59Z</time>
      </trkpt>
    </trkseg>
  </trk>
</gpx>